<?xml version="1.0" encoding="UTF-8" standalone="no" ?>
<gpx xmlns="http://www.topografix.com/GPX/1/1" xmlns:xsi="http://www.w3.org/2001/XMLSchema-instance" xsi:schemaLocation="http://www.topografix.com/GPX/1/1 http://www.topografix.com/GPX/1/1/gpx.xsd" version="1.1" creator="VisuGPX - https://www.visugpx.com">
  <metadata>
    <name>French-divide 2021</name>
  </metadata>
  <trk>
    <name><![CDATA[07 FD]]></name>
    <trkseg>
      <trkpt lat="46.83572" lon="4.28364">
        <ele>575.01</ele>
        <time>2021-08-13T03:00:57Z</time>
      </trkpt>
      <trkpt lat="46.83572" lon="4.28363">
        <ele>575.01</ele>
        <time>2021-08-13T03:00:58Z</time>
      </trkpt>
      <trkpt lat="46.83571" lon="4.28362">
        <ele>575.01</ele>
        <time>2021-08-13T03:00:59Z</time>
      </trkpt>
      <trkpt lat="46.83571" lon="4.2836">
        <ele>575.01</ele>
        <time>2021-08-13T03:01:00Z</time>
      </trkpt>
      <trkpt lat="46.8357" lon="4.2836">
        <ele>575.01</ele>
        <time>2021-08-13T03:01:01Z</time>
      </trkpt>
      <trkpt lat="46.83569" lon="4.28359">
        <ele>575.01</ele>
        <time>2021-08-13T03:01:02Z</time>
      </trkpt>
      <trkpt lat="46.83568" lon="4.28358">
        <ele>575.01</ele>
        <time>2021-08-13T03:01:03Z</time>
      </trkpt>
      <trkpt lat="46.83566" lon="4.28355">
        <ele>575.01</ele>
        <time>2021-08-13T03:01:05Z</time>
      </trkpt>
      <trkpt lat="46.83564" lon="4.28355">
        <ele>575.01</ele>
        <time>2021-08-13T03:01:06Z</time>
      </trkpt>
      <trkpt lat="46.83562" lon="4.28354">
        <ele>575.01</ele>
        <time>2021-08-13T03:01:07Z</time>
      </trkpt>
      <trkpt lat="46.8356" lon="4.28354">
        <ele>575.01</ele>
        <time>2021-08-13T03:01:08Z</time>
      </trkpt>
      <trkpt lat="46.83558" lon="4.28353">
        <ele>575.01</ele>
        <time>2021-08-13T03:01:09Z</time>
      </trkpt>
      <trkpt lat="46.83556" lon="4.28351">
        <ele>575.01</ele>
        <time>2021-08-13T03:01:10Z</time>
      </trkpt>
      <trkpt lat="46.83555" lon="4.2835">
        <ele>575.01</ele>
        <time>2021-08-13T03:01:11Z</time>
      </trkpt>
      <trkpt lat="46.83552" lon="4.2835">
        <ele>575.01</ele>
        <time>2021-08-13T03:01:12Z</time>
      </trkpt>
      <trkpt lat="46.8355" lon="4.2835">
        <ele>575.01</ele>
        <time>2021-08-13T03:01:13Z</time>
      </trkpt>
      <trkpt lat="46.83548" lon="4.28349">
        <ele>575.01</ele>
        <time>2021-08-13T03:01:14Z</time>
      </trkpt>
      <trkpt lat="46.83546" lon="4.28349">
        <ele>575.01</ele>
        <time>2021-08-13T03:01:15Z</time>
      </trkpt>
      <trkpt lat="46.83544" lon="4.28348">
        <ele>575.49</ele>
        <time>2021-08-13T03:01:16Z</time>
      </trkpt>
      <trkpt lat="46.83541" lon="4.28348">
        <ele>575.49</ele>
        <time>2021-08-13T03:01:17Z</time>
      </trkpt>
      <trkpt lat="46.83539" lon="4.28347">
        <ele>575.49</ele>
        <time>2021-08-13T03:01:18Z</time>
      </trkpt>
      <trkpt lat="46.83519" lon="4.28342">
        <ele>575.49</ele>
        <time>2021-08-13T03:01:26Z</time>
      </trkpt>
      <trkpt lat="46.83503" lon="4.28337">
        <ele>575.49</ele>
        <time>2021-08-13T03:01:33Z</time>
      </trkpt>
      <trkpt lat="46.83484" lon="4.28329">
        <ele>575.97</ele>
        <time>2021-08-13T03:01:42Z</time>
      </trkpt>
      <trkpt lat="46.83464" lon="4.28321">
        <ele>576.45</ele>
        <time>2021-08-13T03:01:51Z</time>
      </trkpt>
      <trkpt lat="46.8344" lon="4.28312">
        <ele>577.41</ele>
        <time>2021-08-13T03:02:02Z</time>
      </trkpt>
      <trkpt lat="46.83418" lon="4.28303">
        <ele>578.85</ele>
        <time>2021-08-13T03:02:13Z</time>
      </trkpt>
      <trkpt lat="46.83397" lon="4.28293">
        <ele>580.77</ele>
        <time>2021-08-13T03:02:24Z</time>
      </trkpt>
      <trkpt lat="46.83378" lon="4.28279">
        <ele>581.73</ele>
        <time>2021-08-13T03:02:35Z</time>
      </trkpt>
      <trkpt lat="46.83363" lon="4.28266">
        <ele>583.66</ele>
        <time>2021-08-13T03:02:45Z</time>
      </trkpt>
      <trkpt lat="46.83353" lon="4.28255">
        <ele>584.62</ele>
        <time>2021-08-13T03:02:53Z</time>
      </trkpt>
      <trkpt lat="46.83345" lon="4.28246">
        <ele>585.1</ele>
        <time>2021-08-13T03:03:00Z</time>
      </trkpt>
      <trkpt lat="46.83344" lon="4.28244">
        <ele>585.1</ele>
        <time>2021-08-13T03:03:01Z</time>
      </trkpt>
      <trkpt lat="46.83336" lon="4.28234">
        <ele>585.1</ele>
        <time>2021-08-13T03:03:07Z</time>
      </trkpt>
      <trkpt lat="46.83334" lon="4.28232">
        <ele>585.1</ele>
        <time>2021-08-13T03:03:08Z</time>
      </trkpt>
      <trkpt lat="46.83332" lon="4.2823">
        <ele>585.1</ele>
        <time>2021-08-13T03:03:09Z</time>
      </trkpt>
      <trkpt lat="46.8333" lon="4.28228">
        <ele>585.1</ele>
        <time>2021-08-13T03:03:10Z</time>
      </trkpt>
      <trkpt lat="46.83329" lon="4.28226">
        <ele>585.1</ele>
        <time>2021-08-13T03:03:11Z</time>
      </trkpt>
      <trkpt lat="46.83326" lon="4.28224">
        <ele>585.1</ele>
        <time>2021-08-13T03:03:12Z</time>
      </trkpt>
      <trkpt lat="46.83324" lon="4.28222">
        <ele>585.1</ele>
        <time>2021-08-13T03:03:13Z</time>
      </trkpt>
      <trkpt lat="46.83322" lon="4.28221">
        <ele>585.1</ele>
        <time>2021-08-13T03:03:14Z</time>
      </trkpt>
      <trkpt lat="46.8332" lon="4.28218">
        <ele>585.1</ele>
        <time>2021-08-13T03:03:15Z</time>
      </trkpt>
      <trkpt lat="46.83318" lon="4.28216">
        <ele>585.1</ele>
        <time>2021-08-13T03:03:16Z</time>
      </trkpt>
      <trkpt lat="46.83316" lon="4.28215">
        <ele>585.1</ele>
        <time>2021-08-13T03:03:17Z</time>
      </trkpt>
      <trkpt lat="46.83314" lon="4.28213">
        <ele>585.1</ele>
        <time>2021-08-13T03:03:18Z</time>
      </trkpt>
      <trkpt lat="46.83294" lon="4.28201">
        <ele>585.1</ele>
        <time>2021-08-13T03:03:24Z</time>
      </trkpt>
      <trkpt lat="46.83268" lon="4.28183">
        <ele>585.1</ele>
        <time>2021-08-13T03:03:32Z</time>
      </trkpt>
      <trkpt lat="46.83251" lon="4.28168">
        <ele>585.1</ele>
        <time>2021-08-13T03:03:39Z</time>
      </trkpt>
      <trkpt lat="46.83234" lon="4.28149">
        <ele>586.06</ele>
        <time>2021-08-13T03:03:48Z</time>
      </trkpt>
      <trkpt lat="46.83214" lon="4.28129">
        <ele>587.02</ele>
        <time>2021-08-13T03:03:58Z</time>
      </trkpt>
      <trkpt lat="46.83197" lon="4.2811">
        <ele>588.95</ele>
        <time>2021-08-13T03:04:08Z</time>
      </trkpt>
      <trkpt lat="46.83183" lon="4.28097">
        <ele>589.91</ele>
        <time>2021-08-13T03:04:16Z</time>
      </trkpt>
      <trkpt lat="46.83173" lon="4.28082">
        <ele>590.87</ele>
        <time>2021-08-13T03:04:24Z</time>
      </trkpt>
      <trkpt lat="46.83172" lon="4.28081">
        <ele>591.35</ele>
        <time>2021-08-13T03:04:25Z</time>
      </trkpt>
      <trkpt lat="46.83171" lon="4.28079">
        <ele>591.83</ele>
        <time>2021-08-13T03:04:26Z</time>
      </trkpt>
      <trkpt lat="46.83158" lon="4.28066">
        <ele>592.79</ele>
        <time>2021-08-13T03:04:33Z</time>
      </trkpt>
      <trkpt lat="46.83145" lon="4.28053">
        <ele>593.27</ele>
        <time>2021-08-13T03:04:40Z</time>
      </trkpt>
      <trkpt lat="46.8313" lon="4.28039">
        <ele>593.27</ele>
        <time>2021-08-13T03:04:48Z</time>
      </trkpt>
      <trkpt lat="46.83106" lon="4.2803">
        <ele>591.83</ele>
        <time>2021-08-13T03:04:55Z</time>
      </trkpt>
      <trkpt lat="46.83089" lon="4.2803">
        <ele>590.87</ele>
        <time>2021-08-13T03:05:00Z</time>
      </trkpt>
      <trkpt lat="46.83069" lon="4.28039">
        <ele>589.43</ele>
        <time>2021-08-13T03:05:06Z</time>
      </trkpt>
      <trkpt lat="46.83051" lon="4.28052">
        <ele>587.5</ele>
        <time>2021-08-13T03:05:12Z</time>
      </trkpt>
      <trkpt lat="46.83039" lon="4.28062">
        <ele>585.58</ele>
        <time>2021-08-13T03:05:17Z</time>
      </trkpt>
      <trkpt lat="46.83022" lon="4.28073">
        <ele>584.14</ele>
        <time>2021-08-13T03:05:23Z</time>
      </trkpt>
      <trkpt lat="46.83008" lon="4.28088">
        <ele>582.22</ele>
        <time>2021-08-13T03:05:28Z</time>
      </trkpt>
      <trkpt lat="46.82997" lon="4.28102">
        <ele>581.25</ele>
        <time>2021-08-13T03:05:33Z</time>
      </trkpt>
      <trkpt lat="46.82985" lon="4.28122">
        <ele>579.33</ele>
        <time>2021-08-13T03:05:38Z</time>
      </trkpt>
      <trkpt lat="46.82971" lon="4.28141">
        <ele>576.93</ele>
        <time>2021-08-13T03:05:44Z</time>
      </trkpt>
      <trkpt lat="46.82964" lon="4.28154">
        <ele>575.97</ele>
        <time>2021-08-13T03:05:47Z</time>
      </trkpt>
      <trkpt lat="46.82961" lon="4.28159">
        <ele>575.97</ele>
        <time>2021-08-13T03:05:48Z</time>
      </trkpt>
      <trkpt lat="46.82956" lon="4.28164">
        <ele>575.49</ele>
        <time>2021-08-13T03:05:49Z</time>
      </trkpt>
      <trkpt lat="46.82953" lon="4.28168">
        <ele>575.49</ele>
        <time>2021-08-13T03:05:50Z</time>
      </trkpt>
      <trkpt lat="46.8295" lon="4.28172">
        <ele>575.01</ele>
        <time>2021-08-13T03:05:51Z</time>
      </trkpt>
      <trkpt lat="46.82947" lon="4.28176">
        <ele>575.01</ele>
        <time>2021-08-13T03:05:52Z</time>
      </trkpt>
      <trkpt lat="46.82944" lon="4.2818">
        <ele>575.01</ele>
        <time>2021-08-13T03:05:53Z</time>
      </trkpt>
      <trkpt lat="46.82941" lon="4.28185">
        <ele>574.53</ele>
        <time>2021-08-13T03:05:54Z</time>
      </trkpt>
      <trkpt lat="46.82939" lon="4.28189">
        <ele>574.53</ele>
        <time>2021-08-13T03:05:55Z</time>
      </trkpt>
      <trkpt lat="46.82918" lon="4.28224">
        <ele>573.56</ele>
        <time>2021-08-13T03:06:02Z</time>
      </trkpt>
      <trkpt lat="46.82891" lon="4.28256">
        <ele>572.12</ele>
        <time>2021-08-13T03:06:09Z</time>
      </trkpt>
      <trkpt lat="46.82866" lon="4.28273">
        <ele>571.64</ele>
        <time>2021-08-13T03:06:17Z</time>
      </trkpt>
      <trkpt lat="46.82841" lon="4.28275">
        <ele>571.64</ele>
        <time>2021-08-13T03:06:24Z</time>
      </trkpt>
      <trkpt lat="46.82812" lon="4.28283">
        <ele>571.64</ele>
        <time>2021-08-13T03:06:33Z</time>
      </trkpt>
      <trkpt lat="46.82795" lon="4.28287">
        <ele>573.08</ele>
        <time>2021-08-13T03:06:39Z</time>
      </trkpt>
      <trkpt lat="46.82773" lon="4.28289">
        <ele>575.01</ele>
        <time>2021-08-13T03:06:47Z</time>
      </trkpt>
      <trkpt lat="46.82747" lon="4.28287">
        <ele>575.49</ele>
        <time>2021-08-13T03:06:56Z</time>
      </trkpt>
      <trkpt lat="46.82718" lon="4.28287">
        <ele>574.04</ele>
        <time>2021-08-13T03:07:04Z</time>
      </trkpt>
      <trkpt lat="46.82715" lon="4.28287">
        <ele>574.04</ele>
        <time>2021-08-13T03:07:05Z</time>
      </trkpt>
      <trkpt lat="46.82684" lon="4.28282">
        <ele>573.56</ele>
        <time>2021-08-13T03:07:14Z</time>
      </trkpt>
      <trkpt lat="46.82663" lon="4.2828">
        <ele>573.56</ele>
        <time>2021-08-13T03:07:21Z</time>
      </trkpt>
      <trkpt lat="46.82649" lon="4.28277">
        <ele>573.56</ele>
        <time>2021-08-13T03:07:27Z</time>
      </trkpt>
      <trkpt lat="46.82633" lon="4.28269">
        <ele>573.56</ele>
        <time>2021-08-13T03:07:34Z</time>
      </trkpt>
      <trkpt lat="46.82626" lon="4.28265">
        <ele>575.01</ele>
        <time>2021-08-13T03:07:37Z</time>
      </trkpt>
      <trkpt lat="46.82613" lon="4.28256">
        <ele>575.97</ele>
        <time>2021-08-13T03:07:43Z</time>
      </trkpt>
      <trkpt lat="46.82591" lon="4.28239">
        <ele>576.93</ele>
        <time>2021-08-13T03:07:52Z</time>
      </trkpt>
      <trkpt lat="46.82569" lon="4.28221">
        <ele>578.37</ele>
        <time>2021-08-13T03:08:02Z</time>
      </trkpt>
      <trkpt lat="46.82551" lon="4.28202">
        <ele>579.33</ele>
        <time>2021-08-13T03:08:11Z</time>
      </trkpt>
      <trkpt lat="46.82538" lon="4.28186">
        <ele>580.29</ele>
        <time>2021-08-13T03:08:18Z</time>
      </trkpt>
      <trkpt lat="46.82528" lon="4.28176">
        <ele>581.73</ele>
        <time>2021-08-13T03:08:24Z</time>
      </trkpt>
      <trkpt lat="46.82513" lon="4.28166">
        <ele>582.7</ele>
        <time>2021-08-13T03:08:32Z</time>
      </trkpt>
      <trkpt lat="46.825" lon="4.28158">
        <ele>583.66</ele>
        <time>2021-08-13T03:08:40Z</time>
      </trkpt>
      <trkpt lat="46.82491" lon="4.28153">
        <ele>585.1</ele>
        <time>2021-08-13T03:08:47Z</time>
      </trkpt>
      <trkpt lat="46.82487" lon="4.2815">
        <ele>585.58</ele>
        <time>2021-08-13T03:08:50Z</time>
      </trkpt>
      <trkpt lat="46.82476" lon="4.28145">
        <ele>586.54</ele>
        <time>2021-08-13T03:08:57Z</time>
      </trkpt>
      <trkpt lat="46.82468" lon="4.28144">
        <ele>587.5</ele>
        <time>2021-08-13T03:09:02Z</time>
      </trkpt>
      <trkpt lat="46.82466" lon="4.28143">
        <ele>587.98</ele>
        <time>2021-08-13T03:09:03Z</time>
      </trkpt>
      <trkpt lat="46.82458" lon="4.28143">
        <ele>588.95</ele>
        <time>2021-08-13T03:09:11Z</time>
      </trkpt>
      <trkpt lat="46.82452" lon="4.28145">
        <ele>589.91</ele>
        <time>2021-08-13T03:09:18Z</time>
      </trkpt>
      <trkpt lat="46.82447" lon="4.28145">
        <ele>590.87</ele>
        <time>2021-08-13T03:09:23Z</time>
      </trkpt>
      <trkpt lat="46.82438" lon="4.28145">
        <ele>591.83</ele>
        <time>2021-08-13T03:09:30Z</time>
      </trkpt>
      <trkpt lat="46.82437" lon="4.28145">
        <ele>591.83</ele>
        <time>2021-08-13T03:09:31Z</time>
      </trkpt>
      <trkpt lat="46.82435" lon="4.28144">
        <ele>591.83</ele>
        <time>2021-08-13T03:09:32Z</time>
      </trkpt>
      <trkpt lat="46.82424" lon="4.28142">
        <ele>593.75</ele>
        <time>2021-08-13T03:09:41Z</time>
      </trkpt>
      <trkpt lat="46.82413" lon="4.28139">
        <ele>594.23</ele>
        <time>2021-08-13T03:09:50Z</time>
      </trkpt>
      <trkpt lat="46.82396" lon="4.28135">
        <ele>594.71</ele>
        <time>2021-08-13T03:09:59Z</time>
      </trkpt>
      <trkpt lat="46.82374" lon="4.28133">
        <ele>593.75</ele>
        <time>2021-08-13T03:10:07Z</time>
      </trkpt>
      <trkpt lat="46.82354" lon="4.28132">
        <ele>592.79</ele>
        <time>2021-08-13T03:10:13Z</time>
      </trkpt>
      <trkpt lat="46.82348" lon="4.28132">
        <ele>592.79</ele>
        <time>2021-08-13T03:10:15Z</time>
      </trkpt>
      <trkpt lat="46.82347" lon="4.28133">
        <ele>592.31</ele>
        <time>2021-08-13T03:10:16Z</time>
      </trkpt>
      <trkpt lat="46.82345" lon="4.28133">
        <ele>592.31</ele>
        <time>2021-08-13T03:10:17Z</time>
      </trkpt>
      <trkpt lat="46.82326" lon="4.28134">
        <ele>591.83</ele>
        <time>2021-08-13T03:10:24Z</time>
      </trkpt>
      <trkpt lat="46.82315" lon="4.28133">
        <ele>591.83</ele>
        <time>2021-08-13T03:10:30Z</time>
      </trkpt>
      <trkpt lat="46.82304" lon="4.28132">
        <ele>592.31</ele>
        <time>2021-08-13T03:10:36Z</time>
      </trkpt>
      <trkpt lat="46.8229" lon="4.28132">
        <ele>592.31</ele>
        <time>2021-08-13T03:10:42Z</time>
      </trkpt>
      <trkpt lat="46.82275" lon="4.28127">
        <ele>592.31</ele>
        <time>2021-08-13T03:10:48Z</time>
      </trkpt>
      <trkpt lat="46.82263" lon="4.28123">
        <ele>593.75</ele>
        <time>2021-08-13T03:10:54Z</time>
      </trkpt>
      <trkpt lat="46.8225" lon="4.28121">
        <ele>594.23</ele>
        <time>2021-08-13T03:11:00Z</time>
      </trkpt>
      <trkpt lat="46.82237" lon="4.28119">
        <ele>595.19</ele>
        <time>2021-08-13T03:11:06Z</time>
      </trkpt>
      <trkpt lat="46.82219" lon="4.28119">
        <ele>595.67</ele>
        <time>2021-08-13T03:11:13Z</time>
      </trkpt>
      <trkpt lat="46.82202" lon="4.28118">
        <ele>597.12</ele>
        <time>2021-08-13T03:11:21Z</time>
      </trkpt>
      <trkpt lat="46.82189" lon="4.28116">
        <ele>597.6</ele>
        <time>2021-08-13T03:11:27Z</time>
      </trkpt>
      <trkpt lat="46.82175" lon="4.28113">
        <ele>598.56</ele>
        <time>2021-08-13T03:11:34Z</time>
      </trkpt>
      <trkpt lat="46.82172" lon="4.28113">
        <ele>598.56</ele>
        <time>2021-08-13T03:11:35Z</time>
      </trkpt>
      <trkpt lat="46.82154" lon="4.28116">
        <ele>599.04</ele>
        <time>2021-08-13T03:11:43Z</time>
      </trkpt>
      <trkpt lat="46.82143" lon="4.28121">
        <ele>599.52</ele>
        <time>2021-08-13T03:11:48Z</time>
      </trkpt>
      <trkpt lat="46.82131" lon="4.28131">
        <ele>600.48</ele>
        <time>2021-08-13T03:11:55Z</time>
      </trkpt>
      <trkpt lat="46.82126" lon="4.28136">
        <ele>601.44</ele>
        <time>2021-08-13T03:11:58Z</time>
      </trkpt>
      <trkpt lat="46.82125" lon="4.28137">
        <ele>601.92</ele>
        <time>2021-08-13T03:11:59Z</time>
      </trkpt>
      <trkpt lat="46.82123" lon="4.28139">
        <ele>601.92</ele>
        <time>2021-08-13T03:12:00Z</time>
      </trkpt>
      <trkpt lat="46.82119" lon="4.28142">
        <ele>602.4</ele>
        <time>2021-08-13T03:12:04Z</time>
      </trkpt>
      <trkpt lat="46.82116" lon="4.28144">
        <ele>602.4</ele>
        <time>2021-08-13T03:12:05Z</time>
      </trkpt>
      <trkpt lat="46.82114" lon="4.28146">
        <ele>602.4</ele>
        <time>2021-08-13T03:12:06Z</time>
      </trkpt>
      <trkpt lat="46.82112" lon="4.28147">
        <ele>602.88</ele>
        <time>2021-08-13T03:12:07Z</time>
      </trkpt>
      <trkpt lat="46.82099" lon="4.28154">
        <ele>603.36</ele>
        <time>2021-08-13T03:12:13Z</time>
      </trkpt>
      <trkpt lat="46.82085" lon="4.28165">
        <ele>603.85</ele>
        <time>2021-08-13T03:12:20Z</time>
      </trkpt>
      <trkpt lat="46.8207" lon="4.28179">
        <ele>603.85</ele>
        <time>2021-08-13T03:12:27Z</time>
      </trkpt>
      <trkpt lat="46.82057" lon="4.28201">
        <ele>605.29</ele>
        <time>2021-08-13T03:12:35Z</time>
      </trkpt>
      <trkpt lat="46.82045" lon="4.28213">
        <ele>606.25</ele>
        <time>2021-08-13T03:12:42Z</time>
      </trkpt>
      <trkpt lat="46.82043" lon="4.28215">
        <ele>606.73</ele>
        <time>2021-08-13T03:12:44Z</time>
      </trkpt>
      <trkpt lat="46.82041" lon="4.28216">
        <ele>607.21</ele>
        <time>2021-08-13T03:12:45Z</time>
      </trkpt>
      <trkpt lat="46.8204" lon="4.28216">
        <ele>607.21</ele>
        <time>2021-08-13T03:12:46Z</time>
      </trkpt>
      <trkpt lat="46.82039" lon="4.28216">
        <ele>607.21</ele>
        <time>2021-08-13T03:12:47Z</time>
      </trkpt>
      <trkpt lat="46.8203" lon="4.28218">
        <ele>608.65</ele>
        <time>2021-08-13T03:12:54Z</time>
      </trkpt>
      <trkpt lat="46.8202" lon="4.28217">
        <ele>610.09</ele>
        <time>2021-08-13T03:13:03Z</time>
      </trkpt>
      <trkpt lat="46.82012" lon="4.28216">
        <ele>611.06</ele>
        <time>2021-08-13T03:13:10Z</time>
      </trkpt>
      <trkpt lat="46.82002" lon="4.28217">
        <ele>612.5</ele>
        <time>2021-08-13T03:13:19Z</time>
      </trkpt>
      <trkpt lat="46.80801" lon="4.28393">
        <ele>619.23</ele>
        <time>2021-08-13T03:24:07Z</time>
      </trkpt>
      <trkpt lat="46.80784" lon="4.28402">
        <ele>619.71</ele>
        <time>2021-08-13T03:25:26Z</time>
      </trkpt>
      <trkpt lat="46.8081" lon="4.28387">
        <ele>620.67</ele>
        <time>2021-08-13T03:27:44Z</time>
      </trkpt>
      <trkpt lat="46.8081" lon="4.28387">
        <ele>620.67</ele>
        <time>2021-08-13T03:27:45Z</time>
      </trkpt>
      <trkpt lat="46.80809" lon="4.28385">
        <ele>620.67</ele>
        <time>2021-08-13T03:27:58Z</time>
      </trkpt>
      <trkpt lat="46.8081" lon="4.28384">
        <ele>620.67</ele>
        <time>2021-08-13T03:28:06Z</time>
      </trkpt>
      <trkpt lat="46.80811" lon="4.28383">
        <ele>620.67</ele>
        <time>2021-08-13T03:28:16Z</time>
      </trkpt>
      <trkpt lat="46.80814" lon="4.28389">
        <ele>620.67</ele>
        <time>2021-08-13T03:28:19Z</time>
      </trkpt>
      <trkpt lat="46.80816" lon="4.28391">
        <ele>620.67</ele>
        <time>2021-08-13T03:28:20Z</time>
      </trkpt>
      <trkpt lat="46.80818" lon="4.28392">
        <ele>620.67</ele>
        <time>2021-08-13T03:28:21Z</time>
      </trkpt>
      <trkpt lat="46.8082" lon="4.28394">
        <ele>620.67</ele>
        <time>2021-08-13T03:28:22Z</time>
      </trkpt>
      <trkpt lat="46.80822" lon="4.28397">
        <ele>619.23</ele>
        <time>2021-08-13T03:28:23Z</time>
      </trkpt>
      <trkpt lat="46.80833" lon="4.28409">
        <ele>618.26</ele>
        <time>2021-08-13T03:28:28Z</time>
      </trkpt>
      <trkpt lat="46.80833" lon="4.28411">
        <ele>617.78</ele>
        <time>2021-08-13T03:28:36Z</time>
      </trkpt>
      <trkpt lat="46.80835" lon="4.28416">
        <ele>617.78</ele>
        <time>2021-08-13T03:28:50Z</time>
      </trkpt>
      <trkpt lat="46.80837" lon="4.28418">
        <ele>617.78</ele>
        <time>2021-08-13T03:28:51Z</time>
      </trkpt>
      <trkpt lat="46.80839" lon="4.28422">
        <ele>617.3</ele>
        <time>2021-08-13T03:28:52Z</time>
      </trkpt>
      <trkpt lat="46.80847" lon="4.2843">
        <ele>616.82</ele>
        <time>2021-08-13T03:28:54Z</time>
      </trkpt>
      <trkpt lat="46.80865" lon="4.2845">
        <ele>614.42</ele>
        <time>2021-08-13T03:28:58Z</time>
      </trkpt>
      <trkpt lat="46.80884" lon="4.28473">
        <ele>612.02</ele>
        <time>2021-08-13T03:29:02Z</time>
      </trkpt>
      <trkpt lat="46.80888" lon="4.28479">
        <ele>611.54</ele>
        <time>2021-08-13T03:29:03Z</time>
      </trkpt>
      <trkpt lat="46.80916" lon="4.28515">
        <ele>611.06</ele>
        <time>2021-08-13T03:29:09Z</time>
      </trkpt>
      <trkpt lat="46.80933" lon="4.28538">
        <ele>610.09</ele>
        <time>2021-08-13T03:29:13Z</time>
      </trkpt>
      <trkpt lat="46.8095" lon="4.28566">
        <ele>610.09</ele>
        <time>2021-08-13T03:29:19Z</time>
      </trkpt>
      <trkpt lat="46.80956" lon="4.28574">
        <ele>611.54</ele>
        <time>2021-08-13T03:29:22Z</time>
      </trkpt>
      <trkpt lat="46.80972" lon="4.28591">
        <ele>612.5</ele>
        <time>2021-08-13T03:29:28Z</time>
      </trkpt>
      <trkpt lat="46.80994" lon="4.28606">
        <ele>613.46</ele>
        <time>2021-08-13T03:29:35Z</time>
      </trkpt>
      <trkpt lat="46.81014" lon="4.28609">
        <ele>614.42</ele>
        <time>2021-08-13T03:29:41Z</time>
      </trkpt>
      <trkpt lat="46.8103" lon="4.28608">
        <ele>614.9</ele>
        <time>2021-08-13T03:29:47Z</time>
      </trkpt>
      <trkpt lat="46.81044" lon="4.28606">
        <ele>616.82</ele>
        <time>2021-08-13T03:29:54Z</time>
      </trkpt>
      <trkpt lat="46.81059" lon="4.286">
        <ele>617.78</ele>
        <time>2021-08-13T03:30:02Z</time>
      </trkpt>
      <trkpt lat="46.81075" lon="4.28598">
        <ele>618.26</ele>
        <time>2021-08-13T03:30:08Z</time>
      </trkpt>
      <trkpt lat="46.81098" lon="4.28599">
        <ele>618.75</ele>
        <time>2021-08-13T03:30:16Z</time>
      </trkpt>
      <trkpt lat="46.81102" lon="4.28601">
        <ele>618.75</ele>
        <time>2021-08-13T03:30:17Z</time>
      </trkpt>
      <trkpt lat="46.81106" lon="4.28601">
        <ele>618.75</ele>
        <time>2021-08-13T03:30:18Z</time>
      </trkpt>
      <trkpt lat="46.8111" lon="4.28601">
        <ele>619.71</ele>
        <time>2021-08-13T03:30:19Z</time>
      </trkpt>
      <trkpt lat="46.81115" lon="4.286">
        <ele>619.71</ele>
        <time>2021-08-13T03:30:20Z</time>
      </trkpt>
      <trkpt lat="46.81118" lon="4.286">
        <ele>619.71</ele>
        <time>2021-08-13T03:30:21Z</time>
      </trkpt>
      <trkpt lat="46.81134" lon="4.28603">
        <ele>619.71</ele>
        <time>2021-08-13T03:30:26Z</time>
      </trkpt>
      <trkpt lat="46.81155" lon="4.28612">
        <ele>621.15</ele>
        <time>2021-08-13T03:30:33Z</time>
      </trkpt>
      <trkpt lat="46.81165" lon="4.28623">
        <ele>622.11</ele>
        <time>2021-08-13T03:30:38Z</time>
      </trkpt>
      <trkpt lat="46.81182" lon="4.28631">
        <ele>622.11</ele>
        <time>2021-08-13T03:30:44Z</time>
      </trkpt>
      <trkpt lat="46.81196" lon="4.28635">
        <ele>622.59</ele>
        <time>2021-08-13T03:30:49Z</time>
      </trkpt>
      <trkpt lat="46.81212" lon="4.28643">
        <ele>624.03</ele>
        <time>2021-08-13T03:30:54Z</time>
      </trkpt>
      <trkpt lat="46.81232" lon="4.28651">
        <ele>624.03</ele>
        <time>2021-08-13T03:31:01Z</time>
      </trkpt>
      <trkpt lat="46.81255" lon="4.28642">
        <ele>624.51</ele>
        <time>2021-08-13T03:31:07Z</time>
      </trkpt>
      <trkpt lat="46.8128" lon="4.28632">
        <ele>624.51</ele>
        <time>2021-08-13T03:31:14Z</time>
      </trkpt>
      <trkpt lat="46.81302" lon="4.28627">
        <ele>624.51</ele>
        <time>2021-08-13T03:31:20Z</time>
      </trkpt>
      <trkpt lat="46.81308" lon="4.28625">
        <ele>623.07</ele>
        <time>2021-08-13T03:31:21Z</time>
      </trkpt>
      <trkpt lat="46.81338" lon="4.2862">
        <ele>622.59</ele>
        <time>2021-08-13T03:31:27Z</time>
      </trkpt>
      <trkpt lat="46.81371" lon="4.2861">
        <ele>621.63</ele>
        <time>2021-08-13T03:31:34Z</time>
      </trkpt>
      <trkpt lat="46.81397" lon="4.28604">
        <ele>620.19</ele>
        <time>2021-08-13T03:31:40Z</time>
      </trkpt>
      <trkpt lat="46.81401" lon="4.28602">
        <ele>620.19</ele>
        <time>2021-08-13T03:31:41Z</time>
      </trkpt>
      <trkpt lat="46.81409" lon="4.28597">
        <ele>620.19</ele>
        <time>2021-08-13T03:31:43Z</time>
      </trkpt>
      <trkpt lat="46.81412" lon="4.28594">
        <ele>620.19</ele>
        <time>2021-08-13T03:31:44Z</time>
      </trkpt>
      <trkpt lat="46.81419" lon="4.28587">
        <ele>620.19</ele>
        <time>2021-08-13T03:31:46Z</time>
      </trkpt>
      <trkpt lat="46.81427" lon="4.28568">
        <ele>620.19</ele>
        <time>2021-08-13T03:31:51Z</time>
      </trkpt>
      <trkpt lat="46.81435" lon="4.2855">
        <ele>619.71</ele>
        <time>2021-08-13T03:31:56Z</time>
      </trkpt>
      <trkpt lat="46.81444" lon="4.28538">
        <ele>619.71</ele>
        <time>2021-08-13T03:31:59Z</time>
      </trkpt>
      <trkpt lat="46.81447" lon="4.28533">
        <ele>619.71</ele>
        <time>2021-08-13T03:32:00Z</time>
      </trkpt>
      <trkpt lat="46.81449" lon="4.28529">
        <ele>620.19</ele>
        <time>2021-08-13T03:32:01Z</time>
      </trkpt>
      <trkpt lat="46.81452" lon="4.28523">
        <ele>620.19</ele>
        <time>2021-08-13T03:32:02Z</time>
      </trkpt>
      <trkpt lat="46.81453" lon="4.28518">
        <ele>620.19</ele>
        <time>2021-08-13T03:32:03Z</time>
      </trkpt>
      <trkpt lat="46.81455" lon="4.28513">
        <ele>620.19</ele>
        <time>2021-08-13T03:32:04Z</time>
      </trkpt>
      <trkpt lat="46.81458" lon="4.28508">
        <ele>620.19</ele>
        <time>2021-08-13T03:32:05Z</time>
      </trkpt>
      <trkpt lat="46.8146" lon="4.28503">
        <ele>620.19</ele>
        <time>2021-08-13T03:32:06Z</time>
      </trkpt>
      <trkpt lat="46.81462" lon="4.28499">
        <ele>620.19</ele>
        <time>2021-08-13T03:32:07Z</time>
      </trkpt>
      <trkpt lat="46.8147" lon="4.28484">
        <ele>620.19</ele>
        <time>2021-08-13T03:32:10Z</time>
      </trkpt>
      <trkpt lat="46.8148" lon="4.28464">
        <ele>620.19</ele>
        <time>2021-08-13T03:32:14Z</time>
      </trkpt>
      <trkpt lat="46.81482" lon="4.28459">
        <ele>620.19</ele>
        <time>2021-08-13T03:32:15Z</time>
      </trkpt>
      <trkpt lat="46.81489" lon="4.28444">
        <ele>620.19</ele>
        <time>2021-08-13T03:32:18Z</time>
      </trkpt>
      <trkpt lat="46.81491" lon="4.28439">
        <ele>620.19</ele>
        <time>2021-08-13T03:32:19Z</time>
      </trkpt>
      <trkpt lat="46.81508" lon="4.28397">
        <ele>620.19</ele>
        <time>2021-08-13T03:32:27Z</time>
      </trkpt>
      <trkpt lat="46.81526" lon="4.28374">
        <ele>620.19</ele>
        <time>2021-08-13T03:32:34Z</time>
      </trkpt>
      <trkpt lat="46.81551" lon="4.28361">
        <ele>619.71</ele>
        <time>2021-08-13T03:32:41Z</time>
      </trkpt>
      <trkpt lat="46.81578" lon="4.28356">
        <ele>619.71</ele>
        <time>2021-08-13T03:32:48Z</time>
      </trkpt>
      <trkpt lat="46.81608" lon="4.28359">
        <ele>621.63</ele>
        <time>2021-08-13T03:32:56Z</time>
      </trkpt>
      <trkpt lat="46.81627" lon="4.28359">
        <ele>623.07</ele>
        <time>2021-08-13T03:33:02Z</time>
      </trkpt>
      <trkpt lat="46.8164" lon="4.28362">
        <ele>623.55</ele>
        <time>2021-08-13T03:33:08Z</time>
      </trkpt>
      <trkpt lat="46.81655" lon="4.28363">
        <ele>624.51</ele>
        <time>2021-08-13T03:33:15Z</time>
      </trkpt>
      <trkpt lat="46.81666" lon="4.2836">
        <ele>625.47</ele>
        <time>2021-08-13T03:33:22Z</time>
      </trkpt>
      <trkpt lat="46.81675" lon="4.28356">
        <ele>626.92</ele>
        <time>2021-08-13T03:33:28Z</time>
      </trkpt>
      <trkpt lat="46.81689" lon="4.28353">
        <ele>627.88</ele>
        <time>2021-08-13T03:33:35Z</time>
      </trkpt>
      <trkpt lat="46.81701" lon="4.28349">
        <ele>628.84</ele>
        <time>2021-08-13T03:33:42Z</time>
      </trkpt>
      <trkpt lat="46.81714" lon="4.28343">
        <ele>629.32</ele>
        <time>2021-08-13T03:33:48Z</time>
      </trkpt>
      <trkpt lat="46.81733" lon="4.28331">
        <ele>629.32</ele>
        <time>2021-08-13T03:33:55Z</time>
      </trkpt>
      <trkpt lat="46.81759" lon="4.28315">
        <ele>629.8</ele>
        <time>2021-08-13T03:34:03Z</time>
      </trkpt>
      <trkpt lat="46.81778" lon="4.28302">
        <ele>628.84</ele>
        <time>2021-08-13T03:34:09Z</time>
      </trkpt>
      <trkpt lat="46.81782" lon="4.28294">
        <ele>628.36</ele>
        <time>2021-08-13T03:34:11Z</time>
      </trkpt>
      <trkpt lat="46.81781" lon="4.28278">
        <ele>628.36</ele>
        <time>2021-08-13T03:34:16Z</time>
      </trkpt>
      <trkpt lat="46.81775" lon="4.28259">
        <ele>630.76</ele>
        <time>2021-08-13T03:34:23Z</time>
      </trkpt>
      <trkpt lat="46.81771" lon="4.2825">
        <ele>631.72</ele>
        <time>2021-08-13T03:34:27Z</time>
      </trkpt>
      <trkpt lat="46.8177" lon="4.28248">
        <ele>631.72</ele>
        <time>2021-08-13T03:34:28Z</time>
      </trkpt>
      <trkpt lat="46.81768" lon="4.28246">
        <ele>631.72</ele>
        <time>2021-08-13T03:34:29Z</time>
      </trkpt>
      <trkpt lat="46.81767" lon="4.28245">
        <ele>632.2</ele>
        <time>2021-08-13T03:34:30Z</time>
      </trkpt>
      <trkpt lat="46.81765" lon="4.28243">
        <ele>632.2</ele>
        <time>2021-08-13T03:34:31Z</time>
      </trkpt>
      <trkpt lat="46.81764" lon="4.28241">
        <ele>632.2</ele>
        <time>2021-08-13T03:34:32Z</time>
      </trkpt>
      <trkpt lat="46.81762" lon="4.28239">
        <ele>632.2</ele>
        <time>2021-08-13T03:34:33Z</time>
      </trkpt>
      <trkpt lat="46.8176" lon="4.28236">
        <ele>632.2</ele>
        <time>2021-08-13T03:34:34Z</time>
      </trkpt>
      <trkpt lat="46.81758" lon="4.28234">
        <ele>633.17</ele>
        <time>2021-08-13T03:34:35Z</time>
      </trkpt>
      <trkpt lat="46.81751" lon="4.28222">
        <ele>634.13</ele>
        <time>2021-08-13T03:34:42Z</time>
      </trkpt>
      <trkpt lat="46.81746" lon="4.28214">
        <ele>635.09</ele>
        <time>2021-08-13T03:34:48Z</time>
      </trkpt>
      <trkpt lat="46.81726" lon="4.28202">
        <ele>635.57</ele>
        <time>2021-08-13T03:34:56Z</time>
      </trkpt>
      <trkpt lat="46.81711" lon="4.28188">
        <ele>636.53</ele>
        <time>2021-08-13T03:35:02Z</time>
      </trkpt>
      <trkpt lat="46.81694" lon="4.28168">
        <ele>637.01</ele>
        <time>2021-08-13T03:35:10Z</time>
      </trkpt>
      <trkpt lat="46.81683" lon="4.28145">
        <ele>637.49</ele>
        <time>2021-08-13T03:35:16Z</time>
      </trkpt>
      <trkpt lat="46.81667" lon="4.28117">
        <ele>637.97</ele>
        <time>2021-08-13T03:35:22Z</time>
      </trkpt>
      <trkpt lat="46.81647" lon="4.28074">
        <ele>637.97</ele>
        <time>2021-08-13T03:35:30Z</time>
      </trkpt>
      <trkpt lat="46.81641" lon="4.28065">
        <ele>636.53</ele>
        <time>2021-08-13T03:35:32Z</time>
      </trkpt>
      <trkpt lat="46.8162" lon="4.28036">
        <ele>636.05</ele>
        <time>2021-08-13T03:35:38Z</time>
      </trkpt>
      <trkpt lat="46.81618" lon="4.2803">
        <ele>635.09</ele>
        <time>2021-08-13T03:35:39Z</time>
      </trkpt>
      <trkpt lat="46.81615" lon="4.28023">
        <ele>634.61</ele>
        <time>2021-08-13T03:35:40Z</time>
      </trkpt>
      <trkpt lat="46.81612" lon="4.28017">
        <ele>634.61</ele>
        <time>2021-08-13T03:35:41Z</time>
      </trkpt>
      <trkpt lat="46.81602" lon="4.27998">
        <ele>633.65</ele>
        <time>2021-08-13T03:35:44Z</time>
      </trkpt>
      <trkpt lat="46.81598" lon="4.27992">
        <ele>633.65</ele>
        <time>2021-08-13T03:35:45Z</time>
      </trkpt>
      <trkpt lat="46.81591" lon="4.2798">
        <ele>632.68</ele>
        <time>2021-08-13T03:35:47Z</time>
      </trkpt>
      <trkpt lat="46.81586" lon="4.27975">
        <ele>631.72</ele>
        <time>2021-08-13T03:35:48Z</time>
      </trkpt>
      <trkpt lat="46.81582" lon="4.27972">
        <ele>631.72</ele>
        <time>2021-08-13T03:35:49Z</time>
      </trkpt>
      <trkpt lat="46.81577" lon="4.2797">
        <ele>631.24</ele>
        <time>2021-08-13T03:35:50Z</time>
      </trkpt>
      <trkpt lat="46.81566" lon="4.27969">
        <ele>630.76</ele>
        <time>2021-08-13T03:35:52Z</time>
      </trkpt>
      <trkpt lat="46.81561" lon="4.27968">
        <ele>630.28</ele>
        <time>2021-08-13T03:35:53Z</time>
      </trkpt>
      <trkpt lat="46.81555" lon="4.27967">
        <ele>630.28</ele>
        <time>2021-08-13T03:35:54Z</time>
      </trkpt>
      <trkpt lat="46.81549" lon="4.27965">
        <ele>628.84</ele>
        <time>2021-08-13T03:35:55Z</time>
      </trkpt>
      <trkpt lat="46.81544" lon="4.27962">
        <ele>628.84</ele>
        <time>2021-08-13T03:35:56Z</time>
      </trkpt>
      <trkpt lat="46.81538" lon="4.27958">
        <ele>627.88</ele>
        <time>2021-08-13T03:35:57Z</time>
      </trkpt>
      <trkpt lat="46.81534" lon="4.27952">
        <ele>627.88</ele>
        <time>2021-08-13T03:35:58Z</time>
      </trkpt>
      <trkpt lat="46.81529" lon="4.27946">
        <ele>626.92</ele>
        <time>2021-08-13T03:35:59Z</time>
      </trkpt>
      <trkpt lat="46.81525" lon="4.2794">
        <ele>626.44</ele>
        <time>2021-08-13T03:36:00Z</time>
      </trkpt>
      <trkpt lat="46.81509" lon="4.27914">
        <ele>622.59</ele>
        <time>2021-08-13T03:36:04Z</time>
      </trkpt>
      <trkpt lat="46.81505" lon="4.27909">
        <ele>622.11</ele>
        <time>2021-08-13T03:36:05Z</time>
      </trkpt>
      <trkpt lat="46.81488" lon="4.27888">
        <ele>618.26</ele>
        <time>2021-08-13T03:36:08Z</time>
      </trkpt>
      <trkpt lat="46.81478" lon="4.27877">
        <ele>617.3</ele>
        <time>2021-08-13T03:36:10Z</time>
      </trkpt>
      <trkpt lat="46.81472" lon="4.27873">
        <ele>616.82</ele>
        <time>2021-08-13T03:36:13Z</time>
      </trkpt>
      <trkpt lat="46.81471" lon="4.27875">
        <ele>616.82</ele>
        <time>2021-08-13T03:36:14Z</time>
      </trkpt>
      <trkpt lat="46.81471" lon="4.27883">
        <ele>616.82</ele>
        <time>2021-08-13T03:36:19Z</time>
      </trkpt>
      <trkpt lat="46.81471" lon="4.2788">
        <ele>616.82</ele>
        <time>2021-08-13T03:36:20Z</time>
      </trkpt>
      <trkpt lat="46.81471" lon="4.27876">
        <ele>616.82</ele>
        <time>2021-08-13T03:36:21Z</time>
      </trkpt>
      <trkpt lat="46.81469" lon="4.27868">
        <ele>616.82</ele>
        <time>2021-08-13T03:36:23Z</time>
      </trkpt>
      <trkpt lat="46.81465" lon="4.27858">
        <ele>615.86</ele>
        <time>2021-08-13T03:36:25Z</time>
      </trkpt>
      <trkpt lat="46.81461" lon="4.27854">
        <ele>614.9</ele>
        <time>2021-08-13T03:36:26Z</time>
      </trkpt>
      <trkpt lat="46.81448" lon="4.2784">
        <ele>612.5</ele>
        <time>2021-08-13T03:36:30Z</time>
      </trkpt>
      <trkpt lat="46.81444" lon="4.27838">
        <ele>611.54</ele>
        <time>2021-08-13T03:36:31Z</time>
      </trkpt>
      <trkpt lat="46.8144" lon="4.27835">
        <ele>610.57</ele>
        <time>2021-08-13T03:36:32Z</time>
      </trkpt>
      <trkpt lat="46.81436" lon="4.27832">
        <ele>609.61</ele>
        <time>2021-08-13T03:36:33Z</time>
      </trkpt>
      <trkpt lat="46.81433" lon="4.2783">
        <ele>609.13</ele>
        <time>2021-08-13T03:36:34Z</time>
      </trkpt>
      <trkpt lat="46.81429" lon="4.27829">
        <ele>608.65</ele>
        <time>2021-08-13T03:36:35Z</time>
      </trkpt>
      <trkpt lat="46.81424" lon="4.27829">
        <ele>607.69</ele>
        <time>2021-08-13T03:36:36Z</time>
      </trkpt>
      <trkpt lat="46.81421" lon="4.2783">
        <ele>607.69</ele>
        <time>2021-08-13T03:36:37Z</time>
      </trkpt>
      <trkpt lat="46.81416" lon="4.27834">
        <ele>606.73</ele>
        <time>2021-08-13T03:36:38Z</time>
      </trkpt>
      <trkpt lat="46.81412" lon="4.27837">
        <ele>607.21</ele>
        <time>2021-08-13T03:36:39Z</time>
      </trkpt>
      <trkpt lat="46.81408" lon="4.27841">
        <ele>606.25</ele>
        <time>2021-08-13T03:36:40Z</time>
      </trkpt>
      <trkpt lat="46.81404" lon="4.27846">
        <ele>605.77</ele>
        <time>2021-08-13T03:36:41Z</time>
      </trkpt>
      <trkpt lat="46.81388" lon="4.2787">
        <ele>603.85</ele>
        <time>2021-08-13T03:36:47Z</time>
      </trkpt>
      <trkpt lat="46.81386" lon="4.2787">
        <ele>603.36</ele>
        <time>2021-08-13T03:36:48Z</time>
      </trkpt>
      <trkpt lat="46.81384" lon="4.27866">
        <ele>602.88</ele>
        <time>2021-08-13T03:36:49Z</time>
      </trkpt>
      <trkpt lat="46.81384" lon="4.27862">
        <ele>602.88</ele>
        <time>2021-08-13T03:36:50Z</time>
      </trkpt>
      <trkpt lat="46.81384" lon="4.27859">
        <ele>602.88</ele>
        <time>2021-08-13T03:36:51Z</time>
      </trkpt>
      <trkpt lat="46.81388" lon="4.27833">
        <ele>602.4</ele>
        <time>2021-08-13T03:36:56Z</time>
      </trkpt>
      <trkpt lat="46.81389" lon="4.27828">
        <ele>602.4</ele>
        <time>2021-08-13T03:36:57Z</time>
      </trkpt>
      <trkpt lat="46.81389" lon="4.27822">
        <ele>602.4</ele>
        <time>2021-08-13T03:36:58Z</time>
      </trkpt>
      <trkpt lat="46.81388" lon="4.27817">
        <ele>602.4</ele>
        <time>2021-08-13T03:36:59Z</time>
      </trkpt>
      <trkpt lat="46.81386" lon="4.27813">
        <ele>601.92</ele>
        <time>2021-08-13T03:37:00Z</time>
      </trkpt>
      <trkpt lat="46.81382" lon="4.2781">
        <ele>601.92</ele>
        <time>2021-08-13T03:37:01Z</time>
      </trkpt>
      <trkpt lat="46.81379" lon="4.27807">
        <ele>601.92</ele>
        <time>2021-08-13T03:37:02Z</time>
      </trkpt>
      <trkpt lat="46.81375" lon="4.27803">
        <ele>601.44</ele>
        <time>2021-08-13T03:37:03Z</time>
      </trkpt>
      <trkpt lat="46.81347" lon="4.27767">
        <ele>600.96</ele>
        <time>2021-08-13T03:37:11Z</time>
      </trkpt>
      <trkpt lat="46.81332" lon="4.27743">
        <ele>602.4</ele>
        <time>2021-08-13T03:37:17Z</time>
      </trkpt>
      <trkpt lat="46.81319" lon="4.27721">
        <ele>604.33</ele>
        <time>2021-08-13T03:37:25Z</time>
      </trkpt>
      <trkpt lat="46.8131" lon="4.27699">
        <ele>605.77</ele>
        <time>2021-08-13T03:37:33Z</time>
      </trkpt>
      <trkpt lat="46.813" lon="4.27679">
        <ele>607.21</ele>
        <time>2021-08-13T03:37:41Z</time>
      </trkpt>
      <trkpt lat="46.81295" lon="4.27652">
        <ele>608.17</ele>
        <time>2021-08-13T03:37:49Z</time>
      </trkpt>
      <trkpt lat="46.81288" lon="4.27626">
        <ele>608.65</ele>
        <time>2021-08-13T03:37:57Z</time>
      </trkpt>
      <trkpt lat="46.81279" lon="4.27587">
        <ele>609.61</ele>
        <time>2021-08-13T03:38:06Z</time>
      </trkpt>
      <trkpt lat="46.81274" lon="4.2755">
        <ele>610.09</ele>
        <time>2021-08-13T03:38:14Z</time>
      </trkpt>
      <trkpt lat="46.81272" lon="4.27493">
        <ele>611.06</ele>
        <time>2021-08-13T03:38:25Z</time>
      </trkpt>
      <trkpt lat="46.81266" lon="4.27448">
        <ele>611.54</ele>
        <time>2021-08-13T03:38:33Z</time>
      </trkpt>
      <trkpt lat="46.81261" lon="4.27397">
        <ele>612.5</ele>
        <time>2021-08-13T03:38:42Z</time>
      </trkpt>
      <trkpt lat="46.81257" lon="4.27344">
        <ele>612.5</ele>
        <time>2021-08-13T03:38:50Z</time>
      </trkpt>
      <trkpt lat="46.81251" lon="4.27288">
        <ele>612.5</ele>
        <time>2021-08-13T03:38:58Z</time>
      </trkpt>
      <trkpt lat="46.81238" lon="4.27253">
        <ele>612.5</ele>
        <time>2021-08-13T03:39:04Z</time>
      </trkpt>
      <trkpt lat="46.81221" lon="4.27215">
        <ele>612.98</ele>
        <time>2021-08-13T03:39:11Z</time>
      </trkpt>
      <trkpt lat="46.81208" lon="4.27183">
        <ele>614.9</ele>
        <time>2021-08-13T03:39:18Z</time>
      </trkpt>
      <trkpt lat="46.81204" lon="4.27166">
        <ele>615.38</ele>
        <time>2021-08-13T03:39:24Z</time>
      </trkpt>
      <trkpt lat="46.81198" lon="4.27152">
        <ele>616.82</ele>
        <time>2021-08-13T03:39:30Z</time>
      </trkpt>
      <trkpt lat="46.81181" lon="4.27127">
        <ele>618.26</ele>
        <time>2021-08-13T03:39:37Z</time>
      </trkpt>
      <trkpt lat="46.81167" lon="4.27107">
        <ele>619.71</ele>
        <time>2021-08-13T03:39:43Z</time>
      </trkpt>
      <trkpt lat="46.81155" lon="4.27082">
        <ele>620.67</ele>
        <time>2021-08-13T03:39:50Z</time>
      </trkpt>
      <trkpt lat="46.81152" lon="4.27061">
        <ele>620.67</ele>
        <time>2021-08-13T03:39:56Z</time>
      </trkpt>
      <trkpt lat="46.81158" lon="4.27027">
        <ele>621.15</ele>
        <time>2021-08-13T03:40:03Z</time>
      </trkpt>
      <trkpt lat="46.81166" lon="4.27009">
        <ele>621.15</ele>
        <time>2021-08-13T03:40:06Z</time>
      </trkpt>
      <trkpt lat="46.81165" lon="4.27007">
        <ele>621.15</ele>
        <time>2021-08-13T03:40:07Z</time>
      </trkpt>
      <trkpt lat="46.81163" lon="4.27005">
        <ele>621.15</ele>
        <time>2021-08-13T03:40:08Z</time>
      </trkpt>
      <trkpt lat="46.81153" lon="4.26997">
        <ele>621.15</ele>
        <time>2021-08-13T03:40:13Z</time>
      </trkpt>
      <trkpt lat="46.81147" lon="4.26983">
        <ele>622.59</ele>
        <time>2021-08-13T03:40:19Z</time>
      </trkpt>
      <trkpt lat="46.81138" lon="4.26972">
        <ele>623.07</ele>
        <time>2021-08-13T03:40:26Z</time>
      </trkpt>
      <trkpt lat="46.81127" lon="4.26963">
        <ele>624.51</ele>
        <time>2021-08-13T03:40:32Z</time>
      </trkpt>
      <trkpt lat="46.81114" lon="4.26955">
        <ele>625.96</ele>
        <time>2021-08-13T03:40:39Z</time>
      </trkpt>
      <trkpt lat="46.81103" lon="4.26943">
        <ele>626.92</ele>
        <time>2021-08-13T03:40:45Z</time>
      </trkpt>
      <trkpt lat="46.81087" lon="4.2692">
        <ele>625.47</ele>
        <time>2021-08-13T03:40:52Z</time>
      </trkpt>
      <trkpt lat="46.81076" lon="4.26904">
        <ele>625.47</ele>
        <time>2021-08-13T03:40:56Z</time>
      </trkpt>
      <trkpt lat="46.81062" lon="4.26886">
        <ele>624.99</ele>
        <time>2021-08-13T03:41:01Z</time>
      </trkpt>
      <trkpt lat="46.8105" lon="4.26861">
        <ele>624.99</ele>
        <time>2021-08-13T03:41:07Z</time>
      </trkpt>
      <trkpt lat="46.81046" lon="4.26851">
        <ele>625.96</ele>
        <time>2021-08-13T03:41:10Z</time>
      </trkpt>
      <trkpt lat="46.81039" lon="4.26836">
        <ele>627.4</ele>
        <time>2021-08-13T03:41:16Z</time>
      </trkpt>
      <trkpt lat="46.8104" lon="4.26833">
        <ele>627.88</ele>
        <time>2021-08-13T03:41:17Z</time>
      </trkpt>
      <trkpt lat="46.81041" lon="4.2683">
        <ele>627.88</ele>
        <time>2021-08-13T03:41:18Z</time>
      </trkpt>
      <trkpt lat="46.81041" lon="4.26823">
        <ele>627.88</ele>
        <time>2021-08-13T03:41:21Z</time>
      </trkpt>
      <trkpt lat="46.8104" lon="4.26821">
        <ele>628.36</ele>
        <time>2021-08-13T03:41:22Z</time>
      </trkpt>
      <trkpt lat="46.81035" lon="4.26808">
        <ele>629.32</ele>
        <time>2021-08-13T03:41:29Z</time>
      </trkpt>
      <trkpt lat="46.81032" lon="4.26804">
        <ele>630.28</ele>
        <time>2021-08-13T03:41:32Z</time>
      </trkpt>
      <trkpt lat="46.81032" lon="4.26802">
        <ele>630.28</ele>
        <time>2021-08-13T03:41:33Z</time>
      </trkpt>
      <trkpt lat="46.8103" lon="4.268">
        <ele>630.76</ele>
        <time>2021-08-13T03:41:35Z</time>
      </trkpt>
      <trkpt lat="46.81023" lon="4.2679">
        <ele>632.68</ele>
        <time>2021-08-13T03:41:41Z</time>
      </trkpt>
      <trkpt lat="46.81022" lon="4.26788">
        <ele>632.68</ele>
        <time>2021-08-13T03:41:42Z</time>
      </trkpt>
      <trkpt lat="46.81022" lon="4.26786">
        <ele>632.68</ele>
        <time>2021-08-13T03:41:43Z</time>
      </trkpt>
      <trkpt lat="46.81021" lon="4.26776">
        <ele>633.17</ele>
        <time>2021-08-13T03:41:49Z</time>
      </trkpt>
      <trkpt lat="46.8102" lon="4.26765">
        <ele>633.17</ele>
        <time>2021-08-13T03:41:56Z</time>
      </trkpt>
      <trkpt lat="46.8102" lon="4.26756">
        <ele>633.65</ele>
        <time>2021-08-13T03:42:00Z</time>
      </trkpt>
      <trkpt lat="46.8102" lon="4.26753">
        <ele>633.65</ele>
        <time>2021-08-13T03:42:01Z</time>
      </trkpt>
      <trkpt lat="46.8102" lon="4.2675">
        <ele>633.65</ele>
        <time>2021-08-13T03:42:02Z</time>
      </trkpt>
      <trkpt lat="46.8102" lon="4.26747">
        <ele>633.65</ele>
        <time>2021-08-13T03:42:03Z</time>
      </trkpt>
      <trkpt lat="46.8102" lon="4.26744">
        <ele>633.65</ele>
        <time>2021-08-13T03:42:04Z</time>
      </trkpt>
      <trkpt lat="46.81019" lon="4.26742">
        <ele>634.13</ele>
        <time>2021-08-13T03:42:05Z</time>
      </trkpt>
      <trkpt lat="46.81018" lon="4.26739">
        <ele>634.13</ele>
        <time>2021-08-13T03:42:06Z</time>
      </trkpt>
      <trkpt lat="46.81018" lon="4.26734">
        <ele>634.13</ele>
        <time>2021-08-13T03:42:08Z</time>
      </trkpt>
      <trkpt lat="46.81018" lon="4.26732">
        <ele>634.13</ele>
        <time>2021-08-13T03:42:09Z</time>
      </trkpt>
      <trkpt lat="46.81017" lon="4.26729">
        <ele>634.13</ele>
        <time>2021-08-13T03:42:10Z</time>
      </trkpt>
      <trkpt lat="46.81017" lon="4.26727">
        <ele>634.13</ele>
        <time>2021-08-13T03:42:11Z</time>
      </trkpt>
      <trkpt lat="46.81016" lon="4.26724">
        <ele>635.09</ele>
        <time>2021-08-13T03:42:12Z</time>
      </trkpt>
      <trkpt lat="46.81016" lon="4.26722">
        <ele>635.09</ele>
        <time>2021-08-13T03:42:13Z</time>
      </trkpt>
      <trkpt lat="46.81016" lon="4.2672">
        <ele>635.09</ele>
        <time>2021-08-13T03:42:14Z</time>
      </trkpt>
      <trkpt lat="46.81016" lon="4.26718">
        <ele>635.09</ele>
        <time>2021-08-13T03:42:15Z</time>
      </trkpt>
      <trkpt lat="46.81015" lon="4.26706">
        <ele>635.57</ele>
        <time>2021-08-13T03:42:21Z</time>
      </trkpt>
      <trkpt lat="46.81014" lon="4.267">
        <ele>636.05</ele>
        <time>2021-08-13T03:42:24Z</time>
      </trkpt>
      <trkpt lat="46.81012" lon="4.26684">
        <ele>637.49</ele>
        <time>2021-08-13T03:42:32Z</time>
      </trkpt>
      <trkpt lat="46.8101" lon="4.26666">
        <ele>638.93</ele>
        <time>2021-08-13T03:42:38Z</time>
      </trkpt>
      <trkpt lat="46.81009" lon="4.26661">
        <ele>639.41</ele>
        <time>2021-08-13T03:42:39Z</time>
      </trkpt>
      <trkpt lat="46.81008" lon="4.26657">
        <ele>639.41</ele>
        <time>2021-08-13T03:42:40Z</time>
      </trkpt>
      <trkpt lat="46.81006" lon="4.26651">
        <ele>639.41</ele>
        <time>2021-08-13T03:42:42Z</time>
      </trkpt>
      <trkpt lat="46.81004" lon="4.26648">
        <ele>639.89</ele>
        <time>2021-08-13T03:42:43Z</time>
      </trkpt>
      <trkpt lat="46.81001" lon="4.26643">
        <ele>640.38</ele>
        <time>2021-08-13T03:42:45Z</time>
      </trkpt>
      <trkpt lat="46.81" lon="4.2664">
        <ele>640.86</ele>
        <time>2021-08-13T03:42:46Z</time>
      </trkpt>
      <trkpt lat="46.80998" lon="4.26632">
        <ele>640.38</ele>
        <time>2021-08-13T03:42:49Z</time>
      </trkpt>
      <trkpt lat="46.80998" lon="4.26629">
        <ele>640.86</ele>
        <time>2021-08-13T03:42:50Z</time>
      </trkpt>
      <trkpt lat="46.80988" lon="4.26613">
        <ele>641.82</ele>
        <time>2021-08-13T03:42:57Z</time>
      </trkpt>
      <trkpt lat="46.80979" lon="4.26601">
        <ele>642.78</ele>
        <time>2021-08-13T03:43:03Z</time>
      </trkpt>
      <trkpt lat="46.80977" lon="4.26593">
        <ele>643.26</ele>
        <time>2021-08-13T03:43:06Z</time>
      </trkpt>
      <trkpt lat="46.80977" lon="4.2659">
        <ele>643.26</ele>
        <time>2021-08-13T03:43:07Z</time>
      </trkpt>
      <trkpt lat="46.80977" lon="4.26587">
        <ele>643.26</ele>
        <time>2021-08-13T03:43:08Z</time>
      </trkpt>
      <trkpt lat="46.80977" lon="4.26584">
        <ele>643.74</ele>
        <time>2021-08-13T03:43:09Z</time>
      </trkpt>
      <trkpt lat="46.80977" lon="4.26582">
        <ele>643.74</ele>
        <time>2021-08-13T03:43:10Z</time>
      </trkpt>
      <trkpt lat="46.80977" lon="4.2658">
        <ele>643.74</ele>
        <time>2021-08-13T03:43:11Z</time>
      </trkpt>
      <trkpt lat="46.80976" lon="4.26578">
        <ele>643.74</ele>
        <time>2021-08-13T03:43:12Z</time>
      </trkpt>
      <trkpt lat="46.80974" lon="4.26576">
        <ele>643.74</ele>
        <time>2021-08-13T03:43:13Z</time>
      </trkpt>
      <trkpt lat="46.8097" lon="4.26562">
        <ele>645.66</ele>
        <time>2021-08-13T03:43:21Z</time>
      </trkpt>
      <trkpt lat="46.80969" lon="4.26553">
        <ele>646.14</ele>
        <time>2021-08-13T03:43:27Z</time>
      </trkpt>
      <trkpt lat="46.80971" lon="4.26541">
        <ele>648.07</ele>
        <time>2021-08-13T03:43:34Z</time>
      </trkpt>
      <trkpt lat="46.80972" lon="4.26528">
        <ele>648.55</ele>
        <time>2021-08-13T03:43:41Z</time>
      </trkpt>
      <trkpt lat="46.80969" lon="4.26515">
        <ele>649.51</ele>
        <time>2021-08-13T03:43:49Z</time>
      </trkpt>
      <trkpt lat="46.80964" lon="4.26503">
        <ele>650.47</ele>
        <time>2021-08-13T03:43:56Z</time>
      </trkpt>
      <trkpt lat="46.80963" lon="4.2649">
        <ele>650.95</ele>
        <time>2021-08-13T03:44:03Z</time>
      </trkpt>
      <trkpt lat="46.80962" lon="4.2648">
        <ele>651.43</ele>
        <time>2021-08-13T03:44:09Z</time>
      </trkpt>
      <trkpt lat="46.80957" lon="4.26466">
        <ele>652.39</ele>
        <time>2021-08-13T03:44:16Z</time>
      </trkpt>
      <trkpt lat="46.8095" lon="4.26454">
        <ele>653.35</ele>
        <time>2021-08-13T03:44:24Z</time>
      </trkpt>
      <trkpt lat="46.80947" lon="4.26448">
        <ele>653.83</ele>
        <time>2021-08-13T03:44:30Z</time>
      </trkpt>
      <trkpt lat="46.80945" lon="4.26446">
        <ele>653.83</ele>
        <time>2021-08-13T03:44:32Z</time>
      </trkpt>
      <trkpt lat="46.80945" lon="4.26443">
        <ele>653.83</ele>
        <time>2021-08-13T03:44:33Z</time>
      </trkpt>
      <trkpt lat="46.80936" lon="4.26422">
        <ele>654.31</ele>
        <time>2021-08-13T03:44:40Z</time>
      </trkpt>
      <trkpt lat="46.80924" lon="4.26406">
        <ele>655.28</ele>
        <time>2021-08-13T03:44:45Z</time>
      </trkpt>
      <trkpt lat="46.80915" lon="4.26388">
        <ele>655.76</ele>
        <time>2021-08-13T03:44:51Z</time>
      </trkpt>
      <trkpt lat="46.80908" lon="4.26362">
        <ele>656.72</ele>
        <time>2021-08-13T03:44:58Z</time>
      </trkpt>
      <trkpt lat="46.80907" lon="4.26359">
        <ele>656.72</ele>
        <time>2021-08-13T03:44:59Z</time>
      </trkpt>
      <trkpt lat="46.80907" lon="4.26356">
        <ele>656.72</ele>
        <time>2021-08-13T03:45:00Z</time>
      </trkpt>
      <trkpt lat="46.80906" lon="4.26352">
        <ele>657.2</ele>
        <time>2021-08-13T03:45:01Z</time>
      </trkpt>
      <trkpt lat="46.80906" lon="4.26349">
        <ele>657.2</ele>
        <time>2021-08-13T03:45:02Z</time>
      </trkpt>
      <trkpt lat="46.80906" lon="4.26347">
        <ele>657.2</ele>
        <time>2021-08-13T03:45:03Z</time>
      </trkpt>
      <trkpt lat="46.80906" lon="4.26343">
        <ele>657.2</ele>
        <time>2021-08-13T03:45:04Z</time>
      </trkpt>
      <trkpt lat="46.809" lon="4.26322">
        <ele>658.16</ele>
        <time>2021-08-13T03:45:10Z</time>
      </trkpt>
      <trkpt lat="46.80888" lon="4.26305">
        <ele>658.64</ele>
        <time>2021-08-13T03:45:16Z</time>
      </trkpt>
      <trkpt lat="46.8088" lon="4.26281">
        <ele>659.6</ele>
        <time>2021-08-13T03:45:22Z</time>
      </trkpt>
      <trkpt lat="46.80875" lon="4.26256">
        <ele>660.56</ele>
        <time>2021-08-13T03:45:29Z</time>
      </trkpt>
      <trkpt lat="46.80864" lon="4.26236">
        <ele>660.56</ele>
        <time>2021-08-13T03:45:35Z</time>
      </trkpt>
      <trkpt lat="46.80851" lon="4.26208">
        <ele>661.04</ele>
        <time>2021-08-13T03:45:42Z</time>
      </trkpt>
      <trkpt lat="46.80847" lon="4.26205">
        <ele>661.04</ele>
        <time>2021-08-13T03:45:43Z</time>
      </trkpt>
      <trkpt lat="46.80832" lon="4.26184">
        <ele>661.52</ele>
        <time>2021-08-13T03:45:49Z</time>
      </trkpt>
      <trkpt lat="46.80814" lon="4.26158">
        <ele>662.01</ele>
        <time>2021-08-13T03:45:56Z</time>
      </trkpt>
      <trkpt lat="46.80796" lon="4.26143">
        <ele>662.49</ele>
        <time>2021-08-13T03:46:02Z</time>
      </trkpt>
      <trkpt lat="46.80774" lon="4.26128">
        <ele>662.97</ele>
        <time>2021-08-13T03:46:08Z</time>
      </trkpt>
      <trkpt lat="46.80756" lon="4.26115">
        <ele>662.97</ele>
        <time>2021-08-13T03:46:16Z</time>
      </trkpt>
      <trkpt lat="46.8074" lon="4.26098">
        <ele>662.97</ele>
        <time>2021-08-13T03:46:23Z</time>
      </trkpt>
      <trkpt lat="46.80738" lon="4.26091">
        <ele>662.97</ele>
        <time>2021-08-13T03:46:26Z</time>
      </trkpt>
      <trkpt lat="46.8074" lon="4.26087">
        <ele>662.97</ele>
        <time>2021-08-13T03:46:29Z</time>
      </trkpt>
      <trkpt lat="46.80749" lon="4.26083">
        <ele>663.45</ele>
        <time>2021-08-13T03:46:34Z</time>
      </trkpt>
      <trkpt lat="46.80749" lon="4.2607">
        <ele>663.45</ele>
        <time>2021-08-13T03:46:40Z</time>
      </trkpt>
      <trkpt lat="46.80748" lon="4.26067">
        <ele>663.45</ele>
        <time>2021-08-13T03:46:49Z</time>
      </trkpt>
      <trkpt lat="46.80748" lon="4.26062">
        <ele>663.45</ele>
        <time>2021-08-13T03:47:03Z</time>
      </trkpt>
      <trkpt lat="46.80747" lon="4.26064">
        <ele>663.45</ele>
        <time>2021-08-13T03:47:10Z</time>
      </trkpt>
      <trkpt lat="46.8075" lon="4.26067">
        <ele>663.45</ele>
        <time>2021-08-13T03:47:16Z</time>
      </trkpt>
      <trkpt lat="46.80749" lon="4.26071">
        <ele>663.45</ele>
        <time>2021-08-13T03:47:36Z</time>
      </trkpt>
      <trkpt lat="46.80752" lon="4.26072">
        <ele>663.93</ele>
        <time>2021-08-13T03:47:52Z</time>
      </trkpt>
      <trkpt lat="46.80751" lon="4.26073">
        <ele>663.93</ele>
        <time>2021-08-13T03:48:02Z</time>
      </trkpt>
      <trkpt lat="46.80751" lon="4.26071">
        <ele>663.93</ele>
        <time>2021-08-13T03:48:20Z</time>
      </trkpt>
      <trkpt lat="46.80752" lon="4.2607">
        <ele>664.41</ele>
        <time>2021-08-13T03:48:31Z</time>
      </trkpt>
      <trkpt lat="46.80752" lon="4.26069">
        <ele>664.41</ele>
        <time>2021-08-13T03:48:46Z</time>
      </trkpt>
      <trkpt lat="46.80746" lon="4.2607">
        <ele>664.41</ele>
        <time>2021-08-13T03:49:03Z</time>
      </trkpt>
      <trkpt lat="46.80744" lon="4.2607">
        <ele>664.41</ele>
        <time>2021-08-13T03:49:06Z</time>
      </trkpt>
      <trkpt lat="46.80737" lon="4.26082">
        <ele>664.89</ele>
        <time>2021-08-13T03:49:17Z</time>
      </trkpt>
      <trkpt lat="46.80736" lon="4.26082">
        <ele>664.89</ele>
        <time>2021-08-13T03:49:18Z</time>
      </trkpt>
      <trkpt lat="46.8073" lon="4.26082">
        <ele>664.89</ele>
        <time>2021-08-13T03:49:25Z</time>
      </trkpt>
      <trkpt lat="46.8073" lon="4.26081">
        <ele>664.89</ele>
        <time>2021-08-13T03:49:26Z</time>
      </trkpt>
      <trkpt lat="46.80725" lon="4.26069">
        <ele>665.37</ele>
        <time>2021-08-13T03:49:32Z</time>
      </trkpt>
      <trkpt lat="46.80723" lon="4.26066">
        <ele>665.37</ele>
        <time>2021-08-13T03:49:33Z</time>
      </trkpt>
      <trkpt lat="46.80723" lon="4.26064">
        <ele>665.37</ele>
        <time>2021-08-13T03:49:34Z</time>
      </trkpt>
      <trkpt lat="46.80721" lon="4.26062">
        <ele>665.37</ele>
        <time>2021-08-13T03:49:35Z</time>
      </trkpt>
      <trkpt lat="46.80719" lon="4.2606">
        <ele>665.37</ele>
        <time>2021-08-13T03:49:36Z</time>
      </trkpt>
      <trkpt lat="46.80718" lon="4.26057">
        <ele>665.37</ele>
        <time>2021-08-13T03:49:37Z</time>
      </trkpt>
      <trkpt lat="46.80717" lon="4.26055">
        <ele>665.37</ele>
        <time>2021-08-13T03:49:38Z</time>
      </trkpt>
      <trkpt lat="46.80715" lon="4.26054">
        <ele>665.37</ele>
        <time>2021-08-13T03:49:39Z</time>
      </trkpt>
      <trkpt lat="46.80695" lon="4.26042">
        <ele>666.81</ele>
        <time>2021-08-13T03:49:48Z</time>
      </trkpt>
      <trkpt lat="46.80673" lon="4.26027">
        <ele>667.77</ele>
        <time>2021-08-13T03:49:57Z</time>
      </trkpt>
      <trkpt lat="46.80653" lon="4.26016">
        <ele>668.73</ele>
        <time>2021-08-13T03:50:05Z</time>
      </trkpt>
      <trkpt lat="46.80645" lon="4.2601">
        <ele>669.7</ele>
        <time>2021-08-13T03:50:08Z</time>
      </trkpt>
      <trkpt lat="46.80644" lon="4.26007">
        <ele>669.7</ele>
        <time>2021-08-13T03:50:09Z</time>
      </trkpt>
      <trkpt lat="46.80643" lon="4.26002">
        <ele>669.7</ele>
        <time>2021-08-13T03:50:10Z</time>
      </trkpt>
      <trkpt lat="46.80643" lon="4.26">
        <ele>669.7</ele>
        <time>2021-08-13T03:50:11Z</time>
      </trkpt>
      <trkpt lat="46.80643" lon="4.25996">
        <ele>670.18</ele>
        <time>2021-08-13T03:50:12Z</time>
      </trkpt>
      <trkpt lat="46.8065" lon="4.25967">
        <ele>671.14</ele>
        <time>2021-08-13T03:50:20Z</time>
      </trkpt>
      <trkpt lat="46.80658" lon="4.25934">
        <ele>671.14</ele>
        <time>2021-08-13T03:50:28Z</time>
      </trkpt>
      <trkpt lat="46.8066" lon="4.25923">
        <ele>669.7</ele>
        <time>2021-08-13T03:50:30Z</time>
      </trkpt>
      <trkpt lat="46.8067" lon="4.25882">
        <ele>666.33</ele>
        <time>2021-08-13T03:50:36Z</time>
      </trkpt>
      <trkpt lat="46.80672" lon="4.25871">
        <ele>664.89</ele>
        <time>2021-08-13T03:50:37Z</time>
      </trkpt>
      <trkpt lat="46.80672" lon="4.25859">
        <ele>664.41</ele>
        <time>2021-08-13T03:50:38Z</time>
      </trkpt>
      <trkpt lat="46.80671" lon="4.25846">
        <ele>663.93</ele>
        <time>2021-08-13T03:50:39Z</time>
      </trkpt>
      <trkpt lat="46.80669" lon="4.25836">
        <ele>663.93</ele>
        <time>2021-08-13T03:50:40Z</time>
      </trkpt>
      <trkpt lat="46.80667" lon="4.25824">
        <ele>662.49</ele>
        <time>2021-08-13T03:50:41Z</time>
      </trkpt>
      <trkpt lat="46.80665" lon="4.25811">
        <ele>662.49</ele>
        <time>2021-08-13T03:50:42Z</time>
      </trkpt>
      <trkpt lat="46.80659" lon="4.25768">
        <ele>659.6</ele>
        <time>2021-08-13T03:50:45Z</time>
      </trkpt>
      <trkpt lat="46.80657" lon="4.25724">
        <ele>655.76</ele>
        <time>2021-08-13T03:50:48Z</time>
      </trkpt>
      <trkpt lat="46.80656" lon="4.25702">
        <ele>654.31</ele>
        <time>2021-08-13T03:50:50Z</time>
      </trkpt>
      <trkpt lat="46.80654" lon="4.25691">
        <ele>654.31</ele>
        <time>2021-08-13T03:50:51Z</time>
      </trkpt>
      <trkpt lat="46.8065" lon="4.25683">
        <ele>653.83</ele>
        <time>2021-08-13T03:50:52Z</time>
      </trkpt>
      <trkpt lat="46.80646" lon="4.25675">
        <ele>653.35</ele>
        <time>2021-08-13T03:50:53Z</time>
      </trkpt>
      <trkpt lat="46.80641" lon="4.2567">
        <ele>652.87</ele>
        <time>2021-08-13T03:50:54Z</time>
      </trkpt>
      <trkpt lat="46.80635" lon="4.25664">
        <ele>652.87</ele>
        <time>2021-08-13T03:50:55Z</time>
      </trkpt>
      <trkpt lat="46.80615" lon="4.25649">
        <ele>650.95</ele>
        <time>2021-08-13T03:51:00Z</time>
      </trkpt>
      <trkpt lat="46.80611" lon="4.2565">
        <ele>650.95</ele>
        <time>2021-08-13T03:51:01Z</time>
      </trkpt>
      <trkpt lat="46.80608" lon="4.25651">
        <ele>649.99</ele>
        <time>2021-08-13T03:51:02Z</time>
      </trkpt>
      <trkpt lat="46.80583" lon="4.25651">
        <ele>648.07</ele>
        <time>2021-08-13T03:51:09Z</time>
      </trkpt>
      <trkpt lat="46.80579" lon="4.25648">
        <ele>647.59</ele>
        <time>2021-08-13T03:51:10Z</time>
      </trkpt>
      <trkpt lat="46.80575" lon="4.25643">
        <ele>647.59</ele>
        <time>2021-08-13T03:51:11Z</time>
      </trkpt>
      <trkpt lat="46.80573" lon="4.25638">
        <ele>647.1</ele>
        <time>2021-08-13T03:51:12Z</time>
      </trkpt>
      <trkpt lat="46.8057" lon="4.25632">
        <ele>647.1</ele>
        <time>2021-08-13T03:51:13Z</time>
      </trkpt>
      <trkpt lat="46.80568" lon="4.25625">
        <ele>646.62</ele>
        <time>2021-08-13T03:51:14Z</time>
      </trkpt>
      <trkpt lat="46.80567" lon="4.25618">
        <ele>646.14</ele>
        <time>2021-08-13T03:51:15Z</time>
      </trkpt>
      <trkpt lat="46.80567" lon="4.25611">
        <ele>645.66</ele>
        <time>2021-08-13T03:51:16Z</time>
      </trkpt>
      <trkpt lat="46.80567" lon="4.25604">
        <ele>645.66</ele>
        <time>2021-08-13T03:51:17Z</time>
      </trkpt>
      <trkpt lat="46.80568" lon="4.25596">
        <ele>645.66</ele>
        <time>2021-08-13T03:51:18Z</time>
      </trkpt>
      <trkpt lat="46.80569" lon="4.25575">
        <ele>644.22</ele>
        <time>2021-08-13T03:51:21Z</time>
      </trkpt>
      <trkpt lat="46.80569" lon="4.25569">
        <ele>643.74</ele>
        <time>2021-08-13T03:51:22Z</time>
      </trkpt>
      <trkpt lat="46.80558" lon="4.25535">
        <ele>641.82</ele>
        <time>2021-08-13T03:51:28Z</time>
      </trkpt>
      <trkpt lat="46.8055" lon="4.25517">
        <ele>640.86</ele>
        <time>2021-08-13T03:51:31Z</time>
      </trkpt>
      <trkpt lat="46.80548" lon="4.2551">
        <ele>639.41</ele>
        <time>2021-08-13T03:51:32Z</time>
      </trkpt>
      <trkpt lat="46.80547" lon="4.25503">
        <ele>638.93</ele>
        <time>2021-08-13T03:51:33Z</time>
      </trkpt>
      <trkpt lat="46.80545" lon="4.25496">
        <ele>638.93</ele>
        <time>2021-08-13T03:51:34Z</time>
      </trkpt>
      <trkpt lat="46.80542" lon="4.25488">
        <ele>638.45</ele>
        <time>2021-08-13T03:51:35Z</time>
      </trkpt>
      <trkpt lat="46.80533" lon="4.25476">
        <ele>637.49</ele>
        <time>2021-08-13T03:51:37Z</time>
      </trkpt>
      <trkpt lat="46.80506" lon="4.25437">
        <ele>636.05</ele>
        <time>2021-08-13T03:51:42Z</time>
      </trkpt>
      <trkpt lat="46.80492" lon="4.25416">
        <ele>636.05</ele>
        <time>2021-08-13T03:51:45Z</time>
      </trkpt>
      <trkpt lat="46.80484" lon="4.25413">
        <ele>635.09</ele>
        <time>2021-08-13T03:51:46Z</time>
      </trkpt>
      <trkpt lat="46.80478" lon="4.25409">
        <ele>634.61</ele>
        <time>2021-08-13T03:51:47Z</time>
      </trkpt>
      <trkpt lat="46.80473" lon="4.25405">
        <ele>633.65</ele>
        <time>2021-08-13T03:51:48Z</time>
      </trkpt>
      <trkpt lat="46.80469" lon="4.25401">
        <ele>633.65</ele>
        <time>2021-08-13T03:51:49Z</time>
      </trkpt>
      <trkpt lat="46.80465" lon="4.25396">
        <ele>632.68</ele>
        <time>2021-08-13T03:51:50Z</time>
      </trkpt>
      <trkpt lat="46.80446" lon="4.25371">
        <ele>629.8</ele>
        <time>2021-08-13T03:51:54Z</time>
      </trkpt>
      <trkpt lat="46.80442" lon="4.25363">
        <ele>629.32</ele>
        <time>2021-08-13T03:51:55Z</time>
      </trkpt>
      <trkpt lat="46.80438" lon="4.25354">
        <ele>628.36</ele>
        <time>2021-08-13T03:51:56Z</time>
      </trkpt>
      <trkpt lat="46.80429" lon="4.25328">
        <ele>624.51</ele>
        <time>2021-08-13T03:51:59Z</time>
      </trkpt>
      <trkpt lat="46.80422" lon="4.25299">
        <ele>621.63</ele>
        <time>2021-08-13T03:52:03Z</time>
      </trkpt>
      <trkpt lat="46.80419" lon="4.25285">
        <ele>620.19</ele>
        <time>2021-08-13T03:52:05Z</time>
      </trkpt>
      <trkpt lat="46.80419" lon="4.25278">
        <ele>619.71</ele>
        <time>2021-08-13T03:52:06Z</time>
      </trkpt>
      <trkpt lat="46.8042" lon="4.25271">
        <ele>618.75</ele>
        <time>2021-08-13T03:52:07Z</time>
      </trkpt>
      <trkpt lat="46.80422" lon="4.25264">
        <ele>617.78</ele>
        <time>2021-08-13T03:52:08Z</time>
      </trkpt>
      <trkpt lat="46.80423" lon="4.25258">
        <ele>617.3</ele>
        <time>2021-08-13T03:52:09Z</time>
      </trkpt>
      <trkpt lat="46.80424" lon="4.25253">
        <ele>616.34</ele>
        <time>2021-08-13T03:52:10Z</time>
      </trkpt>
      <trkpt lat="46.80423" lon="4.2525">
        <ele>616.34</ele>
        <time>2021-08-13T03:52:11Z</time>
      </trkpt>
      <trkpt lat="46.80421" lon="4.25247">
        <ele>615.38</ele>
        <time>2021-08-13T03:52:12Z</time>
      </trkpt>
      <trkpt lat="46.8042" lon="4.25245">
        <ele>615.38</ele>
        <time>2021-08-13T03:52:13Z</time>
      </trkpt>
      <trkpt lat="46.8041" lon="4.25234">
        <ele>614.42</ele>
        <time>2021-08-13T03:52:17Z</time>
      </trkpt>
      <trkpt lat="46.80407" lon="4.25232">
        <ele>614.42</ele>
        <time>2021-08-13T03:52:18Z</time>
      </trkpt>
      <trkpt lat="46.804" lon="4.25234">
        <ele>614.9</ele>
        <time>2021-08-13T03:52:22Z</time>
      </trkpt>
      <trkpt lat="46.80385" lon="4.25236">
        <ele>614.9</ele>
        <time>2021-08-13T03:52:35Z</time>
      </trkpt>
      <trkpt lat="46.80363" lon="4.25225">
        <ele>614.9</ele>
        <time>2021-08-13T03:52:43Z</time>
      </trkpt>
      <trkpt lat="46.80344" lon="4.25217">
        <ele>614.9</ele>
        <time>2021-08-13T03:52:49Z</time>
      </trkpt>
      <trkpt lat="46.80324" lon="4.25212">
        <ele>616.82</ele>
        <time>2021-08-13T03:52:55Z</time>
      </trkpt>
      <trkpt lat="46.80307" lon="4.2521">
        <ele>617.78</ele>
        <time>2021-08-13T03:53:00Z</time>
      </trkpt>
      <trkpt lat="46.80291" lon="4.25211">
        <ele>619.23</ele>
        <time>2021-08-13T03:53:07Z</time>
      </trkpt>
      <trkpt lat="46.80273" lon="4.2522">
        <ele>620.19</ele>
        <time>2021-08-13T03:53:15Z</time>
      </trkpt>
      <trkpt lat="46.80256" lon="4.25243">
        <ele>618.26</ele>
        <time>2021-08-13T03:53:21Z</time>
      </trkpt>
      <trkpt lat="46.80239" lon="4.25267">
        <ele>614.42</ele>
        <time>2021-08-13T03:53:25Z</time>
      </trkpt>
      <trkpt lat="46.80229" lon="4.25281">
        <ele>612.98</ele>
        <time>2021-08-13T03:53:27Z</time>
      </trkpt>
      <trkpt lat="46.80224" lon="4.25287">
        <ele>612.02</ele>
        <time>2021-08-13T03:53:28Z</time>
      </trkpt>
      <trkpt lat="46.80218" lon="4.25292">
        <ele>610.57</ele>
        <time>2021-08-13T03:53:29Z</time>
      </trkpt>
      <trkpt lat="46.80212" lon="4.25296">
        <ele>609.61</ele>
        <time>2021-08-13T03:53:30Z</time>
      </trkpt>
      <trkpt lat="46.80206" lon="4.25298">
        <ele>608.65</ele>
        <time>2021-08-13T03:53:31Z</time>
      </trkpt>
      <trkpt lat="46.80199" lon="4.25301">
        <ele>608.17</ele>
        <time>2021-08-13T03:53:32Z</time>
      </trkpt>
      <trkpt lat="46.80181" lon="4.25307">
        <ele>606.25</ele>
        <time>2021-08-13T03:53:35Z</time>
      </trkpt>
      <trkpt lat="46.80174" lon="4.25307">
        <ele>605.77</ele>
        <time>2021-08-13T03:53:36Z</time>
      </trkpt>
      <trkpt lat="46.80162" lon="4.25305">
        <ele>603.85</ele>
        <time>2021-08-13T03:53:38Z</time>
      </trkpt>
      <trkpt lat="46.80155" lon="4.25306">
        <ele>602.88</ele>
        <time>2021-08-13T03:53:39Z</time>
      </trkpt>
      <trkpt lat="46.80149" lon="4.25308">
        <ele>602.4</ele>
        <time>2021-08-13T03:53:40Z</time>
      </trkpt>
      <trkpt lat="46.80144" lon="4.25311">
        <ele>602.4</ele>
        <time>2021-08-13T03:53:41Z</time>
      </trkpt>
      <trkpt lat="46.80135" lon="4.25315">
        <ele>601.44</ele>
        <time>2021-08-13T03:53:42Z</time>
      </trkpt>
      <trkpt lat="46.80114" lon="4.25326">
        <ele>603.36</ele>
        <time>2021-08-13T03:53:46Z</time>
      </trkpt>
      <trkpt lat="46.80113" lon="4.25326">
        <ele>603.36</ele>
        <time>2021-08-13T03:53:47Z</time>
      </trkpt>
      <trkpt lat="46.8011" lon="4.25327">
        <ele>604.33</ele>
        <time>2021-08-13T03:53:49Z</time>
      </trkpt>
      <trkpt lat="46.80108" lon="4.25327">
        <ele>604.33</ele>
        <time>2021-08-13T03:53:50Z</time>
      </trkpt>
      <trkpt lat="46.80106" lon="4.25326">
        <ele>604.81</ele>
        <time>2021-08-13T03:53:51Z</time>
      </trkpt>
      <trkpt lat="46.80104" lon="4.25326">
        <ele>604.81</ele>
        <time>2021-08-13T03:53:52Z</time>
      </trkpt>
      <trkpt lat="46.80103" lon="4.25325">
        <ele>604.81</ele>
        <time>2021-08-13T03:53:53Z</time>
      </trkpt>
      <trkpt lat="46.80102" lon="4.25325">
        <ele>604.81</ele>
        <time>2021-08-13T03:53:54Z</time>
      </trkpt>
      <trkpt lat="46.801" lon="4.25324">
        <ele>605.29</ele>
        <time>2021-08-13T03:53:55Z</time>
      </trkpt>
      <trkpt lat="46.80099" lon="4.25324">
        <ele>605.29</ele>
        <time>2021-08-13T03:53:56Z</time>
      </trkpt>
      <trkpt lat="46.80098" lon="4.25325">
        <ele>605.29</ele>
        <time>2021-08-13T03:54:02Z</time>
      </trkpt>
      <trkpt lat="46.80099" lon="4.25326">
        <ele>605.29</ele>
        <time>2021-08-13T03:54:10Z</time>
      </trkpt>
      <trkpt lat="46.80103" lon="4.25328">
        <ele>605.29</ele>
        <time>2021-08-13T03:54:18Z</time>
      </trkpt>
      <trkpt lat="46.80104" lon="4.25328">
        <ele>604.33</ele>
        <time>2021-08-13T03:54:27Z</time>
      </trkpt>
      <trkpt lat="46.80106" lon="4.25327">
        <ele>604.33</ele>
        <time>2021-08-13T03:54:29Z</time>
      </trkpt>
      <trkpt lat="46.80108" lon="4.25327">
        <ele>603.36</ele>
        <time>2021-08-13T03:54:30Z</time>
      </trkpt>
      <trkpt lat="46.8011" lon="4.25328">
        <ele>601.92</ele>
        <time>2021-08-13T03:54:32Z</time>
      </trkpt>
      <trkpt lat="46.80114" lon="4.25325">
        <ele>601.44</ele>
        <time>2021-08-13T03:54:38Z</time>
      </trkpt>
      <trkpt lat="46.80113" lon="4.25326">
        <ele>601.44</ele>
        <time>2021-08-13T03:54:46Z</time>
      </trkpt>
      <trkpt lat="46.80112" lon="4.25327">
        <ele>601.44</ele>
        <time>2021-08-13T03:54:47Z</time>
      </trkpt>
      <trkpt lat="46.80108" lon="4.25329">
        <ele>602.88</ele>
        <time>2021-08-13T03:54:53Z</time>
      </trkpt>
      <trkpt lat="46.80103" lon="4.25329">
        <ele>605.29</ele>
        <time>2021-08-13T03:54:58Z</time>
      </trkpt>
      <trkpt lat="46.80092" lon="4.25323">
        <ele>605.29</ele>
        <time>2021-08-13T03:55:05Z</time>
      </trkpt>
      <trkpt lat="46.8008" lon="4.25317">
        <ele>605.29</ele>
        <time>2021-08-13T03:55:10Z</time>
      </trkpt>
      <trkpt lat="46.80077" lon="4.25312">
        <ele>605.29</ele>
        <time>2021-08-13T03:55:12Z</time>
      </trkpt>
      <trkpt lat="46.80076" lon="4.25308">
        <ele>605.29</ele>
        <time>2021-08-13T03:55:13Z</time>
      </trkpt>
      <trkpt lat="46.80076" lon="4.25303">
        <ele>605.29</ele>
        <time>2021-08-13T03:55:14Z</time>
      </trkpt>
      <trkpt lat="46.80079" lon="4.25286">
        <ele>602.4</ele>
        <time>2021-08-13T03:55:17Z</time>
      </trkpt>
      <trkpt lat="46.80079" lon="4.2527">
        <ele>599.04</ele>
        <time>2021-08-13T03:55:20Z</time>
      </trkpt>
      <trkpt lat="46.8008" lon="4.25264">
        <ele>599.04</ele>
        <time>2021-08-13T03:55:21Z</time>
      </trkpt>
      <trkpt lat="46.80081" lon="4.25258">
        <ele>598.08</ele>
        <time>2021-08-13T03:55:22Z</time>
      </trkpt>
      <trkpt lat="46.80083" lon="4.25252">
        <ele>597.12</ele>
        <time>2021-08-13T03:55:23Z</time>
      </trkpt>
      <trkpt lat="46.80084" lon="4.25245">
        <ele>596.64</ele>
        <time>2021-08-13T03:55:24Z</time>
      </trkpt>
      <trkpt lat="46.80085" lon="4.25227">
        <ele>595.19</ele>
        <time>2021-08-13T03:55:27Z</time>
      </trkpt>
      <trkpt lat="46.80085" lon="4.2522">
        <ele>595.19</ele>
        <time>2021-08-13T03:55:28Z</time>
      </trkpt>
      <trkpt lat="46.80086" lon="4.25214">
        <ele>594.23</ele>
        <time>2021-08-13T03:55:29Z</time>
      </trkpt>
      <trkpt lat="46.80086" lon="4.25197">
        <ele>592.31</ele>
        <time>2021-08-13T03:55:32Z</time>
      </trkpt>
      <trkpt lat="46.80077" lon="4.25176">
        <ele>593.75</ele>
        <time>2021-08-13T03:55:37Z</time>
      </trkpt>
      <trkpt lat="46.80052" lon="4.25149">
        <ele>595.19</ele>
        <time>2021-08-13T03:55:42Z</time>
      </trkpt>
      <trkpt lat="46.80031" lon="4.25125">
        <ele>595.67</ele>
        <time>2021-08-13T03:55:48Z</time>
      </trkpt>
      <trkpt lat="46.80013" lon="4.25111">
        <ele>594.71</ele>
        <time>2021-08-13T03:55:51Z</time>
      </trkpt>
      <trkpt lat="46.8" lon="4.25105">
        <ele>593.75</ele>
        <time>2021-08-13T03:55:53Z</time>
      </trkpt>
      <trkpt lat="46.79969" lon="4.25087">
        <ele>590.39</ele>
        <time>2021-08-13T03:55:59Z</time>
      </trkpt>
      <trkpt lat="46.79946" lon="4.25075">
        <ele>587.5</ele>
        <time>2021-08-13T03:56:05Z</time>
      </trkpt>
      <trkpt lat="46.79943" lon="4.25073">
        <ele>587.5</ele>
        <time>2021-08-13T03:56:06Z</time>
      </trkpt>
      <trkpt lat="46.79931" lon="4.25068">
        <ele>584.14</ele>
        <time>2021-08-13T03:56:09Z</time>
      </trkpt>
      <trkpt lat="46.79918" lon="4.25064">
        <ele>580.77</ele>
        <time>2021-08-13T03:56:13Z</time>
      </trkpt>
      <trkpt lat="46.79913" lon="4.25065">
        <ele>578.85</ele>
        <time>2021-08-13T03:56:15Z</time>
      </trkpt>
      <trkpt lat="46.79911" lon="4.25067">
        <ele>577.89</ele>
        <time>2021-08-13T03:56:16Z</time>
      </trkpt>
      <trkpt lat="46.79902" lon="4.2507">
        <ele>575.01</ele>
        <time>2021-08-13T03:56:19Z</time>
      </trkpt>
      <trkpt lat="46.7989" lon="4.25075">
        <ele>571.64</ele>
        <time>2021-08-13T03:56:22Z</time>
      </trkpt>
      <trkpt lat="46.79879" lon="4.2508">
        <ele>568.76</ele>
        <time>2021-08-13T03:56:25Z</time>
      </trkpt>
      <trkpt lat="46.79846" lon="4.25083">
        <ele>565.39</ele>
        <time>2021-08-13T03:56:30Z</time>
      </trkpt>
      <trkpt lat="46.79808" lon="4.25086">
        <ele>566.35</ele>
        <time>2021-08-13T03:56:36Z</time>
      </trkpt>
      <trkpt lat="46.79791" lon="4.25088">
        <ele>565.39</ele>
        <time>2021-08-13T03:56:39Z</time>
      </trkpt>
      <trkpt lat="46.79785" lon="4.25088">
        <ele>564.91</ele>
        <time>2021-08-13T03:56:40Z</time>
      </trkpt>
      <trkpt lat="46.7978" lon="4.25089">
        <ele>563.47</ele>
        <time>2021-08-13T03:56:41Z</time>
      </trkpt>
      <trkpt lat="46.7977" lon="4.2509">
        <ele>561.55</ele>
        <time>2021-08-13T03:56:43Z</time>
      </trkpt>
      <trkpt lat="46.79764" lon="4.25089">
        <ele>561.55</ele>
        <time>2021-08-13T03:56:44Z</time>
      </trkpt>
      <trkpt lat="46.79757" lon="4.25087">
        <ele>561.07</ele>
        <time>2021-08-13T03:56:45Z</time>
      </trkpt>
      <trkpt lat="46.7975" lon="4.25086">
        <ele>561.07</ele>
        <time>2021-08-13T03:56:46Z</time>
      </trkpt>
      <trkpt lat="46.79742" lon="4.25087">
        <ele>560.11</ele>
        <time>2021-08-13T03:56:47Z</time>
      </trkpt>
      <trkpt lat="46.79735" lon="4.25089">
        <ele>560.11</ele>
        <time>2021-08-13T03:56:48Z</time>
      </trkpt>
      <trkpt lat="46.79728" lon="4.2509">
        <ele>559.62</ele>
        <time>2021-08-13T03:56:49Z</time>
      </trkpt>
      <trkpt lat="46.79723" lon="4.25091">
        <ele>559.62</ele>
        <time>2021-08-13T03:56:50Z</time>
      </trkpt>
      <trkpt lat="46.79704" lon="4.2509">
        <ele>559.14</ele>
        <time>2021-08-13T03:56:54Z</time>
      </trkpt>
      <trkpt lat="46.79697" lon="4.25084">
        <ele>557.22</ele>
        <time>2021-08-13T03:56:58Z</time>
      </trkpt>
      <trkpt lat="46.79688" lon="4.25075">
        <ele>553.86</ele>
        <time>2021-08-13T03:57:03Z</time>
      </trkpt>
      <trkpt lat="46.79668" lon="4.25069">
        <ele>551.45</ele>
        <time>2021-08-13T03:57:09Z</time>
      </trkpt>
      <trkpt lat="46.79651" lon="4.25063">
        <ele>549.53</ele>
        <time>2021-08-13T03:57:14Z</time>
      </trkpt>
      <trkpt lat="46.79643" lon="4.25058">
        <ele>547.61</ele>
        <time>2021-08-13T03:57:18Z</time>
      </trkpt>
      <trkpt lat="46.7963" lon="4.25048">
        <ele>546.17</ele>
        <time>2021-08-13T03:57:23Z</time>
      </trkpt>
      <trkpt lat="46.79626" lon="4.25048">
        <ele>545.69</ele>
        <time>2021-08-13T03:57:24Z</time>
      </trkpt>
      <trkpt lat="46.79623" lon="4.25048">
        <ele>545.2</ele>
        <time>2021-08-13T03:57:25Z</time>
      </trkpt>
      <trkpt lat="46.79603" lon="4.25049">
        <ele>543.76</ele>
        <time>2021-08-13T03:57:30Z</time>
      </trkpt>
      <trkpt lat="46.79585" lon="4.25036">
        <ele>541.36</ele>
        <time>2021-08-13T03:57:35Z</time>
      </trkpt>
      <trkpt lat="46.79579" lon="4.25005">
        <ele>538.48</ele>
        <time>2021-08-13T03:57:41Z</time>
      </trkpt>
      <trkpt lat="46.79568" lon="4.24987">
        <ele>537.51</ele>
        <time>2021-08-13T03:57:45Z</time>
      </trkpt>
      <trkpt lat="46.79557" lon="4.24955">
        <ele>535.59</ele>
        <time>2021-08-13T03:57:51Z</time>
      </trkpt>
      <trkpt lat="46.79546" lon="4.24926">
        <ele>533.19</ele>
        <time>2021-08-13T03:57:56Z</time>
      </trkpt>
      <trkpt lat="46.79546" lon="4.24924">
        <ele>532.23</ele>
        <time>2021-08-13T03:57:57Z</time>
      </trkpt>
      <trkpt lat="46.79542" lon="4.24916">
        <ele>532.23</ele>
        <time>2021-08-13T03:57:58Z</time>
      </trkpt>
      <trkpt lat="46.79542" lon="4.24901">
        <ele>530.79</ele>
        <time>2021-08-13T03:58:00Z</time>
      </trkpt>
      <trkpt lat="46.79545" lon="4.24867">
        <ele>527.42</ele>
        <time>2021-08-13T03:58:04Z</time>
      </trkpt>
      <trkpt lat="46.79547" lon="4.2485">
        <ele>526.94</ele>
        <time>2021-08-13T03:58:07Z</time>
      </trkpt>
      <trkpt lat="46.79529" lon="4.2484">
        <ele>526.94</ele>
        <time>2021-08-13T03:58:14Z</time>
      </trkpt>
      <trkpt lat="46.79533" lon="4.24835">
        <ele>525.5</ele>
        <time>2021-08-13T03:58:18Z</time>
      </trkpt>
      <trkpt lat="46.79538" lon="4.24828">
        <ele>524.06</ele>
        <time>2021-08-13T03:58:19Z</time>
      </trkpt>
      <trkpt lat="46.79541" lon="4.24825">
        <ele>523.09</ele>
        <time>2021-08-13T03:58:20Z</time>
      </trkpt>
      <trkpt lat="46.7955" lon="4.24801">
        <ele>520.69</ele>
        <time>2021-08-13T03:58:23Z</time>
      </trkpt>
      <trkpt lat="46.79553" lon="4.24783">
        <ele>519.73</ele>
        <time>2021-08-13T03:58:25Z</time>
      </trkpt>
      <trkpt lat="46.79554" lon="4.2477">
        <ele>518.29</ele>
        <time>2021-08-13T03:58:27Z</time>
      </trkpt>
      <trkpt lat="46.79554" lon="4.24746">
        <ele>516.37</ele>
        <time>2021-08-13T03:58:29Z</time>
      </trkpt>
      <trkpt lat="46.79554" lon="4.24741">
        <ele>515.4</ele>
        <time>2021-08-13T03:58:30Z</time>
      </trkpt>
      <trkpt lat="46.79556" lon="4.24724">
        <ele>513.48</ele>
        <time>2021-08-13T03:58:31Z</time>
      </trkpt>
      <trkpt lat="46.79559" lon="4.24711">
        <ele>511.56</ele>
        <time>2021-08-13T03:58:33Z</time>
      </trkpt>
      <trkpt lat="46.79561" lon="4.24701">
        <ele>510.6</ele>
        <time>2021-08-13T03:58:35Z</time>
      </trkpt>
      <trkpt lat="46.79565" lon="4.247">
        <ele>510.12</ele>
        <time>2021-08-13T03:58:36Z</time>
      </trkpt>
      <trkpt lat="46.79572" lon="4.24697">
        <ele>508.67</ele>
        <time>2021-08-13T03:58:38Z</time>
      </trkpt>
      <trkpt lat="46.79577" lon="4.24697">
        <ele>508.19</ele>
        <time>2021-08-13T03:58:39Z</time>
      </trkpt>
      <trkpt lat="46.79582" lon="4.24697">
        <ele>508.19</ele>
        <time>2021-08-13T03:58:40Z</time>
      </trkpt>
      <trkpt lat="46.79589" lon="4.247">
        <ele>507.23</ele>
        <time>2021-08-13T03:58:42Z</time>
      </trkpt>
      <trkpt lat="46.79599" lon="4.24692">
        <ele>506.75</ele>
        <time>2021-08-13T03:58:44Z</time>
      </trkpt>
      <trkpt lat="46.79606" lon="4.24686">
        <ele>505.79</ele>
        <time>2021-08-13T03:58:46Z</time>
      </trkpt>
      <trkpt lat="46.79612" lon="4.24678">
        <ele>505.31</ele>
        <time>2021-08-13T03:58:48Z</time>
      </trkpt>
      <trkpt lat="46.79615" lon="4.2467">
        <ele>504.83</ele>
        <time>2021-08-13T03:58:49Z</time>
      </trkpt>
      <trkpt lat="46.79615" lon="4.24641">
        <ele>503.87</ele>
        <time>2021-08-13T03:58:53Z</time>
      </trkpt>
      <trkpt lat="46.79604" lon="4.24575">
        <ele>501.46</ele>
        <time>2021-08-13T03:59:00Z</time>
      </trkpt>
      <trkpt lat="46.79598" lon="4.24544">
        <ele>498.58</ele>
        <time>2021-08-13T03:59:04Z</time>
      </trkpt>
      <trkpt lat="46.79594" lon="4.24523">
        <ele>497.62</ele>
        <time>2021-08-13T03:59:06Z</time>
      </trkpt>
      <trkpt lat="46.79589" lon="4.24493">
        <ele>496.18</ele>
        <time>2021-08-13T03:59:09Z</time>
      </trkpt>
      <trkpt lat="46.79586" lon="4.24482">
        <ele>495.22</ele>
        <time>2021-08-13T03:59:10Z</time>
      </trkpt>
      <trkpt lat="46.79574" lon="4.24427">
        <ele>491.85</ele>
        <time>2021-08-13T03:59:15Z</time>
      </trkpt>
      <trkpt lat="46.79566" lon="4.24415">
        <ele>491.37</ele>
        <time>2021-08-13T03:59:16Z</time>
      </trkpt>
      <trkpt lat="46.79558" lon="4.24405">
        <ele>490.89</ele>
        <time>2021-08-13T03:59:17Z</time>
      </trkpt>
      <trkpt lat="46.7955" lon="4.24386">
        <ele>489.93</ele>
        <time>2021-08-13T03:59:19Z</time>
      </trkpt>
      <trkpt lat="46.79547" lon="4.24367">
        <ele>488.97</ele>
        <time>2021-08-13T03:59:21Z</time>
      </trkpt>
      <trkpt lat="46.79547" lon="4.24357">
        <ele>487.53</ele>
        <time>2021-08-13T03:59:22Z</time>
      </trkpt>
      <trkpt lat="46.79548" lon="4.24347">
        <ele>487.53</ele>
        <time>2021-08-13T03:59:23Z</time>
      </trkpt>
      <trkpt lat="46.79551" lon="4.24339">
        <ele>487.05</ele>
        <time>2021-08-13T03:59:24Z</time>
      </trkpt>
      <trkpt lat="46.79559" lon="4.2432">
        <ele>485.6</ele>
        <time>2021-08-13T03:59:26Z</time>
      </trkpt>
      <trkpt lat="46.79571" lon="4.24284">
        <ele>482.24</ele>
        <time>2021-08-13T03:59:30Z</time>
      </trkpt>
      <trkpt lat="46.79574" lon="4.24275">
        <ele>481.28</ele>
        <time>2021-08-13T03:59:31Z</time>
      </trkpt>
      <trkpt lat="46.79578" lon="4.24267">
        <ele>479.84</ele>
        <time>2021-08-13T03:59:32Z</time>
      </trkpt>
      <trkpt lat="46.79581" lon="4.24258">
        <ele>479.35</ele>
        <time>2021-08-13T03:59:33Z</time>
      </trkpt>
      <trkpt lat="46.79584" lon="4.24248">
        <ele>478.39</ele>
        <time>2021-08-13T03:59:34Z</time>
      </trkpt>
      <trkpt lat="46.7959" lon="4.24228">
        <ele>475.99</ele>
        <time>2021-08-13T03:59:36Z</time>
      </trkpt>
      <trkpt lat="46.79593" lon="4.24218">
        <ele>475.03</ele>
        <time>2021-08-13T03:59:37Z</time>
      </trkpt>
      <trkpt lat="46.79599" lon="4.24201">
        <ele>473.11</ele>
        <time>2021-08-13T03:59:39Z</time>
      </trkpt>
      <trkpt lat="46.79607" lon="4.24178">
        <ele>469.74</ele>
        <time>2021-08-13T03:59:42Z</time>
      </trkpt>
      <trkpt lat="46.79618" lon="4.24148">
        <ele>466.86</ele>
        <time>2021-08-13T03:59:45Z</time>
      </trkpt>
      <trkpt lat="46.79624" lon="4.24136">
        <ele>465.42</ele>
        <time>2021-08-13T03:59:47Z</time>
      </trkpt>
      <trkpt lat="46.79633" lon="4.24127">
        <ele>464.45</ele>
        <time>2021-08-13T03:59:51Z</time>
      </trkpt>
      <trkpt lat="46.79628" lon="4.24119">
        <ele>463.01</ele>
        <time>2021-08-13T03:59:54Z</time>
      </trkpt>
      <trkpt lat="46.79631" lon="4.24109">
        <ele>461.57</ele>
        <time>2021-08-13T03:59:56Z</time>
      </trkpt>
      <trkpt lat="46.79639" lon="4.24088">
        <ele>458.69</ele>
        <time>2021-08-13T04:00:00Z</time>
      </trkpt>
      <trkpt lat="46.79641" lon="4.24073">
        <ele>456.76</ele>
        <time>2021-08-13T04:00:02Z</time>
      </trkpt>
      <trkpt lat="46.79643" lon="4.24068">
        <ele>455.8</ele>
        <time>2021-08-13T04:00:03Z</time>
      </trkpt>
      <trkpt lat="46.79648" lon="4.24047">
        <ele>452.44</ele>
        <time>2021-08-13T04:00:08Z</time>
      </trkpt>
      <trkpt lat="46.79652" lon="4.24027">
        <ele>449.07</ele>
        <time>2021-08-13T04:00:11Z</time>
      </trkpt>
      <trkpt lat="46.79653" lon="4.24021">
        <ele>448.11</ele>
        <time>2021-08-13T04:00:12Z</time>
      </trkpt>
      <trkpt lat="46.79657" lon="4.24005">
        <ele>444.75</ele>
        <time>2021-08-13T04:00:14Z</time>
      </trkpt>
      <trkpt lat="46.79659" lon="4.23997">
        <ele>443.79</ele>
        <time>2021-08-13T04:00:15Z</time>
      </trkpt>
      <trkpt lat="46.7966" lon="4.23991">
        <ele>443.31</ele>
        <time>2021-08-13T04:00:16Z</time>
      </trkpt>
      <trkpt lat="46.79661" lon="4.23982">
        <ele>441.86</ele>
        <time>2021-08-13T04:00:17Z</time>
      </trkpt>
      <trkpt lat="46.79663" lon="4.23959">
        <ele>438.02</ele>
        <time>2021-08-13T04:00:20Z</time>
      </trkpt>
      <trkpt lat="46.79663" lon="4.23937">
        <ele>435.61</ele>
        <time>2021-08-13T04:00:23Z</time>
      </trkpt>
      <trkpt lat="46.79662" lon="4.23924">
        <ele>433.21</ele>
        <time>2021-08-13T04:00:25Z</time>
      </trkpt>
      <trkpt lat="46.79662" lon="4.23915">
        <ele>431.77</ele>
        <time>2021-08-13T04:00:26Z</time>
      </trkpt>
      <trkpt lat="46.79662" lon="4.23908">
        <ele>432.25</ele>
        <time>2021-08-13T04:00:27Z</time>
      </trkpt>
      <trkpt lat="46.79662" lon="4.23903">
        <ele>430.81</ele>
        <time>2021-08-13T04:00:28Z</time>
      </trkpt>
      <trkpt lat="46.79661" lon="4.23899">
        <ele>430.81</ele>
        <time>2021-08-13T04:00:29Z</time>
      </trkpt>
      <trkpt lat="46.79659" lon="4.23892">
        <ele>429.37</ele>
        <time>2021-08-13T04:00:32Z</time>
      </trkpt>
      <trkpt lat="46.79657" lon="4.23858">
        <ele>426</ele>
        <time>2021-08-13T04:00:37Z</time>
      </trkpt>
      <trkpt lat="46.79656" lon="4.23839">
        <ele>424.08</ele>
        <time>2021-08-13T04:00:42Z</time>
      </trkpt>
      <trkpt lat="46.79655" lon="4.23837">
        <ele>422.64</ele>
        <time>2021-08-13T04:00:43Z</time>
      </trkpt>
      <trkpt lat="46.79654" lon="4.23832">
        <ele>422.16</ele>
        <time>2021-08-13T04:00:45Z</time>
      </trkpt>
      <trkpt lat="46.79649" lon="4.2382">
        <ele>420.23</ele>
        <time>2021-08-13T04:00:49Z</time>
      </trkpt>
      <trkpt lat="46.79647" lon="4.23818">
        <ele>419.27</ele>
        <time>2021-08-13T04:00:50Z</time>
      </trkpt>
      <trkpt lat="46.79645" lon="4.23815">
        <ele>418.79</ele>
        <time>2021-08-13T04:00:51Z</time>
      </trkpt>
      <trkpt lat="46.79639" lon="4.23807">
        <ele>417.35</ele>
        <time>2021-08-13T04:00:53Z</time>
      </trkpt>
      <trkpt lat="46.7963" lon="4.23801">
        <ele>415.91</ele>
        <time>2021-08-13T04:00:55Z</time>
      </trkpt>
      <trkpt lat="46.79617" lon="4.23791">
        <ele>414.95</ele>
        <time>2021-08-13T04:00:57Z</time>
      </trkpt>
      <trkpt lat="46.79596" lon="4.23772">
        <ele>413.98</ele>
        <time>2021-08-13T04:01:00Z</time>
      </trkpt>
      <trkpt lat="46.7959" lon="4.23766">
        <ele>412.54</ele>
        <time>2021-08-13T04:01:01Z</time>
      </trkpt>
      <trkpt lat="46.7955" lon="4.23722">
        <ele>411.1</ele>
        <time>2021-08-13T04:01:07Z</time>
      </trkpt>
      <trkpt lat="46.79543" lon="4.23716">
        <ele>410.62</ele>
        <time>2021-08-13T04:01:08Z</time>
      </trkpt>
      <trkpt lat="46.79535" lon="4.2371">
        <ele>411.1</ele>
        <time>2021-08-13T04:01:09Z</time>
      </trkpt>
      <trkpt lat="46.79514" lon="4.23694">
        <ele>411.1</ele>
        <time>2021-08-13T04:01:12Z</time>
      </trkpt>
      <trkpt lat="46.79478" lon="4.23661">
        <ele>411.1</ele>
        <time>2021-08-13T04:01:18Z</time>
      </trkpt>
      <trkpt lat="46.79441" lon="4.23632">
        <ele>411.58</ele>
        <time>2021-08-13T04:01:24Z</time>
      </trkpt>
      <trkpt lat="46.79377" lon="4.23581">
        <ele>412.06</ele>
        <time>2021-08-13T04:01:32Z</time>
      </trkpt>
      <trkpt lat="46.79347" lon="4.23541">
        <ele>412.06</ele>
        <time>2021-08-13T04:01:39Z</time>
      </trkpt>
      <trkpt lat="46.79313" lon="4.23473">
        <ele>409.66</ele>
        <time>2021-08-13T04:01:48Z</time>
      </trkpt>
      <trkpt lat="46.79297" lon="4.2344">
        <ele>407.74</ele>
        <time>2021-08-13T04:01:52Z</time>
      </trkpt>
      <trkpt lat="46.79286" lon="4.23414">
        <ele>406.29</ele>
        <time>2021-08-13T04:01:55Z</time>
      </trkpt>
      <trkpt lat="46.79272" lon="4.23369">
        <ele>402.45</ele>
        <time>2021-08-13T04:02:00Z</time>
      </trkpt>
      <trkpt lat="46.79267" lon="4.23338">
        <ele>400.05</ele>
        <time>2021-08-13T04:02:03Z</time>
      </trkpt>
      <trkpt lat="46.7926" lon="4.23328">
        <ele>399.57</ele>
        <time>2021-08-13T04:02:04Z</time>
      </trkpt>
      <trkpt lat="46.79249" lon="4.2331">
        <ele>397.16</ele>
        <time>2021-08-13T04:02:06Z</time>
      </trkpt>
      <trkpt lat="46.79207" lon="4.23265">
        <ele>393.8</ele>
        <time>2021-08-13T04:02:12Z</time>
      </trkpt>
      <trkpt lat="46.79165" lon="4.2322">
        <ele>390.43</ele>
        <time>2021-08-13T04:02:18Z</time>
      </trkpt>
      <trkpt lat="46.79138" lon="4.23183">
        <ele>388.03</ele>
        <time>2021-08-13T04:02:22Z</time>
      </trkpt>
      <trkpt lat="46.79118" lon="4.23151">
        <ele>386.59</ele>
        <time>2021-08-13T04:02:25Z</time>
      </trkpt>
      <trkpt lat="46.79093" lon="4.23108">
        <ele>385.15</ele>
        <time>2021-08-13T04:02:30Z</time>
      </trkpt>
      <trkpt lat="46.79091" lon="4.23101">
        <ele>384.66</ele>
        <time>2021-08-13T04:02:31Z</time>
      </trkpt>
      <trkpt lat="46.79089" lon="4.23091">
        <ele>384.66</ele>
        <time>2021-08-13T04:02:34Z</time>
      </trkpt>
      <trkpt lat="46.79086" lon="4.23085">
        <ele>384.18</ele>
        <time>2021-08-13T04:02:42Z</time>
      </trkpt>
      <trkpt lat="46.79082" lon="4.2306">
        <ele>383.22</ele>
        <time>2021-08-13T04:02:47Z</time>
      </trkpt>
      <trkpt lat="46.79078" lon="4.23029">
        <ele>380.82</ele>
        <time>2021-08-13T04:02:51Z</time>
      </trkpt>
      <trkpt lat="46.79077" lon="4.23012">
        <ele>380.34</ele>
        <time>2021-08-13T04:02:53Z</time>
      </trkpt>
      <trkpt lat="46.79077" lon="4.23004">
        <ele>380.34</ele>
        <time>2021-08-13T04:02:54Z</time>
      </trkpt>
      <trkpt lat="46.79072" lon="4.22941">
        <ele>377.94</ele>
        <time>2021-08-13T04:03:01Z</time>
      </trkpt>
      <trkpt lat="46.79074" lon="4.22867">
        <ele>375.05</ele>
        <time>2021-08-13T04:03:09Z</time>
      </trkpt>
      <trkpt lat="46.79076" lon="4.22857">
        <ele>375.05</ele>
        <time>2021-08-13T04:03:10Z</time>
      </trkpt>
      <trkpt lat="46.79094" lon="4.22774">
        <ele>373.13</ele>
        <time>2021-08-13T04:03:19Z</time>
      </trkpt>
      <trkpt lat="46.791" lon="4.22742">
        <ele>369.76</ele>
        <time>2021-08-13T04:03:22Z</time>
      </trkpt>
      <trkpt lat="46.79109" lon="4.22691">
        <ele>366.4</ele>
        <time>2021-08-13T04:03:27Z</time>
      </trkpt>
      <trkpt lat="46.79112" lon="4.22681">
        <ele>366.4</ele>
        <time>2021-08-13T04:03:28Z</time>
      </trkpt>
      <trkpt lat="46.79115" lon="4.22672">
        <ele>366.4</ele>
        <time>2021-08-13T04:03:29Z</time>
      </trkpt>
      <trkpt lat="46.79119" lon="4.22663">
        <ele>365.44</ele>
        <time>2021-08-13T04:03:30Z</time>
      </trkpt>
      <trkpt lat="46.79123" lon="4.22655">
        <ele>365.44</ele>
        <time>2021-08-13T04:03:31Z</time>
      </trkpt>
      <trkpt lat="46.7913" lon="4.22636">
        <ele>364</ele>
        <time>2021-08-13T04:03:33Z</time>
      </trkpt>
      <trkpt lat="46.79133" lon="4.22626">
        <ele>363.52</ele>
        <time>2021-08-13T04:03:34Z</time>
      </trkpt>
      <trkpt lat="46.79136" lon="4.22616">
        <ele>363.52</ele>
        <time>2021-08-13T04:03:35Z</time>
      </trkpt>
      <trkpt lat="46.79138" lon="4.22605">
        <ele>362.55</ele>
        <time>2021-08-13T04:03:36Z</time>
      </trkpt>
      <trkpt lat="46.79139" lon="4.22594">
        <ele>362.07</ele>
        <time>2021-08-13T04:03:37Z</time>
      </trkpt>
      <trkpt lat="46.79142" lon="4.22572">
        <ele>361.59</ele>
        <time>2021-08-13T04:03:39Z</time>
      </trkpt>
      <trkpt lat="46.79142" lon="4.22561">
        <ele>361.59</ele>
        <time>2021-08-13T04:03:40Z</time>
      </trkpt>
      <trkpt lat="46.79145" lon="4.22482">
        <ele>360.15</ele>
        <time>2021-08-13T04:03:48Z</time>
      </trkpt>
      <trkpt lat="46.79153" lon="4.22414">
        <ele>359.19</ele>
        <time>2021-08-13T04:03:56Z</time>
      </trkpt>
      <trkpt lat="46.79152" lon="4.22407">
        <ele>359.19</ele>
        <time>2021-08-13T04:03:57Z</time>
      </trkpt>
      <trkpt lat="46.79152" lon="4.224">
        <ele>359.19</ele>
        <time>2021-08-13T04:03:58Z</time>
      </trkpt>
      <trkpt lat="46.79151" lon="4.22393">
        <ele>359.19</ele>
        <time>2021-08-13T04:03:59Z</time>
      </trkpt>
      <trkpt lat="46.7915" lon="4.22386">
        <ele>359.19</ele>
        <time>2021-08-13T04:04:00Z</time>
      </trkpt>
      <trkpt lat="46.79148" lon="4.2238">
        <ele>359.19</ele>
        <time>2021-08-13T04:04:01Z</time>
      </trkpt>
      <trkpt lat="46.79146" lon="4.22372">
        <ele>359.19</ele>
        <time>2021-08-13T04:04:02Z</time>
      </trkpt>
      <trkpt lat="46.7913" lon="4.22324">
        <ele>355.83</ele>
        <time>2021-08-13T04:04:08Z</time>
      </trkpt>
      <trkpt lat="46.79124" lon="4.22306">
        <ele>354.86</ele>
        <time>2021-08-13T04:04:10Z</time>
      </trkpt>
      <trkpt lat="46.79116" lon="4.22278">
        <ele>353.9</ele>
        <time>2021-08-13T04:04:13Z</time>
      </trkpt>
      <trkpt lat="46.79114" lon="4.22269">
        <ele>353.42</ele>
        <time>2021-08-13T04:04:14Z</time>
      </trkpt>
      <trkpt lat="46.79113" lon="4.22259">
        <ele>353.42</ele>
        <time>2021-08-13T04:04:15Z</time>
      </trkpt>
      <trkpt lat="46.79108" lon="4.22182">
        <ele>351.02</ele>
        <time>2021-08-13T04:04:23Z</time>
      </trkpt>
      <trkpt lat="46.79107" lon="4.22171">
        <ele>350.54</ele>
        <time>2021-08-13T04:04:24Z</time>
      </trkpt>
      <trkpt lat="46.79106" lon="4.22161">
        <ele>350.54</ele>
        <time>2021-08-13T04:04:25Z</time>
      </trkpt>
      <trkpt lat="46.79104" lon="4.22152">
        <ele>350.06</ele>
        <time>2021-08-13T04:04:26Z</time>
      </trkpt>
      <trkpt lat="46.79102" lon="4.22143">
        <ele>350.06</ele>
        <time>2021-08-13T04:04:27Z</time>
      </trkpt>
      <trkpt lat="46.79099" lon="4.22134">
        <ele>349.58</ele>
        <time>2021-08-13T04:04:28Z</time>
      </trkpt>
      <trkpt lat="46.79096" lon="4.22126">
        <ele>349.58</ele>
        <time>2021-08-13T04:04:29Z</time>
      </trkpt>
      <trkpt lat="46.79092" lon="4.22118">
        <ele>349.1</ele>
        <time>2021-08-13T04:04:30Z</time>
      </trkpt>
      <trkpt lat="46.79087" lon="4.22111">
        <ele>348.62</ele>
        <time>2021-08-13T04:04:31Z</time>
      </trkpt>
      <trkpt lat="46.79066" lon="4.22074">
        <ele>347.65</ele>
        <time>2021-08-13T04:04:36Z</time>
      </trkpt>
      <trkpt lat="46.79057" lon="4.22054">
        <ele>345.25</ele>
        <time>2021-08-13T04:04:39Z</time>
      </trkpt>
      <trkpt lat="46.79053" lon="4.2205">
        <ele>343.81</ele>
        <time>2021-08-13T04:04:40Z</time>
      </trkpt>
      <trkpt lat="46.79049" lon="4.22046">
        <ele>342.37</ele>
        <time>2021-08-13T04:04:41Z</time>
      </trkpt>
      <trkpt lat="46.79043" lon="4.22043">
        <ele>341.41</ele>
        <time>2021-08-13T04:04:42Z</time>
      </trkpt>
      <trkpt lat="46.79036" lon="4.2204">
        <ele>340.44</ele>
        <time>2021-08-13T04:04:43Z</time>
      </trkpt>
      <trkpt lat="46.7903" lon="4.22037">
        <ele>340.44</ele>
        <time>2021-08-13T04:04:44Z</time>
      </trkpt>
      <trkpt lat="46.79018" lon="4.22028">
        <ele>338.04</ele>
        <time>2021-08-13T04:04:46Z</time>
      </trkpt>
      <trkpt lat="46.79013" lon="4.22022">
        <ele>337.08</ele>
        <time>2021-08-13T04:04:47Z</time>
      </trkpt>
      <trkpt lat="46.79009" lon="4.22014">
        <ele>336.12</ele>
        <time>2021-08-13T04:04:48Z</time>
      </trkpt>
      <trkpt lat="46.79006" lon="4.22005">
        <ele>335.16</ele>
        <time>2021-08-13T04:04:49Z</time>
      </trkpt>
      <trkpt lat="46.79003" lon="4.21995">
        <ele>334.68</ele>
        <time>2021-08-13T04:04:50Z</time>
      </trkpt>
      <trkpt lat="46.79002" lon="4.21986">
        <ele>333.71</ele>
        <time>2021-08-13T04:04:51Z</time>
      </trkpt>
      <trkpt lat="46.79001" lon="4.21977">
        <ele>333.23</ele>
        <time>2021-08-13T04:04:52Z</time>
      </trkpt>
      <trkpt lat="46.79" lon="4.21949">
        <ele>332.75</ele>
        <time>2021-08-13T04:04:55Z</time>
      </trkpt>
      <trkpt lat="46.79" lon="4.21933">
        <ele>332.27</ele>
        <time>2021-08-13T04:04:57Z</time>
      </trkpt>
      <trkpt lat="46.78998" lon="4.21926">
        <ele>332.27</ele>
        <time>2021-08-13T04:04:58Z</time>
      </trkpt>
      <trkpt lat="46.78995" lon="4.21918">
        <ele>332.27</ele>
        <time>2021-08-13T04:04:59Z</time>
      </trkpt>
      <trkpt lat="46.78976" lon="4.21881">
        <ele>330.35</ele>
        <time>2021-08-13T04:05:04Z</time>
      </trkpt>
      <trkpt lat="46.78973" lon="4.21873">
        <ele>330.35</ele>
        <time>2021-08-13T04:05:05Z</time>
      </trkpt>
      <trkpt lat="46.7897" lon="4.21863">
        <ele>330.35</ele>
        <time>2021-08-13T04:05:06Z</time>
      </trkpt>
      <trkpt lat="46.78968" lon="4.21854">
        <ele>330.35</ele>
        <time>2021-08-13T04:05:07Z</time>
      </trkpt>
      <trkpt lat="46.78967" lon="4.21845">
        <ele>330.35</ele>
        <time>2021-08-13T04:05:08Z</time>
      </trkpt>
      <trkpt lat="46.78964" lon="4.21796">
        <ele>327.47</ele>
        <time>2021-08-13T04:05:13Z</time>
      </trkpt>
      <trkpt lat="46.78963" lon="4.21789">
        <ele>326.99</ele>
        <time>2021-08-13T04:05:14Z</time>
      </trkpt>
      <trkpt lat="46.78962" lon="4.21781">
        <ele>326.5</ele>
        <time>2021-08-13T04:05:15Z</time>
      </trkpt>
      <trkpt lat="46.78959" lon="4.21767">
        <ele>324.58</ele>
        <time>2021-08-13T04:05:17Z</time>
      </trkpt>
      <trkpt lat="46.78956" lon="4.2176">
        <ele>323.62</ele>
        <time>2021-08-13T04:05:18Z</time>
      </trkpt>
      <trkpt lat="46.78952" lon="4.21755">
        <ele>323.62</ele>
        <time>2021-08-13T04:05:19Z</time>
      </trkpt>
      <trkpt lat="46.7894" lon="4.21741">
        <ele>323.62</ele>
        <time>2021-08-13T04:05:22Z</time>
      </trkpt>
      <trkpt lat="46.78936" lon="4.21739">
        <ele>323.62</ele>
        <time>2021-08-13T04:05:23Z</time>
      </trkpt>
      <trkpt lat="46.78931" lon="4.21737">
        <ele>324.58</ele>
        <time>2021-08-13T04:05:24Z</time>
      </trkpt>
      <trkpt lat="46.78926" lon="4.21737">
        <ele>325.54</ele>
        <time>2021-08-13T04:05:26Z</time>
      </trkpt>
      <trkpt lat="46.78924" lon="4.21736">
        <ele>326.02</ele>
        <time>2021-08-13T04:05:28Z</time>
      </trkpt>
      <trkpt lat="46.78923" lon="4.21736">
        <ele>326.5</ele>
        <time>2021-08-13T04:05:29Z</time>
      </trkpt>
      <trkpt lat="46.78922" lon="4.21736">
        <ele>326.5</ele>
        <time>2021-08-13T04:05:30Z</time>
      </trkpt>
      <trkpt lat="46.78921" lon="4.21737">
        <ele>326.99</ele>
        <time>2021-08-13T04:05:31Z</time>
      </trkpt>
      <trkpt lat="46.78919" lon="4.21737">
        <ele>326.99</ele>
        <time>2021-08-13T04:05:32Z</time>
      </trkpt>
      <trkpt lat="46.78918" lon="4.21737">
        <ele>326.99</ele>
        <time>2021-08-13T04:05:33Z</time>
      </trkpt>
      <trkpt lat="46.78917" lon="4.21737">
        <ele>327.95</ele>
        <time>2021-08-13T04:05:34Z</time>
      </trkpt>
      <trkpt lat="46.78909" lon="4.2174">
        <ele>328.91</ele>
        <time>2021-08-13T04:05:42Z</time>
      </trkpt>
      <trkpt lat="46.78899" lon="4.21748">
        <ele>330.35</ele>
        <time>2021-08-13T04:05:50Z</time>
      </trkpt>
      <trkpt lat="46.78884" lon="4.21755">
        <ele>331.31</ele>
        <time>2021-08-13T04:05:59Z</time>
      </trkpt>
      <trkpt lat="46.78877" lon="4.21754">
        <ele>331.31</ele>
        <time>2021-08-13T04:06:04Z</time>
      </trkpt>
      <trkpt lat="46.78875" lon="4.21753">
        <ele>331.79</ele>
        <time>2021-08-13T04:06:11Z</time>
      </trkpt>
      <trkpt lat="46.78874" lon="4.21752">
        <ele>331.79</ele>
        <time>2021-08-13T04:06:24Z</time>
      </trkpt>
      <trkpt lat="46.78873" lon="4.2175">
        <ele>331.79</ele>
        <time>2021-08-13T04:06:31Z</time>
      </trkpt>
      <trkpt lat="46.78866" lon="4.21735">
        <ele>332.75</ele>
        <time>2021-08-13T04:06:38Z</time>
      </trkpt>
      <trkpt lat="46.78857" lon="4.21718">
        <ele>334.68</ele>
        <time>2021-08-13T04:06:47Z</time>
      </trkpt>
      <trkpt lat="46.78849" lon="4.21709">
        <ele>335.64</ele>
        <time>2021-08-13T04:06:54Z</time>
      </trkpt>
      <trkpt lat="46.78847" lon="4.21707">
        <ele>335.64</ele>
        <time>2021-08-13T04:07:01Z</time>
      </trkpt>
      <trkpt lat="46.78845" lon="4.21709">
        <ele>335.64</ele>
        <time>2021-08-13T04:07:23Z</time>
      </trkpt>
      <trkpt lat="46.78842" lon="4.21705">
        <ele>335.64</ele>
        <time>2021-08-13T04:07:45Z</time>
      </trkpt>
      <trkpt lat="46.78842" lon="4.21701">
        <ele>335.64</ele>
        <time>2021-08-13T04:08:06Z</time>
      </trkpt>
      <trkpt lat="46.78842" lon="4.21702">
        <ele>335.64</ele>
        <time>2021-08-13T04:08:24Z</time>
      </trkpt>
      <trkpt lat="46.78843" lon="4.21702">
        <ele>335.64</ele>
        <time>2021-08-13T04:08:45Z</time>
      </trkpt>
      <trkpt lat="46.78844" lon="4.21703">
        <ele>335.64</ele>
        <time>2021-08-13T04:09:02Z</time>
      </trkpt>
      <trkpt lat="46.78848" lon="4.21706">
        <ele>335.64</ele>
        <time>2021-08-13T04:09:27Z</time>
      </trkpt>
      <trkpt lat="46.78846" lon="4.21708">
        <ele>335.16</ele>
        <time>2021-08-13T04:09:48Z</time>
      </trkpt>
      <trkpt lat="46.78847" lon="4.21709">
        <ele>335.16</ele>
        <time>2021-08-13T04:09:59Z</time>
      </trkpt>
      <trkpt lat="46.78849" lon="4.21706">
        <ele>335.16</ele>
        <time>2021-08-13T04:10:13Z</time>
      </trkpt>
      <trkpt lat="46.78846" lon="4.21705">
        <ele>335.16</ele>
        <time>2021-08-13T04:10:27Z</time>
      </trkpt>
      <trkpt lat="46.78845" lon="4.21706">
        <ele>335.16</ele>
        <time>2021-08-13T04:10:44Z</time>
      </trkpt>
      <trkpt lat="46.78848" lon="4.21704">
        <ele>335.16</ele>
        <time>2021-08-13T04:11:05Z</time>
      </trkpt>
      <trkpt lat="46.78847" lon="4.21706">
        <ele>334.68</ele>
        <time>2021-08-13T04:11:32Z</time>
      </trkpt>
      <trkpt lat="46.78847" lon="4.21704">
        <ele>333.71</ele>
        <time>2021-08-13T04:11:49Z</time>
      </trkpt>
      <trkpt lat="46.78845" lon="4.21706">
        <ele>333.23</ele>
        <time>2021-08-13T04:12:10Z</time>
      </trkpt>
      <trkpt lat="46.7884" lon="4.21706">
        <ele>333.23</ele>
        <time>2021-08-13T04:12:34Z</time>
      </trkpt>
      <trkpt lat="46.78846" lon="4.21706">
        <ele>333.23</ele>
        <time>2021-08-13T04:12:58Z</time>
      </trkpt>
      <trkpt lat="46.78848" lon="4.21707">
        <ele>333.23</ele>
        <time>2021-08-13T04:13:16Z</time>
      </trkpt>
      <trkpt lat="46.7885" lon="4.21707">
        <ele>333.23</ele>
        <time>2021-08-13T04:13:41Z</time>
      </trkpt>
      <trkpt lat="46.78852" lon="4.21708">
        <ele>333.23</ele>
        <time>2021-08-13T04:14:01Z</time>
      </trkpt>
      <trkpt lat="46.78851" lon="4.21708">
        <ele>333.23</ele>
        <time>2021-08-13T04:14:18Z</time>
      </trkpt>
      <trkpt lat="46.78847" lon="4.21707">
        <ele>333.23</ele>
        <time>2021-08-13T04:14:40Z</time>
      </trkpt>
      <trkpt lat="46.78842" lon="4.21707">
        <ele>333.23</ele>
        <time>2021-08-13T04:14:58Z</time>
      </trkpt>
      <trkpt lat="46.78844" lon="4.21707">
        <ele>332.75</ele>
        <time>2021-08-13T04:15:14Z</time>
      </trkpt>
      <trkpt lat="46.7884" lon="4.21705">
        <ele>332.75</ele>
        <time>2021-08-13T04:15:38Z</time>
      </trkpt>
      <trkpt lat="46.78841" lon="4.21702">
        <ele>332.75</ele>
        <time>2021-08-13T04:15:56Z</time>
      </trkpt>
      <trkpt lat="46.78841" lon="4.21702">
        <ele>332.75</ele>
        <time>2021-08-13T04:16:16Z</time>
      </trkpt>
      <trkpt lat="46.78837" lon="4.21703">
        <ele>332.75</ele>
        <time>2021-08-13T04:16:36Z</time>
      </trkpt>
      <trkpt lat="46.78834" lon="4.21705">
        <ele>332.75</ele>
        <time>2021-08-13T04:16:51Z</time>
      </trkpt>
      <trkpt lat="46.78832" lon="4.21704">
        <ele>332.75</ele>
        <time>2021-08-13T04:17:10Z</time>
      </trkpt>
      <trkpt lat="46.7883" lon="4.21704">
        <ele>332.75</ele>
        <time>2021-08-13T04:17:24Z</time>
      </trkpt>
      <trkpt lat="46.78833" lon="4.21704">
        <ele>332.75</ele>
        <time>2021-08-13T04:17:33Z</time>
      </trkpt>
      <trkpt lat="46.78837" lon="4.21703">
        <ele>332.75</ele>
        <time>2021-08-13T04:17:44Z</time>
      </trkpt>
      <trkpt lat="46.78838" lon="4.21703">
        <ele>332.75</ele>
        <time>2021-08-13T04:17:59Z</time>
      </trkpt>
      <trkpt lat="46.78839" lon="4.21703">
        <ele>332.75</ele>
        <time>2021-08-13T04:18:12Z</time>
      </trkpt>
      <trkpt lat="46.78842" lon="4.21703">
        <ele>332.75</ele>
        <time>2021-08-13T04:18:22Z</time>
      </trkpt>
      <trkpt lat="46.78849" lon="4.21705">
        <ele>332.75</ele>
        <time>2021-08-13T04:18:31Z</time>
      </trkpt>
      <trkpt lat="46.78853" lon="4.21706">
        <ele>332.75</ele>
        <time>2021-08-13T04:18:42Z</time>
      </trkpt>
      <trkpt lat="46.78851" lon="4.21706">
        <ele>332.75</ele>
        <time>2021-08-13T04:18:59Z</time>
      </trkpt>
      <trkpt lat="46.78851" lon="4.21707">
        <ele>332.75</ele>
        <time>2021-08-13T04:19:07Z</time>
      </trkpt>
      <trkpt lat="46.7885" lon="4.21707">
        <ele>332.75</ele>
        <time>2021-08-13T04:19:19Z</time>
      </trkpt>
      <trkpt lat="46.78851" lon="4.21706">
        <ele>332.27</ele>
        <time>2021-08-13T04:19:30Z</time>
      </trkpt>
      <trkpt lat="46.78852" lon="4.21705">
        <ele>332.27</ele>
        <time>2021-08-13T04:19:47Z</time>
      </trkpt>
      <trkpt lat="46.7885" lon="4.21705">
        <ele>332.27</ele>
        <time>2021-08-13T04:19:56Z</time>
      </trkpt>
      <trkpt lat="46.78849" lon="4.21706">
        <ele>332.27</ele>
        <time>2021-08-13T04:20:10Z</time>
      </trkpt>
      <trkpt lat="46.78848" lon="4.21708">
        <ele>332.27</ele>
        <time>2021-08-13T04:20:25Z</time>
      </trkpt>
      <trkpt lat="46.78848" lon="4.21709">
        <ele>332.27</ele>
        <time>2021-08-13T04:20:38Z</time>
      </trkpt>
      <trkpt lat="46.78849" lon="4.21706">
        <ele>332.27</ele>
        <time>2021-08-13T04:20:48Z</time>
      </trkpt>
      <trkpt lat="46.78847" lon="4.21704">
        <ele>332.27</ele>
        <time>2021-08-13T04:20:55Z</time>
      </trkpt>
      <trkpt lat="46.78845" lon="4.217">
        <ele>332.27</ele>
        <time>2021-08-13T04:20:58Z</time>
      </trkpt>
      <trkpt lat="46.78844" lon="4.21698">
        <ele>332.27</ele>
        <time>2021-08-13T04:20:59Z</time>
      </trkpt>
      <trkpt lat="46.78843" lon="4.21697">
        <ele>332.27</ele>
        <time>2021-08-13T04:21:00Z</time>
      </trkpt>
      <trkpt lat="46.78841" lon="4.21692">
        <ele>333.23</ele>
        <time>2021-08-13T04:21:03Z</time>
      </trkpt>
      <trkpt lat="46.78834" lon="4.21683">
        <ele>334.68</ele>
        <time>2021-08-13T04:21:09Z</time>
      </trkpt>
      <trkpt lat="46.78831" lon="4.21677">
        <ele>335.16</ele>
        <time>2021-08-13T04:21:14Z</time>
      </trkpt>
      <trkpt lat="46.7883" lon="4.21675">
        <ele>335.64</ele>
        <time>2021-08-13T04:21:15Z</time>
      </trkpt>
      <trkpt lat="46.78829" lon="4.21673">
        <ele>335.64</ele>
        <time>2021-08-13T04:21:16Z</time>
      </trkpt>
      <trkpt lat="46.78829" lon="4.21671">
        <ele>335.64</ele>
        <time>2021-08-13T04:21:17Z</time>
      </trkpt>
      <trkpt lat="46.78829" lon="4.21669">
        <ele>335.64</ele>
        <time>2021-08-13T04:21:18Z</time>
      </trkpt>
      <trkpt lat="46.78828" lon="4.21667">
        <ele>336.12</ele>
        <time>2021-08-13T04:21:19Z</time>
      </trkpt>
      <trkpt lat="46.78828" lon="4.21665">
        <ele>336.12</ele>
        <time>2021-08-13T04:21:20Z</time>
      </trkpt>
      <trkpt lat="46.78828" lon="4.21663">
        <ele>336.6</ele>
        <time>2021-08-13T04:21:21Z</time>
      </trkpt>
      <trkpt lat="46.78829" lon="4.21661">
        <ele>336.6</ele>
        <time>2021-08-13T04:21:22Z</time>
      </trkpt>
      <trkpt lat="46.7883" lon="4.21659">
        <ele>336.6</ele>
        <time>2021-08-13T04:21:23Z</time>
      </trkpt>
      <trkpt lat="46.7883" lon="4.21658">
        <ele>336.6</ele>
        <time>2021-08-13T04:21:24Z</time>
      </trkpt>
      <trkpt lat="46.78831" lon="4.21656">
        <ele>337.08</ele>
        <time>2021-08-13T04:21:25Z</time>
      </trkpt>
      <trkpt lat="46.78832" lon="4.21655">
        <ele>337.08</ele>
        <time>2021-08-13T04:21:26Z</time>
      </trkpt>
      <trkpt lat="46.78832" lon="4.21654">
        <ele>337.08</ele>
        <time>2021-08-13T04:21:27Z</time>
      </trkpt>
      <trkpt lat="46.78832" lon="4.21652">
        <ele>337.08</ele>
        <time>2021-08-13T04:21:28Z</time>
      </trkpt>
      <trkpt lat="46.78832" lon="4.2165">
        <ele>337.56</ele>
        <time>2021-08-13T04:21:29Z</time>
      </trkpt>
      <trkpt lat="46.78831" lon="4.21649">
        <ele>337.56</ele>
        <time>2021-08-13T04:21:30Z</time>
      </trkpt>
      <trkpt lat="46.78832" lon="4.21648">
        <ele>337.56</ele>
        <time>2021-08-13T04:21:31Z</time>
      </trkpt>
      <trkpt lat="46.78833" lon="4.21646">
        <ele>337.56</ele>
        <time>2021-08-13T04:21:32Z</time>
      </trkpt>
      <trkpt lat="46.78833" lon="4.21641">
        <ele>338.04</ele>
        <time>2021-08-13T04:21:38Z</time>
      </trkpt>
      <trkpt lat="46.78831" lon="4.21638">
        <ele>338.04</ele>
        <time>2021-08-13T04:21:49Z</time>
      </trkpt>
      <trkpt lat="46.7883" lon="4.21636">
        <ele>338.04</ele>
        <time>2021-08-13T04:21:50Z</time>
      </trkpt>
      <trkpt lat="46.78829" lon="4.21635">
        <ele>338.04</ele>
        <time>2021-08-13T04:21:51Z</time>
      </trkpt>
      <trkpt lat="46.78828" lon="4.21634">
        <ele>338.52</ele>
        <time>2021-08-13T04:21:52Z</time>
      </trkpt>
      <trkpt lat="46.78827" lon="4.21633">
        <ele>338.52</ele>
        <time>2021-08-13T04:21:53Z</time>
      </trkpt>
      <trkpt lat="46.78819" lon="4.21622">
        <ele>339.48</ele>
        <time>2021-08-13T04:22:02Z</time>
      </trkpt>
      <trkpt lat="46.78806" lon="4.21609">
        <ele>341.89</ele>
        <time>2021-08-13T04:22:14Z</time>
      </trkpt>
      <trkpt lat="46.78799" lon="4.21601">
        <ele>342.85</ele>
        <time>2021-08-13T04:22:22Z</time>
      </trkpt>
      <trkpt lat="46.78791" lon="4.21591">
        <ele>343.81</ele>
        <time>2021-08-13T04:22:30Z</time>
      </trkpt>
      <trkpt lat="46.7879" lon="4.2159">
        <ele>343.81</ele>
        <time>2021-08-13T04:22:31Z</time>
      </trkpt>
      <trkpt lat="46.78788" lon="4.21588">
        <ele>344.29</ele>
        <time>2021-08-13T04:22:33Z</time>
      </trkpt>
      <trkpt lat="46.78778" lon="4.21578">
        <ele>345.25</ele>
        <time>2021-08-13T04:22:41Z</time>
      </trkpt>
      <trkpt lat="46.78777" lon="4.21577">
        <ele>345.25</ele>
        <time>2021-08-13T04:22:42Z</time>
      </trkpt>
      <trkpt lat="46.78776" lon="4.21576">
        <ele>345.73</ele>
        <time>2021-08-13T04:22:43Z</time>
      </trkpt>
      <trkpt lat="46.78774" lon="4.21575">
        <ele>346.21</ele>
        <time>2021-08-13T04:22:44Z</time>
      </trkpt>
      <trkpt lat="46.78773" lon="4.21573">
        <ele>346.21</ele>
        <time>2021-08-13T04:22:45Z</time>
      </trkpt>
      <trkpt lat="46.78772" lon="4.21572">
        <ele>346.21</ele>
        <time>2021-08-13T04:22:46Z</time>
      </trkpt>
      <trkpt lat="46.78768" lon="4.21567">
        <ele>347.65</ele>
        <time>2021-08-13T04:22:50Z</time>
      </trkpt>
      <trkpt lat="46.78767" lon="4.21566">
        <ele>347.65</ele>
        <time>2021-08-13T04:22:51Z</time>
      </trkpt>
      <trkpt lat="46.78759" lon="4.21558">
        <ele>349.1</ele>
        <time>2021-08-13T04:22:59Z</time>
      </trkpt>
      <trkpt lat="46.78753" lon="4.21552">
        <ele>349.58</ele>
        <time>2021-08-13T04:23:04Z</time>
      </trkpt>
      <trkpt lat="46.78751" lon="4.2155">
        <ele>350.06</ele>
        <time>2021-08-13T04:23:05Z</time>
      </trkpt>
      <trkpt lat="46.78749" lon="4.21549">
        <ele>350.06</ele>
        <time>2021-08-13T04:23:06Z</time>
      </trkpt>
      <trkpt lat="46.78747" lon="4.21547">
        <ele>350.06</ele>
        <time>2021-08-13T04:23:07Z</time>
      </trkpt>
      <trkpt lat="46.78745" lon="4.21545">
        <ele>350.54</ele>
        <time>2021-08-13T04:23:08Z</time>
      </trkpt>
      <trkpt lat="46.78742" lon="4.21543">
        <ele>351.02</ele>
        <time>2021-08-13T04:23:09Z</time>
      </trkpt>
      <trkpt lat="46.78739" lon="4.2154">
        <ele>351.02</ele>
        <time>2021-08-13T04:23:10Z</time>
      </trkpt>
      <trkpt lat="46.78737" lon="4.21538">
        <ele>351.02</ele>
        <time>2021-08-13T04:23:11Z</time>
      </trkpt>
      <trkpt lat="46.78736" lon="4.21535">
        <ele>351.02</ele>
        <time>2021-08-13T04:23:12Z</time>
      </trkpt>
      <trkpt lat="46.78734" lon="4.21532">
        <ele>351.02</ele>
        <time>2021-08-13T04:23:13Z</time>
      </trkpt>
      <trkpt lat="46.78723" lon="4.21515">
        <ele>351.5</ele>
        <time>2021-08-13T04:23:20Z</time>
      </trkpt>
      <trkpt lat="46.78705" lon="4.21493">
        <ele>351.98</ele>
        <time>2021-08-13T04:23:29Z</time>
      </trkpt>
      <trkpt lat="46.78685" lon="4.21468">
        <ele>352.94</ele>
        <time>2021-08-13T04:23:38Z</time>
      </trkpt>
      <trkpt lat="46.78668" lon="4.2145">
        <ele>353.42</ele>
        <time>2021-08-13T04:23:45Z</time>
      </trkpt>
      <trkpt lat="46.78651" lon="4.21446">
        <ele>354.86</ele>
        <time>2021-08-13T04:23:52Z</time>
      </trkpt>
      <trkpt lat="46.78631" lon="4.21446">
        <ele>356.31</ele>
        <time>2021-08-13T04:24:01Z</time>
      </trkpt>
      <trkpt lat="46.7861" lon="4.21445">
        <ele>357.27</ele>
        <time>2021-08-13T04:24:11Z</time>
      </trkpt>
      <trkpt lat="46.78602" lon="4.21444">
        <ele>358.23</ele>
        <time>2021-08-13T04:24:15Z</time>
      </trkpt>
      <trkpt lat="46.786" lon="4.21445">
        <ele>358.71</ele>
        <time>2021-08-13T04:24:16Z</time>
      </trkpt>
      <trkpt lat="46.78598" lon="4.21445">
        <ele>358.71</ele>
        <time>2021-08-13T04:24:17Z</time>
      </trkpt>
      <trkpt lat="46.78596" lon="4.21445">
        <ele>358.71</ele>
        <time>2021-08-13T04:24:18Z</time>
      </trkpt>
      <trkpt lat="46.78594" lon="4.21444">
        <ele>359.19</ele>
        <time>2021-08-13T04:24:19Z</time>
      </trkpt>
      <trkpt lat="46.78593" lon="4.21443">
        <ele>359.19</ele>
        <time>2021-08-13T04:24:20Z</time>
      </trkpt>
      <trkpt lat="46.78591" lon="4.21443">
        <ele>359.67</ele>
        <time>2021-08-13T04:24:21Z</time>
      </trkpt>
      <trkpt lat="46.78589" lon="4.21442">
        <ele>359.67</ele>
        <time>2021-08-13T04:24:22Z</time>
      </trkpt>
      <trkpt lat="46.78587" lon="4.21441">
        <ele>359.67</ele>
        <time>2021-08-13T04:24:23Z</time>
      </trkpt>
      <trkpt lat="46.78585" lon="4.21441">
        <ele>359.67</ele>
        <time>2021-08-13T04:24:24Z</time>
      </trkpt>
      <trkpt lat="46.78583" lon="4.2144">
        <ele>360.15</ele>
        <time>2021-08-13T04:24:25Z</time>
      </trkpt>
      <trkpt lat="46.78581" lon="4.21439">
        <ele>360.15</ele>
        <time>2021-08-13T04:24:26Z</time>
      </trkpt>
      <trkpt lat="46.78579" lon="4.21439">
        <ele>360.63</ele>
        <time>2021-08-13T04:24:27Z</time>
      </trkpt>
      <trkpt lat="46.78576" lon="4.21438">
        <ele>360.63</ele>
        <time>2021-08-13T04:24:28Z</time>
      </trkpt>
      <trkpt lat="46.78574" lon="4.21437">
        <ele>360.63</ele>
        <time>2021-08-13T04:24:29Z</time>
      </trkpt>
      <trkpt lat="46.78572" lon="4.21436">
        <ele>360.63</ele>
        <time>2021-08-13T04:24:30Z</time>
      </trkpt>
      <trkpt lat="46.7857" lon="4.21435">
        <ele>360.63</ele>
        <time>2021-08-13T04:24:31Z</time>
      </trkpt>
      <trkpt lat="46.78568" lon="4.21434">
        <ele>361.11</ele>
        <time>2021-08-13T04:24:32Z</time>
      </trkpt>
      <trkpt lat="46.78566" lon="4.21433">
        <ele>361.11</ele>
        <time>2021-08-13T04:24:33Z</time>
      </trkpt>
      <trkpt lat="46.78549" lon="4.21423">
        <ele>362.07</ele>
        <time>2021-08-13T04:24:41Z</time>
      </trkpt>
      <trkpt lat="46.78531" lon="4.21406">
        <ele>363.04</ele>
        <time>2021-08-13T04:24:50Z</time>
      </trkpt>
      <trkpt lat="46.78518" lon="4.21388">
        <ele>364</ele>
        <time>2021-08-13T04:24:57Z</time>
      </trkpt>
      <trkpt lat="46.78494" lon="4.21361">
        <ele>365.92</ele>
        <time>2021-08-13T04:25:10Z</time>
      </trkpt>
      <trkpt lat="46.78473" lon="4.21344">
        <ele>366.88</ele>
        <time>2021-08-13T04:25:20Z</time>
      </trkpt>
      <trkpt lat="46.78451" lon="4.21329">
        <ele>368.32</ele>
        <time>2021-08-13T04:25:30Z</time>
      </trkpt>
      <trkpt lat="46.7843" lon="4.21315">
        <ele>369.28</ele>
        <time>2021-08-13T04:25:40Z</time>
      </trkpt>
      <trkpt lat="46.78409" lon="4.213">
        <ele>370.24</ele>
        <time>2021-08-13T04:25:50Z</time>
      </trkpt>
      <trkpt lat="46.78386" lon="4.21293">
        <ele>371.69</ele>
        <time>2021-08-13T04:26:00Z</time>
      </trkpt>
      <trkpt lat="46.7836" lon="4.21295">
        <ele>373.13</ele>
        <time>2021-08-13T04:26:11Z</time>
      </trkpt>
      <trkpt lat="46.78339" lon="4.2129">
        <ele>374.09</ele>
        <time>2021-08-13T04:26:20Z</time>
      </trkpt>
      <trkpt lat="46.78325" lon="4.21266">
        <ele>375.53</ele>
        <time>2021-08-13T04:26:28Z</time>
      </trkpt>
      <trkpt lat="46.78316" lon="4.21246">
        <ele>376.49</ele>
        <time>2021-08-13T04:26:34Z</time>
      </trkpt>
      <trkpt lat="46.78304" lon="4.21218">
        <ele>377.45</ele>
        <time>2021-08-13T04:26:44Z</time>
      </trkpt>
      <trkpt lat="46.7829" lon="4.212">
        <ele>379.38</ele>
        <time>2021-08-13T04:26:53Z</time>
      </trkpt>
      <trkpt lat="46.78273" lon="4.21184">
        <ele>380.34</ele>
        <time>2021-08-13T04:27:03Z</time>
      </trkpt>
      <trkpt lat="46.78257" lon="4.21175">
        <ele>381.78</ele>
        <time>2021-08-13T04:27:11Z</time>
      </trkpt>
      <trkpt lat="46.78238" lon="4.21156">
        <ele>381.78</ele>
        <time>2021-08-13T04:27:20Z</time>
      </trkpt>
      <trkpt lat="46.78227" lon="4.21134">
        <ele>382.74</ele>
        <time>2021-08-13T04:27:27Z</time>
      </trkpt>
      <trkpt lat="46.78213" lon="4.21108">
        <ele>383.7</ele>
        <time>2021-08-13T04:27:36Z</time>
      </trkpt>
      <trkpt lat="46.78195" lon="4.21092">
        <ele>384.66</ele>
        <time>2021-08-13T04:27:45Z</time>
      </trkpt>
      <trkpt lat="46.78171" lon="4.21075">
        <ele>385.63</ele>
        <time>2021-08-13T04:27:55Z</time>
      </trkpt>
      <trkpt lat="46.78157" lon="4.21047">
        <ele>387.07</ele>
        <time>2021-08-13T04:28:04Z</time>
      </trkpt>
      <trkpt lat="46.78156" lon="4.21039">
        <ele>388.03</ele>
        <time>2021-08-13T04:28:06Z</time>
      </trkpt>
      <trkpt lat="46.78155" lon="4.21035">
        <ele>388.03</ele>
        <time>2021-08-13T04:28:07Z</time>
      </trkpt>
      <trkpt lat="46.78155" lon="4.21032">
        <ele>388.03</ele>
        <time>2021-08-13T04:28:08Z</time>
      </trkpt>
      <trkpt lat="46.78155" lon="4.21028">
        <ele>388.03</ele>
        <time>2021-08-13T04:28:09Z</time>
      </trkpt>
      <trkpt lat="46.78154" lon="4.21024">
        <ele>388.03</ele>
        <time>2021-08-13T04:28:10Z</time>
      </trkpt>
      <trkpt lat="46.78155" lon="4.20993">
        <ele>389.47</ele>
        <time>2021-08-13T04:28:18Z</time>
      </trkpt>
      <trkpt lat="46.78145" lon="4.20964">
        <ele>390.43</ele>
        <time>2021-08-13T04:28:26Z</time>
      </trkpt>
      <trkpt lat="46.78124" lon="4.20952">
        <ele>390.91</ele>
        <time>2021-08-13T04:28:34Z</time>
      </trkpt>
      <trkpt lat="46.78093" lon="4.20956">
        <ele>391.87</ele>
        <time>2021-08-13T04:28:44Z</time>
      </trkpt>
      <trkpt lat="46.78057" lon="4.20955">
        <ele>391.87</ele>
        <time>2021-08-13T04:28:53Z</time>
      </trkpt>
      <trkpt lat="46.78026" lon="4.20948">
        <ele>391.87</ele>
        <time>2021-08-13T04:29:01Z</time>
      </trkpt>
      <trkpt lat="46.78001" lon="4.20943">
        <ele>392.84</ele>
        <time>2021-08-13T04:29:08Z</time>
      </trkpt>
      <trkpt lat="46.7798" lon="4.20955">
        <ele>392.84</ele>
        <time>2021-08-13T04:29:14Z</time>
      </trkpt>
      <trkpt lat="46.77977" lon="4.20959">
        <ele>392.84</ele>
        <time>2021-08-13T04:29:15Z</time>
      </trkpt>
      <trkpt lat="46.77961" lon="4.2098">
        <ele>392.84</ele>
        <time>2021-08-13T04:29:20Z</time>
      </trkpt>
      <trkpt lat="46.77957" lon="4.20984">
        <ele>392.84</ele>
        <time>2021-08-13T04:29:21Z</time>
      </trkpt>
      <trkpt lat="46.77953" lon="4.20987">
        <ele>392.84</ele>
        <time>2021-08-13T04:29:22Z</time>
      </trkpt>
      <trkpt lat="46.77949" lon="4.20989">
        <ele>392.84</ele>
        <time>2021-08-13T04:29:23Z</time>
      </trkpt>
      <trkpt lat="46.77945" lon="4.20991">
        <ele>392.36</ele>
        <time>2021-08-13T04:29:24Z</time>
      </trkpt>
      <trkpt lat="46.7794" lon="4.20992">
        <ele>392.84</ele>
        <time>2021-08-13T04:29:25Z</time>
      </trkpt>
      <trkpt lat="46.77936" lon="4.20992">
        <ele>392.36</ele>
        <time>2021-08-13T04:29:26Z</time>
      </trkpt>
      <trkpt lat="46.77932" lon="4.20992">
        <ele>392.36</ele>
        <time>2021-08-13T04:29:27Z</time>
      </trkpt>
      <trkpt lat="46.77927" lon="4.20991">
        <ele>392.36</ele>
        <time>2021-08-13T04:29:28Z</time>
      </trkpt>
      <trkpt lat="46.77915" lon="4.20987">
        <ele>392.36</ele>
        <time>2021-08-13T04:29:31Z</time>
      </trkpt>
      <trkpt lat="46.77887" lon="4.20973">
        <ele>392.36</ele>
        <time>2021-08-13T04:29:39Z</time>
      </trkpt>
      <trkpt lat="46.7787" lon="4.2095">
        <ele>392.36</ele>
        <time>2021-08-13T04:29:46Z</time>
      </trkpt>
      <trkpt lat="46.77867" lon="4.20946">
        <ele>393.32</ele>
        <time>2021-08-13T04:29:48Z</time>
      </trkpt>
      <trkpt lat="46.77867" lon="4.20951">
        <ele>393.32</ele>
        <time>2021-08-13T04:29:50Z</time>
      </trkpt>
      <trkpt lat="46.77869" lon="4.20955">
        <ele>393.32</ele>
        <time>2021-08-13T04:29:51Z</time>
      </trkpt>
      <trkpt lat="46.77871" lon="4.20957">
        <ele>393.32</ele>
        <time>2021-08-13T04:29:52Z</time>
      </trkpt>
      <trkpt lat="46.77875" lon="4.2096">
        <ele>393.32</ele>
        <time>2021-08-13T04:29:53Z</time>
      </trkpt>
      <trkpt lat="46.77878" lon="4.20964">
        <ele>393.32</ele>
        <time>2021-08-13T04:29:54Z</time>
      </trkpt>
      <trkpt lat="46.77881" lon="4.20967">
        <ele>393.32</ele>
        <time>2021-08-13T04:29:55Z</time>
      </trkpt>
      <trkpt lat="46.77885" lon="4.2097">
        <ele>393.32</ele>
        <time>2021-08-13T04:29:56Z</time>
      </trkpt>
      <trkpt lat="46.77913" lon="4.20987">
        <ele>391.87</ele>
        <time>2021-08-13T04:30:05Z</time>
      </trkpt>
      <trkpt lat="46.77931" lon="4.20991">
        <ele>391.87</ele>
        <time>2021-08-13T04:30:12Z</time>
      </trkpt>
      <trkpt lat="46.77932" lon="4.20992">
        <ele>391.87</ele>
        <time>2021-08-13T04:30:13Z</time>
      </trkpt>
      <trkpt lat="46.77931" lon="4.20993">
        <ele>391.87</ele>
        <time>2021-08-13T04:30:14Z</time>
      </trkpt>
      <trkpt lat="46.7793" lon="4.20992">
        <ele>391.87</ele>
        <time>2021-08-13T04:30:15Z</time>
      </trkpt>
      <trkpt lat="46.77928" lon="4.20992">
        <ele>391.87</ele>
        <time>2021-08-13T04:30:16Z</time>
      </trkpt>
      <trkpt lat="46.77927" lon="4.2099">
        <ele>391.87</ele>
        <time>2021-08-13T04:30:17Z</time>
      </trkpt>
      <trkpt lat="46.77914" lon="4.20985">
        <ele>391.87</ele>
        <time>2021-08-13T04:30:22Z</time>
      </trkpt>
      <trkpt lat="46.77882" lon="4.20968">
        <ele>391.87</ele>
        <time>2021-08-13T04:30:31Z</time>
      </trkpt>
      <trkpt lat="46.77865" lon="4.2094">
        <ele>393.32</ele>
        <time>2021-08-13T04:30:39Z</time>
      </trkpt>
      <trkpt lat="46.77857" lon="4.20913">
        <ele>395.24</ele>
        <time>2021-08-13T04:30:48Z</time>
      </trkpt>
      <trkpt lat="46.77846" lon="4.20877">
        <ele>396.68</ele>
        <time>2021-08-13T04:30:59Z</time>
      </trkpt>
      <trkpt lat="46.77832" lon="4.2085">
        <ele>398.12</ele>
        <time>2021-08-13T04:31:09Z</time>
      </trkpt>
      <trkpt lat="46.77817" lon="4.20839">
        <ele>399.08</ele>
        <time>2021-08-13T04:31:16Z</time>
      </trkpt>
      <trkpt lat="46.77805" lon="4.20841">
        <ele>400.53</ele>
        <time>2021-08-13T04:31:22Z</time>
      </trkpt>
      <trkpt lat="46.77783" lon="4.20847">
        <ele>401.01</ele>
        <time>2021-08-13T04:31:31Z</time>
      </trkpt>
      <trkpt lat="46.77763" lon="4.20835">
        <ele>402.45</ele>
        <time>2021-08-13T04:31:40Z</time>
      </trkpt>
      <trkpt lat="46.77752" lon="4.20818">
        <ele>403.41</ele>
        <time>2021-08-13T04:31:47Z</time>
      </trkpt>
      <trkpt lat="46.77751" lon="4.20792">
        <ele>403.41</ele>
        <time>2021-08-13T04:31:53Z</time>
      </trkpt>
      <trkpt lat="46.77761" lon="4.20766">
        <ele>403.89</ele>
        <time>2021-08-13T04:32:01Z</time>
      </trkpt>
      <trkpt lat="46.77765" lon="4.20738">
        <ele>404.85</ele>
        <time>2021-08-13T04:32:09Z</time>
      </trkpt>
      <trkpt lat="46.77755" lon="4.20725">
        <ele>405.33</ele>
        <time>2021-08-13T04:32:15Z</time>
      </trkpt>
      <trkpt lat="46.77742" lon="4.20723">
        <ele>406.29</ele>
        <time>2021-08-13T04:32:21Z</time>
      </trkpt>
      <trkpt lat="46.77737" lon="4.20724">
        <ele>406.77</ele>
        <time>2021-08-13T04:32:24Z</time>
      </trkpt>
      <trkpt lat="46.77735" lon="4.20723">
        <ele>406.77</ele>
        <time>2021-08-13T04:32:25Z</time>
      </trkpt>
      <trkpt lat="46.77734" lon="4.20722">
        <ele>406.77</ele>
        <time>2021-08-13T04:32:26Z</time>
      </trkpt>
      <trkpt lat="46.77733" lon="4.2072">
        <ele>406.77</ele>
        <time>2021-08-13T04:32:27Z</time>
      </trkpt>
      <trkpt lat="46.77731" lon="4.20717">
        <ele>406.77</ele>
        <time>2021-08-13T04:32:28Z</time>
      </trkpt>
      <trkpt lat="46.77721" lon="4.20707">
        <ele>404.37</ele>
        <time>2021-08-13T04:32:31Z</time>
      </trkpt>
      <trkpt lat="46.77717" lon="4.20702">
        <ele>404.37</ele>
        <time>2021-08-13T04:32:32Z</time>
      </trkpt>
      <trkpt lat="46.77713" lon="4.20695">
        <ele>403.41</ele>
        <time>2021-08-13T04:32:33Z</time>
      </trkpt>
      <trkpt lat="46.77709" lon="4.20687">
        <ele>403.41</ele>
        <time>2021-08-13T04:32:34Z</time>
      </trkpt>
      <trkpt lat="46.77705" lon="4.20679">
        <ele>402.93</ele>
        <time>2021-08-13T04:32:35Z</time>
      </trkpt>
      <trkpt lat="46.77702" lon="4.20672">
        <ele>402.93</ele>
        <time>2021-08-13T04:32:36Z</time>
      </trkpt>
      <trkpt lat="46.77691" lon="4.20642">
        <ele>404.37</ele>
        <time>2021-08-13T04:32:41Z</time>
      </trkpt>
      <trkpt lat="46.77682" lon="4.20628">
        <ele>405.33</ele>
        <time>2021-08-13T04:32:47Z</time>
      </trkpt>
      <trkpt lat="46.7767" lon="4.20612">
        <ele>407.26</ele>
        <time>2021-08-13T04:32:55Z</time>
      </trkpt>
      <trkpt lat="46.77655" lon="4.20592">
        <ele>409.18</ele>
        <time>2021-08-13T04:33:04Z</time>
      </trkpt>
      <trkpt lat="46.77644" lon="4.20565">
        <ele>410.62</ele>
        <time>2021-08-13T04:33:13Z</time>
      </trkpt>
      <trkpt lat="46.77639" lon="4.20549">
        <ele>411.1</ele>
        <time>2021-08-13T04:33:19Z</time>
      </trkpt>
      <trkpt lat="46.77634" lon="4.20526">
        <ele>412.06</ele>
        <time>2021-08-13T04:33:27Z</time>
      </trkpt>
      <trkpt lat="46.77629" lon="4.20503">
        <ele>413.02</ele>
        <time>2021-08-13T04:33:35Z</time>
      </trkpt>
      <trkpt lat="46.77622" lon="4.20478">
        <ele>415.43</ele>
        <time>2021-08-13T04:33:46Z</time>
      </trkpt>
      <trkpt lat="46.77612" lon="4.20454">
        <ele>416.87</ele>
        <time>2021-08-13T04:33:57Z</time>
      </trkpt>
      <trkpt lat="46.77603" lon="4.20439">
        <ele>418.31</ele>
        <time>2021-08-13T04:34:05Z</time>
      </trkpt>
      <trkpt lat="46.77596" lon="4.20425">
        <ele>419.27</ele>
        <time>2021-08-13T04:34:12Z</time>
      </trkpt>
      <trkpt lat="46.77586" lon="4.20408">
        <ele>420.23</ele>
        <time>2021-08-13T04:34:20Z</time>
      </trkpt>
      <trkpt lat="46.7757" lon="4.20387">
        <ele>420.23</ele>
        <time>2021-08-13T04:34:28Z</time>
      </trkpt>
      <trkpt lat="46.77559" lon="4.20372">
        <ele>422.16</ele>
        <time>2021-08-13T04:34:36Z</time>
      </trkpt>
      <trkpt lat="46.7755" lon="4.20363">
        <ele>423.12</ele>
        <time>2021-08-13T04:34:41Z</time>
      </trkpt>
      <trkpt lat="46.77548" lon="4.20362">
        <ele>423.6</ele>
        <time>2021-08-13T04:34:42Z</time>
      </trkpt>
      <trkpt lat="46.77547" lon="4.2036">
        <ele>423.6</ele>
        <time>2021-08-13T04:34:43Z</time>
      </trkpt>
      <trkpt lat="46.77535" lon="4.20338">
        <ele>424.08</ele>
        <time>2021-08-13T04:34:52Z</time>
      </trkpt>
      <trkpt lat="46.7752" lon="4.20308">
        <ele>424.56</ele>
        <time>2021-08-13T04:35:02Z</time>
      </trkpt>
      <trkpt lat="46.77513" lon="4.20294">
        <ele>425.52</ele>
        <time>2021-08-13T04:35:07Z</time>
      </trkpt>
      <trkpt lat="46.77513" lon="4.20292">
        <ele>425.52</ele>
        <time>2021-08-13T04:35:08Z</time>
      </trkpt>
      <trkpt lat="46.77512" lon="4.2029">
        <ele>426</ele>
        <time>2021-08-13T04:35:09Z</time>
      </trkpt>
      <trkpt lat="46.77511" lon="4.20287">
        <ele>426</ele>
        <time>2021-08-13T04:35:10Z</time>
      </trkpt>
      <trkpt lat="46.77509" lon="4.20284">
        <ele>426</ele>
        <time>2021-08-13T04:35:11Z</time>
      </trkpt>
      <trkpt lat="46.77507" lon="4.20282">
        <ele>426</ele>
        <time>2021-08-13T04:35:12Z</time>
      </trkpt>
      <trkpt lat="46.77497" lon="4.20263">
        <ele>426.48</ele>
        <time>2021-08-13T04:35:19Z</time>
      </trkpt>
      <trkpt lat="46.77484" lon="4.20244">
        <ele>426.96</ele>
        <time>2021-08-13T04:35:27Z</time>
      </trkpt>
      <trkpt lat="46.77468" lon="4.20221">
        <ele>428.4</ele>
        <time>2021-08-13T04:35:35Z</time>
      </trkpt>
      <trkpt lat="46.77453" lon="4.20195">
        <ele>430.33</ele>
        <time>2021-08-13T04:35:45Z</time>
      </trkpt>
      <trkpt lat="46.77445" lon="4.20184">
        <ele>430.81</ele>
        <time>2021-08-13T04:35:52Z</time>
      </trkpt>
      <trkpt lat="46.77432" lon="4.20176">
        <ele>432.73</ele>
        <time>2021-08-13T04:36:00Z</time>
      </trkpt>
      <trkpt lat="46.77413" lon="4.2017">
        <ele>434.65</ele>
        <time>2021-08-13T04:36:10Z</time>
      </trkpt>
      <trkpt lat="46.77394" lon="4.20157">
        <ele>436.1</ele>
        <time>2021-08-13T04:36:19Z</time>
      </trkpt>
      <trkpt lat="46.77381" lon="4.20139">
        <ele>436.1</ele>
        <time>2021-08-13T04:36:27Z</time>
      </trkpt>
      <trkpt lat="46.77366" lon="4.20111">
        <ele>437.54</ele>
        <time>2021-08-13T04:36:35Z</time>
      </trkpt>
      <trkpt lat="46.77347" lon="4.20075">
        <ele>438.5</ele>
        <time>2021-08-13T04:36:45Z</time>
      </trkpt>
      <trkpt lat="46.7733" lon="4.20031">
        <ele>439.46</ele>
        <time>2021-08-13T04:36:56Z</time>
      </trkpt>
      <trkpt lat="46.7732" lon="4.19989">
        <ele>440.9</ele>
        <time>2021-08-13T04:37:05Z</time>
      </trkpt>
      <trkpt lat="46.77312" lon="4.19953">
        <ele>441.38</ele>
        <time>2021-08-13T04:37:13Z</time>
      </trkpt>
      <trkpt lat="46.77305" lon="4.19907">
        <ele>442.82</ele>
        <time>2021-08-13T04:37:23Z</time>
      </trkpt>
      <trkpt lat="46.77297" lon="4.1987">
        <ele>443.79</ele>
        <time>2021-08-13T04:37:31Z</time>
      </trkpt>
      <trkpt lat="46.77291" lon="4.19821">
        <ele>444.75</ele>
        <time>2021-08-13T04:37:41Z</time>
      </trkpt>
      <trkpt lat="46.77285" lon="4.19776">
        <ele>445.23</ele>
        <time>2021-08-13T04:37:50Z</time>
      </trkpt>
      <trkpt lat="46.77275" lon="4.19722">
        <ele>445.71</ele>
        <time>2021-08-13T04:38:00Z</time>
      </trkpt>
      <trkpt lat="46.77266" lon="4.1967">
        <ele>445.71</ele>
        <time>2021-08-13T04:38:09Z</time>
      </trkpt>
      <trkpt lat="46.77255" lon="4.19614">
        <ele>446.19</ele>
        <time>2021-08-13T04:38:19Z</time>
      </trkpt>
      <trkpt lat="46.77244" lon="4.19565">
        <ele>446.67</ele>
        <time>2021-08-13T04:38:28Z</time>
      </trkpt>
      <trkpt lat="46.77242" lon="4.19552">
        <ele>445.71</ele>
        <time>2021-08-13T04:38:30Z</time>
      </trkpt>
      <trkpt lat="46.77237" lon="4.19517">
        <ele>443.31</ele>
        <time>2021-08-13T04:38:34Z</time>
      </trkpt>
      <trkpt lat="46.77234" lon="4.19496">
        <ele>441.86</ele>
        <time>2021-08-13T04:38:36Z</time>
      </trkpt>
      <trkpt lat="46.77232" lon="4.19487">
        <ele>440.9</ele>
        <time>2021-08-13T04:38:37Z</time>
      </trkpt>
      <trkpt lat="46.77228" lon="4.19479">
        <ele>440.42</ele>
        <time>2021-08-13T04:38:38Z</time>
      </trkpt>
      <trkpt lat="46.77224" lon="4.19471">
        <ele>439.46</ele>
        <time>2021-08-13T04:38:39Z</time>
      </trkpt>
      <trkpt lat="46.77218" lon="4.19465">
        <ele>438.5</ele>
        <time>2021-08-13T04:38:40Z</time>
      </trkpt>
      <trkpt lat="46.7721" lon="4.19461">
        <ele>437.06</ele>
        <time>2021-08-13T04:38:41Z</time>
      </trkpt>
      <trkpt lat="46.77202" lon="4.19458">
        <ele>436.58</ele>
        <time>2021-08-13T04:38:42Z</time>
      </trkpt>
      <trkpt lat="46.77193" lon="4.19456">
        <ele>435.61</ele>
        <time>2021-08-13T04:38:43Z</time>
      </trkpt>
      <trkpt lat="46.7717" lon="4.1945">
        <ele>433.69</ele>
        <time>2021-08-13T04:38:46Z</time>
      </trkpt>
      <trkpt lat="46.77159" lon="4.19449">
        <ele>433.21</ele>
        <time>2021-08-13T04:38:48Z</time>
      </trkpt>
      <trkpt lat="46.77155" lon="4.19447">
        <ele>432.73</ele>
        <time>2021-08-13T04:38:49Z</time>
      </trkpt>
      <trkpt lat="46.77144" lon="4.19445">
        <ele>432.25</ele>
        <time>2021-08-13T04:38:52Z</time>
      </trkpt>
      <trkpt lat="46.77141" lon="4.19447">
        <ele>432.25</ele>
        <time>2021-08-13T04:38:53Z</time>
      </trkpt>
      <trkpt lat="46.77139" lon="4.19449">
        <ele>431.77</ele>
        <time>2021-08-13T04:38:54Z</time>
      </trkpt>
      <trkpt lat="46.77139" lon="4.1945">
        <ele>432.25</ele>
        <time>2021-08-13T04:38:55Z</time>
      </trkpt>
      <trkpt lat="46.77138" lon="4.19452">
        <ele>432.25</ele>
        <time>2021-08-13T04:38:56Z</time>
      </trkpt>
      <trkpt lat="46.77137" lon="4.19453">
        <ele>432.25</ele>
        <time>2021-08-13T04:38:57Z</time>
      </trkpt>
      <trkpt lat="46.77137" lon="4.19455">
        <ele>433.21</ele>
        <time>2021-08-13T04:38:58Z</time>
      </trkpt>
      <trkpt lat="46.77137" lon="4.19456">
        <ele>433.21</ele>
        <time>2021-08-13T04:38:59Z</time>
      </trkpt>
      <trkpt lat="46.77136" lon="4.19458">
        <ele>433.21</ele>
        <time>2021-08-13T04:39:00Z</time>
      </trkpt>
      <trkpt lat="46.77136" lon="4.19459">
        <ele>433.21</ele>
        <time>2021-08-13T04:39:01Z</time>
      </trkpt>
      <trkpt lat="46.77136" lon="4.19461">
        <ele>433.69</ele>
        <time>2021-08-13T04:39:02Z</time>
      </trkpt>
      <trkpt lat="46.77135" lon="4.19462">
        <ele>433.69</ele>
        <time>2021-08-13T04:39:03Z</time>
      </trkpt>
      <trkpt lat="46.77136" lon="4.19468">
        <ele>434.65</ele>
        <time>2021-08-13T04:39:09Z</time>
      </trkpt>
      <trkpt lat="46.77136" lon="4.1948">
        <ele>436.1</ele>
        <time>2021-08-13T04:39:20Z</time>
      </trkpt>
      <trkpt lat="46.77135" lon="4.19489">
        <ele>438.02</ele>
        <time>2021-08-13T04:39:28Z</time>
      </trkpt>
      <trkpt lat="46.77135" lon="4.19502">
        <ele>439.46</ele>
        <time>2021-08-13T04:39:38Z</time>
      </trkpt>
      <trkpt lat="46.77134" lon="4.19511">
        <ele>440.9</ele>
        <time>2021-08-13T04:39:46Z</time>
      </trkpt>
      <trkpt lat="46.77133" lon="4.19519">
        <ele>441.38</ele>
        <time>2021-08-13T04:39:52Z</time>
      </trkpt>
      <trkpt lat="46.77133" lon="4.19534">
        <ele>443.31</ele>
        <time>2021-08-13T04:40:01Z</time>
      </trkpt>
      <trkpt lat="46.7713" lon="4.19543">
        <ele>443.31</ele>
        <time>2021-08-13T04:40:09Z</time>
      </trkpt>
      <trkpt lat="46.77129" lon="4.19543">
        <ele>443.79</ele>
        <time>2021-08-13T04:40:15Z</time>
      </trkpt>
      <trkpt lat="46.77128" lon="4.19546">
        <ele>443.79</ele>
        <time>2021-08-13T04:40:17Z</time>
      </trkpt>
      <trkpt lat="46.7712" lon="4.19556">
        <ele>445.23</ele>
        <time>2021-08-13T04:40:25Z</time>
      </trkpt>
      <trkpt lat="46.77112" lon="4.19568">
        <ele>446.67</ele>
        <time>2021-08-13T04:40:34Z</time>
      </trkpt>
      <trkpt lat="46.77104" lon="4.19582">
        <ele>447.63</ele>
        <time>2021-08-13T04:40:44Z</time>
      </trkpt>
      <trkpt lat="46.77093" lon="4.1959">
        <ele>449.07</ele>
        <time>2021-08-13T04:40:51Z</time>
      </trkpt>
      <trkpt lat="46.77092" lon="4.19589">
        <ele>449.55</ele>
        <time>2021-08-13T04:40:52Z</time>
      </trkpt>
      <trkpt lat="46.77091" lon="4.19588">
        <ele>449.55</ele>
        <time>2021-08-13T04:40:53Z</time>
      </trkpt>
      <trkpt lat="46.77089" lon="4.19587">
        <ele>449.55</ele>
        <time>2021-08-13T04:40:54Z</time>
      </trkpt>
      <trkpt lat="46.77077" lon="4.19577">
        <ele>451</ele>
        <time>2021-08-13T04:41:03Z</time>
      </trkpt>
      <trkpt lat="46.77063" lon="4.19566">
        <ele>451.96</ele>
        <time>2021-08-13T04:41:13Z</time>
      </trkpt>
      <trkpt lat="46.77049" lon="4.19562">
        <ele>452.92</ele>
        <time>2021-08-13T04:41:22Z</time>
      </trkpt>
      <trkpt lat="46.77035" lon="4.1956">
        <ele>454.36</ele>
        <time>2021-08-13T04:41:31Z</time>
      </trkpt>
      <trkpt lat="46.77022" lon="4.19557">
        <ele>454.36</ele>
        <time>2021-08-13T04:41:37Z</time>
      </trkpt>
      <trkpt lat="46.77001" lon="4.19555">
        <ele>455.8</ele>
        <time>2021-08-13T04:41:46Z</time>
      </trkpt>
      <trkpt lat="46.76971" lon="4.19544">
        <ele>456.28</ele>
        <time>2021-08-13T04:41:58Z</time>
      </trkpt>
      <trkpt lat="46.76943" lon="4.19523">
        <ele>457.24</ele>
        <time>2021-08-13T04:42:10Z</time>
      </trkpt>
      <trkpt lat="46.76921" lon="4.19498">
        <ele>458.21</ele>
        <time>2021-08-13T04:42:21Z</time>
      </trkpt>
      <trkpt lat="46.76904" lon="4.19467">
        <ele>459.65</ele>
        <time>2021-08-13T04:42:32Z</time>
      </trkpt>
      <trkpt lat="46.76895" lon="4.19446">
        <ele>460.61</ele>
        <time>2021-08-13T04:42:40Z</time>
      </trkpt>
      <trkpt lat="46.76886" lon="4.19425">
        <ele>462.05</ele>
        <time>2021-08-13T04:42:49Z</time>
      </trkpt>
      <trkpt lat="46.76877" lon="4.19412">
        <ele>463.49</ele>
        <time>2021-08-13T04:42:58Z</time>
      </trkpt>
      <trkpt lat="46.76869" lon="4.19395">
        <ele>463.97</ele>
        <time>2021-08-13T04:43:08Z</time>
      </trkpt>
      <trkpt lat="46.76868" lon="4.19393">
        <ele>463.97</ele>
        <time>2021-08-13T04:43:09Z</time>
      </trkpt>
      <trkpt lat="46.76867" lon="4.19391">
        <ele>464.93</ele>
        <time>2021-08-13T04:43:10Z</time>
      </trkpt>
      <trkpt lat="46.76866" lon="4.1939">
        <ele>464.93</ele>
        <time>2021-08-13T04:43:11Z</time>
      </trkpt>
      <trkpt lat="46.76866" lon="4.19388">
        <ele>464.93</ele>
        <time>2021-08-13T04:43:12Z</time>
      </trkpt>
      <trkpt lat="46.76865" lon="4.19387">
        <ele>464.93</ele>
        <time>2021-08-13T04:43:13Z</time>
      </trkpt>
      <trkpt lat="46.76864" lon="4.19386">
        <ele>465.42</ele>
        <time>2021-08-13T04:43:20Z</time>
      </trkpt>
      <trkpt lat="46.76861" lon="4.19382">
        <ele>465.42</ele>
        <time>2021-08-13T04:43:27Z</time>
      </trkpt>
      <trkpt lat="46.76852" lon="4.19367">
        <ele>467.34</ele>
        <time>2021-08-13T04:43:36Z</time>
      </trkpt>
      <trkpt lat="46.76842" lon="4.1935">
        <ele>468.78</ele>
        <time>2021-08-13T04:43:46Z</time>
      </trkpt>
      <trkpt lat="46.76834" lon="4.19336">
        <ele>469.74</ele>
        <time>2021-08-13T04:43:54Z</time>
      </trkpt>
      <trkpt lat="46.76822" lon="4.19316">
        <ele>471.18</ele>
        <time>2021-08-13T04:44:03Z</time>
      </trkpt>
      <trkpt lat="46.76806" lon="4.19281">
        <ele>472.14</ele>
        <time>2021-08-13T04:44:15Z</time>
      </trkpt>
      <trkpt lat="46.76789" lon="4.19243">
        <ele>472.63</ele>
        <time>2021-08-13T04:44:27Z</time>
      </trkpt>
      <trkpt lat="46.76772" lon="4.19218">
        <ele>473.59</ele>
        <time>2021-08-13T04:44:36Z</time>
      </trkpt>
      <trkpt lat="46.76754" lon="4.19202">
        <ele>474.07</ele>
        <time>2021-08-13T04:44:44Z</time>
      </trkpt>
      <trkpt lat="46.7674" lon="4.19194">
        <ele>475.51</ele>
        <time>2021-08-13T04:44:52Z</time>
      </trkpt>
      <trkpt lat="46.76738" lon="4.19193">
        <ele>475.51</ele>
        <time>2021-08-13T04:44:53Z</time>
      </trkpt>
      <trkpt lat="46.76723" lon="4.19187">
        <ele>476.95</ele>
        <time>2021-08-13T04:45:01Z</time>
      </trkpt>
      <trkpt lat="46.76716" lon="4.19184">
        <ele>477.43</ele>
        <time>2021-08-13T04:45:08Z</time>
      </trkpt>
      <trkpt lat="46.76713" lon="4.19179">
        <ele>477.91</ele>
        <time>2021-08-13T04:45:24Z</time>
      </trkpt>
      <trkpt lat="46.76713" lon="4.1918">
        <ele>477.91</ele>
        <time>2021-08-13T04:45:41Z</time>
      </trkpt>
      <trkpt lat="46.76713" lon="4.1918">
        <ele>477.91</ele>
        <time>2021-08-13T04:46:03Z</time>
      </trkpt>
      <trkpt lat="46.76712" lon="4.19179">
        <ele>477.43</ele>
        <time>2021-08-13T04:46:24Z</time>
      </trkpt>
      <trkpt lat="46.76711" lon="4.19178">
        <ele>477.43</ele>
        <time>2021-08-13T04:46:44Z</time>
      </trkpt>
      <trkpt lat="46.76711" lon="4.19177">
        <ele>477.43</ele>
        <time>2021-08-13T04:46:59Z</time>
      </trkpt>
      <trkpt lat="46.76711" lon="4.19178">
        <ele>477.43</ele>
        <time>2021-08-13T04:47:15Z</time>
      </trkpt>
      <trkpt lat="46.76713" lon="4.1918">
        <ele>477.91</ele>
        <time>2021-08-13T04:47:32Z</time>
      </trkpt>
      <trkpt lat="46.76713" lon="4.19181">
        <ele>477.91</ele>
        <time>2021-08-13T04:47:42Z</time>
      </trkpt>
      <trkpt lat="46.76711" lon="4.19181">
        <ele>477.91</ele>
        <time>2021-08-13T04:47:44Z</time>
      </trkpt>
      <trkpt lat="46.76697" lon="4.1917">
        <ele>477.91</ele>
        <time>2021-08-13T04:47:53Z</time>
      </trkpt>
      <trkpt lat="46.76676" lon="4.19154">
        <ele>478.39</ele>
        <time>2021-08-13T04:48:01Z</time>
      </trkpt>
      <trkpt lat="46.76647" lon="4.19127">
        <ele>478.39</ele>
        <time>2021-08-13T04:48:11Z</time>
      </trkpt>
      <trkpt lat="46.76622" lon="4.19101">
        <ele>476.95</ele>
        <time>2021-08-13T04:48:19Z</time>
      </trkpt>
      <trkpt lat="46.76588" lon="4.19066">
        <ele>476.47</ele>
        <time>2021-08-13T04:48:29Z</time>
      </trkpt>
      <trkpt lat="46.76566" lon="4.19051">
        <ele>477.91</ele>
        <time>2021-08-13T04:48:37Z</time>
      </trkpt>
      <trkpt lat="46.76553" lon="4.19031">
        <ele>478.87</ele>
        <time>2021-08-13T04:48:44Z</time>
      </trkpt>
      <trkpt lat="46.7654" lon="4.18999">
        <ele>479.84</ele>
        <time>2021-08-13T04:48:53Z</time>
      </trkpt>
      <trkpt lat="46.76529" lon="4.18967">
        <ele>481.28</ele>
        <time>2021-08-13T04:49:02Z</time>
      </trkpt>
      <trkpt lat="46.76521" lon="4.18942">
        <ele>482.72</ele>
        <time>2021-08-13T04:49:11Z</time>
      </trkpt>
      <trkpt lat="46.76511" lon="4.18926">
        <ele>484.64</ele>
        <time>2021-08-13T04:49:19Z</time>
      </trkpt>
      <trkpt lat="46.765" lon="4.18909">
        <ele>486.08</ele>
        <time>2021-08-13T04:49:27Z</time>
      </trkpt>
      <trkpt lat="46.76486" lon="4.1889">
        <ele>488.01</ele>
        <time>2021-08-13T04:49:36Z</time>
      </trkpt>
      <trkpt lat="46.76471" lon="4.18866">
        <ele>487.53</ele>
        <time>2021-08-13T04:49:43Z</time>
      </trkpt>
      <trkpt lat="46.76446" lon="4.18821">
        <ele>487.53</ele>
        <time>2021-08-13T04:49:53Z</time>
      </trkpt>
      <trkpt lat="46.76443" lon="4.18815">
        <ele>487.53</ele>
        <time>2021-08-13T04:49:54Z</time>
      </trkpt>
      <trkpt lat="46.76441" lon="4.1881">
        <ele>487.53</ele>
        <time>2021-08-13T04:49:55Z</time>
      </trkpt>
      <trkpt lat="46.76434" lon="4.18789">
        <ele>487.53</ele>
        <time>2021-08-13T04:49:59Z</time>
      </trkpt>
      <trkpt lat="46.76431" lon="4.18747">
        <ele>487.53</ele>
        <time>2021-08-13T04:50:07Z</time>
      </trkpt>
      <trkpt lat="46.76432" lon="4.18712">
        <ele>489.45</ele>
        <time>2021-08-13T04:50:16Z</time>
      </trkpt>
      <trkpt lat="46.76436" lon="4.18693">
        <ele>490.41</ele>
        <time>2021-08-13T04:50:23Z</time>
      </trkpt>
      <trkpt lat="46.76442" lon="4.1867">
        <ele>491.85</ele>
        <time>2021-08-13T04:50:32Z</time>
      </trkpt>
      <trkpt lat="46.76447" lon="4.18645">
        <ele>494.26</ele>
        <time>2021-08-13T04:50:42Z</time>
      </trkpt>
      <trkpt lat="46.76446" lon="4.18627">
        <ele>495.7</ele>
        <time>2021-08-13T04:50:50Z</time>
      </trkpt>
      <trkpt lat="46.76443" lon="4.18612">
        <ele>497.62</ele>
        <time>2021-08-13T04:50:58Z</time>
      </trkpt>
      <trkpt lat="46.76438" lon="4.18593">
        <ele>499.54</ele>
        <time>2021-08-13T04:51:07Z</time>
      </trkpt>
      <trkpt lat="46.76433" lon="4.18578">
        <ele>500.98</ele>
        <time>2021-08-13T04:51:16Z</time>
      </trkpt>
      <trkpt lat="46.76426" lon="4.18565">
        <ele>502.43</ele>
        <time>2021-08-13T04:51:25Z</time>
      </trkpt>
      <trkpt lat="46.76425" lon="4.18563">
        <ele>502.43</ele>
        <time>2021-08-13T04:51:26Z</time>
      </trkpt>
      <trkpt lat="46.76416" lon="4.18554">
        <ele>503.87</ele>
        <time>2021-08-13T04:51:35Z</time>
      </trkpt>
      <trkpt lat="46.76409" lon="4.18546">
        <ele>505.31</ele>
        <time>2021-08-13T04:51:42Z</time>
      </trkpt>
      <trkpt lat="46.76408" lon="4.18544">
        <ele>505.31</ele>
        <time>2021-08-13T04:51:43Z</time>
      </trkpt>
      <trkpt lat="46.76407" lon="4.18543">
        <ele>505.31</ele>
        <time>2021-08-13T04:51:44Z</time>
      </trkpt>
      <trkpt lat="46.76406" lon="4.18543">
        <ele>505.79</ele>
        <time>2021-08-13T04:51:45Z</time>
      </trkpt>
      <trkpt lat="46.76404" lon="4.18543">
        <ele>505.79</ele>
        <time>2021-08-13T04:51:46Z</time>
      </trkpt>
      <trkpt lat="46.76403" lon="4.18543">
        <ele>505.79</ele>
        <time>2021-08-13T04:51:47Z</time>
      </trkpt>
      <trkpt lat="46.76402" lon="4.18543">
        <ele>505.79</ele>
        <time>2021-08-13T04:51:48Z</time>
      </trkpt>
      <trkpt lat="46.764" lon="4.18542">
        <ele>506.27</ele>
        <time>2021-08-13T04:51:49Z</time>
      </trkpt>
      <trkpt lat="46.76399" lon="4.1854">
        <ele>506.27</ele>
        <time>2021-08-13T04:51:50Z</time>
      </trkpt>
      <trkpt lat="46.76386" lon="4.18528">
        <ele>507.71</ele>
        <time>2021-08-13T04:51:59Z</time>
      </trkpt>
      <trkpt lat="46.7637" lon="4.18514">
        <ele>509.64</ele>
        <time>2021-08-13T04:52:11Z</time>
      </trkpt>
      <trkpt lat="46.7636" lon="4.185">
        <ele>511.56</ele>
        <time>2021-08-13T04:52:20Z</time>
      </trkpt>
      <trkpt lat="46.76348" lon="4.18484">
        <ele>513.48</ele>
        <time>2021-08-13T04:52:30Z</time>
      </trkpt>
      <trkpt lat="46.76338" lon="4.18464">
        <ele>515.4</ele>
        <time>2021-08-13T04:52:41Z</time>
      </trkpt>
      <trkpt lat="46.76337" lon="4.18462">
        <ele>515.88</ele>
        <time>2021-08-13T04:52:42Z</time>
      </trkpt>
      <trkpt lat="46.76336" lon="4.1846">
        <ele>515.88</ele>
        <time>2021-08-13T04:52:43Z</time>
      </trkpt>
      <trkpt lat="46.76335" lon="4.18458">
        <ele>515.88</ele>
        <time>2021-08-13T04:52:44Z</time>
      </trkpt>
      <trkpt lat="46.76335" lon="4.18456">
        <ele>515.88</ele>
        <time>2021-08-13T04:52:45Z</time>
      </trkpt>
      <trkpt lat="46.76334" lon="4.18454">
        <ele>516.37</ele>
        <time>2021-08-13T04:52:46Z</time>
      </trkpt>
      <trkpt lat="46.76329" lon="4.18432">
        <ele>516.85</ele>
        <time>2021-08-13T04:52:54Z</time>
      </trkpt>
      <trkpt lat="46.76326" lon="4.18403">
        <ele>517.81</ele>
        <time>2021-08-13T04:53:03Z</time>
      </trkpt>
      <trkpt lat="46.76322" lon="4.18372">
        <ele>518.77</ele>
        <time>2021-08-13T04:53:13Z</time>
      </trkpt>
      <trkpt lat="46.7632" lon="4.18347">
        <ele>520.21</ele>
        <time>2021-08-13T04:53:21Z</time>
      </trkpt>
      <trkpt lat="46.76324" lon="4.18319">
        <ele>521.65</ele>
        <time>2021-08-13T04:53:30Z</time>
      </trkpt>
      <trkpt lat="46.7633" lon="4.18294">
        <ele>523.09</ele>
        <time>2021-08-13T04:53:39Z</time>
      </trkpt>
      <trkpt lat="46.7634" lon="4.18269">
        <ele>525.02</ele>
        <time>2021-08-13T04:53:48Z</time>
      </trkpt>
      <trkpt lat="46.76354" lon="4.18242">
        <ele>525.02</ele>
        <time>2021-08-13T04:53:57Z</time>
      </trkpt>
      <trkpt lat="46.76372" lon="4.18215">
        <ele>525.98</ele>
        <time>2021-08-13T04:54:06Z</time>
      </trkpt>
      <trkpt lat="46.76373" lon="4.18199">
        <ele>525.98</ele>
        <time>2021-08-13T04:54:10Z</time>
      </trkpt>
      <trkpt lat="46.76372" lon="4.182">
        <ele>525.98</ele>
        <time>2021-08-13T04:54:11Z</time>
      </trkpt>
      <trkpt lat="46.7637" lon="4.18201">
        <ele>525.98</ele>
        <time>2021-08-13T04:54:12Z</time>
      </trkpt>
      <trkpt lat="46.76369" lon="4.18202">
        <ele>525.98</ele>
        <time>2021-08-13T04:54:13Z</time>
      </trkpt>
      <trkpt lat="46.76367" lon="4.18203">
        <ele>525.98</ele>
        <time>2021-08-13T04:54:14Z</time>
      </trkpt>
      <trkpt lat="46.76365" lon="4.18204">
        <ele>525.98</ele>
        <time>2021-08-13T04:54:15Z</time>
      </trkpt>
      <trkpt lat="46.76361" lon="4.18207">
        <ele>525.98</ele>
        <time>2021-08-13T04:54:21Z</time>
      </trkpt>
      <trkpt lat="46.76361" lon="4.18208">
        <ele>525.98</ele>
        <time>2021-08-13T04:54:34Z</time>
      </trkpt>
      <trkpt lat="46.7636" lon="4.1821">
        <ele>525.98</ele>
        <time>2021-08-13T04:54:41Z</time>
      </trkpt>
      <trkpt lat="46.76361" lon="4.18209">
        <ele>525.98</ele>
        <time>2021-08-13T04:54:45Z</time>
      </trkpt>
      <trkpt lat="46.76362" lon="4.18207">
        <ele>525.98</ele>
        <time>2021-08-13T04:54:47Z</time>
      </trkpt>
      <trkpt lat="46.76362" lon="4.18204">
        <ele>525.98</ele>
        <time>2021-08-13T04:54:48Z</time>
      </trkpt>
      <trkpt lat="46.76362" lon="4.18201">
        <ele>525.98</ele>
        <time>2021-08-13T04:54:50Z</time>
      </trkpt>
      <trkpt lat="46.76362" lon="4.18199">
        <ele>525.98</ele>
        <time>2021-08-13T04:54:51Z</time>
      </trkpt>
      <trkpt lat="46.76362" lon="4.18197">
        <ele>525.98</ele>
        <time>2021-08-13T04:54:52Z</time>
      </trkpt>
      <trkpt lat="46.76361" lon="4.18194">
        <ele>525.98</ele>
        <time>2021-08-13T04:54:53Z</time>
      </trkpt>
      <trkpt lat="46.7636" lon="4.1819">
        <ele>525.98</ele>
        <time>2021-08-13T04:54:54Z</time>
      </trkpt>
      <trkpt lat="46.7636" lon="4.18185">
        <ele>525.98</ele>
        <time>2021-08-13T04:54:55Z</time>
      </trkpt>
      <trkpt lat="46.76354" lon="4.18159">
        <ele>524.54</ele>
        <time>2021-08-13T04:55:00Z</time>
      </trkpt>
      <trkpt lat="46.76352" lon="4.18154">
        <ele>524.54</ele>
        <time>2021-08-13T04:55:01Z</time>
      </trkpt>
      <trkpt lat="46.76347" lon="4.18144">
        <ele>523.58</ele>
        <time>2021-08-13T04:55:03Z</time>
      </trkpt>
      <trkpt lat="46.76344" lon="4.18138">
        <ele>523.58</ele>
        <time>2021-08-13T04:55:04Z</time>
      </trkpt>
      <trkpt lat="46.76342" lon="4.18133">
        <ele>523.58</ele>
        <time>2021-08-13T04:55:05Z</time>
      </trkpt>
      <trkpt lat="46.7634" lon="4.18128">
        <ele>523.58</ele>
        <time>2021-08-13T04:55:06Z</time>
      </trkpt>
      <trkpt lat="46.76339" lon="4.18123">
        <ele>523.58</ele>
        <time>2021-08-13T04:55:07Z</time>
      </trkpt>
      <trkpt lat="46.76338" lon="4.18117">
        <ele>523.58</ele>
        <time>2021-08-13T04:55:08Z</time>
      </trkpt>
      <trkpt lat="46.76334" lon="4.18091">
        <ele>523.09</ele>
        <time>2021-08-13T04:55:12Z</time>
      </trkpt>
      <trkpt lat="46.76334" lon="4.18083">
        <ele>523.58</ele>
        <time>2021-08-13T04:55:13Z</time>
      </trkpt>
      <trkpt lat="46.76334" lon="4.18076">
        <ele>522.61</ele>
        <time>2021-08-13T04:55:14Z</time>
      </trkpt>
      <trkpt lat="46.76336" lon="4.18042">
        <ele>521.65</ele>
        <time>2021-08-13T04:55:18Z</time>
      </trkpt>
      <trkpt lat="46.76338" lon="4.17973">
        <ele>520.69</ele>
        <time>2021-08-13T04:55:26Z</time>
      </trkpt>
      <trkpt lat="46.76339" lon="4.17965">
        <ele>520.69</ele>
        <time>2021-08-13T04:55:27Z</time>
      </trkpt>
      <trkpt lat="46.76342" lon="4.17958">
        <ele>520.21</ele>
        <time>2021-08-13T04:55:28Z</time>
      </trkpt>
      <trkpt lat="46.76345" lon="4.17952">
        <ele>520.21</ele>
        <time>2021-08-13T04:55:29Z</time>
      </trkpt>
      <trkpt lat="46.76349" lon="4.17947">
        <ele>520.21</ele>
        <time>2021-08-13T04:55:30Z</time>
      </trkpt>
      <trkpt lat="46.76354" lon="4.17943">
        <ele>520.21</ele>
        <time>2021-08-13T04:55:31Z</time>
      </trkpt>
      <trkpt lat="46.76358" lon="4.1794">
        <ele>520.21</ele>
        <time>2021-08-13T04:55:32Z</time>
      </trkpt>
      <trkpt lat="46.76363" lon="4.17938">
        <ele>520.21</ele>
        <time>2021-08-13T04:55:33Z</time>
      </trkpt>
      <trkpt lat="46.76396" lon="4.17922">
        <ele>517.81</ele>
        <time>2021-08-13T04:55:39Z</time>
      </trkpt>
      <trkpt lat="46.76401" lon="4.17916">
        <ele>517.81</ele>
        <time>2021-08-13T04:55:40Z</time>
      </trkpt>
      <trkpt lat="46.76405" lon="4.17907">
        <ele>516.85</ele>
        <time>2021-08-13T04:55:41Z</time>
      </trkpt>
      <trkpt lat="46.76409" lon="4.17898">
        <ele>515.88</ele>
        <time>2021-08-13T04:55:42Z</time>
      </trkpt>
      <trkpt lat="46.76412" lon="4.17888">
        <ele>514.92</ele>
        <time>2021-08-13T04:55:43Z</time>
      </trkpt>
      <trkpt lat="46.76414" lon="4.17878">
        <ele>513.96</ele>
        <time>2021-08-13T04:55:44Z</time>
      </trkpt>
      <trkpt lat="46.76415" lon="4.17868">
        <ele>513</ele>
        <time>2021-08-13T04:55:45Z</time>
      </trkpt>
      <trkpt lat="46.76415" lon="4.17859">
        <ele>511.56</ele>
        <time>2021-08-13T04:55:46Z</time>
      </trkpt>
      <trkpt lat="46.76412" lon="4.17852">
        <ele>511.08</ele>
        <time>2021-08-13T04:55:47Z</time>
      </trkpt>
      <trkpt lat="46.76409" lon="4.17847">
        <ele>510.6</ele>
        <time>2021-08-13T04:55:48Z</time>
      </trkpt>
      <trkpt lat="46.76405" lon="4.17842">
        <ele>510.12</ele>
        <time>2021-08-13T04:55:49Z</time>
      </trkpt>
      <trkpt lat="46.76401" lon="4.17838">
        <ele>508.67</ele>
        <time>2021-08-13T04:55:50Z</time>
      </trkpt>
      <trkpt lat="46.7638" lon="4.1782">
        <ele>505.31</ele>
        <time>2021-08-13T04:55:54Z</time>
      </trkpt>
      <trkpt lat="46.76366" lon="4.17807">
        <ele>503.39</ele>
        <time>2021-08-13T04:55:56Z</time>
      </trkpt>
      <trkpt lat="46.76359" lon="4.17798">
        <ele>501.95</ele>
        <time>2021-08-13T04:55:57Z</time>
      </trkpt>
      <trkpt lat="46.76353" lon="4.17787">
        <ele>500.02</ele>
        <time>2021-08-13T04:55:58Z</time>
      </trkpt>
      <trkpt lat="46.76349" lon="4.17776">
        <ele>497.62</ele>
        <time>2021-08-13T04:55:59Z</time>
      </trkpt>
      <trkpt lat="46.76345" lon="4.17763">
        <ele>495.7</ele>
        <time>2021-08-13T04:56:00Z</time>
      </trkpt>
      <trkpt lat="46.76341" lon="4.17751">
        <ele>494.26</ele>
        <time>2021-08-13T04:56:01Z</time>
      </trkpt>
      <trkpt lat="46.76335" lon="4.17724">
        <ele>491.37</ele>
        <time>2021-08-13T04:56:03Z</time>
      </trkpt>
      <trkpt lat="46.76329" lon="4.17712">
        <ele>490.41</ele>
        <time>2021-08-13T04:56:04Z</time>
      </trkpt>
      <trkpt lat="46.76322" lon="4.17702">
        <ele>489.45</ele>
        <time>2021-08-13T04:56:05Z</time>
      </trkpt>
      <trkpt lat="46.76314" lon="4.17694">
        <ele>488.97</ele>
        <time>2021-08-13T04:56:06Z</time>
      </trkpt>
      <trkpt lat="46.76305" lon="4.17686">
        <ele>488.49</ele>
        <time>2021-08-13T04:56:07Z</time>
      </trkpt>
      <trkpt lat="46.76287" lon="4.17671">
        <ele>488.49</ele>
        <time>2021-08-13T04:56:09Z</time>
      </trkpt>
      <trkpt lat="46.76279" lon="4.17668">
        <ele>488.49</ele>
        <time>2021-08-13T04:56:10Z</time>
      </trkpt>
      <trkpt lat="46.76269" lon="4.17666">
        <ele>487.05</ele>
        <time>2021-08-13T04:56:11Z</time>
      </trkpt>
      <trkpt lat="46.76259" lon="4.17667">
        <ele>486.08</ele>
        <time>2021-08-13T04:56:12Z</time>
      </trkpt>
      <trkpt lat="46.7625" lon="4.1767">
        <ele>485.6</ele>
        <time>2021-08-13T04:56:13Z</time>
      </trkpt>
      <trkpt lat="46.76242" lon="4.17672">
        <ele>485.6</ele>
        <time>2021-08-13T04:56:14Z</time>
      </trkpt>
      <trkpt lat="46.76227" lon="4.17676">
        <ele>484.64</ele>
        <time>2021-08-13T04:56:16Z</time>
      </trkpt>
      <trkpt lat="46.76218" lon="4.1768">
        <ele>482.72</ele>
        <time>2021-08-13T04:56:17Z</time>
      </trkpt>
      <trkpt lat="46.76209" lon="4.17686">
        <ele>480.8</ele>
        <time>2021-08-13T04:56:18Z</time>
      </trkpt>
      <trkpt lat="46.76189" lon="4.177">
        <ele>476.47</ele>
        <time>2021-08-13T04:56:20Z</time>
      </trkpt>
      <trkpt lat="46.76169" lon="4.17715">
        <ele>472.14</ele>
        <time>2021-08-13T04:56:22Z</time>
      </trkpt>
      <trkpt lat="46.76149" lon="4.17728">
        <ele>469.26</ele>
        <time>2021-08-13T04:56:24Z</time>
      </trkpt>
      <trkpt lat="46.76132" lon="4.17738">
        <ele>466.38</ele>
        <time>2021-08-13T04:56:26Z</time>
      </trkpt>
      <trkpt lat="46.76122" lon="4.17738">
        <ele>463.97</ele>
        <time>2021-08-13T04:56:27Z</time>
      </trkpt>
      <trkpt lat="46.76112" lon="4.17734">
        <ele>461.57</ele>
        <time>2021-08-13T04:56:28Z</time>
      </trkpt>
      <trkpt lat="46.76088" lon="4.17723">
        <ele>456.76</ele>
        <time>2021-08-13T04:56:30Z</time>
      </trkpt>
      <trkpt lat="46.7605" lon="4.17706">
        <ele>454.36</ele>
        <time>2021-08-13T04:56:34Z</time>
      </trkpt>
      <trkpt lat="46.76045" lon="4.17701">
        <ele>454.36</ele>
        <time>2021-08-13T04:56:35Z</time>
      </trkpt>
      <trkpt lat="46.76042" lon="4.17695">
        <ele>453.88</ele>
        <time>2021-08-13T04:56:36Z</time>
      </trkpt>
      <trkpt lat="46.7604" lon="4.17687">
        <ele>453.88</ele>
        <time>2021-08-13T04:56:37Z</time>
      </trkpt>
      <trkpt lat="46.7604" lon="4.17679">
        <ele>453.88</ele>
        <time>2021-08-13T04:56:38Z</time>
      </trkpt>
      <trkpt lat="46.7604" lon="4.17671">
        <ele>453.4</ele>
        <time>2021-08-13T04:56:39Z</time>
      </trkpt>
      <trkpt lat="46.76038" lon="4.17636">
        <ele>453.4</ele>
        <time>2021-08-13T04:56:43Z</time>
      </trkpt>
      <trkpt lat="46.76036" lon="4.17627">
        <ele>452.44</ele>
        <time>2021-08-13T04:56:44Z</time>
      </trkpt>
      <trkpt lat="46.76032" lon="4.1761">
        <ele>451.48</ele>
        <time>2021-08-13T04:56:46Z</time>
      </trkpt>
      <trkpt lat="46.76028" lon="4.17602">
        <ele>450.03</ele>
        <time>2021-08-13T04:56:47Z</time>
      </trkpt>
      <trkpt lat="46.76022" lon="4.17595">
        <ele>449.07</ele>
        <time>2021-08-13T04:56:48Z</time>
      </trkpt>
      <trkpt lat="46.76016" lon="4.17591">
        <ele>448.59</ele>
        <time>2021-08-13T04:56:49Z</time>
      </trkpt>
      <trkpt lat="46.76008" lon="4.1759">
        <ele>447.63</ele>
        <time>2021-08-13T04:56:50Z</time>
      </trkpt>
      <trkpt lat="46.76001" lon="4.1759">
        <ele>447.63</ele>
        <time>2021-08-13T04:56:51Z</time>
      </trkpt>
      <trkpt lat="46.75994" lon="4.17591">
        <ele>448.11</ele>
        <time>2021-08-13T04:56:52Z</time>
      </trkpt>
      <trkpt lat="46.75971" lon="4.17592">
        <ele>450.52</ele>
        <time>2021-08-13T04:56:57Z</time>
      </trkpt>
      <trkpt lat="46.75953" lon="4.1758">
        <ele>451</ele>
        <time>2021-08-13T04:57:04Z</time>
      </trkpt>
      <trkpt lat="46.75933" lon="4.17566">
        <ele>448.59</ele>
        <time>2021-08-13T04:57:10Z</time>
      </trkpt>
      <trkpt lat="46.75929" lon="4.17566">
        <ele>448.59</ele>
        <time>2021-08-13T04:57:11Z</time>
      </trkpt>
      <trkpt lat="46.75925" lon="4.17567">
        <ele>448.59</ele>
        <time>2021-08-13T04:57:12Z</time>
      </trkpt>
      <trkpt lat="46.75911" lon="4.17574">
        <ele>447.63</ele>
        <time>2021-08-13T04:57:15Z</time>
      </trkpt>
      <trkpt lat="46.75875" lon="4.17594">
        <ele>445.23</ele>
        <time>2021-08-13T04:57:22Z</time>
      </trkpt>
      <trkpt lat="46.75861" lon="4.17598">
        <ele>444.27</ele>
        <time>2021-08-13T04:57:24Z</time>
      </trkpt>
      <trkpt lat="46.75842" lon="4.17599">
        <ele>440.9</ele>
        <time>2021-08-13T04:57:27Z</time>
      </trkpt>
      <trkpt lat="46.75818" lon="4.17598">
        <ele>437.54</ele>
        <time>2021-08-13T04:57:31Z</time>
      </trkpt>
      <trkpt lat="46.75788" lon="4.17602">
        <ele>433.21</ele>
        <time>2021-08-13T04:57:35Z</time>
      </trkpt>
      <trkpt lat="46.75766" lon="4.17612">
        <ele>431.77</ele>
        <time>2021-08-13T04:57:38Z</time>
      </trkpt>
      <trkpt lat="46.75716" lon="4.17639">
        <ele>428.89</ele>
        <time>2021-08-13T04:57:45Z</time>
      </trkpt>
      <trkpt lat="46.75693" lon="4.17646">
        <ele>428.4</ele>
        <time>2021-08-13T04:57:49Z</time>
      </trkpt>
      <trkpt lat="46.75669" lon="4.17648">
        <ele>426.48</ele>
        <time>2021-08-13T04:57:53Z</time>
      </trkpt>
      <trkpt lat="46.75665" lon="4.17647">
        <ele>426.96</ele>
        <time>2021-08-13T04:57:54Z</time>
      </trkpt>
      <trkpt lat="46.75661" lon="4.17642">
        <ele>426.96</ele>
        <time>2021-08-13T04:57:55Z</time>
      </trkpt>
      <trkpt lat="46.75659" lon="4.17635">
        <ele>426.96</ele>
        <time>2021-08-13T04:57:56Z</time>
      </trkpt>
      <trkpt lat="46.75659" lon="4.17628">
        <ele>426.96</ele>
        <time>2021-08-13T04:57:57Z</time>
      </trkpt>
      <trkpt lat="46.75658" lon="4.17601">
        <ele>426</ele>
        <time>2021-08-13T04:58:01Z</time>
      </trkpt>
      <trkpt lat="46.75661" lon="4.17541">
        <ele>425.52</ele>
        <time>2021-08-13T04:58:09Z</time>
      </trkpt>
      <trkpt lat="46.75664" lon="4.17517">
        <ele>424.56</ele>
        <time>2021-08-13T04:58:12Z</time>
      </trkpt>
      <trkpt lat="46.7567" lon="4.17488">
        <ele>423.12</ele>
        <time>2021-08-13T04:58:16Z</time>
      </trkpt>
      <trkpt lat="46.75674" lon="4.17476">
        <ele>422.64</ele>
        <time>2021-08-13T04:58:18Z</time>
      </trkpt>
      <trkpt lat="46.75695" lon="4.17432">
        <ele>421.68</ele>
        <time>2021-08-13T04:58:26Z</time>
      </trkpt>
      <trkpt lat="46.75715" lon="4.17402">
        <ele>423.6</ele>
        <time>2021-08-13T04:58:34Z</time>
      </trkpt>
      <trkpt lat="46.75738" lon="4.17376">
        <ele>424.56</ele>
        <time>2021-08-13T04:58:43Z</time>
      </trkpt>
      <trkpt lat="46.75757" lon="4.17348">
        <ele>424.56</ele>
        <time>2021-08-13T04:58:52Z</time>
      </trkpt>
      <trkpt lat="46.7576" lon="4.17324">
        <ele>426</ele>
        <time>2021-08-13T04:58:58Z</time>
      </trkpt>
      <trkpt lat="46.7576" lon="4.17294">
        <ele>426.96</ele>
        <time>2021-08-13T04:59:05Z</time>
      </trkpt>
      <trkpt lat="46.75765" lon="4.17255">
        <ele>427.92</ele>
        <time>2021-08-13T04:59:14Z</time>
      </trkpt>
      <trkpt lat="46.75772" lon="4.17203">
        <ele>428.4</ele>
        <time>2021-08-13T04:59:25Z</time>
      </trkpt>
      <trkpt lat="46.75782" lon="4.17146">
        <ele>426.48</ele>
        <time>2021-08-13T04:59:34Z</time>
      </trkpt>
      <trkpt lat="46.75786" lon="4.17117">
        <ele>426</ele>
        <time>2021-08-13T04:59:38Z</time>
      </trkpt>
      <trkpt lat="46.75802" lon="4.17041">
        <ele>424.56</ele>
        <time>2021-08-13T04:59:48Z</time>
      </trkpt>
      <trkpt lat="46.75808" lon="4.17026">
        <ele>423.12</ele>
        <time>2021-08-13T04:59:50Z</time>
      </trkpt>
      <trkpt lat="46.75811" lon="4.17019">
        <ele>423.12</ele>
        <time>2021-08-13T04:59:51Z</time>
      </trkpt>
      <trkpt lat="46.75814" lon="4.17011">
        <ele>421.68</ele>
        <time>2021-08-13T04:59:52Z</time>
      </trkpt>
      <trkpt lat="46.75816" lon="4.17002">
        <ele>421.68</ele>
        <time>2021-08-13T04:59:53Z</time>
      </trkpt>
      <trkpt lat="46.75818" lon="4.16994">
        <ele>421.68</ele>
        <time>2021-08-13T04:59:54Z</time>
      </trkpt>
      <trkpt lat="46.75818" lon="4.16985">
        <ele>421.68</ele>
        <time>2021-08-13T04:59:55Z</time>
      </trkpt>
      <trkpt lat="46.75817" lon="4.16976">
        <ele>421.19</ele>
        <time>2021-08-13T04:59:56Z</time>
      </trkpt>
      <trkpt lat="46.75816" lon="4.16967">
        <ele>420.71</ele>
        <time>2021-08-13T04:59:57Z</time>
      </trkpt>
      <trkpt lat="46.75814" lon="4.16959">
        <ele>420.71</ele>
        <time>2021-08-13T04:59:58Z</time>
      </trkpt>
      <trkpt lat="46.75811" lon="4.16951">
        <ele>420.71</ele>
        <time>2021-08-13T04:59:59Z</time>
      </trkpt>
      <trkpt lat="46.75809" lon="4.16944">
        <ele>420.71</ele>
        <time>2021-08-13T05:00:00Z</time>
      </trkpt>
      <trkpt lat="46.75792" lon="4.16911">
        <ele>420.71</ele>
        <time>2021-08-13T05:00:06Z</time>
      </trkpt>
      <trkpt lat="46.75786" lon="4.169">
        <ele>420.71</ele>
        <time>2021-08-13T05:00:08Z</time>
      </trkpt>
      <trkpt lat="46.75783" lon="4.16895">
        <ele>420.71</ele>
        <time>2021-08-13T05:00:09Z</time>
      </trkpt>
      <trkpt lat="46.75778" lon="4.16891">
        <ele>420.71</ele>
        <time>2021-08-13T05:00:10Z</time>
      </trkpt>
      <trkpt lat="46.75773" lon="4.16887">
        <ele>420.71</ele>
        <time>2021-08-13T05:00:11Z</time>
      </trkpt>
      <trkpt lat="46.75769" lon="4.16884">
        <ele>420.71</ele>
        <time>2021-08-13T05:00:12Z</time>
      </trkpt>
      <trkpt lat="46.75764" lon="4.16882">
        <ele>420.71</ele>
        <time>2021-08-13T05:00:13Z</time>
      </trkpt>
      <trkpt lat="46.75739" lon="4.16871">
        <ele>422.16</ele>
        <time>2021-08-13T05:00:19Z</time>
      </trkpt>
      <trkpt lat="46.75732" lon="4.1686">
        <ele>423.12</ele>
        <time>2021-08-13T05:00:22Z</time>
      </trkpt>
      <trkpt lat="46.75729" lon="4.16824">
        <ele>424.56</ele>
        <time>2021-08-13T05:00:31Z</time>
      </trkpt>
      <trkpt lat="46.75728" lon="4.16783">
        <ele>425.52</ele>
        <time>2021-08-13T05:00:40Z</time>
      </trkpt>
      <trkpt lat="46.75726" lon="4.16734">
        <ele>426</ele>
        <time>2021-08-13T05:00:50Z</time>
      </trkpt>
      <trkpt lat="46.75727" lon="4.16684">
        <ele>426.48</ele>
        <time>2021-08-13T05:01:00Z</time>
      </trkpt>
      <trkpt lat="46.75727" lon="4.16661">
        <ele>426</ele>
        <time>2021-08-13T05:01:04Z</time>
      </trkpt>
      <trkpt lat="46.75725" lon="4.16654">
        <ele>425.04</ele>
        <time>2021-08-13T05:01:05Z</time>
      </trkpt>
      <trkpt lat="46.75723" lon="4.16648">
        <ele>425.04</ele>
        <time>2021-08-13T05:01:06Z</time>
      </trkpt>
      <trkpt lat="46.75719" lon="4.16642">
        <ele>424.56</ele>
        <time>2021-08-13T05:01:07Z</time>
      </trkpt>
      <trkpt lat="46.75716" lon="4.16637">
        <ele>424.08</ele>
        <time>2021-08-13T05:01:08Z</time>
      </trkpt>
      <trkpt lat="46.75706" lon="4.16624">
        <ele>423.12</ele>
        <time>2021-08-13T05:01:10Z</time>
      </trkpt>
      <trkpt lat="46.75701" lon="4.1662">
        <ele>423.12</ele>
        <time>2021-08-13T05:01:11Z</time>
      </trkpt>
      <trkpt lat="46.75667" lon="4.16589">
        <ele>421.19</ele>
        <time>2021-08-13T05:01:17Z</time>
      </trkpt>
      <trkpt lat="46.75634" lon="4.16558">
        <ele>420.71</ele>
        <time>2021-08-13T05:01:24Z</time>
      </trkpt>
      <trkpt lat="46.75604" lon="4.16533">
        <ele>422.16</ele>
        <time>2021-08-13T05:01:31Z</time>
      </trkpt>
      <trkpt lat="46.75575" lon="4.16506">
        <ele>423.12</ele>
        <time>2021-08-13T05:01:40Z</time>
      </trkpt>
      <trkpt lat="46.75552" lon="4.16483">
        <ele>424.56</ele>
        <time>2021-08-13T05:01:49Z</time>
      </trkpt>
      <trkpt lat="46.75539" lon="4.16471">
        <ele>425.04</ele>
        <time>2021-08-13T05:01:56Z</time>
      </trkpt>
      <trkpt lat="46.75515" lon="4.16458">
        <ele>426.48</ele>
        <time>2021-08-13T05:02:05Z</time>
      </trkpt>
      <trkpt lat="46.7549" lon="4.16451">
        <ele>427.44</ele>
        <time>2021-08-13T05:02:15Z</time>
      </trkpt>
      <trkpt lat="46.75457" lon="4.16452">
        <ele>429.37</ele>
        <time>2021-08-13T05:02:28Z</time>
      </trkpt>
      <trkpt lat="46.75429" lon="4.16459">
        <ele>430.33</ele>
        <time>2021-08-13T05:02:38Z</time>
      </trkpt>
      <trkpt lat="46.75409" lon="4.16455">
        <ele>430.81</ele>
        <time>2021-08-13T05:02:45Z</time>
      </trkpt>
      <trkpt lat="46.75394" lon="4.16456">
        <ele>431.77</ele>
        <time>2021-08-13T05:02:52Z</time>
      </trkpt>
      <trkpt lat="46.7539" lon="4.16457">
        <ele>432.25</ele>
        <time>2021-08-13T05:02:54Z</time>
      </trkpt>
      <trkpt lat="46.75378" lon="4.16454">
        <ele>433.69</ele>
        <time>2021-08-13T05:03:02Z</time>
      </trkpt>
      <trkpt lat="46.75363" lon="4.16452">
        <ele>433.69</ele>
        <time>2021-08-13T05:03:08Z</time>
      </trkpt>
      <trkpt lat="46.75348" lon="4.16455">
        <ele>434.17</ele>
        <time>2021-08-13T05:03:14Z</time>
      </trkpt>
      <trkpt lat="46.75335" lon="4.16463">
        <ele>435.13</ele>
        <time>2021-08-13T05:03:21Z</time>
      </trkpt>
      <trkpt lat="46.75328" lon="4.16465">
        <ele>436.1</ele>
        <time>2021-08-13T05:03:24Z</time>
      </trkpt>
      <trkpt lat="46.75325" lon="4.16465">
        <ele>436.1</ele>
        <time>2021-08-13T05:03:25Z</time>
      </trkpt>
      <trkpt lat="46.75323" lon="4.16466">
        <ele>436.1</ele>
        <time>2021-08-13T05:03:26Z</time>
      </trkpt>
      <trkpt lat="46.75307" lon="4.16472">
        <ele>436.58</ele>
        <time>2021-08-13T05:03:33Z</time>
      </trkpt>
      <trkpt lat="46.75288" lon="4.1648">
        <ele>438.02</ele>
        <time>2021-08-13T05:03:42Z</time>
      </trkpt>
      <trkpt lat="46.75272" lon="4.16479">
        <ele>438.5</ele>
        <time>2021-08-13T05:03:50Z</time>
      </trkpt>
      <trkpt lat="46.75261" lon="4.1648">
        <ele>439.94</ele>
        <time>2021-08-13T05:03:57Z</time>
      </trkpt>
      <trkpt lat="46.75252" lon="4.16483">
        <ele>440.9</ele>
        <time>2021-08-13T05:04:04Z</time>
      </trkpt>
      <trkpt lat="46.75244" lon="4.16486">
        <ele>441.86</ele>
        <time>2021-08-13T05:04:12Z</time>
      </trkpt>
      <trkpt lat="46.75237" lon="4.1649">
        <ele>443.31</ele>
        <time>2021-08-13T05:04:19Z</time>
      </trkpt>
      <trkpt lat="46.75232" lon="4.16496">
        <ele>444.75</ele>
        <time>2021-08-13T05:04:26Z</time>
      </trkpt>
      <trkpt lat="46.75226" lon="4.16497">
        <ele>445.71</ele>
        <time>2021-08-13T05:04:30Z</time>
      </trkpt>
      <trkpt lat="46.75219" lon="4.16498">
        <ele>446.19</ele>
        <time>2021-08-13T05:04:34Z</time>
      </trkpt>
      <trkpt lat="46.7521" lon="4.16501">
        <ele>447.15</ele>
        <time>2021-08-13T05:04:40Z</time>
      </trkpt>
      <trkpt lat="46.752" lon="4.165">
        <ele>448.11</ele>
        <time>2021-08-13T05:04:47Z</time>
      </trkpt>
      <trkpt lat="46.75187" lon="4.16497">
        <ele>450.03</ele>
        <time>2021-08-13T05:04:55Z</time>
      </trkpt>
      <trkpt lat="46.75178" lon="4.16495">
        <ele>450.52</ele>
        <time>2021-08-13T05:05:01Z</time>
      </trkpt>
      <trkpt lat="46.75175" lon="4.16495">
        <ele>450.52</ele>
        <time>2021-08-13T05:05:03Z</time>
      </trkpt>
      <trkpt lat="46.75173" lon="4.16496">
        <ele>451</ele>
        <time>2021-08-13T05:05:04Z</time>
      </trkpt>
      <trkpt lat="46.75172" lon="4.16496">
        <ele>451</ele>
        <time>2021-08-13T05:05:05Z</time>
      </trkpt>
      <trkpt lat="46.7517" lon="4.16496">
        <ele>451.48</ele>
        <time>2021-08-13T05:05:06Z</time>
      </trkpt>
      <trkpt lat="46.75169" lon="4.16496">
        <ele>451.48</ele>
        <time>2021-08-13T05:05:07Z</time>
      </trkpt>
      <trkpt lat="46.75157" lon="4.16497">
        <ele>452.44</ele>
        <time>2021-08-13T05:05:13Z</time>
      </trkpt>
      <trkpt lat="46.75143" lon="4.16499">
        <ele>453.88</ele>
        <time>2021-08-13T05:05:22Z</time>
      </trkpt>
      <trkpt lat="46.75129" lon="4.16503">
        <ele>455.32</ele>
        <time>2021-08-13T05:05:30Z</time>
      </trkpt>
      <trkpt lat="46.75121" lon="4.16494">
        <ele>456.76</ele>
        <time>2021-08-13T05:05:37Z</time>
      </trkpt>
      <trkpt lat="46.75118" lon="4.16491">
        <ele>456.76</ele>
        <time>2021-08-13T05:05:40Z</time>
      </trkpt>
      <trkpt lat="46.75116" lon="4.1649">
        <ele>457.24</ele>
        <time>2021-08-13T05:05:41Z</time>
      </trkpt>
      <trkpt lat="46.75112" lon="4.16485">
        <ele>457.72</ele>
        <time>2021-08-13T05:05:45Z</time>
      </trkpt>
      <trkpt lat="46.7511" lon="4.16484">
        <ele>458.21</ele>
        <time>2021-08-13T05:05:46Z</time>
      </trkpt>
      <trkpt lat="46.75109" lon="4.16483">
        <ele>458.69</ele>
        <time>2021-08-13T05:05:47Z</time>
      </trkpt>
      <trkpt lat="46.75107" lon="4.16482">
        <ele>458.69</ele>
        <time>2021-08-13T05:05:48Z</time>
      </trkpt>
      <trkpt lat="46.75099" lon="4.16472">
        <ele>459.65</ele>
        <time>2021-08-13T05:05:55Z</time>
      </trkpt>
      <trkpt lat="46.75093" lon="4.16456">
        <ele>461.57</ele>
        <time>2021-08-13T05:06:03Z</time>
      </trkpt>
      <trkpt lat="46.75092" lon="4.16455">
        <ele>461.57</ele>
        <time>2021-08-13T05:06:04Z</time>
      </trkpt>
      <trkpt lat="46.75091" lon="4.16453">
        <ele>461.57</ele>
        <time>2021-08-13T05:06:05Z</time>
      </trkpt>
      <trkpt lat="46.75082" lon="4.16446">
        <ele>463.01</ele>
        <time>2021-08-13T05:06:13Z</time>
      </trkpt>
      <trkpt lat="46.75073" lon="4.1644">
        <ele>464.93</ele>
        <time>2021-08-13T05:06:20Z</time>
      </trkpt>
      <trkpt lat="46.75066" lon="4.16425">
        <ele>466.38</ele>
        <time>2021-08-13T05:06:28Z</time>
      </trkpt>
      <trkpt lat="46.75063" lon="4.16404">
        <ele>466.38</ele>
        <time>2021-08-13T05:06:35Z</time>
      </trkpt>
      <trkpt lat="46.75053" lon="4.16391">
        <ele>467.34</ele>
        <time>2021-08-13T05:06:41Z</time>
      </trkpt>
      <trkpt lat="46.75037" lon="4.16386">
        <ele>468.78</ele>
        <time>2021-08-13T05:06:48Z</time>
      </trkpt>
      <trkpt lat="46.7503" lon="4.16381">
        <ele>469.26</ele>
        <time>2021-08-13T05:06:51Z</time>
      </trkpt>
      <trkpt lat="46.75029" lon="4.16379">
        <ele>469.26</ele>
        <time>2021-08-13T05:06:52Z</time>
      </trkpt>
      <trkpt lat="46.75027" lon="4.16377">
        <ele>469.26</ele>
        <time>2021-08-13T05:06:53Z</time>
      </trkpt>
      <trkpt lat="46.75025" lon="4.16374">
        <ele>468.78</ele>
        <time>2021-08-13T05:06:54Z</time>
      </trkpt>
      <trkpt lat="46.75024" lon="4.16371">
        <ele>469.26</ele>
        <time>2021-08-13T05:06:55Z</time>
      </trkpt>
      <trkpt lat="46.75023" lon="4.16368">
        <ele>469.26</ele>
        <time>2021-08-13T05:06:56Z</time>
      </trkpt>
      <trkpt lat="46.75023" lon="4.16365">
        <ele>469.26</ele>
        <time>2021-08-13T05:06:57Z</time>
      </trkpt>
      <trkpt lat="46.75023" lon="4.16362">
        <ele>469.26</ele>
        <time>2021-08-13T05:06:58Z</time>
      </trkpt>
      <trkpt lat="46.75022" lon="4.16359">
        <ele>469.26</ele>
        <time>2021-08-13T05:06:59Z</time>
      </trkpt>
      <trkpt lat="46.7502" lon="4.16355">
        <ele>469.74</ele>
        <time>2021-08-13T05:07:00Z</time>
      </trkpt>
      <trkpt lat="46.75009" lon="4.16337">
        <ele>469.74</ele>
        <time>2021-08-13T05:07:05Z</time>
      </trkpt>
      <trkpt lat="46.75004" lon="4.16328">
        <ele>469.74</ele>
        <time>2021-08-13T05:07:08Z</time>
      </trkpt>
      <trkpt lat="46.75002" lon="4.16326">
        <ele>469.74</ele>
        <time>2021-08-13T05:07:09Z</time>
      </trkpt>
      <trkpt lat="46.75" lon="4.16325">
        <ele>469.74</ele>
        <time>2021-08-13T05:07:10Z</time>
      </trkpt>
      <trkpt lat="46.74997" lon="4.16324">
        <ele>469.74</ele>
        <time>2021-08-13T05:07:11Z</time>
      </trkpt>
      <trkpt lat="46.74995" lon="4.16324">
        <ele>469.74</ele>
        <time>2021-08-13T05:07:12Z</time>
      </trkpt>
      <trkpt lat="46.74988" lon="4.16324">
        <ele>469.74</ele>
        <time>2021-08-13T05:07:14Z</time>
      </trkpt>
      <trkpt lat="46.74983" lon="4.16329">
        <ele>469.74</ele>
        <time>2021-08-13T05:07:16Z</time>
      </trkpt>
      <trkpt lat="46.74975" lon="4.16335">
        <ele>470.7</ele>
        <time>2021-08-13T05:07:19Z</time>
      </trkpt>
      <trkpt lat="46.74972" lon="4.16334">
        <ele>470.7</ele>
        <time>2021-08-13T05:07:20Z</time>
      </trkpt>
      <trkpt lat="46.7497" lon="4.16334">
        <ele>471.18</ele>
        <time>2021-08-13T05:07:21Z</time>
      </trkpt>
      <trkpt lat="46.74968" lon="4.16333">
        <ele>471.18</ele>
        <time>2021-08-13T05:07:22Z</time>
      </trkpt>
      <trkpt lat="46.74966" lon="4.16332">
        <ele>471.18</ele>
        <time>2021-08-13T05:07:23Z</time>
      </trkpt>
      <trkpt lat="46.74949" lon="4.16329">
        <ele>472.63</ele>
        <time>2021-08-13T05:07:31Z</time>
      </trkpt>
      <trkpt lat="46.74932" lon="4.16326">
        <ele>473.11</ele>
        <time>2021-08-13T05:07:38Z</time>
      </trkpt>
      <trkpt lat="46.74931" lon="4.16324">
        <ele>474.07</ele>
        <time>2021-08-13T05:07:39Z</time>
      </trkpt>
      <trkpt lat="46.74929" lon="4.16321">
        <ele>474.07</ele>
        <time>2021-08-13T05:07:40Z</time>
      </trkpt>
      <trkpt lat="46.74917" lon="4.16303">
        <ele>473.59</ele>
        <time>2021-08-13T05:07:46Z</time>
      </trkpt>
      <trkpt lat="46.74901" lon="4.163">
        <ele>474.07</ele>
        <time>2021-08-13T05:07:52Z</time>
      </trkpt>
      <trkpt lat="46.74884" lon="4.16313">
        <ele>474.07</ele>
        <time>2021-08-13T05:07:58Z</time>
      </trkpt>
      <trkpt lat="46.7488" lon="4.1632">
        <ele>474.07</ele>
        <time>2021-08-13T05:08:00Z</time>
      </trkpt>
      <trkpt lat="46.74878" lon="4.16321">
        <ele>474.55</ele>
        <time>2021-08-13T05:08:01Z</time>
      </trkpt>
      <trkpt lat="46.74875" lon="4.16322">
        <ele>474.55</ele>
        <time>2021-08-13T05:08:02Z</time>
      </trkpt>
      <trkpt lat="46.74869" lon="4.16323">
        <ele>474.55</ele>
        <time>2021-08-13T05:08:04Z</time>
      </trkpt>
      <trkpt lat="46.74867" lon="4.16323">
        <ele>474.55</ele>
        <time>2021-08-13T05:08:05Z</time>
      </trkpt>
      <trkpt lat="46.74864" lon="4.1632">
        <ele>474.55</ele>
        <time>2021-08-13T05:08:06Z</time>
      </trkpt>
      <trkpt lat="46.74862" lon="4.16317">
        <ele>474.55</ele>
        <time>2021-08-13T05:08:07Z</time>
      </trkpt>
      <trkpt lat="46.7486" lon="4.16313">
        <ele>474.55</ele>
        <time>2021-08-13T05:08:08Z</time>
      </trkpt>
      <trkpt lat="46.74857" lon="4.16309">
        <ele>473.11</ele>
        <time>2021-08-13T05:08:09Z</time>
      </trkpt>
      <trkpt lat="46.74854" lon="4.16307">
        <ele>473.11</ele>
        <time>2021-08-13T05:08:10Z</time>
      </trkpt>
      <trkpt lat="46.7485" lon="4.16306">
        <ele>473.11</ele>
        <time>2021-08-13T05:08:11Z</time>
      </trkpt>
      <trkpt lat="46.74848" lon="4.16306">
        <ele>473.11</ele>
        <time>2021-08-13T05:08:12Z</time>
      </trkpt>
      <trkpt lat="46.74846" lon="4.16307">
        <ele>473.11</ele>
        <time>2021-08-13T05:08:13Z</time>
      </trkpt>
      <trkpt lat="46.74844" lon="4.16308">
        <ele>473.11</ele>
        <time>2021-08-13T05:08:14Z</time>
      </trkpt>
      <trkpt lat="46.74842" lon="4.16308">
        <ele>475.03</ele>
        <time>2021-08-13T05:08:15Z</time>
      </trkpt>
      <trkpt lat="46.7484" lon="4.16309">
        <ele>475.03</ele>
        <time>2021-08-13T05:08:16Z</time>
      </trkpt>
      <trkpt lat="46.74838" lon="4.1631">
        <ele>475.03</ele>
        <time>2021-08-13T05:08:17Z</time>
      </trkpt>
      <trkpt lat="46.74827" lon="4.16309">
        <ele>475.99</ele>
        <time>2021-08-13T05:08:24Z</time>
      </trkpt>
      <trkpt lat="46.74825" lon="4.16307">
        <ele>475.99</ele>
        <time>2021-08-13T05:08:30Z</time>
      </trkpt>
      <trkpt lat="46.74822" lon="4.16305">
        <ele>475.99</ele>
        <time>2021-08-13T05:08:51Z</time>
      </trkpt>
      <trkpt lat="46.74824" lon="4.16305">
        <ele>475.99</ele>
        <time>2021-08-13T05:09:12Z</time>
      </trkpt>
      <trkpt lat="46.74823" lon="4.16306">
        <ele>475.99</ele>
        <time>2021-08-13T05:09:28Z</time>
      </trkpt>
      <trkpt lat="46.74821" lon="4.16305">
        <ele>475.99</ele>
        <time>2021-08-13T05:09:39Z</time>
      </trkpt>
      <trkpt lat="46.7482" lon="4.16304">
        <ele>475.99</ele>
        <time>2021-08-13T05:09:40Z</time>
      </trkpt>
      <trkpt lat="46.74818" lon="4.16303">
        <ele>475.99</ele>
        <time>2021-08-13T05:09:41Z</time>
      </trkpt>
      <trkpt lat="46.74816" lon="4.16302">
        <ele>475.03</ele>
        <time>2021-08-13T05:09:42Z</time>
      </trkpt>
      <trkpt lat="46.74812" lon="4.16301">
        <ele>475.03</ele>
        <time>2021-08-13T05:09:43Z</time>
      </trkpt>
      <trkpt lat="46.74809" lon="4.163">
        <ele>475.03</ele>
        <time>2021-08-13T05:09:44Z</time>
      </trkpt>
      <trkpt lat="46.74806" lon="4.16297">
        <ele>474.55</ele>
        <time>2021-08-13T05:09:45Z</time>
      </trkpt>
      <trkpt lat="46.74803" lon="4.16294">
        <ele>474.55</ele>
        <time>2021-08-13T05:09:46Z</time>
      </trkpt>
      <trkpt lat="46.74792" lon="4.16279">
        <ele>474.55</ele>
        <time>2021-08-13T05:09:51Z</time>
      </trkpt>
      <trkpt lat="46.74777" lon="4.16277">
        <ele>475.99</ele>
        <time>2021-08-13T05:09:58Z</time>
      </trkpt>
      <trkpt lat="46.74774" lon="4.16276">
        <ele>475.99</ele>
        <time>2021-08-13T05:09:59Z</time>
      </trkpt>
      <trkpt lat="46.74773" lon="4.16275">
        <ele>476.47</ele>
        <time>2021-08-13T05:10:00Z</time>
      </trkpt>
      <trkpt lat="46.74771" lon="4.16272">
        <ele>476.47</ele>
        <time>2021-08-13T05:10:01Z</time>
      </trkpt>
      <trkpt lat="46.74769" lon="4.1627">
        <ele>476.47</ele>
        <time>2021-08-13T05:10:02Z</time>
      </trkpt>
      <trkpt lat="46.74768" lon="4.16266">
        <ele>476.47</ele>
        <time>2021-08-13T05:10:03Z</time>
      </trkpt>
      <trkpt lat="46.74766" lon="4.16263">
        <ele>476.47</ele>
        <time>2021-08-13T05:10:04Z</time>
      </trkpt>
      <trkpt lat="46.74749" lon="4.16242">
        <ele>476.47</ele>
        <time>2021-08-13T05:10:12Z</time>
      </trkpt>
      <trkpt lat="46.74743" lon="4.16234">
        <ele>474.55</ele>
        <time>2021-08-13T05:10:14Z</time>
      </trkpt>
      <trkpt lat="46.74735" lon="4.16227">
        <ele>474.07</ele>
        <time>2021-08-13T05:10:16Z</time>
      </trkpt>
      <trkpt lat="46.74722" lon="4.16219">
        <ele>472.63</ele>
        <time>2021-08-13T05:10:19Z</time>
      </trkpt>
      <trkpt lat="46.74718" lon="4.16215">
        <ele>472.63</ele>
        <time>2021-08-13T05:10:20Z</time>
      </trkpt>
      <trkpt lat="46.747" lon="4.16196">
        <ele>472.14</ele>
        <time>2021-08-13T05:10:25Z</time>
      </trkpt>
      <trkpt lat="46.74697" lon="4.16192">
        <ele>472.14</ele>
        <time>2021-08-13T05:10:26Z</time>
      </trkpt>
      <trkpt lat="46.74695" lon="4.16189">
        <ele>472.14</ele>
        <time>2021-08-13T05:10:27Z</time>
      </trkpt>
      <trkpt lat="46.74672" lon="4.16162">
        <ele>471.66</ele>
        <time>2021-08-13T05:10:34Z</time>
      </trkpt>
      <trkpt lat="46.74655" lon="4.16146">
        <ele>471.66</ele>
        <time>2021-08-13T05:10:38Z</time>
      </trkpt>
      <trkpt lat="46.74648" lon="4.16136">
        <ele>471.66</ele>
        <time>2021-08-13T05:10:40Z</time>
      </trkpt>
      <trkpt lat="46.74646" lon="4.16132">
        <ele>471.66</ele>
        <time>2021-08-13T05:10:41Z</time>
      </trkpt>
      <trkpt lat="46.74643" lon="4.16127">
        <ele>471.66</ele>
        <time>2021-08-13T05:10:42Z</time>
      </trkpt>
      <trkpt lat="46.7464" lon="4.16123">
        <ele>471.66</ele>
        <time>2021-08-13T05:10:43Z</time>
      </trkpt>
      <trkpt lat="46.74638" lon="4.16119">
        <ele>471.66</ele>
        <time>2021-08-13T05:10:44Z</time>
      </trkpt>
      <trkpt lat="46.74636" lon="4.16115">
        <ele>471.66</ele>
        <time>2021-08-13T05:10:45Z</time>
      </trkpt>
      <trkpt lat="46.74629" lon="4.16104">
        <ele>473.11</ele>
        <time>2021-08-13T05:10:48Z</time>
      </trkpt>
      <trkpt lat="46.74609" lon="4.16073">
        <ele>474.07</ele>
        <time>2021-08-13T05:10:57Z</time>
      </trkpt>
      <trkpt lat="46.74593" lon="4.16043">
        <ele>475.03</ele>
        <time>2021-08-13T05:11:06Z</time>
      </trkpt>
      <trkpt lat="46.74582" lon="4.16021">
        <ele>476.47</ele>
        <time>2021-08-13T05:11:14Z</time>
      </trkpt>
      <trkpt lat="46.74574" lon="4.16006">
        <ele>477.43</ele>
        <time>2021-08-13T05:11:21Z</time>
      </trkpt>
      <trkpt lat="46.74562" lon="4.1599">
        <ele>478.39</ele>
        <time>2021-08-13T05:11:29Z</time>
      </trkpt>
      <trkpt lat="46.74552" lon="4.15973">
        <ele>480.8</ele>
        <time>2021-08-13T05:11:38Z</time>
      </trkpt>
      <trkpt lat="46.74545" lon="4.15948">
        <ele>481.28</ele>
        <time>2021-08-13T05:11:46Z</time>
      </trkpt>
      <trkpt lat="46.74534" lon="4.15918">
        <ele>481.76</ele>
        <time>2021-08-13T05:11:54Z</time>
      </trkpt>
      <trkpt lat="46.74531" lon="4.15896">
        <ele>482.24</ele>
        <time>2021-08-13T05:12:00Z</time>
      </trkpt>
      <trkpt lat="46.74532" lon="4.15885">
        <ele>482.24</ele>
        <time>2021-08-13T05:12:03Z</time>
      </trkpt>
      <trkpt lat="46.74532" lon="4.15882">
        <ele>482.24</ele>
        <time>2021-08-13T05:12:04Z</time>
      </trkpt>
      <trkpt lat="46.7453" lon="4.15858">
        <ele>482.72</ele>
        <time>2021-08-13T05:12:10Z</time>
      </trkpt>
      <trkpt lat="46.74526" lon="4.15828">
        <ele>483.2</ele>
        <time>2021-08-13T05:12:17Z</time>
      </trkpt>
      <trkpt lat="46.74518" lon="4.15804">
        <ele>481.76</ele>
        <time>2021-08-13T05:12:21Z</time>
      </trkpt>
      <trkpt lat="46.74506" lon="4.15785">
        <ele>481.76</ele>
        <time>2021-08-13T05:12:25Z</time>
      </trkpt>
      <trkpt lat="46.74492" lon="4.15773">
        <ele>480.8</ele>
        <time>2021-08-13T05:12:29Z</time>
      </trkpt>
      <trkpt lat="46.74467" lon="4.15767">
        <ele>479.84</ele>
        <time>2021-08-13T05:12:35Z</time>
      </trkpt>
      <trkpt lat="46.74451" lon="4.1576">
        <ele>475.51</ele>
        <time>2021-08-13T05:12:38Z</time>
      </trkpt>
      <trkpt lat="46.74444" lon="4.15757">
        <ele>474.07</ele>
        <time>2021-08-13T05:12:39Z</time>
      </trkpt>
      <trkpt lat="46.74419" lon="4.15741">
        <ele>470.22</ele>
        <time>2021-08-13T05:12:42Z</time>
      </trkpt>
      <trkpt lat="46.74386" lon="4.15714">
        <ele>467.82</ele>
        <time>2021-08-13T05:12:46Z</time>
      </trkpt>
      <trkpt lat="46.74355" lon="4.15698">
        <ele>467.34</ele>
        <time>2021-08-13T05:12:50Z</time>
      </trkpt>
      <trkpt lat="46.74338" lon="4.15699">
        <ele>469.26</ele>
        <time>2021-08-13T05:12:53Z</time>
      </trkpt>
      <trkpt lat="46.74306" lon="4.15708">
        <ele>469.26</ele>
        <time>2021-08-13T05:13:00Z</time>
      </trkpt>
      <trkpt lat="46.74291" lon="4.15711">
        <ele>466.38</ele>
        <time>2021-08-13T05:13:03Z</time>
      </trkpt>
      <trkpt lat="46.74262" lon="4.15712">
        <ele>463.01</ele>
        <time>2021-08-13T05:13:07Z</time>
      </trkpt>
      <trkpt lat="46.74254" lon="4.15711">
        <ele>463.01</ele>
        <time>2021-08-13T05:13:08Z</time>
      </trkpt>
      <trkpt lat="46.74213" lon="4.15704">
        <ele>463.01</ele>
        <time>2021-08-13T05:13:14Z</time>
      </trkpt>
      <trkpt lat="46.74208" lon="4.15702">
        <ele>463.01</ele>
        <time>2021-08-13T05:13:15Z</time>
      </trkpt>
      <trkpt lat="46.74203" lon="4.15701">
        <ele>463.01</ele>
        <time>2021-08-13T05:13:16Z</time>
      </trkpt>
      <trkpt lat="46.74198" lon="4.15699">
        <ele>463.01</ele>
        <time>2021-08-13T05:13:17Z</time>
      </trkpt>
      <trkpt lat="46.74178" lon="4.15696">
        <ele>463.97</ele>
        <time>2021-08-13T05:13:21Z</time>
      </trkpt>
      <trkpt lat="46.74162" lon="4.15697">
        <ele>463.97</ele>
        <time>2021-08-13T05:13:24Z</time>
      </trkpt>
      <trkpt lat="46.74158" lon="4.15695">
        <ele>463.97</ele>
        <time>2021-08-13T05:13:25Z</time>
      </trkpt>
      <trkpt lat="46.74154" lon="4.15694">
        <ele>463.97</ele>
        <time>2021-08-13T05:13:26Z</time>
      </trkpt>
      <trkpt lat="46.74123" lon="4.15677">
        <ele>464.45</ele>
        <time>2021-08-13T05:13:33Z</time>
      </trkpt>
      <trkpt lat="46.74118" lon="4.15674">
        <ele>463.01</ele>
        <time>2021-08-13T05:13:34Z</time>
      </trkpt>
      <trkpt lat="46.74093" lon="4.1566">
        <ele>459.17</ele>
        <time>2021-08-13T05:13:38Z</time>
      </trkpt>
      <trkpt lat="46.74085" lon="4.15657">
        <ele>458.69</ele>
        <time>2021-08-13T05:13:39Z</time>
      </trkpt>
      <trkpt lat="46.74072" lon="4.15652">
        <ele>457.24</ele>
        <time>2021-08-13T05:13:41Z</time>
      </trkpt>
      <trkpt lat="46.74065" lon="4.15648">
        <ele>456.76</ele>
        <time>2021-08-13T05:13:42Z</time>
      </trkpt>
      <trkpt lat="46.74059" lon="4.15644">
        <ele>456.76</ele>
        <time>2021-08-13T05:13:43Z</time>
      </trkpt>
      <trkpt lat="46.74052" lon="4.15641">
        <ele>456.28</ele>
        <time>2021-08-13T05:13:44Z</time>
      </trkpt>
      <trkpt lat="46.74044" lon="4.15639">
        <ele>456.28</ele>
        <time>2021-08-13T05:13:45Z</time>
      </trkpt>
      <trkpt lat="46.74037" lon="4.15638">
        <ele>455.8</ele>
        <time>2021-08-13T05:13:46Z</time>
      </trkpt>
      <trkpt lat="46.7399" lon="4.15635">
        <ele>454.84</ele>
        <time>2021-08-13T05:13:53Z</time>
      </trkpt>
      <trkpt lat="46.73968" lon="4.1563">
        <ele>454.84</ele>
        <time>2021-08-13T05:13:57Z</time>
      </trkpt>
      <trkpt lat="46.73964" lon="4.1563">
        <ele>454.84</ele>
        <time>2021-08-13T05:13:58Z</time>
      </trkpt>
      <trkpt lat="46.7396" lon="4.15629">
        <ele>454.84</ele>
        <time>2021-08-13T05:13:59Z</time>
      </trkpt>
      <trkpt lat="46.73956" lon="4.15628">
        <ele>456.76</ele>
        <time>2021-08-13T05:14:00Z</time>
      </trkpt>
      <trkpt lat="46.73952" lon="4.15626">
        <ele>456.76</ele>
        <time>2021-08-13T05:14:01Z</time>
      </trkpt>
      <trkpt lat="46.73927" lon="4.15619">
        <ele>457.72</ele>
        <time>2021-08-13T05:14:09Z</time>
      </trkpt>
      <trkpt lat="46.73914" lon="4.15614">
        <ele>457.72</ele>
        <time>2021-08-13T05:14:14Z</time>
      </trkpt>
      <trkpt lat="46.7389" lon="4.15606">
        <ele>458.21</ele>
        <time>2021-08-13T05:14:20Z</time>
      </trkpt>
      <trkpt lat="46.73865" lon="4.15602">
        <ele>456.28</ele>
        <time>2021-08-13T05:14:25Z</time>
      </trkpt>
      <trkpt lat="46.73852" lon="4.15603">
        <ele>454.36</ele>
        <time>2021-08-13T05:14:28Z</time>
      </trkpt>
      <trkpt lat="46.73846" lon="4.15603">
        <ele>453.88</ele>
        <time>2021-08-13T05:14:29Z</time>
      </trkpt>
      <trkpt lat="46.7384" lon="4.15603">
        <ele>452.44</ele>
        <time>2021-08-13T05:14:30Z</time>
      </trkpt>
      <trkpt lat="46.73822" lon="4.15598">
        <ele>449.55</ele>
        <time>2021-08-13T05:14:33Z</time>
      </trkpt>
      <trkpt lat="46.73788" lon="4.15579">
        <ele>447.15</ele>
        <time>2021-08-13T05:14:38Z</time>
      </trkpt>
      <trkpt lat="46.73774" lon="4.15567">
        <ele>445.71</ele>
        <time>2021-08-13T05:14:42Z</time>
      </trkpt>
      <trkpt lat="46.73765" lon="4.15559">
        <ele>446.19</ele>
        <time>2021-08-13T05:14:47Z</time>
      </trkpt>
      <trkpt lat="46.73765" lon="4.15559">
        <ele>446.67</ele>
        <time>2021-08-13T05:15:06Z</time>
      </trkpt>
      <trkpt lat="46.73764" lon="4.15559">
        <ele>446.67</ele>
        <time>2021-08-13T05:15:24Z</time>
      </trkpt>
      <trkpt lat="46.73765" lon="4.15558">
        <ele>446.67</ele>
        <time>2021-08-13T05:15:39Z</time>
      </trkpt>
      <trkpt lat="46.73763" lon="4.15555">
        <ele>446.19</ele>
        <time>2021-08-13T05:15:46Z</time>
      </trkpt>
      <trkpt lat="46.7376" lon="4.15551">
        <ele>446.19</ele>
        <time>2021-08-13T05:15:49Z</time>
      </trkpt>
      <trkpt lat="46.73758" lon="4.15548">
        <ele>446.19</ele>
        <time>2021-08-13T05:15:51Z</time>
      </trkpt>
      <trkpt lat="46.73758" lon="4.15546">
        <ele>446.19</ele>
        <time>2021-08-13T05:15:52Z</time>
      </trkpt>
      <trkpt lat="46.73757" lon="4.15544">
        <ele>445.71</ele>
        <time>2021-08-13T05:15:53Z</time>
      </trkpt>
      <trkpt lat="46.73754" lon="4.15535">
        <ele>445.23</ele>
        <time>2021-08-13T05:15:57Z</time>
      </trkpt>
      <trkpt lat="46.73755" lon="4.15513">
        <ele>443.79</ele>
        <time>2021-08-13T05:16:03Z</time>
      </trkpt>
      <trkpt lat="46.73756" lon="4.15487">
        <ele>442.82</ele>
        <time>2021-08-13T05:16:07Z</time>
      </trkpt>
      <trkpt lat="46.73749" lon="4.15441">
        <ele>439.94</ele>
        <time>2021-08-13T05:16:14Z</time>
      </trkpt>
      <trkpt lat="46.73748" lon="4.15435">
        <ele>439.46</ele>
        <time>2021-08-13T05:16:15Z</time>
      </trkpt>
      <trkpt lat="46.73738" lon="4.15408">
        <ele>438.02</ele>
        <time>2021-08-13T05:16:18Z</time>
      </trkpt>
      <trkpt lat="46.73734" lon="4.15399">
        <ele>438.02</ele>
        <time>2021-08-13T05:16:19Z</time>
      </trkpt>
      <trkpt lat="46.73719" lon="4.15383">
        <ele>436.58</ele>
        <time>2021-08-13T05:16:22Z</time>
      </trkpt>
      <trkpt lat="46.73714" lon="4.15381">
        <ele>436.1</ele>
        <time>2021-08-13T05:16:23Z</time>
      </trkpt>
      <trkpt lat="46.73696" lon="4.15385">
        <ele>434.17</ele>
        <time>2021-08-13T05:16:26Z</time>
      </trkpt>
      <trkpt lat="46.73687" lon="4.15393">
        <ele>433.21</ele>
        <time>2021-08-13T05:16:28Z</time>
      </trkpt>
      <trkpt lat="46.73663" lon="4.15431">
        <ele>430.33</ele>
        <time>2021-08-13T05:16:33Z</time>
      </trkpt>
      <trkpt lat="46.73648" lon="4.15454">
        <ele>427.92</ele>
        <time>2021-08-13T05:16:36Z</time>
      </trkpt>
      <trkpt lat="46.73642" lon="4.1546">
        <ele>427.92</ele>
        <time>2021-08-13T05:16:37Z</time>
      </trkpt>
      <trkpt lat="46.73632" lon="4.15466">
        <ele>426.48</ele>
        <time>2021-08-13T05:16:38Z</time>
      </trkpt>
      <trkpt lat="46.73623" lon="4.15471">
        <ele>425.52</ele>
        <time>2021-08-13T05:16:39Z</time>
      </trkpt>
      <trkpt lat="46.73611" lon="4.15475">
        <ele>425.04</ele>
        <time>2021-08-13T05:16:40Z</time>
      </trkpt>
      <trkpt lat="46.73603" lon="4.15476">
        <ele>425.04</ele>
        <time>2021-08-13T05:16:41Z</time>
      </trkpt>
      <trkpt lat="46.73593" lon="4.15476">
        <ele>425.04</ele>
        <time>2021-08-13T05:16:42Z</time>
      </trkpt>
      <trkpt lat="46.73584" lon="4.15477">
        <ele>424.56</ele>
        <time>2021-08-13T05:16:43Z</time>
      </trkpt>
      <trkpt lat="46.73542" lon="4.15488">
        <ele>421.68</ele>
        <time>2021-08-13T05:16:48Z</time>
      </trkpt>
      <trkpt lat="46.73526" lon="4.15497">
        <ele>422.16</ele>
        <time>2021-08-13T05:16:52Z</time>
      </trkpt>
      <trkpt lat="46.73511" lon="4.15508">
        <ele>422.16</ele>
        <time>2021-08-13T05:16:58Z</time>
      </trkpt>
      <trkpt lat="46.735" lon="4.15519">
        <ele>422.64</ele>
        <time>2021-08-13T05:17:04Z</time>
      </trkpt>
      <trkpt lat="46.7349" lon="4.15535">
        <ele>424.08</ele>
        <time>2021-08-13T05:17:10Z</time>
      </trkpt>
      <trkpt lat="46.73484" lon="4.15552">
        <ele>425.04</ele>
        <time>2021-08-13T05:17:16Z</time>
      </trkpt>
      <trkpt lat="46.73475" lon="4.15571">
        <ele>425.52</ele>
        <time>2021-08-13T05:17:22Z</time>
      </trkpt>
      <trkpt lat="46.73467" lon="4.15593">
        <ele>425.52</ele>
        <time>2021-08-13T05:17:28Z</time>
      </trkpt>
      <trkpt lat="46.73459" lon="4.15628">
        <ele>425.52</ele>
        <time>2021-08-13T05:17:36Z</time>
      </trkpt>
      <trkpt lat="46.73459" lon="4.15637">
        <ele>425.52</ele>
        <time>2021-08-13T05:17:38Z</time>
      </trkpt>
      <trkpt lat="46.73458" lon="4.15641">
        <ele>425.52</ele>
        <time>2021-08-13T05:17:39Z</time>
      </trkpt>
      <trkpt lat="46.73457" lon="4.15645">
        <ele>425.52</ele>
        <time>2021-08-13T05:17:40Z</time>
      </trkpt>
      <trkpt lat="46.73456" lon="4.1565">
        <ele>423.6</ele>
        <time>2021-08-13T05:17:41Z</time>
      </trkpt>
      <trkpt lat="46.73456" lon="4.15655">
        <ele>423.6</ele>
        <time>2021-08-13T05:17:42Z</time>
      </trkpt>
      <trkpt lat="46.73455" lon="4.15662">
        <ele>423.6</ele>
        <time>2021-08-13T05:17:43Z</time>
      </trkpt>
      <trkpt lat="46.73455" lon="4.15668">
        <ele>423.12</ele>
        <time>2021-08-13T05:17:44Z</time>
      </trkpt>
      <trkpt lat="46.73455" lon="4.15675">
        <ele>422.16</ele>
        <time>2021-08-13T05:17:45Z</time>
      </trkpt>
      <trkpt lat="46.73455" lon="4.15681">
        <ele>422.16</ele>
        <time>2021-08-13T05:17:46Z</time>
      </trkpt>
      <trkpt lat="46.73454" lon="4.15688">
        <ele>421.19</ele>
        <time>2021-08-13T05:17:47Z</time>
      </trkpt>
      <trkpt lat="46.73453" lon="4.15695">
        <ele>421.19</ele>
        <time>2021-08-13T05:17:48Z</time>
      </trkpt>
      <trkpt lat="46.73451" lon="4.157">
        <ele>420.23</ele>
        <time>2021-08-13T05:17:49Z</time>
      </trkpt>
      <trkpt lat="46.73449" lon="4.15704">
        <ele>419.75</ele>
        <time>2021-08-13T05:17:50Z</time>
      </trkpt>
      <trkpt lat="46.73448" lon="4.15707">
        <ele>419.75</ele>
        <time>2021-08-13T05:17:51Z</time>
      </trkpt>
      <trkpt lat="46.73445" lon="4.15709">
        <ele>419.75</ele>
        <time>2021-08-13T05:17:56Z</time>
      </trkpt>
      <trkpt lat="46.73444" lon="4.1571">
        <ele>418.79</ele>
        <time>2021-08-13T05:18:04Z</time>
      </trkpt>
      <trkpt lat="46.73444" lon="4.15709">
        <ele>418.79</ele>
        <time>2021-08-13T05:18:05Z</time>
      </trkpt>
      <trkpt lat="46.73443" lon="4.15706">
        <ele>418.79</ele>
        <time>2021-08-13T05:18:06Z</time>
      </trkpt>
      <trkpt lat="46.73442" lon="4.15704">
        <ele>418.79</ele>
        <time>2021-08-13T05:18:07Z</time>
      </trkpt>
      <trkpt lat="46.73442" lon="4.15702">
        <ele>418.79</ele>
        <time>2021-08-13T05:18:08Z</time>
      </trkpt>
      <trkpt lat="46.73437" lon="4.15685">
        <ele>418.79</ele>
        <time>2021-08-13T05:18:14Z</time>
      </trkpt>
      <trkpt lat="46.73423" lon="4.15654">
        <ele>417.83</ele>
        <time>2021-08-13T05:18:22Z</time>
      </trkpt>
      <trkpt lat="46.73401" lon="4.15621">
        <ele>416.87</ele>
        <time>2021-08-13T05:18:30Z</time>
      </trkpt>
      <trkpt lat="46.73379" lon="4.1559">
        <ele>415.43</ele>
        <time>2021-08-13T05:18:36Z</time>
      </trkpt>
      <trkpt lat="46.73369" lon="4.15578">
        <ele>413.98</ele>
        <time>2021-08-13T05:18:38Z</time>
      </trkpt>
      <trkpt lat="46.73327" lon="4.15552">
        <ele>410.62</ele>
        <time>2021-08-13T05:18:44Z</time>
      </trkpt>
      <trkpt lat="46.73311" lon="4.15541">
        <ele>409.66</ele>
        <time>2021-08-13T05:18:46Z</time>
      </trkpt>
      <trkpt lat="46.73304" lon="4.15533">
        <ele>409.18</ele>
        <time>2021-08-13T05:18:47Z</time>
      </trkpt>
      <trkpt lat="46.73298" lon="4.15524">
        <ele>408.22</ele>
        <time>2021-08-13T05:18:48Z</time>
      </trkpt>
      <trkpt lat="46.73294" lon="4.15513">
        <ele>408.22</ele>
        <time>2021-08-13T05:18:49Z</time>
      </trkpt>
      <trkpt lat="46.7329" lon="4.155">
        <ele>407.26</ele>
        <time>2021-08-13T05:18:50Z</time>
      </trkpt>
      <trkpt lat="46.73288" lon="4.15486">
        <ele>406.29</ele>
        <time>2021-08-13T05:18:51Z</time>
      </trkpt>
      <trkpt lat="46.73288" lon="4.15472">
        <ele>405.33</ele>
        <time>2021-08-13T05:18:52Z</time>
      </trkpt>
      <trkpt lat="46.73289" lon="4.15457">
        <ele>404.85</ele>
        <time>2021-08-13T05:18:53Z</time>
      </trkpt>
      <trkpt lat="46.73292" lon="4.15443">
        <ele>403.89</ele>
        <time>2021-08-13T05:18:54Z</time>
      </trkpt>
      <trkpt lat="46.73296" lon="4.15429">
        <ele>402.93</ele>
        <time>2021-08-13T05:18:55Z</time>
      </trkpt>
      <trkpt lat="46.733" lon="4.15416">
        <ele>403.41</ele>
        <time>2021-08-13T05:18:56Z</time>
      </trkpt>
      <trkpt lat="46.73316" lon="4.15376">
        <ele>401.01</ele>
        <time>2021-08-13T05:18:59Z</time>
      </trkpt>
      <trkpt lat="46.73324" lon="4.15365">
        <ele>400.05</ele>
        <time>2021-08-13T05:19:00Z</time>
      </trkpt>
      <trkpt lat="46.73332" lon="4.15358">
        <ele>399.57</ele>
        <time>2021-08-13T05:19:01Z</time>
      </trkpt>
      <trkpt lat="46.73343" lon="4.15353">
        <ele>399.08</ele>
        <time>2021-08-13T05:19:02Z</time>
      </trkpt>
      <trkpt lat="46.73353" lon="4.15351">
        <ele>398.6</ele>
        <time>2021-08-13T05:19:03Z</time>
      </trkpt>
      <trkpt lat="46.73365" lon="4.15351">
        <ele>397.64</ele>
        <time>2021-08-13T05:19:04Z</time>
      </trkpt>
      <trkpt lat="46.73376" lon="4.15351">
        <ele>396.68</ele>
        <time>2021-08-13T05:19:05Z</time>
      </trkpt>
      <trkpt lat="46.73387" lon="4.15351">
        <ele>396.2</ele>
        <time>2021-08-13T05:19:06Z</time>
      </trkpt>
      <trkpt lat="46.73395" lon="4.1535">
        <ele>396.2</ele>
        <time>2021-08-13T05:19:07Z</time>
      </trkpt>
      <trkpt lat="46.73407" lon="4.15346">
        <ele>395.24</ele>
        <time>2021-08-13T05:19:08Z</time>
      </trkpt>
      <trkpt lat="46.73414" lon="4.15341">
        <ele>394.76</ele>
        <time>2021-08-13T05:19:09Z</time>
      </trkpt>
      <trkpt lat="46.7342" lon="4.15333">
        <ele>394.28</ele>
        <time>2021-08-13T05:19:10Z</time>
      </trkpt>
      <trkpt lat="46.73424" lon="4.15323">
        <ele>393.32</ele>
        <time>2021-08-13T05:19:11Z</time>
      </trkpt>
      <trkpt lat="46.73425" lon="4.15311">
        <ele>393.32</ele>
        <time>2021-08-13T05:19:12Z</time>
      </trkpt>
      <trkpt lat="46.73427" lon="4.15299">
        <ele>392.36</ele>
        <time>2021-08-13T05:19:13Z</time>
      </trkpt>
      <trkpt lat="46.73429" lon="4.15286">
        <ele>391.87</ele>
        <time>2021-08-13T05:19:14Z</time>
      </trkpt>
      <trkpt lat="46.73433" lon="4.15274">
        <ele>390.91</ele>
        <time>2021-08-13T05:19:15Z</time>
      </trkpt>
      <trkpt lat="46.73442" lon="4.15253">
        <ele>389.47</ele>
        <time>2021-08-13T05:19:17Z</time>
      </trkpt>
      <trkpt lat="46.73448" lon="4.15243">
        <ele>388.99</ele>
        <time>2021-08-13T05:19:18Z</time>
      </trkpt>
      <trkpt lat="46.73455" lon="4.15233">
        <ele>388.51</ele>
        <time>2021-08-13T05:19:19Z</time>
      </trkpt>
      <trkpt lat="46.73463" lon="4.15224">
        <ele>387.55</ele>
        <time>2021-08-13T05:19:20Z</time>
      </trkpt>
      <trkpt lat="46.73471" lon="4.15215">
        <ele>387.07</ele>
        <time>2021-08-13T05:19:21Z</time>
      </trkpt>
      <trkpt lat="46.73479" lon="4.15207">
        <ele>386.11</ele>
        <time>2021-08-13T05:19:22Z</time>
      </trkpt>
      <trkpt lat="46.73489" lon="4.15199">
        <ele>385.15</ele>
        <time>2021-08-13T05:19:23Z</time>
      </trkpt>
      <trkpt lat="46.73509" lon="4.15184">
        <ele>384.66</ele>
        <time>2021-08-13T05:19:25Z</time>
      </trkpt>
      <trkpt lat="46.73519" lon="4.15181">
        <ele>383.22</ele>
        <time>2021-08-13T05:19:26Z</time>
      </trkpt>
      <trkpt lat="46.73529" lon="4.15179">
        <ele>383.22</ele>
        <time>2021-08-13T05:19:27Z</time>
      </trkpt>
      <trkpt lat="46.73539" lon="4.15176">
        <ele>382.26</ele>
        <time>2021-08-13T05:19:28Z</time>
      </trkpt>
      <trkpt lat="46.73549" lon="4.15171">
        <ele>381.3</ele>
        <time>2021-08-13T05:19:29Z</time>
      </trkpt>
      <trkpt lat="46.73566" lon="4.15157">
        <ele>380.82</ele>
        <time>2021-08-13T05:19:31Z</time>
      </trkpt>
      <trkpt lat="46.73572" lon="4.15144">
        <ele>379.86</ele>
        <time>2021-08-13T05:19:32Z</time>
      </trkpt>
      <trkpt lat="46.73576" lon="4.1513">
        <ele>378.42</ele>
        <time>2021-08-13T05:19:33Z</time>
      </trkpt>
      <trkpt lat="46.73578" lon="4.15114">
        <ele>377.94</ele>
        <time>2021-08-13T05:19:34Z</time>
      </trkpt>
      <trkpt lat="46.73578" lon="4.15098">
        <ele>377.94</ele>
        <time>2021-08-13T05:19:35Z</time>
      </trkpt>
      <trkpt lat="46.73576" lon="4.15082">
        <ele>376.97</ele>
        <time>2021-08-13T05:19:36Z</time>
      </trkpt>
      <trkpt lat="46.73573" lon="4.15066">
        <ele>376.01</ele>
        <time>2021-08-13T05:19:37Z</time>
      </trkpt>
      <trkpt lat="46.73569" lon="4.15051">
        <ele>375.05</ele>
        <time>2021-08-13T05:19:38Z</time>
      </trkpt>
      <trkpt lat="46.73549" lon="4.14972">
        <ele>372.17</ele>
        <time>2021-08-13T05:19:43Z</time>
      </trkpt>
      <trkpt lat="46.73548" lon="4.14958">
        <ele>370.73</ele>
        <time>2021-08-13T05:19:44Z</time>
      </trkpt>
      <trkpt lat="46.73549" lon="4.14942">
        <ele>370.24</ele>
        <time>2021-08-13T05:19:45Z</time>
      </trkpt>
      <trkpt lat="46.73553" lon="4.14928">
        <ele>369.76</ele>
        <time>2021-08-13T05:19:46Z</time>
      </trkpt>
      <trkpt lat="46.73558" lon="4.14915">
        <ele>368.8</ele>
        <time>2021-08-13T05:19:47Z</time>
      </trkpt>
      <trkpt lat="46.73563" lon="4.14903">
        <ele>368.8</ele>
        <time>2021-08-13T05:19:48Z</time>
      </trkpt>
      <trkpt lat="46.73569" lon="4.14892">
        <ele>367.36</ele>
        <time>2021-08-13T05:19:49Z</time>
      </trkpt>
      <trkpt lat="46.73576" lon="4.14879">
        <ele>366.88</ele>
        <time>2021-08-13T05:19:50Z</time>
      </trkpt>
      <trkpt lat="46.73581" lon="4.14867">
        <ele>365.92</ele>
        <time>2021-08-13T05:19:51Z</time>
      </trkpt>
      <trkpt lat="46.73586" lon="4.14854">
        <ele>365.44</ele>
        <time>2021-08-13T05:19:52Z</time>
      </trkpt>
      <trkpt lat="46.73601" lon="4.14817">
        <ele>364.48</ele>
        <time>2021-08-13T05:19:55Z</time>
      </trkpt>
      <trkpt lat="46.73616" lon="4.14788">
        <ele>363.52</ele>
        <time>2021-08-13T05:19:59Z</time>
      </trkpt>
      <trkpt lat="46.73617" lon="4.14783">
        <ele>363.52</ele>
        <time>2021-08-13T05:20:00Z</time>
      </trkpt>
      <trkpt lat="46.73616" lon="4.14781">
        <ele>363.04</ele>
        <time>2021-08-13T05:20:01Z</time>
      </trkpt>
      <trkpt lat="46.73613" lon="4.14781">
        <ele>363.04</ele>
        <time>2021-08-13T05:20:02Z</time>
      </trkpt>
      <trkpt lat="46.7361" lon="4.14784">
        <ele>362.55</ele>
        <time>2021-08-13T05:20:03Z</time>
      </trkpt>
      <trkpt lat="46.73608" lon="4.14787">
        <ele>362.55</ele>
        <time>2021-08-13T05:20:04Z</time>
      </trkpt>
      <trkpt lat="46.73606" lon="4.14791">
        <ele>362.55</ele>
        <time>2021-08-13T05:20:05Z</time>
      </trkpt>
      <trkpt lat="46.73589" lon="4.14823">
        <ele>362.55</ele>
        <time>2021-08-13T05:20:12Z</time>
      </trkpt>
      <trkpt lat="46.73574" lon="4.14851">
        <ele>362.55</ele>
        <time>2021-08-13T05:20:18Z</time>
      </trkpt>
      <trkpt lat="46.73565" lon="4.14863">
        <ele>362.55</ele>
        <time>2021-08-13T05:20:21Z</time>
      </trkpt>
      <trkpt lat="46.73562" lon="4.14866">
        <ele>362.55</ele>
        <time>2021-08-13T05:20:22Z</time>
      </trkpt>
      <trkpt lat="46.73558" lon="4.14869">
        <ele>362.55</ele>
        <time>2021-08-13T05:20:23Z</time>
      </trkpt>
      <trkpt lat="46.73554" lon="4.14872">
        <ele>362.55</ele>
        <time>2021-08-13T05:20:24Z</time>
      </trkpt>
      <trkpt lat="46.7355" lon="4.14874">
        <ele>362.55</ele>
        <time>2021-08-13T05:20:25Z</time>
      </trkpt>
      <trkpt lat="46.73527" lon="4.14902">
        <ele>362.55</ele>
        <time>2021-08-13T05:20:33Z</time>
      </trkpt>
      <trkpt lat="46.73517" lon="4.14943">
        <ele>362.55</ele>
        <time>2021-08-13T05:20:41Z</time>
      </trkpt>
      <trkpt lat="46.73519" lon="4.14972">
        <ele>362.55</ele>
        <time>2021-08-13T05:20:46Z</time>
      </trkpt>
      <trkpt lat="46.73534" lon="4.15019">
        <ele>363.52</ele>
        <time>2021-08-13T05:20:55Z</time>
      </trkpt>
      <trkpt lat="46.7353" lon="4.15043">
        <ele>363.52</ele>
        <time>2021-08-13T05:21:00Z</time>
      </trkpt>
      <trkpt lat="46.73514" lon="4.15055">
        <ele>363.52</ele>
        <time>2021-08-13T05:21:05Z</time>
      </trkpt>
      <trkpt lat="46.73485" lon="4.15057">
        <ele>364</ele>
        <time>2021-08-13T05:21:13Z</time>
      </trkpt>
      <trkpt lat="46.7346" lon="4.15075">
        <ele>364</ele>
        <time>2021-08-13T05:21:20Z</time>
      </trkpt>
      <trkpt lat="46.73432" lon="4.15104">
        <ele>364</ele>
        <time>2021-08-13T05:21:29Z</time>
      </trkpt>
      <trkpt lat="46.73418" lon="4.15122">
        <ele>364.48</ele>
        <time>2021-08-13T05:21:34Z</time>
      </trkpt>
      <trkpt lat="46.73396" lon="4.15139">
        <ele>364.48</ele>
        <time>2021-08-13T05:21:41Z</time>
      </trkpt>
      <trkpt lat="46.73373" lon="4.15138">
        <ele>364.48</ele>
        <time>2021-08-13T05:21:47Z</time>
      </trkpt>
      <trkpt lat="46.73354" lon="4.15139">
        <ele>364.48</ele>
        <time>2021-08-13T05:21:52Z</time>
      </trkpt>
      <trkpt lat="46.7333" lon="4.15148">
        <ele>364.48</ele>
        <time>2021-08-13T05:21:58Z</time>
      </trkpt>
      <trkpt lat="46.73297" lon="4.15161">
        <ele>364.48</ele>
        <time>2021-08-13T05:22:06Z</time>
      </trkpt>
      <trkpt lat="46.73288" lon="4.15164">
        <ele>364.48</ele>
        <time>2021-08-13T05:22:08Z</time>
      </trkpt>
      <trkpt lat="46.73253" lon="4.15182">
        <ele>364.96</ele>
        <time>2021-08-13T05:22:17Z</time>
      </trkpt>
      <trkpt lat="46.73234" lon="4.15191">
        <ele>365.44</ele>
        <time>2021-08-13T05:22:22Z</time>
      </trkpt>
      <trkpt lat="46.73229" lon="4.15192">
        <ele>365.44</ele>
        <time>2021-08-13T05:22:23Z</time>
      </trkpt>
      <trkpt lat="46.73201" lon="4.15189">
        <ele>365.44</ele>
        <time>2021-08-13T05:22:30Z</time>
      </trkpt>
      <trkpt lat="46.73172" lon="4.1518">
        <ele>364.96</ele>
        <time>2021-08-13T05:22:37Z</time>
      </trkpt>
      <trkpt lat="46.73159" lon="4.1518">
        <ele>364.96</ele>
        <time>2021-08-13T05:22:40Z</time>
      </trkpt>
      <trkpt lat="46.73155" lon="4.15179">
        <ele>364.96</ele>
        <time>2021-08-13T05:22:41Z</time>
      </trkpt>
      <trkpt lat="46.73151" lon="4.15177">
        <ele>364.96</ele>
        <time>2021-08-13T05:22:42Z</time>
      </trkpt>
      <trkpt lat="46.73146" lon="4.15173">
        <ele>364.96</ele>
        <time>2021-08-13T05:22:43Z</time>
      </trkpt>
      <trkpt lat="46.73143" lon="4.15171">
        <ele>364.96</ele>
        <time>2021-08-13T05:22:44Z</time>
      </trkpt>
      <trkpt lat="46.7314" lon="4.15168">
        <ele>364.96</ele>
        <time>2021-08-13T05:22:45Z</time>
      </trkpt>
      <trkpt lat="46.73129" lon="4.15156">
        <ele>364</ele>
        <time>2021-08-13T05:22:48Z</time>
      </trkpt>
      <trkpt lat="46.73125" lon="4.15153">
        <ele>364</ele>
        <time>2021-08-13T05:22:49Z</time>
      </trkpt>
      <trkpt lat="46.73121" lon="4.15151">
        <ele>364</ele>
        <time>2021-08-13T05:22:50Z</time>
      </trkpt>
      <trkpt lat="46.73095" lon="4.15135">
        <ele>364.96</ele>
        <time>2021-08-13T05:22:57Z</time>
      </trkpt>
      <trkpt lat="46.73071" lon="4.15107">
        <ele>364.48</ele>
        <time>2021-08-13T05:23:05Z</time>
      </trkpt>
      <trkpt lat="46.73068" lon="4.15102">
        <ele>364.48</ele>
        <time>2021-08-13T05:23:06Z</time>
      </trkpt>
      <trkpt lat="46.73065" lon="4.15097">
        <ele>364.48</ele>
        <time>2021-08-13T05:23:07Z</time>
      </trkpt>
      <trkpt lat="46.73052" lon="4.1508">
        <ele>363.52</ele>
        <time>2021-08-13T05:23:11Z</time>
      </trkpt>
      <trkpt lat="46.73049" lon="4.15078">
        <ele>363.52</ele>
        <time>2021-08-13T05:23:12Z</time>
      </trkpt>
      <trkpt lat="46.73027" lon="4.15072">
        <ele>364.96</ele>
        <time>2021-08-13T05:23:18Z</time>
      </trkpt>
      <trkpt lat="46.73007" lon="4.15066">
        <ele>365.44</ele>
        <time>2021-08-13T05:23:24Z</time>
      </trkpt>
      <trkpt lat="46.72986" lon="4.15056">
        <ele>366.88</ele>
        <time>2021-08-13T05:23:32Z</time>
      </trkpt>
      <trkpt lat="46.72968" lon="4.15043">
        <ele>366.88</ele>
        <time>2021-08-13T05:23:38Z</time>
      </trkpt>
      <trkpt lat="46.72951" lon="4.1503">
        <ele>366.88</ele>
        <time>2021-08-13T05:23:44Z</time>
      </trkpt>
      <trkpt lat="46.72927" lon="4.15016">
        <ele>367.36</ele>
        <time>2021-08-13T05:23:51Z</time>
      </trkpt>
      <trkpt lat="46.72923" lon="4.15013">
        <ele>365.92</ele>
        <time>2021-08-13T05:23:52Z</time>
      </trkpt>
      <trkpt lat="46.72919" lon="4.15011">
        <ele>365.92</ele>
        <time>2021-08-13T05:23:53Z</time>
      </trkpt>
      <trkpt lat="46.72904" lon="4.15004">
        <ele>364.96</ele>
        <time>2021-08-13T05:23:56Z</time>
      </trkpt>
      <trkpt lat="46.72899" lon="4.15">
        <ele>364.48</ele>
        <time>2021-08-13T05:23:57Z</time>
      </trkpt>
      <trkpt lat="46.72894" lon="4.14996">
        <ele>364</ele>
        <time>2021-08-13T05:23:58Z</time>
      </trkpt>
      <trkpt lat="46.72853" lon="4.1497">
        <ele>362.07</ele>
        <time>2021-08-13T05:24:05Z</time>
      </trkpt>
      <trkpt lat="46.72811" lon="4.14953">
        <ele>361.11</ele>
        <time>2021-08-13T05:24:12Z</time>
      </trkpt>
      <trkpt lat="46.72799" lon="4.1495">
        <ele>361.11</ele>
        <time>2021-08-13T05:24:14Z</time>
      </trkpt>
      <trkpt lat="46.72793" lon="4.1495">
        <ele>361.11</ele>
        <time>2021-08-13T05:24:15Z</time>
      </trkpt>
      <trkpt lat="46.72788" lon="4.14951">
        <ele>361.11</ele>
        <time>2021-08-13T05:24:16Z</time>
      </trkpt>
      <trkpt lat="46.72783" lon="4.14955">
        <ele>361.11</ele>
        <time>2021-08-13T05:24:17Z</time>
      </trkpt>
      <trkpt lat="46.72779" lon="4.14959">
        <ele>361.11</ele>
        <time>2021-08-13T05:24:18Z</time>
      </trkpt>
      <trkpt lat="46.72776" lon="4.14964">
        <ele>360.15</ele>
        <time>2021-08-13T05:24:19Z</time>
      </trkpt>
      <trkpt lat="46.72772" lon="4.14969">
        <ele>360.15</ele>
        <time>2021-08-13T05:24:20Z</time>
      </trkpt>
      <trkpt lat="46.72765" lon="4.14978">
        <ele>359.67</ele>
        <time>2021-08-13T05:24:22Z</time>
      </trkpt>
      <trkpt lat="46.72761" lon="4.14984">
        <ele>359.67</ele>
        <time>2021-08-13T05:24:23Z</time>
      </trkpt>
      <trkpt lat="46.72743" lon="4.15014">
        <ele>356.79</ele>
        <time>2021-08-13T05:24:28Z</time>
      </trkpt>
      <trkpt lat="46.72731" lon="4.15032">
        <ele>352.46</ele>
        <time>2021-08-13T05:24:31Z</time>
      </trkpt>
      <trkpt lat="46.72715" lon="4.1506">
        <ele>348.13</ele>
        <time>2021-08-13T05:24:34Z</time>
      </trkpt>
      <trkpt lat="46.72692" lon="4.15097">
        <ele>345.73</ele>
        <time>2021-08-13T05:24:38Z</time>
      </trkpt>
      <trkpt lat="46.72673" lon="4.15128">
        <ele>343.33</ele>
        <time>2021-08-13T05:24:42Z</time>
      </trkpt>
      <trkpt lat="46.72668" lon="4.15137">
        <ele>342.37</ele>
        <time>2021-08-13T05:24:43Z</time>
      </trkpt>
      <trkpt lat="46.72662" lon="4.15145">
        <ele>341.41</ele>
        <time>2021-08-13T05:24:44Z</time>
      </trkpt>
      <trkpt lat="46.72649" lon="4.1516">
        <ele>340.44</ele>
        <time>2021-08-13T05:24:46Z</time>
      </trkpt>
      <trkpt lat="46.72631" lon="4.15173">
        <ele>338.52</ele>
        <time>2021-08-13T05:24:48Z</time>
      </trkpt>
      <trkpt lat="46.72612" lon="4.1519">
        <ele>337.08</ele>
        <time>2021-08-13T05:24:50Z</time>
      </trkpt>
      <trkpt lat="46.72586" lon="4.15213">
        <ele>336.6</ele>
        <time>2021-08-13T05:24:53Z</time>
      </trkpt>
      <trkpt lat="46.7258" lon="4.15222">
        <ele>336.6</ele>
        <time>2021-08-13T05:24:54Z</time>
      </trkpt>
      <trkpt lat="46.72561" lon="4.15251">
        <ele>338.52</ele>
        <time>2021-08-13T05:24:58Z</time>
      </trkpt>
      <trkpt lat="46.72558" lon="4.15255">
        <ele>339</ele>
        <time>2021-08-13T05:24:59Z</time>
      </trkpt>
      <trkpt lat="46.72539" lon="4.15274">
        <ele>339.96</ele>
        <time>2021-08-13T05:25:05Z</time>
      </trkpt>
      <trkpt lat="46.72536" lon="4.15277">
        <ele>339.96</ele>
        <time>2021-08-13T05:25:06Z</time>
      </trkpt>
      <trkpt lat="46.72532" lon="4.15281">
        <ele>339.96</ele>
        <time>2021-08-13T05:25:07Z</time>
      </trkpt>
      <trkpt lat="46.72518" lon="4.15291">
        <ele>339.96</ele>
        <time>2021-08-13T05:25:11Z</time>
      </trkpt>
      <trkpt lat="46.72514" lon="4.15294">
        <ele>339.96</ele>
        <time>2021-08-13T05:25:12Z</time>
      </trkpt>
      <trkpt lat="46.72496" lon="4.15307">
        <ele>338.52</ele>
        <time>2021-08-13T05:25:17Z</time>
      </trkpt>
      <trkpt lat="46.72491" lon="4.15309">
        <ele>338.52</ele>
        <time>2021-08-13T05:25:18Z</time>
      </trkpt>
      <trkpt lat="46.72478" lon="4.15315">
        <ele>337.08</ele>
        <time>2021-08-13T05:25:21Z</time>
      </trkpt>
      <trkpt lat="46.72473" lon="4.15317">
        <ele>336.6</ele>
        <time>2021-08-13T05:25:22Z</time>
      </trkpt>
      <trkpt lat="46.72467" lon="4.15319">
        <ele>336.12</ele>
        <time>2021-08-13T05:25:23Z</time>
      </trkpt>
      <trkpt lat="46.72442" lon="4.15324">
        <ele>332.75</ele>
        <time>2021-08-13T05:25:27Z</time>
      </trkpt>
      <trkpt lat="46.72401" lon="4.15325">
        <ele>329.87</ele>
        <time>2021-08-13T05:25:33Z</time>
      </trkpt>
      <trkpt lat="46.72395" lon="4.15327">
        <ele>329.87</ele>
        <time>2021-08-13T05:25:34Z</time>
      </trkpt>
      <trkpt lat="46.72389" lon="4.1533">
        <ele>329.87</ele>
        <time>2021-08-13T05:25:35Z</time>
      </trkpt>
      <trkpt lat="46.72383" lon="4.15334">
        <ele>329.39</ele>
        <time>2021-08-13T05:25:36Z</time>
      </trkpt>
      <trkpt lat="46.72373" lon="4.15345">
        <ele>329.39</ele>
        <time>2021-08-13T05:25:38Z</time>
      </trkpt>
      <trkpt lat="46.7235" lon="4.15379">
        <ele>327.95</ele>
        <time>2021-08-13T05:25:43Z</time>
      </trkpt>
      <trkpt lat="46.72344" lon="4.15384">
        <ele>327.47</ele>
        <time>2021-08-13T05:25:44Z</time>
      </trkpt>
      <trkpt lat="46.72338" lon="4.15389">
        <ele>326.99</ele>
        <time>2021-08-13T05:25:45Z</time>
      </trkpt>
      <trkpt lat="46.72296" lon="4.15411">
        <ele>323.14</ele>
        <time>2021-08-13T05:25:51Z</time>
      </trkpt>
      <trkpt lat="46.72278" lon="4.15423">
        <ele>322.18</ele>
        <time>2021-08-13T05:25:54Z</time>
      </trkpt>
      <trkpt lat="46.72273" lon="4.1543">
        <ele>321.7</ele>
        <time>2021-08-13T05:25:55Z</time>
      </trkpt>
      <trkpt lat="46.72268" lon="4.15437">
        <ele>320.74</ele>
        <time>2021-08-13T05:25:56Z</time>
      </trkpt>
      <trkpt lat="46.72263" lon="4.15445">
        <ele>320.74</ele>
        <time>2021-08-13T05:25:57Z</time>
      </trkpt>
      <trkpt lat="46.72257" lon="4.15452">
        <ele>320.26</ele>
        <time>2021-08-13T05:25:58Z</time>
      </trkpt>
      <trkpt lat="46.72214" lon="4.15511">
        <ele>317.85</ele>
        <time>2021-08-13T05:26:06Z</time>
      </trkpt>
      <trkpt lat="46.72166" lon="4.15575">
        <ele>314.97</ele>
        <time>2021-08-13T05:26:15Z</time>
      </trkpt>
      <trkpt lat="46.72111" lon="4.15637">
        <ele>313.05</ele>
        <time>2021-08-13T05:26:25Z</time>
      </trkpt>
      <trkpt lat="46.72084" lon="4.15657">
        <ele>312.09</ele>
        <time>2021-08-13T05:26:31Z</time>
      </trkpt>
      <trkpt lat="46.72076" lon="4.15662">
        <ele>311.6</ele>
        <time>2021-08-13T05:26:33Z</time>
      </trkpt>
      <trkpt lat="46.72071" lon="4.15665">
        <ele>311.6</ele>
        <time>2021-08-13T05:26:34Z</time>
      </trkpt>
      <trkpt lat="46.72038" lon="4.15691">
        <ele>308.24</ele>
        <time>2021-08-13T05:26:40Z</time>
      </trkpt>
      <trkpt lat="46.71974" lon="4.15744">
        <ele>306.32</ele>
        <time>2021-08-13T05:26:50Z</time>
      </trkpt>
      <trkpt lat="46.71927" lon="4.15774">
        <ele>305.36</ele>
        <time>2021-08-13T05:26:57Z</time>
      </trkpt>
      <trkpt lat="46.71921" lon="4.15776">
        <ele>305.36</ele>
        <time>2021-08-13T05:26:58Z</time>
      </trkpt>
      <trkpt lat="46.71914" lon="4.15778">
        <ele>305.36</ele>
        <time>2021-08-13T05:26:59Z</time>
      </trkpt>
      <trkpt lat="46.71857" lon="4.1578">
        <ele>305.36</ele>
        <time>2021-08-13T05:27:08Z</time>
      </trkpt>
      <trkpt lat="46.7179" lon="4.15774">
        <ele>303.43</ele>
        <time>2021-08-13T05:27:18Z</time>
      </trkpt>
      <trkpt lat="46.7177" lon="4.15773">
        <ele>303.43</ele>
        <time>2021-08-13T05:27:21Z</time>
      </trkpt>
      <trkpt lat="46.71707" lon="4.15768">
        <ele>302.47</ele>
        <time>2021-08-13T05:27:30Z</time>
      </trkpt>
      <trkpt lat="46.7166" lon="4.15755">
        <ele>301.51</ele>
        <time>2021-08-13T05:27:37Z</time>
      </trkpt>
      <trkpt lat="46.71648" lon="4.15746">
        <ele>301.51</ele>
        <time>2021-08-13T05:27:39Z</time>
      </trkpt>
      <trkpt lat="46.71612" lon="4.15711">
        <ele>302.95</ele>
        <time>2021-08-13T05:27:47Z</time>
      </trkpt>
      <trkpt lat="46.71591" lon="4.15691">
        <ele>303.43</ele>
        <time>2021-08-13T05:27:53Z</time>
      </trkpt>
      <trkpt lat="46.71586" lon="4.15688">
        <ele>303.43</ele>
        <time>2021-08-13T05:27:54Z</time>
      </trkpt>
      <trkpt lat="46.71581" lon="4.15688">
        <ele>303.43</ele>
        <time>2021-08-13T05:27:55Z</time>
      </trkpt>
      <trkpt lat="46.71576" lon="4.15689">
        <ele>301.99</ele>
        <time>2021-08-13T05:27:56Z</time>
      </trkpt>
      <trkpt lat="46.71571" lon="4.15692">
        <ele>301.99</ele>
        <time>2021-08-13T05:27:57Z</time>
      </trkpt>
      <trkpt lat="46.71567" lon="4.15695">
        <ele>301.99</ele>
        <time>2021-08-13T05:27:58Z</time>
      </trkpt>
      <trkpt lat="46.71562" lon="4.157">
        <ele>301.03</ele>
        <time>2021-08-13T05:27:59Z</time>
      </trkpt>
      <trkpt lat="46.71523" lon="4.15745">
        <ele>298.63</ele>
        <time>2021-08-13T05:28:07Z</time>
      </trkpt>
      <trkpt lat="46.71491" lon="4.15792">
        <ele>294.3</ele>
        <time>2021-08-13T05:28:13Z</time>
      </trkpt>
      <trkpt lat="46.71472" lon="4.15823">
        <ele>290.94</ele>
        <time>2021-08-13T05:28:16Z</time>
      </trkpt>
      <trkpt lat="46.71417" lon="4.15913">
        <ele>288.05</ele>
        <time>2021-08-13T05:28:24Z</time>
      </trkpt>
      <trkpt lat="46.71387" lon="4.15968">
        <ele>289.97</ele>
        <time>2021-08-13T05:28:30Z</time>
      </trkpt>
      <trkpt lat="46.71383" lon="4.15975">
        <ele>289.97</ele>
        <time>2021-08-13T05:28:31Z</time>
      </trkpt>
      <trkpt lat="46.7137" lon="4.16001">
        <ele>292.86</ele>
        <time>2021-08-13T05:28:36Z</time>
      </trkpt>
      <trkpt lat="46.71359" lon="4.1602">
        <ele>294.78</ele>
        <time>2021-08-13T05:28:43Z</time>
      </trkpt>
      <trkpt lat="46.71344" lon="4.16048">
        <ele>296.22</ele>
        <time>2021-08-13T05:28:55Z</time>
      </trkpt>
      <trkpt lat="46.71334" lon="4.16067">
        <ele>297.67</ele>
        <time>2021-08-13T05:29:04Z</time>
      </trkpt>
      <trkpt lat="46.71324" lon="4.16084">
        <ele>299.11</ele>
        <time>2021-08-13T05:29:13Z</time>
      </trkpt>
      <trkpt lat="46.71316" lon="4.16099">
        <ele>300.07</ele>
        <time>2021-08-13T05:29:20Z</time>
      </trkpt>
      <trkpt lat="46.71307" lon="4.16117">
        <ele>301.51</ele>
        <time>2021-08-13T05:29:30Z</time>
      </trkpt>
      <trkpt lat="46.71299" lon="4.16135">
        <ele>302.47</ele>
        <time>2021-08-13T05:29:39Z</time>
      </trkpt>
      <trkpt lat="46.71285" lon="4.16155">
        <ele>303.91</ele>
        <time>2021-08-13T05:29:51Z</time>
      </trkpt>
      <trkpt lat="46.71274" lon="4.1616">
        <ele>304.88</ele>
        <time>2021-08-13T05:29:59Z</time>
      </trkpt>
      <trkpt lat="46.7126" lon="4.16152">
        <ele>305.84</ele>
        <time>2021-08-13T05:30:08Z</time>
      </trkpt>
      <trkpt lat="46.7125" lon="4.16141">
        <ele>307.28</ele>
        <time>2021-08-13T05:30:15Z</time>
      </trkpt>
      <trkpt lat="46.71239" lon="4.16131">
        <ele>307.76</ele>
        <time>2021-08-13T05:30:23Z</time>
      </trkpt>
      <trkpt lat="46.71226" lon="4.16117">
        <ele>309.2</ele>
        <time>2021-08-13T05:30:33Z</time>
      </trkpt>
      <trkpt lat="46.71213" lon="4.16104">
        <ele>311.12</ele>
        <time>2021-08-13T05:30:43Z</time>
      </trkpt>
      <trkpt lat="46.71211" lon="4.16102">
        <ele>311.12</ele>
        <time>2021-08-13T05:30:44Z</time>
      </trkpt>
      <trkpt lat="46.71209" lon="4.16101">
        <ele>311.12</ele>
        <time>2021-08-13T05:30:45Z</time>
      </trkpt>
      <trkpt lat="46.71208" lon="4.161">
        <ele>311.12</ele>
        <time>2021-08-13T05:30:46Z</time>
      </trkpt>
      <trkpt lat="46.71206" lon="4.16099">
        <ele>311.12</ele>
        <time>2021-08-13T05:30:47Z</time>
      </trkpt>
      <trkpt lat="46.71205" lon="4.16096">
        <ele>311.12</ele>
        <time>2021-08-13T05:30:48Z</time>
      </trkpt>
      <trkpt lat="46.71204" lon="4.16094">
        <ele>311.6</ele>
        <time>2021-08-13T05:30:49Z</time>
      </trkpt>
      <trkpt lat="46.71194" lon="4.1608">
        <ele>312.09</ele>
        <time>2021-08-13T05:30:56Z</time>
      </trkpt>
      <trkpt lat="46.71182" lon="4.16063">
        <ele>313.05</ele>
        <time>2021-08-13T05:31:04Z</time>
      </trkpt>
      <trkpt lat="46.71171" lon="4.16048">
        <ele>314.01</ele>
        <time>2021-08-13T05:31:11Z</time>
      </trkpt>
      <trkpt lat="46.71158" lon="4.1603">
        <ele>314.49</ele>
        <time>2021-08-13T05:31:19Z</time>
      </trkpt>
      <trkpt lat="46.71141" lon="4.16008">
        <ele>314.49</ele>
        <time>2021-08-13T05:31:27Z</time>
      </trkpt>
      <trkpt lat="46.71119" lon="4.15977">
        <ele>314.49</ele>
        <time>2021-08-13T05:31:36Z</time>
      </trkpt>
      <trkpt lat="46.71101" lon="4.15953">
        <ele>313.05</ele>
        <time>2021-08-13T05:31:42Z</time>
      </trkpt>
      <trkpt lat="46.71072" lon="4.15912">
        <ele>311.12</ele>
        <time>2021-08-13T05:31:50Z</time>
      </trkpt>
      <trkpt lat="46.71036" lon="4.15861">
        <ele>308.24</ele>
        <time>2021-08-13T05:31:57Z</time>
      </trkpt>
      <trkpt lat="46.70977" lon="4.15778">
        <ele>304.39</ele>
        <time>2021-08-13T05:32:07Z</time>
      </trkpt>
      <trkpt lat="46.70915" lon="4.15693">
        <ele>301.03</ele>
        <time>2021-08-13T05:32:17Z</time>
      </trkpt>
      <trkpt lat="46.70863" lon="4.1562">
        <ele>297.67</ele>
        <time>2021-08-13T05:32:25Z</time>
      </trkpt>
      <trkpt lat="46.70835" lon="4.1558">
        <ele>294.78</ele>
        <time>2021-08-13T05:32:29Z</time>
      </trkpt>
      <trkpt lat="46.70827" lon="4.15568">
        <ele>294.78</ele>
        <time>2021-08-13T05:32:30Z</time>
      </trkpt>
      <trkpt lat="46.70789" lon="4.15517">
        <ele>291.42</ele>
        <time>2021-08-13T05:32:35Z</time>
      </trkpt>
      <trkpt lat="46.70732" lon="4.15449">
        <ele>289.01</ele>
        <time>2021-08-13T05:32:42Z</time>
      </trkpt>
      <trkpt lat="46.70687" lon="4.15396">
        <ele>290.94</ele>
        <time>2021-08-13T05:32:48Z</time>
      </trkpt>
      <trkpt lat="46.7065" lon="4.15346">
        <ele>293.34</ele>
        <time>2021-08-13T05:32:55Z</time>
      </trkpt>
      <trkpt lat="46.70622" lon="4.15307">
        <ele>294.78</ele>
        <time>2021-08-13T05:33:02Z</time>
      </trkpt>
      <trkpt lat="46.70589" lon="4.15259">
        <ele>295.26</ele>
        <time>2021-08-13T05:33:12Z</time>
      </trkpt>
      <trkpt lat="46.70558" lon="4.15214">
        <ele>295.74</ele>
        <time>2021-08-13T05:33:21Z</time>
      </trkpt>
      <trkpt lat="46.70515" lon="4.15151">
        <ele>294.3</ele>
        <time>2021-08-13T05:33:32Z</time>
      </trkpt>
      <trkpt lat="46.70474" lon="4.15091">
        <ele>293.34</ele>
        <time>2021-08-13T05:33:42Z</time>
      </trkpt>
      <trkpt lat="46.70442" lon="4.15044">
        <ele>290.94</ele>
        <time>2021-08-13T05:33:50Z</time>
      </trkpt>
      <trkpt lat="46.7042" lon="4.15013">
        <ele>290.46</ele>
        <time>2021-08-13T05:33:55Z</time>
      </trkpt>
      <trkpt lat="46.70418" lon="4.15008">
        <ele>290.46</ele>
        <time>2021-08-13T05:33:56Z</time>
      </trkpt>
      <trkpt lat="46.70417" lon="4.15005">
        <ele>290.46</ele>
        <time>2021-08-13T05:33:57Z</time>
      </trkpt>
      <trkpt lat="46.70416" lon="4.15003">
        <ele>290.46</ele>
        <time>2021-08-13T05:33:58Z</time>
      </trkpt>
      <trkpt lat="46.70415" lon="4.15001">
        <ele>290.46</ele>
        <time>2021-08-13T05:34:04Z</time>
      </trkpt>
      <trkpt lat="46.70415" lon="4.15002">
        <ele>290.46</ele>
        <time>2021-08-13T05:34:19Z</time>
      </trkpt>
      <trkpt lat="46.70415" lon="4.15002">
        <ele>290.46</ele>
        <time>2021-08-13T05:34:25Z</time>
      </trkpt>
      <trkpt lat="46.70415" lon="4.14998">
        <ele>289.97</ele>
        <time>2021-08-13T05:34:43Z</time>
      </trkpt>
      <trkpt lat="46.70413" lon="4.14997">
        <ele>289.49</ele>
        <time>2021-08-13T05:34:52Z</time>
      </trkpt>
      <trkpt lat="46.70413" lon="4.15">
        <ele>289.01</ele>
        <time>2021-08-13T05:35:18Z</time>
      </trkpt>
      <trkpt lat="46.70414" lon="4.15">
        <ele>288.53</ele>
        <time>2021-08-13T05:35:35Z</time>
      </trkpt>
      <trkpt lat="46.70411" lon="4.14998">
        <ele>289.97</ele>
        <time>2021-08-13T05:35:41Z</time>
      </trkpt>
      <trkpt lat="46.70409" lon="4.14996">
        <ele>289.97</ele>
        <time>2021-08-13T05:35:49Z</time>
      </trkpt>
      <trkpt lat="46.704" lon="4.14982">
        <ele>289.97</ele>
        <time>2021-08-13T05:35:56Z</time>
      </trkpt>
      <trkpt lat="46.70386" lon="4.14962">
        <ele>289.97</ele>
        <time>2021-08-13T05:36:03Z</time>
      </trkpt>
      <trkpt lat="46.70365" lon="4.14931">
        <ele>289.97</ele>
        <time>2021-08-13T05:36:12Z</time>
      </trkpt>
      <trkpt lat="46.70344" lon="4.14899">
        <ele>289.97</ele>
        <time>2021-08-13T05:36:21Z</time>
      </trkpt>
      <trkpt lat="46.70321" lon="4.14865">
        <ele>289.97</ele>
        <time>2021-08-13T05:36:30Z</time>
      </trkpt>
      <trkpt lat="46.70296" lon="4.14829">
        <ele>289.97</ele>
        <time>2021-08-13T05:36:39Z</time>
      </trkpt>
      <trkpt lat="46.70267" lon="4.14788">
        <ele>289.97</ele>
        <time>2021-08-13T05:36:49Z</time>
      </trkpt>
      <trkpt lat="46.70232" lon="4.14738">
        <ele>289.97</ele>
        <time>2021-08-13T05:37:00Z</time>
      </trkpt>
      <trkpt lat="46.70224" lon="4.14727">
        <ele>288.53</ele>
        <time>2021-08-13T05:37:02Z</time>
      </trkpt>
      <trkpt lat="46.70189" lon="4.14676">
        <ele>287.57</ele>
        <time>2021-08-13T05:37:11Z</time>
      </trkpt>
      <trkpt lat="46.70144" lon="4.14612">
        <ele>285.65</ele>
        <time>2021-08-13T05:37:21Z</time>
      </trkpt>
      <trkpt lat="46.70097" lon="4.14546">
        <ele>283.73</ele>
        <time>2021-08-13T05:37:30Z</time>
      </trkpt>
      <trkpt lat="46.70035" lon="4.14461">
        <ele>282.28</ele>
        <time>2021-08-13T05:37:41Z</time>
      </trkpt>
      <trkpt lat="46.69977" lon="4.14378">
        <ele>280.36</ele>
        <time>2021-08-13T05:37:52Z</time>
      </trkpt>
      <trkpt lat="46.69946" lon="4.14336">
        <ele>277</ele>
        <time>2021-08-13T05:37:57Z</time>
      </trkpt>
      <trkpt lat="46.6994" lon="4.14326">
        <ele>277</ele>
        <time>2021-08-13T05:37:58Z</time>
      </trkpt>
      <trkpt lat="46.69881" lon="4.14243">
        <ele>273.63</ele>
        <time>2021-08-13T05:38:07Z</time>
      </trkpt>
      <trkpt lat="46.69828" lon="4.14168">
        <ele>273.15</ele>
        <time>2021-08-13T05:38:16Z</time>
      </trkpt>
      <trkpt lat="46.69776" lon="4.14094">
        <ele>273.15</ele>
        <time>2021-08-13T05:38:26Z</time>
      </trkpt>
      <trkpt lat="46.69736" lon="4.14037">
        <ele>271.23</ele>
        <time>2021-08-13T05:38:34Z</time>
      </trkpt>
      <trkpt lat="46.69731" lon="4.14029">
        <ele>270.75</ele>
        <time>2021-08-13T05:38:35Z</time>
      </trkpt>
      <trkpt lat="46.69693" lon="4.13974">
        <ele>268.35</ele>
        <time>2021-08-13T05:38:42Z</time>
      </trkpt>
      <trkpt lat="46.69688" lon="4.13969">
        <ele>267.86</ele>
        <time>2021-08-13T05:38:43Z</time>
      </trkpt>
      <trkpt lat="46.69682" lon="4.13966">
        <ele>267.38</ele>
        <time>2021-08-13T05:38:44Z</time>
      </trkpt>
      <trkpt lat="46.69676" lon="4.13965">
        <ele>266.42</ele>
        <time>2021-08-13T05:38:45Z</time>
      </trkpt>
      <trkpt lat="46.6967" lon="4.13965">
        <ele>265.94</ele>
        <time>2021-08-13T05:38:46Z</time>
      </trkpt>
      <trkpt lat="46.69665" lon="4.13966">
        <ele>265.46</ele>
        <time>2021-08-13T05:38:47Z</time>
      </trkpt>
      <trkpt lat="46.69635" lon="4.13965">
        <ele>263.54</ele>
        <time>2021-08-13T05:38:52Z</time>
      </trkpt>
      <trkpt lat="46.6963" lon="4.13964">
        <ele>262.58</ele>
        <time>2021-08-13T05:38:53Z</time>
      </trkpt>
      <trkpt lat="46.69625" lon="4.13962">
        <ele>263.06</ele>
        <time>2021-08-13T05:38:54Z</time>
      </trkpt>
      <trkpt lat="46.69616" lon="4.13962">
        <ele>262.58</ele>
        <time>2021-08-13T05:38:56Z</time>
      </trkpt>
      <trkpt lat="46.69611" lon="4.13962">
        <ele>262.58</ele>
        <time>2021-08-13T05:38:57Z</time>
      </trkpt>
      <trkpt lat="46.69607" lon="4.13962">
        <ele>262.58</ele>
        <time>2021-08-13T05:38:58Z</time>
      </trkpt>
      <trkpt lat="46.69602" lon="4.13963">
        <ele>262.58</ele>
        <time>2021-08-13T05:38:59Z</time>
      </trkpt>
      <trkpt lat="46.69598" lon="4.13964">
        <ele>262.58</ele>
        <time>2021-08-13T05:39:00Z</time>
      </trkpt>
      <trkpt lat="46.69562" lon="4.13962">
        <ele>263.06</ele>
        <time>2021-08-13T05:39:08Z</time>
      </trkpt>
      <trkpt lat="46.69528" lon="4.13961">
        <ele>263.06</ele>
        <time>2021-08-13T05:39:16Z</time>
      </trkpt>
      <trkpt lat="46.69497" lon="4.1396">
        <ele>262.1</ele>
        <time>2021-08-13T05:39:21Z</time>
      </trkpt>
      <trkpt lat="46.69462" lon="4.1396">
        <ele>261.62</ele>
        <time>2021-08-13T05:39:28Z</time>
      </trkpt>
      <trkpt lat="46.6944" lon="4.1396">
        <ele>263.06</ele>
        <time>2021-08-13T05:39:34Z</time>
      </trkpt>
      <trkpt lat="46.6942" lon="4.13961">
        <ele>264.02</ele>
        <time>2021-08-13T05:39:41Z</time>
      </trkpt>
      <trkpt lat="46.69396" lon="4.13961">
        <ele>266.42</ele>
        <time>2021-08-13T05:39:51Z</time>
      </trkpt>
      <trkpt lat="46.6937" lon="4.13957">
        <ele>268.35</ele>
        <time>2021-08-13T05:40:02Z</time>
      </trkpt>
      <trkpt lat="46.69352" lon="4.13949">
        <ele>270.27</ele>
        <time>2021-08-13T05:40:12Z</time>
      </trkpt>
      <trkpt lat="46.6935" lon="4.1395">
        <ele>270.27</ele>
        <time>2021-08-13T05:40:13Z</time>
      </trkpt>
      <trkpt lat="46.6935" lon="4.13951">
        <ele>270.27</ele>
        <time>2021-08-13T05:40:14Z</time>
      </trkpt>
      <trkpt lat="46.6935" lon="4.13953">
        <ele>270.27</ele>
        <time>2021-08-13T05:40:15Z</time>
      </trkpt>
      <trkpt lat="46.6935" lon="4.13955">
        <ele>270.27</ele>
        <time>2021-08-13T05:40:16Z</time>
      </trkpt>
      <trkpt lat="46.6935" lon="4.13957">
        <ele>269.79</ele>
        <time>2021-08-13T05:40:17Z</time>
      </trkpt>
      <trkpt lat="46.6935" lon="4.13959">
        <ele>269.79</ele>
        <time>2021-08-13T05:40:18Z</time>
      </trkpt>
      <trkpt lat="46.6935" lon="4.13961">
        <ele>269.79</ele>
        <time>2021-08-13T05:40:24Z</time>
      </trkpt>
      <trkpt lat="46.69351" lon="4.13961">
        <ele>270.27</ele>
        <time>2021-08-13T05:40:32Z</time>
      </trkpt>
      <trkpt lat="46.6935" lon="4.13959">
        <ele>270.27</ele>
        <time>2021-08-13T05:40:47Z</time>
      </trkpt>
      <trkpt lat="46.69349" lon="4.13961">
        <ele>270.27</ele>
        <time>2021-08-13T05:40:48Z</time>
      </trkpt>
      <trkpt lat="46.69349" lon="4.13962">
        <ele>270.27</ele>
        <time>2021-08-13T05:40:49Z</time>
      </trkpt>
      <trkpt lat="46.69344" lon="4.13974">
        <ele>270.27</ele>
        <time>2021-08-13T05:40:58Z</time>
      </trkpt>
      <trkpt lat="46.69345" lon="4.13973">
        <ele>270.27</ele>
        <time>2021-08-13T05:40:59Z</time>
      </trkpt>
      <trkpt lat="46.69346" lon="4.13972">
        <ele>270.27</ele>
        <time>2021-08-13T05:41:00Z</time>
      </trkpt>
      <trkpt lat="46.69346" lon="4.1397">
        <ele>270.27</ele>
        <time>2021-08-13T05:41:01Z</time>
      </trkpt>
      <trkpt lat="46.69346" lon="4.13969">
        <ele>270.27</ele>
        <time>2021-08-13T05:41:02Z</time>
      </trkpt>
      <trkpt lat="46.69347" lon="4.13967">
        <ele>270.27</ele>
        <time>2021-08-13T05:41:03Z</time>
      </trkpt>
      <trkpt lat="46.69347" lon="4.13966">
        <ele>270.27</ele>
        <time>2021-08-13T05:41:04Z</time>
      </trkpt>
      <trkpt lat="46.69351" lon="4.13959">
        <ele>270.27</ele>
        <time>2021-08-13T05:41:12Z</time>
      </trkpt>
      <trkpt lat="46.69353" lon="4.13958">
        <ele>270.27</ele>
        <time>2021-08-13T05:41:23Z</time>
      </trkpt>
      <trkpt lat="46.69352" lon="4.13956">
        <ele>270.27</ele>
        <time>2021-08-13T05:41:28Z</time>
      </trkpt>
      <trkpt lat="46.69348" lon="4.1396">
        <ele>270.27</ele>
        <time>2021-08-13T05:41:35Z</time>
      </trkpt>
      <trkpt lat="46.69345" lon="4.13958">
        <ele>270.27</ele>
        <time>2021-08-13T05:41:40Z</time>
      </trkpt>
      <trkpt lat="46.69345" lon="4.13956">
        <ele>270.27</ele>
        <time>2021-08-13T05:41:41Z</time>
      </trkpt>
      <trkpt lat="46.69344" lon="4.13954">
        <ele>270.27</ele>
        <time>2021-08-13T05:41:42Z</time>
      </trkpt>
      <trkpt lat="46.69344" lon="4.13952">
        <ele>270.27</ele>
        <time>2021-08-13T05:41:43Z</time>
      </trkpt>
      <trkpt lat="46.69343" lon="4.13951">
        <ele>270.27</ele>
        <time>2021-08-13T05:41:44Z</time>
      </trkpt>
      <trkpt lat="46.69336" lon="4.13931">
        <ele>270.75</ele>
        <time>2021-08-13T05:41:54Z</time>
      </trkpt>
      <trkpt lat="46.69336" lon="4.13927">
        <ele>270.75</ele>
        <time>2021-08-13T05:41:56Z</time>
      </trkpt>
      <trkpt lat="46.69336" lon="4.13925">
        <ele>270.75</ele>
        <time>2021-08-13T05:41:57Z</time>
      </trkpt>
      <trkpt lat="46.69335" lon="4.13923">
        <ele>270.75</ele>
        <time>2021-08-13T05:41:58Z</time>
      </trkpt>
      <trkpt lat="46.69335" lon="4.13921">
        <ele>270.75</ele>
        <time>2021-08-13T05:41:59Z</time>
      </trkpt>
      <trkpt lat="46.69335" lon="4.1392">
        <ele>270.75</ele>
        <time>2021-08-13T05:42:00Z</time>
      </trkpt>
      <trkpt lat="46.69335" lon="4.13917">
        <ele>270.75</ele>
        <time>2021-08-13T05:42:07Z</time>
      </trkpt>
      <trkpt lat="46.69335" lon="4.13917">
        <ele>270.75</ele>
        <time>2021-08-13T05:42:18Z</time>
      </trkpt>
      <trkpt lat="46.69331" lon="4.1392">
        <ele>270.75</ele>
        <time>2021-08-13T05:42:32Z</time>
      </trkpt>
      <trkpt lat="46.69328" lon="4.13923">
        <ele>270.75</ele>
        <time>2021-08-13T05:42:47Z</time>
      </trkpt>
      <trkpt lat="46.69324" lon="4.13924">
        <ele>270.75</ele>
        <time>2021-08-13T05:43:01Z</time>
      </trkpt>
      <trkpt lat="46.69323" lon="4.13925">
        <ele>270.27</ele>
        <time>2021-08-13T05:43:16Z</time>
      </trkpt>
      <trkpt lat="46.69321" lon="4.13927">
        <ele>270.27</ele>
        <time>2021-08-13T05:43:28Z</time>
      </trkpt>
      <trkpt lat="46.69318" lon="4.1393">
        <ele>270.27</ele>
        <time>2021-08-13T05:43:38Z</time>
      </trkpt>
      <trkpt lat="46.69315" lon="4.13931">
        <ele>270.27</ele>
        <time>2021-08-13T05:43:54Z</time>
      </trkpt>
      <trkpt lat="46.69312" lon="4.13932">
        <ele>270.27</ele>
        <time>2021-08-13T05:44:09Z</time>
      </trkpt>
      <trkpt lat="46.69309" lon="4.13935">
        <ele>270.27</ele>
        <time>2021-08-13T05:44:18Z</time>
      </trkpt>
      <trkpt lat="46.69308" lon="4.13936">
        <ele>270.27</ele>
        <time>2021-08-13T05:44:26Z</time>
      </trkpt>
      <trkpt lat="46.69308" lon="4.13934">
        <ele>270.27</ele>
        <time>2021-08-13T05:44:40Z</time>
      </trkpt>
      <trkpt lat="46.69307" lon="4.13934">
        <ele>270.27</ele>
        <time>2021-08-13T05:44:59Z</time>
      </trkpt>
      <trkpt lat="46.69307" lon="4.13936">
        <ele>269.79</ele>
        <time>2021-08-13T05:45:14Z</time>
      </trkpt>
      <trkpt lat="46.69302" lon="4.13938">
        <ele>269.79</ele>
        <time>2021-08-13T05:45:30Z</time>
      </trkpt>
      <trkpt lat="46.69307" lon="4.13938">
        <ele>269.79</ele>
        <time>2021-08-13T05:45:47Z</time>
      </trkpt>
      <trkpt lat="46.69308" lon="4.13938">
        <ele>269.31</ele>
        <time>2021-08-13T05:46:02Z</time>
      </trkpt>
      <trkpt lat="46.69304" lon="4.13941">
        <ele>269.31</ele>
        <time>2021-08-13T05:46:19Z</time>
      </trkpt>
      <trkpt lat="46.69307" lon="4.13941">
        <ele>269.31</ele>
        <time>2021-08-13T05:46:36Z</time>
      </trkpt>
      <trkpt lat="46.69308" lon="4.13941">
        <ele>269.31</ele>
        <time>2021-08-13T05:46:55Z</time>
      </trkpt>
      <trkpt lat="46.69303" lon="4.13949">
        <ele>268.83</ele>
        <time>2021-08-13T05:47:14Z</time>
      </trkpt>
      <trkpt lat="46.69306" lon="4.13947">
        <ele>268.83</ele>
        <time>2021-08-13T05:47:34Z</time>
      </trkpt>
      <trkpt lat="46.69311" lon="4.13942">
        <ele>268.83</ele>
        <time>2021-08-13T05:47:50Z</time>
      </trkpt>
      <trkpt lat="46.6931" lon="4.13947">
        <ele>268.35</ele>
        <time>2021-08-13T05:48:08Z</time>
      </trkpt>
      <trkpt lat="46.69306" lon="4.1395">
        <ele>268.35</ele>
        <time>2021-08-13T05:48:21Z</time>
      </trkpt>
      <trkpt lat="46.69303" lon="4.13952">
        <ele>268.35</ele>
        <time>2021-08-13T05:48:35Z</time>
      </trkpt>
      <trkpt lat="46.69303" lon="4.13951">
        <ele>267.86</ele>
        <time>2021-08-13T05:48:51Z</time>
      </trkpt>
      <trkpt lat="46.69302" lon="4.13952">
        <ele>267.86</ele>
        <time>2021-08-13T05:49:08Z</time>
      </trkpt>
      <trkpt lat="46.69302" lon="4.13949">
        <ele>267.86</ele>
        <time>2021-08-13T05:49:24Z</time>
      </trkpt>
      <trkpt lat="46.69303" lon="4.13945">
        <ele>267.38</ele>
        <time>2021-08-13T05:49:38Z</time>
      </trkpt>
      <trkpt lat="46.69306" lon="4.13942">
        <ele>267.38</ele>
        <time>2021-08-13T05:49:50Z</time>
      </trkpt>
      <trkpt lat="46.69305" lon="4.13947">
        <ele>267.38</ele>
        <time>2021-08-13T05:50:06Z</time>
      </trkpt>
      <trkpt lat="46.69312" lon="4.13945">
        <ele>267.38</ele>
        <time>2021-08-13T05:50:09Z</time>
      </trkpt>
      <trkpt lat="46.69315" lon="4.13943">
        <ele>267.38</ele>
        <time>2021-08-13T05:50:10Z</time>
      </trkpt>
      <trkpt lat="46.69329" lon="4.13939">
        <ele>266.9</ele>
        <time>2021-08-13T05:50:15Z</time>
      </trkpt>
      <trkpt lat="46.69342" lon="4.13951">
        <ele>266.9</ele>
        <time>2021-08-13T05:50:25Z</time>
      </trkpt>
      <trkpt lat="46.69339" lon="4.13957">
        <ele>266.9</ele>
        <time>2021-08-13T05:50:31Z</time>
      </trkpt>
      <trkpt lat="46.6934" lon="4.13956">
        <ele>266.9</ele>
        <time>2021-08-13T05:50:39Z</time>
      </trkpt>
      <trkpt lat="46.69342" lon="4.13957">
        <ele>265.94</ele>
        <time>2021-08-13T05:50:56Z</time>
      </trkpt>
      <trkpt lat="46.69341" lon="4.13961">
        <ele>265.94</ele>
        <time>2021-08-13T05:50:57Z</time>
      </trkpt>
      <trkpt lat="46.69341" lon="4.13962">
        <ele>265.94</ele>
        <time>2021-08-13T05:51:01Z</time>
      </trkpt>
      <trkpt lat="46.69343" lon="4.13961">
        <ele>265.94</ele>
        <time>2021-08-13T05:51:03Z</time>
      </trkpt>
      <trkpt lat="46.69343" lon="4.13958">
        <ele>265.94</ele>
        <time>2021-08-13T05:51:08Z</time>
      </trkpt>
      <trkpt lat="46.69341" lon="4.13952">
        <ele>266.42</ele>
        <time>2021-08-13T05:51:34Z</time>
      </trkpt>
      <trkpt lat="46.69342" lon="4.13953">
        <ele>266.42</ele>
        <time>2021-08-13T05:51:54Z</time>
      </trkpt>
      <trkpt lat="46.69342" lon="4.13953">
        <ele>266.42</ele>
        <time>2021-08-13T05:52:12Z</time>
      </trkpt>
      <trkpt lat="46.69343" lon="4.13952">
        <ele>266.42</ele>
        <time>2021-08-13T05:52:30Z</time>
      </trkpt>
      <trkpt lat="46.69342" lon="4.13949">
        <ele>266.9</ele>
        <time>2021-08-13T05:52:52Z</time>
      </trkpt>
      <trkpt lat="46.69342" lon="4.13949">
        <ele>266.9</ele>
        <time>2021-08-13T05:53:14Z</time>
      </trkpt>
      <trkpt lat="46.69342" lon="4.13949">
        <ele>266.9</ele>
        <time>2021-08-13T05:53:34Z</time>
      </trkpt>
      <trkpt lat="46.69341" lon="4.13953">
        <ele>266.9</ele>
        <time>2021-08-13T05:53:56Z</time>
      </trkpt>
      <trkpt lat="46.69341" lon="4.13951">
        <ele>266.9</ele>
        <time>2021-08-13T05:54:13Z</time>
      </trkpt>
      <trkpt lat="46.69341" lon="4.1395">
        <ele>266.9</ele>
        <time>2021-08-13T05:54:18Z</time>
      </trkpt>
      <trkpt lat="46.69341" lon="4.13946">
        <ele>266.9</ele>
        <time>2021-08-13T05:54:40Z</time>
      </trkpt>
      <trkpt lat="46.69341" lon="4.13946">
        <ele>266.9</ele>
        <time>2021-08-13T05:54:55Z</time>
      </trkpt>
      <trkpt lat="46.69342" lon="4.13947">
        <ele>266.9</ele>
        <time>2021-08-13T05:55:14Z</time>
      </trkpt>
      <trkpt lat="46.6934" lon="4.13952">
        <ele>266.9</ele>
        <time>2021-08-13T05:55:33Z</time>
      </trkpt>
      <trkpt lat="46.69338" lon="4.13949">
        <ele>266.9</ele>
        <time>2021-08-13T05:55:53Z</time>
      </trkpt>
      <trkpt lat="46.69338" lon="4.13948">
        <ele>266.9</ele>
        <time>2021-08-13T05:56:11Z</time>
      </trkpt>
      <trkpt lat="46.69339" lon="4.1395">
        <ele>266.9</ele>
        <time>2021-08-13T05:56:28Z</time>
      </trkpt>
      <trkpt lat="46.69342" lon="4.13955">
        <ele>267.38</ele>
        <time>2021-08-13T05:56:42Z</time>
      </trkpt>
      <trkpt lat="46.69344" lon="4.13959">
        <ele>267.38</ele>
        <time>2021-08-13T05:57:03Z</time>
      </trkpt>
      <trkpt lat="46.69341" lon="4.13957">
        <ele>267.38</ele>
        <time>2021-08-13T05:57:20Z</time>
      </trkpt>
      <trkpt lat="46.6934" lon="4.13951">
        <ele>267.38</ele>
        <time>2021-08-13T05:57:39Z</time>
      </trkpt>
      <trkpt lat="46.69339" lon="4.1395">
        <ele>267.38</ele>
        <time>2021-08-13T05:58:01Z</time>
      </trkpt>
      <trkpt lat="46.69336" lon="4.13949">
        <ele>267.38</ele>
        <time>2021-08-13T05:58:28Z</time>
      </trkpt>
      <trkpt lat="46.69338" lon="4.13948">
        <ele>267.38</ele>
        <time>2021-08-13T05:58:46Z</time>
      </trkpt>
      <trkpt lat="46.69342" lon="4.13951">
        <ele>267.38</ele>
        <time>2021-08-13T05:59:03Z</time>
      </trkpt>
      <trkpt lat="46.69343" lon="4.13952">
        <ele>267.38</ele>
        <time>2021-08-13T05:59:19Z</time>
      </trkpt>
      <trkpt lat="46.69343" lon="4.13951">
        <ele>267.38</ele>
        <time>2021-08-13T05:59:36Z</time>
      </trkpt>
      <trkpt lat="46.69343" lon="4.13951">
        <ele>267.38</ele>
        <time>2021-08-13T05:59:47Z</time>
      </trkpt>
      <trkpt lat="46.69343" lon="4.13951">
        <ele>267.38</ele>
        <time>2021-08-13T06:00:03Z</time>
      </trkpt>
      <trkpt lat="46.69341" lon="4.13951">
        <ele>266.9</ele>
        <time>2021-08-13T06:00:23Z</time>
      </trkpt>
      <trkpt lat="46.69336" lon="4.13948">
        <ele>267.38</ele>
        <time>2021-08-13T06:00:39Z</time>
      </trkpt>
      <trkpt lat="46.69337" lon="4.13949">
        <ele>267.38</ele>
        <time>2021-08-13T06:00:52Z</time>
      </trkpt>
      <trkpt lat="46.69338" lon="4.13949">
        <ele>267.38</ele>
        <time>2021-08-13T06:01:04Z</time>
      </trkpt>
      <trkpt lat="46.69335" lon="4.13944">
        <ele>267.38</ele>
        <time>2021-08-13T06:01:21Z</time>
      </trkpt>
      <trkpt lat="46.69338" lon="4.13949">
        <ele>267.38</ele>
        <time>2021-08-13T06:01:36Z</time>
      </trkpt>
      <trkpt lat="46.69339" lon="4.13951">
        <ele>266.9</ele>
        <time>2021-08-13T06:01:46Z</time>
      </trkpt>
      <trkpt lat="46.69336" lon="4.13947">
        <ele>267.38</ele>
        <time>2021-08-13T06:02:05Z</time>
      </trkpt>
      <trkpt lat="46.69334" lon="4.13944">
        <ele>267.38</ele>
        <time>2021-08-13T06:02:18Z</time>
      </trkpt>
      <trkpt lat="46.69336" lon="4.13944">
        <ele>267.38</ele>
        <time>2021-08-13T06:02:37Z</time>
      </trkpt>
      <trkpt lat="46.69337" lon="4.13945">
        <ele>267.38</ele>
        <time>2021-08-13T06:02:52Z</time>
      </trkpt>
      <trkpt lat="46.69339" lon="4.13946">
        <ele>267.38</ele>
        <time>2021-08-13T06:03:07Z</time>
      </trkpt>
      <trkpt lat="46.69339" lon="4.13945">
        <ele>267.86</ele>
        <time>2021-08-13T06:03:23Z</time>
      </trkpt>
      <trkpt lat="46.69337" lon="4.13944">
        <ele>267.86</ele>
        <time>2021-08-13T06:03:48Z</time>
      </trkpt>
      <trkpt lat="46.69333" lon="4.13943">
        <ele>267.38</ele>
        <time>2021-08-13T06:04:05Z</time>
      </trkpt>
      <trkpt lat="46.69334" lon="4.13944">
        <ele>267.86</ele>
        <time>2021-08-13T06:04:24Z</time>
      </trkpt>
      <trkpt lat="46.69338" lon="4.13947">
        <ele>267.86</ele>
        <time>2021-08-13T06:04:43Z</time>
      </trkpt>
      <trkpt lat="46.6934" lon="4.13951">
        <ele>267.86</ele>
        <time>2021-08-13T06:05:04Z</time>
      </trkpt>
      <trkpt lat="46.6934" lon="4.1395">
        <ele>267.86</ele>
        <time>2021-08-13T06:05:18Z</time>
      </trkpt>
      <trkpt lat="46.69337" lon="4.13943">
        <ele>268.35</ele>
        <time>2021-08-13T06:05:39Z</time>
      </trkpt>
      <trkpt lat="46.69334" lon="4.13943">
        <ele>268.35</ele>
        <time>2021-08-13T06:05:58Z</time>
      </trkpt>
      <trkpt lat="46.69335" lon="4.13944">
        <ele>268.35</ele>
        <time>2021-08-13T06:06:17Z</time>
      </trkpt>
      <trkpt lat="46.69337" lon="4.13946">
        <ele>268.83</ele>
        <time>2021-08-13T06:06:41Z</time>
      </trkpt>
      <trkpt lat="46.69338" lon="4.13944">
        <ele>268.83</ele>
        <time>2021-08-13T06:06:59Z</time>
      </trkpt>
      <trkpt lat="46.69338" lon="4.13944">
        <ele>268.83</ele>
        <time>2021-08-13T06:07:15Z</time>
      </trkpt>
      <trkpt lat="46.69337" lon="4.13943">
        <ele>269.31</ele>
        <time>2021-08-13T06:07:29Z</time>
      </trkpt>
      <trkpt lat="46.69336" lon="4.13946">
        <ele>269.31</ele>
        <time>2021-08-13T06:07:50Z</time>
      </trkpt>
      <trkpt lat="46.69337" lon="4.1395">
        <ele>269.31</ele>
        <time>2021-08-13T06:08:09Z</time>
      </trkpt>
      <trkpt lat="46.69338" lon="4.13948">
        <ele>269.31</ele>
        <time>2021-08-13T06:08:26Z</time>
      </trkpt>
      <trkpt lat="46.69338" lon="4.13946">
        <ele>269.79</ele>
        <time>2021-08-13T06:08:46Z</time>
      </trkpt>
      <trkpt lat="46.69336" lon="4.13947">
        <ele>269.79</ele>
        <time>2021-08-13T06:09:04Z</time>
      </trkpt>
      <trkpt lat="46.69334" lon="4.13947">
        <ele>269.79</ele>
        <time>2021-08-13T06:09:18Z</time>
      </trkpt>
      <trkpt lat="46.69334" lon="4.13945">
        <ele>269.79</ele>
        <time>2021-08-13T06:09:34Z</time>
      </trkpt>
      <trkpt lat="46.69335" lon="4.13944">
        <ele>270.27</ele>
        <time>2021-08-13T06:09:50Z</time>
      </trkpt>
      <trkpt lat="46.69335" lon="4.13946">
        <ele>270.27</ele>
        <time>2021-08-13T06:10:07Z</time>
      </trkpt>
      <trkpt lat="46.69335" lon="4.13948">
        <ele>270.27</ele>
        <time>2021-08-13T06:10:22Z</time>
      </trkpt>
      <trkpt lat="46.69336" lon="4.13948">
        <ele>270.27</ele>
        <time>2021-08-13T06:10:45Z</time>
      </trkpt>
      <trkpt lat="46.69336" lon="4.1395">
        <ele>270.27</ele>
        <time>2021-08-13T06:11:02Z</time>
      </trkpt>
      <trkpt lat="46.69336" lon="4.13951">
        <ele>270.27</ele>
        <time>2021-08-13T06:11:28Z</time>
      </trkpt>
      <trkpt lat="46.69336" lon="4.1395">
        <ele>270.27</ele>
        <time>2021-08-13T06:11:45Z</time>
      </trkpt>
      <trkpt lat="46.69338" lon="4.1395">
        <ele>270.75</ele>
        <time>2021-08-13T06:12:07Z</time>
      </trkpt>
      <trkpt lat="46.69336" lon="4.13952">
        <ele>270.75</ele>
        <time>2021-08-13T06:12:29Z</time>
      </trkpt>
      <trkpt lat="46.69336" lon="4.13955">
        <ele>270.75</ele>
        <time>2021-08-13T06:12:53Z</time>
      </trkpt>
      <trkpt lat="46.69336" lon="4.13954">
        <ele>270.75</ele>
        <time>2021-08-13T06:13:16Z</time>
      </trkpt>
      <trkpt lat="46.69336" lon="4.13953">
        <ele>270.75</ele>
        <time>2021-08-13T06:13:33Z</time>
      </trkpt>
      <trkpt lat="46.69336" lon="4.13952">
        <ele>270.75</ele>
        <time>2021-08-13T06:13:52Z</time>
      </trkpt>
      <trkpt lat="46.69336" lon="4.13955">
        <ele>270.75</ele>
        <time>2021-08-13T06:14:07Z</time>
      </trkpt>
      <trkpt lat="46.69337" lon="4.13958">
        <ele>270.75</ele>
        <time>2021-08-13T06:14:21Z</time>
      </trkpt>
      <trkpt lat="46.6934" lon="4.1396">
        <ele>270.75</ele>
        <time>2021-08-13T06:14:39Z</time>
      </trkpt>
      <trkpt lat="46.69342" lon="4.13961">
        <ele>270.27</ele>
        <time>2021-08-13T06:14:53Z</time>
      </trkpt>
      <trkpt lat="46.69341" lon="4.13959">
        <ele>270.27</ele>
        <time>2021-08-13T06:15:06Z</time>
      </trkpt>
      <trkpt lat="46.6934" lon="4.13958">
        <ele>270.27</ele>
        <time>2021-08-13T06:15:24Z</time>
      </trkpt>
      <trkpt lat="46.69342" lon="4.13957">
        <ele>270.27</ele>
        <time>2021-08-13T06:15:40Z</time>
      </trkpt>
      <trkpt lat="46.69342" lon="4.13958">
        <ele>270.27</ele>
        <time>2021-08-13T06:15:54Z</time>
      </trkpt>
      <trkpt lat="46.6934" lon="4.13959">
        <ele>270.27</ele>
        <time>2021-08-13T06:16:15Z</time>
      </trkpt>
      <trkpt lat="46.69339" lon="4.13959">
        <ele>270.27</ele>
        <time>2021-08-13T06:16:30Z</time>
      </trkpt>
      <trkpt lat="46.6934" lon="4.1396">
        <ele>270.27</ele>
        <time>2021-08-13T06:16:49Z</time>
      </trkpt>
      <trkpt lat="46.6934" lon="4.13956">
        <ele>270.27</ele>
        <time>2021-08-13T06:17:10Z</time>
      </trkpt>
      <trkpt lat="46.6934" lon="4.13956">
        <ele>270.27</ele>
        <time>2021-08-13T06:17:27Z</time>
      </trkpt>
      <trkpt lat="46.69342" lon="4.1396">
        <ele>269.79</ele>
        <time>2021-08-13T06:17:47Z</time>
      </trkpt>
      <trkpt lat="46.69342" lon="4.1396">
        <ele>269.79</ele>
        <time>2021-08-13T06:18:02Z</time>
      </trkpt>
      <trkpt lat="46.69341" lon="4.13959">
        <ele>269.79</ele>
        <time>2021-08-13T06:18:20Z</time>
      </trkpt>
      <trkpt lat="46.6934" lon="4.13958">
        <ele>269.79</ele>
        <time>2021-08-13T06:18:32Z</time>
      </trkpt>
      <trkpt lat="46.69339" lon="4.13957">
        <ele>269.31</ele>
        <time>2021-08-13T06:18:50Z</time>
      </trkpt>
      <trkpt lat="46.69336" lon="4.13957">
        <ele>269.31</ele>
        <time>2021-08-13T06:19:08Z</time>
      </trkpt>
      <trkpt lat="46.69335" lon="4.13956">
        <ele>269.31</ele>
        <time>2021-08-13T06:19:22Z</time>
      </trkpt>
      <trkpt lat="46.69335" lon="4.13956">
        <ele>269.31</ele>
        <time>2021-08-13T06:19:43Z</time>
      </trkpt>
      <trkpt lat="46.69335" lon="4.13957">
        <ele>269.31</ele>
        <time>2021-08-13T06:19:52Z</time>
      </trkpt>
      <trkpt lat="46.69336" lon="4.13958">
        <ele>269.31</ele>
        <time>2021-08-13T06:20:05Z</time>
      </trkpt>
      <trkpt lat="46.69336" lon="4.13959">
        <ele>269.31</ele>
        <time>2021-08-13T06:20:15Z</time>
      </trkpt>
      <trkpt lat="46.69337" lon="4.13958">
        <ele>269.31</ele>
        <time>2021-08-13T06:20:30Z</time>
      </trkpt>
      <trkpt lat="46.69332" lon="4.13955">
        <ele>269.31</ele>
        <time>2021-08-13T06:21:05Z</time>
      </trkpt>
      <trkpt lat="46.6933" lon="4.13954">
        <ele>269.31</ele>
        <time>2021-08-13T06:21:21Z</time>
      </trkpt>
      <trkpt lat="46.69331" lon="4.13956">
        <ele>269.31</ele>
        <time>2021-08-13T06:21:39Z</time>
      </trkpt>
      <trkpt lat="46.69334" lon="4.13957">
        <ele>269.31</ele>
        <time>2021-08-13T06:21:58Z</time>
      </trkpt>
      <trkpt lat="46.69338" lon="4.13958">
        <ele>269.31</ele>
        <time>2021-08-13T06:22:19Z</time>
      </trkpt>
      <trkpt lat="46.69339" lon="4.13959">
        <ele>269.31</ele>
        <time>2021-08-13T06:22:28Z</time>
      </trkpt>
      <trkpt lat="46.69342" lon="4.13958">
        <ele>269.31</ele>
        <time>2021-08-13T06:22:43Z</time>
      </trkpt>
      <trkpt lat="46.69343" lon="4.13958">
        <ele>269.31</ele>
        <time>2021-08-13T06:22:58Z</time>
      </trkpt>
      <trkpt lat="46.69345" lon="4.13957">
        <ele>269.31</ele>
        <time>2021-08-13T06:23:09Z</time>
      </trkpt>
      <trkpt lat="46.69345" lon="4.13957">
        <ele>269.31</ele>
        <time>2021-08-13T06:23:19Z</time>
      </trkpt>
      <trkpt lat="46.69344" lon="4.13957">
        <ele>269.31</ele>
        <time>2021-08-13T06:23:35Z</time>
      </trkpt>
      <trkpt lat="46.69341" lon="4.13959">
        <ele>269.31</ele>
        <time>2021-08-13T06:23:50Z</time>
      </trkpt>
      <trkpt lat="46.69338" lon="4.1396">
        <ele>269.31</ele>
        <time>2021-08-13T06:24:06Z</time>
      </trkpt>
      <trkpt lat="46.69335" lon="4.13958">
        <ele>269.31</ele>
        <time>2021-08-13T06:24:23Z</time>
      </trkpt>
      <trkpt lat="46.69335" lon="4.13958">
        <ele>269.31</ele>
        <time>2021-08-13T06:24:33Z</time>
      </trkpt>
      <trkpt lat="46.69337" lon="4.13957">
        <ele>269.31</ele>
        <time>2021-08-13T06:24:53Z</time>
      </trkpt>
      <trkpt lat="46.69337" lon="4.13959">
        <ele>268.83</ele>
        <time>2021-08-13T06:25:12Z</time>
      </trkpt>
      <trkpt lat="46.69337" lon="4.13961">
        <ele>268.83</ele>
        <time>2021-08-13T06:25:22Z</time>
      </trkpt>
      <trkpt lat="46.69336" lon="4.13962">
        <ele>268.83</ele>
        <time>2021-08-13T06:25:34Z</time>
      </trkpt>
      <trkpt lat="46.69333" lon="4.1396">
        <ele>268.83</ele>
        <time>2021-08-13T06:25:52Z</time>
      </trkpt>
      <trkpt lat="46.69333" lon="4.13959">
        <ele>268.83</ele>
        <time>2021-08-13T06:26:08Z</time>
      </trkpt>
      <trkpt lat="46.69335" lon="4.13958">
        <ele>268.83</ele>
        <time>2021-08-13T06:26:24Z</time>
      </trkpt>
      <trkpt lat="46.69338" lon="4.13958">
        <ele>268.83</ele>
        <time>2021-08-13T06:26:36Z</time>
      </trkpt>
      <trkpt lat="46.69341" lon="4.13959">
        <ele>268.83</ele>
        <time>2021-08-13T06:26:59Z</time>
      </trkpt>
      <trkpt lat="46.6934" lon="4.13958">
        <ele>268.83</ele>
        <time>2021-08-13T06:27:16Z</time>
      </trkpt>
      <trkpt lat="46.6934" lon="4.13958">
        <ele>268.83</ele>
        <time>2021-08-13T06:27:30Z</time>
      </trkpt>
      <trkpt lat="46.6934" lon="4.13959">
        <ele>268.83</ele>
        <time>2021-08-13T06:27:44Z</time>
      </trkpt>
      <trkpt lat="46.69341" lon="4.1396">
        <ele>268.35</ele>
        <time>2021-08-13T06:28:02Z</time>
      </trkpt>
      <trkpt lat="46.69342" lon="4.13959">
        <ele>268.35</ele>
        <time>2021-08-13T06:28:14Z</time>
      </trkpt>
      <trkpt lat="46.69342" lon="4.13959">
        <ele>268.35</ele>
        <time>2021-08-13T06:28:31Z</time>
      </trkpt>
      <trkpt lat="46.69343" lon="4.13958">
        <ele>268.35</ele>
        <time>2021-08-13T06:28:50Z</time>
      </trkpt>
      <trkpt lat="46.69345" lon="4.13959">
        <ele>268.35</ele>
        <time>2021-08-13T06:29:05Z</time>
      </trkpt>
      <trkpt lat="46.69342" lon="4.13956">
        <ele>268.35</ele>
        <time>2021-08-13T06:29:19Z</time>
      </trkpt>
      <trkpt lat="46.6934" lon="4.13956">
        <ele>267.86</ele>
        <time>2021-08-13T06:29:35Z</time>
      </trkpt>
      <trkpt lat="46.69336" lon="4.13956">
        <ele>267.86</ele>
        <time>2021-08-13T06:29:49Z</time>
      </trkpt>
      <trkpt lat="46.69336" lon="4.13956">
        <ele>267.86</ele>
        <time>2021-08-13T06:30:01Z</time>
      </trkpt>
      <trkpt lat="46.69338" lon="4.13955">
        <ele>267.86</ele>
        <time>2021-08-13T06:30:14Z</time>
      </trkpt>
      <trkpt lat="46.69338" lon="4.13955">
        <ele>267.86</ele>
        <time>2021-08-13T06:30:28Z</time>
      </trkpt>
      <trkpt lat="46.69338" lon="4.13955">
        <ele>267.86</ele>
        <time>2021-08-13T06:30:44Z</time>
      </trkpt>
      <trkpt lat="46.69339" lon="4.13957">
        <ele>267.86</ele>
        <time>2021-08-13T06:31:05Z</time>
      </trkpt>
      <trkpt lat="46.69339" lon="4.13957">
        <ele>267.86</ele>
        <time>2021-08-13T06:31:25Z</time>
      </trkpt>
      <trkpt lat="46.6934" lon="4.13957">
        <ele>267.38</ele>
        <time>2021-08-13T06:31:35Z</time>
      </trkpt>
      <trkpt lat="46.6934" lon="4.13958">
        <ele>267.38</ele>
        <time>2021-08-13T06:31:48Z</time>
      </trkpt>
      <trkpt lat="46.6934" lon="4.13957">
        <ele>267.38</ele>
        <time>2021-08-13T06:32:00Z</time>
      </trkpt>
      <trkpt lat="46.6934" lon="4.13957">
        <ele>267.38</ele>
        <time>2021-08-13T06:32:15Z</time>
      </trkpt>
      <trkpt lat="46.6934" lon="4.13957">
        <ele>267.38</ele>
        <time>2021-08-13T06:32:28Z</time>
      </trkpt>
      <trkpt lat="46.69338" lon="4.13958">
        <ele>266.9</ele>
        <time>2021-08-13T06:32:46Z</time>
      </trkpt>
      <trkpt lat="46.69338" lon="4.13961">
        <ele>266.9</ele>
        <time>2021-08-13T06:32:59Z</time>
      </trkpt>
      <trkpt lat="46.69339" lon="4.13961">
        <ele>266.9</ele>
        <time>2021-08-13T06:33:10Z</time>
      </trkpt>
      <trkpt lat="46.6934" lon="4.13959">
        <ele>266.9</ele>
        <time>2021-08-13T06:33:23Z</time>
      </trkpt>
      <trkpt lat="46.6934" lon="4.13958">
        <ele>266.9</ele>
        <time>2021-08-13T06:33:32Z</time>
      </trkpt>
      <trkpt lat="46.69336" lon="4.13956">
        <ele>266.9</ele>
        <time>2021-08-13T06:33:42Z</time>
      </trkpt>
      <trkpt lat="46.69335" lon="4.13956">
        <ele>266.9</ele>
        <time>2021-08-13T06:33:52Z</time>
      </trkpt>
      <trkpt lat="46.69335" lon="4.13954">
        <ele>266.9</ele>
        <time>2021-08-13T06:34:06Z</time>
      </trkpt>
      <trkpt lat="46.69333" lon="4.13955">
        <ele>266.9</ele>
        <time>2021-08-13T06:34:20Z</time>
      </trkpt>
      <trkpt lat="46.69333" lon="4.13955">
        <ele>266.9</ele>
        <time>2021-08-13T06:34:33Z</time>
      </trkpt>
      <trkpt lat="46.69334" lon="4.13957">
        <ele>266.9</ele>
        <time>2021-08-13T06:34:43Z</time>
      </trkpt>
      <trkpt lat="46.69334" lon="4.13958">
        <ele>266.9</ele>
        <time>2021-08-13T06:34:44Z</time>
      </trkpt>
      <trkpt lat="46.69337" lon="4.13958">
        <ele>266.9</ele>
        <time>2021-08-13T06:34:51Z</time>
      </trkpt>
      <trkpt lat="46.69339" lon="4.13959">
        <ele>266.9</ele>
        <time>2021-08-13T06:35:00Z</time>
      </trkpt>
      <trkpt lat="46.69343" lon="4.13958">
        <ele>266.9</ele>
        <time>2021-08-13T06:35:09Z</time>
      </trkpt>
      <trkpt lat="46.69344" lon="4.13957">
        <ele>266.9</ele>
        <time>2021-08-13T06:35:10Z</time>
      </trkpt>
      <trkpt lat="46.69345" lon="4.13956">
        <ele>266.9</ele>
        <time>2021-08-13T06:35:11Z</time>
      </trkpt>
      <trkpt lat="46.69354" lon="4.13939">
        <ele>266.9</ele>
        <time>2021-08-13T06:35:18Z</time>
      </trkpt>
      <trkpt lat="46.69366" lon="4.13903">
        <ele>267.86</ele>
        <time>2021-08-13T06:35:28Z</time>
      </trkpt>
      <trkpt lat="46.69367" lon="4.13899">
        <ele>267.86</ele>
        <time>2021-08-13T06:35:29Z</time>
      </trkpt>
      <trkpt lat="46.69368" lon="4.13871">
        <ele>268.35</ele>
        <time>2021-08-13T06:35:36Z</time>
      </trkpt>
      <trkpt lat="46.6936" lon="4.13852">
        <ele>268.35</ele>
        <time>2021-08-13T06:35:41Z</time>
      </trkpt>
      <trkpt lat="46.69357" lon="4.13841">
        <ele>267.38</ele>
        <time>2021-08-13T06:35:43Z</time>
      </trkpt>
      <trkpt lat="46.69356" lon="4.13835">
        <ele>267.38</ele>
        <time>2021-08-13T06:35:44Z</time>
      </trkpt>
      <trkpt lat="46.69355" lon="4.13828">
        <ele>266.42</ele>
        <time>2021-08-13T06:35:45Z</time>
      </trkpt>
      <trkpt lat="46.69356" lon="4.13821">
        <ele>266.42</ele>
        <time>2021-08-13T06:35:46Z</time>
      </trkpt>
      <trkpt lat="46.69356" lon="4.13813">
        <ele>265.94</ele>
        <time>2021-08-13T06:35:47Z</time>
      </trkpt>
      <trkpt lat="46.69358" lon="4.13782">
        <ele>264.5</ele>
        <time>2021-08-13T06:35:51Z</time>
      </trkpt>
      <trkpt lat="46.69359" lon="4.13751">
        <ele>262.58</ele>
        <time>2021-08-13T06:35:55Z</time>
      </trkpt>
      <trkpt lat="46.69361" lon="4.13718">
        <ele>261.62</ele>
        <time>2021-08-13T06:35:59Z</time>
      </trkpt>
      <trkpt lat="46.69362" lon="4.1371">
        <ele>261.62</ele>
        <time>2021-08-13T06:36:00Z</time>
      </trkpt>
      <trkpt lat="46.69364" lon="4.13703">
        <ele>261.14</ele>
        <time>2021-08-13T06:36:01Z</time>
      </trkpt>
      <trkpt lat="46.69367" lon="4.13696">
        <ele>261.14</ele>
        <time>2021-08-13T06:36:02Z</time>
      </trkpt>
      <trkpt lat="46.69371" lon="4.1369">
        <ele>260.17</ele>
        <time>2021-08-13T06:36:03Z</time>
      </trkpt>
      <trkpt lat="46.69376" lon="4.13684">
        <ele>260.17</ele>
        <time>2021-08-13T06:36:04Z</time>
      </trkpt>
      <trkpt lat="46.6938" lon="4.13679">
        <ele>259.69</ele>
        <time>2021-08-13T06:36:05Z</time>
      </trkpt>
      <trkpt lat="46.69414" lon="4.13634">
        <ele>257.77</ele>
        <time>2021-08-13T06:36:12Z</time>
      </trkpt>
      <trkpt lat="46.69447" lon="4.1359">
        <ele>259.69</ele>
        <time>2021-08-13T06:36:20Z</time>
      </trkpt>
      <trkpt lat="46.69479" lon="4.13545">
        <ele>258.25</ele>
        <time>2021-08-13T06:36:28Z</time>
      </trkpt>
      <trkpt lat="46.69483" lon="4.13539">
        <ele>258.25</ele>
        <time>2021-08-13T06:36:29Z</time>
      </trkpt>
      <trkpt lat="46.69501" lon="4.1351">
        <ele>257.29</ele>
        <time>2021-08-13T06:36:33Z</time>
      </trkpt>
      <trkpt lat="46.69505" lon="4.13501">
        <ele>257.29</ele>
        <time>2021-08-13T06:36:34Z</time>
      </trkpt>
      <trkpt lat="46.69539" lon="4.13427">
        <ele>256.33</ele>
        <time>2021-08-13T06:36:43Z</time>
      </trkpt>
      <trkpt lat="46.69583" lon="4.13334">
        <ele>256.33</ele>
        <time>2021-08-13T06:36:55Z</time>
      </trkpt>
      <trkpt lat="46.69616" lon="4.13273">
        <ele>257.29</ele>
        <time>2021-08-13T06:37:04Z</time>
      </trkpt>
      <trkpt lat="46.69649" lon="4.13212">
        <ele>257.29</ele>
        <time>2021-08-13T06:37:13Z</time>
      </trkpt>
      <trkpt lat="46.69682" lon="4.1315">
        <ele>258.25</ele>
        <time>2021-08-13T06:37:23Z</time>
      </trkpt>
      <trkpt lat="46.69712" lon="4.13093">
        <ele>258.25</ele>
        <time>2021-08-13T06:37:33Z</time>
      </trkpt>
      <trkpt lat="46.69741" lon="4.13038">
        <ele>258.25</ele>
        <time>2021-08-13T06:37:43Z</time>
      </trkpt>
      <trkpt lat="46.69744" lon="4.13032">
        <ele>258.25</ele>
        <time>2021-08-13T06:37:44Z</time>
      </trkpt>
      <trkpt lat="46.69747" lon="4.13026">
        <ele>258.25</ele>
        <time>2021-08-13T06:37:45Z</time>
      </trkpt>
      <trkpt lat="46.69773" lon="4.12977">
        <ele>258.25</ele>
        <time>2021-08-13T06:37:54Z</time>
      </trkpt>
      <trkpt lat="46.69807" lon="4.12917">
        <ele>258.73</ele>
        <time>2021-08-13T06:38:05Z</time>
      </trkpt>
      <trkpt lat="46.69834" lon="4.12864">
        <ele>259.21</ele>
        <time>2021-08-13T06:38:14Z</time>
      </trkpt>
      <trkpt lat="46.69851" lon="4.12832">
        <ele>259.21</ele>
        <time>2021-08-13T06:38:20Z</time>
      </trkpt>
      <trkpt lat="46.69853" lon="4.12826">
        <ele>259.21</ele>
        <time>2021-08-13T06:38:21Z</time>
      </trkpt>
      <trkpt lat="46.69854" lon="4.1282">
        <ele>259.21</ele>
        <time>2021-08-13T06:38:22Z</time>
      </trkpt>
      <trkpt lat="46.69855" lon="4.12814">
        <ele>259.21</ele>
        <time>2021-08-13T06:38:23Z</time>
      </trkpt>
      <trkpt lat="46.69855" lon="4.12807">
        <ele>259.21</ele>
        <time>2021-08-13T06:38:24Z</time>
      </trkpt>
      <trkpt lat="46.69853" lon="4.12802">
        <ele>259.21</ele>
        <time>2021-08-13T06:38:25Z</time>
      </trkpt>
      <trkpt lat="46.69851" lon="4.12798">
        <ele>259.21</ele>
        <time>2021-08-13T06:38:26Z</time>
      </trkpt>
      <trkpt lat="46.69849" lon="4.12793">
        <ele>259.21</ele>
        <time>2021-08-13T06:38:27Z</time>
      </trkpt>
      <trkpt lat="46.69839" lon="4.1278">
        <ele>259.21</ele>
        <time>2021-08-13T06:38:30Z</time>
      </trkpt>
      <trkpt lat="46.69803" lon="4.12737">
        <ele>260.17</ele>
        <time>2021-08-13T06:38:41Z</time>
      </trkpt>
      <trkpt lat="46.69778" lon="4.12707">
        <ele>262.1</ele>
        <time>2021-08-13T06:38:50Z</time>
      </trkpt>
      <trkpt lat="46.6976" lon="4.12686">
        <ele>262.1</ele>
        <time>2021-08-13T06:38:57Z</time>
      </trkpt>
      <trkpt lat="46.69733" lon="4.12653">
        <ele>262.1</ele>
        <time>2021-08-13T06:39:06Z</time>
      </trkpt>
      <trkpt lat="46.69725" lon="4.12639">
        <ele>262.1</ele>
        <time>2021-08-13T06:39:09Z</time>
      </trkpt>
      <trkpt lat="46.69717" lon="4.12624">
        <ele>262.1</ele>
        <time>2021-08-13T06:39:12Z</time>
      </trkpt>
      <trkpt lat="46.69712" lon="4.12607">
        <ele>262.1</ele>
        <time>2021-08-13T06:39:15Z</time>
      </trkpt>
      <trkpt lat="46.69695" lon="4.1254">
        <ele>262.1</ele>
        <time>2021-08-13T06:39:26Z</time>
      </trkpt>
      <trkpt lat="46.69685" lon="4.12499">
        <ele>262.1</ele>
        <time>2021-08-13T06:39:33Z</time>
      </trkpt>
      <trkpt lat="46.69678" lon="4.12439">
        <ele>262.1</ele>
        <time>2021-08-13T06:39:43Z</time>
      </trkpt>
      <trkpt lat="46.6968" lon="4.12385">
        <ele>263.06</ele>
        <time>2021-08-13T06:39:53Z</time>
      </trkpt>
      <trkpt lat="46.69677" lon="4.12358">
        <ele>264.02</ele>
        <time>2021-08-13T06:40:00Z</time>
      </trkpt>
      <trkpt lat="46.69681" lon="4.12333">
        <ele>265.94</ele>
        <time>2021-08-13T06:40:08Z</time>
      </trkpt>
      <trkpt lat="46.69685" lon="4.12312">
        <ele>267.38</ele>
        <time>2021-08-13T06:40:16Z</time>
      </trkpt>
      <trkpt lat="46.69687" lon="4.123">
        <ele>268.35</ele>
        <time>2021-08-13T06:40:22Z</time>
      </trkpt>
      <trkpt lat="46.69687" lon="4.12298">
        <ele>268.83</ele>
        <time>2021-08-13T06:40:23Z</time>
      </trkpt>
      <trkpt lat="46.69688" lon="4.12285">
        <ele>269.79</ele>
        <time>2021-08-13T06:40:30Z</time>
      </trkpt>
      <trkpt lat="46.69687" lon="4.1227">
        <ele>271.23</ele>
        <time>2021-08-13T06:40:38Z</time>
      </trkpt>
      <trkpt lat="46.69687" lon="4.12268">
        <ele>271.71</ele>
        <time>2021-08-13T06:40:39Z</time>
      </trkpt>
      <trkpt lat="46.69687" lon="4.12266">
        <ele>271.71</ele>
        <time>2021-08-13T06:40:40Z</time>
      </trkpt>
      <trkpt lat="46.69686" lon="4.12264">
        <ele>272.19</ele>
        <time>2021-08-13T06:40:42Z</time>
      </trkpt>
      <trkpt lat="46.69686" lon="4.12262">
        <ele>272.19</ele>
        <time>2021-08-13T06:40:43Z</time>
      </trkpt>
      <trkpt lat="46.69685" lon="4.12252">
        <ele>273.63</ele>
        <time>2021-08-13T06:40:50Z</time>
      </trkpt>
      <trkpt lat="46.69683" lon="4.12244">
        <ele>274.11</ele>
        <time>2021-08-13T06:40:55Z</time>
      </trkpt>
      <trkpt lat="46.69678" lon="4.12228">
        <ele>276.04</ele>
        <time>2021-08-13T06:41:05Z</time>
      </trkpt>
      <trkpt lat="46.69675" lon="4.12213">
        <ele>277.96</ele>
        <time>2021-08-13T06:41:14Z</time>
      </trkpt>
      <trkpt lat="46.6967" lon="4.12199">
        <ele>278.92</ele>
        <time>2021-08-13T06:41:22Z</time>
      </trkpt>
      <trkpt lat="46.6967" lon="4.12197">
        <ele>278.92</ele>
        <time>2021-08-13T06:41:23Z</time>
      </trkpt>
      <trkpt lat="46.6967" lon="4.12195">
        <ele>279.4</ele>
        <time>2021-08-13T06:41:24Z</time>
      </trkpt>
      <trkpt lat="46.69668" lon="4.12189">
        <ele>279.4</ele>
        <time>2021-08-13T06:41:27Z</time>
      </trkpt>
      <trkpt lat="46.69668" lon="4.12187">
        <ele>279.4</ele>
        <time>2021-08-13T06:41:28Z</time>
      </trkpt>
      <trkpt lat="46.69667" lon="4.12185">
        <ele>279.88</ele>
        <time>2021-08-13T06:41:29Z</time>
      </trkpt>
      <trkpt lat="46.69667" lon="4.12182">
        <ele>279.88</ele>
        <time>2021-08-13T06:41:30Z</time>
      </trkpt>
      <trkpt lat="46.69666" lon="4.1218">
        <ele>280.36</ele>
        <time>2021-08-13T06:41:31Z</time>
      </trkpt>
      <trkpt lat="46.69664" lon="4.12165">
        <ele>281.32</ele>
        <time>2021-08-13T06:41:39Z</time>
      </trkpt>
      <trkpt lat="46.69661" lon="4.12149">
        <ele>281.8</ele>
        <time>2021-08-13T06:41:48Z</time>
      </trkpt>
      <trkpt lat="46.6966" lon="4.12147">
        <ele>281.8</ele>
        <time>2021-08-13T06:41:49Z</time>
      </trkpt>
      <trkpt lat="46.69659" lon="4.12145">
        <ele>282.28</ele>
        <time>2021-08-13T06:41:50Z</time>
      </trkpt>
      <trkpt lat="46.69658" lon="4.12144">
        <ele>282.28</ele>
        <time>2021-08-13T06:41:51Z</time>
      </trkpt>
      <trkpt lat="46.69653" lon="4.12125">
        <ele>283.73</ele>
        <time>2021-08-13T06:42:01Z</time>
      </trkpt>
      <trkpt lat="46.69643" lon="4.12115">
        <ele>285.65</ele>
        <time>2021-08-13T06:42:11Z</time>
      </trkpt>
      <trkpt lat="46.69635" lon="4.1211">
        <ele>286.61</ele>
        <time>2021-08-13T06:42:18Z</time>
      </trkpt>
      <trkpt lat="46.69627" lon="4.12104">
        <ele>288.05</ele>
        <time>2021-08-13T06:42:27Z</time>
      </trkpt>
      <trkpt lat="46.69621" lon="4.121">
        <ele>289.49</ele>
        <time>2021-08-13T06:42:33Z</time>
      </trkpt>
      <trkpt lat="46.69613" lon="4.12094">
        <ele>291.42</ele>
        <time>2021-08-13T06:42:42Z</time>
      </trkpt>
      <trkpt lat="46.69605" lon="4.12088">
        <ele>292.86</ele>
        <time>2021-08-13T06:42:50Z</time>
      </trkpt>
      <trkpt lat="46.69604" lon="4.12087">
        <ele>292.86</ele>
        <time>2021-08-13T06:42:51Z</time>
      </trkpt>
      <trkpt lat="46.69596" lon="4.12079">
        <ele>294.78</ele>
        <time>2021-08-13T06:42:59Z</time>
      </trkpt>
      <trkpt lat="46.69595" lon="4.12078">
        <ele>294.3</ele>
        <time>2021-08-13T06:43:00Z</time>
      </trkpt>
      <trkpt lat="46.69591" lon="4.12076">
        <ele>294.78</ele>
        <time>2021-08-13T06:43:03Z</time>
      </trkpt>
      <trkpt lat="46.6959" lon="4.12075">
        <ele>295.26</ele>
        <time>2021-08-13T06:43:04Z</time>
      </trkpt>
      <trkpt lat="46.69589" lon="4.12074">
        <ele>295.26</ele>
        <time>2021-08-13T06:43:05Z</time>
      </trkpt>
      <trkpt lat="46.69575" lon="4.12061">
        <ele>297.18</ele>
        <time>2021-08-13T06:43:15Z</time>
      </trkpt>
      <trkpt lat="46.69556" lon="4.12046">
        <ele>298.15</ele>
        <time>2021-08-13T06:43:27Z</time>
      </trkpt>
      <trkpt lat="46.69541" lon="4.12034">
        <ele>299.59</ele>
        <time>2021-08-13T06:43:37Z</time>
      </trkpt>
      <trkpt lat="46.69529" lon="4.12023">
        <ele>300.55</ele>
        <time>2021-08-13T06:43:46Z</time>
      </trkpt>
      <trkpt lat="46.69516" lon="4.12009">
        <ele>302.47</ele>
        <time>2021-08-13T06:43:55Z</time>
      </trkpt>
      <trkpt lat="46.695" lon="4.11996">
        <ele>303.91</ele>
        <time>2021-08-13T06:44:05Z</time>
      </trkpt>
      <trkpt lat="46.69487" lon="4.11984">
        <ele>305.36</ele>
        <time>2021-08-13T06:44:13Z</time>
      </trkpt>
      <trkpt lat="46.69469" lon="4.1197">
        <ele>305.84</ele>
        <time>2021-08-13T06:44:23Z</time>
      </trkpt>
      <trkpt lat="46.69451" lon="4.11953">
        <ele>307.76</ele>
        <time>2021-08-13T06:44:33Z</time>
      </trkpt>
      <trkpt lat="46.69432" lon="4.11931">
        <ele>308.72</ele>
        <time>2021-08-13T06:44:44Z</time>
      </trkpt>
      <trkpt lat="46.69414" lon="4.1191">
        <ele>309.68</ele>
        <time>2021-08-13T06:44:54Z</time>
      </trkpt>
      <trkpt lat="46.69399" lon="4.11891">
        <ele>310.16</ele>
        <time>2021-08-13T06:45:02Z</time>
      </trkpt>
      <trkpt lat="46.69384" lon="4.11862">
        <ele>310.16</ele>
        <time>2021-08-13T06:45:10Z</time>
      </trkpt>
      <trkpt lat="46.69381" lon="4.1185">
        <ele>309.2</ele>
        <time>2021-08-13T06:45:12Z</time>
      </trkpt>
      <trkpt lat="46.6938" lon="4.11844">
        <ele>308.24</ele>
        <time>2021-08-13T06:45:13Z</time>
      </trkpt>
      <trkpt lat="46.69377" lon="4.1182">
        <ele>308.24</ele>
        <time>2021-08-13T06:45:17Z</time>
      </trkpt>
      <trkpt lat="46.69376" lon="4.11813">
        <ele>307.76</ele>
        <time>2021-08-13T06:45:18Z</time>
      </trkpt>
      <trkpt lat="46.69371" lon="4.11789">
        <ele>307.28</ele>
        <time>2021-08-13T06:45:22Z</time>
      </trkpt>
      <trkpt lat="46.69369" lon="4.11784">
        <ele>307.28</ele>
        <time>2021-08-13T06:45:23Z</time>
      </trkpt>
      <trkpt lat="46.69368" lon="4.11779">
        <ele>307.28</ele>
        <time>2021-08-13T06:45:24Z</time>
      </trkpt>
      <trkpt lat="46.69367" lon="4.11775">
        <ele>307.28</ele>
        <time>2021-08-13T06:45:25Z</time>
      </trkpt>
      <trkpt lat="46.69366" lon="4.11771">
        <ele>307.28</ele>
        <time>2021-08-13T06:45:26Z</time>
      </trkpt>
      <trkpt lat="46.69364" lon="4.11767">
        <ele>308.72</ele>
        <time>2021-08-13T06:45:27Z</time>
      </trkpt>
      <trkpt lat="46.69354" lon="4.11743">
        <ele>311.12</ele>
        <time>2021-08-13T06:45:35Z</time>
      </trkpt>
      <trkpt lat="46.69347" lon="4.11726">
        <ele>313.05</ele>
        <time>2021-08-13T06:45:42Z</time>
      </trkpt>
      <trkpt lat="46.69336" lon="4.11702">
        <ele>313.53</ele>
        <time>2021-08-13T06:45:50Z</time>
      </trkpt>
      <trkpt lat="46.69318" lon="4.1168">
        <ele>312.09</ele>
        <time>2021-08-13T06:45:57Z</time>
      </trkpt>
      <trkpt lat="46.693" lon="4.11664">
        <ele>310.64</ele>
        <time>2021-08-13T06:46:02Z</time>
      </trkpt>
      <trkpt lat="46.69288" lon="4.11656">
        <ele>310.16</ele>
        <time>2021-08-13T06:46:05Z</time>
      </trkpt>
      <trkpt lat="46.69249" lon="4.11637">
        <ele>307.28</ele>
        <time>2021-08-13T06:46:13Z</time>
      </trkpt>
      <trkpt lat="46.69235" lon="4.11627">
        <ele>306.8</ele>
        <time>2021-08-13T06:46:16Z</time>
      </trkpt>
      <trkpt lat="46.69201" lon="4.11606">
        <ele>303.43</ele>
        <time>2021-08-13T06:46:22Z</time>
      </trkpt>
      <trkpt lat="46.69195" lon="4.11603">
        <ele>303.43</ele>
        <time>2021-08-13T06:46:23Z</time>
      </trkpt>
      <trkpt lat="46.69176" lon="4.11595">
        <ele>301.99</ele>
        <time>2021-08-13T06:46:26Z</time>
      </trkpt>
      <trkpt lat="46.69172" lon="4.1159">
        <ele>301.99</ele>
        <time>2021-08-13T06:46:27Z</time>
      </trkpt>
      <trkpt lat="46.69167" lon="4.11583">
        <ele>301.03</ele>
        <time>2021-08-13T06:46:28Z</time>
      </trkpt>
      <trkpt lat="46.69162" lon="4.11575">
        <ele>301.03</ele>
        <time>2021-08-13T06:46:29Z</time>
      </trkpt>
      <trkpt lat="46.69158" lon="4.11568">
        <ele>300.55</ele>
        <time>2021-08-13T06:46:30Z</time>
      </trkpt>
      <trkpt lat="46.69145" lon="4.11548">
        <ele>300.07</ele>
        <time>2021-08-13T06:46:33Z</time>
      </trkpt>
      <trkpt lat="46.69128" lon="4.11524">
        <ele>298.63</ele>
        <time>2021-08-13T06:46:37Z</time>
      </trkpt>
      <trkpt lat="46.69126" lon="4.11517">
        <ele>299.11</ele>
        <time>2021-08-13T06:46:38Z</time>
      </trkpt>
      <trkpt lat="46.69125" lon="4.11508">
        <ele>298.15</ele>
        <time>2021-08-13T06:46:39Z</time>
      </trkpt>
      <trkpt lat="46.69125" lon="4.115">
        <ele>297.67</ele>
        <time>2021-08-13T06:46:40Z</time>
      </trkpt>
      <trkpt lat="46.69126" lon="4.11491">
        <ele>297.67</ele>
        <time>2021-08-13T06:46:41Z</time>
      </trkpt>
      <trkpt lat="46.69129" lon="4.11472">
        <ele>297.18</ele>
        <time>2021-08-13T06:46:43Z</time>
      </trkpt>
      <trkpt lat="46.69133" lon="4.11464">
        <ele>296.22</ele>
        <time>2021-08-13T06:46:44Z</time>
      </trkpt>
      <trkpt lat="46.69138" lon="4.11457">
        <ele>296.22</ele>
        <time>2021-08-13T06:46:45Z</time>
      </trkpt>
      <trkpt lat="46.69143" lon="4.11452">
        <ele>296.22</ele>
        <time>2021-08-13T06:46:46Z</time>
      </trkpt>
      <trkpt lat="46.69148" lon="4.11447">
        <ele>296.22</ele>
        <time>2021-08-13T06:46:47Z</time>
      </trkpt>
      <trkpt lat="46.69175" lon="4.1142">
        <ele>296.22</ele>
        <time>2021-08-13T06:46:53Z</time>
      </trkpt>
      <trkpt lat="46.69176" lon="4.11417">
        <ele>296.22</ele>
        <time>2021-08-13T06:46:54Z</time>
      </trkpt>
      <trkpt lat="46.69175" lon="4.11415">
        <ele>296.22</ele>
        <time>2021-08-13T06:46:55Z</time>
      </trkpt>
      <trkpt lat="46.69174" lon="4.11412">
        <ele>296.22</ele>
        <time>2021-08-13T06:46:56Z</time>
      </trkpt>
      <trkpt lat="46.69172" lon="4.1141">
        <ele>296.22</ele>
        <time>2021-08-13T06:46:57Z</time>
      </trkpt>
      <trkpt lat="46.69171" lon="4.11406">
        <ele>296.22</ele>
        <time>2021-08-13T06:46:58Z</time>
      </trkpt>
      <trkpt lat="46.69169" lon="4.11403">
        <ele>296.22</ele>
        <time>2021-08-13T06:46:59Z</time>
      </trkpt>
      <trkpt lat="46.69168" lon="4.11399">
        <ele>296.22</ele>
        <time>2021-08-13T06:47:00Z</time>
      </trkpt>
      <trkpt lat="46.69166" lon="4.11394">
        <ele>295.26</ele>
        <time>2021-08-13T06:47:01Z</time>
      </trkpt>
      <trkpt lat="46.69164" lon="4.1139">
        <ele>295.26</ele>
        <time>2021-08-13T06:47:02Z</time>
      </trkpt>
      <trkpt lat="46.69155" lon="4.11367">
        <ele>297.18</ele>
        <time>2021-08-13T06:47:09Z</time>
      </trkpt>
      <trkpt lat="46.69152" lon="4.11358">
        <ele>297.67</ele>
        <time>2021-08-13T06:47:12Z</time>
      </trkpt>
      <trkpt lat="46.69151" lon="4.11356">
        <ele>297.67</ele>
        <time>2021-08-13T06:47:13Z</time>
      </trkpt>
      <trkpt lat="46.6915" lon="4.11353">
        <ele>297.67</ele>
        <time>2021-08-13T06:47:14Z</time>
      </trkpt>
      <trkpt lat="46.69149" lon="4.1135">
        <ele>297.67</ele>
        <time>2021-08-13T06:47:15Z</time>
      </trkpt>
      <trkpt lat="46.69148" lon="4.11348">
        <ele>297.67</ele>
        <time>2021-08-13T06:47:16Z</time>
      </trkpt>
      <trkpt lat="46.69138" lon="4.11329">
        <ele>298.15</ele>
        <time>2021-08-13T06:47:24Z</time>
      </trkpt>
      <trkpt lat="46.69126" lon="4.11314">
        <ele>299.59</ele>
        <time>2021-08-13T06:47:32Z</time>
      </trkpt>
      <trkpt lat="46.69115" lon="4.11305">
        <ele>300.07</ele>
        <time>2021-08-13T06:47:39Z</time>
      </trkpt>
      <trkpt lat="46.69104" lon="4.11301">
        <ele>301.03</ele>
        <time>2021-08-13T06:47:47Z</time>
      </trkpt>
      <trkpt lat="46.69093" lon="4.11297">
        <ele>301.99</ele>
        <time>2021-08-13T06:47:55Z</time>
      </trkpt>
      <trkpt lat="46.69087" lon="4.11289">
        <ele>302.47</ele>
        <time>2021-08-13T06:48:02Z</time>
      </trkpt>
      <trkpt lat="46.6908" lon="4.11278">
        <ele>303.91</ele>
        <time>2021-08-13T06:48:09Z</time>
      </trkpt>
      <trkpt lat="46.69071" lon="4.11266">
        <ele>304.88</ele>
        <time>2021-08-13T06:48:16Z</time>
      </trkpt>
      <trkpt lat="46.69059" lon="4.11256">
        <ele>305.84</ele>
        <time>2021-08-13T06:48:23Z</time>
      </trkpt>
      <trkpt lat="46.69057" lon="4.11254">
        <ele>306.32</ele>
        <time>2021-08-13T06:48:24Z</time>
      </trkpt>
      <trkpt lat="46.69056" lon="4.11253">
        <ele>305.84</ele>
        <time>2021-08-13T06:48:25Z</time>
      </trkpt>
      <trkpt lat="46.69045" lon="4.11245">
        <ele>307.28</ele>
        <time>2021-08-13T06:48:33Z</time>
      </trkpt>
      <trkpt lat="46.69036" lon="4.11237">
        <ele>307.76</ele>
        <time>2021-08-13T06:48:40Z</time>
      </trkpt>
      <trkpt lat="46.69024" lon="4.11226">
        <ele>308.72</ele>
        <time>2021-08-13T06:48:49Z</time>
      </trkpt>
      <trkpt lat="46.69011" lon="4.11214">
        <ele>309.2</ele>
        <time>2021-08-13T06:48:59Z</time>
      </trkpt>
      <trkpt lat="46.6901" lon="4.11213">
        <ele>309.2</ele>
        <time>2021-08-13T06:49:00Z</time>
      </trkpt>
      <trkpt lat="46.69008" lon="4.11212">
        <ele>309.2</ele>
        <time>2021-08-13T06:49:01Z</time>
      </trkpt>
      <trkpt lat="46.69007" lon="4.11211">
        <ele>309.68</ele>
        <time>2021-08-13T06:49:02Z</time>
      </trkpt>
      <trkpt lat="46.69006" lon="4.1121">
        <ele>309.68</ele>
        <time>2021-08-13T06:49:03Z</time>
      </trkpt>
      <trkpt lat="46.69004" lon="4.1121">
        <ele>309.68</ele>
        <time>2021-08-13T06:49:04Z</time>
      </trkpt>
      <trkpt lat="46.69002" lon="4.11209">
        <ele>309.68</ele>
        <time>2021-08-13T06:49:05Z</time>
      </trkpt>
      <trkpt lat="46.69001" lon="4.11208">
        <ele>309.68</ele>
        <time>2021-08-13T06:49:06Z</time>
      </trkpt>
      <trkpt lat="46.69" lon="4.11207">
        <ele>309.68</ele>
        <time>2021-08-13T06:49:07Z</time>
      </trkpt>
      <trkpt lat="46.68998" lon="4.11206">
        <ele>310.16</ele>
        <time>2021-08-13T06:49:08Z</time>
      </trkpt>
      <trkpt lat="46.68997" lon="4.11206">
        <ele>310.16</ele>
        <time>2021-08-13T06:49:09Z</time>
      </trkpt>
      <trkpt lat="46.68995" lon="4.11205">
        <ele>310.16</ele>
        <time>2021-08-13T06:49:10Z</time>
      </trkpt>
      <trkpt lat="46.68994" lon="4.11204">
        <ele>310.16</ele>
        <time>2021-08-13T06:49:11Z</time>
      </trkpt>
      <trkpt lat="46.68993" lon="4.11204">
        <ele>310.16</ele>
        <time>2021-08-13T06:49:12Z</time>
      </trkpt>
      <trkpt lat="46.68991" lon="4.11203">
        <ele>310.64</ele>
        <time>2021-08-13T06:49:13Z</time>
      </trkpt>
      <trkpt lat="46.68989" lon="4.11202">
        <ele>310.64</ele>
        <time>2021-08-13T06:49:14Z</time>
      </trkpt>
      <trkpt lat="46.68988" lon="4.11201">
        <ele>310.64</ele>
        <time>2021-08-13T06:49:15Z</time>
      </trkpt>
      <trkpt lat="46.68977" lon="4.11198">
        <ele>311.12</ele>
        <time>2021-08-13T06:49:22Z</time>
      </trkpt>
      <trkpt lat="46.68967" lon="4.11191">
        <ele>312.09</ele>
        <time>2021-08-13T06:49:30Z</time>
      </trkpt>
      <trkpt lat="46.68956" lon="4.11181">
        <ele>312.09</ele>
        <time>2021-08-13T06:49:38Z</time>
      </trkpt>
      <trkpt lat="46.68944" lon="4.11168">
        <ele>313.05</ele>
        <time>2021-08-13T06:49:47Z</time>
      </trkpt>
      <trkpt lat="46.68935" lon="4.11158">
        <ele>313.53</ele>
        <time>2021-08-13T06:49:54Z</time>
      </trkpt>
      <trkpt lat="46.68928" lon="4.1115">
        <ele>313.53</ele>
        <time>2021-08-13T06:50:00Z</time>
      </trkpt>
      <trkpt lat="46.68927" lon="4.11149">
        <ele>313.53</ele>
        <time>2021-08-13T06:50:01Z</time>
      </trkpt>
      <trkpt lat="46.68926" lon="4.11147">
        <ele>313.53</ele>
        <time>2021-08-13T06:50:02Z</time>
      </trkpt>
      <trkpt lat="46.68925" lon="4.11146">
        <ele>313.53</ele>
        <time>2021-08-13T06:50:03Z</time>
      </trkpt>
      <trkpt lat="46.68924" lon="4.11145">
        <ele>314.49</ele>
        <time>2021-08-13T06:50:04Z</time>
      </trkpt>
      <trkpt lat="46.68922" lon="4.11144">
        <ele>314.49</ele>
        <time>2021-08-13T06:50:05Z</time>
      </trkpt>
      <trkpt lat="46.68921" lon="4.11143">
        <ele>314.49</ele>
        <time>2021-08-13T06:50:06Z</time>
      </trkpt>
      <trkpt lat="46.68911" lon="4.11135">
        <ele>314.97</ele>
        <time>2021-08-13T06:50:15Z</time>
      </trkpt>
      <trkpt lat="46.68902" lon="4.1113">
        <ele>315.93</ele>
        <time>2021-08-13T06:50:22Z</time>
      </trkpt>
      <trkpt lat="46.68889" lon="4.11122">
        <ele>316.89</ele>
        <time>2021-08-13T06:50:30Z</time>
      </trkpt>
      <trkpt lat="46.68888" lon="4.11122">
        <ele>317.37</ele>
        <time>2021-08-13T06:50:31Z</time>
      </trkpt>
      <trkpt lat="46.68883" lon="4.11121">
        <ele>317.37</ele>
        <time>2021-08-13T06:50:39Z</time>
      </trkpt>
      <trkpt lat="46.68878" lon="4.11118">
        <ele>318.33</ele>
        <time>2021-08-13T06:50:47Z</time>
      </trkpt>
      <trkpt lat="46.68873" lon="4.11113">
        <ele>319.78</ele>
        <time>2021-08-13T06:50:56Z</time>
      </trkpt>
      <trkpt lat="46.68868" lon="4.11108">
        <ele>320.74</ele>
        <time>2021-08-13T06:51:05Z</time>
      </trkpt>
      <trkpt lat="46.68863" lon="4.11099">
        <ele>321.7</ele>
        <time>2021-08-13T06:51:14Z</time>
      </trkpt>
      <trkpt lat="46.68858" lon="4.11093">
        <ele>322.18</ele>
        <time>2021-08-13T06:51:21Z</time>
      </trkpt>
      <trkpt lat="46.6885" lon="4.11085">
        <ele>323.62</ele>
        <time>2021-08-13T06:51:31Z</time>
      </trkpt>
      <trkpt lat="46.68845" lon="4.11078">
        <ele>324.58</ele>
        <time>2021-08-13T06:51:38Z</time>
      </trkpt>
      <trkpt lat="46.68843" lon="4.11075">
        <ele>324.58</ele>
        <time>2021-08-13T06:51:41Z</time>
      </trkpt>
      <trkpt lat="46.68838" lon="4.1107">
        <ele>325.06</ele>
        <time>2021-08-13T06:51:48Z</time>
      </trkpt>
      <trkpt lat="46.68833" lon="4.11064">
        <ele>325.54</ele>
        <time>2021-08-13T06:51:55Z</time>
      </trkpt>
      <trkpt lat="46.68826" lon="4.11052">
        <ele>326.5</ele>
        <time>2021-08-13T06:52:03Z</time>
      </trkpt>
      <trkpt lat="46.68818" lon="4.11041">
        <ele>327.47</ele>
        <time>2021-08-13T06:52:10Z</time>
      </trkpt>
      <trkpt lat="46.68817" lon="4.11039">
        <ele>327.47</ele>
        <time>2021-08-13T06:52:11Z</time>
      </trkpt>
      <trkpt lat="46.68809" lon="4.11033">
        <ele>328.43</ele>
        <time>2021-08-13T06:52:18Z</time>
      </trkpt>
      <trkpt lat="46.68805" lon="4.11029">
        <ele>328.43</ele>
        <time>2021-08-13T06:52:21Z</time>
      </trkpt>
      <trkpt lat="46.68802" lon="4.11027">
        <ele>328.91</ele>
        <time>2021-08-13T06:52:23Z</time>
      </trkpt>
      <trkpt lat="46.68787" lon="4.11015">
        <ele>329.87</ele>
        <time>2021-08-13T06:52:31Z</time>
      </trkpt>
      <trkpt lat="46.6877" lon="4.10996">
        <ele>330.83</ele>
        <time>2021-08-13T06:52:41Z</time>
      </trkpt>
      <trkpt lat="46.68755" lon="4.10988">
        <ele>331.79</ele>
        <time>2021-08-13T06:52:49Z</time>
      </trkpt>
      <trkpt lat="46.68736" lon="4.10978">
        <ele>332.75</ele>
        <time>2021-08-13T06:52:59Z</time>
      </trkpt>
      <trkpt lat="46.68735" lon="4.10977">
        <ele>332.75</ele>
        <time>2021-08-13T06:53:00Z</time>
      </trkpt>
      <trkpt lat="46.68733" lon="4.10977">
        <ele>332.75</ele>
        <time>2021-08-13T06:53:01Z</time>
      </trkpt>
      <trkpt lat="46.68732" lon="4.10977">
        <ele>332.75</ele>
        <time>2021-08-13T06:53:02Z</time>
      </trkpt>
      <trkpt lat="46.6873" lon="4.10977">
        <ele>332.75</ele>
        <time>2021-08-13T06:53:03Z</time>
      </trkpt>
      <trkpt lat="46.68728" lon="4.10976">
        <ele>332.75</ele>
        <time>2021-08-13T06:53:04Z</time>
      </trkpt>
      <trkpt lat="46.68726" lon="4.10976">
        <ele>332.75</ele>
        <time>2021-08-13T06:53:05Z</time>
      </trkpt>
      <trkpt lat="46.68724" lon="4.10977">
        <ele>332.75</ele>
        <time>2021-08-13T06:53:06Z</time>
      </trkpt>
      <trkpt lat="46.68723" lon="4.10978">
        <ele>333.23</ele>
        <time>2021-08-13T06:53:07Z</time>
      </trkpt>
      <trkpt lat="46.6872" lon="4.10978">
        <ele>333.23</ele>
        <time>2021-08-13T06:53:08Z</time>
      </trkpt>
      <trkpt lat="46.68718" lon="4.10979">
        <ele>333.23</ele>
        <time>2021-08-13T06:53:09Z</time>
      </trkpt>
      <trkpt lat="46.68716" lon="4.10978">
        <ele>333.23</ele>
        <time>2021-08-13T06:53:10Z</time>
      </trkpt>
      <trkpt lat="46.68713" lon="4.10978">
        <ele>333.23</ele>
        <time>2021-08-13T06:53:11Z</time>
      </trkpt>
      <trkpt lat="46.68694" lon="4.10965">
        <ele>333.71</ele>
        <time>2021-08-13T06:53:18Z</time>
      </trkpt>
      <trkpt lat="46.68679" lon="4.1094">
        <ele>332.27</ele>
        <time>2021-08-13T06:53:25Z</time>
      </trkpt>
      <trkpt lat="46.6868" lon="4.10911">
        <ele>331.31</ele>
        <time>2021-08-13T06:53:30Z</time>
      </trkpt>
      <trkpt lat="46.68679" lon="4.10884">
        <ele>329.87</ele>
        <time>2021-08-13T06:53:34Z</time>
      </trkpt>
      <trkpt lat="46.68678" lon="4.10877">
        <ele>329.87</ele>
        <time>2021-08-13T06:53:35Z</time>
      </trkpt>
      <trkpt lat="46.68676" lon="4.1087">
        <ele>329.39</ele>
        <time>2021-08-13T06:53:36Z</time>
      </trkpt>
      <trkpt lat="46.68666" lon="4.10834">
        <ele>327.95</ele>
        <time>2021-08-13T06:53:42Z</time>
      </trkpt>
      <trkpt lat="46.68662" lon="4.10832">
        <ele>327.47</ele>
        <time>2021-08-13T06:53:43Z</time>
      </trkpt>
      <trkpt lat="46.68658" lon="4.10832">
        <ele>327.47</ele>
        <time>2021-08-13T06:53:44Z</time>
      </trkpt>
      <trkpt lat="46.68655" lon="4.10832">
        <ele>327.47</ele>
        <time>2021-08-13T06:53:45Z</time>
      </trkpt>
      <trkpt lat="46.68651" lon="4.10832">
        <ele>327.47</ele>
        <time>2021-08-13T06:53:46Z</time>
      </trkpt>
      <trkpt lat="46.68648" lon="4.1083">
        <ele>327.47</ele>
        <time>2021-08-13T06:53:47Z</time>
      </trkpt>
      <trkpt lat="46.68645" lon="4.10828">
        <ele>326.99</ele>
        <time>2021-08-13T06:53:48Z</time>
      </trkpt>
      <trkpt lat="46.68641" lon="4.10825">
        <ele>326.5</ele>
        <time>2021-08-13T06:53:49Z</time>
      </trkpt>
      <trkpt lat="46.68637" lon="4.10821">
        <ele>326.02</ele>
        <time>2021-08-13T06:53:50Z</time>
      </trkpt>
      <trkpt lat="46.68634" lon="4.10816">
        <ele>325.54</ele>
        <time>2021-08-13T06:53:51Z</time>
      </trkpt>
      <trkpt lat="46.68632" lon="4.10811">
        <ele>325.06</ele>
        <time>2021-08-13T06:53:52Z</time>
      </trkpt>
      <trkpt lat="46.6863" lon="4.10805">
        <ele>325.06</ele>
        <time>2021-08-13T06:53:53Z</time>
      </trkpt>
      <trkpt lat="46.68616" lon="4.10773">
        <ele>321.7</ele>
        <time>2021-08-13T06:53:59Z</time>
      </trkpt>
      <trkpt lat="46.68601" lon="4.10751">
        <ele>320.26</ele>
        <time>2021-08-13T06:54:05Z</time>
      </trkpt>
      <trkpt lat="46.6858" lon="4.1074">
        <ele>319.3</ele>
        <time>2021-08-13T06:54:11Z</time>
      </trkpt>
      <trkpt lat="46.68561" lon="4.10729">
        <ele>319.78</ele>
        <time>2021-08-13T06:54:18Z</time>
      </trkpt>
      <trkpt lat="46.68558" lon="4.10728">
        <ele>319.78</ele>
        <time>2021-08-13T06:54:19Z</time>
      </trkpt>
      <trkpt lat="46.68554" lon="4.10726">
        <ele>319.78</ele>
        <time>2021-08-13T06:54:20Z</time>
      </trkpt>
      <trkpt lat="46.68536" lon="4.10711">
        <ele>318.33</ele>
        <time>2021-08-13T06:54:26Z</time>
      </trkpt>
      <trkpt lat="46.68517" lon="4.10689">
        <ele>316.89</ele>
        <time>2021-08-13T06:54:32Z</time>
      </trkpt>
      <trkpt lat="46.68514" lon="4.10685">
        <ele>316.41</ele>
        <time>2021-08-13T06:54:33Z</time>
      </trkpt>
      <trkpt lat="46.6848" lon="4.10653">
        <ele>314.01</ele>
        <time>2021-08-13T06:54:41Z</time>
      </trkpt>
      <trkpt lat="46.68444" lon="4.10619">
        <ele>310.64</ele>
        <time>2021-08-13T06:54:49Z</time>
      </trkpt>
      <trkpt lat="46.68416" lon="4.10582">
        <ele>307.76</ele>
        <time>2021-08-13T06:54:56Z</time>
      </trkpt>
      <trkpt lat="46.68413" lon="4.10576">
        <ele>307.76</ele>
        <time>2021-08-13T06:54:57Z</time>
      </trkpt>
      <trkpt lat="46.68411" lon="4.10571">
        <ele>307.76</ele>
        <time>2021-08-13T06:54:58Z</time>
      </trkpt>
      <trkpt lat="46.68408" lon="4.10563">
        <ele>306.8</ele>
        <time>2021-08-13T06:54:59Z</time>
      </trkpt>
      <trkpt lat="46.68407" lon="4.10556">
        <ele>306.32</ele>
        <time>2021-08-13T06:55:00Z</time>
      </trkpt>
      <trkpt lat="46.68406" lon="4.10548">
        <ele>306.32</ele>
        <time>2021-08-13T06:55:01Z</time>
      </trkpt>
      <trkpt lat="46.68405" lon="4.10541">
        <ele>305.84</ele>
        <time>2021-08-13T06:55:02Z</time>
      </trkpt>
      <trkpt lat="46.68406" lon="4.10535">
        <ele>305.84</ele>
        <time>2021-08-13T06:55:03Z</time>
      </trkpt>
      <trkpt lat="46.68404" lon="4.10499">
        <ele>304.88</ele>
        <time>2021-08-13T06:55:09Z</time>
      </trkpt>
      <trkpt lat="46.68396" lon="4.10449">
        <ele>303.91</ele>
        <time>2021-08-13T06:55:16Z</time>
      </trkpt>
      <trkpt lat="46.68394" lon="4.10441">
        <ele>303.91</ele>
        <time>2021-08-13T06:55:17Z</time>
      </trkpt>
      <trkpt lat="46.68382" lon="4.10409">
        <ele>302.95</ele>
        <time>2021-08-13T06:55:23Z</time>
      </trkpt>
      <trkpt lat="46.68369" lon="4.10379">
        <ele>302.95</ele>
        <time>2021-08-13T06:55:30Z</time>
      </trkpt>
      <trkpt lat="46.6836" lon="4.10357">
        <ele>304.39</ele>
        <time>2021-08-13T06:55:35Z</time>
      </trkpt>
      <trkpt lat="46.6834" lon="4.10303">
        <ele>302.47</ele>
        <time>2021-08-13T06:55:46Z</time>
      </trkpt>
      <trkpt lat="46.68323" lon="4.10259">
        <ele>301.51</ele>
        <time>2021-08-13T06:55:55Z</time>
      </trkpt>
      <trkpt lat="46.68312" lon="4.10227">
        <ele>300.55</ele>
        <time>2021-08-13T06:56:01Z</time>
      </trkpt>
      <trkpt lat="46.6831" lon="4.10221">
        <ele>300.07</ele>
        <time>2021-08-13T06:56:02Z</time>
      </trkpt>
      <trkpt lat="46.68301" lon="4.10202">
        <ele>299.59</ele>
        <time>2021-08-13T06:56:06Z</time>
      </trkpt>
      <trkpt lat="46.68297" lon="4.10198">
        <ele>299.11</ele>
        <time>2021-08-13T06:56:07Z</time>
      </trkpt>
      <trkpt lat="46.68294" lon="4.10194">
        <ele>299.11</ele>
        <time>2021-08-13T06:56:08Z</time>
      </trkpt>
      <trkpt lat="46.68279" lon="4.10162">
        <ele>297.67</ele>
        <time>2021-08-13T06:56:14Z</time>
      </trkpt>
      <trkpt lat="46.68277" lon="4.10156">
        <ele>297.18</ele>
        <time>2021-08-13T06:56:15Z</time>
      </trkpt>
      <trkpt lat="46.68276" lon="4.10149">
        <ele>296.22</ele>
        <time>2021-08-13T06:56:16Z</time>
      </trkpt>
      <trkpt lat="46.68275" lon="4.10143">
        <ele>296.22</ele>
        <time>2021-08-13T06:56:17Z</time>
      </trkpt>
      <trkpt lat="46.68274" lon="4.10137">
        <ele>295.26</ele>
        <time>2021-08-13T06:56:18Z</time>
      </trkpt>
      <trkpt lat="46.68274" lon="4.10124">
        <ele>294.3</ele>
        <time>2021-08-13T06:56:20Z</time>
      </trkpt>
      <trkpt lat="46.68275" lon="4.10099">
        <ele>292.86</ele>
        <time>2021-08-13T06:56:24Z</time>
      </trkpt>
      <trkpt lat="46.68277" lon="4.10088">
        <ele>291.9</ele>
        <time>2021-08-13T06:56:26Z</time>
      </trkpt>
      <trkpt lat="46.68277" lon="4.10075">
        <ele>290.46</ele>
        <time>2021-08-13T06:56:28Z</time>
      </trkpt>
      <trkpt lat="46.68277" lon="4.10069">
        <ele>290.46</ele>
        <time>2021-08-13T06:56:29Z</time>
      </trkpt>
      <trkpt lat="46.68276" lon="4.10063">
        <ele>289.01</ele>
        <time>2021-08-13T06:56:30Z</time>
      </trkpt>
      <trkpt lat="46.68268" lon="4.10024">
        <ele>286.13</ele>
        <time>2021-08-13T06:56:36Z</time>
      </trkpt>
      <trkpt lat="46.68264" lon="4.09992">
        <ele>283.73</ele>
        <time>2021-08-13T06:56:41Z</time>
      </trkpt>
      <trkpt lat="46.6826" lon="4.09962">
        <ele>280.36</ele>
        <time>2021-08-13T06:56:45Z</time>
      </trkpt>
      <trkpt lat="46.68256" lon="4.09931">
        <ele>279.4</ele>
        <time>2021-08-13T06:56:49Z</time>
      </trkpt>
      <trkpt lat="46.68248" lon="4.09886">
        <ele>275.56</ele>
        <time>2021-08-13T06:56:55Z</time>
      </trkpt>
      <trkpt lat="46.68244" lon="4.09867">
        <ele>274.11</ele>
        <time>2021-08-13T06:56:58Z</time>
      </trkpt>
      <trkpt lat="46.68241" lon="4.09854">
        <ele>272.67</ele>
        <time>2021-08-13T06:57:01Z</time>
      </trkpt>
      <trkpt lat="46.68238" lon="4.09853">
        <ele>272.19</ele>
        <time>2021-08-13T06:57:02Z</time>
      </trkpt>
      <trkpt lat="46.68235" lon="4.09854">
        <ele>271.71</ele>
        <time>2021-08-13T06:57:03Z</time>
      </trkpt>
      <trkpt lat="46.68216" lon="4.09874">
        <ele>270.75</ele>
        <time>2021-08-13T06:57:09Z</time>
      </trkpt>
      <trkpt lat="46.68203" lon="4.09885">
        <ele>270.27</ele>
        <time>2021-08-13T06:57:12Z</time>
      </trkpt>
      <trkpt lat="46.68199" lon="4.09888">
        <ele>270.27</ele>
        <time>2021-08-13T06:57:13Z</time>
      </trkpt>
      <trkpt lat="46.68194" lon="4.0989">
        <ele>270.27</ele>
        <time>2021-08-13T06:57:14Z</time>
      </trkpt>
      <trkpt lat="46.68172" lon="4.09893">
        <ele>271.71</ele>
        <time>2021-08-13T06:57:20Z</time>
      </trkpt>
      <trkpt lat="46.68155" lon="4.09891">
        <ele>273.15</ele>
        <time>2021-08-13T06:57:27Z</time>
      </trkpt>
      <trkpt lat="46.68145" lon="4.09897">
        <ele>275.07</ele>
        <time>2021-08-13T06:57:34Z</time>
      </trkpt>
      <trkpt lat="46.68143" lon="4.09902">
        <ele>275.56</ele>
        <time>2021-08-13T06:57:37Z</time>
      </trkpt>
      <trkpt lat="46.68141" lon="4.09903">
        <ele>276.04</ele>
        <time>2021-08-13T06:57:38Z</time>
      </trkpt>
      <trkpt lat="46.68141" lon="4.09904">
        <ele>276.04</ele>
        <time>2021-08-13T06:57:39Z</time>
      </trkpt>
      <trkpt lat="46.6814" lon="4.09905">
        <ele>276.04</ele>
        <time>2021-08-13T06:57:40Z</time>
      </trkpt>
      <trkpt lat="46.68138" lon="4.09918">
        <ele>277</ele>
        <time>2021-08-13T06:57:48Z</time>
      </trkpt>
      <trkpt lat="46.68137" lon="4.09921">
        <ele>277</ele>
        <time>2021-08-13T06:57:50Z</time>
      </trkpt>
      <trkpt lat="46.68136" lon="4.09929">
        <ele>277.96</ele>
        <time>2021-08-13T06:57:56Z</time>
      </trkpt>
      <trkpt lat="46.68133" lon="4.0994">
        <ele>279.4</ele>
        <time>2021-08-13T06:58:05Z</time>
      </trkpt>
      <trkpt lat="46.6813" lon="4.09946">
        <ele>279.88</ele>
        <time>2021-08-13T06:58:12Z</time>
      </trkpt>
      <trkpt lat="46.68128" lon="4.0995">
        <ele>280.36</ele>
        <time>2021-08-13T06:58:16Z</time>
      </trkpt>
      <trkpt lat="46.68123" lon="4.09959">
        <ele>282.28</ele>
        <time>2021-08-13T06:58:24Z</time>
      </trkpt>
      <trkpt lat="46.68119" lon="4.09972">
        <ele>283.25</ele>
        <time>2021-08-13T06:58:33Z</time>
      </trkpt>
      <trkpt lat="46.68116" lon="4.09984">
        <ele>284.69</ele>
        <time>2021-08-13T06:58:42Z</time>
      </trkpt>
      <trkpt lat="46.68112" lon="4.10001">
        <ele>286.13</ele>
        <time>2021-08-13T06:58:52Z</time>
      </trkpt>
      <trkpt lat="46.6811" lon="4.10013">
        <ele>287.57</ele>
        <time>2021-08-13T06:59:01Z</time>
      </trkpt>
      <trkpt lat="46.68108" lon="4.10021">
        <ele>288.53</ele>
        <time>2021-08-13T06:59:08Z</time>
      </trkpt>
      <trkpt lat="46.68107" lon="4.10023">
        <ele>288.53</ele>
        <time>2021-08-13T06:59:10Z</time>
      </trkpt>
      <trkpt lat="46.68101" lon="4.10027">
        <ele>289.49</ele>
        <time>2021-08-13T06:59:18Z</time>
      </trkpt>
      <trkpt lat="46.68096" lon="4.10031">
        <ele>291.42</ele>
        <time>2021-08-13T06:59:26Z</time>
      </trkpt>
      <trkpt lat="46.68089" lon="4.10034">
        <ele>292.38</ele>
        <time>2021-08-13T06:59:34Z</time>
      </trkpt>
      <trkpt lat="46.68081" lon="4.10036">
        <ele>293.34</ele>
        <time>2021-08-13T06:59:43Z</time>
      </trkpt>
      <trkpt lat="46.68071" lon="4.10036">
        <ele>294.78</ele>
        <time>2021-08-13T06:59:54Z</time>
      </trkpt>
      <trkpt lat="46.68061" lon="4.10035">
        <ele>296.22</ele>
        <time>2021-08-13T07:00:04Z</time>
      </trkpt>
      <trkpt lat="46.68053" lon="4.10035">
        <ele>297.67</ele>
        <time>2021-08-13T07:00:13Z</time>
      </trkpt>
      <trkpt lat="46.68045" lon="4.10036">
        <ele>299.11</ele>
        <time>2021-08-13T07:00:22Z</time>
      </trkpt>
      <trkpt lat="46.68035" lon="4.10036">
        <ele>300.07</ele>
        <time>2021-08-13T07:00:31Z</time>
      </trkpt>
      <trkpt lat="46.68024" lon="4.10036">
        <ele>301.51</ele>
        <time>2021-08-13T07:00:42Z</time>
      </trkpt>
      <trkpt lat="46.68011" lon="4.10037">
        <ele>303.43</ele>
        <time>2021-08-13T07:00:54Z</time>
      </trkpt>
      <trkpt lat="46.68001" lon="4.10039">
        <ele>304.88</ele>
        <time>2021-08-13T07:01:04Z</time>
      </trkpt>
      <trkpt lat="46.67993" lon="4.10041">
        <ele>305.84</ele>
        <time>2021-08-13T07:01:11Z</time>
      </trkpt>
      <trkpt lat="46.67989" lon="4.10043">
        <ele>306.8</ele>
        <time>2021-08-13T07:01:16Z</time>
      </trkpt>
      <trkpt lat="46.67982" lon="4.10046">
        <ele>307.76</ele>
        <time>2021-08-13T07:01:24Z</time>
      </trkpt>
      <trkpt lat="46.67974" lon="4.10055">
        <ele>308.72</ele>
        <time>2021-08-13T07:01:34Z</time>
      </trkpt>
      <trkpt lat="46.67971" lon="4.10057">
        <ele>309.2</ele>
        <time>2021-08-13T07:01:40Z</time>
      </trkpt>
      <trkpt lat="46.67969" lon="4.10059">
        <ele>309.2</ele>
        <time>2021-08-13T07:01:42Z</time>
      </trkpt>
      <trkpt lat="46.67968" lon="4.10061">
        <ele>309.2</ele>
        <time>2021-08-13T07:01:43Z</time>
      </trkpt>
      <trkpt lat="46.67967" lon="4.10063">
        <ele>309.2</ele>
        <time>2021-08-13T07:01:44Z</time>
      </trkpt>
      <trkpt lat="46.67966" lon="4.10064">
        <ele>309.2</ele>
        <time>2021-08-13T07:01:45Z</time>
      </trkpt>
      <trkpt lat="46.67965" lon="4.10066">
        <ele>309.2</ele>
        <time>2021-08-13T07:01:46Z</time>
      </trkpt>
      <trkpt lat="46.67963" lon="4.10067">
        <ele>309.2</ele>
        <time>2021-08-13T07:01:47Z</time>
      </trkpt>
      <trkpt lat="46.67962" lon="4.10069">
        <ele>309.2</ele>
        <time>2021-08-13T07:01:48Z</time>
      </trkpt>
      <trkpt lat="46.6796" lon="4.10072">
        <ele>309.2</ele>
        <time>2021-08-13T07:01:49Z</time>
      </trkpt>
      <trkpt lat="46.67959" lon="4.10074">
        <ele>309.2</ele>
        <time>2021-08-13T07:01:50Z</time>
      </trkpt>
      <trkpt lat="46.67946" lon="4.10096">
        <ele>309.68</ele>
        <time>2021-08-13T07:01:58Z</time>
      </trkpt>
      <trkpt lat="46.67935" lon="4.10133">
        <ele>308.72</ele>
        <time>2021-08-13T07:02:07Z</time>
      </trkpt>
      <trkpt lat="46.67925" lon="4.1017">
        <ele>304.88</ele>
        <time>2021-08-13T07:02:12Z</time>
      </trkpt>
      <trkpt lat="46.67923" lon="4.1018">
        <ele>303.43</ele>
        <time>2021-08-13T07:02:13Z</time>
      </trkpt>
      <trkpt lat="46.67914" lon="4.10213">
        <ele>299.11</ele>
        <time>2021-08-13T07:02:16Z</time>
      </trkpt>
      <trkpt lat="46.67896" lon="4.10268">
        <ele>295.74</ele>
        <time>2021-08-13T07:02:20Z</time>
      </trkpt>
      <trkpt lat="46.6788" lon="4.10334">
        <ele>295.26</ele>
        <time>2021-08-13T07:02:25Z</time>
      </trkpt>
      <trkpt lat="46.6788" lon="4.10346">
        <ele>296.7</ele>
        <time>2021-08-13T07:02:26Z</time>
      </trkpt>
      <trkpt lat="46.6788" lon="4.10357">
        <ele>297.18</ele>
        <time>2021-08-13T07:02:27Z</time>
      </trkpt>
      <trkpt lat="46.67881" lon="4.10374">
        <ele>297.67</ele>
        <time>2021-08-13T07:02:29Z</time>
      </trkpt>
      <trkpt lat="46.67879" lon="4.10378">
        <ele>297.67</ele>
        <time>2021-08-13T07:02:30Z</time>
      </trkpt>
      <trkpt lat="46.67877" lon="4.1038">
        <ele>297.67</ele>
        <time>2021-08-13T07:02:31Z</time>
      </trkpt>
      <trkpt lat="46.67876" lon="4.1038">
        <ele>297.67</ele>
        <time>2021-08-13T07:02:32Z</time>
      </trkpt>
      <trkpt lat="46.67874" lon="4.10378">
        <ele>297.67</ele>
        <time>2021-08-13T07:02:33Z</time>
      </trkpt>
      <trkpt lat="46.67872" lon="4.10375">
        <ele>297.67</ele>
        <time>2021-08-13T07:02:34Z</time>
      </trkpt>
      <trkpt lat="46.6787" lon="4.10371">
        <ele>296.7</ele>
        <time>2021-08-13T07:02:35Z</time>
      </trkpt>
      <trkpt lat="46.67868" lon="4.10367">
        <ele>296.7</ele>
        <time>2021-08-13T07:02:36Z</time>
      </trkpt>
      <trkpt lat="46.67867" lon="4.10362">
        <ele>296.7</ele>
        <time>2021-08-13T07:02:37Z</time>
      </trkpt>
      <trkpt lat="46.67866" lon="4.10358">
        <ele>296.22</ele>
        <time>2021-08-13T07:02:38Z</time>
      </trkpt>
      <trkpt lat="46.67864" lon="4.10353">
        <ele>295.26</ele>
        <time>2021-08-13T07:02:39Z</time>
      </trkpt>
      <trkpt lat="46.67862" lon="4.10347">
        <ele>295.26</ele>
        <time>2021-08-13T07:02:40Z</time>
      </trkpt>
      <trkpt lat="46.67843" lon="4.103">
        <ele>291.9</ele>
        <time>2021-08-13T07:02:46Z</time>
      </trkpt>
      <trkpt lat="46.6783" lon="4.1027">
        <ele>288.53</ele>
        <time>2021-08-13T07:02:49Z</time>
      </trkpt>
      <trkpt lat="46.67816" lon="4.10236">
        <ele>285.17</ele>
        <time>2021-08-13T07:02:52Z</time>
      </trkpt>
      <trkpt lat="46.67798" lon="4.10193">
        <ele>281.32</ele>
        <time>2021-08-13T07:02:55Z</time>
      </trkpt>
      <trkpt lat="46.67785" lon="4.10163">
        <ele>277.96</ele>
        <time>2021-08-13T07:02:57Z</time>
      </trkpt>
      <trkpt lat="46.67772" lon="4.10135">
        <ele>274.59</ele>
        <time>2021-08-13T07:02:59Z</time>
      </trkpt>
      <trkpt lat="46.6775" lon="4.10092">
        <ele>269.79</ele>
        <time>2021-08-13T07:03:02Z</time>
      </trkpt>
      <trkpt lat="46.67728" lon="4.10032">
        <ele>265.94</ele>
        <time>2021-08-13T07:03:06Z</time>
      </trkpt>
      <trkpt lat="46.6771" lon="4.09983">
        <ele>262.1</ele>
        <time>2021-08-13T07:03:09Z</time>
      </trkpt>
      <trkpt lat="46.67706" lon="4.09965">
        <ele>261.14</ele>
        <time>2021-08-13T07:03:10Z</time>
      </trkpt>
      <trkpt lat="46.67704" lon="4.09947">
        <ele>260.17</ele>
        <time>2021-08-13T07:03:11Z</time>
      </trkpt>
      <trkpt lat="46.67702" lon="4.09928">
        <ele>260.17</ele>
        <time>2021-08-13T07:03:12Z</time>
      </trkpt>
      <trkpt lat="46.67702" lon="4.09909">
        <ele>259.69</ele>
        <time>2021-08-13T07:03:13Z</time>
      </trkpt>
      <trkpt lat="46.67703" lon="4.09891">
        <ele>259.69</ele>
        <time>2021-08-13T07:03:14Z</time>
      </trkpt>
      <trkpt lat="46.67705" lon="4.09872">
        <ele>259.21</ele>
        <time>2021-08-13T07:03:15Z</time>
      </trkpt>
      <trkpt lat="46.67711" lon="4.09809">
        <ele>259.21</ele>
        <time>2021-08-13T07:03:19Z</time>
      </trkpt>
      <trkpt lat="46.67713" lon="4.09798">
        <ele>259.21</ele>
        <time>2021-08-13T07:03:20Z</time>
      </trkpt>
      <trkpt lat="46.67717" lon="4.09787">
        <ele>258.73</ele>
        <time>2021-08-13T07:03:21Z</time>
      </trkpt>
      <trkpt lat="46.67723" lon="4.09779">
        <ele>258.73</ele>
        <time>2021-08-13T07:03:22Z</time>
      </trkpt>
      <trkpt lat="46.6773" lon="4.09772">
        <ele>258.73</ele>
        <time>2021-08-13T07:03:23Z</time>
      </trkpt>
      <trkpt lat="46.67735" lon="4.09769">
        <ele>259.21</ele>
        <time>2021-08-13T07:03:24Z</time>
      </trkpt>
      <trkpt lat="46.67758" lon="4.09754">
        <ele>259.21</ele>
        <time>2021-08-13T07:03:28Z</time>
      </trkpt>
      <trkpt lat="46.67771" lon="4.09743">
        <ele>260.65</ele>
        <time>2021-08-13T07:03:31Z</time>
      </trkpt>
      <trkpt lat="46.67787" lon="4.09725">
        <ele>262.1</ele>
        <time>2021-08-13T07:03:37Z</time>
      </trkpt>
      <trkpt lat="46.67799" lon="4.0971">
        <ele>263.54</ele>
        <time>2021-08-13T07:03:43Z</time>
      </trkpt>
      <trkpt lat="46.67813" lon="4.09687">
        <ele>265.46</ele>
        <time>2021-08-13T07:03:53Z</time>
      </trkpt>
      <trkpt lat="46.67824" lon="4.09666">
        <ele>266.9</ele>
        <time>2021-08-13T07:04:02Z</time>
      </trkpt>
      <trkpt lat="46.67833" lon="4.09644">
        <ele>268.83</ele>
        <time>2021-08-13T07:04:11Z</time>
      </trkpt>
      <trkpt lat="46.67844" lon="4.09621">
        <ele>269.31</ele>
        <time>2021-08-13T07:04:20Z</time>
      </trkpt>
      <trkpt lat="46.67859" lon="4.09612">
        <ele>271.23</ele>
        <time>2021-08-13T07:04:29Z</time>
      </trkpt>
      <trkpt lat="46.67871" lon="4.09604">
        <ele>272.67</ele>
        <time>2021-08-13T07:04:36Z</time>
      </trkpt>
      <trkpt lat="46.67883" lon="4.09599">
        <ele>273.63</ele>
        <time>2021-08-13T07:04:44Z</time>
      </trkpt>
      <trkpt lat="46.67888" lon="4.09595">
        <ele>275.07</ele>
        <time>2021-08-13T07:04:48Z</time>
      </trkpt>
      <trkpt lat="46.67889" lon="4.09594">
        <ele>275.07</ele>
        <time>2021-08-13T07:04:49Z</time>
      </trkpt>
      <trkpt lat="46.6789" lon="4.09593">
        <ele>275.56</ele>
        <time>2021-08-13T07:04:50Z</time>
      </trkpt>
      <trkpt lat="46.67891" lon="4.09591">
        <ele>275.56</ele>
        <time>2021-08-13T07:04:51Z</time>
      </trkpt>
      <trkpt lat="46.67892" lon="4.0959">
        <ele>275.56</ele>
        <time>2021-08-13T07:04:52Z</time>
      </trkpt>
      <trkpt lat="46.67893" lon="4.09588">
        <ele>276.04</ele>
        <time>2021-08-13T07:04:53Z</time>
      </trkpt>
      <trkpt lat="46.67895" lon="4.09587">
        <ele>276.04</ele>
        <time>2021-08-13T07:04:54Z</time>
      </trkpt>
      <trkpt lat="46.67896" lon="4.09586">
        <ele>276.04</ele>
        <time>2021-08-13T07:04:55Z</time>
      </trkpt>
      <trkpt lat="46.67897" lon="4.09585">
        <ele>276.52</ele>
        <time>2021-08-13T07:04:56Z</time>
      </trkpt>
      <trkpt lat="46.67898" lon="4.09583">
        <ele>276.52</ele>
        <time>2021-08-13T07:04:57Z</time>
      </trkpt>
      <trkpt lat="46.67899" lon="4.09581">
        <ele>276.52</ele>
        <time>2021-08-13T07:04:58Z</time>
      </trkpt>
      <trkpt lat="46.679" lon="4.0958">
        <ele>276.52</ele>
        <time>2021-08-13T07:04:59Z</time>
      </trkpt>
      <trkpt lat="46.67901" lon="4.09578">
        <ele>276.52</ele>
        <time>2021-08-13T07:05:00Z</time>
      </trkpt>
      <trkpt lat="46.67909" lon="4.09564">
        <ele>278.44</ele>
        <time>2021-08-13T07:05:09Z</time>
      </trkpt>
      <trkpt lat="46.67919" lon="4.09549">
        <ele>279.4</ele>
        <time>2021-08-13T07:05:18Z</time>
      </trkpt>
      <trkpt lat="46.67928" lon="4.09533">
        <ele>280.84</ele>
        <time>2021-08-13T07:05:27Z</time>
      </trkpt>
      <trkpt lat="46.6794" lon="4.09516">
        <ele>281.32</ele>
        <time>2021-08-13T07:05:36Z</time>
      </trkpt>
      <trkpt lat="46.67945" lon="4.09492">
        <ele>281.8</ele>
        <time>2021-08-13T07:05:44Z</time>
      </trkpt>
      <trkpt lat="46.67941" lon="4.09457">
        <ele>282.77</ele>
        <time>2021-08-13T07:05:53Z</time>
      </trkpt>
      <trkpt lat="46.67939" lon="4.09424">
        <ele>283.25</ele>
        <time>2021-08-13T07:06:01Z</time>
      </trkpt>
      <trkpt lat="46.67936" lon="4.094">
        <ele>283.73</ele>
        <time>2021-08-13T07:06:07Z</time>
      </trkpt>
      <trkpt lat="46.67934" lon="4.09375">
        <ele>284.21</ele>
        <time>2021-08-13T07:06:13Z</time>
      </trkpt>
      <trkpt lat="46.6793" lon="4.09328">
        <ele>285.65</ele>
        <time>2021-08-13T07:06:25Z</time>
      </trkpt>
      <trkpt lat="46.67928" lon="4.09285">
        <ele>286.13</ele>
        <time>2021-08-13T07:06:36Z</time>
      </trkpt>
      <trkpt lat="46.67924" lon="4.0924">
        <ele>287.09</ele>
        <time>2021-08-13T07:06:47Z</time>
      </trkpt>
      <trkpt lat="46.67916" lon="4.09207">
        <ele>288.05</ele>
        <time>2021-08-13T07:06:55Z</time>
      </trkpt>
      <trkpt lat="46.67898" lon="4.09186">
        <ele>288.53</ele>
        <time>2021-08-13T07:07:03Z</time>
      </trkpt>
      <trkpt lat="46.6788" lon="4.09161">
        <ele>289.49</ele>
        <time>2021-08-13T07:07:12Z</time>
      </trkpt>
      <trkpt lat="46.67865" lon="4.09132">
        <ele>290.46</ele>
        <time>2021-08-13T07:07:21Z</time>
      </trkpt>
      <trkpt lat="46.67853" lon="4.09106">
        <ele>291.42</ele>
        <time>2021-08-13T07:07:29Z</time>
      </trkpt>
      <trkpt lat="46.67839" lon="4.0908">
        <ele>291.42</ele>
        <time>2021-08-13T07:07:36Z</time>
      </trkpt>
      <trkpt lat="46.67822" lon="4.09049">
        <ele>291.42</ele>
        <time>2021-08-13T07:07:44Z</time>
      </trkpt>
      <trkpt lat="46.67806" lon="4.09025">
        <ele>291.42</ele>
        <time>2021-08-13T07:07:50Z</time>
      </trkpt>
      <trkpt lat="46.67783" lon="4.08994">
        <ele>292.38</ele>
        <time>2021-08-13T07:07:58Z</time>
      </trkpt>
      <trkpt lat="46.67768" lon="4.08971">
        <ele>293.82</ele>
        <time>2021-08-13T07:08:04Z</time>
      </trkpt>
      <trkpt lat="46.67759" lon="4.08956">
        <ele>295.74</ele>
        <time>2021-08-13T07:08:11Z</time>
      </trkpt>
      <trkpt lat="46.67756" lon="4.08946">
        <ele>297.18</ele>
        <time>2021-08-13T07:08:16Z</time>
      </trkpt>
      <trkpt lat="46.67751" lon="4.08931">
        <ele>298.63</ele>
        <time>2021-08-13T07:08:22Z</time>
      </trkpt>
      <trkpt lat="46.6775" lon="4.08926">
        <ele>298.63</ele>
        <time>2021-08-13T07:08:24Z</time>
      </trkpt>
      <trkpt lat="46.67751" lon="4.08908">
        <ele>300.07</ele>
        <time>2021-08-13T07:08:31Z</time>
      </trkpt>
      <trkpt lat="46.67753" lon="4.08887">
        <ele>301.03</ele>
        <time>2021-08-13T07:08:38Z</time>
      </trkpt>
      <trkpt lat="46.67756" lon="4.08866">
        <ele>301.99</ele>
        <time>2021-08-13T07:08:45Z</time>
      </trkpt>
      <trkpt lat="46.67758" lon="4.08847">
        <ele>303.43</ele>
        <time>2021-08-13T07:08:52Z</time>
      </trkpt>
      <trkpt lat="46.67758" lon="4.08822">
        <ele>304.88</ele>
        <time>2021-08-13T07:08:59Z</time>
      </trkpt>
      <trkpt lat="46.67752" lon="4.08782">
        <ele>305.36</ele>
        <time>2021-08-13T07:09:08Z</time>
      </trkpt>
      <trkpt lat="46.67742" lon="4.08735">
        <ele>306.32</ele>
        <time>2021-08-13T07:09:19Z</time>
      </trkpt>
      <trkpt lat="46.67737" lon="4.08703">
        <ele>307.76</ele>
        <time>2021-08-13T07:09:27Z</time>
      </trkpt>
      <trkpt lat="46.67728" lon="4.08669">
        <ele>309.2</ele>
        <time>2021-08-13T07:09:36Z</time>
      </trkpt>
      <trkpt lat="46.67714" lon="4.08633">
        <ele>310.16</ele>
        <time>2021-08-13T07:09:46Z</time>
      </trkpt>
      <trkpt lat="46.67702" lon="4.08598">
        <ele>311.12</ele>
        <time>2021-08-13T07:09:55Z</time>
      </trkpt>
      <trkpt lat="46.67685" lon="4.0855">
        <ele>311.6</ele>
        <time>2021-08-13T07:10:07Z</time>
      </trkpt>
      <trkpt lat="46.67669" lon="4.08505">
        <ele>312.57</ele>
        <time>2021-08-13T07:10:18Z</time>
      </trkpt>
      <trkpt lat="46.67654" lon="4.08467">
        <ele>313.53</ele>
        <time>2021-08-13T07:10:28Z</time>
      </trkpt>
      <trkpt lat="46.67645" lon="4.08422">
        <ele>314.97</ele>
        <time>2021-08-13T07:10:39Z</time>
      </trkpt>
      <trkpt lat="46.67636" lon="4.08379">
        <ele>315.93</ele>
        <time>2021-08-13T07:10:49Z</time>
      </trkpt>
      <trkpt lat="46.67626" lon="4.08341">
        <ele>317.37</ele>
        <time>2021-08-13T07:10:59Z</time>
      </trkpt>
      <trkpt lat="46.67618" lon="4.08316">
        <ele>319.78</ele>
        <time>2021-08-13T07:11:06Z</time>
      </trkpt>
      <trkpt lat="46.67609" lon="4.08281">
        <ele>320.74</ele>
        <time>2021-08-13T07:11:16Z</time>
      </trkpt>
      <trkpt lat="46.67597" lon="4.0823">
        <ele>322.18</ele>
        <time>2021-08-13T07:11:28Z</time>
      </trkpt>
      <trkpt lat="46.67586" lon="4.08175">
        <ele>323.14</ele>
        <time>2021-08-13T07:11:40Z</time>
      </trkpt>
      <trkpt lat="46.6758" lon="4.08142">
        <ele>324.58</ele>
        <time>2021-08-13T07:11:48Z</time>
      </trkpt>
      <trkpt lat="46.67577" lon="4.08113">
        <ele>326.99</ele>
        <time>2021-08-13T07:11:57Z</time>
      </trkpt>
      <trkpt lat="46.67578" lon="4.08091">
        <ele>327.95</ele>
        <time>2021-08-13T07:12:04Z</time>
      </trkpt>
      <trkpt lat="46.67582" lon="4.08054">
        <ele>330.35</ele>
        <time>2021-08-13T07:12:15Z</time>
      </trkpt>
      <trkpt lat="46.67584" lon="4.08019">
        <ele>331.31</ele>
        <time>2021-08-13T07:12:24Z</time>
      </trkpt>
      <trkpt lat="46.67586" lon="4.07978">
        <ele>331.79</ele>
        <time>2021-08-13T07:12:32Z</time>
      </trkpt>
      <trkpt lat="46.67587" lon="4.0792">
        <ele>331.79</ele>
        <time>2021-08-13T07:12:42Z</time>
      </trkpt>
      <trkpt lat="46.67586" lon="4.07863">
        <ele>331.79</ele>
        <time>2021-08-13T07:12:52Z</time>
      </trkpt>
      <trkpt lat="46.67579" lon="4.07794">
        <ele>332.75</ele>
        <time>2021-08-13T07:13:04Z</time>
      </trkpt>
      <trkpt lat="46.67572" lon="4.07748">
        <ele>333.71</ele>
        <time>2021-08-13T07:13:13Z</time>
      </trkpt>
      <trkpt lat="46.67566" lon="4.07706">
        <ele>334.2</ele>
        <time>2021-08-13T07:13:21Z</time>
      </trkpt>
      <trkpt lat="46.67562" lon="4.07654">
        <ele>334.2</ele>
        <time>2021-08-13T07:13:31Z</time>
      </trkpt>
      <trkpt lat="46.67559" lon="4.07618">
        <ele>335.16</ele>
        <time>2021-08-13T07:13:38Z</time>
      </trkpt>
      <trkpt lat="46.67558" lon="4.07591">
        <ele>336.12</ele>
        <time>2021-08-13T07:13:44Z</time>
      </trkpt>
      <trkpt lat="46.67561" lon="4.07552">
        <ele>337.08</ele>
        <time>2021-08-13T07:13:52Z</time>
      </trkpt>
      <trkpt lat="46.67559" lon="4.07516">
        <ele>338.04</ele>
        <time>2021-08-13T07:14:00Z</time>
      </trkpt>
      <trkpt lat="46.67554" lon="4.07471">
        <ele>338.04</ele>
        <time>2021-08-13T07:14:08Z</time>
      </trkpt>
      <trkpt lat="46.67549" lon="4.07426">
        <ele>336.12</ele>
        <time>2021-08-13T07:14:14Z</time>
      </trkpt>
      <trkpt lat="46.67539" lon="4.07357">
        <ele>333.71</ele>
        <time>2021-08-13T07:14:22Z</time>
      </trkpt>
      <trkpt lat="46.67522" lon="4.07264">
        <ele>331.79</ele>
        <time>2021-08-13T07:14:32Z</time>
      </trkpt>
      <trkpt lat="46.67517" lon="4.0719">
        <ele>330.83</ele>
        <time>2021-08-13T07:14:40Z</time>
      </trkpt>
      <trkpt lat="46.67514" lon="4.07096">
        <ele>330.35</ele>
        <time>2021-08-13T07:14:51Z</time>
      </trkpt>
      <trkpt lat="46.67517" lon="4.07018">
        <ele>329.87</ele>
        <time>2021-08-13T07:15:01Z</time>
      </trkpt>
      <trkpt lat="46.67521" lon="4.06931">
        <ele>329.87</ele>
        <time>2021-08-13T07:15:12Z</time>
      </trkpt>
      <trkpt lat="46.67529" lon="4.06853">
        <ele>329.87</ele>
        <time>2021-08-13T07:15:23Z</time>
      </trkpt>
      <trkpt lat="46.67535" lon="4.06814">
        <ele>331.31</ele>
        <time>2021-08-13T07:15:29Z</time>
      </trkpt>
      <trkpt lat="46.67542" lon="4.06765">
        <ele>331.79</ele>
        <time>2021-08-13T07:15:37Z</time>
      </trkpt>
      <trkpt lat="46.67544" lon="4.067">
        <ele>332.75</ele>
        <time>2021-08-13T07:15:48Z</time>
      </trkpt>
      <trkpt lat="46.67543" lon="4.06674">
        <ele>333.71</ele>
        <time>2021-08-13T07:15:53Z</time>
      </trkpt>
      <trkpt lat="46.67542" lon="4.06669">
        <ele>333.71</ele>
        <time>2021-08-13T07:15:54Z</time>
      </trkpt>
      <trkpt lat="46.67542" lon="4.06616">
        <ele>334.68</ele>
        <time>2021-08-13T07:16:04Z</time>
      </trkpt>
      <trkpt lat="46.67544" lon="4.06563">
        <ele>334.68</ele>
        <time>2021-08-13T07:16:12Z</time>
      </trkpt>
      <trkpt lat="46.67551" lon="4.06503">
        <ele>334.68</ele>
        <time>2021-08-13T07:16:21Z</time>
      </trkpt>
      <trkpt lat="46.67559" lon="4.06437">
        <ele>333.23</ele>
        <time>2021-08-13T07:16:31Z</time>
      </trkpt>
      <trkpt lat="46.67559" lon="4.0643">
        <ele>332.75</ele>
        <time>2021-08-13T07:16:32Z</time>
      </trkpt>
      <trkpt lat="46.67557" lon="4.06424">
        <ele>332.75</ele>
        <time>2021-08-13T07:16:33Z</time>
      </trkpt>
      <trkpt lat="46.67554" lon="4.06419">
        <ele>332.75</ele>
        <time>2021-08-13T07:16:34Z</time>
      </trkpt>
      <trkpt lat="46.67551" lon="4.06416">
        <ele>332.75</ele>
        <time>2021-08-13T07:16:35Z</time>
      </trkpt>
      <trkpt lat="46.67548" lon="4.06415">
        <ele>332.75</ele>
        <time>2021-08-13T07:16:36Z</time>
      </trkpt>
      <trkpt lat="46.67544" lon="4.06414">
        <ele>334.2</ele>
        <time>2021-08-13T07:16:37Z</time>
      </trkpt>
      <trkpt lat="46.6754" lon="4.06413">
        <ele>334.2</ele>
        <time>2021-08-13T07:16:38Z</time>
      </trkpt>
      <trkpt lat="46.67515" lon="4.06411">
        <ele>335.64</ele>
        <time>2021-08-13T07:16:45Z</time>
      </trkpt>
      <trkpt lat="46.67495" lon="4.06411">
        <ele>335.64</ele>
        <time>2021-08-13T07:16:50Z</time>
      </trkpt>
      <trkpt lat="46.67489" lon="4.06411">
        <ele>334.2</ele>
        <time>2021-08-13T07:16:51Z</time>
      </trkpt>
      <trkpt lat="46.67484" lon="4.06411">
        <ele>334.2</ele>
        <time>2021-08-13T07:16:52Z</time>
      </trkpt>
      <trkpt lat="46.67461" lon="4.06417">
        <ele>332.75</ele>
        <time>2021-08-13T07:16:56Z</time>
      </trkpt>
      <trkpt lat="46.67455" lon="4.0642">
        <ele>332.27</ele>
        <time>2021-08-13T07:16:57Z</time>
      </trkpt>
      <trkpt lat="46.67449" lon="4.06425">
        <ele>332.27</ele>
        <time>2021-08-13T07:16:58Z</time>
      </trkpt>
      <trkpt lat="46.67443" lon="4.06431">
        <ele>331.31</ele>
        <time>2021-08-13T07:16:59Z</time>
      </trkpt>
      <trkpt lat="46.67438" lon="4.06437">
        <ele>330.83</ele>
        <time>2021-08-13T07:17:00Z</time>
      </trkpt>
      <trkpt lat="46.67433" lon="4.06444">
        <ele>330.35</ele>
        <time>2021-08-13T07:17:01Z</time>
      </trkpt>
      <trkpt lat="46.67415" lon="4.06464">
        <ele>329.39</ele>
        <time>2021-08-13T07:17:04Z</time>
      </trkpt>
      <trkpt lat="46.67393" lon="4.06482">
        <ele>326.02</ele>
        <time>2021-08-13T07:17:07Z</time>
      </trkpt>
      <trkpt lat="46.67351" lon="4.06514">
        <ele>322.66</ele>
        <time>2021-08-13T07:17:13Z</time>
      </trkpt>
      <trkpt lat="46.67344" lon="4.06517">
        <ele>321.7</ele>
        <time>2021-08-13T07:17:14Z</time>
      </trkpt>
      <trkpt lat="46.67336" lon="4.06519">
        <ele>320.74</ele>
        <time>2021-08-13T07:17:15Z</time>
      </trkpt>
      <trkpt lat="46.67327" lon="4.0652">
        <ele>320.26</ele>
        <time>2021-08-13T07:17:16Z</time>
      </trkpt>
      <trkpt lat="46.67318" lon="4.06519">
        <ele>319.78</ele>
        <time>2021-08-13T07:17:17Z</time>
      </trkpt>
      <trkpt lat="46.67309" lon="4.06518">
        <ele>319.3</ele>
        <time>2021-08-13T07:17:18Z</time>
      </trkpt>
      <trkpt lat="46.67261" lon="4.06519">
        <ele>315.93</ele>
        <time>2021-08-13T07:17:23Z</time>
      </trkpt>
      <trkpt lat="46.67252" lon="4.06521">
        <ele>315.93</ele>
        <time>2021-08-13T07:17:24Z</time>
      </trkpt>
      <trkpt lat="46.67222" lon="4.06532">
        <ele>314.97</ele>
        <time>2021-08-13T07:17:28Z</time>
      </trkpt>
      <trkpt lat="46.67218" lon="4.06531">
        <ele>315.45</ele>
        <time>2021-08-13T07:17:29Z</time>
      </trkpt>
      <trkpt lat="46.67215" lon="4.06526">
        <ele>315.45</ele>
        <time>2021-08-13T07:17:30Z</time>
      </trkpt>
      <trkpt lat="46.67214" lon="4.06523">
        <ele>315.45</ele>
        <time>2021-08-13T07:17:31Z</time>
      </trkpt>
      <trkpt lat="46.67213" lon="4.06518">
        <ele>315.45</ele>
        <time>2021-08-13T07:17:32Z</time>
      </trkpt>
      <trkpt lat="46.67212" lon="4.06514">
        <ele>315.45</ele>
        <time>2021-08-13T07:17:33Z</time>
      </trkpt>
      <trkpt lat="46.6721" lon="4.06509">
        <ele>314.97</ele>
        <time>2021-08-13T07:17:34Z</time>
      </trkpt>
      <trkpt lat="46.67196" lon="4.06464">
        <ele>314.49</ele>
        <time>2021-08-13T07:17:41Z</time>
      </trkpt>
      <trkpt lat="46.67176" lon="4.06391">
        <ele>312.57</ele>
        <time>2021-08-13T07:17:51Z</time>
      </trkpt>
      <trkpt lat="46.67172" lon="4.06377">
        <ele>312.57</ele>
        <time>2021-08-13T07:17:53Z</time>
      </trkpt>
      <trkpt lat="46.67165" lon="4.06317">
        <ele>311.6</ele>
        <time>2021-08-13T07:18:01Z</time>
      </trkpt>
      <trkpt lat="46.67166" lon="4.06303">
        <ele>311.6</ele>
        <time>2021-08-13T07:18:03Z</time>
      </trkpt>
      <trkpt lat="46.67167" lon="4.06296">
        <ele>311.6</ele>
        <time>2021-08-13T07:18:04Z</time>
      </trkpt>
      <trkpt lat="46.67169" lon="4.06282">
        <ele>311.6</ele>
        <time>2021-08-13T07:18:06Z</time>
      </trkpt>
      <trkpt lat="46.6717" lon="4.06276">
        <ele>311.6</ele>
        <time>2021-08-13T07:18:07Z</time>
      </trkpt>
      <trkpt lat="46.67181" lon="4.06234">
        <ele>311.12</ele>
        <time>2021-08-13T07:18:14Z</time>
      </trkpt>
      <trkpt lat="46.67182" lon="4.06215">
        <ele>311.12</ele>
        <time>2021-08-13T07:18:17Z</time>
      </trkpt>
      <trkpt lat="46.67182" lon="4.06209">
        <ele>311.12</ele>
        <time>2021-08-13T07:18:18Z</time>
      </trkpt>
      <trkpt lat="46.6718" lon="4.06202">
        <ele>311.12</ele>
        <time>2021-08-13T07:18:19Z</time>
      </trkpt>
      <trkpt lat="46.67179" lon="4.06196">
        <ele>310.64</ele>
        <time>2021-08-13T07:18:20Z</time>
      </trkpt>
      <trkpt lat="46.67177" lon="4.0619">
        <ele>310.64</ele>
        <time>2021-08-13T07:18:21Z</time>
      </trkpt>
      <trkpt lat="46.67175" lon="4.06185">
        <ele>310.64</ele>
        <time>2021-08-13T07:18:22Z</time>
      </trkpt>
      <trkpt lat="46.67173" lon="4.06179">
        <ele>310.64</ele>
        <time>2021-08-13T07:18:23Z</time>
      </trkpt>
      <trkpt lat="46.67165" lon="4.06151">
        <ele>310.64</ele>
        <time>2021-08-13T07:18:28Z</time>
      </trkpt>
      <trkpt lat="46.67164" lon="4.06145">
        <ele>310.64</ele>
        <time>2021-08-13T07:18:29Z</time>
      </trkpt>
      <trkpt lat="46.67159" lon="4.06122">
        <ele>310.64</ele>
        <time>2021-08-13T07:18:33Z</time>
      </trkpt>
      <trkpt lat="46.67142" lon="4.06078">
        <ele>311.6</ele>
        <time>2021-08-13T07:18:41Z</time>
      </trkpt>
      <trkpt lat="46.67124" lon="4.06038">
        <ele>313.05</ele>
        <time>2021-08-13T07:18:50Z</time>
      </trkpt>
      <trkpt lat="46.67108" lon="4.06015">
        <ele>314.01</ele>
        <time>2021-08-13T07:18:58Z</time>
      </trkpt>
      <trkpt lat="46.67092" lon="4.06002">
        <ele>315.45</ele>
        <time>2021-08-13T07:19:06Z</time>
      </trkpt>
      <trkpt lat="46.67078" lon="4.05993">
        <ele>316.89</ele>
        <time>2021-08-13T07:19:14Z</time>
      </trkpt>
      <trkpt lat="46.67064" lon="4.05986">
        <ele>318.33</ele>
        <time>2021-08-13T07:19:22Z</time>
      </trkpt>
      <trkpt lat="46.67047" lon="4.05978">
        <ele>320.26</ele>
        <time>2021-08-13T07:19:31Z</time>
      </trkpt>
      <trkpt lat="46.67036" lon="4.05971">
        <ele>320.74</ele>
        <time>2021-08-13T07:19:40Z</time>
      </trkpt>
      <trkpt lat="46.67022" lon="4.05964">
        <ele>321.7</ele>
        <time>2021-08-13T07:19:50Z</time>
      </trkpt>
      <trkpt lat="46.67012" lon="4.05949">
        <ele>323.62</ele>
        <time>2021-08-13T07:19:59Z</time>
      </trkpt>
      <trkpt lat="46.67006" lon="4.05937">
        <ele>324.1</ele>
        <time>2021-08-13T07:20:05Z</time>
      </trkpt>
      <trkpt lat="46.67005" lon="4.05935">
        <ele>325.06</ele>
        <time>2021-08-13T07:20:06Z</time>
      </trkpt>
      <trkpt lat="46.67004" lon="4.05933">
        <ele>325.06</ele>
        <time>2021-08-13T07:20:07Z</time>
      </trkpt>
      <trkpt lat="46.67004" lon="4.05932">
        <ele>325.06</ele>
        <time>2021-08-13T07:20:08Z</time>
      </trkpt>
      <trkpt lat="46.67002" lon="4.0593">
        <ele>325.54</ele>
        <time>2021-08-13T07:20:09Z</time>
      </trkpt>
      <trkpt lat="46.66994" lon="4.05913">
        <ele>326.99</ele>
        <time>2021-08-13T07:20:19Z</time>
      </trkpt>
      <trkpt lat="46.66992" lon="4.05906">
        <ele>327.47</ele>
        <time>2021-08-13T07:20:23Z</time>
      </trkpt>
      <trkpt lat="46.6699" lon="4.05905">
        <ele>327.47</ele>
        <time>2021-08-13T07:20:24Z</time>
      </trkpt>
      <trkpt lat="46.66989" lon="4.05904">
        <ele>328.43</ele>
        <time>2021-08-13T07:20:25Z</time>
      </trkpt>
      <trkpt lat="46.66988" lon="4.05903">
        <ele>328.43</ele>
        <time>2021-08-13T07:20:26Z</time>
      </trkpt>
      <trkpt lat="46.66987" lon="4.05901">
        <ele>328.43</ele>
        <time>2021-08-13T07:20:27Z</time>
      </trkpt>
      <trkpt lat="46.66986" lon="4.059">
        <ele>328.43</ele>
        <time>2021-08-13T07:20:28Z</time>
      </trkpt>
      <trkpt lat="46.66986" lon="4.05898">
        <ele>328.43</ele>
        <time>2021-08-13T07:20:29Z</time>
      </trkpt>
      <trkpt lat="46.66985" lon="4.05896">
        <ele>328.91</ele>
        <time>2021-08-13T07:20:30Z</time>
      </trkpt>
      <trkpt lat="46.66984" lon="4.05894">
        <ele>328.91</ele>
        <time>2021-08-13T07:20:31Z</time>
      </trkpt>
      <trkpt lat="46.66983" lon="4.05892">
        <ele>328.91</ele>
        <time>2021-08-13T07:20:32Z</time>
      </trkpt>
      <trkpt lat="46.66982" lon="4.0589">
        <ele>328.91</ele>
        <time>2021-08-13T07:20:33Z</time>
      </trkpt>
      <trkpt lat="46.66981" lon="4.05888">
        <ele>329.87</ele>
        <time>2021-08-13T07:20:34Z</time>
      </trkpt>
      <trkpt lat="46.66975" lon="4.05866">
        <ele>330.83</ele>
        <time>2021-08-13T07:20:44Z</time>
      </trkpt>
      <trkpt lat="46.66975" lon="4.05847">
        <ele>331.79</ele>
        <time>2021-08-13T07:20:52Z</time>
      </trkpt>
      <trkpt lat="46.66976" lon="4.05845">
        <ele>332.27</ele>
        <time>2021-08-13T07:20:53Z</time>
      </trkpt>
      <trkpt lat="46.66981" lon="4.05823">
        <ele>333.71</ele>
        <time>2021-08-13T07:21:02Z</time>
      </trkpt>
      <trkpt lat="46.66983" lon="4.05814">
        <ele>334.68</ele>
        <time>2021-08-13T07:21:06Z</time>
      </trkpt>
      <trkpt lat="46.66979" lon="4.05798">
        <ele>336.12</ele>
        <time>2021-08-13T07:21:14Z</time>
      </trkpt>
      <trkpt lat="46.66974" lon="4.05779">
        <ele>337.08</ele>
        <time>2021-08-13T07:21:23Z</time>
      </trkpt>
      <trkpt lat="46.66973" lon="4.05776">
        <ele>337.08</ele>
        <time>2021-08-13T07:21:24Z</time>
      </trkpt>
      <trkpt lat="46.66972" lon="4.05775">
        <ele>337.08</ele>
        <time>2021-08-13T07:21:25Z</time>
      </trkpt>
      <trkpt lat="46.66971" lon="4.05773">
        <ele>337.56</ele>
        <time>2021-08-13T07:21:26Z</time>
      </trkpt>
      <trkpt lat="46.6697" lon="4.05771">
        <ele>337.56</ele>
        <time>2021-08-13T07:21:27Z</time>
      </trkpt>
      <trkpt lat="46.66969" lon="4.05768">
        <ele>337.56</ele>
        <time>2021-08-13T07:21:28Z</time>
      </trkpt>
      <trkpt lat="46.66969" lon="4.05766">
        <ele>337.56</ele>
        <time>2021-08-13T07:21:29Z</time>
      </trkpt>
      <trkpt lat="46.66968" lon="4.05764">
        <ele>337.56</ele>
        <time>2021-08-13T07:21:30Z</time>
      </trkpt>
      <trkpt lat="46.66968" lon="4.05762">
        <ele>337.56</ele>
        <time>2021-08-13T07:21:31Z</time>
      </trkpt>
      <trkpt lat="46.66967" lon="4.05758">
        <ele>337.56</ele>
        <time>2021-08-13T07:21:33Z</time>
      </trkpt>
      <trkpt lat="46.66966" lon="4.05755">
        <ele>337.56</ele>
        <time>2021-08-13T07:21:34Z</time>
      </trkpt>
      <trkpt lat="46.66966" lon="4.05753">
        <ele>338.04</ele>
        <time>2021-08-13T07:21:35Z</time>
      </trkpt>
      <trkpt lat="46.66965" lon="4.0575">
        <ele>338.04</ele>
        <time>2021-08-13T07:21:36Z</time>
      </trkpt>
      <trkpt lat="46.66964" lon="4.05748">
        <ele>338.04</ele>
        <time>2021-08-13T07:21:37Z</time>
      </trkpt>
      <trkpt lat="46.66963" lon="4.05745">
        <ele>338.04</ele>
        <time>2021-08-13T07:21:38Z</time>
      </trkpt>
      <trkpt lat="46.66963" lon="4.05743">
        <ele>338.04</ele>
        <time>2021-08-13T07:21:39Z</time>
      </trkpt>
      <trkpt lat="46.66956" lon="4.05717">
        <ele>339.48</ele>
        <time>2021-08-13T07:21:49Z</time>
      </trkpt>
      <trkpt lat="46.6695" lon="4.05691">
        <ele>340.44</ele>
        <time>2021-08-13T07:21:59Z</time>
      </trkpt>
      <trkpt lat="46.66945" lon="4.05662">
        <ele>341.89</ele>
        <time>2021-08-13T07:22:10Z</time>
      </trkpt>
      <trkpt lat="46.66937" lon="4.05634">
        <ele>342.85</ele>
        <time>2021-08-13T07:22:20Z</time>
      </trkpt>
      <trkpt lat="46.6693" lon="4.05608">
        <ele>343.81</ele>
        <time>2021-08-13T07:22:29Z</time>
      </trkpt>
      <trkpt lat="46.66919" lon="4.05569">
        <ele>344.77</ele>
        <time>2021-08-13T07:22:41Z</time>
      </trkpt>
      <trkpt lat="46.66914" lon="4.0554">
        <ele>345.73</ele>
        <time>2021-08-13T07:22:49Z</time>
      </trkpt>
      <trkpt lat="46.66913" lon="4.05515">
        <ele>345.73</ele>
        <time>2021-08-13T07:22:55Z</time>
      </trkpt>
      <trkpt lat="46.66912" lon="4.05474">
        <ele>345.73</ele>
        <time>2021-08-13T07:23:03Z</time>
      </trkpt>
      <trkpt lat="46.66909" lon="4.05436">
        <ele>342.37</ele>
        <time>2021-08-13T07:23:09Z</time>
      </trkpt>
      <trkpt lat="46.6691" lon="4.05424">
        <ele>340.44</ele>
        <time>2021-08-13T07:23:11Z</time>
      </trkpt>
      <trkpt lat="46.6691" lon="4.05418">
        <ele>339.96</ele>
        <time>2021-08-13T07:23:12Z</time>
      </trkpt>
      <trkpt lat="46.66913" lon="4.05378">
        <ele>336.6</ele>
        <time>2021-08-13T07:23:16Z</time>
      </trkpt>
      <trkpt lat="46.66914" lon="4.05353">
        <ele>334.68</ele>
        <time>2021-08-13T07:23:18Z</time>
      </trkpt>
      <trkpt lat="46.66912" lon="4.05328">
        <ele>333.71</ele>
        <time>2021-08-13T07:23:20Z</time>
      </trkpt>
      <trkpt lat="46.66903" lon="4.05236">
        <ele>330.83</ele>
        <time>2021-08-13T07:23:27Z</time>
      </trkpt>
      <trkpt lat="46.66893" lon="4.05168">
        <ele>330.83</ele>
        <time>2021-08-13T07:23:33Z</time>
      </trkpt>
      <trkpt lat="46.66876" lon="4.05115">
        <ele>330.83</ele>
        <time>2021-08-13T07:23:39Z</time>
      </trkpt>
      <trkpt lat="46.66868" lon="4.05093">
        <ele>332.27</ele>
        <time>2021-08-13T07:23:42Z</time>
      </trkpt>
      <trkpt lat="46.66866" lon="4.05087">
        <ele>332.75</ele>
        <time>2021-08-13T07:23:43Z</time>
      </trkpt>
      <trkpt lat="46.66855" lon="4.05055">
        <ele>334.2</ele>
        <time>2021-08-13T07:23:50Z</time>
      </trkpt>
      <trkpt lat="46.66847" lon="4.05023">
        <ele>335.64</ele>
        <time>2021-08-13T07:23:59Z</time>
      </trkpt>
      <trkpt lat="46.6684" lon="4.04994">
        <ele>335.64</ele>
        <time>2021-08-13T07:24:06Z</time>
      </trkpt>
      <trkpt lat="46.66832" lon="4.04946">
        <ele>333.23</ele>
        <time>2021-08-13T07:24:13Z</time>
      </trkpt>
      <trkpt lat="46.66818" lon="4.04897">
        <ele>329.39</ele>
        <time>2021-08-13T07:24:19Z</time>
      </trkpt>
      <trkpt lat="46.66802" lon="4.04859">
        <ele>326.5</ele>
        <time>2021-08-13T07:24:23Z</time>
      </trkpt>
      <trkpt lat="46.6679" lon="4.04826">
        <ele>323.62</ele>
        <time>2021-08-13T07:24:26Z</time>
      </trkpt>
      <trkpt lat="46.66772" lon="4.04777">
        <ele>319.78</ele>
        <time>2021-08-13T07:24:30Z</time>
      </trkpt>
      <trkpt lat="46.66755" lon="4.04727">
        <ele>316.89</ele>
        <time>2021-08-13T07:24:34Z</time>
      </trkpt>
      <trkpt lat="46.66752" lon="4.04719">
        <ele>315.93</ele>
        <time>2021-08-13T07:24:35Z</time>
      </trkpt>
      <trkpt lat="46.66751" lon="4.04711">
        <ele>316.89</ele>
        <time>2021-08-13T07:24:36Z</time>
      </trkpt>
      <trkpt lat="46.66751" lon="4.04705">
        <ele>315.93</ele>
        <time>2021-08-13T07:24:37Z</time>
      </trkpt>
      <trkpt lat="46.66754" lon="4.04699">
        <ele>315.45</ele>
        <time>2021-08-13T07:24:38Z</time>
      </trkpt>
      <trkpt lat="46.66758" lon="4.04694">
        <ele>314.97</ele>
        <time>2021-08-13T07:24:39Z</time>
      </trkpt>
      <trkpt lat="46.66763" lon="4.0469">
        <ele>314.97</ele>
        <time>2021-08-13T07:24:40Z</time>
      </trkpt>
      <trkpt lat="46.66768" lon="4.04686">
        <ele>314.01</ele>
        <time>2021-08-13T07:24:41Z</time>
      </trkpt>
      <trkpt lat="46.66784" lon="4.04673">
        <ele>314.01</ele>
        <time>2021-08-13T07:24:44Z</time>
      </trkpt>
      <trkpt lat="46.66788" lon="4.04667">
        <ele>313.53</ele>
        <time>2021-08-13T07:24:45Z</time>
      </trkpt>
      <trkpt lat="46.66791" lon="4.04659">
        <ele>313.53</ele>
        <time>2021-08-13T07:24:46Z</time>
      </trkpt>
      <trkpt lat="46.66792" lon="4.04652">
        <ele>313.05</ele>
        <time>2021-08-13T07:24:47Z</time>
      </trkpt>
      <trkpt lat="46.66794" lon="4.04643">
        <ele>313.05</ele>
        <time>2021-08-13T07:24:48Z</time>
      </trkpt>
      <trkpt lat="46.66797" lon="4.04625">
        <ele>313.05</ele>
        <time>2021-08-13T07:24:51Z</time>
      </trkpt>
      <trkpt lat="46.66798" lon="4.04622">
        <ele>313.05</ele>
        <time>2021-08-13T07:24:52Z</time>
      </trkpt>
      <trkpt lat="46.66797" lon="4.04624">
        <ele>313.05</ele>
        <time>2021-08-13T07:24:56Z</time>
      </trkpt>
      <trkpt lat="46.66797" lon="4.04626">
        <ele>313.05</ele>
        <time>2021-08-13T07:24:57Z</time>
      </trkpt>
      <trkpt lat="46.66796" lon="4.04628">
        <ele>313.05</ele>
        <time>2021-08-13T07:24:58Z</time>
      </trkpt>
      <trkpt lat="46.66795" lon="4.0463">
        <ele>313.05</ele>
        <time>2021-08-13T07:24:59Z</time>
      </trkpt>
      <trkpt lat="46.66793" lon="4.0463">
        <ele>313.05</ele>
        <time>2021-08-13T07:25:00Z</time>
      </trkpt>
      <trkpt lat="46.66791" lon="4.04628">
        <ele>313.05</ele>
        <time>2021-08-13T07:25:01Z</time>
      </trkpt>
      <trkpt lat="46.66789" lon="4.04626">
        <ele>313.05</ele>
        <time>2021-08-13T07:25:02Z</time>
      </trkpt>
      <trkpt lat="46.66788" lon="4.04624">
        <ele>313.05</ele>
        <time>2021-08-13T07:25:03Z</time>
      </trkpt>
      <trkpt lat="46.66785" lon="4.04622">
        <ele>313.05</ele>
        <time>2021-08-13T07:25:04Z</time>
      </trkpt>
      <trkpt lat="46.66783" lon="4.0462">
        <ele>313.05</ele>
        <time>2021-08-13T07:25:05Z</time>
      </trkpt>
      <trkpt lat="46.66766" lon="4.04605">
        <ele>313.05</ele>
        <time>2021-08-13T07:25:12Z</time>
      </trkpt>
      <trkpt lat="46.66752" lon="4.04594">
        <ele>312.57</ele>
        <time>2021-08-13T07:25:18Z</time>
      </trkpt>
      <trkpt lat="46.66735" lon="4.04572">
        <ele>313.05</ele>
        <time>2021-08-13T07:25:27Z</time>
      </trkpt>
      <trkpt lat="46.6673" lon="4.04548">
        <ele>313.05</ele>
        <time>2021-08-13T07:25:35Z</time>
      </trkpt>
      <trkpt lat="46.6673" lon="4.04519">
        <ele>313.05</ele>
        <time>2021-08-13T07:25:44Z</time>
      </trkpt>
      <trkpt lat="46.6673" lon="4.04516">
        <ele>313.05</ele>
        <time>2021-08-13T07:25:45Z</time>
      </trkpt>
      <trkpt lat="46.66731" lon="4.04513">
        <ele>313.05</ele>
        <time>2021-08-13T07:25:46Z</time>
      </trkpt>
      <trkpt lat="46.66731" lon="4.04509">
        <ele>313.05</ele>
        <time>2021-08-13T07:25:47Z</time>
      </trkpt>
      <trkpt lat="46.66732" lon="4.04491">
        <ele>314.01</ele>
        <time>2021-08-13T07:25:53Z</time>
      </trkpt>
      <trkpt lat="46.66733" lon="4.04486">
        <ele>314.01</ele>
        <time>2021-08-13T07:25:55Z</time>
      </trkpt>
      <trkpt lat="46.6674" lon="4.04464">
        <ele>314.49</ele>
        <time>2021-08-13T07:26:02Z</time>
      </trkpt>
      <trkpt lat="46.66745" lon="4.04447">
        <ele>316.41</ele>
        <time>2021-08-13T07:26:09Z</time>
      </trkpt>
      <trkpt lat="46.66752" lon="4.04428">
        <ele>317.85</ele>
        <time>2021-08-13T07:26:17Z</time>
      </trkpt>
      <trkpt lat="46.66754" lon="4.04414">
        <ele>319.3</ele>
        <time>2021-08-13T07:26:24Z</time>
      </trkpt>
      <trkpt lat="46.66753" lon="4.04402">
        <ele>320.26</ele>
        <time>2021-08-13T07:26:30Z</time>
      </trkpt>
      <trkpt lat="46.66752" lon="4.04402">
        <ele>320.26</ele>
        <time>2021-08-13T07:26:31Z</time>
      </trkpt>
      <trkpt lat="46.66747" lon="4.04395">
        <ele>320.74</ele>
        <time>2021-08-13T07:26:38Z</time>
      </trkpt>
      <trkpt lat="46.6674" lon="4.04389">
        <ele>321.22</ele>
        <time>2021-08-13T07:26:47Z</time>
      </trkpt>
      <trkpt lat="46.66736" lon="4.04386">
        <ele>321.7</ele>
        <time>2021-08-13T07:26:53Z</time>
      </trkpt>
      <trkpt lat="46.6673" lon="4.04376">
        <ele>323.14</ele>
        <time>2021-08-13T07:27:02Z</time>
      </trkpt>
      <trkpt lat="46.66729" lon="4.04369">
        <ele>324.1</ele>
        <time>2021-08-13T07:27:10Z</time>
      </trkpt>
      <trkpt lat="46.6673" lon="4.04368">
        <ele>324.1</ele>
        <time>2021-08-13T07:27:12Z</time>
      </trkpt>
      <trkpt lat="46.6673" lon="4.0437">
        <ele>324.1</ele>
        <time>2021-08-13T07:27:13Z</time>
      </trkpt>
      <trkpt lat="46.66729" lon="4.04372">
        <ele>324.1</ele>
        <time>2021-08-13T07:27:14Z</time>
      </trkpt>
      <trkpt lat="46.66727" lon="4.04375">
        <ele>324.1</ele>
        <time>2021-08-13T07:27:15Z</time>
      </trkpt>
      <trkpt lat="46.66724" lon="4.04377">
        <ele>324.1</ele>
        <time>2021-08-13T07:27:16Z</time>
      </trkpt>
      <trkpt lat="46.66722" lon="4.04379">
        <ele>322.66</ele>
        <time>2021-08-13T07:27:17Z</time>
      </trkpt>
      <trkpt lat="46.66719" lon="4.04379">
        <ele>322.66</ele>
        <time>2021-08-13T07:27:18Z</time>
      </trkpt>
      <trkpt lat="46.66715" lon="4.0438">
        <ele>322.66</ele>
        <time>2021-08-13T07:27:19Z</time>
      </trkpt>
      <trkpt lat="46.66712" lon="4.04381">
        <ele>322.66</ele>
        <time>2021-08-13T07:27:20Z</time>
      </trkpt>
      <trkpt lat="46.66709" lon="4.04381">
        <ele>322.66</ele>
        <time>2021-08-13T07:27:21Z</time>
      </trkpt>
      <trkpt lat="46.66696" lon="4.04378">
        <ele>322.66</ele>
        <time>2021-08-13T07:27:27Z</time>
      </trkpt>
      <trkpt lat="46.66686" lon="4.04377">
        <ele>324.1</ele>
        <time>2021-08-13T07:27:33Z</time>
      </trkpt>
      <trkpt lat="46.66682" lon="4.04378">
        <ele>324.58</ele>
        <time>2021-08-13T07:27:45Z</time>
      </trkpt>
      <trkpt lat="46.66682" lon="4.0438">
        <ele>324.58</ele>
        <time>2021-08-13T07:27:58Z</time>
      </trkpt>
      <trkpt lat="46.66679" lon="4.04381">
        <ele>324.58</ele>
        <time>2021-08-13T07:28:15Z</time>
      </trkpt>
      <trkpt lat="46.6668" lon="4.04381">
        <ele>323.62</ele>
        <time>2021-08-13T07:28:24Z</time>
      </trkpt>
      <trkpt lat="46.6668" lon="4.04384">
        <ele>323.62</ele>
        <time>2021-08-13T07:28:41Z</time>
      </trkpt>
      <trkpt lat="46.66677" lon="4.04382">
        <ele>323.62</ele>
        <time>2021-08-13T07:29:02Z</time>
      </trkpt>
      <trkpt lat="46.66677" lon="4.04381">
        <ele>323.62</ele>
        <time>2021-08-13T07:29:16Z</time>
      </trkpt>
      <trkpt lat="46.66677" lon="4.0438">
        <ele>325.06</ele>
        <time>2021-08-13T07:29:19Z</time>
      </trkpt>
      <trkpt lat="46.66674" lon="4.0438">
        <ele>326.02</ele>
        <time>2021-08-13T07:29:26Z</time>
      </trkpt>
      <trkpt lat="46.66666" lon="4.04383">
        <ele>327.47</ele>
        <time>2021-08-13T07:29:36Z</time>
      </trkpt>
      <trkpt lat="46.66662" lon="4.04385">
        <ele>327.95</ele>
        <time>2021-08-13T07:29:44Z</time>
      </trkpt>
      <trkpt lat="46.66659" lon="4.04385">
        <ele>327.95</ele>
        <time>2021-08-13T07:29:50Z</time>
      </trkpt>
      <trkpt lat="46.66644" lon="4.04388">
        <ele>327.95</ele>
        <time>2021-08-13T07:29:57Z</time>
      </trkpt>
      <trkpt lat="46.6663" lon="4.04384">
        <ele>327.95</ele>
        <time>2021-08-13T07:30:04Z</time>
      </trkpt>
      <trkpt lat="46.66614" lon="4.04373">
        <ele>326.5</ele>
        <time>2021-08-13T07:30:10Z</time>
      </trkpt>
      <trkpt lat="46.66608" lon="4.04366">
        <ele>326.02</ele>
        <time>2021-08-13T07:30:12Z</time>
      </trkpt>
      <trkpt lat="46.66605" lon="4.04361">
        <ele>326.02</ele>
        <time>2021-08-13T07:30:13Z</time>
      </trkpt>
      <trkpt lat="46.66604" lon="4.04357">
        <ele>326.02</ele>
        <time>2021-08-13T07:30:14Z</time>
      </trkpt>
      <trkpt lat="46.66603" lon="4.04354">
        <ele>326.02</ele>
        <time>2021-08-13T07:30:15Z</time>
      </trkpt>
      <trkpt lat="46.66602" lon="4.04351">
        <ele>326.02</ele>
        <time>2021-08-13T07:30:16Z</time>
      </trkpt>
      <trkpt lat="46.66601" lon="4.04348">
        <ele>326.02</ele>
        <time>2021-08-13T07:30:17Z</time>
      </trkpt>
      <trkpt lat="46.666" lon="4.04345">
        <ele>326.99</ele>
        <time>2021-08-13T07:30:18Z</time>
      </trkpt>
      <trkpt lat="46.666" lon="4.04341">
        <ele>326.99</ele>
        <time>2021-08-13T07:30:19Z</time>
      </trkpt>
      <trkpt lat="46.66599" lon="4.04338">
        <ele>326.99</ele>
        <time>2021-08-13T07:30:20Z</time>
      </trkpt>
      <trkpt lat="46.66599" lon="4.04334">
        <ele>326.99</ele>
        <time>2021-08-13T07:30:21Z</time>
      </trkpt>
      <trkpt lat="46.66603" lon="4.0432">
        <ele>328.91</ele>
        <time>2021-08-13T07:30:27Z</time>
      </trkpt>
      <trkpt lat="46.66612" lon="4.04306">
        <ele>330.83</ele>
        <time>2021-08-13T07:30:34Z</time>
      </trkpt>
      <trkpt lat="46.6662" lon="4.04287">
        <ele>332.27</ele>
        <time>2021-08-13T07:30:43Z</time>
      </trkpt>
      <trkpt lat="46.6662" lon="4.04275">
        <ele>333.23</ele>
        <time>2021-08-13T07:30:48Z</time>
      </trkpt>
      <trkpt lat="46.6662" lon="4.04272">
        <ele>333.23</ele>
        <time>2021-08-13T07:30:49Z</time>
      </trkpt>
      <trkpt lat="46.66617" lon="4.0426">
        <ele>334.2</ele>
        <time>2021-08-13T07:30:55Z</time>
      </trkpt>
      <trkpt lat="46.66618" lon="4.04246">
        <ele>334.68</ele>
        <time>2021-08-13T07:31:01Z</time>
      </trkpt>
      <trkpt lat="46.66619" lon="4.04244">
        <ele>334.68</ele>
        <time>2021-08-13T07:31:02Z</time>
      </trkpt>
      <trkpt lat="46.6662" lon="4.04242">
        <ele>335.16</ele>
        <time>2021-08-13T07:31:03Z</time>
      </trkpt>
      <trkpt lat="46.66621" lon="4.04241">
        <ele>335.64</ele>
        <time>2021-08-13T07:31:04Z</time>
      </trkpt>
      <trkpt lat="46.66623" lon="4.0424">
        <ele>335.64</ele>
        <time>2021-08-13T07:31:05Z</time>
      </trkpt>
      <trkpt lat="46.66624" lon="4.04238">
        <ele>335.64</ele>
        <time>2021-08-13T07:31:06Z</time>
      </trkpt>
      <trkpt lat="46.66626" lon="4.04237">
        <ele>335.64</ele>
        <time>2021-08-13T07:31:07Z</time>
      </trkpt>
      <trkpt lat="46.66627" lon="4.04235">
        <ele>336.12</ele>
        <time>2021-08-13T07:31:08Z</time>
      </trkpt>
      <trkpt lat="46.66631" lon="4.04221">
        <ele>337.08</ele>
        <time>2021-08-13T07:31:15Z</time>
      </trkpt>
      <trkpt lat="46.66627" lon="4.04194">
        <ele>339</ele>
        <time>2021-08-13T07:31:26Z</time>
      </trkpt>
      <trkpt lat="46.66624" lon="4.0417">
        <ele>340.44</ele>
        <time>2021-08-13T07:31:36Z</time>
      </trkpt>
      <trkpt lat="46.66623" lon="4.04156">
        <ele>341.41</ele>
        <time>2021-08-13T07:31:44Z</time>
      </trkpt>
      <trkpt lat="46.66625" lon="4.04134">
        <ele>341.89</ele>
        <time>2021-08-13T07:31:52Z</time>
      </trkpt>
      <trkpt lat="46.66625" lon="4.04109">
        <ele>342.85</ele>
        <time>2021-08-13T07:31:59Z</time>
      </trkpt>
      <trkpt lat="46.66621" lon="4.04067">
        <ele>343.81</ele>
        <time>2021-08-13T07:32:08Z</time>
      </trkpt>
      <trkpt lat="46.66617" lon="4.04021">
        <ele>345.25</ele>
        <time>2021-08-13T07:32:16Z</time>
      </trkpt>
      <trkpt lat="46.66614" lon="4.03974">
        <ele>346.21</ele>
        <time>2021-08-13T07:32:26Z</time>
      </trkpt>
      <trkpt lat="46.66624" lon="4.0396">
        <ele>347.17</ele>
        <time>2021-08-13T07:32:31Z</time>
      </trkpt>
      <trkpt lat="46.66645" lon="4.0395">
        <ele>348.13</ele>
        <time>2021-08-13T07:32:38Z</time>
      </trkpt>
      <trkpt lat="46.66669" lon="4.03941">
        <ele>350.06</ele>
        <time>2021-08-13T07:32:47Z</time>
      </trkpt>
      <trkpt lat="46.66693" lon="4.03934">
        <ele>351.02</ele>
        <time>2021-08-13T07:32:57Z</time>
      </trkpt>
      <trkpt lat="46.66718" lon="4.03924">
        <ele>351.98</ele>
        <time>2021-08-13T07:33:07Z</time>
      </trkpt>
      <trkpt lat="46.66735" lon="4.03915">
        <ele>353.42</ele>
        <time>2021-08-13T07:33:14Z</time>
      </trkpt>
      <trkpt lat="46.66754" lon="4.03897">
        <ele>354.38</ele>
        <time>2021-08-13T07:33:22Z</time>
      </trkpt>
      <trkpt lat="46.66777" lon="4.03875">
        <ele>355.34</ele>
        <time>2021-08-13T07:33:31Z</time>
      </trkpt>
      <trkpt lat="46.66806" lon="4.03842">
        <ele>355.34</ele>
        <time>2021-08-13T07:33:41Z</time>
      </trkpt>
      <trkpt lat="46.66847" lon="4.038">
        <ele>355.83</ele>
        <time>2021-08-13T07:33:53Z</time>
      </trkpt>
      <trkpt lat="46.66892" lon="4.03748">
        <ele>355.83</ele>
        <time>2021-08-13T07:34:06Z</time>
      </trkpt>
      <trkpt lat="46.66923" lon="4.037">
        <ele>356.31</ele>
        <time>2021-08-13T07:34:16Z</time>
      </trkpt>
      <trkpt lat="46.66952" lon="4.03646">
        <ele>357.27</ele>
        <time>2021-08-13T07:34:27Z</time>
      </trkpt>
      <trkpt lat="46.66955" lon="4.03642">
        <ele>357.27</ele>
        <time>2021-08-13T07:34:28Z</time>
      </trkpt>
      <trkpt lat="46.66958" lon="4.03638">
        <ele>357.27</ele>
        <time>2021-08-13T07:34:29Z</time>
      </trkpt>
      <trkpt lat="46.66973" lon="4.03608">
        <ele>358.23</ele>
        <time>2021-08-13T07:34:36Z</time>
      </trkpt>
      <trkpt lat="46.66987" lon="4.03575">
        <ele>359.19</ele>
        <time>2021-08-13T07:34:44Z</time>
      </trkpt>
      <trkpt lat="46.67002" lon="4.03528">
        <ele>360.63</ele>
        <time>2021-08-13T07:34:55Z</time>
      </trkpt>
      <trkpt lat="46.67013" lon="4.03488">
        <ele>361.59</ele>
        <time>2021-08-13T07:35:04Z</time>
      </trkpt>
      <trkpt lat="46.67019" lon="4.03479">
        <ele>361.59</ele>
        <time>2021-08-13T07:35:07Z</time>
      </trkpt>
      <trkpt lat="46.67022" lon="4.03479">
        <ele>361.59</ele>
        <time>2021-08-13T07:35:08Z</time>
      </trkpt>
      <trkpt lat="46.67025" lon="4.0348">
        <ele>361.59</ele>
        <time>2021-08-13T07:35:09Z</time>
      </trkpt>
      <trkpt lat="46.67027" lon="4.03482">
        <ele>361.59</ele>
        <time>2021-08-13T07:35:10Z</time>
      </trkpt>
      <trkpt lat="46.67029" lon="4.03484">
        <ele>361.59</ele>
        <time>2021-08-13T07:35:11Z</time>
      </trkpt>
      <trkpt lat="46.67047" lon="4.03506">
        <ele>363.04</ele>
        <time>2021-08-13T07:35:19Z</time>
      </trkpt>
      <trkpt lat="46.67076" lon="4.03532">
        <ele>364</ele>
        <time>2021-08-13T07:35:30Z</time>
      </trkpt>
      <trkpt lat="46.67093" lon="4.03548">
        <ele>364.48</ele>
        <time>2021-08-13T07:35:37Z</time>
      </trkpt>
      <trkpt lat="46.67107" lon="4.0356">
        <ele>365.44</ele>
        <time>2021-08-13T07:35:43Z</time>
      </trkpt>
      <trkpt lat="46.67119" lon="4.03573">
        <ele>365.44</ele>
        <time>2021-08-13T07:35:48Z</time>
      </trkpt>
      <trkpt lat="46.67135" lon="4.03587">
        <ele>366.4</ele>
        <time>2021-08-13T07:35:54Z</time>
      </trkpt>
      <trkpt lat="46.67151" lon="4.03612">
        <ele>366.88</ele>
        <time>2021-08-13T07:36:02Z</time>
      </trkpt>
      <trkpt lat="46.67166" lon="4.03631">
        <ele>367.84</ele>
        <time>2021-08-13T07:36:10Z</time>
      </trkpt>
      <trkpt lat="46.67175" lon="4.03634">
        <ele>368.8</ele>
        <time>2021-08-13T07:36:16Z</time>
      </trkpt>
      <trkpt lat="46.6719" lon="4.03639">
        <ele>369.76</ele>
        <time>2021-08-13T07:36:24Z</time>
      </trkpt>
      <trkpt lat="46.67199" lon="4.03644">
        <ele>370.24</ele>
        <time>2021-08-13T07:36:30Z</time>
      </trkpt>
      <trkpt lat="46.67202" lon="4.03645">
        <ele>370.73</ele>
        <time>2021-08-13T07:36:32Z</time>
      </trkpt>
      <trkpt lat="46.67204" lon="4.03646">
        <ele>370.73</ele>
        <time>2021-08-13T07:36:33Z</time>
      </trkpt>
      <trkpt lat="46.67206" lon="4.03647">
        <ele>370.73</ele>
        <time>2021-08-13T07:36:34Z</time>
      </trkpt>
      <trkpt lat="46.67207" lon="4.03648">
        <ele>370.73</ele>
        <time>2021-08-13T07:36:35Z</time>
      </trkpt>
      <trkpt lat="46.67213" lon="4.03651">
        <ele>371.69</ele>
        <time>2021-08-13T07:36:39Z</time>
      </trkpt>
      <trkpt lat="46.67221" lon="4.03654">
        <ele>372.65</ele>
        <time>2021-08-13T07:36:47Z</time>
      </trkpt>
      <trkpt lat="46.67228" lon="4.03656">
        <ele>373.61</ele>
        <time>2021-08-13T07:36:55Z</time>
      </trkpt>
      <trkpt lat="46.67234" lon="4.03658">
        <ele>374.57</ele>
        <time>2021-08-13T07:37:04Z</time>
      </trkpt>
      <trkpt lat="46.67242" lon="4.03661">
        <ele>375.53</ele>
        <time>2021-08-13T07:37:13Z</time>
      </trkpt>
      <trkpt lat="46.67248" lon="4.03664">
        <ele>376.01</ele>
        <time>2021-08-13T07:37:22Z</time>
      </trkpt>
      <trkpt lat="46.67255" lon="4.03666">
        <ele>377.45</ele>
        <time>2021-08-13T07:37:32Z</time>
      </trkpt>
      <trkpt lat="46.6726" lon="4.03668">
        <ele>379.38</ele>
        <time>2021-08-13T07:37:41Z</time>
      </trkpt>
      <trkpt lat="46.67266" lon="4.03668">
        <ele>380.34</ele>
        <time>2021-08-13T07:37:51Z</time>
      </trkpt>
      <trkpt lat="46.67271" lon="4.03669">
        <ele>381.78</ele>
        <time>2021-08-13T07:38:00Z</time>
      </trkpt>
      <trkpt lat="46.67276" lon="4.03668">
        <ele>382.74</ele>
        <time>2021-08-13T07:38:08Z</time>
      </trkpt>
      <trkpt lat="46.67282" lon="4.03667">
        <ele>383.7</ele>
        <time>2021-08-13T07:38:17Z</time>
      </trkpt>
      <trkpt lat="46.67286" lon="4.03662">
        <ele>385.15</ele>
        <time>2021-08-13T07:38:26Z</time>
      </trkpt>
      <trkpt lat="46.67287" lon="4.03659">
        <ele>385.63</ele>
        <time>2021-08-13T07:38:29Z</time>
      </trkpt>
      <trkpt lat="46.67293" lon="4.03654">
        <ele>386.11</ele>
        <time>2021-08-13T07:38:37Z</time>
      </trkpt>
      <trkpt lat="46.673" lon="4.03648">
        <ele>387.55</ele>
        <time>2021-08-13T07:38:47Z</time>
      </trkpt>
      <trkpt lat="46.67302" lon="4.03642">
        <ele>388.03</ele>
        <time>2021-08-13T07:38:54Z</time>
      </trkpt>
      <trkpt lat="46.67303" lon="4.03639">
        <ele>388.03</ele>
        <time>2021-08-13T07:38:58Z</time>
      </trkpt>
      <trkpt lat="46.6731" lon="4.0362">
        <ele>388.51</ele>
        <time>2021-08-13T07:39:06Z</time>
      </trkpt>
      <trkpt lat="46.67315" lon="4.03593">
        <ele>389.95</ele>
        <time>2021-08-13T07:39:15Z</time>
      </trkpt>
      <trkpt lat="46.67319" lon="4.03564">
        <ele>390.91</ele>
        <time>2021-08-13T07:39:24Z</time>
      </trkpt>
      <trkpt lat="46.67321" lon="4.03554">
        <ele>391.39</ele>
        <time>2021-08-13T07:39:27Z</time>
      </trkpt>
      <trkpt lat="46.67321" lon="4.03551">
        <ele>391.39</ele>
        <time>2021-08-13T07:39:28Z</time>
      </trkpt>
      <trkpt lat="46.67321" lon="4.03526">
        <ele>391.87</ele>
        <time>2021-08-13T07:39:36Z</time>
      </trkpt>
      <trkpt lat="46.67322" lon="4.03501">
        <ele>392.84</ele>
        <time>2021-08-13T07:39:44Z</time>
      </trkpt>
      <trkpt lat="46.6732" lon="4.03483">
        <ele>393.32</ele>
        <time>2021-08-13T07:39:51Z</time>
      </trkpt>
      <trkpt lat="46.67319" lon="4.03472">
        <ele>393.8</ele>
        <time>2021-08-13T07:39:57Z</time>
      </trkpt>
      <trkpt lat="46.67318" lon="4.03466">
        <ele>393.8</ele>
        <time>2021-08-13T07:40:09Z</time>
      </trkpt>
      <trkpt lat="46.67315" lon="4.03448">
        <ele>394.28</ele>
        <time>2021-08-13T07:40:17Z</time>
      </trkpt>
      <trkpt lat="46.67314" lon="4.03429">
        <ele>395.72</ele>
        <time>2021-08-13T07:40:25Z</time>
      </trkpt>
      <trkpt lat="46.67315" lon="4.03407">
        <ele>397.16</ele>
        <time>2021-08-13T07:40:33Z</time>
      </trkpt>
      <trkpt lat="46.67315" lon="4.03404">
        <ele>397.16</ele>
        <time>2021-08-13T07:40:34Z</time>
      </trkpt>
      <trkpt lat="46.6732" lon="4.03391">
        <ele>398.12</ele>
        <time>2021-08-13T07:40:40Z</time>
      </trkpt>
      <trkpt lat="46.67322" lon="4.03387">
        <ele>398.6</ele>
        <time>2021-08-13T07:40:42Z</time>
      </trkpt>
      <trkpt lat="46.67322" lon="4.03384">
        <ele>398.6</ele>
        <time>2021-08-13T07:40:43Z</time>
      </trkpt>
      <trkpt lat="46.67323" lon="4.03381">
        <ele>398.6</ele>
        <time>2021-08-13T07:40:44Z</time>
      </trkpt>
      <trkpt lat="46.67323" lon="4.03379">
        <ele>399.08</ele>
        <time>2021-08-13T07:40:45Z</time>
      </trkpt>
      <trkpt lat="46.67324" lon="4.03375">
        <ele>399.08</ele>
        <time>2021-08-13T07:40:46Z</time>
      </trkpt>
      <trkpt lat="46.67324" lon="4.03372">
        <ele>399.08</ele>
        <time>2021-08-13T07:40:47Z</time>
      </trkpt>
      <trkpt lat="46.67324" lon="4.03369">
        <ele>399.57</ele>
        <time>2021-08-13T07:40:48Z</time>
      </trkpt>
      <trkpt lat="46.67325" lon="4.03366">
        <ele>399.57</ele>
        <time>2021-08-13T07:40:49Z</time>
      </trkpt>
      <trkpt lat="46.67325" lon="4.03364">
        <ele>399.57</ele>
        <time>2021-08-13T07:40:50Z</time>
      </trkpt>
      <trkpt lat="46.67327" lon="4.03362">
        <ele>400.05</ele>
        <time>2021-08-13T07:40:51Z</time>
      </trkpt>
      <trkpt lat="46.67327" lon="4.03359">
        <ele>400.05</ele>
        <time>2021-08-13T07:40:52Z</time>
      </trkpt>
      <trkpt lat="46.67328" lon="4.03357">
        <ele>400.05</ele>
        <time>2021-08-13T07:40:53Z</time>
      </trkpt>
      <trkpt lat="46.67329" lon="4.03355">
        <ele>400.05</ele>
        <time>2021-08-13T07:40:54Z</time>
      </trkpt>
      <trkpt lat="46.6733" lon="4.03353">
        <ele>400.05</ele>
        <time>2021-08-13T07:40:55Z</time>
      </trkpt>
      <trkpt lat="46.67331" lon="4.03351">
        <ele>400.53</ele>
        <time>2021-08-13T07:40:56Z</time>
      </trkpt>
      <trkpt lat="46.67332" lon="4.03349">
        <ele>400.53</ele>
        <time>2021-08-13T07:40:57Z</time>
      </trkpt>
      <trkpt lat="46.67339" lon="4.03336">
        <ele>401.97</ele>
        <time>2021-08-13T07:41:05Z</time>
      </trkpt>
      <trkpt lat="46.67348" lon="4.03323">
        <ele>402.93</ele>
        <time>2021-08-13T07:41:13Z</time>
      </trkpt>
      <trkpt lat="46.67356" lon="4.03312">
        <ele>403.89</ele>
        <time>2021-08-13T07:41:21Z</time>
      </trkpt>
      <trkpt lat="46.67364" lon="4.03299">
        <ele>404.85</ele>
        <time>2021-08-13T07:41:28Z</time>
      </trkpt>
      <trkpt lat="46.6737" lon="4.03284">
        <ele>405.81</ele>
        <time>2021-08-13T07:41:36Z</time>
      </trkpt>
      <trkpt lat="46.67376" lon="4.03263">
        <ele>407.74</ele>
        <time>2021-08-13T07:41:46Z</time>
      </trkpt>
      <trkpt lat="46.67381" lon="4.03245">
        <ele>408.7</ele>
        <time>2021-08-13T07:41:55Z</time>
      </trkpt>
      <trkpt lat="46.67384" lon="4.03233">
        <ele>409.66</ele>
        <time>2021-08-13T07:42:01Z</time>
      </trkpt>
      <trkpt lat="46.67387" lon="4.03219">
        <ele>411.58</ele>
        <time>2021-08-13T07:42:09Z</time>
      </trkpt>
      <trkpt lat="46.67388" lon="4.0321">
        <ele>412.54</ele>
        <time>2021-08-13T07:42:15Z</time>
      </trkpt>
      <trkpt lat="46.67388" lon="4.03208">
        <ele>413.02</ele>
        <time>2021-08-13T07:42:16Z</time>
      </trkpt>
      <trkpt lat="46.67388" lon="4.03205">
        <ele>413.5</ele>
        <time>2021-08-13T07:42:17Z</time>
      </trkpt>
      <trkpt lat="46.67389" lon="4.03191">
        <ele>414.47</ele>
        <time>2021-08-13T07:42:25Z</time>
      </trkpt>
      <trkpt lat="46.67389" lon="4.03174">
        <ele>415.43</ele>
        <time>2021-08-13T07:42:34Z</time>
      </trkpt>
      <trkpt lat="46.67388" lon="4.03161">
        <ele>416.39</ele>
        <time>2021-08-13T07:42:41Z</time>
      </trkpt>
      <trkpt lat="46.67386" lon="4.03147">
        <ele>417.83</ele>
        <time>2021-08-13T07:42:48Z</time>
      </trkpt>
      <trkpt lat="46.67386" lon="4.03145">
        <ele>417.83</ele>
        <time>2021-08-13T07:42:49Z</time>
      </trkpt>
      <trkpt lat="46.67385" lon="4.03144">
        <ele>417.83</ele>
        <time>2021-08-13T07:42:50Z</time>
      </trkpt>
      <trkpt lat="46.67385" lon="4.03142">
        <ele>418.31</ele>
        <time>2021-08-13T07:42:51Z</time>
      </trkpt>
      <trkpt lat="46.67384" lon="4.0314">
        <ele>418.31</ele>
        <time>2021-08-13T07:42:52Z</time>
      </trkpt>
      <trkpt lat="46.67384" lon="4.03138">
        <ele>418.79</ele>
        <time>2021-08-13T07:42:53Z</time>
      </trkpt>
      <trkpt lat="46.67384" lon="4.03136">
        <ele>418.79</ele>
        <time>2021-08-13T07:42:54Z</time>
      </trkpt>
      <trkpt lat="46.67383" lon="4.03133">
        <ele>419.27</ele>
        <time>2021-08-13T07:42:55Z</time>
      </trkpt>
      <trkpt lat="46.67383" lon="4.03131">
        <ele>419.27</ele>
        <time>2021-08-13T07:42:56Z</time>
      </trkpt>
      <trkpt lat="46.67382" lon="4.03129">
        <ele>419.75</ele>
        <time>2021-08-13T07:42:57Z</time>
      </trkpt>
      <trkpt lat="46.67382" lon="4.03126">
        <ele>420.23</ele>
        <time>2021-08-13T07:42:58Z</time>
      </trkpt>
      <trkpt lat="46.67381" lon="4.03124">
        <ele>420.71</ele>
        <time>2021-08-13T07:42:59Z</time>
      </trkpt>
      <trkpt lat="46.67381" lon="4.03122">
        <ele>420.71</ele>
        <time>2021-08-13T07:43:00Z</time>
      </trkpt>
      <trkpt lat="46.67381" lon="4.0312">
        <ele>420.71</ele>
        <time>2021-08-13T07:43:01Z</time>
      </trkpt>
      <trkpt lat="46.6738" lon="4.03118">
        <ele>420.71</ele>
        <time>2021-08-13T07:43:02Z</time>
      </trkpt>
      <trkpt lat="46.6738" lon="4.03116">
        <ele>420.71</ele>
        <time>2021-08-13T07:43:03Z</time>
      </trkpt>
      <trkpt lat="46.67379" lon="4.03102">
        <ele>421.68</ele>
        <time>2021-08-13T07:43:11Z</time>
      </trkpt>
      <trkpt lat="46.67378" lon="4.03092">
        <ele>422.16</ele>
        <time>2021-08-13T07:43:16Z</time>
      </trkpt>
      <trkpt lat="46.67379" lon="4.03087">
        <ele>422.64</ele>
        <time>2021-08-13T07:43:19Z</time>
      </trkpt>
      <trkpt lat="46.67386" lon="4.03072">
        <ele>424.56</ele>
        <time>2021-08-13T07:43:29Z</time>
      </trkpt>
      <trkpt lat="46.67388" lon="4.03065">
        <ele>426</ele>
        <time>2021-08-13T07:43:36Z</time>
      </trkpt>
      <trkpt lat="46.67391" lon="4.03059">
        <ele>426.48</ele>
        <time>2021-08-13T07:43:43Z</time>
      </trkpt>
      <trkpt lat="46.67393" lon="4.03053">
        <ele>426.48</ele>
        <time>2021-08-13T07:43:47Z</time>
      </trkpt>
      <trkpt lat="46.67399" lon="4.03038">
        <ele>427.92</ele>
        <time>2021-08-13T07:43:57Z</time>
      </trkpt>
      <trkpt lat="46.67403" lon="4.03028">
        <ele>428.4</ele>
        <time>2021-08-13T07:44:04Z</time>
      </trkpt>
      <trkpt lat="46.67406" lon="4.03014">
        <ele>429.85</ele>
        <time>2021-08-13T07:44:13Z</time>
      </trkpt>
      <trkpt lat="46.67409" lon="4.03003">
        <ele>431.77</ele>
        <time>2021-08-13T07:44:23Z</time>
      </trkpt>
      <trkpt lat="46.67413" lon="4.02992">
        <ele>432.25</ele>
        <time>2021-08-13T07:44:31Z</time>
      </trkpt>
      <trkpt lat="46.67417" lon="4.0298">
        <ele>433.69</ele>
        <time>2021-08-13T07:44:39Z</time>
      </trkpt>
      <trkpt lat="46.6742" lon="4.0297">
        <ele>434.17</ele>
        <time>2021-08-13T07:44:46Z</time>
      </trkpt>
      <trkpt lat="46.67427" lon="4.02951">
        <ele>435.13</ele>
        <time>2021-08-13T07:44:56Z</time>
      </trkpt>
      <trkpt lat="46.67429" lon="4.02945">
        <ele>435.13</ele>
        <time>2021-08-13T07:45:02Z</time>
      </trkpt>
      <trkpt lat="46.67431" lon="4.02929">
        <ele>435.61</ele>
        <time>2021-08-13T07:45:09Z</time>
      </trkpt>
      <trkpt lat="46.6743" lon="4.029">
        <ele>436.1</ele>
        <time>2021-08-13T07:45:17Z</time>
      </trkpt>
      <trkpt lat="46.6743" lon="4.0287">
        <ele>436.1</ele>
        <time>2021-08-13T07:45:24Z</time>
      </trkpt>
      <trkpt lat="46.67427" lon="4.02827">
        <ele>436.58</ele>
        <time>2021-08-13T07:45:33Z</time>
      </trkpt>
      <trkpt lat="46.67425" lon="4.02806">
        <ele>435.13</ele>
        <time>2021-08-13T07:45:37Z</time>
      </trkpt>
      <trkpt lat="46.67424" lon="4.02793">
        <ele>434.17</ele>
        <time>2021-08-13T07:45:39Z</time>
      </trkpt>
      <trkpt lat="46.67423" lon="4.02786">
        <ele>433.69</ele>
        <time>2021-08-13T07:45:40Z</time>
      </trkpt>
      <trkpt lat="46.67421" lon="4.0278">
        <ele>433.21</ele>
        <time>2021-08-13T07:45:41Z</time>
      </trkpt>
      <trkpt lat="46.67413" lon="4.02753">
        <ele>431.77</ele>
        <time>2021-08-13T07:45:46Z</time>
      </trkpt>
      <trkpt lat="46.67412" lon="4.02747">
        <ele>431.29</ele>
        <time>2021-08-13T07:45:47Z</time>
      </trkpt>
      <trkpt lat="46.67399" lon="4.02706">
        <ele>427.92</ele>
        <time>2021-08-13T07:45:53Z</time>
      </trkpt>
      <trkpt lat="46.6739" lon="4.02671">
        <ele>423.6</ele>
        <time>2021-08-13T07:45:57Z</time>
      </trkpt>
      <trkpt lat="46.67384" lon="4.02644">
        <ele>420.71</ele>
        <time>2021-08-13T07:46:00Z</time>
      </trkpt>
      <trkpt lat="46.67377" lon="4.02607">
        <ele>417.83</ele>
        <time>2021-08-13T07:46:04Z</time>
      </trkpt>
      <trkpt lat="46.67377" lon="4.02597">
        <ele>417.35</ele>
        <time>2021-08-13T07:46:05Z</time>
      </trkpt>
      <trkpt lat="46.67378" lon="4.02588">
        <ele>416.87</ele>
        <time>2021-08-13T07:46:06Z</time>
      </trkpt>
      <trkpt lat="46.67381" lon="4.02579">
        <ele>416.87</ele>
        <time>2021-08-13T07:46:07Z</time>
      </trkpt>
      <trkpt lat="46.67385" lon="4.02572">
        <ele>415.91</ele>
        <time>2021-08-13T07:46:08Z</time>
      </trkpt>
      <trkpt lat="46.67392" lon="4.02549">
        <ele>415.43</ele>
        <time>2021-08-13T07:46:11Z</time>
      </trkpt>
      <trkpt lat="46.67394" lon="4.02541">
        <ele>415.43</ele>
        <time>2021-08-13T07:46:12Z</time>
      </trkpt>
      <trkpt lat="46.67395" lon="4.02533">
        <ele>415.43</ele>
        <time>2021-08-13T07:46:13Z</time>
      </trkpt>
      <trkpt lat="46.67395" lon="4.02524">
        <ele>414.95</ele>
        <time>2021-08-13T07:46:14Z</time>
      </trkpt>
      <trkpt lat="46.67395" lon="4.02516">
        <ele>414.95</ele>
        <time>2021-08-13T07:46:15Z</time>
      </trkpt>
      <trkpt lat="46.67387" lon="4.02452">
        <ele>413.98</ele>
        <time>2021-08-13T07:46:23Z</time>
      </trkpt>
      <trkpt lat="46.67382" lon="4.02394">
        <ele>413.98</ele>
        <time>2021-08-13T07:46:31Z</time>
      </trkpt>
      <trkpt lat="46.6738" lon="4.02349">
        <ele>415.91</ele>
        <time>2021-08-13T07:46:39Z</time>
      </trkpt>
      <trkpt lat="46.67376" lon="4.02307">
        <ele>418.31</ele>
        <time>2021-08-13T07:46:48Z</time>
      </trkpt>
      <trkpt lat="46.67368" lon="4.02266">
        <ele>419.27</ele>
        <time>2021-08-13T07:46:57Z</time>
      </trkpt>
      <trkpt lat="46.67359" lon="4.02202">
        <ele>418.79</ele>
        <time>2021-08-13T07:47:08Z</time>
      </trkpt>
      <trkpt lat="46.67358" lon="4.02141">
        <ele>418.79</ele>
        <time>2021-08-13T07:47:18Z</time>
      </trkpt>
      <trkpt lat="46.67363" lon="4.02086">
        <ele>419.27</ele>
        <time>2021-08-13T07:47:28Z</time>
      </trkpt>
      <trkpt lat="46.67368" lon="4.0205">
        <ele>419.27</ele>
        <time>2021-08-13T07:47:34Z</time>
      </trkpt>
      <trkpt lat="46.67369" lon="4.0203">
        <ele>418.31</ele>
        <time>2021-08-13T07:47:37Z</time>
      </trkpt>
      <trkpt lat="46.67366" lon="4.01967">
        <ele>416.39</ele>
        <time>2021-08-13T07:47:45Z</time>
      </trkpt>
      <trkpt lat="46.67362" lon="4.01931">
        <ele>415.43</ele>
        <time>2021-08-13T07:47:49Z</time>
      </trkpt>
      <trkpt lat="46.67361" lon="4.01922">
        <ele>415.43</ele>
        <time>2021-08-13T07:47:50Z</time>
      </trkpt>
      <trkpt lat="46.67356" lon="4.01842">
        <ele>414.47</ele>
        <time>2021-08-13T07:47:59Z</time>
      </trkpt>
      <trkpt lat="46.67349" lon="4.01787">
        <ele>414.47</ele>
        <time>2021-08-13T07:48:06Z</time>
      </trkpt>
      <trkpt lat="46.67333" lon="4.01726">
        <ele>413.5</ele>
        <time>2021-08-13T07:48:15Z</time>
      </trkpt>
      <trkpt lat="46.67324" lon="4.01652">
        <ele>411.58</ele>
        <time>2021-08-13T07:48:24Z</time>
      </trkpt>
      <trkpt lat="46.67314" lon="4.0157">
        <ele>410.14</ele>
        <time>2021-08-13T07:48:33Z</time>
      </trkpt>
      <trkpt lat="46.67307" lon="4.01526">
        <ele>409.18</ele>
        <time>2021-08-13T07:48:38Z</time>
      </trkpt>
      <trkpt lat="46.67301" lon="4.01501">
        <ele>409.18</ele>
        <time>2021-08-13T07:48:41Z</time>
      </trkpt>
      <trkpt lat="46.67282" lon="4.01441">
        <ele>409.18</ele>
        <time>2021-08-13T07:48:49Z</time>
      </trkpt>
      <trkpt lat="46.67266" lon="4.01379">
        <ele>408.7</ele>
        <time>2021-08-13T07:48:58Z</time>
      </trkpt>
      <trkpt lat="46.67242" lon="4.01318">
        <ele>406.29</ele>
        <time>2021-08-13T07:49:06Z</time>
      </trkpt>
      <trkpt lat="46.67214" lon="4.0126">
        <ele>404.37</ele>
        <time>2021-08-13T07:49:13Z</time>
      </trkpt>
      <trkpt lat="46.67166" lon="4.01194">
        <ele>402.93</ele>
        <time>2021-08-13T07:49:23Z</time>
      </trkpt>
      <trkpt lat="46.67104" lon="4.01135">
        <ele>401.49</ele>
        <time>2021-08-13T07:49:34Z</time>
      </trkpt>
      <trkpt lat="46.67046" lon="4.01087">
        <ele>400.53</ele>
        <time>2021-08-13T07:49:44Z</time>
      </trkpt>
      <trkpt lat="46.67026" lon="4.01068">
        <ele>400.53</ele>
        <time>2021-08-13T07:49:48Z</time>
      </trkpt>
      <trkpt lat="46.67022" lon="4.01062">
        <ele>400.53</ele>
        <time>2021-08-13T07:49:49Z</time>
      </trkpt>
      <trkpt lat="46.67018" lon="4.01055">
        <ele>400.53</ele>
        <time>2021-08-13T07:49:50Z</time>
      </trkpt>
      <trkpt lat="46.66998" lon="4.01011">
        <ele>400.53</ele>
        <time>2021-08-13T07:49:57Z</time>
      </trkpt>
      <trkpt lat="46.66983" lon="4.00987">
        <ele>401.49</ele>
        <time>2021-08-13T07:50:02Z</time>
      </trkpt>
      <trkpt lat="46.66969" lon="4.00965">
        <ele>401.49</ele>
        <time>2021-08-13T07:50:06Z</time>
      </trkpt>
      <trkpt lat="46.66959" lon="4.00945">
        <ele>399.57</ele>
        <time>2021-08-13T07:50:09Z</time>
      </trkpt>
      <trkpt lat="46.66947" lon="4.00922">
        <ele>398.12</ele>
        <time>2021-08-13T07:50:12Z</time>
      </trkpt>
      <trkpt lat="46.66918" lon="4.00853">
        <ele>396.2</ele>
        <time>2021-08-13T07:50:20Z</time>
      </trkpt>
      <trkpt lat="46.66899" lon="4.00791">
        <ele>396.2</ele>
        <time>2021-08-13T07:50:28Z</time>
      </trkpt>
      <trkpt lat="46.66893" lon="4.00771">
        <ele>396.2</ele>
        <time>2021-08-13T07:50:31Z</time>
      </trkpt>
      <trkpt lat="46.66882" lon="4.00698">
        <ele>397.64</ele>
        <time>2021-08-13T07:50:42Z</time>
      </trkpt>
      <trkpt lat="46.66881" lon="4.00691">
        <ele>397.64</ele>
        <time>2021-08-13T07:50:43Z</time>
      </trkpt>
      <trkpt lat="46.66871" lon="4.00641">
        <ele>398.6</ele>
        <time>2021-08-13T07:50:52Z</time>
      </trkpt>
      <trkpt lat="46.66863" lon="4.00595">
        <ele>399.57</ele>
        <time>2021-08-13T07:51:01Z</time>
      </trkpt>
      <trkpt lat="46.66857" lon="4.00556">
        <ele>400.05</ele>
        <time>2021-08-13T07:51:09Z</time>
      </trkpt>
      <trkpt lat="46.66851" lon="4.00524">
        <ele>401.49</ele>
        <time>2021-08-13T07:51:15Z</time>
      </trkpt>
      <trkpt lat="46.66846" lon="4.00511">
        <ele>401.97</ele>
        <time>2021-08-13T07:51:19Z</time>
      </trkpt>
      <trkpt lat="46.6684" lon="4.00492">
        <ele>402.93</ele>
        <time>2021-08-13T07:51:24Z</time>
      </trkpt>
      <trkpt lat="46.66837" lon="4.00473">
        <ele>404.85</ele>
        <time>2021-08-13T07:51:33Z</time>
      </trkpt>
      <trkpt lat="46.66837" lon="4.00471">
        <ele>404.85</ele>
        <time>2021-08-13T07:51:34Z</time>
      </trkpt>
      <trkpt lat="46.66836" lon="4.00469">
        <ele>404.85</ele>
        <time>2021-08-13T07:51:35Z</time>
      </trkpt>
      <trkpt lat="46.66835" lon="4.00466">
        <ele>404.85</ele>
        <time>2021-08-13T07:51:36Z</time>
      </trkpt>
      <trkpt lat="46.66833" lon="4.00436">
        <ele>406.77</ele>
        <time>2021-08-13T07:51:47Z</time>
      </trkpt>
      <trkpt lat="46.66835" lon="4.00411">
        <ele>408.22</ele>
        <time>2021-08-13T07:51:56Z</time>
      </trkpt>
      <trkpt lat="46.66836" lon="4.00392">
        <ele>409.18</ele>
        <time>2021-08-13T07:52:03Z</time>
      </trkpt>
      <trkpt lat="46.66838" lon="4.00363">
        <ele>410.62</ele>
        <time>2021-08-13T07:52:13Z</time>
      </trkpt>
      <trkpt lat="46.66839" lon="4.00336">
        <ele>411.1</ele>
        <time>2021-08-13T07:52:22Z</time>
      </trkpt>
      <trkpt lat="46.6684" lon="4.00309">
        <ele>409.18</ele>
        <time>2021-08-13T07:52:28Z</time>
      </trkpt>
      <trkpt lat="46.66838" lon="4.0029">
        <ele>408.22</ele>
        <time>2021-08-13T07:52:31Z</time>
      </trkpt>
      <trkpt lat="46.66836" lon="4.00276">
        <ele>407.26</ele>
        <time>2021-08-13T07:52:33Z</time>
      </trkpt>
      <trkpt lat="46.66834" lon="4.00268">
        <ele>406.77</ele>
        <time>2021-08-13T07:52:34Z</time>
      </trkpt>
      <trkpt lat="46.66831" lon="4.00252">
        <ele>405.81</ele>
        <time>2021-08-13T07:52:36Z</time>
      </trkpt>
      <trkpt lat="46.6683" lon="4.00244">
        <ele>405.81</ele>
        <time>2021-08-13T07:52:37Z</time>
      </trkpt>
      <trkpt lat="46.66815" lon="4.00184">
        <ele>403.41</ele>
        <time>2021-08-13T07:52:44Z</time>
      </trkpt>
      <trkpt lat="46.66804" lon="4.00128">
        <ele>402.45</ele>
        <time>2021-08-13T07:52:50Z</time>
      </trkpt>
      <trkpt lat="46.66805" lon="4.00108">
        <ele>402.45</ele>
        <time>2021-08-13T07:52:52Z</time>
      </trkpt>
      <trkpt lat="46.66812" lon="4.00048">
        <ele>402.45</ele>
        <time>2021-08-13T07:52:59Z</time>
      </trkpt>
      <trkpt lat="46.66817" lon="3.99997">
        <ele>402.45</ele>
        <time>2021-08-13T07:53:06Z</time>
      </trkpt>
      <trkpt lat="46.66825" lon="3.99947">
        <ele>402.45</ele>
        <time>2021-08-13T07:53:14Z</time>
      </trkpt>
      <trkpt lat="46.66826" lon="3.99941">
        <ele>402.45</ele>
        <time>2021-08-13T07:53:15Z</time>
      </trkpt>
      <trkpt lat="46.66827" lon="3.99935">
        <ele>402.45</ele>
        <time>2021-08-13T07:53:16Z</time>
      </trkpt>
      <trkpt lat="46.6683" lon="3.99878">
        <ele>403.89</ele>
        <time>2021-08-13T07:53:26Z</time>
      </trkpt>
      <trkpt lat="46.66828" lon="3.99831">
        <ele>403.89</ele>
        <time>2021-08-13T07:53:34Z</time>
      </trkpt>
      <trkpt lat="46.66825" lon="3.99789">
        <ele>404.85</ele>
        <time>2021-08-13T07:53:42Z</time>
      </trkpt>
      <trkpt lat="46.66823" lon="3.99769">
        <ele>405.33</ele>
        <time>2021-08-13T07:53:47Z</time>
      </trkpt>
      <trkpt lat="46.66822" lon="3.99765">
        <ele>405.33</ele>
        <time>2021-08-13T07:53:48Z</time>
      </trkpt>
      <trkpt lat="46.66813" lon="3.99731">
        <ele>405.81</ele>
        <time>2021-08-13T07:53:56Z</time>
      </trkpt>
      <trkpt lat="46.66809" lon="3.99706">
        <ele>406.29</ele>
        <time>2021-08-13T07:54:02Z</time>
      </trkpt>
      <trkpt lat="46.66808" lon="3.99684">
        <ele>407.26</ele>
        <time>2021-08-13T07:54:07Z</time>
      </trkpt>
      <trkpt lat="46.66806" lon="3.99653">
        <ele>407.74</ele>
        <time>2021-08-13T07:54:14Z</time>
      </trkpt>
      <trkpt lat="46.66804" lon="3.99623">
        <ele>408.7</ele>
        <time>2021-08-13T07:54:21Z</time>
      </trkpt>
      <trkpt lat="46.66804" lon="3.996">
        <ele>409.18</ele>
        <time>2021-08-13T07:54:27Z</time>
      </trkpt>
      <trkpt lat="46.66802" lon="3.99579">
        <ele>410.14</ele>
        <time>2021-08-13T07:54:33Z</time>
      </trkpt>
      <trkpt lat="46.66799" lon="3.99553">
        <ele>410.62</ele>
        <time>2021-08-13T07:54:39Z</time>
      </trkpt>
      <trkpt lat="46.66791" lon="3.99524">
        <ele>412.06</ele>
        <time>2021-08-13T07:54:46Z</time>
      </trkpt>
      <trkpt lat="46.66784" lon="3.99505">
        <ele>412.54</ele>
        <time>2021-08-13T07:54:52Z</time>
      </trkpt>
      <trkpt lat="46.66772" lon="3.99486">
        <ele>413.5</ele>
        <time>2021-08-13T07:54:59Z</time>
      </trkpt>
      <trkpt lat="46.66754" lon="3.99456">
        <ele>413.98</ele>
        <time>2021-08-13T07:55:08Z</time>
      </trkpt>
      <trkpt lat="46.66748" lon="3.99424">
        <ele>413.98</ele>
        <time>2021-08-13T07:55:14Z</time>
      </trkpt>
      <trkpt lat="46.6674" lon="3.9938">
        <ele>413.98</ele>
        <time>2021-08-13T07:55:22Z</time>
      </trkpt>
      <trkpt lat="46.66735" lon="3.99335">
        <ele>413.98</ele>
        <time>2021-08-13T07:55:31Z</time>
      </trkpt>
      <trkpt lat="46.66733" lon="3.99295">
        <ele>414.47</ele>
        <time>2021-08-13T07:55:39Z</time>
      </trkpt>
      <trkpt lat="46.6673" lon="3.99269">
        <ele>414.95</ele>
        <time>2021-08-13T07:55:45Z</time>
      </trkpt>
      <trkpt lat="46.66723" lon="3.99232">
        <ele>416.39</ele>
        <time>2021-08-13T07:55:54Z</time>
      </trkpt>
      <trkpt lat="46.66717" lon="3.99198">
        <ele>417.35</ele>
        <time>2021-08-13T07:56:03Z</time>
      </trkpt>
      <trkpt lat="46.66719" lon="3.9917">
        <ele>418.31</ele>
        <time>2021-08-13T07:56:11Z</time>
      </trkpt>
      <trkpt lat="46.66725" lon="3.99148">
        <ele>419.27</ele>
        <time>2021-08-13T07:56:18Z</time>
      </trkpt>
      <trkpt lat="46.6674" lon="3.99124">
        <ele>421.19</ele>
        <time>2021-08-13T07:56:28Z</time>
      </trkpt>
      <trkpt lat="46.66749" lon="3.9911">
        <ele>422.16</ele>
        <time>2021-08-13T07:56:34Z</time>
      </trkpt>
      <trkpt lat="46.66754" lon="3.99104">
        <ele>422.64</ele>
        <time>2021-08-13T07:56:37Z</time>
      </trkpt>
      <trkpt lat="46.66755" lon="3.99102">
        <ele>422.64</ele>
        <time>2021-08-13T07:56:38Z</time>
      </trkpt>
      <trkpt lat="46.66756" lon="3.99099">
        <ele>423.12</ele>
        <time>2021-08-13T07:56:39Z</time>
      </trkpt>
      <trkpt lat="46.66758" lon="3.99098">
        <ele>423.12</ele>
        <time>2021-08-13T07:56:40Z</time>
      </trkpt>
      <trkpt lat="46.66759" lon="3.99095">
        <ele>423.12</ele>
        <time>2021-08-13T07:56:41Z</time>
      </trkpt>
      <trkpt lat="46.66761" lon="3.99093">
        <ele>423.12</ele>
        <time>2021-08-13T07:56:42Z</time>
      </trkpt>
      <trkpt lat="46.66776" lon="3.99068">
        <ele>423.6</ele>
        <time>2021-08-13T07:56:50Z</time>
      </trkpt>
      <trkpt lat="46.66788" lon="3.99047">
        <ele>422.16</ele>
        <time>2021-08-13T07:56:55Z</time>
      </trkpt>
      <trkpt lat="46.66791" lon="3.99042">
        <ele>422.16</ele>
        <time>2021-08-13T07:56:56Z</time>
      </trkpt>
      <trkpt lat="46.66817" lon="3.98994">
        <ele>420.23</ele>
        <time>2021-08-13T07:57:04Z</time>
      </trkpt>
      <trkpt lat="46.66824" lon="3.9898">
        <ele>419.75</ele>
        <time>2021-08-13T07:57:06Z</time>
      </trkpt>
      <trkpt lat="46.66859" lon="3.98909">
        <ele>418.79</ele>
        <time>2021-08-13T07:57:16Z</time>
      </trkpt>
      <trkpt lat="46.66886" lon="3.98866">
        <ele>418.31</ele>
        <time>2021-08-13T07:57:24Z</time>
      </trkpt>
      <trkpt lat="46.66925" lon="3.98837">
        <ele>417.83</ele>
        <time>2021-08-13T07:57:32Z</time>
      </trkpt>
      <trkpt lat="46.66975" lon="3.98804">
        <ele>417.35</ele>
        <time>2021-08-13T07:57:42Z</time>
      </trkpt>
      <trkpt lat="46.66987" lon="3.9879">
        <ele>416.87</ele>
        <time>2021-08-13T07:57:45Z</time>
      </trkpt>
      <trkpt lat="46.66991" lon="3.98784">
        <ele>416.87</ele>
        <time>2021-08-13T07:57:46Z</time>
      </trkpt>
      <trkpt lat="46.66993" lon="3.98778">
        <ele>416.87</ele>
        <time>2021-08-13T07:57:47Z</time>
      </trkpt>
      <trkpt lat="46.66996" lon="3.98772">
        <ele>416.87</ele>
        <time>2021-08-13T07:57:48Z</time>
      </trkpt>
      <trkpt lat="46.66998" lon="3.98766">
        <ele>416.87</ele>
        <time>2021-08-13T07:57:49Z</time>
      </trkpt>
      <trkpt lat="46.67" lon="3.9876">
        <ele>416.87</ele>
        <time>2021-08-13T07:57:50Z</time>
      </trkpt>
      <trkpt lat="46.67002" lon="3.98754">
        <ele>416.87</ele>
        <time>2021-08-13T07:57:51Z</time>
      </trkpt>
      <trkpt lat="46.67002" lon="3.98748">
        <ele>416.87</ele>
        <time>2021-08-13T07:57:52Z</time>
      </trkpt>
      <trkpt lat="46.67002" lon="3.98742">
        <ele>416.87</ele>
        <time>2021-08-13T07:57:53Z</time>
      </trkpt>
      <trkpt lat="46.67002" lon="3.98735">
        <ele>416.87</ele>
        <time>2021-08-13T07:57:54Z</time>
      </trkpt>
      <trkpt lat="46.67002" lon="3.9873">
        <ele>418.31</ele>
        <time>2021-08-13T07:57:55Z</time>
      </trkpt>
      <trkpt lat="46.67002" lon="3.98724">
        <ele>418.31</ele>
        <time>2021-08-13T07:57:56Z</time>
      </trkpt>
      <trkpt lat="46.67001" lon="3.98717">
        <ele>418.31</ele>
        <time>2021-08-13T07:57:57Z</time>
      </trkpt>
      <trkpt lat="46.67" lon="3.98711">
        <ele>418.31</ele>
        <time>2021-08-13T07:57:58Z</time>
      </trkpt>
      <trkpt lat="46.66999" lon="3.98705">
        <ele>418.31</ele>
        <time>2021-08-13T07:57:59Z</time>
      </trkpt>
      <trkpt lat="46.66997" lon="3.98699">
        <ele>418.31</ele>
        <time>2021-08-13T07:58:00Z</time>
      </trkpt>
      <trkpt lat="46.66996" lon="3.98693">
        <ele>418.31</ele>
        <time>2021-08-13T07:58:01Z</time>
      </trkpt>
      <trkpt lat="46.66994" lon="3.98686">
        <ele>418.31</ele>
        <time>2021-08-13T07:58:02Z</time>
      </trkpt>
      <trkpt lat="46.66992" lon="3.9868">
        <ele>418.31</ele>
        <time>2021-08-13T07:58:03Z</time>
      </trkpt>
      <trkpt lat="46.66984" lon="3.98654">
        <ele>418.31</ele>
        <time>2021-08-13T07:58:07Z</time>
      </trkpt>
      <trkpt lat="46.66974" lon="3.98632">
        <ele>418.31</ele>
        <time>2021-08-13T07:58:11Z</time>
      </trkpt>
      <trkpt lat="46.6695" lon="3.98589">
        <ele>418.31</ele>
        <time>2021-08-13T07:58:19Z</time>
      </trkpt>
      <trkpt lat="46.66931" lon="3.98557">
        <ele>417.35</ele>
        <time>2021-08-13T07:58:25Z</time>
      </trkpt>
      <trkpt lat="46.66905" lon="3.98517">
        <ele>416.39</ele>
        <time>2021-08-13T07:58:33Z</time>
      </trkpt>
      <trkpt lat="46.66877" lon="3.98481">
        <ele>414.95</ele>
        <time>2021-08-13T07:58:40Z</time>
      </trkpt>
      <trkpt lat="46.66829" lon="3.98417">
        <ele>412.06</ele>
        <time>2021-08-13T07:58:50Z</time>
      </trkpt>
      <trkpt lat="46.66826" lon="3.98407">
        <ele>411.58</ele>
        <time>2021-08-13T07:58:51Z</time>
      </trkpt>
      <trkpt lat="46.66825" lon="3.98396">
        <ele>411.58</ele>
        <time>2021-08-13T07:58:52Z</time>
      </trkpt>
      <trkpt lat="46.66826" lon="3.98385">
        <ele>410.14</ele>
        <time>2021-08-13T07:58:53Z</time>
      </trkpt>
      <trkpt lat="46.66828" lon="3.98374">
        <ele>409.66</ele>
        <time>2021-08-13T07:58:54Z</time>
      </trkpt>
      <trkpt lat="46.66832" lon="3.98364">
        <ele>409.18</ele>
        <time>2021-08-13T07:58:55Z</time>
      </trkpt>
      <trkpt lat="46.66837" lon="3.98354">
        <ele>409.18</ele>
        <time>2021-08-13T07:58:56Z</time>
      </trkpt>
      <trkpt lat="46.66842" lon="3.98345">
        <ele>408.22</ele>
        <time>2021-08-13T07:58:57Z</time>
      </trkpt>
      <trkpt lat="46.66848" lon="3.98338">
        <ele>408.22</ele>
        <time>2021-08-13T07:58:58Z</time>
      </trkpt>
      <trkpt lat="46.66876" lon="3.983">
        <ele>407.26</ele>
        <time>2021-08-13T07:59:03Z</time>
      </trkpt>
      <trkpt lat="46.6688" lon="3.98291">
        <ele>406.77</ele>
        <time>2021-08-13T07:59:04Z</time>
      </trkpt>
      <trkpt lat="46.66883" lon="3.9828">
        <ele>406.29</ele>
        <time>2021-08-13T07:59:05Z</time>
      </trkpt>
      <trkpt lat="46.66885" lon="3.98269">
        <ele>405.81</ele>
        <time>2021-08-13T07:59:06Z</time>
      </trkpt>
      <trkpt lat="46.66887" lon="3.98256">
        <ele>405.33</ele>
        <time>2021-08-13T07:59:07Z</time>
      </trkpt>
      <trkpt lat="46.66888" lon="3.98246">
        <ele>405.33</ele>
        <time>2021-08-13T07:59:08Z</time>
      </trkpt>
      <trkpt lat="46.66894" lon="3.9816">
        <ele>401.97</ele>
        <time>2021-08-13T07:59:15Z</time>
      </trkpt>
      <trkpt lat="46.66896" lon="3.98068">
        <ele>398.12</ele>
        <time>2021-08-13T07:59:22Z</time>
      </trkpt>
      <trkpt lat="46.66892" lon="3.97985">
        <ele>395.24</ele>
        <time>2021-08-13T07:59:28Z</time>
      </trkpt>
      <trkpt lat="46.66885" lon="3.97916">
        <ele>392.36</ele>
        <time>2021-08-13T07:59:33Z</time>
      </trkpt>
      <trkpt lat="46.66879" lon="3.97821">
        <ele>388.99</ele>
        <time>2021-08-13T07:59:40Z</time>
      </trkpt>
      <trkpt lat="46.66874" lon="3.97807">
        <ele>388.51</ele>
        <time>2021-08-13T07:59:41Z</time>
      </trkpt>
      <trkpt lat="46.6687" lon="3.97796">
        <ele>388.03</ele>
        <time>2021-08-13T07:59:42Z</time>
      </trkpt>
      <trkpt lat="46.66865" lon="3.97786">
        <ele>387.55</ele>
        <time>2021-08-13T07:59:43Z</time>
      </trkpt>
      <trkpt lat="46.66858" lon="3.97775">
        <ele>387.07</ele>
        <time>2021-08-13T07:59:44Z</time>
      </trkpt>
      <trkpt lat="46.66831" lon="3.97721">
        <ele>384.66</ele>
        <time>2021-08-13T07:59:49Z</time>
      </trkpt>
      <trkpt lat="46.66812" lon="3.97656">
        <ele>381.78</ele>
        <time>2021-08-13T07:59:54Z</time>
      </trkpt>
      <trkpt lat="46.6681" lon="3.97643">
        <ele>381.3</ele>
        <time>2021-08-13T07:59:55Z</time>
      </trkpt>
      <trkpt lat="46.66809" lon="3.97631">
        <ele>381.3</ele>
        <time>2021-08-13T07:59:56Z</time>
      </trkpt>
      <trkpt lat="46.66809" lon="3.97619">
        <ele>380.34</ele>
        <time>2021-08-13T07:59:57Z</time>
      </trkpt>
      <trkpt lat="46.66811" lon="3.97609">
        <ele>379.86</ele>
        <time>2021-08-13T07:59:58Z</time>
      </trkpt>
      <trkpt lat="46.66815" lon="3.97599">
        <ele>379.38</ele>
        <time>2021-08-13T07:59:59Z</time>
      </trkpt>
      <trkpt lat="46.66821" lon="3.97591">
        <ele>379.38</ele>
        <time>2021-08-13T08:00:00Z</time>
      </trkpt>
      <trkpt lat="46.66827" lon="3.97585">
        <ele>378.9</ele>
        <time>2021-08-13T08:00:01Z</time>
      </trkpt>
      <trkpt lat="46.66834" lon="3.97579">
        <ele>378.9</ele>
        <time>2021-08-13T08:00:02Z</time>
      </trkpt>
      <trkpt lat="46.66847" lon="3.97567">
        <ele>378.42</ele>
        <time>2021-08-13T08:00:04Z</time>
      </trkpt>
      <trkpt lat="46.66852" lon="3.9756">
        <ele>378.42</ele>
        <time>2021-08-13T08:00:05Z</time>
      </trkpt>
      <trkpt lat="46.66856" lon="3.97552">
        <ele>377.94</ele>
        <time>2021-08-13T08:00:06Z</time>
      </trkpt>
      <trkpt lat="46.66859" lon="3.97543">
        <ele>377.94</ele>
        <time>2021-08-13T08:00:07Z</time>
      </trkpt>
      <trkpt lat="46.66862" lon="3.97533">
        <ele>377.94</ele>
        <time>2021-08-13T08:00:08Z</time>
      </trkpt>
      <trkpt lat="46.66863" lon="3.97523">
        <ele>377.94</ele>
        <time>2021-08-13T08:00:09Z</time>
      </trkpt>
      <trkpt lat="46.66864" lon="3.97513">
        <ele>377.45</ele>
        <time>2021-08-13T08:00:10Z</time>
      </trkpt>
      <trkpt lat="46.66865" lon="3.97502">
        <ele>377.45</ele>
        <time>2021-08-13T08:00:11Z</time>
      </trkpt>
      <trkpt lat="46.66871" lon="3.9747">
        <ele>376.01</ele>
        <time>2021-08-13T08:00:14Z</time>
      </trkpt>
      <trkpt lat="46.66881" lon="3.97438">
        <ele>374.09</ele>
        <time>2021-08-13T08:00:17Z</time>
      </trkpt>
      <trkpt lat="46.66882" lon="3.97426">
        <ele>374.09</ele>
        <time>2021-08-13T08:00:18Z</time>
      </trkpt>
      <trkpt lat="46.66883" lon="3.97415">
        <ele>373.13</ele>
        <time>2021-08-13T08:00:19Z</time>
      </trkpt>
      <trkpt lat="46.66882" lon="3.97403">
        <ele>373.13</ele>
        <time>2021-08-13T08:00:20Z</time>
      </trkpt>
      <trkpt lat="46.6688" lon="3.97391">
        <ele>372.65</ele>
        <time>2021-08-13T08:00:21Z</time>
      </trkpt>
      <trkpt lat="46.66878" lon="3.9738">
        <ele>372.65</ele>
        <time>2021-08-13T08:00:22Z</time>
      </trkpt>
      <trkpt lat="46.66859" lon="3.97296">
        <ele>369.28</ele>
        <time>2021-08-13T08:00:29Z</time>
      </trkpt>
      <trkpt lat="46.66858" lon="3.97282">
        <ele>368.8</ele>
        <time>2021-08-13T08:00:30Z</time>
      </trkpt>
      <trkpt lat="46.66858" lon="3.97269">
        <ele>368.8</ele>
        <time>2021-08-13T08:00:31Z</time>
      </trkpt>
      <trkpt lat="46.66865" lon="3.97187">
        <ele>365.44</ele>
        <time>2021-08-13T08:00:37Z</time>
      </trkpt>
      <trkpt lat="46.66869" lon="3.97147">
        <ele>364</ele>
        <time>2021-08-13T08:00:40Z</time>
      </trkpt>
      <trkpt lat="46.66872" lon="3.97122">
        <ele>362.55</ele>
        <time>2021-08-13T08:00:42Z</time>
      </trkpt>
      <trkpt lat="46.66878" lon="3.97067">
        <ele>360.63</ele>
        <time>2021-08-13T08:00:46Z</time>
      </trkpt>
      <trkpt lat="46.6688" lon="3.97055">
        <ele>360.63</ele>
        <time>2021-08-13T08:00:47Z</time>
      </trkpt>
      <trkpt lat="46.66885" lon="3.97043">
        <ele>360.15</ele>
        <time>2021-08-13T08:00:48Z</time>
      </trkpt>
      <trkpt lat="46.66891" lon="3.97034">
        <ele>359.19</ele>
        <time>2021-08-13T08:00:49Z</time>
      </trkpt>
      <trkpt lat="46.66897" lon="3.97026">
        <ele>359.19</ele>
        <time>2021-08-13T08:00:50Z</time>
      </trkpt>
      <trkpt lat="46.66905" lon="3.97018">
        <ele>358.71</ele>
        <time>2021-08-13T08:00:51Z</time>
      </trkpt>
      <trkpt lat="46.66943" lon="3.96984">
        <ele>356.31</ele>
        <time>2021-08-13T08:00:56Z</time>
      </trkpt>
      <trkpt lat="46.66951" lon="3.96982">
        <ele>356.31</ele>
        <time>2021-08-13T08:00:57Z</time>
      </trkpt>
      <trkpt lat="46.6696" lon="3.96981">
        <ele>355.34</ele>
        <time>2021-08-13T08:00:58Z</time>
      </trkpt>
      <trkpt lat="46.66995" lon="3.96979">
        <ele>353.42</ele>
        <time>2021-08-13T08:01:02Z</time>
      </trkpt>
      <trkpt lat="46.67004" lon="3.96976">
        <ele>352.94</ele>
        <time>2021-08-13T08:01:03Z</time>
      </trkpt>
      <trkpt lat="46.67012" lon="3.96969">
        <ele>352.94</ele>
        <time>2021-08-13T08:01:04Z</time>
      </trkpt>
      <trkpt lat="46.6702" lon="3.96962">
        <ele>351.98</ele>
        <time>2021-08-13T08:01:05Z</time>
      </trkpt>
      <trkpt lat="46.67028" lon="3.96954">
        <ele>351.5</ele>
        <time>2021-08-13T08:01:06Z</time>
      </trkpt>
      <trkpt lat="46.67044" lon="3.96941">
        <ele>350.06</ele>
        <time>2021-08-13T08:01:08Z</time>
      </trkpt>
      <trkpt lat="46.67053" lon="3.96937">
        <ele>350.06</ele>
        <time>2021-08-13T08:01:09Z</time>
      </trkpt>
      <trkpt lat="46.67062" lon="3.96935">
        <ele>349.1</ele>
        <time>2021-08-13T08:01:10Z</time>
      </trkpt>
      <trkpt lat="46.67071" lon="3.96935">
        <ele>349.1</ele>
        <time>2021-08-13T08:01:11Z</time>
      </trkpt>
      <trkpt lat="46.67081" lon="3.96936">
        <ele>348.13</ele>
        <time>2021-08-13T08:01:12Z</time>
      </trkpt>
      <trkpt lat="46.67108" lon="3.96936">
        <ele>346.69</ele>
        <time>2021-08-13T08:01:15Z</time>
      </trkpt>
      <trkpt lat="46.67115" lon="3.96931">
        <ele>346.21</ele>
        <time>2021-08-13T08:01:16Z</time>
      </trkpt>
      <trkpt lat="46.67121" lon="3.96922">
        <ele>345.73</ele>
        <time>2021-08-13T08:01:17Z</time>
      </trkpt>
      <trkpt lat="46.67125" lon="3.96911">
        <ele>344.77</ele>
        <time>2021-08-13T08:01:18Z</time>
      </trkpt>
      <trkpt lat="46.67127" lon="3.96898">
        <ele>344.29</ele>
        <time>2021-08-13T08:01:19Z</time>
      </trkpt>
      <trkpt lat="46.67127" lon="3.96886">
        <ele>343.81</ele>
        <time>2021-08-13T08:01:20Z</time>
      </trkpt>
      <trkpt lat="46.67127" lon="3.96872">
        <ele>343.33</ele>
        <time>2021-08-13T08:01:21Z</time>
      </trkpt>
      <trkpt lat="46.67128" lon="3.96832">
        <ele>342.85</ele>
        <time>2021-08-13T08:01:24Z</time>
      </trkpt>
      <trkpt lat="46.6713" lon="3.9682">
        <ele>342.85</ele>
        <time>2021-08-13T08:01:25Z</time>
      </trkpt>
      <trkpt lat="46.67134" lon="3.96809">
        <ele>342.85</ele>
        <time>2021-08-13T08:01:26Z</time>
      </trkpt>
      <trkpt lat="46.67139" lon="3.968">
        <ele>342.85</ele>
        <time>2021-08-13T08:01:27Z</time>
      </trkpt>
      <trkpt lat="46.67144" lon="3.96791">
        <ele>342.85</ele>
        <time>2021-08-13T08:01:28Z</time>
      </trkpt>
      <trkpt lat="46.67149" lon="3.96784">
        <ele>344.29</ele>
        <time>2021-08-13T08:01:29Z</time>
      </trkpt>
      <trkpt lat="46.67155" lon="3.96778">
        <ele>344.29</ele>
        <time>2021-08-13T08:01:30Z</time>
      </trkpt>
      <trkpt lat="46.6716" lon="3.96773">
        <ele>344.29</ele>
        <time>2021-08-13T08:01:31Z</time>
      </trkpt>
      <trkpt lat="46.672" lon="3.96728">
        <ele>345.73</ele>
        <time>2021-08-13T08:01:40Z</time>
      </trkpt>
      <trkpt lat="46.67223" lon="3.96684">
        <ele>346.69</ele>
        <time>2021-08-13T08:01:48Z</time>
      </trkpt>
      <trkpt lat="46.67232" lon="3.96645">
        <ele>345.25</ele>
        <time>2021-08-13T08:01:53Z</time>
      </trkpt>
      <trkpt lat="46.67247" lon="3.96575">
        <ele>343.33</ele>
        <time>2021-08-13T08:02:01Z</time>
      </trkpt>
      <trkpt lat="46.67267" lon="3.96519">
        <ele>343.33</ele>
        <time>2021-08-13T08:02:09Z</time>
      </trkpt>
      <trkpt lat="46.67275" lon="3.96502">
        <ele>344.77</ele>
        <time>2021-08-13T08:02:12Z</time>
      </trkpt>
      <trkpt lat="46.67294" lon="3.96464">
        <ele>345.73</ele>
        <time>2021-08-13T08:02:20Z</time>
      </trkpt>
      <trkpt lat="46.6731" lon="3.96429">
        <ele>347.17</ele>
        <time>2021-08-13T08:02:29Z</time>
      </trkpt>
      <trkpt lat="46.6732" lon="3.96394">
        <ele>348.62</ele>
        <time>2021-08-13T08:02:38Z</time>
      </trkpt>
      <trkpt lat="46.67319" lon="3.96366">
        <ele>350.54</ele>
        <time>2021-08-13T08:02:45Z</time>
      </trkpt>
      <trkpt lat="46.67316" lon="3.96332">
        <ele>351.5</ele>
        <time>2021-08-13T08:02:54Z</time>
      </trkpt>
      <trkpt lat="46.67311" lon="3.96302">
        <ele>352.94</ele>
        <time>2021-08-13T08:03:03Z</time>
      </trkpt>
      <trkpt lat="46.67307" lon="3.96272">
        <ele>353.42</ele>
        <time>2021-08-13T08:03:13Z</time>
      </trkpt>
      <trkpt lat="46.67302" lon="3.96245">
        <ele>354.38</ele>
        <time>2021-08-13T08:03:22Z</time>
      </trkpt>
      <trkpt lat="46.67294" lon="3.96215">
        <ele>355.34</ele>
        <time>2021-08-13T08:03:33Z</time>
      </trkpt>
      <trkpt lat="46.67284" lon="3.96187">
        <ele>357.27</ele>
        <time>2021-08-13T08:03:44Z</time>
      </trkpt>
      <trkpt lat="46.6727" lon="3.96159">
        <ele>358.23</ele>
        <time>2021-08-13T08:03:55Z</time>
      </trkpt>
      <trkpt lat="46.67259" lon="3.9614">
        <ele>359.19</ele>
        <time>2021-08-13T08:04:03Z</time>
      </trkpt>
      <trkpt lat="46.67245" lon="3.96121">
        <ele>360.15</ele>
        <time>2021-08-13T08:04:12Z</time>
      </trkpt>
      <trkpt lat="46.67232" lon="3.96101">
        <ele>361.59</ele>
        <time>2021-08-13T08:04:21Z</time>
      </trkpt>
      <trkpt lat="46.6722" lon="3.9608">
        <ele>362.55</ele>
        <time>2021-08-13T08:04:30Z</time>
      </trkpt>
      <trkpt lat="46.67217" lon="3.96068">
        <ele>363.04</ele>
        <time>2021-08-13T08:04:34Z</time>
      </trkpt>
      <trkpt lat="46.67217" lon="3.96064">
        <ele>363.04</ele>
        <time>2021-08-13T08:04:35Z</time>
      </trkpt>
      <trkpt lat="46.67218" lon="3.96061">
        <ele>363.04</ele>
        <time>2021-08-13T08:04:36Z</time>
      </trkpt>
      <trkpt lat="46.6722" lon="3.96058">
        <ele>363.52</ele>
        <time>2021-08-13T08:04:37Z</time>
      </trkpt>
      <trkpt lat="46.67221" lon="3.96056">
        <ele>363.52</ele>
        <time>2021-08-13T08:04:38Z</time>
      </trkpt>
      <trkpt lat="46.67223" lon="3.96054">
        <ele>363.52</ele>
        <time>2021-08-13T08:04:39Z</time>
      </trkpt>
      <trkpt lat="46.67224" lon="3.96052">
        <ele>363.52</ele>
        <time>2021-08-13T08:04:40Z</time>
      </trkpt>
      <trkpt lat="46.67226" lon="3.96049">
        <ele>363.52</ele>
        <time>2021-08-13T08:04:41Z</time>
      </trkpt>
      <trkpt lat="46.67242" lon="3.96028">
        <ele>363.52</ele>
        <time>2021-08-13T08:04:49Z</time>
      </trkpt>
      <trkpt lat="46.67254" lon="3.96009">
        <ele>363.52</ele>
        <time>2021-08-13T08:04:55Z</time>
      </trkpt>
      <trkpt lat="46.67273" lon="3.9598">
        <ele>364.48</ele>
        <time>2021-08-13T08:05:04Z</time>
      </trkpt>
      <trkpt lat="46.67288" lon="3.95958">
        <ele>364.48</ele>
        <time>2021-08-13T08:05:11Z</time>
      </trkpt>
      <trkpt lat="46.67301" lon="3.95936">
        <ele>364.96</ele>
        <time>2021-08-13T08:05:17Z</time>
      </trkpt>
      <trkpt lat="46.67322" lon="3.95901">
        <ele>365.92</ele>
        <time>2021-08-13T08:05:27Z</time>
      </trkpt>
      <trkpt lat="46.67339" lon="3.9587">
        <ele>365.92</ele>
        <time>2021-08-13T08:05:35Z</time>
      </trkpt>
      <trkpt lat="46.67342" lon="3.95865">
        <ele>365.92</ele>
        <time>2021-08-13T08:05:36Z</time>
      </trkpt>
      <trkpt lat="46.67345" lon="3.95861">
        <ele>365.92</ele>
        <time>2021-08-13T08:05:37Z</time>
      </trkpt>
      <trkpt lat="46.67359" lon="3.95821">
        <ele>366.4</ele>
        <time>2021-08-13T08:05:46Z</time>
      </trkpt>
      <trkpt lat="46.67368" lon="3.95787">
        <ele>366.88</ele>
        <time>2021-08-13T08:05:54Z</time>
      </trkpt>
      <trkpt lat="46.67369" lon="3.95749">
        <ele>366.4</ele>
        <time>2021-08-13T08:06:01Z</time>
      </trkpt>
      <trkpt lat="46.67364" lon="3.95686">
        <ele>365.44</ele>
        <time>2021-08-13T08:06:11Z</time>
      </trkpt>
      <trkpt lat="46.67361" lon="3.95648">
        <ele>364.96</ele>
        <time>2021-08-13T08:06:18Z</time>
      </trkpt>
      <trkpt lat="46.67355" lon="3.95601">
        <ele>366.4</ele>
        <time>2021-08-13T08:06:28Z</time>
      </trkpt>
      <trkpt lat="46.6735" lon="3.95565">
        <ele>366.4</ele>
        <time>2021-08-13T08:06:36Z</time>
      </trkpt>
      <trkpt lat="46.67346" lon="3.95529">
        <ele>366.88</ele>
        <time>2021-08-13T08:06:44Z</time>
      </trkpt>
      <trkpt lat="46.67344" lon="3.95506">
        <ele>367.36</ele>
        <time>2021-08-13T08:06:50Z</time>
      </trkpt>
      <trkpt lat="46.6734" lon="3.9547">
        <ele>367.36</ele>
        <time>2021-08-13T08:06:57Z</time>
      </trkpt>
      <trkpt lat="46.67333" lon="3.95428">
        <ele>367.36</ele>
        <time>2021-08-13T08:07:04Z</time>
      </trkpt>
      <trkpt lat="46.67329" lon="3.9539">
        <ele>367.84</ele>
        <time>2021-08-13T08:07:11Z</time>
      </trkpt>
      <trkpt lat="46.67331" lon="3.95346">
        <ele>367.84</ele>
        <time>2021-08-13T08:07:19Z</time>
      </trkpt>
      <trkpt lat="46.67339" lon="3.95313">
        <ele>366.4</ele>
        <time>2021-08-13T08:07:25Z</time>
      </trkpt>
      <trkpt lat="46.67347" lon="3.95266">
        <ele>363.04</ele>
        <time>2021-08-13T08:07:31Z</time>
      </trkpt>
      <trkpt lat="46.6735" lon="3.95196">
        <ele>360.15</ele>
        <time>2021-08-13T08:07:39Z</time>
      </trkpt>
      <trkpt lat="46.67345" lon="3.95154">
        <ele>357.27</ele>
        <time>2021-08-13T08:07:45Z</time>
      </trkpt>
      <trkpt lat="46.67343" lon="3.95123">
        <ele>353.9</ele>
        <time>2021-08-13T08:07:49Z</time>
      </trkpt>
      <trkpt lat="46.67343" lon="3.95115">
        <ele>353.9</ele>
        <time>2021-08-13T08:07:50Z</time>
      </trkpt>
      <trkpt lat="46.67342" lon="3.95108">
        <ele>353.42</ele>
        <time>2021-08-13T08:07:51Z</time>
      </trkpt>
      <trkpt lat="46.67342" lon="3.95102">
        <ele>352.46</ele>
        <time>2021-08-13T08:07:52Z</time>
      </trkpt>
      <trkpt lat="46.67342" lon="3.95096">
        <ele>352.46</ele>
        <time>2021-08-13T08:07:53Z</time>
      </trkpt>
      <trkpt lat="46.67342" lon="3.95092">
        <ele>351.98</ele>
        <time>2021-08-13T08:07:54Z</time>
      </trkpt>
      <trkpt lat="46.67343" lon="3.95088">
        <ele>351.98</ele>
        <time>2021-08-13T08:07:55Z</time>
      </trkpt>
      <trkpt lat="46.67343" lon="3.95083">
        <ele>351.5</ele>
        <time>2021-08-13T08:07:56Z</time>
      </trkpt>
      <trkpt lat="46.6735" lon="3.95048">
        <ele>349.1</ele>
        <time>2021-08-13T08:08:02Z</time>
      </trkpt>
      <trkpt lat="46.67352" lon="3.95033">
        <ele>348.62</ele>
        <time>2021-08-13T08:08:04Z</time>
      </trkpt>
      <trkpt lat="46.6735" lon="3.94976">
        <ele>345.73</ele>
        <time>2021-08-13T08:08:11Z</time>
      </trkpt>
      <trkpt lat="46.67351" lon="3.94921">
        <ele>341.89</ele>
        <time>2021-08-13T08:08:18Z</time>
      </trkpt>
      <trkpt lat="46.67347" lon="3.94894">
        <ele>340.44</ele>
        <time>2021-08-13T08:08:21Z</time>
      </trkpt>
      <trkpt lat="46.67343" lon="3.94877">
        <ele>340.44</ele>
        <time>2021-08-13T08:08:23Z</time>
      </trkpt>
      <trkpt lat="46.6734" lon="3.94868">
        <ele>339.48</ele>
        <time>2021-08-13T08:08:24Z</time>
      </trkpt>
      <trkpt lat="46.67327" lon="3.94836">
        <ele>339</ele>
        <time>2021-08-13T08:08:28Z</time>
      </trkpt>
      <trkpt lat="46.67299" lon="3.94795">
        <ele>337.56</ele>
        <time>2021-08-13T08:08:34Z</time>
      </trkpt>
      <trkpt lat="46.67297" lon="3.94787">
        <ele>337.56</ele>
        <time>2021-08-13T08:08:35Z</time>
      </trkpt>
      <trkpt lat="46.67297" lon="3.94779">
        <ele>337.56</ele>
        <time>2021-08-13T08:08:36Z</time>
      </trkpt>
      <trkpt lat="46.67297" lon="3.94771">
        <ele>338.04</ele>
        <time>2021-08-13T08:08:37Z</time>
      </trkpt>
      <trkpt lat="46.67298" lon="3.94764">
        <ele>338.04</ele>
        <time>2021-08-13T08:08:38Z</time>
      </trkpt>
      <trkpt lat="46.67297" lon="3.94756">
        <ele>338.04</ele>
        <time>2021-08-13T08:08:39Z</time>
      </trkpt>
      <trkpt lat="46.67296" lon="3.94749">
        <ele>338.04</ele>
        <time>2021-08-13T08:08:40Z</time>
      </trkpt>
      <trkpt lat="46.67294" lon="3.94743">
        <ele>338.04</ele>
        <time>2021-08-13T08:08:41Z</time>
      </trkpt>
      <trkpt lat="46.67293" lon="3.94736">
        <ele>338.04</ele>
        <time>2021-08-13T08:08:42Z</time>
      </trkpt>
      <trkpt lat="46.67292" lon="3.9473">
        <ele>338.04</ele>
        <time>2021-08-13T08:08:43Z</time>
      </trkpt>
      <trkpt lat="46.6729" lon="3.94723">
        <ele>338.04</ele>
        <time>2021-08-13T08:08:44Z</time>
      </trkpt>
      <trkpt lat="46.67289" lon="3.94716">
        <ele>338.04</ele>
        <time>2021-08-13T08:08:45Z</time>
      </trkpt>
      <trkpt lat="46.67289" lon="3.94695">
        <ele>338.04</ele>
        <time>2021-08-13T08:08:49Z</time>
      </trkpt>
      <trkpt lat="46.67292" lon="3.94691">
        <ele>338.04</ele>
        <time>2021-08-13T08:08:50Z</time>
      </trkpt>
      <trkpt lat="46.67305" lon="3.94679">
        <ele>337.08</ele>
        <time>2021-08-13T08:08:53Z</time>
      </trkpt>
      <trkpt lat="46.67333" lon="3.94654">
        <ele>336.6</ele>
        <time>2021-08-13T08:09:00Z</time>
      </trkpt>
      <trkpt lat="46.67337" lon="3.94651">
        <ele>336.6</ele>
        <time>2021-08-13T08:09:01Z</time>
      </trkpt>
      <trkpt lat="46.67341" lon="3.94649">
        <ele>336.6</ele>
        <time>2021-08-13T08:09:02Z</time>
      </trkpt>
      <trkpt lat="46.67345" lon="3.94647">
        <ele>336.6</ele>
        <time>2021-08-13T08:09:03Z</time>
      </trkpt>
      <trkpt lat="46.67349" lon="3.94645">
        <ele>336.6</ele>
        <time>2021-08-13T08:09:04Z</time>
      </trkpt>
      <trkpt lat="46.67354" lon="3.94643">
        <ele>336.6</ele>
        <time>2021-08-13T08:09:05Z</time>
      </trkpt>
      <trkpt lat="46.6737" lon="3.94635">
        <ele>338.04</ele>
        <time>2021-08-13T08:09:09Z</time>
      </trkpt>
      <trkpt lat="46.67391" lon="3.94627">
        <ele>339</ele>
        <time>2021-08-13T08:09:15Z</time>
      </trkpt>
      <trkpt lat="46.67407" lon="3.94618">
        <ele>339.96</ele>
        <time>2021-08-13T08:09:21Z</time>
      </trkpt>
      <trkpt lat="46.6742" lon="3.94609">
        <ele>342.37</ele>
        <time>2021-08-13T08:09:28Z</time>
      </trkpt>
      <trkpt lat="46.67426" lon="3.94604">
        <ele>342.85</ele>
        <time>2021-08-13T08:09:32Z</time>
      </trkpt>
      <trkpt lat="46.67426" lon="3.94602">
        <ele>342.85</ele>
        <time>2021-08-13T08:09:33Z</time>
      </trkpt>
      <trkpt lat="46.67426" lon="3.946">
        <ele>342.85</ele>
        <time>2021-08-13T08:09:34Z</time>
      </trkpt>
      <trkpt lat="46.67426" lon="3.94597">
        <ele>342.85</ele>
        <time>2021-08-13T08:09:35Z</time>
      </trkpt>
      <trkpt lat="46.67426" lon="3.94595">
        <ele>342.85</ele>
        <time>2021-08-13T08:09:36Z</time>
      </trkpt>
      <trkpt lat="46.67426" lon="3.94592">
        <ele>342.85</ele>
        <time>2021-08-13T08:09:37Z</time>
      </trkpt>
      <trkpt lat="46.67426" lon="3.94589">
        <ele>342.85</ele>
        <time>2021-08-13T08:09:38Z</time>
      </trkpt>
      <trkpt lat="46.67426" lon="3.94586">
        <ele>342.85</ele>
        <time>2021-08-13T08:09:39Z</time>
      </trkpt>
      <trkpt lat="46.67426" lon="3.94582">
        <ele>342.85</ele>
        <time>2021-08-13T08:09:40Z</time>
      </trkpt>
      <trkpt lat="46.67428" lon="3.94562">
        <ele>342.85</ele>
        <time>2021-08-13T08:09:46Z</time>
      </trkpt>
      <trkpt lat="46.67433" lon="3.94532">
        <ele>342.37</ele>
        <time>2021-08-13T08:09:54Z</time>
      </trkpt>
      <trkpt lat="46.6743" lon="3.94502">
        <ele>342.37</ele>
        <time>2021-08-13T08:10:02Z</time>
      </trkpt>
      <trkpt lat="46.67426" lon="3.94468">
        <ele>342.37</ele>
        <time>2021-08-13T08:10:10Z</time>
      </trkpt>
      <trkpt lat="46.67428" lon="3.94432">
        <ele>342.37</ele>
        <time>2021-08-13T08:10:17Z</time>
      </trkpt>
      <trkpt lat="46.67428" lon="3.94393">
        <ele>342.37</ele>
        <time>2021-08-13T08:10:25Z</time>
      </trkpt>
      <trkpt lat="46.67426" lon="3.94349">
        <ele>342.37</ele>
        <time>2021-08-13T08:10:34Z</time>
      </trkpt>
      <trkpt lat="46.67428" lon="3.94346">
        <ele>342.37</ele>
        <time>2021-08-13T08:10:35Z</time>
      </trkpt>
      <trkpt lat="46.67429" lon="3.94342">
        <ele>342.85</ele>
        <time>2021-08-13T08:10:36Z</time>
      </trkpt>
      <trkpt lat="46.6743" lon="3.94337">
        <ele>342.85</ele>
        <time>2021-08-13T08:10:37Z</time>
      </trkpt>
      <trkpt lat="46.67431" lon="3.94333">
        <ele>342.85</ele>
        <time>2021-08-13T08:10:38Z</time>
      </trkpt>
      <trkpt lat="46.67441" lon="3.94307">
        <ele>344.29</ele>
        <time>2021-08-13T08:10:45Z</time>
      </trkpt>
      <trkpt lat="46.67456" lon="3.94283">
        <ele>344.77</ele>
        <time>2021-08-13T08:10:53Z</time>
      </trkpt>
      <trkpt lat="46.67472" lon="3.94261">
        <ele>345.73</ele>
        <time>2021-08-13T08:11:01Z</time>
      </trkpt>
      <trkpt lat="46.67481" lon="3.94233">
        <ele>346.69</ele>
        <time>2021-08-13T08:11:10Z</time>
      </trkpt>
      <trkpt lat="46.67487" lon="3.94212">
        <ele>347.17</ele>
        <time>2021-08-13T08:11:17Z</time>
      </trkpt>
      <trkpt lat="46.67494" lon="3.94189">
        <ele>348.62</ele>
        <time>2021-08-13T08:11:26Z</time>
      </trkpt>
      <trkpt lat="46.67504" lon="3.94171">
        <ele>348.62</ele>
        <time>2021-08-13T08:11:34Z</time>
      </trkpt>
      <trkpt lat="46.67511" lon="3.94154">
        <ele>349.1</ele>
        <time>2021-08-13T08:11:40Z</time>
      </trkpt>
      <trkpt lat="46.6752" lon="3.94122">
        <ele>350.06</ele>
        <time>2021-08-13T08:11:52Z</time>
      </trkpt>
      <trkpt lat="46.67524" lon="3.94103">
        <ele>351.02</ele>
        <time>2021-08-13T08:12:00Z</time>
      </trkpt>
      <trkpt lat="46.67528" lon="3.9408">
        <ele>352.46</ele>
        <time>2021-08-13T08:12:08Z</time>
      </trkpt>
      <trkpt lat="46.67527" lon="3.94054">
        <ele>353.42</ele>
        <time>2021-08-13T08:12:17Z</time>
      </trkpt>
      <trkpt lat="46.67525" lon="3.94031">
        <ele>354.86</ele>
        <time>2021-08-13T08:12:25Z</time>
      </trkpt>
      <trkpt lat="46.6752" lon="3.94011">
        <ele>355.34</ele>
        <time>2021-08-13T08:12:33Z</time>
      </trkpt>
      <trkpt lat="46.67509" lon="3.93993">
        <ele>357.27</ele>
        <time>2021-08-13T08:12:42Z</time>
      </trkpt>
      <trkpt lat="46.67502" lon="3.93973">
        <ele>358.23</ele>
        <time>2021-08-13T08:12:50Z</time>
      </trkpt>
      <trkpt lat="46.67492" lon="3.93949">
        <ele>358.23</ele>
        <time>2021-08-13T08:12:59Z</time>
      </trkpt>
      <trkpt lat="46.67485" lon="3.9393">
        <ele>359.19</ele>
        <time>2021-08-13T08:13:06Z</time>
      </trkpt>
      <trkpt lat="46.67486" lon="3.93902">
        <ele>359.19</ele>
        <time>2021-08-13T08:13:14Z</time>
      </trkpt>
      <trkpt lat="46.67499" lon="3.93876">
        <ele>357.75</ele>
        <time>2021-08-13T08:13:21Z</time>
      </trkpt>
      <trkpt lat="46.67502" lon="3.93871">
        <ele>357.75</ele>
        <time>2021-08-13T08:13:22Z</time>
      </trkpt>
      <trkpt lat="46.67519" lon="3.93834">
        <ele>354.38</ele>
        <time>2021-08-13T08:13:28Z</time>
      </trkpt>
      <trkpt lat="46.67535" lon="3.93799">
        <ele>351.5</ele>
        <time>2021-08-13T08:13:33Z</time>
      </trkpt>
      <trkpt lat="46.67544" lon="3.93778">
        <ele>348.62</ele>
        <time>2021-08-13T08:13:36Z</time>
      </trkpt>
      <trkpt lat="46.67554" lon="3.93745">
        <ele>345.25</ele>
        <time>2021-08-13T08:13:40Z</time>
      </trkpt>
      <trkpt lat="46.67556" lon="3.93739">
        <ele>344.77</ele>
        <time>2021-08-13T08:13:41Z</time>
      </trkpt>
      <trkpt lat="46.6756" lon="3.93731">
        <ele>342.85</ele>
        <time>2021-08-13T08:13:42Z</time>
      </trkpt>
      <trkpt lat="46.67569" lon="3.93705">
        <ele>339.48</ele>
        <time>2021-08-13T08:13:45Z</time>
      </trkpt>
      <trkpt lat="46.67572" lon="3.93693">
        <ele>338.52</ele>
        <time>2021-08-13T08:13:46Z</time>
      </trkpt>
      <trkpt lat="46.67573" lon="3.93683">
        <ele>338.52</ele>
        <time>2021-08-13T08:13:47Z</time>
      </trkpt>
      <trkpt lat="46.67574" lon="3.9367">
        <ele>337.56</ele>
        <time>2021-08-13T08:13:48Z</time>
      </trkpt>
      <trkpt lat="46.67575" lon="3.9366">
        <ele>337.56</ele>
        <time>2021-08-13T08:13:49Z</time>
      </trkpt>
      <trkpt lat="46.67575" lon="3.93648">
        <ele>337.08</ele>
        <time>2021-08-13T08:13:50Z</time>
      </trkpt>
      <trkpt lat="46.67574" lon="3.93637">
        <ele>337.08</ele>
        <time>2021-08-13T08:13:51Z</time>
      </trkpt>
      <trkpt lat="46.6757" lon="3.93585">
        <ele>338.52</ele>
        <time>2021-08-13T08:13:57Z</time>
      </trkpt>
      <trkpt lat="46.6757" lon="3.93578">
        <ele>338.52</ele>
        <time>2021-08-13T08:13:58Z</time>
      </trkpt>
      <trkpt lat="46.67573" lon="3.93543">
        <ele>339.96</ele>
        <time>2021-08-13T08:14:05Z</time>
      </trkpt>
      <trkpt lat="46.67577" lon="3.93509">
        <ele>340.44</ele>
        <time>2021-08-13T08:14:12Z</time>
      </trkpt>
      <trkpt lat="46.67584" lon="3.93477">
        <ele>340.44</ele>
        <time>2021-08-13T08:14:19Z</time>
      </trkpt>
      <trkpt lat="46.67593" lon="3.93438">
        <ele>340.92</ele>
        <time>2021-08-13T08:14:28Z</time>
      </trkpt>
      <trkpt lat="46.67594" lon="3.9341">
        <ele>340.92</ele>
        <time>2021-08-13T08:14:35Z</time>
      </trkpt>
      <trkpt lat="46.67594" lon="3.93381">
        <ele>340.92</ele>
        <time>2021-08-13T08:14:42Z</time>
      </trkpt>
      <trkpt lat="46.67593" lon="3.93352">
        <ele>340.92</ele>
        <time>2021-08-13T08:14:49Z</time>
      </trkpt>
      <trkpt lat="46.67592" lon="3.93315">
        <ele>341.89</ele>
        <time>2021-08-13T08:14:58Z</time>
      </trkpt>
      <trkpt lat="46.67592" lon="3.93289">
        <ele>342.37</ele>
        <time>2021-08-13T08:15:05Z</time>
      </trkpt>
      <trkpt lat="46.67592" lon="3.93263">
        <ele>343.33</ele>
        <time>2021-08-13T08:15:13Z</time>
      </trkpt>
      <trkpt lat="46.67594" lon="3.93238">
        <ele>344.29</ele>
        <time>2021-08-13T08:15:21Z</time>
      </trkpt>
      <trkpt lat="46.67595" lon="3.93235">
        <ele>344.29</ele>
        <time>2021-08-13T08:15:22Z</time>
      </trkpt>
      <trkpt lat="46.67596" lon="3.93233">
        <ele>344.29</ele>
        <time>2021-08-13T08:15:23Z</time>
      </trkpt>
      <trkpt lat="46.67596" lon="3.9323">
        <ele>344.29</ele>
        <time>2021-08-13T08:15:24Z</time>
      </trkpt>
      <trkpt lat="46.67595" lon="3.93227">
        <ele>344.77</ele>
        <time>2021-08-13T08:15:25Z</time>
      </trkpt>
      <trkpt lat="46.67595" lon="3.93224">
        <ele>344.77</ele>
        <time>2021-08-13T08:15:26Z</time>
      </trkpt>
      <trkpt lat="46.67594" lon="3.93221">
        <ele>344.77</ele>
        <time>2021-08-13T08:15:27Z</time>
      </trkpt>
      <trkpt lat="46.67593" lon="3.93218">
        <ele>344.77</ele>
        <time>2021-08-13T08:15:28Z</time>
      </trkpt>
      <trkpt lat="46.67593" lon="3.93215">
        <ele>344.77</ele>
        <time>2021-08-13T08:15:29Z</time>
      </trkpt>
      <trkpt lat="46.67593" lon="3.93212">
        <ele>344.77</ele>
        <time>2021-08-13T08:15:30Z</time>
      </trkpt>
      <trkpt lat="46.67592" lon="3.93209">
        <ele>344.77</ele>
        <time>2021-08-13T08:15:31Z</time>
      </trkpt>
      <trkpt lat="46.67591" lon="3.93207">
        <ele>344.77</ele>
        <time>2021-08-13T08:15:32Z</time>
      </trkpt>
      <trkpt lat="46.67591" lon="3.93204">
        <ele>344.77</ele>
        <time>2021-08-13T08:15:33Z</time>
      </trkpt>
      <trkpt lat="46.67592" lon="3.93201">
        <ele>344.77</ele>
        <time>2021-08-13T08:15:34Z</time>
      </trkpt>
      <trkpt lat="46.67594" lon="3.93199">
        <ele>344.77</ele>
        <time>2021-08-13T08:15:35Z</time>
      </trkpt>
      <trkpt lat="46.67595" lon="3.93196">
        <ele>344.77</ele>
        <time>2021-08-13T08:15:36Z</time>
      </trkpt>
      <trkpt lat="46.67599" lon="3.93174">
        <ele>344.77</ele>
        <time>2021-08-13T08:15:42Z</time>
      </trkpt>
      <trkpt lat="46.67607" lon="3.93133">
        <ele>341.89</ele>
        <time>2021-08-13T08:15:49Z</time>
      </trkpt>
      <trkpt lat="46.67616" lon="3.93084">
        <ele>338.04</ele>
        <time>2021-08-13T08:15:55Z</time>
      </trkpt>
      <trkpt lat="46.67623" lon="3.93041">
        <ele>334.68</ele>
        <time>2021-08-13T08:16:00Z</time>
      </trkpt>
      <trkpt lat="46.67627" lon="3.93011">
        <ele>330.83</ele>
        <time>2021-08-13T08:16:03Z</time>
      </trkpt>
      <trkpt lat="46.6763" lon="3.92972">
        <ele>326.99</ele>
        <time>2021-08-13T08:16:06Z</time>
      </trkpt>
      <trkpt lat="46.6763" lon="3.92959">
        <ele>325.06</ele>
        <time>2021-08-13T08:16:07Z</time>
      </trkpt>
      <trkpt lat="46.67631" lon="3.92903">
        <ele>321.7</ele>
        <time>2021-08-13T08:16:11Z</time>
      </trkpt>
      <trkpt lat="46.67631" lon="3.9289">
        <ele>321.7</ele>
        <time>2021-08-13T08:16:12Z</time>
      </trkpt>
      <trkpt lat="46.6763" lon="3.92879">
        <ele>321.7</ele>
        <time>2021-08-13T08:16:13Z</time>
      </trkpt>
      <trkpt lat="46.67629" lon="3.92869">
        <ele>321.7</ele>
        <time>2021-08-13T08:16:14Z</time>
      </trkpt>
      <trkpt lat="46.67626" lon="3.92818">
        <ele>323.62</ele>
        <time>2021-08-13T08:16:20Z</time>
      </trkpt>
      <trkpt lat="46.67624" lon="3.92792">
        <ele>324.1</ele>
        <time>2021-08-13T08:16:25Z</time>
      </trkpt>
      <trkpt lat="46.67624" lon="3.9276">
        <ele>325.06</ele>
        <time>2021-08-13T08:16:33Z</time>
      </trkpt>
      <trkpt lat="46.67621" lon="3.9272">
        <ele>324.58</ele>
        <time>2021-08-13T08:16:41Z</time>
      </trkpt>
      <trkpt lat="46.67617" lon="3.9267">
        <ele>324.58</ele>
        <time>2021-08-13T08:16:50Z</time>
      </trkpt>
      <trkpt lat="46.67612" lon="3.92617">
        <ele>325.06</ele>
        <time>2021-08-13T08:17:00Z</time>
      </trkpt>
      <trkpt lat="46.67606" lon="3.92568">
        <ele>326.02</ele>
        <time>2021-08-13T08:17:09Z</time>
      </trkpt>
      <trkpt lat="46.67603" lon="3.92527">
        <ele>326.99</ele>
        <time>2021-08-13T08:17:17Z</time>
      </trkpt>
      <trkpt lat="46.67598" lon="3.92489">
        <ele>326.99</ele>
        <time>2021-08-13T08:17:24Z</time>
      </trkpt>
      <trkpt lat="46.67594" lon="3.9244">
        <ele>327.47</ele>
        <time>2021-08-13T08:17:33Z</time>
      </trkpt>
      <trkpt lat="46.67592" lon="3.92385">
        <ele>327.47</ele>
        <time>2021-08-13T08:17:43Z</time>
      </trkpt>
      <trkpt lat="46.67586" lon="3.92336">
        <ele>327.47</ele>
        <time>2021-08-13T08:17:52Z</time>
      </trkpt>
      <trkpt lat="46.67578" lon="3.92289">
        <ele>327.47</ele>
        <time>2021-08-13T08:18:01Z</time>
      </trkpt>
      <trkpt lat="46.6757" lon="3.92258">
        <ele>327.47</ele>
        <time>2021-08-13T08:18:07Z</time>
      </trkpt>
      <trkpt lat="46.67544" lon="3.9222">
        <ele>325.54</ele>
        <time>2021-08-13T08:18:15Z</time>
      </trkpt>
      <trkpt lat="46.67512" lon="3.92166">
        <ele>324.58</ele>
        <time>2021-08-13T08:18:24Z</time>
      </trkpt>
      <trkpt lat="46.67483" lon="3.92106">
        <ele>322.66</ele>
        <time>2021-08-13T08:18:33Z</time>
      </trkpt>
      <trkpt lat="46.67471" lon="3.92063">
        <ele>320.74</ele>
        <time>2021-08-13T08:18:38Z</time>
      </trkpt>
      <trkpt lat="46.67464" lon="3.92026">
        <ele>319.3</ele>
        <time>2021-08-13T08:18:42Z</time>
      </trkpt>
      <trkpt lat="46.67464" lon="3.92016">
        <ele>319.3</ele>
        <time>2021-08-13T08:18:43Z</time>
      </trkpt>
      <trkpt lat="46.67466" lon="3.92007">
        <ele>319.3</ele>
        <time>2021-08-13T08:18:44Z</time>
      </trkpt>
      <trkpt lat="46.67468" lon="3.91997">
        <ele>317.85</ele>
        <time>2021-08-13T08:18:45Z</time>
      </trkpt>
      <trkpt lat="46.6747" lon="3.91988">
        <ele>317.85</ele>
        <time>2021-08-13T08:18:46Z</time>
      </trkpt>
      <trkpt lat="46.67474" lon="3.9197">
        <ele>317.37</ele>
        <time>2021-08-13T08:18:48Z</time>
      </trkpt>
      <trkpt lat="46.67475" lon="3.9196">
        <ele>316.89</ele>
        <time>2021-08-13T08:18:49Z</time>
      </trkpt>
      <trkpt lat="46.67476" lon="3.9195">
        <ele>316.89</ele>
        <time>2021-08-13T08:18:50Z</time>
      </trkpt>
      <trkpt lat="46.67473" lon="3.91859">
        <ele>315.93</ele>
        <time>2021-08-13T08:18:59Z</time>
      </trkpt>
      <trkpt lat="46.67461" lon="3.91791">
        <ele>315.93</ele>
        <time>2021-08-13T08:19:07Z</time>
      </trkpt>
      <trkpt lat="46.67439" lon="3.91722">
        <ele>314.01</ele>
        <time>2021-08-13T08:19:16Z</time>
      </trkpt>
      <trkpt lat="46.67435" lon="3.91705">
        <ele>313.05</ele>
        <time>2021-08-13T08:19:18Z</time>
      </trkpt>
      <trkpt lat="46.67434" lon="3.91696">
        <ele>312.57</ele>
        <time>2021-08-13T08:19:19Z</time>
      </trkpt>
      <trkpt lat="46.67434" lon="3.91687">
        <ele>312.57</ele>
        <time>2021-08-13T08:19:20Z</time>
      </trkpt>
      <trkpt lat="46.67436" lon="3.91641">
        <ele>308.72</ele>
        <time>2021-08-13T08:19:25Z</time>
      </trkpt>
      <trkpt lat="46.67439" lon="3.91631">
        <ele>307.28</ele>
        <time>2021-08-13T08:19:26Z</time>
      </trkpt>
      <trkpt lat="46.67442" lon="3.91619">
        <ele>306.8</ele>
        <time>2021-08-13T08:19:27Z</time>
      </trkpt>
      <trkpt lat="46.67453" lon="3.91586">
        <ele>303.43</ele>
        <time>2021-08-13T08:19:30Z</time>
      </trkpt>
      <trkpt lat="46.67468" lon="3.91552">
        <ele>300.07</ele>
        <time>2021-08-13T08:19:33Z</time>
      </trkpt>
      <trkpt lat="46.67492" lon="3.91514">
        <ele>296.7</ele>
        <time>2021-08-13T08:19:37Z</time>
      </trkpt>
      <trkpt lat="46.67501" lon="3.91501">
        <ele>295.74</ele>
        <time>2021-08-13T08:19:39Z</time>
      </trkpt>
      <trkpt lat="46.67503" lon="3.91495">
        <ele>295.26</ele>
        <time>2021-08-13T08:19:40Z</time>
      </trkpt>
      <trkpt lat="46.67505" lon="3.91487">
        <ele>294.3</ele>
        <time>2021-08-13T08:19:41Z</time>
      </trkpt>
      <trkpt lat="46.67505" lon="3.9148">
        <ele>292.86</ele>
        <time>2021-08-13T08:19:42Z</time>
      </trkpt>
      <trkpt lat="46.67505" lon="3.91469">
        <ele>291.42</ele>
        <time>2021-08-13T08:19:43Z</time>
      </trkpt>
      <trkpt lat="46.67505" lon="3.91456">
        <ele>290.46</ele>
        <time>2021-08-13T08:19:44Z</time>
      </trkpt>
      <trkpt lat="46.67503" lon="3.91432">
        <ele>289.49</ele>
        <time>2021-08-13T08:19:46Z</time>
      </trkpt>
      <trkpt lat="46.67501" lon="3.9141">
        <ele>289.49</ele>
        <time>2021-08-13T08:19:48Z</time>
      </trkpt>
      <trkpt lat="46.67501" lon="3.914">
        <ele>289.49</ele>
        <time>2021-08-13T08:19:49Z</time>
      </trkpt>
      <trkpt lat="46.67504" lon="3.91391">
        <ele>289.49</ele>
        <time>2021-08-13T08:19:50Z</time>
      </trkpt>
      <trkpt lat="46.67513" lon="3.91363">
        <ele>292.38</ele>
        <time>2021-08-13T08:19:55Z</time>
      </trkpt>
      <trkpt lat="46.67515" lon="3.91345">
        <ele>294.3</ele>
        <time>2021-08-13T08:20:03Z</time>
      </trkpt>
      <trkpt lat="46.67513" lon="3.91339">
        <ele>294.78</ele>
        <time>2021-08-13T08:20:07Z</time>
      </trkpt>
      <trkpt lat="46.67512" lon="3.91337">
        <ele>295.74</ele>
        <time>2021-08-13T08:20:09Z</time>
      </trkpt>
      <trkpt lat="46.67511" lon="3.91336">
        <ele>295.74</ele>
        <time>2021-08-13T08:20:10Z</time>
      </trkpt>
      <trkpt lat="46.6751" lon="3.91334">
        <ele>296.22</ele>
        <time>2021-08-13T08:20:11Z</time>
      </trkpt>
      <trkpt lat="46.67509" lon="3.91334">
        <ele>296.22</ele>
        <time>2021-08-13T08:20:17Z</time>
      </trkpt>
      <trkpt lat="46.67509" lon="3.91333">
        <ele>296.7</ele>
        <time>2021-08-13T08:20:22Z</time>
      </trkpt>
      <trkpt lat="46.67505" lon="3.91326">
        <ele>298.15</ele>
        <time>2021-08-13T08:20:31Z</time>
      </trkpt>
      <trkpt lat="46.67501" lon="3.91309">
        <ele>299.11</ele>
        <time>2021-08-13T08:20:38Z</time>
      </trkpt>
      <trkpt lat="46.67499" lon="3.91302">
        <ele>299.59</ele>
        <time>2021-08-13T08:20:39Z</time>
      </trkpt>
      <trkpt lat="46.67498" lon="3.91299">
        <ele>299.59</ele>
        <time>2021-08-13T08:20:40Z</time>
      </trkpt>
      <trkpt lat="46.67495" lon="3.91297">
        <ele>299.59</ele>
        <time>2021-08-13T08:20:41Z</time>
      </trkpt>
      <trkpt lat="46.6749" lon="3.91298">
        <ele>300.07</ele>
        <time>2021-08-13T08:20:43Z</time>
      </trkpt>
      <trkpt lat="46.67486" lon="3.91296">
        <ele>301.03</ele>
        <time>2021-08-13T08:20:49Z</time>
      </trkpt>
      <trkpt lat="46.67493" lon="3.91285">
        <ele>301.99</ele>
        <time>2021-08-13T08:20:58Z</time>
      </trkpt>
      <trkpt lat="46.67495" lon="3.91281">
        <ele>302.47</ele>
        <time>2021-08-13T08:21:01Z</time>
      </trkpt>
      <trkpt lat="46.67498" lon="3.91272">
        <ele>302.47</ele>
        <time>2021-08-13T08:21:07Z</time>
      </trkpt>
      <trkpt lat="46.67511" lon="3.91256">
        <ele>302.47</ele>
        <time>2021-08-13T08:21:17Z</time>
      </trkpt>
      <trkpt lat="46.6751" lon="3.91251">
        <ele>302.47</ele>
        <time>2021-08-13T08:21:23Z</time>
      </trkpt>
      <trkpt lat="46.67511" lon="3.9125">
        <ele>302.47</ele>
        <time>2021-08-13T08:21:25Z</time>
      </trkpt>
      <trkpt lat="46.67502" lon="3.9124">
        <ele>302.95</ele>
        <time>2021-08-13T08:21:33Z</time>
      </trkpt>
      <trkpt lat="46.67487" lon="3.91223">
        <ele>302.95</ele>
        <time>2021-08-13T08:21:42Z</time>
      </trkpt>
      <trkpt lat="46.6747" lon="3.91206">
        <ele>302.95</ele>
        <time>2021-08-13T08:21:50Z</time>
      </trkpt>
      <trkpt lat="46.67465" lon="3.91199">
        <ele>302.95</ele>
        <time>2021-08-13T08:21:53Z</time>
      </trkpt>
      <trkpt lat="46.67465" lon="3.91196">
        <ele>302.95</ele>
        <time>2021-08-13T08:21:54Z</time>
      </trkpt>
      <trkpt lat="46.67465" lon="3.91193">
        <ele>302.95</ele>
        <time>2021-08-13T08:21:55Z</time>
      </trkpt>
      <trkpt lat="46.67464" lon="3.9119">
        <ele>302.95</ele>
        <time>2021-08-13T08:21:56Z</time>
      </trkpt>
      <trkpt lat="46.67464" lon="3.91188">
        <ele>302.95</ele>
        <time>2021-08-13T08:21:57Z</time>
      </trkpt>
      <trkpt lat="46.67463" lon="3.91186">
        <ele>302.95</ele>
        <time>2021-08-13T08:21:58Z</time>
      </trkpt>
      <trkpt lat="46.67459" lon="3.91178">
        <ele>302.95</ele>
        <time>2021-08-13T08:22:02Z</time>
      </trkpt>
      <trkpt lat="46.67458" lon="3.91178">
        <ele>302.95</ele>
        <time>2021-08-13T08:22:03Z</time>
      </trkpt>
      <trkpt lat="46.67452" lon="3.91177">
        <ele>302.95</ele>
        <time>2021-08-13T08:22:07Z</time>
      </trkpt>
      <trkpt lat="46.67451" lon="3.91175">
        <ele>302.95</ele>
        <time>2021-08-13T08:22:08Z</time>
      </trkpt>
      <trkpt lat="46.67449" lon="3.91169">
        <ele>302.95</ele>
        <time>2021-08-13T08:22:11Z</time>
      </trkpt>
      <trkpt lat="46.67447" lon="3.91168">
        <ele>302.95</ele>
        <time>2021-08-13T08:22:12Z</time>
      </trkpt>
      <trkpt lat="46.67446" lon="3.91167">
        <ele>302.95</ele>
        <time>2021-08-13T08:22:18Z</time>
      </trkpt>
      <trkpt lat="46.67443" lon="3.91165">
        <ele>302.95</ele>
        <time>2021-08-13T08:22:25Z</time>
      </trkpt>
      <trkpt lat="46.67442" lon="3.91162">
        <ele>302.95</ele>
        <time>2021-08-13T08:22:26Z</time>
      </trkpt>
      <trkpt lat="46.67442" lon="3.91159">
        <ele>302.95</ele>
        <time>2021-08-13T08:22:27Z</time>
      </trkpt>
      <trkpt lat="46.67444" lon="3.91147">
        <ele>302.95</ele>
        <time>2021-08-13T08:22:31Z</time>
      </trkpt>
      <trkpt lat="46.67447" lon="3.91145">
        <ele>302.95</ele>
        <time>2021-08-13T08:22:36Z</time>
      </trkpt>
      <trkpt lat="46.67447" lon="3.91146">
        <ele>303.43</ele>
        <time>2021-08-13T08:22:51Z</time>
      </trkpt>
      <trkpt lat="46.67449" lon="3.91144">
        <ele>302.95</ele>
        <time>2021-08-13T08:23:13Z</time>
      </trkpt>
      <trkpt lat="46.67449" lon="3.91142">
        <ele>302.95</ele>
        <time>2021-08-13T08:23:23Z</time>
      </trkpt>
      <trkpt lat="46.67448" lon="3.91141">
        <ele>302.95</ele>
        <time>2021-08-13T08:23:34Z</time>
      </trkpt>
      <trkpt lat="46.67448" lon="3.91141">
        <ele>302.95</ele>
        <time>2021-08-13T08:23:44Z</time>
      </trkpt>
      <trkpt lat="46.67448" lon="3.91141">
        <ele>302.95</ele>
        <time>2021-08-13T08:23:58Z</time>
      </trkpt>
      <trkpt lat="46.67449" lon="3.9114">
        <ele>302.95</ele>
        <time>2021-08-13T08:24:14Z</time>
      </trkpt>
      <trkpt lat="46.67447" lon="3.91139">
        <ele>302.95</ele>
        <time>2021-08-13T08:24:27Z</time>
      </trkpt>
      <trkpt lat="46.67447" lon="3.91139">
        <ele>302.95</ele>
        <time>2021-08-13T08:24:29Z</time>
      </trkpt>
      <trkpt lat="46.67446" lon="3.91136">
        <ele>302.95</ele>
        <time>2021-08-13T08:24:31Z</time>
      </trkpt>
      <trkpt lat="46.67444" lon="3.91133">
        <ele>302.95</ele>
        <time>2021-08-13T08:24:33Z</time>
      </trkpt>
      <trkpt lat="46.67438" lon="3.91137">
        <ele>302.95</ele>
        <time>2021-08-13T08:24:38Z</time>
      </trkpt>
      <trkpt lat="46.67439" lon="3.91144">
        <ele>302.95</ele>
        <time>2021-08-13T08:24:41Z</time>
      </trkpt>
      <trkpt lat="46.67441" lon="3.91152">
        <ele>302.95</ele>
        <time>2021-08-13T08:24:45Z</time>
      </trkpt>
      <trkpt lat="46.67432" lon="3.91159">
        <ele>301.99</ele>
        <time>2021-08-13T08:24:51Z</time>
      </trkpt>
      <trkpt lat="46.67417" lon="3.9115">
        <ele>300.55</ele>
        <time>2021-08-13T08:24:57Z</time>
      </trkpt>
      <trkpt lat="46.67395" lon="3.91129">
        <ele>300.07</ele>
        <time>2021-08-13T08:25:04Z</time>
      </trkpt>
      <trkpt lat="46.67362" lon="3.91096">
        <ele>298.63</ele>
        <time>2021-08-13T08:25:12Z</time>
      </trkpt>
      <trkpt lat="46.67308" lon="3.91043">
        <ele>296.22</ele>
        <time>2021-08-13T08:25:23Z</time>
      </trkpt>
      <trkpt lat="46.67272" lon="3.91002">
        <ele>294.3</ele>
        <time>2021-08-13T08:25:30Z</time>
      </trkpt>
      <trkpt lat="46.67236" lon="3.90949">
        <ele>292.86</ele>
        <time>2021-08-13T08:25:38Z</time>
      </trkpt>
      <trkpt lat="46.67202" lon="3.90879">
        <ele>289.97</ele>
        <time>2021-08-13T08:25:46Z</time>
      </trkpt>
      <trkpt lat="46.67166" lon="3.908">
        <ele>286.61</ele>
        <time>2021-08-13T08:25:54Z</time>
      </trkpt>
      <trkpt lat="46.67121" lon="3.90701">
        <ele>283.73</ele>
        <time>2021-08-13T08:26:04Z</time>
      </trkpt>
      <trkpt lat="46.67104" lon="3.90638">
        <ele>283.25</ele>
        <time>2021-08-13T08:26:10Z</time>
      </trkpt>
      <trkpt lat="46.67098" lon="3.90573">
        <ele>283.73</ele>
        <time>2021-08-13T08:26:17Z</time>
      </trkpt>
      <trkpt lat="46.67088" lon="3.90519">
        <ele>283.73</ele>
        <time>2021-08-13T08:26:24Z</time>
      </trkpt>
      <trkpt lat="46.67085" lon="3.90513">
        <ele>283.73</ele>
        <time>2021-08-13T08:26:25Z</time>
      </trkpt>
      <trkpt lat="46.67082" lon="3.90507">
        <ele>283.73</ele>
        <time>2021-08-13T08:26:26Z</time>
      </trkpt>
      <trkpt lat="46.67074" lon="3.90497">
        <ele>283.73</ele>
        <time>2021-08-13T08:26:28Z</time>
      </trkpt>
      <trkpt lat="46.6707" lon="3.90495">
        <ele>283.73</ele>
        <time>2021-08-13T08:26:29Z</time>
      </trkpt>
      <trkpt lat="46.67065" lon="3.90493">
        <ele>283.73</ele>
        <time>2021-08-13T08:26:30Z</time>
      </trkpt>
      <trkpt lat="46.6703" lon="3.90485">
        <ele>283.73</ele>
        <time>2021-08-13T08:26:37Z</time>
      </trkpt>
      <trkpt lat="46.67025" lon="3.90485">
        <ele>283.73</ele>
        <time>2021-08-13T08:26:38Z</time>
      </trkpt>
      <trkpt lat="46.67019" lon="3.90485">
        <ele>283.73</ele>
        <time>2021-08-13T08:26:39Z</time>
      </trkpt>
      <trkpt lat="46.67014" lon="3.90487">
        <ele>283.73</ele>
        <time>2021-08-13T08:26:40Z</time>
      </trkpt>
      <trkpt lat="46.67009" lon="3.9049">
        <ele>283.73</ele>
        <time>2021-08-13T08:26:41Z</time>
      </trkpt>
      <trkpt lat="46.66964" lon="3.9051">
        <ele>283.73</ele>
        <time>2021-08-13T08:26:50Z</time>
      </trkpt>
      <trkpt lat="46.66951" lon="3.90516">
        <ele>283.73</ele>
        <time>2021-08-13T08:26:53Z</time>
      </trkpt>
      <trkpt lat="46.66947" lon="3.90517">
        <ele>283.73</ele>
        <time>2021-08-13T08:26:54Z</time>
      </trkpt>
      <trkpt lat="46.66928" lon="3.90518">
        <ele>284.69</ele>
        <time>2021-08-13T08:26:59Z</time>
      </trkpt>
      <trkpt lat="46.669" lon="3.90501">
        <ele>285.65</ele>
        <time>2021-08-13T08:27:07Z</time>
      </trkpt>
      <trkpt lat="46.66875" lon="3.90478">
        <ele>287.09</ele>
        <time>2021-08-13T08:27:16Z</time>
      </trkpt>
      <trkpt lat="46.66856" lon="3.90452">
        <ele>287.57</ele>
        <time>2021-08-13T08:27:24Z</time>
      </trkpt>
      <trkpt lat="46.66838" lon="3.90426">
        <ele>288.53</ele>
        <time>2021-08-13T08:27:32Z</time>
      </trkpt>
      <trkpt lat="46.66816" lon="3.90406">
        <ele>289.49</ele>
        <time>2021-08-13T08:27:41Z</time>
      </trkpt>
      <trkpt lat="46.66792" lon="3.90395">
        <ele>290.46</ele>
        <time>2021-08-13T08:27:50Z</time>
      </trkpt>
      <trkpt lat="46.66769" lon="3.90387">
        <ele>290.46</ele>
        <time>2021-08-13T08:27:58Z</time>
      </trkpt>
      <trkpt lat="46.66744" lon="3.90383">
        <ele>291.42</ele>
        <time>2021-08-13T08:28:07Z</time>
      </trkpt>
      <trkpt lat="46.66718" lon="3.90378">
        <ele>291.9</ele>
        <time>2021-08-13T08:28:16Z</time>
      </trkpt>
      <trkpt lat="46.66698" lon="3.90374">
        <ele>292.38</ele>
        <time>2021-08-13T08:28:23Z</time>
      </trkpt>
      <trkpt lat="46.66677" lon="3.9037">
        <ele>292.86</ele>
        <time>2021-08-13T08:28:31Z</time>
      </trkpt>
      <trkpt lat="46.66656" lon="3.90367">
        <ele>293.82</ele>
        <time>2021-08-13T08:28:39Z</time>
      </trkpt>
      <trkpt lat="46.66625" lon="3.90368">
        <ele>293.82</ele>
        <time>2021-08-13T08:28:49Z</time>
      </trkpt>
      <trkpt lat="46.66602" lon="3.9036">
        <ele>294.3</ele>
        <time>2021-08-13T08:28:56Z</time>
      </trkpt>
      <trkpt lat="46.66589" lon="3.90334">
        <ele>294.78</ele>
        <time>2021-08-13T08:29:03Z</time>
      </trkpt>
      <trkpt lat="46.66589" lon="3.90304">
        <ele>295.74</ele>
        <time>2021-08-13T08:29:10Z</time>
      </trkpt>
      <trkpt lat="46.66597" lon="3.90282">
        <ele>296.22</ele>
        <time>2021-08-13T08:29:16Z</time>
      </trkpt>
      <trkpt lat="46.66613" lon="3.90262">
        <ele>297.18</ele>
        <time>2021-08-13T08:29:23Z</time>
      </trkpt>
      <trkpt lat="46.6664" lon="3.90244">
        <ele>297.67</ele>
        <time>2021-08-13T08:29:32Z</time>
      </trkpt>
      <trkpt lat="46.66665" lon="3.90225">
        <ele>297.67</ele>
        <time>2021-08-13T08:29:40Z</time>
      </trkpt>
      <trkpt lat="46.66678" lon="3.90195">
        <ele>298.63</ele>
        <time>2021-08-13T08:29:47Z</time>
      </trkpt>
      <trkpt lat="46.66679" lon="3.90164">
        <ele>299.11</ele>
        <time>2021-08-13T08:29:53Z</time>
      </trkpt>
      <trkpt lat="46.66668" lon="3.90109">
        <ele>300.07</ele>
        <time>2021-08-13T08:30:03Z</time>
      </trkpt>
      <trkpt lat="46.66659" lon="3.90076">
        <ele>301.03</ele>
        <time>2021-08-13T08:30:10Z</time>
      </trkpt>
      <trkpt lat="46.66641" lon="3.90041">
        <ele>301.99</ele>
        <time>2021-08-13T08:30:19Z</time>
      </trkpt>
      <trkpt lat="46.66619" lon="3.90006">
        <ele>302.95</ele>
        <time>2021-08-13T08:30:29Z</time>
      </trkpt>
      <trkpt lat="46.66603" lon="3.89983">
        <ele>303.43</ele>
        <time>2021-08-13T08:30:36Z</time>
      </trkpt>
      <trkpt lat="46.66584" lon="3.89953">
        <ele>304.39</ele>
        <time>2021-08-13T08:30:44Z</time>
      </trkpt>
      <trkpt lat="46.66562" lon="3.8992">
        <ele>305.36</ele>
        <time>2021-08-13T08:30:53Z</time>
      </trkpt>
      <trkpt lat="46.66537" lon="3.89887">
        <ele>306.32</ele>
        <time>2021-08-13T08:31:03Z</time>
      </trkpt>
      <trkpt lat="46.66517" lon="3.89877">
        <ele>306.32</ele>
        <time>2021-08-13T08:31:09Z</time>
      </trkpt>
      <trkpt lat="46.66495" lon="3.89883">
        <ele>306.8</ele>
        <time>2021-08-13T08:31:15Z</time>
      </trkpt>
      <trkpt lat="46.66474" lon="3.89903">
        <ele>307.76</ele>
        <time>2021-08-13T08:31:22Z</time>
      </trkpt>
      <trkpt lat="46.66446" lon="3.89927">
        <ele>308.24</ele>
        <time>2021-08-13T08:31:31Z</time>
      </trkpt>
      <trkpt lat="46.66422" lon="3.89947">
        <ele>309.2</ele>
        <time>2021-08-13T08:31:39Z</time>
      </trkpt>
      <trkpt lat="46.66394" lon="3.89975">
        <ele>309.68</ele>
        <time>2021-08-13T08:31:48Z</time>
      </trkpt>
      <trkpt lat="46.66359" lon="3.90023">
        <ele>310.16</ele>
        <time>2021-08-13T08:32:00Z</time>
      </trkpt>
      <trkpt lat="46.6633" lon="3.90065">
        <ele>310.16</ele>
        <time>2021-08-13T08:32:10Z</time>
      </trkpt>
      <trkpt lat="46.66323" lon="3.90073">
        <ele>310.16</ele>
        <time>2021-08-13T08:32:12Z</time>
      </trkpt>
      <trkpt lat="46.66304" lon="3.90088">
        <ele>310.16</ele>
        <time>2021-08-13T08:32:17Z</time>
      </trkpt>
      <trkpt lat="46.663" lon="3.90089">
        <ele>310.16</ele>
        <time>2021-08-13T08:32:18Z</time>
      </trkpt>
      <trkpt lat="46.66296" lon="3.90091">
        <ele>310.64</ele>
        <time>2021-08-13T08:32:19Z</time>
      </trkpt>
      <trkpt lat="46.66292" lon="3.90092">
        <ele>310.64</ele>
        <time>2021-08-13T08:32:20Z</time>
      </trkpt>
      <trkpt lat="46.66288" lon="3.90092">
        <ele>310.64</ele>
        <time>2021-08-13T08:32:21Z</time>
      </trkpt>
      <trkpt lat="46.66285" lon="3.90093">
        <ele>310.64</ele>
        <time>2021-08-13T08:32:22Z</time>
      </trkpt>
      <trkpt lat="46.66254" lon="3.90086">
        <ele>311.6</ele>
        <time>2021-08-13T08:32:30Z</time>
      </trkpt>
      <trkpt lat="46.6621" lon="3.90077">
        <ele>312.09</ele>
        <time>2021-08-13T08:32:41Z</time>
      </trkpt>
      <trkpt lat="46.66176" lon="3.90075">
        <ele>313.05</ele>
        <time>2021-08-13T08:32:50Z</time>
      </trkpt>
      <trkpt lat="46.66153" lon="3.90082">
        <ele>313.53</ele>
        <time>2021-08-13T08:32:56Z</time>
      </trkpt>
      <trkpt lat="46.66111" lon="3.90106">
        <ele>314.01</ele>
        <time>2021-08-13T08:33:07Z</time>
      </trkpt>
      <trkpt lat="46.66104" lon="3.90111">
        <ele>314.01</ele>
        <time>2021-08-13T08:33:09Z</time>
      </trkpt>
      <trkpt lat="46.66071" lon="3.90137">
        <ele>314.49</ele>
        <time>2021-08-13T08:33:18Z</time>
      </trkpt>
      <trkpt lat="46.66036" lon="3.9016">
        <ele>314.49</ele>
        <time>2021-08-13T08:33:27Z</time>
      </trkpt>
      <trkpt lat="46.66002" lon="3.90168">
        <ele>315.45</ele>
        <time>2021-08-13T08:33:36Z</time>
      </trkpt>
      <trkpt lat="46.65961" lon="3.90171">
        <ele>316.89</ele>
        <time>2021-08-13T08:33:47Z</time>
      </trkpt>
      <trkpt lat="46.65953" lon="3.90172">
        <ele>316.89</ele>
        <time>2021-08-13T08:33:49Z</time>
      </trkpt>
      <trkpt lat="46.65949" lon="3.90171">
        <ele>316.89</ele>
        <time>2021-08-13T08:33:50Z</time>
      </trkpt>
      <trkpt lat="46.65933" lon="3.90166">
        <ele>316.89</ele>
        <time>2021-08-13T08:33:54Z</time>
      </trkpt>
      <trkpt lat="46.65929" lon="3.90163">
        <ele>316.89</ele>
        <time>2021-08-13T08:33:55Z</time>
      </trkpt>
      <trkpt lat="46.65925" lon="3.90159">
        <ele>316.89</ele>
        <time>2021-08-13T08:33:56Z</time>
      </trkpt>
      <trkpt lat="46.65921" lon="3.90155">
        <ele>316.89</ele>
        <time>2021-08-13T08:33:57Z</time>
      </trkpt>
      <trkpt lat="46.65918" lon="3.9015">
        <ele>316.89</ele>
        <time>2021-08-13T08:33:58Z</time>
      </trkpt>
      <trkpt lat="46.65916" lon="3.90145">
        <ele>316.89</ele>
        <time>2021-08-13T08:33:59Z</time>
      </trkpt>
      <trkpt lat="46.65913" lon="3.90138">
        <ele>316.89</ele>
        <time>2021-08-13T08:34:00Z</time>
      </trkpt>
      <trkpt lat="46.65912" lon="3.90131">
        <ele>316.89</ele>
        <time>2021-08-13T08:34:01Z</time>
      </trkpt>
      <trkpt lat="46.65912" lon="3.90124">
        <ele>316.89</ele>
        <time>2021-08-13T08:34:02Z</time>
      </trkpt>
      <trkpt lat="46.65913" lon="3.90118">
        <ele>316.89</ele>
        <time>2021-08-13T08:34:03Z</time>
      </trkpt>
      <trkpt lat="46.65914" lon="3.90111">
        <ele>316.89</ele>
        <time>2021-08-13T08:34:04Z</time>
      </trkpt>
      <trkpt lat="46.65916" lon="3.90106">
        <ele>316.89</ele>
        <time>2021-08-13T08:34:05Z</time>
      </trkpt>
      <trkpt lat="46.65919" lon="3.90101">
        <ele>316.89</ele>
        <time>2021-08-13T08:34:06Z</time>
      </trkpt>
      <trkpt lat="46.65921" lon="3.90097">
        <ele>316.89</ele>
        <time>2021-08-13T08:34:07Z</time>
      </trkpt>
      <trkpt lat="46.65945" lon="3.90067">
        <ele>317.85</ele>
        <time>2021-08-13T08:34:16Z</time>
      </trkpt>
      <trkpt lat="46.65966" lon="3.90041">
        <ele>318.81</ele>
        <time>2021-08-13T08:34:24Z</time>
      </trkpt>
      <trkpt lat="46.65979" lon="3.90005">
        <ele>320.26</ele>
        <time>2021-08-13T08:34:33Z</time>
      </trkpt>
      <trkpt lat="46.65975" lon="3.89972">
        <ele>321.22</ele>
        <time>2021-08-13T08:34:40Z</time>
      </trkpt>
      <trkpt lat="46.65964" lon="3.89927">
        <ele>321.7</ele>
        <time>2021-08-13T08:34:50Z</time>
      </trkpt>
      <trkpt lat="46.65946" lon="3.89865">
        <ele>321.7</ele>
        <time>2021-08-13T08:35:01Z</time>
      </trkpt>
      <trkpt lat="46.65922" lon="3.89811">
        <ele>320.26</ele>
        <time>2021-08-13T08:35:10Z</time>
      </trkpt>
      <trkpt lat="46.65894" lon="3.89744">
        <ele>318.81</ele>
        <time>2021-08-13T08:35:20Z</time>
      </trkpt>
      <trkpt lat="46.65877" lon="3.89709">
        <ele>317.85</ele>
        <time>2021-08-13T08:35:25Z</time>
      </trkpt>
      <trkpt lat="46.65868" lon="3.89696">
        <ele>317.37</ele>
        <time>2021-08-13T08:35:27Z</time>
      </trkpt>
      <trkpt lat="46.65863" lon="3.89691">
        <ele>316.41</ele>
        <time>2021-08-13T08:35:28Z</time>
      </trkpt>
      <trkpt lat="46.65857" lon="3.89688">
        <ele>316.41</ele>
        <time>2021-08-13T08:35:29Z</time>
      </trkpt>
      <trkpt lat="46.65851" lon="3.89686">
        <ele>315.93</ele>
        <time>2021-08-13T08:35:30Z</time>
      </trkpt>
      <trkpt lat="46.65844" lon="3.89686">
        <ele>315.93</ele>
        <time>2021-08-13T08:35:31Z</time>
      </trkpt>
      <trkpt lat="46.65831" lon="3.89685">
        <ele>314.97</ele>
        <time>2021-08-13T08:35:33Z</time>
      </trkpt>
      <trkpt lat="46.65825" lon="3.89687">
        <ele>314.97</ele>
        <time>2021-08-13T08:35:34Z</time>
      </trkpt>
      <trkpt lat="46.65818" lon="3.89688">
        <ele>314.97</ele>
        <time>2021-08-13T08:35:35Z</time>
      </trkpt>
      <trkpt lat="46.6581" lon="3.89689">
        <ele>314.01</ele>
        <time>2021-08-13T08:35:36Z</time>
      </trkpt>
      <trkpt lat="46.65802" lon="3.89687">
        <ele>313.53</ele>
        <time>2021-08-13T08:35:37Z</time>
      </trkpt>
      <trkpt lat="46.65795" lon="3.89685">
        <ele>313.53</ele>
        <time>2021-08-13T08:35:38Z</time>
      </trkpt>
      <trkpt lat="46.65787" lon="3.89682">
        <ele>313.53</ele>
        <time>2021-08-13T08:35:39Z</time>
      </trkpt>
      <trkpt lat="46.6578" lon="3.89677">
        <ele>312.57</ele>
        <time>2021-08-13T08:35:40Z</time>
      </trkpt>
      <trkpt lat="46.65772" lon="3.89673">
        <ele>312.57</ele>
        <time>2021-08-13T08:35:41Z</time>
      </trkpt>
      <trkpt lat="46.65718" lon="3.89634">
        <ele>311.6</ele>
        <time>2021-08-13T08:35:49Z</time>
      </trkpt>
      <trkpt lat="46.65713" lon="3.89629">
        <ele>311.6</ele>
        <time>2021-08-13T08:35:50Z</time>
      </trkpt>
      <trkpt lat="46.65709" lon="3.89623">
        <ele>313.05</ele>
        <time>2021-08-13T08:35:51Z</time>
      </trkpt>
      <trkpt lat="46.65705" lon="3.89616">
        <ele>313.05</ele>
        <time>2021-08-13T08:35:52Z</time>
      </trkpt>
      <trkpt lat="46.65703" lon="3.89608">
        <ele>313.05</ele>
        <time>2021-08-13T08:35:53Z</time>
      </trkpt>
      <trkpt lat="46.65701" lon="3.896">
        <ele>313.05</ele>
        <time>2021-08-13T08:35:54Z</time>
      </trkpt>
      <trkpt lat="46.657" lon="3.89592">
        <ele>313.05</ele>
        <time>2021-08-13T08:35:55Z</time>
      </trkpt>
      <trkpt lat="46.657" lon="3.89585">
        <ele>313.53</ele>
        <time>2021-08-13T08:35:56Z</time>
      </trkpt>
      <trkpt lat="46.65701" lon="3.89577">
        <ele>313.53</ele>
        <time>2021-08-13T08:35:57Z</time>
      </trkpt>
      <trkpt lat="46.65702" lon="3.89569">
        <ele>313.53</ele>
        <time>2021-08-13T08:35:58Z</time>
      </trkpt>
      <trkpt lat="46.65704" lon="3.89562">
        <ele>313.53</ele>
        <time>2021-08-13T08:35:59Z</time>
      </trkpt>
      <trkpt lat="46.65706" lon="3.89555">
        <ele>314.01</ele>
        <time>2021-08-13T08:36:00Z</time>
      </trkpt>
      <trkpt lat="46.6572" lon="3.89514">
        <ele>314.97</ele>
        <time>2021-08-13T08:36:07Z</time>
      </trkpt>
      <trkpt lat="46.65734" lon="3.89462">
        <ele>315.93</ele>
        <time>2021-08-13T08:36:16Z</time>
      </trkpt>
      <trkpt lat="46.65747" lon="3.89401">
        <ele>316.89</ele>
        <time>2021-08-13T08:36:27Z</time>
      </trkpt>
      <trkpt lat="46.65751" lon="3.89355">
        <ele>317.85</ele>
        <time>2021-08-13T08:36:36Z</time>
      </trkpt>
      <trkpt lat="46.65743" lon="3.8931">
        <ele>319.3</ele>
        <time>2021-08-13T08:36:45Z</time>
      </trkpt>
      <trkpt lat="46.65734" lon="3.8927">
        <ele>319.78</ele>
        <time>2021-08-13T08:36:53Z</time>
      </trkpt>
      <trkpt lat="46.65735" lon="3.89225">
        <ele>320.74</ele>
        <time>2021-08-13T08:37:02Z</time>
      </trkpt>
      <trkpt lat="46.65737" lon="3.89171">
        <ele>321.7</ele>
        <time>2021-08-13T08:37:13Z</time>
      </trkpt>
      <trkpt lat="46.65731" lon="3.89131">
        <ele>322.18</ele>
        <time>2021-08-13T08:37:21Z</time>
      </trkpt>
      <trkpt lat="46.65716" lon="3.89082">
        <ele>322.18</ele>
        <time>2021-08-13T08:37:31Z</time>
      </trkpt>
      <trkpt lat="46.65694" lon="3.89046">
        <ele>322.66</ele>
        <time>2021-08-13T08:37:40Z</time>
      </trkpt>
      <trkpt lat="46.65682" lon="3.89031">
        <ele>322.66</ele>
        <time>2021-08-13T08:37:44Z</time>
      </trkpt>
      <trkpt lat="46.65678" lon="3.89027">
        <ele>322.66</ele>
        <time>2021-08-13T08:37:45Z</time>
      </trkpt>
      <trkpt lat="46.65642" lon="3.88985">
        <ele>322.66</ele>
        <time>2021-08-13T08:37:56Z</time>
      </trkpt>
      <trkpt lat="46.65625" lon="3.88965">
        <ele>322.66</ele>
        <time>2021-08-13T08:38:01Z</time>
      </trkpt>
      <trkpt lat="46.65592" lon="3.88925">
        <ele>322.66</ele>
        <time>2021-08-13T08:38:11Z</time>
      </trkpt>
      <trkpt lat="46.65588" lon="3.88922">
        <ele>322.66</ele>
        <time>2021-08-13T08:38:12Z</time>
      </trkpt>
      <trkpt lat="46.65585" lon="3.88918">
        <ele>322.66</ele>
        <time>2021-08-13T08:38:13Z</time>
      </trkpt>
      <trkpt lat="46.65573" lon="3.88908">
        <ele>322.66</ele>
        <time>2021-08-13T08:38:16Z</time>
      </trkpt>
      <trkpt lat="46.65561" lon="3.88898">
        <ele>322.66</ele>
        <time>2021-08-13T08:38:19Z</time>
      </trkpt>
      <trkpt lat="46.65556" lon="3.88896">
        <ele>322.66</ele>
        <time>2021-08-13T08:38:20Z</time>
      </trkpt>
      <trkpt lat="46.65552" lon="3.88893">
        <ele>322.66</ele>
        <time>2021-08-13T08:38:21Z</time>
      </trkpt>
      <trkpt lat="46.65541" lon="3.8889">
        <ele>321.7</ele>
        <time>2021-08-13T08:38:23Z</time>
      </trkpt>
      <trkpt lat="46.65536" lon="3.8889">
        <ele>321.22</ele>
        <time>2021-08-13T08:38:24Z</time>
      </trkpt>
      <trkpt lat="46.6553" lon="3.8889">
        <ele>321.22</ele>
        <time>2021-08-13T08:38:25Z</time>
      </trkpt>
      <trkpt lat="46.65491" lon="3.88899">
        <ele>320.26</ele>
        <time>2021-08-13T08:38:32Z</time>
      </trkpt>
      <trkpt lat="46.65425" lon="3.88923">
        <ele>318.33</ele>
        <time>2021-08-13T08:38:43Z</time>
      </trkpt>
      <trkpt lat="46.65419" lon="3.88924">
        <ele>318.33</ele>
        <time>2021-08-13T08:38:44Z</time>
      </trkpt>
      <trkpt lat="46.65412" lon="3.88924">
        <ele>317.85</ele>
        <time>2021-08-13T08:38:45Z</time>
      </trkpt>
      <trkpt lat="46.65406" lon="3.88923">
        <ele>317.85</ele>
        <time>2021-08-13T08:38:46Z</time>
      </trkpt>
      <trkpt lat="46.65399" lon="3.88921">
        <ele>317.37</ele>
        <time>2021-08-13T08:38:47Z</time>
      </trkpt>
      <trkpt lat="46.65393" lon="3.88917">
        <ele>317.37</ele>
        <time>2021-08-13T08:38:48Z</time>
      </trkpt>
      <trkpt lat="46.65387" lon="3.88913">
        <ele>317.37</ele>
        <time>2021-08-13T08:38:49Z</time>
      </trkpt>
      <trkpt lat="46.65382" lon="3.88908">
        <ele>317.37</ele>
        <time>2021-08-13T08:38:50Z</time>
      </trkpt>
      <trkpt lat="46.65377" lon="3.88903">
        <ele>317.37</ele>
        <time>2021-08-13T08:38:51Z</time>
      </trkpt>
      <trkpt lat="46.65372" lon="3.88897">
        <ele>316.89</ele>
        <time>2021-08-13T08:38:52Z</time>
      </trkpt>
      <trkpt lat="46.65348" lon="3.88861">
        <ele>318.33</ele>
        <time>2021-08-13T08:38:58Z</time>
      </trkpt>
      <trkpt lat="46.65337" lon="3.88845">
        <ele>318.81</ele>
        <time>2021-08-13T08:39:01Z</time>
      </trkpt>
      <trkpt lat="46.65317" lon="3.88829">
        <ele>319.78</ele>
        <time>2021-08-13T08:39:06Z</time>
      </trkpt>
      <trkpt lat="46.65313" lon="3.88827">
        <ele>320.26</ele>
        <time>2021-08-13T08:39:07Z</time>
      </trkpt>
      <trkpt lat="46.65309" lon="3.88826">
        <ele>320.26</ele>
        <time>2021-08-13T08:39:08Z</time>
      </trkpt>
      <trkpt lat="46.65272" lon="3.88826">
        <ele>321.22</ele>
        <time>2021-08-13T08:39:17Z</time>
      </trkpt>
      <trkpt lat="46.65234" lon="3.88812">
        <ele>322.66</ele>
        <time>2021-08-13T08:39:27Z</time>
      </trkpt>
      <trkpt lat="46.65208" lon="3.88794">
        <ele>323.62</ele>
        <time>2021-08-13T08:39:35Z</time>
      </trkpt>
      <trkpt lat="46.65184" lon="3.88767">
        <ele>325.06</ele>
        <time>2021-08-13T08:39:44Z</time>
      </trkpt>
      <trkpt lat="46.65172" lon="3.88727">
        <ele>325.54</ele>
        <time>2021-08-13T08:39:53Z</time>
      </trkpt>
      <trkpt lat="46.65169" lon="3.8869">
        <ele>326.5</ele>
        <time>2021-08-13T08:40:01Z</time>
      </trkpt>
      <trkpt lat="46.65166" lon="3.88637">
        <ele>327.47</ele>
        <time>2021-08-13T08:40:12Z</time>
      </trkpt>
      <trkpt lat="46.65161" lon="3.88593">
        <ele>328.43</ele>
        <time>2021-08-13T08:40:21Z</time>
      </trkpt>
      <trkpt lat="46.65151" lon="3.88557">
        <ele>328.91</ele>
        <time>2021-08-13T08:40:29Z</time>
      </trkpt>
      <trkpt lat="46.65131" lon="3.88524">
        <ele>329.87</ele>
        <time>2021-08-13T08:40:38Z</time>
      </trkpt>
      <trkpt lat="46.65109" lon="3.88507">
        <ele>330.35</ele>
        <time>2021-08-13T08:40:46Z</time>
      </trkpt>
      <trkpt lat="46.65084" lon="3.88512">
        <ele>331.79</ele>
        <time>2021-08-13T08:40:54Z</time>
      </trkpt>
      <trkpt lat="46.6506" lon="3.88535">
        <ele>332.27</ele>
        <time>2021-08-13T08:41:03Z</time>
      </trkpt>
      <trkpt lat="46.65036" lon="3.88562">
        <ele>332.75</ele>
        <time>2021-08-13T08:41:12Z</time>
      </trkpt>
      <trkpt lat="46.65015" lon="3.88581">
        <ele>333.71</ele>
        <time>2021-08-13T08:41:19Z</time>
      </trkpt>
      <trkpt lat="46.65001" lon="3.88589">
        <ele>334.2</ele>
        <time>2021-08-13T08:41:24Z</time>
      </trkpt>
      <trkpt lat="46.64998" lon="3.88586">
        <ele>334.2</ele>
        <time>2021-08-13T08:41:25Z</time>
      </trkpt>
      <trkpt lat="46.64997" lon="3.8858">
        <ele>334.2</ele>
        <time>2021-08-13T08:41:26Z</time>
      </trkpt>
      <trkpt lat="46.64997" lon="3.88576">
        <ele>334.2</ele>
        <time>2021-08-13T08:41:27Z</time>
      </trkpt>
      <trkpt lat="46.64997" lon="3.88571">
        <ele>334.2</ele>
        <time>2021-08-13T08:41:28Z</time>
      </trkpt>
      <trkpt lat="46.64998" lon="3.88567">
        <ele>334.2</ele>
        <time>2021-08-13T08:41:29Z</time>
      </trkpt>
      <trkpt lat="46.65004" lon="3.88528">
        <ele>334.68</ele>
        <time>2021-08-13T08:41:37Z</time>
      </trkpt>
      <trkpt lat="46.65013" lon="3.8848">
        <ele>335.64</ele>
        <time>2021-08-13T08:41:47Z</time>
      </trkpt>
      <trkpt lat="46.65016" lon="3.88446">
        <ele>336.12</ele>
        <time>2021-08-13T08:41:54Z</time>
      </trkpt>
      <trkpt lat="46.65018" lon="3.884">
        <ele>337.08</ele>
        <time>2021-08-13T08:42:03Z</time>
      </trkpt>
      <trkpt lat="46.65021" lon="3.8836">
        <ele>338.04</ele>
        <time>2021-08-13T08:42:11Z</time>
      </trkpt>
      <trkpt lat="46.65025" lon="3.88305">
        <ele>338.52</ele>
        <time>2021-08-13T08:42:22Z</time>
      </trkpt>
      <trkpt lat="46.65033" lon="3.88242">
        <ele>339.48</ele>
        <time>2021-08-13T08:42:34Z</time>
      </trkpt>
      <trkpt lat="46.65036" lon="3.88188">
        <ele>339.48</ele>
        <time>2021-08-13T08:42:43Z</time>
      </trkpt>
      <trkpt lat="46.65033" lon="3.88117">
        <ele>340.44</ele>
        <time>2021-08-13T08:42:55Z</time>
      </trkpt>
      <trkpt lat="46.65028" lon="3.88073">
        <ele>341.41</ele>
        <time>2021-08-13T08:43:03Z</time>
      </trkpt>
      <trkpt lat="46.6502" lon="3.8801">
        <ele>341.41</ele>
        <time>2021-08-13T08:43:14Z</time>
      </trkpt>
      <trkpt lat="46.65018" lon="3.87998">
        <ele>341.41</ele>
        <time>2021-08-13T08:43:16Z</time>
      </trkpt>
      <trkpt lat="46.65013" lon="3.8797">
        <ele>339.96</ele>
        <time>2021-08-13T08:43:20Z</time>
      </trkpt>
      <trkpt lat="46.65" lon="3.87886">
        <ele>338.04</ele>
        <time>2021-08-13T08:43:30Z</time>
      </trkpt>
      <trkpt lat="46.64991" lon="3.87801">
        <ele>337.56</ele>
        <time>2021-08-13T08:43:40Z</time>
      </trkpt>
      <trkpt lat="46.64986" lon="3.87728">
        <ele>337.56</ele>
        <time>2021-08-13T08:43:50Z</time>
      </trkpt>
      <trkpt lat="46.64983" lon="3.87657">
        <ele>338.52</ele>
        <time>2021-08-13T08:44:00Z</time>
      </trkpt>
      <trkpt lat="46.64983" lon="3.87649">
        <ele>338.52</ele>
        <time>2021-08-13T08:44:01Z</time>
      </trkpt>
      <trkpt lat="46.6499" lon="3.87608">
        <ele>337.56</ele>
        <time>2021-08-13T08:44:07Z</time>
      </trkpt>
      <trkpt lat="46.65008" lon="3.87559">
        <ele>337.56</ele>
        <time>2021-08-13T08:44:15Z</time>
      </trkpt>
      <trkpt lat="46.65029" lon="3.87513">
        <ele>337.56</ele>
        <time>2021-08-13T08:44:23Z</time>
      </trkpt>
      <trkpt lat="46.65056" lon="3.87448">
        <ele>339</ele>
        <time>2021-08-13T08:44:34Z</time>
      </trkpt>
      <trkpt lat="46.65058" lon="3.87443">
        <ele>339</ele>
        <time>2021-08-13T08:44:35Z</time>
      </trkpt>
      <trkpt lat="46.65076" lon="3.87404">
        <ele>339.96</ele>
        <time>2021-08-13T08:44:43Z</time>
      </trkpt>
      <trkpt lat="46.6509" lon="3.87365">
        <ele>342.37</ele>
        <time>2021-08-13T08:44:52Z</time>
      </trkpt>
      <trkpt lat="46.65099" lon="3.87336">
        <ele>343.33</ele>
        <time>2021-08-13T08:44:59Z</time>
      </trkpt>
      <trkpt lat="46.65097" lon="3.8731">
        <ele>344.29</ele>
        <time>2021-08-13T08:45:05Z</time>
      </trkpt>
      <trkpt lat="46.65085" lon="3.87264">
        <ele>344.29</ele>
        <time>2021-08-13T08:45:15Z</time>
      </trkpt>
      <trkpt lat="46.65077" lon="3.87233">
        <ele>342.85</ele>
        <time>2021-08-13T08:45:21Z</time>
      </trkpt>
      <trkpt lat="46.65067" lon="3.87201">
        <ele>341.89</ele>
        <time>2021-08-13T08:45:26Z</time>
      </trkpt>
      <trkpt lat="46.65042" lon="3.87137">
        <ele>339.96</ele>
        <time>2021-08-13T08:45:35Z</time>
      </trkpt>
      <trkpt lat="46.65016" lon="3.87073">
        <ele>337.56</ele>
        <time>2021-08-13T08:45:43Z</time>
      </trkpt>
      <trkpt lat="46.64993" lon="3.87018">
        <ele>334.2</ele>
        <time>2021-08-13T08:45:49Z</time>
      </trkpt>
      <trkpt lat="46.64989" lon="3.87008">
        <ele>334.2</ele>
        <time>2021-08-13T08:45:50Z</time>
      </trkpt>
      <trkpt lat="46.64971" lon="3.86947">
        <ele>332.27</ele>
        <time>2021-08-13T08:45:56Z</time>
      </trkpt>
      <trkpt lat="46.64958" lon="3.86871">
        <ele>331.31</ele>
        <time>2021-08-13T08:46:03Z</time>
      </trkpt>
      <trkpt lat="46.64935" lon="3.86792">
        <ele>329.87</ele>
        <time>2021-08-13T08:46:11Z</time>
      </trkpt>
      <trkpt lat="46.6492" lon="3.86728">
        <ele>329.39</ele>
        <time>2021-08-13T08:46:18Z</time>
      </trkpt>
      <trkpt lat="46.6492" lon="3.86673">
        <ele>328.43</ele>
        <time>2021-08-13T08:46:24Z</time>
      </trkpt>
      <trkpt lat="46.64922" lon="3.86657">
        <ele>328.43</ele>
        <time>2021-08-13T08:46:26Z</time>
      </trkpt>
      <trkpt lat="46.64932" lon="3.86609">
        <ele>326.5</ele>
        <time>2021-08-13T08:46:32Z</time>
      </trkpt>
      <trkpt lat="46.64949" lon="3.86555">
        <ele>323.62</ele>
        <time>2021-08-13T08:46:39Z</time>
      </trkpt>
      <trkpt lat="46.64959" lon="3.86515">
        <ele>322.18</ele>
        <time>2021-08-13T08:46:44Z</time>
      </trkpt>
      <trkpt lat="46.64962" lon="3.86488">
        <ele>321.7</ele>
        <time>2021-08-13T08:46:47Z</time>
      </trkpt>
      <trkpt lat="46.6496" lon="3.8642">
        <ele>320.26</ele>
        <time>2021-08-13T08:46:55Z</time>
      </trkpt>
      <trkpt lat="46.64958" lon="3.86413">
        <ele>320.26</ele>
        <time>2021-08-13T08:46:56Z</time>
      </trkpt>
      <trkpt lat="46.64953" lon="3.86387">
        <ele>320.26</ele>
        <time>2021-08-13T08:47:01Z</time>
      </trkpt>
      <trkpt lat="46.64954" lon="3.86383">
        <ele>320.26</ele>
        <time>2021-08-13T08:47:02Z</time>
      </trkpt>
      <trkpt lat="46.64955" lon="3.8638">
        <ele>320.26</ele>
        <time>2021-08-13T08:47:03Z</time>
      </trkpt>
      <trkpt lat="46.64957" lon="3.86376">
        <ele>320.26</ele>
        <time>2021-08-13T08:47:04Z</time>
      </trkpt>
      <trkpt lat="46.64964" lon="3.86366">
        <ele>321.7</ele>
        <time>2021-08-13T08:47:08Z</time>
      </trkpt>
      <trkpt lat="46.64972" lon="3.86348">
        <ele>323.62</ele>
        <time>2021-08-13T08:47:15Z</time>
      </trkpt>
      <trkpt lat="46.64975" lon="3.86321">
        <ele>324.1</ele>
        <time>2021-08-13T08:47:23Z</time>
      </trkpt>
      <trkpt lat="46.64971" lon="3.86306">
        <ele>324.1</ele>
        <time>2021-08-13T08:47:26Z</time>
      </trkpt>
      <trkpt lat="46.64969" lon="3.86301">
        <ele>322.66</ele>
        <time>2021-08-13T08:47:27Z</time>
      </trkpt>
      <trkpt lat="46.64966" lon="3.86296">
        <ele>322.66</ele>
        <time>2021-08-13T08:47:28Z</time>
      </trkpt>
      <trkpt lat="46.64963" lon="3.86292">
        <ele>322.66</ele>
        <time>2021-08-13T08:47:29Z</time>
      </trkpt>
      <trkpt lat="46.6496" lon="3.86287">
        <ele>322.18</ele>
        <time>2021-08-13T08:47:30Z</time>
      </trkpt>
      <trkpt lat="46.64958" lon="3.86281">
        <ele>322.18</ele>
        <time>2021-08-13T08:47:31Z</time>
      </trkpt>
      <trkpt lat="46.64955" lon="3.86275">
        <ele>322.18</ele>
        <time>2021-08-13T08:47:32Z</time>
      </trkpt>
      <trkpt lat="46.64946" lon="3.86238">
        <ele>322.18</ele>
        <time>2021-08-13T08:47:39Z</time>
      </trkpt>
      <trkpt lat="46.64939" lon="3.86212">
        <ele>323.62</ele>
        <time>2021-08-13T08:47:45Z</time>
      </trkpt>
      <trkpt lat="46.64935" lon="3.86196">
        <ele>324.58</ele>
        <time>2021-08-13T08:47:50Z</time>
      </trkpt>
      <trkpt lat="46.64932" lon="3.86191">
        <ele>325.06</ele>
        <time>2021-08-13T08:47:51Z</time>
      </trkpt>
      <trkpt lat="46.64922" lon="3.86182">
        <ele>323.62</ele>
        <time>2021-08-13T08:47:53Z</time>
      </trkpt>
      <trkpt lat="46.64916" lon="3.86178">
        <ele>322.18</ele>
        <time>2021-08-13T08:47:54Z</time>
      </trkpt>
      <trkpt lat="46.64895" lon="3.86167">
        <ele>319.78</ele>
        <time>2021-08-13T08:47:57Z</time>
      </trkpt>
      <trkpt lat="46.64889" lon="3.86165">
        <ele>319.3</ele>
        <time>2021-08-13T08:47:58Z</time>
      </trkpt>
      <trkpt lat="46.64873" lon="3.86158">
        <ele>317.37</ele>
        <time>2021-08-13T08:48:00Z</time>
      </trkpt>
      <trkpt lat="46.64857" lon="3.86149">
        <ele>315.45</ele>
        <time>2021-08-13T08:48:02Z</time>
      </trkpt>
      <trkpt lat="46.64825" lon="3.86125">
        <ele>312.09</ele>
        <time>2021-08-13T08:48:06Z</time>
      </trkpt>
      <trkpt lat="46.64817" lon="3.86119">
        <ele>312.09</ele>
        <time>2021-08-13T08:48:07Z</time>
      </trkpt>
      <trkpt lat="46.6481" lon="3.86113">
        <ele>312.09</ele>
        <time>2021-08-13T08:48:08Z</time>
      </trkpt>
      <trkpt lat="46.64806" lon="3.86107">
        <ele>311.12</ele>
        <time>2021-08-13T08:48:09Z</time>
      </trkpt>
      <trkpt lat="46.64803" lon="3.86099">
        <ele>310.64</ele>
        <time>2021-08-13T08:48:10Z</time>
      </trkpt>
      <trkpt lat="46.648" lon="3.8609">
        <ele>310.64</ele>
        <time>2021-08-13T08:48:11Z</time>
      </trkpt>
      <trkpt lat="46.64798" lon="3.8608">
        <ele>310.16</ele>
        <time>2021-08-13T08:48:12Z</time>
      </trkpt>
      <trkpt lat="46.64796" lon="3.86071">
        <ele>309.2</ele>
        <time>2021-08-13T08:48:13Z</time>
      </trkpt>
      <trkpt lat="46.64794" lon="3.86064">
        <ele>308.72</ele>
        <time>2021-08-13T08:48:14Z</time>
      </trkpt>
      <trkpt lat="46.64788" lon="3.86043">
        <ele>306.8</ele>
        <time>2021-08-13T08:48:17Z</time>
      </trkpt>
      <trkpt lat="46.64787" lon="3.86036">
        <ele>306.32</ele>
        <time>2021-08-13T08:48:18Z</time>
      </trkpt>
      <trkpt lat="46.64787" lon="3.86029">
        <ele>305.84</ele>
        <time>2021-08-13T08:48:19Z</time>
      </trkpt>
      <trkpt lat="46.64787" lon="3.86023">
        <ele>304.88</ele>
        <time>2021-08-13T08:48:20Z</time>
      </trkpt>
      <trkpt lat="46.64787" lon="3.86016">
        <ele>304.39</ele>
        <time>2021-08-13T08:48:21Z</time>
      </trkpt>
      <trkpt lat="46.64788" lon="3.8601">
        <ele>303.91</ele>
        <time>2021-08-13T08:48:22Z</time>
      </trkpt>
      <trkpt lat="46.64791" lon="3.85995">
        <ele>301.99</ele>
        <time>2021-08-13T08:48:24Z</time>
      </trkpt>
      <trkpt lat="46.64794" lon="3.85988">
        <ele>301.51</ele>
        <time>2021-08-13T08:48:25Z</time>
      </trkpt>
      <trkpt lat="46.64796" lon="3.85981">
        <ele>300.55</ele>
        <time>2021-08-13T08:48:26Z</time>
      </trkpt>
      <trkpt lat="46.64799" lon="3.85975">
        <ele>300.07</ele>
        <time>2021-08-13T08:48:27Z</time>
      </trkpt>
      <trkpt lat="46.64802" lon="3.85969">
        <ele>300.07</ele>
        <time>2021-08-13T08:48:28Z</time>
      </trkpt>
      <trkpt lat="46.64806" lon="3.85964">
        <ele>299.11</ele>
        <time>2021-08-13T08:48:29Z</time>
      </trkpt>
      <trkpt lat="46.6481" lon="3.8596">
        <ele>299.11</ele>
        <time>2021-08-13T08:48:30Z</time>
      </trkpt>
      <trkpt lat="46.64815" lon="3.85956">
        <ele>298.15</ele>
        <time>2021-08-13T08:48:31Z</time>
      </trkpt>
      <trkpt lat="46.64819" lon="3.85953">
        <ele>298.15</ele>
        <time>2021-08-13T08:48:32Z</time>
      </trkpt>
      <trkpt lat="46.64822" lon="3.85951">
        <ele>297.18</ele>
        <time>2021-08-13T08:48:33Z</time>
      </trkpt>
      <trkpt lat="46.64839" lon="3.85945">
        <ele>294.3</ele>
        <time>2021-08-13T08:48:39Z</time>
      </trkpt>
      <trkpt lat="46.64843" lon="3.85943">
        <ele>294.3</ele>
        <time>2021-08-13T08:48:45Z</time>
      </trkpt>
      <trkpt lat="46.64845" lon="3.85943">
        <ele>293.82</ele>
        <time>2021-08-13T08:48:46Z</time>
      </trkpt>
      <trkpt lat="46.64847" lon="3.85943">
        <ele>293.82</ele>
        <time>2021-08-13T08:48:47Z</time>
      </trkpt>
      <trkpt lat="46.64849" lon="3.85942">
        <ele>293.34</ele>
        <time>2021-08-13T08:48:48Z</time>
      </trkpt>
      <trkpt lat="46.64852" lon="3.85942">
        <ele>292.86</ele>
        <time>2021-08-13T08:48:49Z</time>
      </trkpt>
      <trkpt lat="46.6487" lon="3.8594">
        <ele>289.01</ele>
        <time>2021-08-13T08:48:55Z</time>
      </trkpt>
      <trkpt lat="46.64873" lon="3.85937">
        <ele>289.01</ele>
        <time>2021-08-13T08:48:56Z</time>
      </trkpt>
      <trkpt lat="46.64882" lon="3.85928">
        <ele>287.09</ele>
        <time>2021-08-13T08:48:59Z</time>
      </trkpt>
      <trkpt lat="46.64901" lon="3.85911">
        <ele>282.77</ele>
        <time>2021-08-13T08:49:05Z</time>
      </trkpt>
      <trkpt lat="46.64915" lon="3.85901">
        <ele>279.88</ele>
        <time>2021-08-13T08:49:08Z</time>
      </trkpt>
      <trkpt lat="46.64926" lon="3.85888">
        <ele>277.48</ele>
        <time>2021-08-13T08:49:10Z</time>
      </trkpt>
      <trkpt lat="46.64939" lon="3.85873">
        <ele>276.52</ele>
        <time>2021-08-13T08:49:12Z</time>
      </trkpt>
      <trkpt lat="46.64944" lon="3.85865">
        <ele>275.07</ele>
        <time>2021-08-13T08:49:13Z</time>
      </trkpt>
      <trkpt lat="46.64954" lon="3.85845">
        <ele>274.11</ele>
        <time>2021-08-13T08:49:15Z</time>
      </trkpt>
      <trkpt lat="46.64957" lon="3.85834">
        <ele>274.11</ele>
        <time>2021-08-13T08:49:16Z</time>
      </trkpt>
      <trkpt lat="46.64959" lon="3.85814">
        <ele>274.59</ele>
        <time>2021-08-13T08:49:18Z</time>
      </trkpt>
      <trkpt lat="46.6496" lon="3.85781">
        <ele>272.67</ele>
        <time>2021-08-13T08:49:21Z</time>
      </trkpt>
      <trkpt lat="46.64962" lon="3.8574">
        <ele>271.71</ele>
        <time>2021-08-13T08:49:26Z</time>
      </trkpt>
      <trkpt lat="46.64962" lon="3.85735">
        <ele>271.71</ele>
        <time>2021-08-13T08:49:28Z</time>
      </trkpt>
      <trkpt lat="46.64966" lon="3.85723">
        <ele>271.71</ele>
        <time>2021-08-13T08:49:35Z</time>
      </trkpt>
      <trkpt lat="46.64966" lon="3.85722">
        <ele>271.71</ele>
        <time>2021-08-13T08:49:46Z</time>
      </trkpt>
      <trkpt lat="46.64967" lon="3.85727">
        <ele>271.71</ele>
        <time>2021-08-13T08:49:54Z</time>
      </trkpt>
      <trkpt lat="46.64966" lon="3.85727">
        <ele>271.71</ele>
        <time>2021-08-13T08:50:03Z</time>
      </trkpt>
      <trkpt lat="46.64966" lon="3.85727">
        <ele>271.71</ele>
        <time>2021-08-13T08:50:12Z</time>
      </trkpt>
      <trkpt lat="46.64968" lon="3.85726">
        <ele>271.71</ele>
        <time>2021-08-13T08:50:24Z</time>
      </trkpt>
      <trkpt lat="46.64966" lon="3.85721">
        <ele>271.71</ele>
        <time>2021-08-13T08:50:33Z</time>
      </trkpt>
      <trkpt lat="46.64965" lon="3.85718">
        <ele>272.19</ele>
        <time>2021-08-13T08:50:41Z</time>
      </trkpt>
      <trkpt lat="46.64966" lon="3.85715">
        <ele>272.19</ele>
        <time>2021-08-13T08:50:48Z</time>
      </trkpt>
      <trkpt lat="46.64966" lon="3.85713">
        <ele>272.19</ele>
        <time>2021-08-13T08:50:55Z</time>
      </trkpt>
      <trkpt lat="46.64965" lon="3.85709">
        <ele>272.19</ele>
        <time>2021-08-13T08:51:05Z</time>
      </trkpt>
      <trkpt lat="46.64961" lon="3.85705">
        <ele>272.19</ele>
        <time>2021-08-13T08:51:13Z</time>
      </trkpt>
      <trkpt lat="46.6496" lon="3.85704">
        <ele>273.63</ele>
        <time>2021-08-13T08:51:15Z</time>
      </trkpt>
      <trkpt lat="46.6496" lon="3.85702">
        <ele>273.63</ele>
        <time>2021-08-13T08:51:17Z</time>
      </trkpt>
      <trkpt lat="46.64956" lon="3.85698">
        <ele>274.59</ele>
        <time>2021-08-13T08:51:24Z</time>
      </trkpt>
      <trkpt lat="46.64954" lon="3.85691">
        <ele>275.07</ele>
        <time>2021-08-13T08:51:30Z</time>
      </trkpt>
      <trkpt lat="46.6495" lon="3.85683">
        <ele>275.56</ele>
        <time>2021-08-13T08:51:38Z</time>
      </trkpt>
      <trkpt lat="46.64949" lon="3.85679">
        <ele>276.52</ele>
        <time>2021-08-13T08:51:41Z</time>
      </trkpt>
      <trkpt lat="46.64947" lon="3.85669">
        <ele>277</ele>
        <time>2021-08-13T08:51:49Z</time>
      </trkpt>
      <trkpt lat="46.64944" lon="3.85658">
        <ele>277.48</ele>
        <time>2021-08-13T08:51:58Z</time>
      </trkpt>
      <trkpt lat="46.64941" lon="3.85653">
        <ele>277.96</ele>
        <time>2021-08-13T08:52:05Z</time>
      </trkpt>
      <trkpt lat="46.64938" lon="3.85646">
        <ele>278.92</ele>
        <time>2021-08-13T08:52:12Z</time>
      </trkpt>
      <trkpt lat="46.64934" lon="3.85636">
        <ele>279.88</ele>
        <time>2021-08-13T08:52:20Z</time>
      </trkpt>
      <trkpt lat="46.64931" lon="3.85627">
        <ele>280.36</ele>
        <time>2021-08-13T08:52:29Z</time>
      </trkpt>
      <trkpt lat="46.64929" lon="3.8562">
        <ele>281.32</ele>
        <time>2021-08-13T08:52:35Z</time>
      </trkpt>
      <trkpt lat="46.64926" lon="3.8561">
        <ele>282.28</ele>
        <time>2021-08-13T08:52:45Z</time>
      </trkpt>
      <trkpt lat="46.64925" lon="3.85602">
        <ele>282.77</ele>
        <time>2021-08-13T08:52:51Z</time>
      </trkpt>
      <trkpt lat="46.64922" lon="3.85593">
        <ele>283.73</ele>
        <time>2021-08-13T08:52:58Z</time>
      </trkpt>
      <trkpt lat="46.6492" lon="3.85583">
        <ele>284.69</ele>
        <time>2021-08-13T08:53:05Z</time>
      </trkpt>
      <trkpt lat="46.64919" lon="3.85571">
        <ele>285.65</ele>
        <time>2021-08-13T08:53:13Z</time>
      </trkpt>
      <trkpt lat="46.64918" lon="3.85562">
        <ele>286.13</ele>
        <time>2021-08-13T08:53:20Z</time>
      </trkpt>
      <trkpt lat="46.64918" lon="3.85548">
        <ele>287.57</ele>
        <time>2021-08-13T08:53:29Z</time>
      </trkpt>
      <trkpt lat="46.6492" lon="3.85539">
        <ele>289.01</ele>
        <time>2021-08-13T08:53:37Z</time>
      </trkpt>
      <trkpt lat="46.64923" lon="3.85536">
        <ele>289.97</ele>
        <time>2021-08-13T08:53:45Z</time>
      </trkpt>
      <trkpt lat="46.64926" lon="3.85537">
        <ele>290.46</ele>
        <time>2021-08-13T08:53:50Z</time>
      </trkpt>
      <trkpt lat="46.64934" lon="3.85534">
        <ele>291.9</ele>
        <time>2021-08-13T08:53:59Z</time>
      </trkpt>
      <trkpt lat="46.64938" lon="3.8554">
        <ele>292.38</ele>
        <time>2021-08-13T08:54:06Z</time>
      </trkpt>
      <trkpt lat="46.64941" lon="3.85547">
        <ele>293.34</ele>
        <time>2021-08-13T08:54:13Z</time>
      </trkpt>
      <trkpt lat="46.64943" lon="3.85551">
        <ele>294.3</ele>
        <time>2021-08-13T08:54:19Z</time>
      </trkpt>
      <trkpt lat="46.64949" lon="3.85557">
        <ele>295.26</ele>
        <time>2021-08-13T08:54:28Z</time>
      </trkpt>
      <trkpt lat="46.64957" lon="3.85562">
        <ele>297.18</ele>
        <time>2021-08-13T08:54:37Z</time>
      </trkpt>
      <trkpt lat="46.64964" lon="3.85561">
        <ele>297.67</ele>
        <time>2021-08-13T08:54:44Z</time>
      </trkpt>
      <trkpt lat="46.64969" lon="3.85557">
        <ele>298.63</ele>
        <time>2021-08-13T08:54:50Z</time>
      </trkpt>
      <trkpt lat="46.64977" lon="3.85555">
        <ele>299.59</ele>
        <time>2021-08-13T08:54:58Z</time>
      </trkpt>
      <trkpt lat="46.64981" lon="3.85553">
        <ele>299.59</ele>
        <time>2021-08-13T08:55:02Z</time>
      </trkpt>
      <trkpt lat="46.64982" lon="3.85553">
        <ele>299.59</ele>
        <time>2021-08-13T08:55:03Z</time>
      </trkpt>
      <trkpt lat="46.64984" lon="3.85552">
        <ele>300.07</ele>
        <time>2021-08-13T08:55:04Z</time>
      </trkpt>
      <trkpt lat="46.6499" lon="3.85552">
        <ele>301.51</ele>
        <time>2021-08-13T08:55:12Z</time>
      </trkpt>
      <trkpt lat="46.64992" lon="3.85547">
        <ele>301.51</ele>
        <time>2021-08-13T08:55:17Z</time>
      </trkpt>
      <trkpt lat="46.64994" lon="3.85539">
        <ele>302.47</ele>
        <time>2021-08-13T08:55:25Z</time>
      </trkpt>
      <trkpt lat="46.64992" lon="3.85529">
        <ele>302.95</ele>
        <time>2021-08-13T08:55:31Z</time>
      </trkpt>
      <trkpt lat="46.64991" lon="3.85525">
        <ele>303.43</ele>
        <time>2021-08-13T08:55:33Z</time>
      </trkpt>
      <trkpt lat="46.64988" lon="3.85522">
        <ele>303.91</ele>
        <time>2021-08-13T08:55:35Z</time>
      </trkpt>
      <trkpt lat="46.64988" lon="3.85519">
        <ele>303.91</ele>
        <time>2021-08-13T08:55:36Z</time>
      </trkpt>
      <trkpt lat="46.64983" lon="3.85499">
        <ele>305.84</ele>
        <time>2021-08-13T08:55:43Z</time>
      </trkpt>
      <trkpt lat="46.64981" lon="3.85486">
        <ele>305.84</ele>
        <time>2021-08-13T08:55:48Z</time>
      </trkpt>
      <trkpt lat="46.64981" lon="3.85484">
        <ele>306.32</ele>
        <time>2021-08-13T08:55:49Z</time>
      </trkpt>
      <trkpt lat="46.64981" lon="3.85481">
        <ele>306.32</ele>
        <time>2021-08-13T08:55:50Z</time>
      </trkpt>
      <trkpt lat="46.6498" lon="3.85478">
        <ele>306.8</ele>
        <time>2021-08-13T08:55:51Z</time>
      </trkpt>
      <trkpt lat="46.6498" lon="3.85476">
        <ele>306.8</ele>
        <time>2021-08-13T08:55:52Z</time>
      </trkpt>
      <trkpt lat="46.6498" lon="3.85473">
        <ele>307.28</ele>
        <time>2021-08-13T08:55:53Z</time>
      </trkpt>
      <trkpt lat="46.64978" lon="3.85465">
        <ele>307.28</ele>
        <time>2021-08-13T08:55:56Z</time>
      </trkpt>
      <trkpt lat="46.64978" lon="3.85463">
        <ele>307.76</ele>
        <time>2021-08-13T08:55:57Z</time>
      </trkpt>
      <trkpt lat="46.64977" lon="3.8546">
        <ele>307.76</ele>
        <time>2021-08-13T08:55:58Z</time>
      </trkpt>
      <trkpt lat="46.64977" lon="3.85458">
        <ele>307.76</ele>
        <time>2021-08-13T08:55:59Z</time>
      </trkpt>
      <trkpt lat="46.64977" lon="3.85455">
        <ele>308.72</ele>
        <time>2021-08-13T08:56:00Z</time>
      </trkpt>
      <trkpt lat="46.64976" lon="3.85438">
        <ele>309.2</ele>
        <time>2021-08-13T08:56:06Z</time>
      </trkpt>
      <trkpt lat="46.64973" lon="3.8542">
        <ele>309.68</ele>
        <time>2021-08-13T08:56:13Z</time>
      </trkpt>
      <trkpt lat="46.64973" lon="3.85394">
        <ele>311.12</ele>
        <time>2021-08-13T08:56:23Z</time>
      </trkpt>
      <trkpt lat="46.64972" lon="3.85375">
        <ele>312.57</ele>
        <time>2021-08-13T08:56:30Z</time>
      </trkpt>
      <trkpt lat="46.64971" lon="3.85367">
        <ele>313.05</ele>
        <time>2021-08-13T08:56:35Z</time>
      </trkpt>
      <trkpt lat="46.64966" lon="3.85352">
        <ele>314.49</ele>
        <time>2021-08-13T08:56:46Z</time>
      </trkpt>
      <trkpt lat="46.6496" lon="3.85337">
        <ele>316.41</ele>
        <time>2021-08-13T08:56:59Z</time>
      </trkpt>
      <trkpt lat="46.64957" lon="3.85327">
        <ele>317.37</ele>
        <time>2021-08-13T08:57:09Z</time>
      </trkpt>
      <trkpt lat="46.64954" lon="3.85319">
        <ele>318.33</ele>
        <time>2021-08-13T08:57:16Z</time>
      </trkpt>
      <trkpt lat="46.6495" lon="3.85306">
        <ele>320.26</ele>
        <time>2021-08-13T08:57:27Z</time>
      </trkpt>
      <trkpt lat="46.64947" lon="3.85297">
        <ele>321.22</ele>
        <time>2021-08-13T08:57:35Z</time>
      </trkpt>
      <trkpt lat="46.64944" lon="3.85291">
        <ele>322.66</ele>
        <time>2021-08-13T08:57:42Z</time>
      </trkpt>
      <trkpt lat="46.64943" lon="3.85288">
        <ele>322.66</ele>
        <time>2021-08-13T08:57:44Z</time>
      </trkpt>
      <trkpt lat="46.6494" lon="3.85283">
        <ele>323.62</ele>
        <time>2021-08-13T08:57:50Z</time>
      </trkpt>
      <trkpt lat="46.64937" lon="3.85272">
        <ele>324.58</ele>
        <time>2021-08-13T08:57:59Z</time>
      </trkpt>
      <trkpt lat="46.64932" lon="3.85263">
        <ele>325.54</ele>
        <time>2021-08-13T08:58:09Z</time>
      </trkpt>
      <trkpt lat="46.64931" lon="3.85256">
        <ele>326.02</ele>
        <time>2021-08-13T08:58:14Z</time>
      </trkpt>
      <trkpt lat="46.6493" lon="3.85246">
        <ele>326.99</ele>
        <time>2021-08-13T08:58:21Z</time>
      </trkpt>
      <trkpt lat="46.6493" lon="3.85245">
        <ele>326.99</ele>
        <time>2021-08-13T08:58:22Z</time>
      </trkpt>
      <trkpt lat="46.6493" lon="3.85235">
        <ele>328.43</ele>
        <time>2021-08-13T08:58:29Z</time>
      </trkpt>
      <trkpt lat="46.64929" lon="3.85221">
        <ele>329.39</ele>
        <time>2021-08-13T08:58:39Z</time>
      </trkpt>
      <trkpt lat="46.64929" lon="3.85205">
        <ele>330.83</ele>
        <time>2021-08-13T08:58:49Z</time>
      </trkpt>
      <trkpt lat="46.64929" lon="3.85204">
        <ele>331.31</ele>
        <time>2021-08-13T08:58:50Z</time>
      </trkpt>
      <trkpt lat="46.6493" lon="3.85202">
        <ele>331.31</ele>
        <time>2021-08-13T08:58:51Z</time>
      </trkpt>
      <trkpt lat="46.64932" lon="3.85192">
        <ele>331.79</ele>
        <time>2021-08-13T08:58:58Z</time>
      </trkpt>
      <trkpt lat="46.64932" lon="3.8519">
        <ele>332.27</ele>
        <time>2021-08-13T08:59:06Z</time>
      </trkpt>
      <trkpt lat="46.64933" lon="3.85185">
        <ele>332.27</ele>
        <time>2021-08-13T08:59:11Z</time>
      </trkpt>
      <trkpt lat="46.64937" lon="3.85173">
        <ele>333.23</ele>
        <time>2021-08-13T08:59:20Z</time>
      </trkpt>
      <trkpt lat="46.64939" lon="3.85171">
        <ele>333.71</ele>
        <time>2021-08-13T08:59:22Z</time>
      </trkpt>
      <trkpt lat="46.6494" lon="3.85169">
        <ele>333.71</ele>
        <time>2021-08-13T08:59:23Z</time>
      </trkpt>
      <trkpt lat="46.64941" lon="3.85168">
        <ele>334.2</ele>
        <time>2021-08-13T08:59:24Z</time>
      </trkpt>
      <trkpt lat="46.64947" lon="3.85155">
        <ele>334.68</ele>
        <time>2021-08-13T08:59:33Z</time>
      </trkpt>
      <trkpt lat="46.64949" lon="3.85148">
        <ele>335.64</ele>
        <time>2021-08-13T08:59:39Z</time>
      </trkpt>
      <trkpt lat="46.6495" lon="3.85147">
        <ele>335.64</ele>
        <time>2021-08-13T08:59:40Z</time>
      </trkpt>
      <trkpt lat="46.64951" lon="3.85146">
        <ele>335.64</ele>
        <time>2021-08-13T08:59:41Z</time>
      </trkpt>
      <trkpt lat="46.64952" lon="3.85144">
        <ele>335.64</ele>
        <time>2021-08-13T08:59:42Z</time>
      </trkpt>
      <trkpt lat="46.64953" lon="3.85143">
        <ele>335.64</ele>
        <time>2021-08-13T08:59:43Z</time>
      </trkpt>
      <trkpt lat="46.64954" lon="3.85142">
        <ele>335.64</ele>
        <time>2021-08-13T08:59:44Z</time>
      </trkpt>
      <trkpt lat="46.64956" lon="3.8514">
        <ele>335.64</ele>
        <time>2021-08-13T08:59:45Z</time>
      </trkpt>
      <trkpt lat="46.64958" lon="3.85139">
        <ele>335.64</ele>
        <time>2021-08-13T08:59:46Z</time>
      </trkpt>
      <trkpt lat="46.64959" lon="3.85138">
        <ele>335.64</ele>
        <time>2021-08-13T08:59:47Z</time>
      </trkpt>
      <trkpt lat="46.64961" lon="3.85137">
        <ele>335.64</ele>
        <time>2021-08-13T08:59:48Z</time>
      </trkpt>
      <trkpt lat="46.64963" lon="3.85136">
        <ele>335.64</ele>
        <time>2021-08-13T08:59:49Z</time>
      </trkpt>
      <trkpt lat="46.64965" lon="3.85135">
        <ele>335.64</ele>
        <time>2021-08-13T08:59:50Z</time>
      </trkpt>
      <trkpt lat="46.64966" lon="3.85133">
        <ele>335.64</ele>
        <time>2021-08-13T08:59:51Z</time>
      </trkpt>
      <trkpt lat="46.64968" lon="3.85132">
        <ele>335.64</ele>
        <time>2021-08-13T08:59:52Z</time>
      </trkpt>
      <trkpt lat="46.6497" lon="3.85129">
        <ele>335.64</ele>
        <time>2021-08-13T08:59:53Z</time>
      </trkpt>
      <trkpt lat="46.64983" lon="3.85115">
        <ele>335.64</ele>
        <time>2021-08-13T08:59:59Z</time>
      </trkpt>
      <trkpt lat="46.64996" lon="3.85109">
        <ele>335.64</ele>
        <time>2021-08-13T09:00:05Z</time>
      </trkpt>
      <trkpt lat="46.65001" lon="3.85105">
        <ele>334.2</ele>
        <time>2021-08-13T09:00:07Z</time>
      </trkpt>
      <trkpt lat="46.65018" lon="3.85099">
        <ele>333.71</ele>
        <time>2021-08-13T09:00:13Z</time>
      </trkpt>
      <trkpt lat="46.65033" lon="3.85097">
        <ele>333.71</ele>
        <time>2021-08-13T09:00:19Z</time>
      </trkpt>
      <trkpt lat="46.65045" lon="3.85095">
        <ele>335.16</ele>
        <time>2021-08-13T09:00:24Z</time>
      </trkpt>
      <trkpt lat="46.6506" lon="3.85091">
        <ele>335.64</ele>
        <time>2021-08-13T09:00:30Z</time>
      </trkpt>
      <trkpt lat="46.6508" lon="3.85085">
        <ele>335.64</ele>
        <time>2021-08-13T09:00:36Z</time>
      </trkpt>
      <trkpt lat="46.65097" lon="3.85076">
        <ele>337.08</ele>
        <time>2021-08-13T09:00:43Z</time>
      </trkpt>
      <trkpt lat="46.65109" lon="3.85064">
        <ele>338.04</ele>
        <time>2021-08-13T09:00:51Z</time>
      </trkpt>
      <trkpt lat="46.65119" lon="3.85052">
        <ele>338.52</ele>
        <time>2021-08-13T09:00:57Z</time>
      </trkpt>
      <trkpt lat="46.65137" lon="3.85032">
        <ele>338.52</ele>
        <time>2021-08-13T09:01:04Z</time>
      </trkpt>
      <trkpt lat="46.65153" lon="3.85018">
        <ele>338.52</ele>
        <time>2021-08-13T09:01:11Z</time>
      </trkpt>
      <trkpt lat="46.65167" lon="3.84997">
        <ele>337.08</ele>
        <time>2021-08-13T09:01:18Z</time>
      </trkpt>
      <trkpt lat="46.65169" lon="3.84994">
        <ele>337.08</ele>
        <time>2021-08-13T09:01:19Z</time>
      </trkpt>
      <trkpt lat="46.65182" lon="3.84975">
        <ele>336.6</ele>
        <time>2021-08-13T09:01:24Z</time>
      </trkpt>
      <trkpt lat="46.65201" lon="3.84953">
        <ele>336.6</ele>
        <time>2021-08-13T09:01:31Z</time>
      </trkpt>
      <trkpt lat="46.65217" lon="3.84938">
        <ele>336.6</ele>
        <time>2021-08-13T09:01:36Z</time>
      </trkpt>
      <trkpt lat="46.6523" lon="3.84929">
        <ele>336.6</ele>
        <time>2021-08-13T09:01:42Z</time>
      </trkpt>
      <trkpt lat="46.65237" lon="3.84924">
        <ele>338.04</ele>
        <time>2021-08-13T09:01:45Z</time>
      </trkpt>
      <trkpt lat="46.65255" lon="3.84917">
        <ele>340.44</ele>
        <time>2021-08-13T09:01:52Z</time>
      </trkpt>
      <trkpt lat="46.6527" lon="3.84911">
        <ele>341.89</ele>
        <time>2021-08-13T09:01:59Z</time>
      </trkpt>
      <trkpt lat="46.65282" lon="3.84902">
        <ele>342.37</ele>
        <time>2021-08-13T09:02:06Z</time>
      </trkpt>
      <trkpt lat="46.65296" lon="3.84893">
        <ele>343.33</ele>
        <time>2021-08-13T09:02:14Z</time>
      </trkpt>
      <trkpt lat="46.65313" lon="3.84878">
        <ele>343.33</ele>
        <time>2021-08-13T09:02:22Z</time>
      </trkpt>
      <trkpt lat="46.65344" lon="3.84863">
        <ele>341.89</ele>
        <time>2021-08-13T09:02:30Z</time>
      </trkpt>
      <trkpt lat="46.65348" lon="3.8486">
        <ele>341.41</ele>
        <time>2021-08-13T09:02:31Z</time>
      </trkpt>
      <trkpt lat="46.65353" lon="3.84856">
        <ele>340.44</ele>
        <time>2021-08-13T09:02:32Z</time>
      </trkpt>
      <trkpt lat="46.65356" lon="3.84852">
        <ele>340.44</ele>
        <time>2021-08-13T09:02:33Z</time>
      </trkpt>
      <trkpt lat="46.65358" lon="3.8485">
        <ele>340.44</ele>
        <time>2021-08-13T09:02:34Z</time>
      </trkpt>
      <trkpt lat="46.6536" lon="3.84849">
        <ele>340.44</ele>
        <time>2021-08-13T09:02:35Z</time>
      </trkpt>
      <trkpt lat="46.65361" lon="3.84844">
        <ele>340.44</ele>
        <time>2021-08-13T09:02:39Z</time>
      </trkpt>
      <trkpt lat="46.65361" lon="3.84842">
        <ele>340.44</ele>
        <time>2021-08-13T09:02:40Z</time>
      </trkpt>
      <trkpt lat="46.65361" lon="3.8484">
        <ele>340.44</ele>
        <time>2021-08-13T09:02:41Z</time>
      </trkpt>
      <trkpt lat="46.65362" lon="3.84838">
        <ele>341.89</ele>
        <time>2021-08-13T09:02:42Z</time>
      </trkpt>
      <trkpt lat="46.65361" lon="3.84836">
        <ele>342.37</ele>
        <time>2021-08-13T09:02:43Z</time>
      </trkpt>
      <trkpt lat="46.65361" lon="3.84833">
        <ele>342.85</ele>
        <time>2021-08-13T09:02:44Z</time>
      </trkpt>
      <trkpt lat="46.6536" lon="3.84831">
        <ele>342.85</ele>
        <time>2021-08-13T09:02:45Z</time>
      </trkpt>
      <trkpt lat="46.6536" lon="3.84826">
        <ele>343.33</ele>
        <time>2021-08-13T09:02:51Z</time>
      </trkpt>
      <trkpt lat="46.65358" lon="3.84815">
        <ele>344.77</ele>
        <time>2021-08-13T09:03:01Z</time>
      </trkpt>
      <trkpt lat="46.65356" lon="3.84807">
        <ele>345.73</ele>
        <time>2021-08-13T09:03:10Z</time>
      </trkpt>
      <trkpt lat="46.65353" lon="3.84796">
        <ele>347.17</ele>
        <time>2021-08-13T09:03:21Z</time>
      </trkpt>
      <trkpt lat="46.65351" lon="3.84794">
        <ele>347.65</ele>
        <time>2021-08-13T09:03:30Z</time>
      </trkpt>
      <trkpt lat="46.65349" lon="3.84789">
        <ele>348.62</ele>
        <time>2021-08-13T09:03:40Z</time>
      </trkpt>
      <trkpt lat="46.65347" lon="3.84782">
        <ele>349.58</ele>
        <time>2021-08-13T09:03:47Z</time>
      </trkpt>
      <trkpt lat="46.65343" lon="3.84772">
        <ele>351.02</ele>
        <time>2021-08-13T09:03:58Z</time>
      </trkpt>
      <trkpt lat="46.65339" lon="3.84766">
        <ele>352.46</ele>
        <time>2021-08-13T09:04:05Z</time>
      </trkpt>
      <trkpt lat="46.65335" lon="3.84756">
        <ele>353.9</ele>
        <time>2021-08-13T09:04:15Z</time>
      </trkpt>
      <trkpt lat="46.6533" lon="3.84748">
        <ele>354.86</ele>
        <time>2021-08-13T09:04:24Z</time>
      </trkpt>
      <trkpt lat="46.65324" lon="3.84739">
        <ele>355.83</ele>
        <time>2021-08-13T09:04:32Z</time>
      </trkpt>
      <trkpt lat="46.65322" lon="3.84737">
        <ele>355.83</ele>
        <time>2021-08-13T09:04:34Z</time>
      </trkpt>
      <trkpt lat="46.65321" lon="3.84735">
        <ele>355.83</ele>
        <time>2021-08-13T09:04:35Z</time>
      </trkpt>
      <trkpt lat="46.6532" lon="3.84734">
        <ele>356.31</ele>
        <time>2021-08-13T09:04:36Z</time>
      </trkpt>
      <trkpt lat="46.65312" lon="3.84725">
        <ele>357.27</ele>
        <time>2021-08-13T09:04:46Z</time>
      </trkpt>
      <trkpt lat="46.65309" lon="3.8472">
        <ele>357.75</ele>
        <time>2021-08-13T09:04:54Z</time>
      </trkpt>
      <trkpt lat="46.65299" lon="3.84709">
        <ele>358.23</ele>
        <time>2021-08-13T09:05:01Z</time>
      </trkpt>
      <trkpt lat="46.65286" lon="3.84697">
        <ele>359.19</ele>
        <time>2021-08-13T09:05:09Z</time>
      </trkpt>
      <trkpt lat="46.65269" lon="3.84682">
        <ele>360.15</ele>
        <time>2021-08-13T09:05:18Z</time>
      </trkpt>
      <trkpt lat="46.65269" lon="3.8468">
        <ele>360.15</ele>
        <time>2021-08-13T09:05:19Z</time>
      </trkpt>
      <trkpt lat="46.65269" lon="3.84674">
        <ele>360.63</ele>
        <time>2021-08-13T09:05:21Z</time>
      </trkpt>
      <trkpt lat="46.65267" lon="3.84665">
        <ele>360.63</ele>
        <time>2021-08-13T09:05:25Z</time>
      </trkpt>
      <trkpt lat="46.65267" lon="3.84663">
        <ele>360.63</ele>
        <time>2021-08-13T09:05:26Z</time>
      </trkpt>
      <trkpt lat="46.65267" lon="3.84661">
        <ele>360.63</ele>
        <time>2021-08-13T09:05:27Z</time>
      </trkpt>
      <trkpt lat="46.65267" lon="3.8466">
        <ele>360.63</ele>
        <time>2021-08-13T09:05:28Z</time>
      </trkpt>
      <trkpt lat="46.65265" lon="3.8466">
        <ele>360.63</ele>
        <time>2021-08-13T09:05:34Z</time>
      </trkpt>
      <trkpt lat="46.65263" lon="3.84662">
        <ele>360.63</ele>
        <time>2021-08-13T09:05:38Z</time>
      </trkpt>
      <trkpt lat="46.65261" lon="3.84663">
        <ele>360.63</ele>
        <time>2021-08-13T09:05:40Z</time>
      </trkpt>
      <trkpt lat="46.65254" lon="3.84659">
        <ele>361.59</ele>
        <time>2021-08-13T09:05:47Z</time>
      </trkpt>
      <trkpt lat="46.65248" lon="3.84654">
        <ele>362.55</ele>
        <time>2021-08-13T09:05:54Z</time>
      </trkpt>
      <trkpt lat="46.65239" lon="3.84645">
        <ele>364</ele>
        <time>2021-08-13T09:06:02Z</time>
      </trkpt>
      <trkpt lat="46.65234" lon="3.8464">
        <ele>365.44</ele>
        <time>2021-08-13T09:06:06Z</time>
      </trkpt>
      <trkpt lat="46.6523" lon="3.8463">
        <ele>366.4</ele>
        <time>2021-08-13T09:06:12Z</time>
      </trkpt>
      <trkpt lat="46.65229" lon="3.84622">
        <ele>367.36</ele>
        <time>2021-08-13T09:06:16Z</time>
      </trkpt>
      <trkpt lat="46.65228" lon="3.8462">
        <ele>367.36</ele>
        <time>2021-08-13T09:06:17Z</time>
      </trkpt>
      <trkpt lat="46.65228" lon="3.84618">
        <ele>367.36</ele>
        <time>2021-08-13T09:06:18Z</time>
      </trkpt>
      <trkpt lat="46.65227" lon="3.84616">
        <ele>367.36</ele>
        <time>2021-08-13T09:06:19Z</time>
      </trkpt>
      <trkpt lat="46.65226" lon="3.84615">
        <ele>367.84</ele>
        <time>2021-08-13T09:06:20Z</time>
      </trkpt>
      <trkpt lat="46.65222" lon="3.84601">
        <ele>368.8</ele>
        <time>2021-08-13T09:06:27Z</time>
      </trkpt>
      <trkpt lat="46.65219" lon="3.84584">
        <ele>369.76</ele>
        <time>2021-08-13T09:06:35Z</time>
      </trkpt>
      <trkpt lat="46.65219" lon="3.84562">
        <ele>371.69</ele>
        <time>2021-08-13T09:06:44Z</time>
      </trkpt>
      <trkpt lat="46.65219" lon="3.84555">
        <ele>372.17</ele>
        <time>2021-08-13T09:06:47Z</time>
      </trkpt>
      <trkpt lat="46.65218" lon="3.84549">
        <ele>372.65</ele>
        <time>2021-08-13T09:06:49Z</time>
      </trkpt>
      <trkpt lat="46.65218" lon="3.84545">
        <ele>373.13</ele>
        <time>2021-08-13T09:06:51Z</time>
      </trkpt>
      <trkpt lat="46.65218" lon="3.84543">
        <ele>373.13</ele>
        <time>2021-08-13T09:06:52Z</time>
      </trkpt>
      <trkpt lat="46.65217" lon="3.84523">
        <ele>373.61</ele>
        <time>2021-08-13T09:07:01Z</time>
      </trkpt>
      <trkpt lat="46.65218" lon="3.84518">
        <ele>374.09</ele>
        <time>2021-08-13T09:07:03Z</time>
      </trkpt>
      <trkpt lat="46.65218" lon="3.84516">
        <ele>374.09</ele>
        <time>2021-08-13T09:07:04Z</time>
      </trkpt>
      <trkpt lat="46.65218" lon="3.84513">
        <ele>374.09</ele>
        <time>2021-08-13T09:07:05Z</time>
      </trkpt>
      <trkpt lat="46.65218" lon="3.84511">
        <ele>374.09</ele>
        <time>2021-08-13T09:07:06Z</time>
      </trkpt>
      <trkpt lat="46.65218" lon="3.84508">
        <ele>374.09</ele>
        <time>2021-08-13T09:07:07Z</time>
      </trkpt>
      <trkpt lat="46.65221" lon="3.84492">
        <ele>375.05</ele>
        <time>2021-08-13T09:07:14Z</time>
      </trkpt>
      <trkpt lat="46.65222" lon="3.84487">
        <ele>375.05</ele>
        <time>2021-08-13T09:07:16Z</time>
      </trkpt>
      <trkpt lat="46.65224" lon="3.84485">
        <ele>375.05</ele>
        <time>2021-08-13T09:07:17Z</time>
      </trkpt>
      <trkpt lat="46.65224" lon="3.84483">
        <ele>375.53</ele>
        <time>2021-08-13T09:07:18Z</time>
      </trkpt>
      <trkpt lat="46.65225" lon="3.84481">
        <ele>375.53</ele>
        <time>2021-08-13T09:07:19Z</time>
      </trkpt>
      <trkpt lat="46.65225" lon="3.84479">
        <ele>375.53</ele>
        <time>2021-08-13T09:07:20Z</time>
      </trkpt>
      <trkpt lat="46.65226" lon="3.84477">
        <ele>375.53</ele>
        <time>2021-08-13T09:07:21Z</time>
      </trkpt>
      <trkpt lat="46.65226" lon="3.84475">
        <ele>375.53</ele>
        <time>2021-08-13T09:07:22Z</time>
      </trkpt>
      <trkpt lat="46.65225" lon="3.84472">
        <ele>375.53</ele>
        <time>2021-08-13T09:07:23Z</time>
      </trkpt>
      <trkpt lat="46.65225" lon="3.8447">
        <ele>376.01</ele>
        <time>2021-08-13T09:07:24Z</time>
      </trkpt>
      <trkpt lat="46.65225" lon="3.84468">
        <ele>376.01</ele>
        <time>2021-08-13T09:07:25Z</time>
      </trkpt>
      <trkpt lat="46.65227" lon="3.84452">
        <ele>376.49</ele>
        <time>2021-08-13T09:07:32Z</time>
      </trkpt>
      <trkpt lat="46.65227" lon="3.84449">
        <ele>376.97</ele>
        <time>2021-08-13T09:07:33Z</time>
      </trkpt>
      <trkpt lat="46.65226" lon="3.84446">
        <ele>376.97</ele>
        <time>2021-08-13T09:07:34Z</time>
      </trkpt>
      <trkpt lat="46.65226" lon="3.84443">
        <ele>376.97</ele>
        <time>2021-08-13T09:07:35Z</time>
      </trkpt>
      <trkpt lat="46.65226" lon="3.84441">
        <ele>376.97</ele>
        <time>2021-08-13T09:07:36Z</time>
      </trkpt>
      <trkpt lat="46.65225" lon="3.84438">
        <ele>376.97</ele>
        <time>2021-08-13T09:07:37Z</time>
      </trkpt>
      <trkpt lat="46.65225" lon="3.84434">
        <ele>376.97</ele>
        <time>2021-08-13T09:07:38Z</time>
      </trkpt>
      <trkpt lat="46.65224" lon="3.84405">
        <ele>377.94</ele>
        <time>2021-08-13T09:07:47Z</time>
      </trkpt>
      <trkpt lat="46.65223" lon="3.84385">
        <ele>378.9</ele>
        <time>2021-08-13T09:07:54Z</time>
      </trkpt>
      <trkpt lat="46.65222" lon="3.84366">
        <ele>379.86</ele>
        <time>2021-08-13T09:08:00Z</time>
      </trkpt>
      <trkpt lat="46.65222" lon="3.84362">
        <ele>380.82</ele>
        <time>2021-08-13T09:08:01Z</time>
      </trkpt>
      <trkpt lat="46.65221" lon="3.84353">
        <ele>381.3</ele>
        <time>2021-08-13T09:08:04Z</time>
      </trkpt>
      <trkpt lat="46.65222" lon="3.8435">
        <ele>381.3</ele>
        <time>2021-08-13T09:08:05Z</time>
      </trkpt>
      <trkpt lat="46.65222" lon="3.84346">
        <ele>381.78</ele>
        <time>2021-08-13T09:08:06Z</time>
      </trkpt>
      <trkpt lat="46.65222" lon="3.84343">
        <ele>382.26</ele>
        <time>2021-08-13T09:08:07Z</time>
      </trkpt>
      <trkpt lat="46.65222" lon="3.84341">
        <ele>382.26</ele>
        <time>2021-08-13T09:08:08Z</time>
      </trkpt>
      <trkpt lat="46.65222" lon="3.84338">
        <ele>382.74</ele>
        <time>2021-08-13T09:08:09Z</time>
      </trkpt>
      <trkpt lat="46.65222" lon="3.84336">
        <ele>382.74</ele>
        <time>2021-08-13T09:08:10Z</time>
      </trkpt>
      <trkpt lat="46.65221" lon="3.84324">
        <ele>383.7</ele>
        <time>2021-08-13T09:08:15Z</time>
      </trkpt>
      <trkpt lat="46.6522" lon="3.8431">
        <ele>384.66</ele>
        <time>2021-08-13T09:08:21Z</time>
      </trkpt>
      <trkpt lat="46.65216" lon="3.84293">
        <ele>385.63</ele>
        <time>2021-08-13T09:08:28Z</time>
      </trkpt>
      <trkpt lat="46.65215" lon="3.84288">
        <ele>385.63</ele>
        <time>2021-08-13T09:08:30Z</time>
      </trkpt>
      <trkpt lat="46.65215" lon="3.84285">
        <ele>386.11</ele>
        <time>2021-08-13T09:08:31Z</time>
      </trkpt>
      <trkpt lat="46.65215" lon="3.84281">
        <ele>386.11</ele>
        <time>2021-08-13T09:08:32Z</time>
      </trkpt>
      <trkpt lat="46.65215" lon="3.84278">
        <ele>386.11</ele>
        <time>2021-08-13T09:08:33Z</time>
      </trkpt>
      <trkpt lat="46.65214" lon="3.84274">
        <ele>386.59</ele>
        <time>2021-08-13T09:08:34Z</time>
      </trkpt>
      <trkpt lat="46.65214" lon="3.84271">
        <ele>386.59</ele>
        <time>2021-08-13T09:08:35Z</time>
      </trkpt>
      <trkpt lat="46.65214" lon="3.84269">
        <ele>386.59</ele>
        <time>2021-08-13T09:08:36Z</time>
      </trkpt>
      <trkpt lat="46.65213" lon="3.84266">
        <ele>386.59</ele>
        <time>2021-08-13T09:08:37Z</time>
      </trkpt>
      <trkpt lat="46.65212" lon="3.84263">
        <ele>386.59</ele>
        <time>2021-08-13T09:08:38Z</time>
      </trkpt>
      <trkpt lat="46.65211" lon="3.84259">
        <ele>386.59</ele>
        <time>2021-08-13T09:08:39Z</time>
      </trkpt>
      <trkpt lat="46.65211" lon="3.84256">
        <ele>386.59</ele>
        <time>2021-08-13T09:08:40Z</time>
      </trkpt>
      <trkpt lat="46.6521" lon="3.84251">
        <ele>387.07</ele>
        <time>2021-08-13T09:08:42Z</time>
      </trkpt>
      <trkpt lat="46.6521" lon="3.84248">
        <ele>387.07</ele>
        <time>2021-08-13T09:08:43Z</time>
      </trkpt>
      <trkpt lat="46.65207" lon="3.8423">
        <ele>387.55</ele>
        <time>2021-08-13T09:08:49Z</time>
      </trkpt>
      <trkpt lat="46.65205" lon="3.84211">
        <ele>388.51</ele>
        <time>2021-08-13T09:08:57Z</time>
      </trkpt>
      <trkpt lat="46.65202" lon="3.84195">
        <ele>389.95</ele>
        <time>2021-08-13T09:09:05Z</time>
      </trkpt>
      <trkpt lat="46.652" lon="3.8418">
        <ele>390.91</ele>
        <time>2021-08-13T09:09:12Z</time>
      </trkpt>
      <trkpt lat="46.652" lon="3.84165">
        <ele>392.84</ele>
        <time>2021-08-13T09:09:18Z</time>
      </trkpt>
      <trkpt lat="46.65199" lon="3.84151">
        <ele>394.28</ele>
        <time>2021-08-13T09:09:26Z</time>
      </trkpt>
      <trkpt lat="46.65201" lon="3.8413">
        <ele>395.72</ele>
        <time>2021-08-13T09:09:36Z</time>
      </trkpt>
      <trkpt lat="46.652" lon="3.84123">
        <ele>396.2</ele>
        <time>2021-08-13T09:09:39Z</time>
      </trkpt>
      <trkpt lat="46.65198" lon="3.8412">
        <ele>396.2</ele>
        <time>2021-08-13T09:09:42Z</time>
      </trkpt>
      <trkpt lat="46.65196" lon="3.8412">
        <ele>396.68</ele>
        <time>2021-08-13T09:09:43Z</time>
      </trkpt>
      <trkpt lat="46.65195" lon="3.84121">
        <ele>396.68</ele>
        <time>2021-08-13T09:09:44Z</time>
      </trkpt>
      <trkpt lat="46.65194" lon="3.84121">
        <ele>396.68</ele>
        <time>2021-08-13T09:09:45Z</time>
      </trkpt>
      <trkpt lat="46.65186" lon="3.84124">
        <ele>397.64</ele>
        <time>2021-08-13T09:09:53Z</time>
      </trkpt>
      <trkpt lat="46.65179" lon="3.84127">
        <ele>398.12</ele>
        <time>2021-08-13T09:10:00Z</time>
      </trkpt>
      <trkpt lat="46.65167" lon="3.84135">
        <ele>399.57</ele>
        <time>2021-08-13T09:10:08Z</time>
      </trkpt>
      <trkpt lat="46.65157" lon="3.84143">
        <ele>400.05</ele>
        <time>2021-08-13T09:10:15Z</time>
      </trkpt>
      <trkpt lat="46.6515" lon="3.8415">
        <ele>400.53</ele>
        <time>2021-08-13T09:10:21Z</time>
      </trkpt>
      <trkpt lat="46.65141" lon="3.84161">
        <ele>401.97</ele>
        <time>2021-08-13T09:10:27Z</time>
      </trkpt>
      <trkpt lat="46.65133" lon="3.84169">
        <ele>402.93</ele>
        <time>2021-08-13T09:10:32Z</time>
      </trkpt>
      <trkpt lat="46.65116" lon="3.84196">
        <ele>404.85</ele>
        <time>2021-08-13T09:10:42Z</time>
      </trkpt>
      <trkpt lat="46.65108" lon="3.8421">
        <ele>405.81</ele>
        <time>2021-08-13T09:10:49Z</time>
      </trkpt>
      <trkpt lat="46.65099" lon="3.84222">
        <ele>406.77</ele>
        <time>2021-08-13T09:10:55Z</time>
      </trkpt>
      <trkpt lat="46.65097" lon="3.84226">
        <ele>407.26</ele>
        <time>2021-08-13T09:10:57Z</time>
      </trkpt>
      <trkpt lat="46.65096" lon="3.84228">
        <ele>407.26</ele>
        <time>2021-08-13T09:10:58Z</time>
      </trkpt>
      <trkpt lat="46.65086" lon="3.84241">
        <ele>408.7</ele>
        <time>2021-08-13T09:11:05Z</time>
      </trkpt>
      <trkpt lat="46.65078" lon="3.84254">
        <ele>410.14</ele>
        <time>2021-08-13T09:11:12Z</time>
      </trkpt>
      <trkpt lat="46.65072" lon="3.84266">
        <ele>411.1</ele>
        <time>2021-08-13T09:11:18Z</time>
      </trkpt>
      <trkpt lat="46.65064" lon="3.84281">
        <ele>412.06</ele>
        <time>2021-08-13T09:11:25Z</time>
      </trkpt>
      <trkpt lat="46.65058" lon="3.84295">
        <ele>413.5</ele>
        <time>2021-08-13T09:11:31Z</time>
      </trkpt>
      <trkpt lat="46.65048" lon="3.84311">
        <ele>414.47</ele>
        <time>2021-08-13T09:11:38Z</time>
      </trkpt>
      <trkpt lat="46.65039" lon="3.84323">
        <ele>415.43</ele>
        <time>2021-08-13T09:11:45Z</time>
      </trkpt>
      <trkpt lat="46.6503" lon="3.8433">
        <ele>416.39</ele>
        <time>2021-08-13T09:11:51Z</time>
      </trkpt>
      <trkpt lat="46.65021" lon="3.84338">
        <ele>417.83</ele>
        <time>2021-08-13T09:11:57Z</time>
      </trkpt>
      <trkpt lat="46.65011" lon="3.84351">
        <ele>418.79</ele>
        <time>2021-08-13T09:12:04Z</time>
      </trkpt>
      <trkpt lat="46.65005" lon="3.84363">
        <ele>418.79</ele>
        <time>2021-08-13T09:12:10Z</time>
      </trkpt>
      <trkpt lat="46.65003" lon="3.8437">
        <ele>418.79</ele>
        <time>2021-08-13T09:12:15Z</time>
      </trkpt>
      <trkpt lat="46.64996" lon="3.84375">
        <ele>418.79</ele>
        <time>2021-08-13T09:12:22Z</time>
      </trkpt>
      <trkpt lat="46.64995" lon="3.84379">
        <ele>418.79</ele>
        <time>2021-08-13T09:12:34Z</time>
      </trkpt>
      <trkpt lat="46.64987" lon="3.84385">
        <ele>419.27</ele>
        <time>2021-08-13T09:12:48Z</time>
      </trkpt>
      <trkpt lat="46.6498" lon="3.84387">
        <ele>419.27</ele>
        <time>2021-08-13T09:13:05Z</time>
      </trkpt>
      <trkpt lat="46.64978" lon="3.84386">
        <ele>419.27</ele>
        <time>2021-08-13T09:13:19Z</time>
      </trkpt>
      <trkpt lat="46.6498" lon="3.84383">
        <ele>419.75</ele>
        <time>2021-08-13T09:13:30Z</time>
      </trkpt>
      <trkpt lat="46.64978" lon="3.84383">
        <ele>419.75</ele>
        <time>2021-08-13T09:13:50Z</time>
      </trkpt>
      <trkpt lat="46.64977" lon="3.84388">
        <ele>419.75</ele>
        <time>2021-08-13T09:13:53Z</time>
      </trkpt>
      <trkpt lat="46.64971" lon="3.84404">
        <ele>418.31</ele>
        <time>2021-08-13T09:14:00Z</time>
      </trkpt>
      <trkpt lat="46.64965" lon="3.84417">
        <ele>418.79</ele>
        <time>2021-08-13T09:14:06Z</time>
      </trkpt>
      <trkpt lat="46.64954" lon="3.84443">
        <ele>418.31</ele>
        <time>2021-08-13T09:14:13Z</time>
      </trkpt>
      <trkpt lat="46.64954" lon="3.84447">
        <ele>418.31</ele>
        <time>2021-08-13T09:14:14Z</time>
      </trkpt>
      <trkpt lat="46.64952" lon="3.84451">
        <ele>418.31</ele>
        <time>2021-08-13T09:14:15Z</time>
      </trkpt>
      <trkpt lat="46.64945" lon="3.84474">
        <ele>418.31</ele>
        <time>2021-08-13T09:14:21Z</time>
      </trkpt>
      <trkpt lat="46.64936" lon="3.84499">
        <ele>418.31</ele>
        <time>2021-08-13T09:14:27Z</time>
      </trkpt>
      <trkpt lat="46.64928" lon="3.84525">
        <ele>420.23</ele>
        <time>2021-08-13T09:14:34Z</time>
      </trkpt>
      <trkpt lat="46.64916" lon="3.84551">
        <ele>420.71</ele>
        <time>2021-08-13T09:14:41Z</time>
      </trkpt>
      <trkpt lat="46.64905" lon="3.84572">
        <ele>420.71</ele>
        <time>2021-08-13T09:14:48Z</time>
      </trkpt>
      <trkpt lat="46.64896" lon="3.84591">
        <ele>420.71</ele>
        <time>2021-08-13T09:14:54Z</time>
      </trkpt>
      <trkpt lat="46.64887" lon="3.84606">
        <ele>418.31</ele>
        <time>2021-08-13T09:14:59Z</time>
      </trkpt>
      <trkpt lat="46.6487" lon="3.84619">
        <ele>417.83</ele>
        <time>2021-08-13T09:15:05Z</time>
      </trkpt>
      <trkpt lat="46.64849" lon="3.84628">
        <ele>417.35</ele>
        <time>2021-08-13T09:15:11Z</time>
      </trkpt>
      <trkpt lat="46.64826" lon="3.84633">
        <ele>417.83</ele>
        <time>2021-08-13T09:15:17Z</time>
      </trkpt>
      <trkpt lat="46.648" lon="3.84639">
        <ele>416.39</ele>
        <time>2021-08-13T09:15:24Z</time>
      </trkpt>
      <trkpt lat="46.64798" lon="3.8464">
        <ele>416.39</ele>
        <time>2021-08-13T09:15:25Z</time>
      </trkpt>
      <trkpt lat="46.64782" lon="3.8465">
        <ele>413.5</ele>
        <time>2021-08-13T09:15:30Z</time>
      </trkpt>
      <trkpt lat="46.64768" lon="3.84663">
        <ele>411.1</ele>
        <time>2021-08-13T09:15:34Z</time>
      </trkpt>
      <trkpt lat="46.64743" lon="3.84684">
        <ele>407.74</ele>
        <time>2021-08-13T09:15:39Z</time>
      </trkpt>
      <trkpt lat="46.64719" lon="3.84708">
        <ele>407.26</ele>
        <time>2021-08-13T09:15:43Z</time>
      </trkpt>
      <trkpt lat="46.64714" lon="3.84713">
        <ele>406.77</ele>
        <time>2021-08-13T09:15:44Z</time>
      </trkpt>
      <trkpt lat="46.64709" lon="3.84719">
        <ele>406.77</ele>
        <time>2021-08-13T09:15:45Z</time>
      </trkpt>
      <trkpt lat="46.64677" lon="3.84752">
        <ele>405.33</ele>
        <time>2021-08-13T09:15:51Z</time>
      </trkpt>
      <trkpt lat="46.64661" lon="3.84766">
        <ele>405.33</ele>
        <time>2021-08-13T09:15:54Z</time>
      </trkpt>
      <trkpt lat="46.6465" lon="3.84779">
        <ele>405.33</ele>
        <time>2021-08-13T09:15:57Z</time>
      </trkpt>
      <trkpt lat="46.64646" lon="3.84784">
        <ele>405.33</ele>
        <time>2021-08-13T09:15:58Z</time>
      </trkpt>
      <trkpt lat="46.64623" lon="3.84813">
        <ele>405.33</ele>
        <time>2021-08-13T09:16:05Z</time>
      </trkpt>
      <trkpt lat="46.64601" lon="3.84848">
        <ele>405.33</ele>
        <time>2021-08-13T09:16:14Z</time>
      </trkpt>
      <trkpt lat="46.6459" lon="3.84876">
        <ele>407.26</ele>
        <time>2021-08-13T09:16:22Z</time>
      </trkpt>
      <trkpt lat="46.64582" lon="3.84899">
        <ele>407.74</ele>
        <time>2021-08-13T09:16:30Z</time>
      </trkpt>
      <trkpt lat="46.64574" lon="3.84922">
        <ele>406.29</ele>
        <time>2021-08-13T09:16:36Z</time>
      </trkpt>
      <trkpt lat="46.64563" lon="3.84952">
        <ele>404.85</ele>
        <time>2021-08-13T09:16:41Z</time>
      </trkpt>
      <trkpt lat="46.64561" lon="3.84956">
        <ele>404.85</ele>
        <time>2021-08-13T09:16:42Z</time>
      </trkpt>
      <trkpt lat="46.64558" lon="3.84957">
        <ele>404.85</ele>
        <time>2021-08-13T09:16:43Z</time>
      </trkpt>
      <trkpt lat="46.64556" lon="3.84958">
        <ele>404.85</ele>
        <time>2021-08-13T09:16:44Z</time>
      </trkpt>
      <trkpt lat="46.64552" lon="3.84958">
        <ele>404.85</ele>
        <time>2021-08-13T09:16:47Z</time>
      </trkpt>
      <trkpt lat="46.6455" lon="3.84956">
        <ele>406.29</ele>
        <time>2021-08-13T09:16:50Z</time>
      </trkpt>
      <trkpt lat="46.64549" lon="3.84953">
        <ele>406.77</ele>
        <time>2021-08-13T09:16:57Z</time>
      </trkpt>
      <trkpt lat="46.64549" lon="3.84947">
        <ele>407.74</ele>
        <time>2021-08-13T09:17:04Z</time>
      </trkpt>
      <trkpt lat="46.64548" lon="3.84942">
        <ele>409.18</ele>
        <time>2021-08-13T09:17:11Z</time>
      </trkpt>
      <trkpt lat="46.64546" lon="3.84935">
        <ele>410.62</ele>
        <time>2021-08-13T09:17:19Z</time>
      </trkpt>
      <trkpt lat="46.64543" lon="3.84927">
        <ele>412.06</ele>
        <time>2021-08-13T09:17:27Z</time>
      </trkpt>
      <trkpt lat="46.64541" lon="3.84921">
        <ele>413.02</ele>
        <time>2021-08-13T09:17:34Z</time>
      </trkpt>
      <trkpt lat="46.64539" lon="3.84913">
        <ele>413.98</ele>
        <time>2021-08-13T09:17:42Z</time>
      </trkpt>
      <trkpt lat="46.64538" lon="3.84912">
        <ele>413.98</ele>
        <time>2021-08-13T09:17:43Z</time>
      </trkpt>
      <trkpt lat="46.64537" lon="3.84912">
        <ele>414.47</ele>
        <time>2021-08-13T09:17:44Z</time>
      </trkpt>
      <trkpt lat="46.64533" lon="3.84905">
        <ele>414.95</ele>
        <time>2021-08-13T09:17:50Z</time>
      </trkpt>
      <trkpt lat="46.64528" lon="3.84899">
        <ele>415.91</ele>
        <time>2021-08-13T09:17:58Z</time>
      </trkpt>
      <trkpt lat="46.64523" lon="3.84896">
        <ele>416.87</ele>
        <time>2021-08-13T09:18:04Z</time>
      </trkpt>
      <trkpt lat="46.64519" lon="3.84896">
        <ele>416.87</ele>
        <time>2021-08-13T09:18:12Z</time>
      </trkpt>
      <trkpt lat="46.64512" lon="3.84895">
        <ele>417.83</ele>
        <time>2021-08-13T09:18:21Z</time>
      </trkpt>
      <trkpt lat="46.64507" lon="3.84892">
        <ele>418.79</ele>
        <time>2021-08-13T09:18:27Z</time>
      </trkpt>
      <trkpt lat="46.645" lon="3.8489">
        <ele>419.75</ele>
        <time>2021-08-13T09:18:33Z</time>
      </trkpt>
      <trkpt lat="46.6449" lon="3.84888">
        <ele>420.71</ele>
        <time>2021-08-13T09:18:41Z</time>
      </trkpt>
      <trkpt lat="46.64481" lon="3.84889">
        <ele>422.64</ele>
        <time>2021-08-13T09:18:49Z</time>
      </trkpt>
      <trkpt lat="46.64478" lon="3.84889">
        <ele>422.64</ele>
        <time>2021-08-13T09:18:51Z</time>
      </trkpt>
      <trkpt lat="46.64473" lon="3.8489">
        <ele>423.6</ele>
        <time>2021-08-13T09:18:57Z</time>
      </trkpt>
      <trkpt lat="46.64468" lon="3.84889">
        <ele>425.52</ele>
        <time>2021-08-13T09:19:05Z</time>
      </trkpt>
      <trkpt lat="46.64466" lon="3.84887">
        <ele>426</ele>
        <time>2021-08-13T09:19:11Z</time>
      </trkpt>
      <trkpt lat="46.64462" lon="3.84886">
        <ele>427.44</ele>
        <time>2021-08-13T09:19:18Z</time>
      </trkpt>
      <trkpt lat="46.64456" lon="3.84885">
        <ele>428.4</ele>
        <time>2021-08-13T09:19:24Z</time>
      </trkpt>
      <trkpt lat="46.64448" lon="3.84884">
        <ele>429.37</ele>
        <time>2021-08-13T09:19:32Z</time>
      </trkpt>
      <trkpt lat="46.64443" lon="3.84882">
        <ele>430.81</ele>
        <time>2021-08-13T09:19:40Z</time>
      </trkpt>
      <trkpt lat="46.64436" lon="3.84878">
        <ele>431.77</ele>
        <time>2021-08-13T09:19:48Z</time>
      </trkpt>
      <trkpt lat="46.6443" lon="3.84877">
        <ele>432.73</ele>
        <time>2021-08-13T09:19:56Z</time>
      </trkpt>
      <trkpt lat="46.64424" lon="3.84878">
        <ele>434.17</ele>
        <time>2021-08-13T09:20:04Z</time>
      </trkpt>
      <trkpt lat="46.64418" lon="3.84878">
        <ele>435.61</ele>
        <time>2021-08-13T09:20:13Z</time>
      </trkpt>
      <trkpt lat="46.64411" lon="3.8488">
        <ele>436.58</ele>
        <time>2021-08-13T09:20:20Z</time>
      </trkpt>
      <trkpt lat="46.64407" lon="3.84879">
        <ele>437.06</ele>
        <time>2021-08-13T09:20:25Z</time>
      </trkpt>
      <trkpt lat="46.64401" lon="3.84876">
        <ele>438.5</ele>
        <time>2021-08-13T09:20:33Z</time>
      </trkpt>
      <trkpt lat="46.64394" lon="3.84877">
        <ele>439.94</ele>
        <time>2021-08-13T09:20:43Z</time>
      </trkpt>
      <trkpt lat="46.6439" lon="3.84876">
        <ele>441.38</ele>
        <time>2021-08-13T09:20:49Z</time>
      </trkpt>
      <trkpt lat="46.64386" lon="3.84876">
        <ele>442.34</ele>
        <time>2021-08-13T09:20:58Z</time>
      </trkpt>
      <trkpt lat="46.64381" lon="3.84876">
        <ele>443.31</ele>
        <time>2021-08-13T09:21:06Z</time>
      </trkpt>
      <trkpt lat="46.64377" lon="3.8487">
        <ele>445.23</ele>
        <time>2021-08-13T09:21:13Z</time>
      </trkpt>
      <trkpt lat="46.64372" lon="3.84865">
        <ele>445.71</ele>
        <time>2021-08-13T09:21:20Z</time>
      </trkpt>
      <trkpt lat="46.64367" lon="3.84857">
        <ele>447.15</ele>
        <time>2021-08-13T09:21:28Z</time>
      </trkpt>
      <trkpt lat="46.64359" lon="3.84851">
        <ele>447.15</ele>
        <time>2021-08-13T09:21:34Z</time>
      </trkpt>
      <trkpt lat="46.64354" lon="3.84844">
        <ele>448.59</ele>
        <time>2021-08-13T09:21:41Z</time>
      </trkpt>
      <trkpt lat="46.6435" lon="3.84835">
        <ele>449.07</ele>
        <time>2021-08-13T09:21:47Z</time>
      </trkpt>
      <trkpt lat="46.6434" lon="3.84819">
        <ele>450.52</ele>
        <time>2021-08-13T09:21:55Z</time>
      </trkpt>
      <trkpt lat="46.64339" lon="3.84817">
        <ele>451</ele>
        <time>2021-08-13T09:21:56Z</time>
      </trkpt>
      <trkpt lat="46.64338" lon="3.84812">
        <ele>451.48</ele>
        <time>2021-08-13T09:21:59Z</time>
      </trkpt>
      <trkpt lat="46.64337" lon="3.8481">
        <ele>451.48</ele>
        <time>2021-08-13T09:22:00Z</time>
      </trkpt>
      <trkpt lat="46.64336" lon="3.84807">
        <ele>451.48</ele>
        <time>2021-08-13T09:22:01Z</time>
      </trkpt>
      <trkpt lat="46.64336" lon="3.84805">
        <ele>451.48</ele>
        <time>2021-08-13T09:22:02Z</time>
      </trkpt>
      <trkpt lat="46.64336" lon="3.84803">
        <ele>451.48</ele>
        <time>2021-08-13T09:22:03Z</time>
      </trkpt>
      <trkpt lat="46.64335" lon="3.848">
        <ele>451.96</ele>
        <time>2021-08-13T09:22:04Z</time>
      </trkpt>
      <trkpt lat="46.64334" lon="3.84786">
        <ele>452.44</ele>
        <time>2021-08-13T09:22:11Z</time>
      </trkpt>
      <trkpt lat="46.64334" lon="3.84784">
        <ele>452.92</ele>
        <time>2021-08-13T09:22:12Z</time>
      </trkpt>
      <trkpt lat="46.64334" lon="3.84781">
        <ele>452.92</ele>
        <time>2021-08-13T09:22:13Z</time>
      </trkpt>
      <trkpt lat="46.64332" lon="3.84766">
        <ele>453.4</ele>
        <time>2021-08-13T09:22:19Z</time>
      </trkpt>
      <trkpt lat="46.64329" lon="3.84736">
        <ele>453.4</ele>
        <time>2021-08-13T09:22:27Z</time>
      </trkpt>
      <trkpt lat="46.64327" lon="3.84712">
        <ele>453.88</ele>
        <time>2021-08-13T09:22:35Z</time>
      </trkpt>
      <trkpt lat="46.64325" lon="3.84693">
        <ele>452.92</ele>
        <time>2021-08-13T09:22:42Z</time>
      </trkpt>
      <trkpt lat="46.64324" lon="3.84691">
        <ele>452.92</ele>
        <time>2021-08-13T09:22:43Z</time>
      </trkpt>
      <trkpt lat="46.64322" lon="3.84683">
        <ele>451.96</ele>
        <time>2021-08-13T09:22:46Z</time>
      </trkpt>
      <trkpt lat="46.64322" lon="3.84681">
        <ele>451.96</ele>
        <time>2021-08-13T09:22:47Z</time>
      </trkpt>
      <trkpt lat="46.64322" lon="3.84678">
        <ele>451.96</ele>
        <time>2021-08-13T09:22:48Z</time>
      </trkpt>
      <trkpt lat="46.64321" lon="3.84676">
        <ele>451.48</ele>
        <time>2021-08-13T09:22:49Z</time>
      </trkpt>
      <trkpt lat="46.64321" lon="3.84674">
        <ele>451.48</ele>
        <time>2021-08-13T09:22:50Z</time>
      </trkpt>
      <trkpt lat="46.64321" lon="3.84671">
        <ele>451.48</ele>
        <time>2021-08-13T09:22:51Z</time>
      </trkpt>
      <trkpt lat="46.64321" lon="3.84669">
        <ele>451</ele>
        <time>2021-08-13T09:22:52Z</time>
      </trkpt>
      <trkpt lat="46.64321" lon="3.84666">
        <ele>451</ele>
        <time>2021-08-13T09:22:53Z</time>
      </trkpt>
      <trkpt lat="46.64317" lon="3.84648">
        <ele>449.55</ele>
        <time>2021-08-13T09:22:59Z</time>
      </trkpt>
      <trkpt lat="46.64313" lon="3.84623">
        <ele>447.63</ele>
        <time>2021-08-13T09:23:05Z</time>
      </trkpt>
      <trkpt lat="46.64311" lon="3.84609">
        <ele>446.67</ele>
        <time>2021-08-13T09:23:08Z</time>
      </trkpt>
      <trkpt lat="46.64309" lon="3.84581">
        <ele>443.79</ele>
        <time>2021-08-13T09:23:13Z</time>
      </trkpt>
      <trkpt lat="46.64309" lon="3.84568">
        <ele>442.34</ele>
        <time>2021-08-13T09:23:15Z</time>
      </trkpt>
      <trkpt lat="46.64309" lon="3.84541">
        <ele>438.98</ele>
        <time>2021-08-13T09:23:19Z</time>
      </trkpt>
      <trkpt lat="46.6431" lon="3.8451">
        <ele>436.1</ele>
        <time>2021-08-13T09:23:24Z</time>
      </trkpt>
      <trkpt lat="46.64311" lon="3.84472">
        <ele>434.17</ele>
        <time>2021-08-13T09:23:29Z</time>
      </trkpt>
      <trkpt lat="46.64309" lon="3.84463">
        <ele>433.69</ele>
        <time>2021-08-13T09:23:30Z</time>
      </trkpt>
      <trkpt lat="46.64301" lon="3.84431">
        <ele>435.13</ele>
        <time>2021-08-13T09:23:35Z</time>
      </trkpt>
      <trkpt lat="46.64287" lon="3.84391">
        <ele>434.65</ele>
        <time>2021-08-13T09:23:42Z</time>
      </trkpt>
      <trkpt lat="46.64275" lon="3.84354">
        <ele>432.73</ele>
        <time>2021-08-13T09:23:49Z</time>
      </trkpt>
      <trkpt lat="46.64259" lon="3.84322">
        <ele>430.33</ele>
        <time>2021-08-13T09:23:55Z</time>
      </trkpt>
      <trkpt lat="46.64249" lon="3.84292">
        <ele>426.96</ele>
        <time>2021-08-13T09:24:01Z</time>
      </trkpt>
      <trkpt lat="46.64239" lon="3.84265">
        <ele>424.08</ele>
        <time>2021-08-13T09:24:07Z</time>
      </trkpt>
      <trkpt lat="46.64237" lon="3.8426">
        <ele>423.12</ele>
        <time>2021-08-13T09:24:08Z</time>
      </trkpt>
      <trkpt lat="46.64234" lon="3.84253">
        <ele>423.12</ele>
        <time>2021-08-13T09:24:09Z</time>
      </trkpt>
      <trkpt lat="46.6423" lon="3.84246">
        <ele>422.16</ele>
        <time>2021-08-13T09:24:10Z</time>
      </trkpt>
      <trkpt lat="46.64222" lon="3.84233">
        <ele>422.16</ele>
        <time>2021-08-13T09:24:12Z</time>
      </trkpt>
      <trkpt lat="46.64217" lon="3.84227">
        <ele>421.68</ele>
        <time>2021-08-13T09:24:13Z</time>
      </trkpt>
      <trkpt lat="46.64211" lon="3.84221">
        <ele>421.68</ele>
        <time>2021-08-13T09:24:14Z</time>
      </trkpt>
      <trkpt lat="46.64206" lon="3.84217">
        <ele>421.68</ele>
        <time>2021-08-13T09:24:15Z</time>
      </trkpt>
      <trkpt lat="46.64201" lon="3.84213">
        <ele>421.19</ele>
        <time>2021-08-13T09:24:16Z</time>
      </trkpt>
      <trkpt lat="46.64182" lon="3.84194">
        <ele>421.68</ele>
        <time>2021-08-13T09:24:22Z</time>
      </trkpt>
      <trkpt lat="46.64175" lon="3.84186">
        <ele>422.64</ele>
        <time>2021-08-13T09:24:25Z</time>
      </trkpt>
      <trkpt lat="46.64163" lon="3.84169">
        <ele>424.08</ele>
        <time>2021-08-13T09:24:31Z</time>
      </trkpt>
      <trkpt lat="46.64148" lon="3.84144">
        <ele>424.08</ele>
        <time>2021-08-13T09:24:38Z</time>
      </trkpt>
      <trkpt lat="46.64131" lon="3.84116">
        <ele>424.08</ele>
        <time>2021-08-13T09:24:45Z</time>
      </trkpt>
      <trkpt lat="46.64119" lon="3.84094">
        <ele>424.08</ele>
        <time>2021-08-13T09:24:51Z</time>
      </trkpt>
      <trkpt lat="46.64112" lon="3.84077">
        <ele>424.08</ele>
        <time>2021-08-13T09:24:56Z</time>
      </trkpt>
      <trkpt lat="46.64097" lon="3.84052">
        <ele>424.08</ele>
        <time>2021-08-13T09:25:03Z</time>
      </trkpt>
      <trkpt lat="46.64082" lon="3.84036">
        <ele>423.12</ele>
        <time>2021-08-13T09:25:09Z</time>
      </trkpt>
      <trkpt lat="46.64069" lon="3.84018">
        <ele>422.64</ele>
        <time>2021-08-13T09:25:15Z</time>
      </trkpt>
      <trkpt lat="46.64065" lon="3.84011">
        <ele>422.64</ele>
        <time>2021-08-13T09:25:17Z</time>
      </trkpt>
      <trkpt lat="46.64064" lon="3.84003">
        <ele>422.64</ele>
        <time>2021-08-13T09:25:19Z</time>
      </trkpt>
      <trkpt lat="46.6405" lon="3.83981">
        <ele>422.64</ele>
        <time>2021-08-13T09:25:27Z</time>
      </trkpt>
      <trkpt lat="46.64042" lon="3.83966">
        <ele>422.64</ele>
        <time>2021-08-13T09:25:32Z</time>
      </trkpt>
      <trkpt lat="46.6403" lon="3.83945">
        <ele>422.64</ele>
        <time>2021-08-13T09:25:38Z</time>
      </trkpt>
      <trkpt lat="46.64028" lon="3.83942">
        <ele>422.16</ele>
        <time>2021-08-13T09:25:39Z</time>
      </trkpt>
      <trkpt lat="46.64016" lon="3.83921">
        <ele>421.68</ele>
        <time>2021-08-13T09:25:45Z</time>
      </trkpt>
      <trkpt lat="46.64" lon="3.83892">
        <ele>420.71</ele>
        <time>2021-08-13T09:25:52Z</time>
      </trkpt>
      <trkpt lat="46.63983" lon="3.83854">
        <ele>418.79</ele>
        <time>2021-08-13T09:25:59Z</time>
      </trkpt>
      <trkpt lat="46.63969" lon="3.83816">
        <ele>418.79</ele>
        <time>2021-08-13T09:26:06Z</time>
      </trkpt>
      <trkpt lat="46.63956" lon="3.83789">
        <ele>418.79</ele>
        <time>2021-08-13T09:26:12Z</time>
      </trkpt>
      <trkpt lat="46.6395" lon="3.83758">
        <ele>418.31</ele>
        <time>2021-08-13T09:26:18Z</time>
      </trkpt>
      <trkpt lat="46.63939" lon="3.83709">
        <ele>417.83</ele>
        <time>2021-08-13T09:26:26Z</time>
      </trkpt>
      <trkpt lat="46.63932" lon="3.83687">
        <ele>416.87</ele>
        <time>2021-08-13T09:26:29Z</time>
      </trkpt>
      <trkpt lat="46.63928" lon="3.83679">
        <ele>416.39</ele>
        <time>2021-08-13T09:26:30Z</time>
      </trkpt>
      <trkpt lat="46.63925" lon="3.83671">
        <ele>416.39</ele>
        <time>2021-08-13T09:26:31Z</time>
      </trkpt>
      <trkpt lat="46.63909" lon="3.83596">
        <ele>413.98</ele>
        <time>2021-08-13T09:26:40Z</time>
      </trkpt>
      <trkpt lat="46.6391" lon="3.83579">
        <ele>413.02</ele>
        <time>2021-08-13T09:26:42Z</time>
      </trkpt>
      <trkpt lat="46.63911" lon="3.8357">
        <ele>412.54</ele>
        <time>2021-08-13T09:26:43Z</time>
      </trkpt>
      <trkpt lat="46.63913" lon="3.83562">
        <ele>412.54</ele>
        <time>2021-08-13T09:26:44Z</time>
      </trkpt>
      <trkpt lat="46.63916" lon="3.83554">
        <ele>412.06</ele>
        <time>2021-08-13T09:26:45Z</time>
      </trkpt>
      <trkpt lat="46.63919" lon="3.83546">
        <ele>412.06</ele>
        <time>2021-08-13T09:26:46Z</time>
      </trkpt>
      <trkpt lat="46.63922" lon="3.83539">
        <ele>412.06</ele>
        <time>2021-08-13T09:26:47Z</time>
      </trkpt>
      <trkpt lat="46.63953" lon="3.83493">
        <ele>411.58</ele>
        <time>2021-08-13T09:26:55Z</time>
      </trkpt>
      <trkpt lat="46.63955" lon="3.83489">
        <ele>411.58</ele>
        <time>2021-08-13T09:26:56Z</time>
      </trkpt>
      <trkpt lat="46.63957" lon="3.83484">
        <ele>411.58</ele>
        <time>2021-08-13T09:26:57Z</time>
      </trkpt>
      <trkpt lat="46.63957" lon="3.83478">
        <ele>411.58</ele>
        <time>2021-08-13T09:26:58Z</time>
      </trkpt>
      <trkpt lat="46.63955" lon="3.83472">
        <ele>410.14</ele>
        <time>2021-08-13T09:26:59Z</time>
      </trkpt>
      <trkpt lat="46.63954" lon="3.83468">
        <ele>410.14</ele>
        <time>2021-08-13T09:27:00Z</time>
      </trkpt>
      <trkpt lat="46.63951" lon="3.83461">
        <ele>410.14</ele>
        <time>2021-08-13T09:27:01Z</time>
      </trkpt>
      <trkpt lat="46.63942" lon="3.8344">
        <ele>407.26</ele>
        <time>2021-08-13T09:27:04Z</time>
      </trkpt>
      <trkpt lat="46.63928" lon="3.8341">
        <ele>403.41</ele>
        <time>2021-08-13T09:27:08Z</time>
      </trkpt>
      <trkpt lat="46.63917" lon="3.83385">
        <ele>400.53</ele>
        <time>2021-08-13T09:27:11Z</time>
      </trkpt>
      <trkpt lat="46.63915" lon="3.83375">
        <ele>399.57</ele>
        <time>2021-08-13T09:27:12Z</time>
      </trkpt>
      <trkpt lat="46.63913" lon="3.83365">
        <ele>398.6</ele>
        <time>2021-08-13T09:27:13Z</time>
      </trkpt>
      <trkpt lat="46.63906" lon="3.83323">
        <ele>395.24</ele>
        <time>2021-08-13T09:27:17Z</time>
      </trkpt>
      <trkpt lat="46.63902" lon="3.83291">
        <ele>392.36</ele>
        <time>2021-08-13T09:27:20Z</time>
      </trkpt>
      <trkpt lat="46.63902" lon="3.83281">
        <ele>391.87</ele>
        <time>2021-08-13T09:27:21Z</time>
      </trkpt>
      <trkpt lat="46.63901" lon="3.83243">
        <ele>388.99</ele>
        <time>2021-08-13T09:27:24Z</time>
      </trkpt>
      <trkpt lat="46.639" lon="3.83231">
        <ele>387.55</ele>
        <time>2021-08-13T09:27:25Z</time>
      </trkpt>
      <trkpt lat="46.63897" lon="3.83218">
        <ele>386.59</ele>
        <time>2021-08-13T09:27:26Z</time>
      </trkpt>
      <trkpt lat="46.63891" lon="3.83189">
        <ele>383.7</ele>
        <time>2021-08-13T09:27:28Z</time>
      </trkpt>
      <trkpt lat="46.63888" lon="3.83144">
        <ele>380.34</ele>
        <time>2021-08-13T09:27:31Z</time>
      </trkpt>
      <trkpt lat="46.63887" lon="3.83131">
        <ele>380.34</ele>
        <time>2021-08-13T09:27:32Z</time>
      </trkpt>
      <trkpt lat="46.63885" lon="3.83107">
        <ele>379.38</ele>
        <time>2021-08-13T09:27:35Z</time>
      </trkpt>
      <trkpt lat="46.63887" lon="3.8308">
        <ele>378.42</ele>
        <time>2021-08-13T09:27:41Z</time>
      </trkpt>
      <trkpt lat="46.63889" lon="3.83067">
        <ele>377.94</ele>
        <time>2021-08-13T09:27:43Z</time>
      </trkpt>
      <trkpt lat="46.63889" lon="3.83059">
        <ele>377.94</ele>
        <time>2021-08-13T09:27:44Z</time>
      </trkpt>
      <trkpt lat="46.6389" lon="3.83041">
        <ele>377.45</ele>
        <time>2021-08-13T09:27:46Z</time>
      </trkpt>
      <trkpt lat="46.6389" lon="3.83032">
        <ele>376.49</ele>
        <time>2021-08-13T09:27:47Z</time>
      </trkpt>
      <trkpt lat="46.63878" lon="3.82971">
        <ele>373.61</ele>
        <time>2021-08-13T09:27:53Z</time>
      </trkpt>
      <trkpt lat="46.63874" lon="3.82961">
        <ele>373.61</ele>
        <time>2021-08-13T09:27:54Z</time>
      </trkpt>
      <trkpt lat="46.63843" lon="3.8289">
        <ele>370.24</ele>
        <time>2021-08-13T09:28:01Z</time>
      </trkpt>
      <trkpt lat="46.63817" lon="3.82824">
        <ele>367.36</ele>
        <time>2021-08-13T09:28:07Z</time>
      </trkpt>
      <trkpt lat="46.63804" lon="3.82747">
        <ele>364</ele>
        <time>2021-08-13T09:28:13Z</time>
      </trkpt>
      <trkpt lat="46.63803" lon="3.82733">
        <ele>364</ele>
        <time>2021-08-13T09:28:14Z</time>
      </trkpt>
      <trkpt lat="46.63794" lon="3.82667">
        <ele>361.59</ele>
        <time>2021-08-13T09:28:19Z</time>
      </trkpt>
      <trkpt lat="46.63782" lon="3.82582">
        <ele>358.23</ele>
        <time>2021-08-13T09:28:25Z</time>
      </trkpt>
      <trkpt lat="46.6377" lon="3.82458">
        <ele>355.34</ele>
        <time>2021-08-13T09:28:34Z</time>
      </trkpt>
      <trkpt lat="46.63762" lon="3.82347">
        <ele>354.38</ele>
        <time>2021-08-13T09:28:43Z</time>
      </trkpt>
      <trkpt lat="46.63755" lon="3.82253">
        <ele>353.42</ele>
        <time>2021-08-13T09:28:52Z</time>
      </trkpt>
      <trkpt lat="46.63746" lon="3.82162">
        <ele>353.42</ele>
        <time>2021-08-13T09:29:02Z</time>
      </trkpt>
      <trkpt lat="46.63732" lon="3.82088">
        <ele>353.42</ele>
        <time>2021-08-13T09:29:11Z</time>
      </trkpt>
      <trkpt lat="46.63709" lon="3.82005">
        <ele>353.42</ele>
        <time>2021-08-13T09:29:22Z</time>
      </trkpt>
      <trkpt lat="46.63698" lon="3.81936">
        <ele>353.42</ele>
        <time>2021-08-13T09:29:31Z</time>
      </trkpt>
      <trkpt lat="46.63694" lon="3.819">
        <ele>351.98</ele>
        <time>2021-08-13T09:29:35Z</time>
      </trkpt>
      <trkpt lat="46.6368" lon="3.81827">
        <ele>349.1</ele>
        <time>2021-08-13T09:29:42Z</time>
      </trkpt>
      <trkpt lat="46.6366" lon="3.81743">
        <ele>345.73</ele>
        <time>2021-08-13T09:29:49Z</time>
      </trkpt>
      <trkpt lat="46.63639" lon="3.81652">
        <ele>342.37</ele>
        <time>2021-08-13T09:29:56Z</time>
      </trkpt>
      <trkpt lat="46.63629" lon="3.8161">
        <ele>340.92</ele>
        <time>2021-08-13T09:29:59Z</time>
      </trkpt>
      <trkpt lat="46.6361" lon="3.8151">
        <ele>338.04</ele>
        <time>2021-08-13T09:30:06Z</time>
      </trkpt>
      <trkpt lat="46.63594" lon="3.81393">
        <ele>335.64</ele>
        <time>2021-08-13T09:30:14Z</time>
      </trkpt>
      <trkpt lat="46.63584" lon="3.81315">
        <ele>334.68</ele>
        <time>2021-08-13T09:30:20Z</time>
      </trkpt>
      <trkpt lat="46.63581" lon="3.81291">
        <ele>334.2</ele>
        <time>2021-08-13T09:30:22Z</time>
      </trkpt>
      <trkpt lat="46.6358" lon="3.8127">
        <ele>334.2</ele>
        <time>2021-08-13T09:30:24Z</time>
      </trkpt>
      <trkpt lat="46.63564" lon="3.81157">
        <ele>333.71</ele>
        <time>2021-08-13T09:30:34Z</time>
      </trkpt>
      <trkpt lat="46.6355" lon="3.81047">
        <ele>332.75</ele>
        <time>2021-08-13T09:30:44Z</time>
      </trkpt>
      <trkpt lat="46.63541" lon="3.80952">
        <ele>332.75</ele>
        <time>2021-08-13T09:30:53Z</time>
      </trkpt>
      <trkpt lat="46.63536" lon="3.80854">
        <ele>332.75</ele>
        <time>2021-08-13T09:31:03Z</time>
      </trkpt>
      <trkpt lat="46.63532" lon="3.80768">
        <ele>332.75</ele>
        <time>2021-08-13T09:31:13Z</time>
      </trkpt>
      <trkpt lat="46.63529" lon="3.80696">
        <ele>333.71</ele>
        <time>2021-08-13T09:31:22Z</time>
      </trkpt>
      <trkpt lat="46.63525" lon="3.80628">
        <ele>334.2</ele>
        <time>2021-08-13T09:31:31Z</time>
      </trkpt>
      <trkpt lat="46.63519" lon="3.80561">
        <ele>335.16</ele>
        <time>2021-08-13T09:31:41Z</time>
      </trkpt>
      <trkpt lat="46.63517" lon="3.80548">
        <ele>335.16</ele>
        <time>2021-08-13T09:31:43Z</time>
      </trkpt>
      <trkpt lat="46.63498" lon="3.80492">
        <ele>335.16</ele>
        <time>2021-08-13T09:31:52Z</time>
      </trkpt>
      <trkpt lat="46.63472" lon="3.80423">
        <ele>332.27</ele>
        <time>2021-08-13T09:32:01Z</time>
      </trkpt>
      <trkpt lat="46.63446" lon="3.80349">
        <ele>329.39</ele>
        <time>2021-08-13T09:32:09Z</time>
      </trkpt>
      <trkpt lat="46.63413" lon="3.80259">
        <ele>326.99</ele>
        <time>2021-08-13T09:32:18Z</time>
      </trkpt>
      <trkpt lat="46.63378" lon="3.80181">
        <ele>323.62</ele>
        <time>2021-08-13T09:32:26Z</time>
      </trkpt>
      <trkpt lat="46.63368" lon="3.80161">
        <ele>322.66</ele>
        <time>2021-08-13T09:32:28Z</time>
      </trkpt>
      <trkpt lat="46.63341" lon="3.80104">
        <ele>319.3</ele>
        <time>2021-08-13T09:32:33Z</time>
      </trkpt>
      <trkpt lat="46.63324" lon="3.80067">
        <ele>317.85</ele>
        <time>2021-08-13T09:32:36Z</time>
      </trkpt>
      <trkpt lat="46.63293" lon="3.80002">
        <ele>313.53</ele>
        <time>2021-08-13T09:32:41Z</time>
      </trkpt>
      <trkpt lat="46.63273" lon="3.79965">
        <ele>312.09</ele>
        <time>2021-08-13T09:32:44Z</time>
      </trkpt>
      <trkpt lat="46.63238" lon="3.79901">
        <ele>308.72</ele>
        <time>2021-08-13T09:32:49Z</time>
      </trkpt>
      <trkpt lat="46.63231" lon="3.79889">
        <ele>308.72</ele>
        <time>2021-08-13T09:32:50Z</time>
      </trkpt>
      <trkpt lat="46.63178" lon="3.79793">
        <ele>307.76</ele>
        <time>2021-08-13T09:32:58Z</time>
      </trkpt>
      <trkpt lat="46.63128" lon="3.79704">
        <ele>304.39</ele>
        <time>2021-08-13T09:33:06Z</time>
      </trkpt>
      <trkpt lat="46.63071" lon="3.79608">
        <ele>303.43</ele>
        <time>2021-08-13T09:33:15Z</time>
      </trkpt>
      <trkpt lat="46.63039" lon="3.79548">
        <ele>305.36</ele>
        <time>2021-08-13T09:33:22Z</time>
      </trkpt>
      <trkpt lat="46.63021" lon="3.79512">
        <ele>306.8</ele>
        <time>2021-08-13T09:33:28Z</time>
      </trkpt>
      <trkpt lat="46.63" lon="3.7946">
        <ele>306.8</ele>
        <time>2021-08-13T09:33:37Z</time>
      </trkpt>
      <trkpt lat="46.62979" lon="3.79409">
        <ele>306.8</ele>
        <time>2021-08-13T09:33:45Z</time>
      </trkpt>
      <trkpt lat="46.62947" lon="3.79345">
        <ele>303.43</ele>
        <time>2021-08-13T09:33:54Z</time>
      </trkpt>
      <trkpt lat="46.62923" lon="3.79299">
        <ele>300.55</ele>
        <time>2021-08-13T09:33:59Z</time>
      </trkpt>
      <trkpt lat="46.62919" lon="3.79288">
        <ele>300.55</ele>
        <time>2021-08-13T09:34:00Z</time>
      </trkpt>
      <trkpt lat="46.62884" lon="3.79214">
        <ele>297.18</ele>
        <time>2021-08-13T09:34:07Z</time>
      </trkpt>
      <trkpt lat="46.62843" lon="3.79128">
        <ele>293.82</ele>
        <time>2021-08-13T09:34:15Z</time>
      </trkpt>
      <trkpt lat="46.62822" lon="3.79085">
        <ele>292.38</ele>
        <time>2021-08-13T09:34:19Z</time>
      </trkpt>
      <trkpt lat="46.62793" lon="3.79027">
        <ele>290.94</ele>
        <time>2021-08-13T09:34:25Z</time>
      </trkpt>
      <trkpt lat="46.62791" lon="3.79019">
        <ele>291.42</ele>
        <time>2021-08-13T09:34:26Z</time>
      </trkpt>
      <trkpt lat="46.62792" lon="3.79012">
        <ele>290.94</ele>
        <time>2021-08-13T09:34:27Z</time>
      </trkpt>
      <trkpt lat="46.62795" lon="3.79007">
        <ele>290.94</ele>
        <time>2021-08-13T09:34:28Z</time>
      </trkpt>
      <trkpt lat="46.62797" lon="3.79004">
        <ele>290.94</ele>
        <time>2021-08-13T09:34:29Z</time>
      </trkpt>
      <trkpt lat="46.62809" lon="3.78991">
        <ele>293.82</ele>
        <time>2021-08-13T09:34:36Z</time>
      </trkpt>
      <trkpt lat="46.62813" lon="3.78983">
        <ele>293.82</ele>
        <time>2021-08-13T09:34:40Z</time>
      </trkpt>
      <trkpt lat="46.62815" lon="3.78982">
        <ele>293.82</ele>
        <time>2021-08-13T09:34:41Z</time>
      </trkpt>
      <trkpt lat="46.62816" lon="3.7898">
        <ele>294.3</ele>
        <time>2021-08-13T09:34:42Z</time>
      </trkpt>
      <trkpt lat="46.62818" lon="3.78975">
        <ele>294.3</ele>
        <time>2021-08-13T09:34:45Z</time>
      </trkpt>
      <trkpt lat="46.62819" lon="3.78974">
        <ele>294.78</ele>
        <time>2021-08-13T09:34:46Z</time>
      </trkpt>
      <trkpt lat="46.6282" lon="3.78972">
        <ele>294.78</ele>
        <time>2021-08-13T09:34:47Z</time>
      </trkpt>
      <trkpt lat="46.62821" lon="3.78971">
        <ele>294.78</ele>
        <time>2021-08-13T09:34:48Z</time>
      </trkpt>
      <trkpt lat="46.62822" lon="3.78969">
        <ele>294.78</ele>
        <time>2021-08-13T09:34:49Z</time>
      </trkpt>
      <trkpt lat="46.62823" lon="3.78967">
        <ele>295.26</ele>
        <time>2021-08-13T09:34:50Z</time>
      </trkpt>
      <trkpt lat="46.62824" lon="3.78965">
        <ele>295.26</ele>
        <time>2021-08-13T09:34:51Z</time>
      </trkpt>
      <trkpt lat="46.62824" lon="3.78964">
        <ele>295.26</ele>
        <time>2021-08-13T09:34:52Z</time>
      </trkpt>
      <trkpt lat="46.62825" lon="3.78962">
        <ele>296.22</ele>
        <time>2021-08-13T09:34:53Z</time>
      </trkpt>
      <trkpt lat="46.62826" lon="3.7896">
        <ele>296.22</ele>
        <time>2021-08-13T09:34:54Z</time>
      </trkpt>
      <trkpt lat="46.62826" lon="3.78959">
        <ele>296.22</ele>
        <time>2021-08-13T09:34:55Z</time>
      </trkpt>
      <trkpt lat="46.62827" lon="3.78957">
        <ele>296.22</ele>
        <time>2021-08-13T09:34:56Z</time>
      </trkpt>
      <trkpt lat="46.62831" lon="3.78949">
        <ele>297.67</ele>
        <time>2021-08-13T09:35:02Z</time>
      </trkpt>
      <trkpt lat="46.62832" lon="3.78947">
        <ele>297.67</ele>
        <time>2021-08-13T09:35:03Z</time>
      </trkpt>
      <trkpt lat="46.62832" lon="3.78946">
        <ele>297.67</ele>
        <time>2021-08-13T09:35:04Z</time>
      </trkpt>
      <trkpt lat="46.62833" lon="3.78944">
        <ele>297.67</ele>
        <time>2021-08-13T09:35:05Z</time>
      </trkpt>
      <trkpt lat="46.62834" lon="3.78943">
        <ele>298.15</ele>
        <time>2021-08-13T09:35:06Z</time>
      </trkpt>
      <trkpt lat="46.62835" lon="3.78942">
        <ele>298.15</ele>
        <time>2021-08-13T09:35:07Z</time>
      </trkpt>
      <trkpt lat="46.62836" lon="3.7894">
        <ele>298.15</ele>
        <time>2021-08-13T09:35:08Z</time>
      </trkpt>
      <trkpt lat="46.62839" lon="3.78934">
        <ele>298.63</ele>
        <time>2021-08-13T09:35:12Z</time>
      </trkpt>
      <trkpt lat="46.62839" lon="3.78933">
        <ele>298.63</ele>
        <time>2021-08-13T09:35:13Z</time>
      </trkpt>
      <trkpt lat="46.62843" lon="3.78924">
        <ele>299.59</ele>
        <time>2021-08-13T09:35:19Z</time>
      </trkpt>
      <trkpt lat="46.62846" lon="3.78915">
        <ele>300.55</ele>
        <time>2021-08-13T09:35:25Z</time>
      </trkpt>
      <trkpt lat="46.62853" lon="3.789">
        <ele>301.51</ele>
        <time>2021-08-13T09:35:35Z</time>
      </trkpt>
      <trkpt lat="46.62854" lon="3.78898">
        <ele>301.51</ele>
        <time>2021-08-13T09:35:36Z</time>
      </trkpt>
      <trkpt lat="46.62855" lon="3.78897">
        <ele>301.51</ele>
        <time>2021-08-13T09:35:37Z</time>
      </trkpt>
      <trkpt lat="46.62855" lon="3.78895">
        <ele>301.99</ele>
        <time>2021-08-13T09:35:38Z</time>
      </trkpt>
      <trkpt lat="46.62856" lon="3.78894">
        <ele>301.99</ele>
        <time>2021-08-13T09:35:39Z</time>
      </trkpt>
      <trkpt lat="46.62857" lon="3.78893">
        <ele>302.47</ele>
        <time>2021-08-13T09:35:40Z</time>
      </trkpt>
      <trkpt lat="46.62858" lon="3.78891">
        <ele>302.47</ele>
        <time>2021-08-13T09:35:41Z</time>
      </trkpt>
      <trkpt lat="46.62858" lon="3.7889">
        <ele>302.47</ele>
        <time>2021-08-13T09:35:42Z</time>
      </trkpt>
      <trkpt lat="46.62859" lon="3.78888">
        <ele>302.95</ele>
        <time>2021-08-13T09:35:43Z</time>
      </trkpt>
      <trkpt lat="46.62859" lon="3.78887">
        <ele>302.95</ele>
        <time>2021-08-13T09:35:44Z</time>
      </trkpt>
      <trkpt lat="46.6286" lon="3.78885">
        <ele>302.95</ele>
        <time>2021-08-13T09:35:45Z</time>
      </trkpt>
      <trkpt lat="46.62867" lon="3.78873">
        <ele>303.91</ele>
        <time>2021-08-13T09:35:53Z</time>
      </trkpt>
      <trkpt lat="46.62872" lon="3.78863">
        <ele>304.88</ele>
        <time>2021-08-13T09:36:01Z</time>
      </trkpt>
      <trkpt lat="46.62876" lon="3.7885">
        <ele>305.84</ele>
        <time>2021-08-13T09:36:10Z</time>
      </trkpt>
      <trkpt lat="46.62877" lon="3.78829">
        <ele>305.84</ele>
        <time>2021-08-13T09:36:18Z</time>
      </trkpt>
      <trkpt lat="46.62882" lon="3.78798">
        <ele>305.84</ele>
        <time>2021-08-13T09:36:26Z</time>
      </trkpt>
      <trkpt lat="46.62899" lon="3.78773">
        <ele>306.32</ele>
        <time>2021-08-13T09:36:34Z</time>
      </trkpt>
      <trkpt lat="46.62915" lon="3.78752">
        <ele>306.8</ele>
        <time>2021-08-13T09:36:42Z</time>
      </trkpt>
      <trkpt lat="46.62925" lon="3.78736">
        <ele>307.76</ele>
        <time>2021-08-13T09:36:49Z</time>
      </trkpt>
      <trkpt lat="46.62934" lon="3.78725">
        <ele>308.72</ele>
        <time>2021-08-13T09:36:55Z</time>
      </trkpt>
      <trkpt lat="46.62947" lon="3.78711">
        <ele>309.2</ele>
        <time>2021-08-13T09:37:02Z</time>
      </trkpt>
      <trkpt lat="46.62954" lon="3.78698">
        <ele>309.2</ele>
        <time>2021-08-13T09:37:07Z</time>
      </trkpt>
      <trkpt lat="46.62953" lon="3.78694">
        <ele>307.76</ele>
        <time>2021-08-13T09:37:08Z</time>
      </trkpt>
      <trkpt lat="46.62952" lon="3.78692">
        <ele>307.76</ele>
        <time>2021-08-13T09:37:09Z</time>
      </trkpt>
      <trkpt lat="46.6295" lon="3.78689">
        <ele>307.76</ele>
        <time>2021-08-13T09:37:10Z</time>
      </trkpt>
      <trkpt lat="46.62949" lon="3.78685">
        <ele>307.76</ele>
        <time>2021-08-13T09:37:11Z</time>
      </trkpt>
      <trkpt lat="46.62947" lon="3.78681">
        <ele>307.28</ele>
        <time>2021-08-13T09:37:12Z</time>
      </trkpt>
      <trkpt lat="46.6293" lon="3.78653">
        <ele>306.32</ele>
        <time>2021-08-13T09:37:19Z</time>
      </trkpt>
      <trkpt lat="46.62925" lon="3.78644">
        <ele>306.32</ele>
        <time>2021-08-13T09:37:21Z</time>
      </trkpt>
      <trkpt lat="46.62896" lon="3.78592">
        <ele>304.39</ele>
        <time>2021-08-13T09:37:31Z</time>
      </trkpt>
      <trkpt lat="46.62877" lon="3.78552">
        <ele>302.47</ele>
        <time>2021-08-13T09:37:38Z</time>
      </trkpt>
      <trkpt lat="46.62859" lon="3.78492">
        <ele>300.55</ele>
        <time>2021-08-13T09:37:46Z</time>
      </trkpt>
      <trkpt lat="46.62841" lon="3.78425">
        <ele>299.11</ele>
        <time>2021-08-13T09:37:54Z</time>
      </trkpt>
      <trkpt lat="46.62821" lon="3.78336">
        <ele>297.18</ele>
        <time>2021-08-13T09:38:04Z</time>
      </trkpt>
      <trkpt lat="46.62803" lon="3.78241">
        <ele>295.74</ele>
        <time>2021-08-13T09:38:15Z</time>
      </trkpt>
      <trkpt lat="46.62791" lon="3.78141">
        <ele>294.78</ele>
        <time>2021-08-13T09:38:27Z</time>
      </trkpt>
      <trkpt lat="46.62783" lon="3.78068">
        <ele>294.78</ele>
        <time>2021-08-13T09:38:37Z</time>
      </trkpt>
      <trkpt lat="46.6277" lon="3.78018">
        <ele>294.78</ele>
        <time>2021-08-13T09:38:45Z</time>
      </trkpt>
      <trkpt lat="46.62754" lon="3.77967">
        <ele>296.7</ele>
        <time>2021-08-13T09:38:55Z</time>
      </trkpt>
      <trkpt lat="46.62742" lon="3.77922">
        <ele>297.18</ele>
        <time>2021-08-13T09:39:04Z</time>
      </trkpt>
      <trkpt lat="46.62731" lon="3.77862">
        <ele>298.15</ele>
        <time>2021-08-13T09:39:16Z</time>
      </trkpt>
      <trkpt lat="46.62724" lon="3.77821">
        <ele>299.11</ele>
        <time>2021-08-13T09:39:25Z</time>
      </trkpt>
      <trkpt lat="46.6272" lon="3.77793">
        <ele>300.07</ele>
        <time>2021-08-13T09:39:32Z</time>
      </trkpt>
      <trkpt lat="46.62713" lon="3.77757">
        <ele>301.03</ele>
        <time>2021-08-13T09:39:40Z</time>
      </trkpt>
      <trkpt lat="46.62701" lon="3.77734">
        <ele>301.99</ele>
        <time>2021-08-13T09:39:46Z</time>
      </trkpt>
      <trkpt lat="46.62685" lon="3.77703">
        <ele>301.51</ele>
        <time>2021-08-13T09:39:54Z</time>
      </trkpt>
      <trkpt lat="46.62678" lon="3.77671">
        <ele>301.51</ele>
        <time>2021-08-13T09:40:01Z</time>
      </trkpt>
      <trkpt lat="46.62676" lon="3.77651">
        <ele>300.07</ele>
        <time>2021-08-13T09:40:04Z</time>
      </trkpt>
      <trkpt lat="46.62671" lon="3.77629">
        <ele>299.11</ele>
        <time>2021-08-13T09:40:07Z</time>
      </trkpt>
      <trkpt lat="46.62668" lon="3.77616">
        <ele>298.63</ele>
        <time>2021-08-13T09:40:09Z</time>
      </trkpt>
      <trkpt lat="46.62663" lon="3.77603">
        <ele>297.67</ele>
        <time>2021-08-13T09:40:11Z</time>
      </trkpt>
      <trkpt lat="46.62661" lon="3.77595">
        <ele>297.67</ele>
        <time>2021-08-13T09:40:12Z</time>
      </trkpt>
      <trkpt lat="46.62645" lon="3.77561">
        <ele>295.26</ele>
        <time>2021-08-13T09:40:18Z</time>
      </trkpt>
      <trkpt lat="46.62634" lon="3.77542">
        <ele>293.82</ele>
        <time>2021-08-13T09:40:21Z</time>
      </trkpt>
      <trkpt lat="46.62617" lon="3.77502">
        <ele>291.9</ele>
        <time>2021-08-13T09:40:26Z</time>
      </trkpt>
      <trkpt lat="46.62595" lon="3.77437">
        <ele>288.53</ele>
        <time>2021-08-13T09:40:33Z</time>
      </trkpt>
      <trkpt lat="46.62591" lon="3.77424">
        <ele>288.05</ele>
        <time>2021-08-13T09:40:35Z</time>
      </trkpt>
      <trkpt lat="46.6259" lon="3.77418">
        <ele>287.57</ele>
        <time>2021-08-13T09:40:36Z</time>
      </trkpt>
      <trkpt lat="46.62588" lon="3.77405">
        <ele>287.57</ele>
        <time>2021-08-13T09:40:40Z</time>
      </trkpt>
      <trkpt lat="46.62587" lon="3.77402">
        <ele>287.57</ele>
        <time>2021-08-13T09:40:41Z</time>
      </trkpt>
      <trkpt lat="46.62586" lon="3.774">
        <ele>287.57</ele>
        <time>2021-08-13T09:40:42Z</time>
      </trkpt>
      <trkpt lat="46.62584" lon="3.77398">
        <ele>287.57</ele>
        <time>2021-08-13T09:40:43Z</time>
      </trkpt>
      <trkpt lat="46.62581" lon="3.77396">
        <ele>287.57</ele>
        <time>2021-08-13T09:40:44Z</time>
      </trkpt>
      <trkpt lat="46.62579" lon="3.77395">
        <ele>287.57</ele>
        <time>2021-08-13T09:40:45Z</time>
      </trkpt>
      <trkpt lat="46.62577" lon="3.77393">
        <ele>287.57</ele>
        <time>2021-08-13T09:40:46Z</time>
      </trkpt>
      <trkpt lat="46.62575" lon="3.77391">
        <ele>287.57</ele>
        <time>2021-08-13T09:40:47Z</time>
      </trkpt>
      <trkpt lat="46.6256" lon="3.77385">
        <ele>287.57</ele>
        <time>2021-08-13T09:40:53Z</time>
      </trkpt>
      <trkpt lat="46.62543" lon="3.77381">
        <ele>288.53</ele>
        <time>2021-08-13T09:41:00Z</time>
      </trkpt>
      <trkpt lat="46.62515" lon="3.77374">
        <ele>289.49</ele>
        <time>2021-08-13T09:41:09Z</time>
      </trkpt>
      <trkpt lat="46.62484" lon="3.77369">
        <ele>290.46</ele>
        <time>2021-08-13T09:41:18Z</time>
      </trkpt>
      <trkpt lat="46.62456" lon="3.77368">
        <ele>290.94</ele>
        <time>2021-08-13T09:41:27Z</time>
      </trkpt>
      <trkpt lat="46.6245" lon="3.77371">
        <ele>291.42</ele>
        <time>2021-08-13T09:41:30Z</time>
      </trkpt>
      <trkpt lat="46.6245" lon="3.77373">
        <ele>291.42</ele>
        <time>2021-08-13T09:41:31Z</time>
      </trkpt>
      <trkpt lat="46.62452" lon="3.77376">
        <ele>291.42</ele>
        <time>2021-08-13T09:41:32Z</time>
      </trkpt>
      <trkpt lat="46.62454" lon="3.77377">
        <ele>291.42</ele>
        <time>2021-08-13T09:41:33Z</time>
      </trkpt>
      <trkpt lat="46.62456" lon="3.77378">
        <ele>291.42</ele>
        <time>2021-08-13T09:41:34Z</time>
      </trkpt>
      <trkpt lat="46.6246" lon="3.77378">
        <ele>291.42</ele>
        <time>2021-08-13T09:41:39Z</time>
      </trkpt>
      <trkpt lat="46.62459" lon="3.77378">
        <ele>291.42</ele>
        <time>2021-08-13T09:41:51Z</time>
      </trkpt>
      <trkpt lat="46.62459" lon="3.77379">
        <ele>291.42</ele>
        <time>2021-08-13T09:42:06Z</time>
      </trkpt>
      <trkpt lat="46.62457" lon="3.77377">
        <ele>291.42</ele>
        <time>2021-08-13T09:42:18Z</time>
      </trkpt>
      <trkpt lat="46.62454" lon="3.77373">
        <ele>291.42</ele>
        <time>2021-08-13T09:42:32Z</time>
      </trkpt>
      <trkpt lat="46.62453" lon="3.77374">
        <ele>291.42</ele>
        <time>2021-08-13T09:42:49Z</time>
      </trkpt>
      <trkpt lat="46.62455" lon="3.77376">
        <ele>291.42</ele>
        <time>2021-08-13T09:43:01Z</time>
      </trkpt>
      <trkpt lat="46.62455" lon="3.77378">
        <ele>291.42</ele>
        <time>2021-08-13T09:43:06Z</time>
      </trkpt>
      <trkpt lat="46.62455" lon="3.77376">
        <ele>291.42</ele>
        <time>2021-08-13T09:43:21Z</time>
      </trkpt>
      <trkpt lat="46.62453" lon="3.77372">
        <ele>291.42</ele>
        <time>2021-08-13T09:43:35Z</time>
      </trkpt>
      <trkpt lat="46.62453" lon="3.77371">
        <ele>291.42</ele>
        <time>2021-08-13T09:43:50Z</time>
      </trkpt>
      <trkpt lat="46.62452" lon="3.77369">
        <ele>291.42</ele>
        <time>2021-08-13T09:44:02Z</time>
      </trkpt>
      <trkpt lat="46.62449" lon="3.77363">
        <ele>291.42</ele>
        <time>2021-08-13T09:44:06Z</time>
      </trkpt>
      <trkpt lat="46.62446" lon="3.77363">
        <ele>291.42</ele>
        <time>2021-08-13T09:44:07Z</time>
      </trkpt>
      <trkpt lat="46.62444" lon="3.77362">
        <ele>291.42</ele>
        <time>2021-08-13T09:44:08Z</time>
      </trkpt>
      <trkpt lat="46.62441" lon="3.77362">
        <ele>291.42</ele>
        <time>2021-08-13T09:44:09Z</time>
      </trkpt>
      <trkpt lat="46.62438" lon="3.77363">
        <ele>291.42</ele>
        <time>2021-08-13T09:44:10Z</time>
      </trkpt>
      <trkpt lat="46.62415" lon="3.77366">
        <ele>291.42</ele>
        <time>2021-08-13T09:44:18Z</time>
      </trkpt>
      <trkpt lat="46.62387" lon="3.77363">
        <ele>291.9</ele>
        <time>2021-08-13T09:44:27Z</time>
      </trkpt>
      <trkpt lat="46.62357" lon="3.77351">
        <ele>291.9</ele>
        <time>2021-08-13T09:44:35Z</time>
      </trkpt>
      <trkpt lat="46.62353" lon="3.7735">
        <ele>291.9</ele>
        <time>2021-08-13T09:44:36Z</time>
      </trkpt>
      <trkpt lat="46.62348" lon="3.77348">
        <ele>291.9</ele>
        <time>2021-08-13T09:44:37Z</time>
      </trkpt>
      <trkpt lat="46.62344" lon="3.77347">
        <ele>291.9</ele>
        <time>2021-08-13T09:44:38Z</time>
      </trkpt>
      <trkpt lat="46.6234" lon="3.77345">
        <ele>291.9</ele>
        <time>2021-08-13T09:44:39Z</time>
      </trkpt>
      <trkpt lat="46.62335" lon="3.77343">
        <ele>291.9</ele>
        <time>2021-08-13T09:44:40Z</time>
      </trkpt>
      <trkpt lat="46.62331" lon="3.77342">
        <ele>291.9</ele>
        <time>2021-08-13T09:44:41Z</time>
      </trkpt>
      <trkpt lat="46.62312" lon="3.77334">
        <ele>291.9</ele>
        <time>2021-08-13T09:44:45Z</time>
      </trkpt>
      <trkpt lat="46.62307" lon="3.77332">
        <ele>291.9</ele>
        <time>2021-08-13T09:44:46Z</time>
      </trkpt>
      <trkpt lat="46.62302" lon="3.7733">
        <ele>291.9</ele>
        <time>2021-08-13T09:44:47Z</time>
      </trkpt>
      <trkpt lat="46.62297" lon="3.7733">
        <ele>291.9</ele>
        <time>2021-08-13T09:44:48Z</time>
      </trkpt>
      <trkpt lat="46.62293" lon="3.7733">
        <ele>291.9</ele>
        <time>2021-08-13T09:44:49Z</time>
      </trkpt>
      <trkpt lat="46.62252" lon="3.77324">
        <ele>290.94</ele>
        <time>2021-08-13T09:44:57Z</time>
      </trkpt>
      <trkpt lat="46.62214" lon="3.77317">
        <ele>289.97</ele>
        <time>2021-08-13T09:45:04Z</time>
      </trkpt>
      <trkpt lat="46.62174" lon="3.77298">
        <ele>289.97</ele>
        <time>2021-08-13T09:45:12Z</time>
      </trkpt>
      <trkpt lat="46.62168" lon="3.77293">
        <ele>289.97</ele>
        <time>2021-08-13T09:45:14Z</time>
      </trkpt>
      <trkpt lat="46.62149" lon="3.77282">
        <ele>289.97</ele>
        <time>2021-08-13T09:45:18Z</time>
      </trkpt>
      <trkpt lat="46.6214" lon="3.77275">
        <ele>289.97</ele>
        <time>2021-08-13T09:45:20Z</time>
      </trkpt>
      <trkpt lat="46.62105" lon="3.77256">
        <ele>289.97</ele>
        <time>2021-08-13T09:45:28Z</time>
      </trkpt>
      <trkpt lat="46.62066" lon="3.77235">
        <ele>289.01</ele>
        <time>2021-08-13T09:45:37Z</time>
      </trkpt>
      <trkpt lat="46.62048" lon="3.77215">
        <ele>288.05</ele>
        <time>2021-08-13T09:45:43Z</time>
      </trkpt>
      <trkpt lat="46.62048" lon="3.77198">
        <ele>287.57</ele>
        <time>2021-08-13T09:45:46Z</time>
      </trkpt>
      <trkpt lat="46.62055" lon="3.77167">
        <ele>286.13</ele>
        <time>2021-08-13T09:45:52Z</time>
      </trkpt>
      <trkpt lat="46.62058" lon="3.77161">
        <ele>286.13</ele>
        <time>2021-08-13T09:45:57Z</time>
      </trkpt>
      <trkpt lat="46.62057" lon="3.7716">
        <ele>286.13</ele>
        <time>2021-08-13T09:46:07Z</time>
      </trkpt>
      <trkpt lat="46.62057" lon="3.77158">
        <ele>286.13</ele>
        <time>2021-08-13T09:46:19Z</time>
      </trkpt>
      <trkpt lat="46.62057" lon="3.77156">
        <ele>286.13</ele>
        <time>2021-08-13T09:46:24Z</time>
      </trkpt>
      <trkpt lat="46.62059" lon="3.77156">
        <ele>285.65</ele>
        <time>2021-08-13T09:46:39Z</time>
      </trkpt>
      <trkpt lat="46.62062" lon="3.7716">
        <ele>285.65</ele>
        <time>2021-08-13T09:47:00Z</time>
      </trkpt>
      <trkpt lat="46.62061" lon="3.77162">
        <ele>285.65</ele>
        <time>2021-08-13T09:47:17Z</time>
      </trkpt>
      <trkpt lat="46.62059" lon="3.77163">
        <ele>285.65</ele>
        <time>2021-08-13T09:47:38Z</time>
      </trkpt>
      <trkpt lat="46.62059" lon="3.77165">
        <ele>285.65</ele>
        <time>2021-08-13T09:47:56Z</time>
      </trkpt>
      <trkpt lat="46.6206" lon="3.77165">
        <ele>285.65</ele>
        <time>2021-08-13T09:48:11Z</time>
      </trkpt>
      <trkpt lat="46.62059" lon="3.77166">
        <ele>285.65</ele>
        <time>2021-08-13T09:48:29Z</time>
      </trkpt>
      <trkpt lat="46.62059" lon="3.77164">
        <ele>285.65</ele>
        <time>2021-08-13T09:48:47Z</time>
      </trkpt>
      <trkpt lat="46.6206" lon="3.77165">
        <ele>285.65</ele>
        <time>2021-08-13T09:49:04Z</time>
      </trkpt>
      <trkpt lat="46.6206" lon="3.77166">
        <ele>285.65</ele>
        <time>2021-08-13T09:49:21Z</time>
      </trkpt>
      <trkpt lat="46.62059" lon="3.77168">
        <ele>285.65</ele>
        <time>2021-08-13T09:49:38Z</time>
      </trkpt>
      <trkpt lat="46.62057" lon="3.7717">
        <ele>285.65</ele>
        <time>2021-08-13T09:49:57Z</time>
      </trkpt>
      <trkpt lat="46.62056" lon="3.7717">
        <ele>285.65</ele>
        <time>2021-08-13T09:50:14Z</time>
      </trkpt>
      <trkpt lat="46.62054" lon="3.7717">
        <ele>285.65</ele>
        <time>2021-08-13T09:50:30Z</time>
      </trkpt>
      <trkpt lat="46.62054" lon="3.77173">
        <ele>285.65</ele>
        <time>2021-08-13T09:50:39Z</time>
      </trkpt>
      <trkpt lat="46.62056" lon="3.77172">
        <ele>285.65</ele>
        <time>2021-08-13T09:50:41Z</time>
      </trkpt>
      <trkpt lat="46.62057" lon="3.77171">
        <ele>285.65</ele>
        <time>2021-08-13T09:50:42Z</time>
      </trkpt>
      <trkpt lat="46.62058" lon="3.7717">
        <ele>285.65</ele>
        <time>2021-08-13T09:50:47Z</time>
      </trkpt>
      <trkpt lat="46.62055" lon="3.77171">
        <ele>285.65</ele>
        <time>2021-08-13T09:51:04Z</time>
      </trkpt>
      <trkpt lat="46.62054" lon="3.77169">
        <ele>285.65</ele>
        <time>2021-08-13T09:51:18Z</time>
      </trkpt>
      <trkpt lat="46.62054" lon="3.77171">
        <ele>285.65</ele>
        <time>2021-08-13T09:51:38Z</time>
      </trkpt>
      <trkpt lat="46.62054" lon="3.77172">
        <ele>285.65</ele>
        <time>2021-08-13T09:51:54Z</time>
      </trkpt>
      <trkpt lat="46.62055" lon="3.77172">
        <ele>285.65</ele>
        <time>2021-08-13T09:52:07Z</time>
      </trkpt>
      <trkpt lat="46.62055" lon="3.77167">
        <ele>285.65</ele>
        <time>2021-08-13T09:52:20Z</time>
      </trkpt>
      <trkpt lat="46.62057" lon="3.77163">
        <ele>286.13</ele>
        <time>2021-08-13T09:52:39Z</time>
      </trkpt>
      <trkpt lat="46.62059" lon="3.7716">
        <ele>286.13</ele>
        <time>2021-08-13T09:52:51Z</time>
      </trkpt>
      <trkpt lat="46.6206" lon="3.77159">
        <ele>286.13</ele>
        <time>2021-08-13T09:53:06Z</time>
      </trkpt>
      <trkpt lat="46.62061" lon="3.77158">
        <ele>286.13</ele>
        <time>2021-08-13T09:53:18Z</time>
      </trkpt>
      <trkpt lat="46.62064" lon="3.77158">
        <ele>286.13</ele>
        <time>2021-08-13T09:53:34Z</time>
      </trkpt>
      <trkpt lat="46.62063" lon="3.77158">
        <ele>286.13</ele>
        <time>2021-08-13T09:53:54Z</time>
      </trkpt>
      <trkpt lat="46.62062" lon="3.77159">
        <ele>286.13</ele>
        <time>2021-08-13T09:54:07Z</time>
      </trkpt>
      <trkpt lat="46.62059" lon="3.77158">
        <ele>286.13</ele>
        <time>2021-08-13T09:54:23Z</time>
      </trkpt>
      <trkpt lat="46.62057" lon="3.77159">
        <ele>286.13</ele>
        <time>2021-08-13T09:54:33Z</time>
      </trkpt>
      <trkpt lat="46.62057" lon="3.77158">
        <ele>286.13</ele>
        <time>2021-08-13T09:54:47Z</time>
      </trkpt>
      <trkpt lat="46.62058" lon="3.77158">
        <ele>286.13</ele>
        <time>2021-08-13T09:54:54Z</time>
      </trkpt>
      <trkpt lat="46.62058" lon="3.77157">
        <ele>286.13</ele>
        <time>2021-08-13T09:55:07Z</time>
      </trkpt>
      <trkpt lat="46.6206" lon="3.77157">
        <ele>286.13</ele>
        <time>2021-08-13T09:55:08Z</time>
      </trkpt>
      <trkpt lat="46.6206" lon="3.77158">
        <ele>286.13</ele>
        <time>2021-08-13T09:55:14Z</time>
      </trkpt>
      <trkpt lat="46.6206" lon="3.77159">
        <ele>286.13</ele>
        <time>2021-08-13T09:55:33Z</time>
      </trkpt>
      <trkpt lat="46.62061" lon="3.77159">
        <ele>286.13</ele>
        <time>2021-08-13T09:55:52Z</time>
      </trkpt>
      <trkpt lat="46.62059" lon="3.77159">
        <ele>285.65</ele>
        <time>2021-08-13T09:56:12Z</time>
      </trkpt>
      <trkpt lat="46.62059" lon="3.77158">
        <ele>287.09</ele>
        <time>2021-08-13T09:56:27Z</time>
      </trkpt>
      <trkpt lat="46.6206" lon="3.77159">
        <ele>286.61</ele>
        <time>2021-08-13T09:56:43Z</time>
      </trkpt>
      <trkpt lat="46.62059" lon="3.7716">
        <ele>286.61</ele>
        <time>2021-08-13T09:57:02Z</time>
      </trkpt>
      <trkpt lat="46.62058" lon="3.77161">
        <ele>286.61</ele>
        <time>2021-08-13T09:57:19Z</time>
      </trkpt>
      <trkpt lat="46.62058" lon="3.7716">
        <ele>286.61</ele>
        <time>2021-08-13T09:57:35Z</time>
      </trkpt>
      <trkpt lat="46.62057" lon="3.7716">
        <ele>286.61</ele>
        <time>2021-08-13T09:57:58Z</time>
      </trkpt>
      <trkpt lat="46.62057" lon="3.77159">
        <ele>286.61</ele>
        <time>2021-08-13T09:58:15Z</time>
      </trkpt>
      <trkpt lat="46.62058" lon="3.77159">
        <ele>286.61</ele>
        <time>2021-08-13T09:58:34Z</time>
      </trkpt>
      <trkpt lat="46.62062" lon="3.77159">
        <ele>286.13</ele>
        <time>2021-08-13T09:58:59Z</time>
      </trkpt>
      <trkpt lat="46.62063" lon="3.77159">
        <ele>286.13</ele>
        <time>2021-08-13T09:59:17Z</time>
      </trkpt>
      <trkpt lat="46.6206" lon="3.7716">
        <ele>286.13</ele>
        <time>2021-08-13T09:59:45Z</time>
      </trkpt>
      <trkpt lat="46.62059" lon="3.7716">
        <ele>286.61</ele>
        <time>2021-08-13T10:00:03Z</time>
      </trkpt>
      <trkpt lat="46.62057" lon="3.77159">
        <ele>286.61</ele>
        <time>2021-08-13T10:00:14Z</time>
      </trkpt>
      <trkpt lat="46.62057" lon="3.77159">
        <ele>286.61</ele>
        <time>2021-08-13T10:00:35Z</time>
      </trkpt>
      <trkpt lat="46.62056" lon="3.77158">
        <ele>286.61</ele>
        <time>2021-08-13T10:00:50Z</time>
      </trkpt>
      <trkpt lat="46.62055" lon="3.77158">
        <ele>286.13</ele>
        <time>2021-08-13T10:01:06Z</time>
      </trkpt>
      <trkpt lat="46.62055" lon="3.77159">
        <ele>286.13</ele>
        <time>2021-08-13T10:01:29Z</time>
      </trkpt>
      <trkpt lat="46.62056" lon="3.77159">
        <ele>286.13</ele>
        <time>2021-08-13T10:01:50Z</time>
      </trkpt>
      <trkpt lat="46.62059" lon="3.77158">
        <ele>286.13</ele>
        <time>2021-08-13T10:02:10Z</time>
      </trkpt>
      <trkpt lat="46.62061" lon="3.77157">
        <ele>286.13</ele>
        <time>2021-08-13T10:02:20Z</time>
      </trkpt>
      <trkpt lat="46.62061" lon="3.77157">
        <ele>286.13</ele>
        <time>2021-08-13T10:02:35Z</time>
      </trkpt>
      <trkpt lat="46.6206" lon="3.77159">
        <ele>286.13</ele>
        <time>2021-08-13T10:02:52Z</time>
      </trkpt>
      <trkpt lat="46.62062" lon="3.77156">
        <ele>286.13</ele>
        <time>2021-08-13T10:03:11Z</time>
      </trkpt>
      <trkpt lat="46.62063" lon="3.77155">
        <ele>286.13</ele>
        <time>2021-08-13T10:03:34Z</time>
      </trkpt>
      <trkpt lat="46.62063" lon="3.77154">
        <ele>285.65</ele>
        <time>2021-08-13T10:03:51Z</time>
      </trkpt>
      <trkpt lat="46.62062" lon="3.77156">
        <ele>285.65</ele>
        <time>2021-08-13T10:04:13Z</time>
      </trkpt>
      <trkpt lat="46.62058" lon="3.77155">
        <ele>285.65</ele>
        <time>2021-08-13T10:04:38Z</time>
      </trkpt>
      <trkpt lat="46.62056" lon="3.77157">
        <ele>285.65</ele>
        <time>2021-08-13T10:04:59Z</time>
      </trkpt>
      <trkpt lat="46.62056" lon="3.77156">
        <ele>285.65</ele>
        <time>2021-08-13T10:05:22Z</time>
      </trkpt>
      <trkpt lat="46.62057" lon="3.77157">
        <ele>285.65</ele>
        <time>2021-08-13T10:05:42Z</time>
      </trkpt>
      <trkpt lat="46.62057" lon="3.77156">
        <ele>285.65</ele>
        <time>2021-08-13T10:06:02Z</time>
      </trkpt>
      <trkpt lat="46.62057" lon="3.77157">
        <ele>285.65</ele>
        <time>2021-08-13T10:06:16Z</time>
      </trkpt>
      <trkpt lat="46.62056" lon="3.77159">
        <ele>285.65</ele>
        <time>2021-08-13T10:06:31Z</time>
      </trkpt>
      <trkpt lat="46.62056" lon="3.7716">
        <ele>285.65</ele>
        <time>2021-08-13T10:06:54Z</time>
      </trkpt>
      <trkpt lat="46.62056" lon="3.77159">
        <ele>285.65</ele>
        <time>2021-08-13T10:07:14Z</time>
      </trkpt>
      <trkpt lat="46.62056" lon="3.77159">
        <ele>285.65</ele>
        <time>2021-08-13T10:07:39Z</time>
      </trkpt>
      <trkpt lat="46.62057" lon="3.7716">
        <ele>286.13</ele>
        <time>2021-08-13T10:08:00Z</time>
      </trkpt>
      <trkpt lat="46.62059" lon="3.77158">
        <ele>286.13</ele>
        <time>2021-08-13T10:08:25Z</time>
      </trkpt>
      <trkpt lat="46.62058" lon="3.77157">
        <ele>286.13</ele>
        <time>2021-08-13T10:08:44Z</time>
      </trkpt>
      <trkpt lat="46.62057" lon="3.7716">
        <ele>286.13</ele>
        <time>2021-08-13T10:09:07Z</time>
      </trkpt>
      <trkpt lat="46.62059" lon="3.7716">
        <ele>285.65</ele>
        <time>2021-08-13T10:09:30Z</time>
      </trkpt>
      <trkpt lat="46.6206" lon="3.7716">
        <ele>285.65</ele>
        <time>2021-08-13T10:09:49Z</time>
      </trkpt>
      <trkpt lat="46.6206" lon="3.77162">
        <ele>285.65</ele>
        <time>2021-08-13T10:09:57Z</time>
      </trkpt>
      <trkpt lat="46.6206" lon="3.77163">
        <ele>285.65</ele>
        <time>2021-08-13T10:10:07Z</time>
      </trkpt>
      <trkpt lat="46.62057" lon="3.77169">
        <ele>285.65</ele>
        <time>2021-08-13T10:10:12Z</time>
      </trkpt>
      <trkpt lat="46.62053" lon="3.77177">
        <ele>286.13</ele>
        <time>2021-08-13T10:10:16Z</time>
      </trkpt>
      <trkpt lat="46.62051" lon="3.77182">
        <ele>286.13</ele>
        <time>2021-08-13T10:10:18Z</time>
      </trkpt>
      <trkpt lat="46.6205" lon="3.77184">
        <ele>286.13</ele>
        <time>2021-08-13T10:10:19Z</time>
      </trkpt>
      <trkpt lat="46.62041" lon="3.77203">
        <ele>287.09</ele>
        <time>2021-08-13T10:10:26Z</time>
      </trkpt>
      <trkpt lat="46.6203" lon="3.77217">
        <ele>287.57</ele>
        <time>2021-08-13T10:10:33Z</time>
      </trkpt>
      <trkpt lat="46.62027" lon="3.77219">
        <ele>287.57</ele>
        <time>2021-08-13T10:10:35Z</time>
      </trkpt>
      <trkpt lat="46.62025" lon="3.77219">
        <ele>287.57</ele>
        <time>2021-08-13T10:10:36Z</time>
      </trkpt>
      <trkpt lat="46.62006" lon="3.77223">
        <ele>287.57</ele>
        <time>2021-08-13T10:10:44Z</time>
      </trkpt>
      <trkpt lat="46.6199" lon="3.77227">
        <ele>286.13</ele>
        <time>2021-08-13T10:10:50Z</time>
      </trkpt>
      <trkpt lat="46.6198" lon="3.77229">
        <ele>285.65</ele>
        <time>2021-08-13T10:10:56Z</time>
      </trkpt>
      <trkpt lat="46.61969" lon="3.77228">
        <ele>285.17</ele>
        <time>2021-08-13T10:11:01Z</time>
      </trkpt>
      <trkpt lat="46.61964" lon="3.77229">
        <ele>285.17</ele>
        <time>2021-08-13T10:11:02Z</time>
      </trkpt>
      <trkpt lat="46.61959" lon="3.77232">
        <ele>284.69</ele>
        <time>2021-08-13T10:11:03Z</time>
      </trkpt>
      <trkpt lat="46.61955" lon="3.77233">
        <ele>284.69</ele>
        <time>2021-08-13T10:11:04Z</time>
      </trkpt>
      <trkpt lat="46.6195" lon="3.77233">
        <ele>284.69</ele>
        <time>2021-08-13T10:11:05Z</time>
      </trkpt>
      <trkpt lat="46.61945" lon="3.77234">
        <ele>284.21</ele>
        <time>2021-08-13T10:11:06Z</time>
      </trkpt>
      <trkpt lat="46.6194" lon="3.77236">
        <ele>284.21</ele>
        <time>2021-08-13T10:11:07Z</time>
      </trkpt>
      <trkpt lat="46.61936" lon="3.77237">
        <ele>284.21</ele>
        <time>2021-08-13T10:11:08Z</time>
      </trkpt>
      <trkpt lat="46.61922" lon="3.77241">
        <ele>283.25</ele>
        <time>2021-08-13T10:11:12Z</time>
      </trkpt>
      <trkpt lat="46.61921" lon="3.77239">
        <ele>283.25</ele>
        <time>2021-08-13T10:11:13Z</time>
      </trkpt>
      <trkpt lat="46.61922" lon="3.77234">
        <ele>283.25</ele>
        <time>2021-08-13T10:11:14Z</time>
      </trkpt>
      <trkpt lat="46.61922" lon="3.77229">
        <ele>283.25</ele>
        <time>2021-08-13T10:11:15Z</time>
      </trkpt>
      <trkpt lat="46.61922" lon="3.77224">
        <ele>283.25</ele>
        <time>2021-08-13T10:11:16Z</time>
      </trkpt>
      <trkpt lat="46.61923" lon="3.77218">
        <ele>282.77</ele>
        <time>2021-08-13T10:11:17Z</time>
      </trkpt>
      <trkpt lat="46.61923" lon="3.77211">
        <ele>282.77</ele>
        <time>2021-08-13T10:11:18Z</time>
      </trkpt>
      <trkpt lat="46.61923" lon="3.77205">
        <ele>282.77</ele>
        <time>2021-08-13T10:11:19Z</time>
      </trkpt>
      <trkpt lat="46.61924" lon="3.77199">
        <ele>282.77</ele>
        <time>2021-08-13T10:11:20Z</time>
      </trkpt>
      <trkpt lat="46.61933" lon="3.77155">
        <ele>281.8</ele>
        <time>2021-08-13T10:11:27Z</time>
      </trkpt>
      <trkpt lat="46.61934" lon="3.77149">
        <ele>281.8</ele>
        <time>2021-08-13T10:11:28Z</time>
      </trkpt>
      <trkpt lat="46.61937" lon="3.77144">
        <ele>281.32</ele>
        <time>2021-08-13T10:11:29Z</time>
      </trkpt>
      <trkpt lat="46.61939" lon="3.77139">
        <ele>280.36</ele>
        <time>2021-08-13T10:11:30Z</time>
      </trkpt>
      <trkpt lat="46.61942" lon="3.77135">
        <ele>280.36</ele>
        <time>2021-08-13T10:11:31Z</time>
      </trkpt>
      <trkpt lat="46.61946" lon="3.77124">
        <ele>279.4</ele>
        <time>2021-08-13T10:11:33Z</time>
      </trkpt>
      <trkpt lat="46.61949" lon="3.77118">
        <ele>278.44</ele>
        <time>2021-08-13T10:11:34Z</time>
      </trkpt>
      <trkpt lat="46.61953" lon="3.77111">
        <ele>278.44</ele>
        <time>2021-08-13T10:11:35Z</time>
      </trkpt>
      <trkpt lat="46.61957" lon="3.77104">
        <ele>278.44</ele>
        <time>2021-08-13T10:11:36Z</time>
      </trkpt>
      <trkpt lat="46.61961" lon="3.77097">
        <ele>278.44</ele>
        <time>2021-08-13T10:11:37Z</time>
      </trkpt>
      <trkpt lat="46.61963" lon="3.7709">
        <ele>277.96</ele>
        <time>2021-08-13T10:11:38Z</time>
      </trkpt>
      <trkpt lat="46.61966" lon="3.77082">
        <ele>277.96</ele>
        <time>2021-08-13T10:11:39Z</time>
      </trkpt>
      <trkpt lat="46.61968" lon="3.77075">
        <ele>277.96</ele>
        <time>2021-08-13T10:11:40Z</time>
      </trkpt>
      <trkpt lat="46.6197" lon="3.77067">
        <ele>277.96</ele>
        <time>2021-08-13T10:11:41Z</time>
      </trkpt>
      <trkpt lat="46.61979" lon="3.77041">
        <ele>277.48</ele>
        <time>2021-08-13T10:11:45Z</time>
      </trkpt>
      <trkpt lat="46.61982" lon="3.77035">
        <ele>277.48</ele>
        <time>2021-08-13T10:11:46Z</time>
      </trkpt>
      <trkpt lat="46.61996" lon="3.77">
        <ele>274.11</ele>
        <time>2021-08-13T10:11:51Z</time>
      </trkpt>
      <trkpt lat="46.62028" lon="3.76951">
        <ele>271.23</ele>
        <time>2021-08-13T10:11:57Z</time>
      </trkpt>
      <trkpt lat="46.62049" lon="3.76918">
        <ele>269.31</ele>
        <time>2021-08-13T10:12:01Z</time>
      </trkpt>
      <trkpt lat="46.62058" lon="3.76901">
        <ele>268.35</ele>
        <time>2021-08-13T10:12:03Z</time>
      </trkpt>
      <trkpt lat="46.62071" lon="3.76877">
        <ele>267.38</ele>
        <time>2021-08-13T10:12:06Z</time>
      </trkpt>
      <trkpt lat="46.62076" lon="3.7687">
        <ele>266.42</ele>
        <time>2021-08-13T10:12:07Z</time>
      </trkpt>
      <trkpt lat="46.62082" lon="3.76864">
        <ele>265.94</ele>
        <time>2021-08-13T10:12:08Z</time>
      </trkpt>
      <trkpt lat="46.62089" lon="3.76859">
        <ele>265.94</ele>
        <time>2021-08-13T10:12:09Z</time>
      </trkpt>
      <trkpt lat="46.62094" lon="3.76854">
        <ele>265.94</ele>
        <time>2021-08-13T10:12:10Z</time>
      </trkpt>
      <trkpt lat="46.62099" lon="3.76848">
        <ele>265.46</ele>
        <time>2021-08-13T10:12:11Z</time>
      </trkpt>
      <trkpt lat="46.62102" lon="3.7684">
        <ele>265.46</ele>
        <time>2021-08-13T10:12:12Z</time>
      </trkpt>
      <trkpt lat="46.62104" lon="3.76832">
        <ele>264.98</ele>
        <time>2021-08-13T10:12:13Z</time>
      </trkpt>
      <trkpt lat="46.62106" lon="3.76823">
        <ele>264.02</ele>
        <time>2021-08-13T10:12:14Z</time>
      </trkpt>
      <trkpt lat="46.62106" lon="3.76815">
        <ele>263.54</ele>
        <time>2021-08-13T10:12:15Z</time>
      </trkpt>
      <trkpt lat="46.62106" lon="3.76806">
        <ele>263.06</ele>
        <time>2021-08-13T10:12:16Z</time>
      </trkpt>
      <trkpt lat="46.62105" lon="3.76796">
        <ele>262.58</ele>
        <time>2021-08-13T10:12:17Z</time>
      </trkpt>
      <trkpt lat="46.62103" lon="3.76786">
        <ele>261.62</ele>
        <time>2021-08-13T10:12:18Z</time>
      </trkpt>
      <trkpt lat="46.62101" lon="3.76779">
        <ele>261.14</ele>
        <time>2021-08-13T10:12:19Z</time>
      </trkpt>
      <trkpt lat="46.62098" lon="3.76771">
        <ele>260.17</ele>
        <time>2021-08-13T10:12:20Z</time>
      </trkpt>
      <trkpt lat="46.62094" lon="3.76764">
        <ele>259.69</ele>
        <time>2021-08-13T10:12:21Z</time>
      </trkpt>
      <trkpt lat="46.6209" lon="3.76759">
        <ele>259.21</ele>
        <time>2021-08-13T10:12:22Z</time>
      </trkpt>
      <trkpt lat="46.62085" lon="3.76755">
        <ele>258.73</ele>
        <time>2021-08-13T10:12:23Z</time>
      </trkpt>
      <trkpt lat="46.62081" lon="3.76752">
        <ele>258.25</ele>
        <time>2021-08-13T10:12:24Z</time>
      </trkpt>
      <trkpt lat="46.62075" lon="3.7675">
        <ele>257.77</ele>
        <time>2021-08-13T10:12:25Z</time>
      </trkpt>
      <trkpt lat="46.62071" lon="3.7675">
        <ele>258.25</ele>
        <time>2021-08-13T10:12:26Z</time>
      </trkpt>
      <trkpt lat="46.62068" lon="3.7675">
        <ele>257.77</ele>
        <time>2021-08-13T10:12:27Z</time>
      </trkpt>
      <trkpt lat="46.62065" lon="3.76751">
        <ele>257.77</ele>
        <time>2021-08-13T10:12:28Z</time>
      </trkpt>
      <trkpt lat="46.62063" lon="3.76753">
        <ele>257.77</ele>
        <time>2021-08-13T10:12:29Z</time>
      </trkpt>
      <trkpt lat="46.62062" lon="3.76753">
        <ele>257.77</ele>
        <time>2021-08-13T10:12:30Z</time>
      </trkpt>
      <trkpt lat="46.6206" lon="3.76754">
        <ele>257.77</ele>
        <time>2021-08-13T10:12:31Z</time>
      </trkpt>
      <trkpt lat="46.6206" lon="3.76755">
        <ele>257.77</ele>
        <time>2021-08-13T10:12:32Z</time>
      </trkpt>
      <trkpt lat="46.62061" lon="3.76757">
        <ele>258.25</ele>
        <time>2021-08-13T10:12:35Z</time>
      </trkpt>
      <trkpt lat="46.62062" lon="3.76755">
        <ele>258.25</ele>
        <time>2021-08-13T10:12:36Z</time>
      </trkpt>
      <trkpt lat="46.62063" lon="3.76754">
        <ele>258.25</ele>
        <time>2021-08-13T10:12:37Z</time>
      </trkpt>
      <trkpt lat="46.62065" lon="3.76752">
        <ele>258.25</ele>
        <time>2021-08-13T10:12:38Z</time>
      </trkpt>
      <trkpt lat="46.62067" lon="3.76751">
        <ele>258.25</ele>
        <time>2021-08-13T10:12:39Z</time>
      </trkpt>
      <trkpt lat="46.62069" lon="3.7675">
        <ele>258.25</ele>
        <time>2021-08-13T10:12:40Z</time>
      </trkpt>
      <trkpt lat="46.62072" lon="3.7675">
        <ele>258.25</ele>
        <time>2021-08-13T10:12:41Z</time>
      </trkpt>
      <trkpt lat="46.62076" lon="3.76751">
        <ele>258.25</ele>
        <time>2021-08-13T10:12:42Z</time>
      </trkpt>
      <trkpt lat="46.62091" lon="3.76763">
        <ele>259.69</ele>
        <time>2021-08-13T10:12:48Z</time>
      </trkpt>
      <trkpt lat="46.621" lon="3.76781">
        <ele>261.14</ele>
        <time>2021-08-13T10:12:56Z</time>
      </trkpt>
      <trkpt lat="46.62105" lon="3.76798">
        <ele>263.06</ele>
        <time>2021-08-13T10:13:02Z</time>
      </trkpt>
      <trkpt lat="46.62106" lon="3.76804">
        <ele>263.54</ele>
        <time>2021-08-13T10:13:06Z</time>
      </trkpt>
      <trkpt lat="46.62106" lon="3.76806">
        <ele>263.54</ele>
        <time>2021-08-13T10:13:07Z</time>
      </trkpt>
      <trkpt lat="46.62106" lon="3.76808">
        <ele>264.02</ele>
        <time>2021-08-13T10:13:08Z</time>
      </trkpt>
      <trkpt lat="46.62107" lon="3.7681">
        <ele>264.02</ele>
        <time>2021-08-13T10:13:09Z</time>
      </trkpt>
      <trkpt lat="46.62107" lon="3.76812">
        <ele>264.02</ele>
        <time>2021-08-13T10:13:10Z</time>
      </trkpt>
      <trkpt lat="46.62107" lon="3.76814">
        <ele>264.02</ele>
        <time>2021-08-13T10:13:11Z</time>
      </trkpt>
      <trkpt lat="46.62109" lon="3.76815">
        <ele>264.02</ele>
        <time>2021-08-13T10:13:12Z</time>
      </trkpt>
      <trkpt lat="46.6211" lon="3.76816">
        <ele>264.02</ele>
        <time>2021-08-13T10:13:13Z</time>
      </trkpt>
      <trkpt lat="46.62111" lon="3.76815">
        <ele>264.02</ele>
        <time>2021-08-13T10:13:14Z</time>
      </trkpt>
      <trkpt lat="46.62113" lon="3.76815">
        <ele>264.02</ele>
        <time>2021-08-13T10:13:15Z</time>
      </trkpt>
      <trkpt lat="46.62115" lon="3.76814">
        <ele>264.02</ele>
        <time>2021-08-13T10:13:16Z</time>
      </trkpt>
      <trkpt lat="46.62118" lon="3.76813">
        <ele>264.02</ele>
        <time>2021-08-13T10:13:17Z</time>
      </trkpt>
      <trkpt lat="46.62119" lon="3.76811">
        <ele>264.02</ele>
        <time>2021-08-13T10:13:18Z</time>
      </trkpt>
      <trkpt lat="46.6212" lon="3.76808">
        <ele>262.58</ele>
        <time>2021-08-13T10:13:19Z</time>
      </trkpt>
      <trkpt lat="46.62121" lon="3.76803">
        <ele>262.58</ele>
        <time>2021-08-13T10:13:20Z</time>
      </trkpt>
      <trkpt lat="46.62122" lon="3.76799">
        <ele>262.1</ele>
        <time>2021-08-13T10:13:21Z</time>
      </trkpt>
      <trkpt lat="46.62125" lon="3.76789">
        <ele>261.62</ele>
        <time>2021-08-13T10:13:23Z</time>
      </trkpt>
      <trkpt lat="46.62127" lon="3.76785">
        <ele>260.65</ele>
        <time>2021-08-13T10:13:24Z</time>
      </trkpt>
      <trkpt lat="46.6213" lon="3.7678">
        <ele>260.65</ele>
        <time>2021-08-13T10:13:25Z</time>
      </trkpt>
      <trkpt lat="46.62132" lon="3.76775">
        <ele>260.17</ele>
        <time>2021-08-13T10:13:26Z</time>
      </trkpt>
      <trkpt lat="46.62131" lon="3.7677">
        <ele>260.17</ele>
        <time>2021-08-13T10:13:27Z</time>
      </trkpt>
      <trkpt lat="46.6213" lon="3.76765">
        <ele>259.69</ele>
        <time>2021-08-13T10:13:28Z</time>
      </trkpt>
      <trkpt lat="46.62132" lon="3.76744">
        <ele>258.73</ele>
        <time>2021-08-13T10:13:33Z</time>
      </trkpt>
      <trkpt lat="46.62136" lon="3.76717">
        <ele>257.29</ele>
        <time>2021-08-13T10:13:40Z</time>
      </trkpt>
      <trkpt lat="46.62139" lon="3.76691">
        <ele>255.37</ele>
        <time>2021-08-13T10:13:45Z</time>
      </trkpt>
      <trkpt lat="46.62138" lon="3.76669">
        <ele>253.93</ele>
        <time>2021-08-13T10:13:48Z</time>
      </trkpt>
      <trkpt lat="46.62136" lon="3.76663">
        <ele>253.93</ele>
        <time>2021-08-13T10:13:49Z</time>
      </trkpt>
      <trkpt lat="46.62132" lon="3.76656">
        <ele>253.44</ele>
        <time>2021-08-13T10:13:50Z</time>
      </trkpt>
      <trkpt lat="46.62128" lon="3.76652">
        <ele>252.96</ele>
        <time>2021-08-13T10:13:51Z</time>
      </trkpt>
      <trkpt lat="46.62123" lon="3.76649">
        <ele>252.48</ele>
        <time>2021-08-13T10:13:52Z</time>
      </trkpt>
      <trkpt lat="46.62118" lon="3.76646">
        <ele>252.48</ele>
        <time>2021-08-13T10:13:53Z</time>
      </trkpt>
      <trkpt lat="46.62113" lon="3.76642">
        <ele>252</ele>
        <time>2021-08-13T10:13:54Z</time>
      </trkpt>
      <trkpt lat="46.62102" lon="3.76627">
        <ele>250.56</ele>
        <time>2021-08-13T10:13:59Z</time>
      </trkpt>
      <trkpt lat="46.62102" lon="3.76623">
        <ele>250.08</ele>
        <time>2021-08-13T10:14:00Z</time>
      </trkpt>
      <trkpt lat="46.62107" lon="3.76595">
        <ele>249.12</ele>
        <time>2021-08-13T10:14:06Z</time>
      </trkpt>
      <trkpt lat="46.62109" lon="3.76577">
        <ele>248.64</ele>
        <time>2021-08-13T10:14:09Z</time>
      </trkpt>
      <trkpt lat="46.62107" lon="3.76572">
        <ele>248.16</ele>
        <time>2021-08-13T10:14:10Z</time>
      </trkpt>
      <trkpt lat="46.62104" lon="3.76569">
        <ele>247.68</ele>
        <time>2021-08-13T10:14:11Z</time>
      </trkpt>
      <trkpt lat="46.62101" lon="3.76565">
        <ele>247.68</ele>
        <time>2021-08-13T10:14:12Z</time>
      </trkpt>
      <trkpt lat="46.62099" lon="3.7656">
        <ele>247.68</ele>
        <time>2021-08-13T10:14:13Z</time>
      </trkpt>
      <trkpt lat="46.62098" lon="3.76556">
        <ele>247.68</ele>
        <time>2021-08-13T10:14:14Z</time>
      </trkpt>
      <trkpt lat="46.62098" lon="3.76553">
        <ele>247.68</ele>
        <time>2021-08-13T10:14:15Z</time>
      </trkpt>
      <trkpt lat="46.62097" lon="3.7655">
        <ele>247.68</ele>
        <time>2021-08-13T10:14:16Z</time>
      </trkpt>
      <trkpt lat="46.62096" lon="3.76547">
        <ele>247.2</ele>
        <time>2021-08-13T10:14:17Z</time>
      </trkpt>
      <trkpt lat="46.62091" lon="3.76541">
        <ele>246.23</ele>
        <time>2021-08-13T10:14:19Z</time>
      </trkpt>
      <trkpt lat="46.62074" lon="3.76526">
        <ele>245.27</ele>
        <time>2021-08-13T10:14:23Z</time>
      </trkpt>
      <trkpt lat="46.62055" lon="3.76507">
        <ele>243.83</ele>
        <time>2021-08-13T10:14:28Z</time>
      </trkpt>
      <trkpt lat="46.62044" lon="3.76478">
        <ele>242.87</ele>
        <time>2021-08-13T10:14:34Z</time>
      </trkpt>
      <trkpt lat="46.62046" lon="3.76473">
        <ele>242.87</ele>
        <time>2021-08-13T10:14:35Z</time>
      </trkpt>
      <trkpt lat="46.62048" lon="3.76471">
        <ele>242.87</ele>
        <time>2021-08-13T10:14:36Z</time>
      </trkpt>
      <trkpt lat="46.62071" lon="3.76446">
        <ele>243.35</ele>
        <time>2021-08-13T10:14:45Z</time>
      </trkpt>
      <trkpt lat="46.62086" lon="3.7643">
        <ele>243.35</ele>
        <time>2021-08-13T10:14:51Z</time>
      </trkpt>
      <trkpt lat="46.62088" lon="3.76427">
        <ele>243.35</ele>
        <time>2021-08-13T10:14:52Z</time>
      </trkpt>
      <trkpt lat="46.62085" lon="3.76401">
        <ele>243.35</ele>
        <time>2021-08-13T10:14:58Z</time>
      </trkpt>
      <trkpt lat="46.62087" lon="3.7637">
        <ele>242.87</ele>
        <time>2021-08-13T10:15:04Z</time>
      </trkpt>
      <trkpt lat="46.621" lon="3.76357">
        <ele>242.87</ele>
        <time>2021-08-13T10:15:09Z</time>
      </trkpt>
      <trkpt lat="46.6212" lon="3.76342">
        <ele>242.87</ele>
        <time>2021-08-13T10:15:15Z</time>
      </trkpt>
      <trkpt lat="46.62126" lon="3.76333">
        <ele>242.39</ele>
        <time>2021-08-13T10:15:17Z</time>
      </trkpt>
      <trkpt lat="46.62128" lon="3.76327">
        <ele>242.39</ele>
        <time>2021-08-13T10:15:18Z</time>
      </trkpt>
      <trkpt lat="46.62133" lon="3.7631">
        <ele>242.39</ele>
        <time>2021-08-13T10:15:21Z</time>
      </trkpt>
      <trkpt lat="46.62135" lon="3.76305">
        <ele>242.39</ele>
        <time>2021-08-13T10:15:22Z</time>
      </trkpt>
      <trkpt lat="46.6214" lon="3.76293">
        <ele>242.39</ele>
        <time>2021-08-13T10:15:24Z</time>
      </trkpt>
      <trkpt lat="46.62141" lon="3.76285">
        <ele>241.91</ele>
        <time>2021-08-13T10:15:25Z</time>
      </trkpt>
      <trkpt lat="46.62145" lon="3.7624">
        <ele>240.95</ele>
        <time>2021-08-13T10:15:31Z</time>
      </trkpt>
      <trkpt lat="46.62148" lon="3.76233">
        <ele>240.95</ele>
        <time>2021-08-13T10:15:32Z</time>
      </trkpt>
      <trkpt lat="46.62151" lon="3.76228">
        <ele>240.95</ele>
        <time>2021-08-13T10:15:33Z</time>
      </trkpt>
      <trkpt lat="46.62156" lon="3.76225">
        <ele>240.95</ele>
        <time>2021-08-13T10:15:34Z</time>
      </trkpt>
      <trkpt lat="46.6216" lon="3.76225">
        <ele>240.95</ele>
        <time>2021-08-13T10:15:35Z</time>
      </trkpt>
      <trkpt lat="46.62164" lon="3.76226">
        <ele>240.95</ele>
        <time>2021-08-13T10:15:36Z</time>
      </trkpt>
      <trkpt lat="46.62179" lon="3.76233">
        <ele>240.95</ele>
        <time>2021-08-13T10:15:40Z</time>
      </trkpt>
      <trkpt lat="46.62184" lon="3.76234">
        <ele>240.95</ele>
        <time>2021-08-13T10:15:41Z</time>
      </trkpt>
      <trkpt lat="46.62187" lon="3.76232">
        <ele>240.95</ele>
        <time>2021-08-13T10:15:42Z</time>
      </trkpt>
      <trkpt lat="46.62189" lon="3.76228">
        <ele>240.95</ele>
        <time>2021-08-13T10:15:43Z</time>
      </trkpt>
      <trkpt lat="46.6219" lon="3.76222">
        <ele>241.91</ele>
        <time>2021-08-13T10:15:44Z</time>
      </trkpt>
      <trkpt lat="46.62196" lon="3.76194">
        <ele>241.91</ele>
        <time>2021-08-13T10:15:49Z</time>
      </trkpt>
      <trkpt lat="46.62201" lon="3.76174">
        <ele>241.91</ele>
        <time>2021-08-13T10:15:52Z</time>
      </trkpt>
      <trkpt lat="46.62203" lon="3.76167">
        <ele>241.91</ele>
        <time>2021-08-13T10:15:53Z</time>
      </trkpt>
      <trkpt lat="46.62217" lon="3.76104">
        <ele>241.91</ele>
        <time>2021-08-13T10:16:02Z</time>
      </trkpt>
      <trkpt lat="46.62219" lon="3.76097">
        <ele>241.91</ele>
        <time>2021-08-13T10:16:03Z</time>
      </trkpt>
      <trkpt lat="46.62221" lon="3.7609">
        <ele>241.91</ele>
        <time>2021-08-13T10:16:04Z</time>
      </trkpt>
      <trkpt lat="46.62232" lon="3.76033">
        <ele>241.91</ele>
        <time>2021-08-13T10:16:12Z</time>
      </trkpt>
      <trkpt lat="46.62233" lon="3.76019">
        <ele>241.91</ele>
        <time>2021-08-13T10:16:14Z</time>
      </trkpt>
      <trkpt lat="46.62236" lon="3.75951">
        <ele>240.47</ele>
        <time>2021-08-13T10:16:24Z</time>
      </trkpt>
      <trkpt lat="46.62237" lon="3.75943">
        <ele>240.47</ele>
        <time>2021-08-13T10:16:25Z</time>
      </trkpt>
      <trkpt lat="46.62246" lon="3.75873">
        <ele>240.47</ele>
        <time>2021-08-13T10:16:35Z</time>
      </trkpt>
      <trkpt lat="46.62253" lon="3.75824">
        <ele>239.99</ele>
        <time>2021-08-13T10:16:42Z</time>
      </trkpt>
      <trkpt lat="46.62253" lon="3.75808">
        <ele>239.99</ele>
        <time>2021-08-13T10:16:44Z</time>
      </trkpt>
      <trkpt lat="46.62253" lon="3.758">
        <ele>239.51</ele>
        <time>2021-08-13T10:16:45Z</time>
      </trkpt>
      <trkpt lat="46.62263" lon="3.75734">
        <ele>239.51</ele>
        <time>2021-08-13T10:16:54Z</time>
      </trkpt>
      <trkpt lat="46.62272" lon="3.7567">
        <ele>239.51</ele>
        <time>2021-08-13T10:17:03Z</time>
      </trkpt>
      <trkpt lat="46.62278" lon="3.75618">
        <ele>239.51</ele>
        <time>2021-08-13T10:17:10Z</time>
      </trkpt>
      <trkpt lat="46.62277" lon="3.75611">
        <ele>239.51</ele>
        <time>2021-08-13T10:17:11Z</time>
      </trkpt>
      <trkpt lat="46.62276" lon="3.75604">
        <ele>239.51</ele>
        <time>2021-08-13T10:17:12Z</time>
      </trkpt>
      <trkpt lat="46.62274" lon="3.75592">
        <ele>239.51</ele>
        <time>2021-08-13T10:17:14Z</time>
      </trkpt>
      <trkpt lat="46.62273" lon="3.75584">
        <ele>239.51</ele>
        <time>2021-08-13T10:17:15Z</time>
      </trkpt>
      <trkpt lat="46.62274" lon="3.75578">
        <ele>239.51</ele>
        <time>2021-08-13T10:17:16Z</time>
      </trkpt>
      <trkpt lat="46.62273" lon="3.75551">
        <ele>239.51</ele>
        <time>2021-08-13T10:17:20Z</time>
      </trkpt>
      <trkpt lat="46.62272" lon="3.75544">
        <ele>239.51</ele>
        <time>2021-08-13T10:17:21Z</time>
      </trkpt>
      <trkpt lat="46.62269" lon="3.75482">
        <ele>239.51</ele>
        <time>2021-08-13T10:17:29Z</time>
      </trkpt>
      <trkpt lat="46.62265" lon="3.75431">
        <ele>239.51</ele>
        <time>2021-08-13T10:17:36Z</time>
      </trkpt>
      <trkpt lat="46.6226" lon="3.75403">
        <ele>239.51</ele>
        <time>2021-08-13T10:17:40Z</time>
      </trkpt>
      <trkpt lat="46.62255" lon="3.75383">
        <ele>239.51</ele>
        <time>2021-08-13T10:17:43Z</time>
      </trkpt>
      <trkpt lat="46.62252" lon="3.75377">
        <ele>239.51</ele>
        <time>2021-08-13T10:17:44Z</time>
      </trkpt>
      <trkpt lat="46.62249" lon="3.75371">
        <ele>239.51</ele>
        <time>2021-08-13T10:17:45Z</time>
      </trkpt>
      <trkpt lat="46.62246" lon="3.75367">
        <ele>239.51</ele>
        <time>2021-08-13T10:17:46Z</time>
      </trkpt>
      <trkpt lat="46.62243" lon="3.75361">
        <ele>239.51</ele>
        <time>2021-08-13T10:17:47Z</time>
      </trkpt>
      <trkpt lat="46.62241" lon="3.75355">
        <ele>239.51</ele>
        <time>2021-08-13T10:17:48Z</time>
      </trkpt>
      <trkpt lat="46.62238" lon="3.7535">
        <ele>239.51</ele>
        <time>2021-08-13T10:17:49Z</time>
      </trkpt>
      <trkpt lat="46.62234" lon="3.75347">
        <ele>239.51</ele>
        <time>2021-08-13T10:17:50Z</time>
      </trkpt>
      <trkpt lat="46.62215" lon="3.75332">
        <ele>239.51</ele>
        <time>2021-08-13T10:17:55Z</time>
      </trkpt>
      <trkpt lat="46.62212" lon="3.75328">
        <ele>239.51</ele>
        <time>2021-08-13T10:17:56Z</time>
      </trkpt>
      <trkpt lat="46.62209" lon="3.75323">
        <ele>239.51</ele>
        <time>2021-08-13T10:17:57Z</time>
      </trkpt>
      <trkpt lat="46.62207" lon="3.75317">
        <ele>239.51</ele>
        <time>2021-08-13T10:17:58Z</time>
      </trkpt>
      <trkpt lat="46.62205" lon="3.7531">
        <ele>239.51</ele>
        <time>2021-08-13T10:17:59Z</time>
      </trkpt>
      <trkpt lat="46.62204" lon="3.75304">
        <ele>239.51</ele>
        <time>2021-08-13T10:18:00Z</time>
      </trkpt>
      <trkpt lat="46.62202" lon="3.75291">
        <ele>239.51</ele>
        <time>2021-08-13T10:18:02Z</time>
      </trkpt>
      <trkpt lat="46.62201" lon="3.75277">
        <ele>239.51</ele>
        <time>2021-08-13T10:18:04Z</time>
      </trkpt>
      <trkpt lat="46.622" lon="3.75272">
        <ele>239.51</ele>
        <time>2021-08-13T10:18:05Z</time>
      </trkpt>
      <trkpt lat="46.62199" lon="3.75265">
        <ele>239.51</ele>
        <time>2021-08-13T10:18:06Z</time>
      </trkpt>
      <trkpt lat="46.62197" lon="3.75259">
        <ele>239.51</ele>
        <time>2021-08-13T10:18:07Z</time>
      </trkpt>
      <trkpt lat="46.62195" lon="3.75254">
        <ele>239.51</ele>
        <time>2021-08-13T10:18:08Z</time>
      </trkpt>
      <trkpt lat="46.62192" lon="3.75248">
        <ele>239.02</ele>
        <time>2021-08-13T10:18:09Z</time>
      </trkpt>
      <trkpt lat="46.6219" lon="3.75243">
        <ele>239.02</ele>
        <time>2021-08-13T10:18:10Z</time>
      </trkpt>
      <trkpt lat="46.62187" lon="3.75237">
        <ele>239.02</ele>
        <time>2021-08-13T10:18:11Z</time>
      </trkpt>
      <trkpt lat="46.62185" lon="3.75232">
        <ele>239.02</ele>
        <time>2021-08-13T10:18:12Z</time>
      </trkpt>
      <trkpt lat="46.62184" lon="3.75226">
        <ele>239.02</ele>
        <time>2021-08-13T10:18:13Z</time>
      </trkpt>
      <trkpt lat="46.62184" lon="3.75222">
        <ele>239.51</ele>
        <time>2021-08-13T10:18:14Z</time>
      </trkpt>
      <trkpt lat="46.62182" lon="3.75217">
        <ele>239.02</ele>
        <time>2021-08-13T10:18:15Z</time>
      </trkpt>
      <trkpt lat="46.62179" lon="3.75215">
        <ele>239.02</ele>
        <time>2021-08-13T10:18:16Z</time>
      </trkpt>
      <trkpt lat="46.62175" lon="3.75215">
        <ele>239.02</ele>
        <time>2021-08-13T10:18:17Z</time>
      </trkpt>
      <trkpt lat="46.62172" lon="3.75216">
        <ele>238.54</ele>
        <time>2021-08-13T10:18:18Z</time>
      </trkpt>
      <trkpt lat="46.62168" lon="3.75218">
        <ele>238.54</ele>
        <time>2021-08-13T10:18:19Z</time>
      </trkpt>
      <trkpt lat="46.62164" lon="3.75219">
        <ele>237.58</ele>
        <time>2021-08-13T10:18:20Z</time>
      </trkpt>
      <trkpt lat="46.6216" lon="3.75219">
        <ele>237.1</ele>
        <time>2021-08-13T10:18:21Z</time>
      </trkpt>
      <trkpt lat="46.62156" lon="3.75218">
        <ele>237.1</ele>
        <time>2021-08-13T10:18:22Z</time>
      </trkpt>
      <trkpt lat="46.62153" lon="3.75213">
        <ele>236.62</ele>
        <time>2021-08-13T10:18:23Z</time>
      </trkpt>
      <trkpt lat="46.62152" lon="3.75206">
        <ele>236.14</ele>
        <time>2021-08-13T10:18:24Z</time>
      </trkpt>
      <trkpt lat="46.6215" lon="3.75199">
        <ele>236.14</ele>
        <time>2021-08-13T10:18:25Z</time>
      </trkpt>
      <trkpt lat="46.62149" lon="3.75192">
        <ele>236.14</ele>
        <time>2021-08-13T10:18:26Z</time>
      </trkpt>
      <trkpt lat="46.62147" lon="3.75178">
        <ele>236.14</ele>
        <time>2021-08-13T10:18:28Z</time>
      </trkpt>
      <trkpt lat="46.62148" lon="3.75171">
        <ele>236.14</ele>
        <time>2021-08-13T10:18:29Z</time>
      </trkpt>
      <trkpt lat="46.6215" lon="3.75164">
        <ele>236.14</ele>
        <time>2021-08-13T10:18:30Z</time>
      </trkpt>
      <trkpt lat="46.62153" lon="3.75158">
        <ele>236.14</ele>
        <time>2021-08-13T10:18:31Z</time>
      </trkpt>
      <trkpt lat="46.62155" lon="3.75152">
        <ele>236.14</ele>
        <time>2021-08-13T10:18:32Z</time>
      </trkpt>
      <trkpt lat="46.62166" lon="3.7513">
        <ele>236.14</ele>
        <time>2021-08-13T10:18:36Z</time>
      </trkpt>
      <trkpt lat="46.62168" lon="3.75125">
        <ele>236.14</ele>
        <time>2021-08-13T10:18:37Z</time>
      </trkpt>
      <trkpt lat="46.62187" lon="3.75087">
        <ele>237.58</ele>
        <time>2021-08-13T10:18:45Z</time>
      </trkpt>
      <trkpt lat="46.62202" lon="3.75051">
        <ele>238.06</ele>
        <time>2021-08-13T10:18:53Z</time>
      </trkpt>
      <trkpt lat="46.62218" lon="3.75024">
        <ele>239.51</ele>
        <time>2021-08-13T10:19:01Z</time>
      </trkpt>
      <trkpt lat="46.62243" lon="3.75004">
        <ele>239.99</ele>
        <time>2021-08-13T10:19:11Z</time>
      </trkpt>
      <trkpt lat="46.62266" lon="3.74992">
        <ele>240.47</ele>
        <time>2021-08-13T10:19:19Z</time>
      </trkpt>
      <trkpt lat="46.62291" lon="3.74975">
        <ele>241.43</ele>
        <time>2021-08-13T10:19:27Z</time>
      </trkpt>
      <trkpt lat="46.62311" lon="3.74973">
        <ele>241.91</ele>
        <time>2021-08-13T10:19:34Z</time>
      </trkpt>
      <trkpt lat="46.62334" lon="3.74973">
        <ele>242.87</ele>
        <time>2021-08-13T10:19:42Z</time>
      </trkpt>
      <trkpt lat="46.62358" lon="3.74973">
        <ele>244.79</ele>
        <time>2021-08-13T10:19:52Z</time>
      </trkpt>
      <trkpt lat="46.62376" lon="3.74973">
        <ele>245.75</ele>
        <time>2021-08-13T10:20:00Z</time>
      </trkpt>
      <trkpt lat="46.624" lon="3.74978">
        <ele>246.72</ele>
        <time>2021-08-13T10:20:10Z</time>
      </trkpt>
      <trkpt lat="46.6242" lon="3.74987">
        <ele>247.2</ele>
        <time>2021-08-13T10:20:18Z</time>
      </trkpt>
      <trkpt lat="46.62424" lon="3.7499">
        <ele>247.68</ele>
        <time>2021-08-13T10:20:20Z</time>
      </trkpt>
      <trkpt lat="46.62426" lon="3.74991">
        <ele>247.2</ele>
        <time>2021-08-13T10:20:21Z</time>
      </trkpt>
      <trkpt lat="46.62428" lon="3.74992">
        <ele>248.16</ele>
        <time>2021-08-13T10:20:22Z</time>
      </trkpt>
      <trkpt lat="46.62444" lon="3.74987">
        <ele>249.12</ele>
        <time>2021-08-13T10:20:29Z</time>
      </trkpt>
      <trkpt lat="46.62465" lon="3.74984">
        <ele>249.6</ele>
        <time>2021-08-13T10:20:38Z</time>
      </trkpt>
      <trkpt lat="46.6249" lon="3.74982">
        <ele>250.56</ele>
        <time>2021-08-13T10:20:48Z</time>
      </trkpt>
      <trkpt lat="46.62497" lon="3.74979">
        <ele>251.04</ele>
        <time>2021-08-13T10:20:51Z</time>
      </trkpt>
      <trkpt lat="46.62499" lon="3.74976">
        <ele>251.04</ele>
        <time>2021-08-13T10:20:52Z</time>
      </trkpt>
      <trkpt lat="46.625" lon="3.74973">
        <ele>251.04</ele>
        <time>2021-08-13T10:20:53Z</time>
      </trkpt>
      <trkpt lat="46.62502" lon="3.7497">
        <ele>251.04</ele>
        <time>2021-08-13T10:20:54Z</time>
      </trkpt>
      <trkpt lat="46.62504" lon="3.74968">
        <ele>251.52</ele>
        <time>2021-08-13T10:20:55Z</time>
      </trkpt>
      <trkpt lat="46.62506" lon="3.74966">
        <ele>251.52</ele>
        <time>2021-08-13T10:20:56Z</time>
      </trkpt>
      <trkpt lat="46.62508" lon="3.74966">
        <ele>251.52</ele>
        <time>2021-08-13T10:20:57Z</time>
      </trkpt>
      <trkpt lat="46.6251" lon="3.74966">
        <ele>251.52</ele>
        <time>2021-08-13T10:20:58Z</time>
      </trkpt>
      <trkpt lat="46.62513" lon="3.74966">
        <ele>251.52</ele>
        <time>2021-08-13T10:20:59Z</time>
      </trkpt>
      <trkpt lat="46.62535" lon="3.74963">
        <ele>252.48</ele>
        <time>2021-08-13T10:21:08Z</time>
      </trkpt>
      <trkpt lat="46.62555" lon="3.74961">
        <ele>253.44</ele>
        <time>2021-08-13T10:21:14Z</time>
      </trkpt>
      <trkpt lat="46.62595" lon="3.7496">
        <ele>252.96</ele>
        <time>2021-08-13T10:21:24Z</time>
      </trkpt>
      <trkpt lat="46.62618" lon="3.74955">
        <ele>252.96</ele>
        <time>2021-08-13T10:21:31Z</time>
      </trkpt>
      <trkpt lat="46.62627" lon="3.74946">
        <ele>252.96</ele>
        <time>2021-08-13T10:21:34Z</time>
      </trkpt>
      <trkpt lat="46.62628" lon="3.74941">
        <ele>252.96</ele>
        <time>2021-08-13T10:21:35Z</time>
      </trkpt>
      <trkpt lat="46.62629" lon="3.74936">
        <ele>252.96</ele>
        <time>2021-08-13T10:21:36Z</time>
      </trkpt>
      <trkpt lat="46.62631" lon="3.74932">
        <ele>252.96</ele>
        <time>2021-08-13T10:21:37Z</time>
      </trkpt>
      <trkpt lat="46.62633" lon="3.74927">
        <ele>252.96</ele>
        <time>2021-08-13T10:21:38Z</time>
      </trkpt>
      <trkpt lat="46.62634" lon="3.74922">
        <ele>252.96</ele>
        <time>2021-08-13T10:21:39Z</time>
      </trkpt>
      <trkpt lat="46.62635" lon="3.74917">
        <ele>252.96</ele>
        <time>2021-08-13T10:21:40Z</time>
      </trkpt>
      <trkpt lat="46.62634" lon="3.74912">
        <ele>252.96</ele>
        <time>2021-08-13T10:21:41Z</time>
      </trkpt>
      <trkpt lat="46.62633" lon="3.74908">
        <ele>252.96</ele>
        <time>2021-08-13T10:21:42Z</time>
      </trkpt>
      <trkpt lat="46.62631" lon="3.74904">
        <ele>252.96</ele>
        <time>2021-08-13T10:21:43Z</time>
      </trkpt>
      <trkpt lat="46.62629" lon="3.74899">
        <ele>252</ele>
        <time>2021-08-13T10:21:44Z</time>
      </trkpt>
      <trkpt lat="46.62628" lon="3.74892">
        <ele>252</ele>
        <time>2021-08-13T10:21:45Z</time>
      </trkpt>
      <trkpt lat="46.62628" lon="3.74887">
        <ele>252</ele>
        <time>2021-08-13T10:21:46Z</time>
      </trkpt>
      <trkpt lat="46.6263" lon="3.74881">
        <ele>252</ele>
        <time>2021-08-13T10:21:47Z</time>
      </trkpt>
      <trkpt lat="46.62631" lon="3.74875">
        <ele>252</ele>
        <time>2021-08-13T10:21:48Z</time>
      </trkpt>
      <trkpt lat="46.62644" lon="3.74823">
        <ele>251.04</ele>
        <time>2021-08-13T10:21:56Z</time>
      </trkpt>
      <trkpt lat="46.62658" lon="3.74767">
        <ele>250.08</ele>
        <time>2021-08-13T10:22:04Z</time>
      </trkpt>
      <trkpt lat="46.62661" lon="3.74754">
        <ele>250.08</ele>
        <time>2021-08-13T10:22:06Z</time>
      </trkpt>
      <trkpt lat="46.62673" lon="3.74698">
        <ele>249.12</ele>
        <time>2021-08-13T10:22:13Z</time>
      </trkpt>
      <trkpt lat="46.62679" lon="3.74675">
        <ele>248.64</ele>
        <time>2021-08-13T10:22:16Z</time>
      </trkpt>
      <trkpt lat="46.62683" lon="3.74653">
        <ele>248.64</ele>
        <time>2021-08-13T10:22:19Z</time>
      </trkpt>
      <trkpt lat="46.62698" lon="3.74589">
        <ele>247.68</ele>
        <time>2021-08-13T10:22:27Z</time>
      </trkpt>
      <trkpt lat="46.62716" lon="3.74507">
        <ele>247.68</ele>
        <time>2021-08-13T10:22:37Z</time>
      </trkpt>
      <trkpt lat="46.62732" lon="3.74442">
        <ele>247.68</ele>
        <time>2021-08-13T10:22:46Z</time>
      </trkpt>
      <trkpt lat="46.62737" lon="3.74425">
        <ele>249.12</ele>
        <time>2021-08-13T10:22:49Z</time>
      </trkpt>
      <trkpt lat="46.6274" lon="3.74415">
        <ele>249.12</ele>
        <time>2021-08-13T10:22:51Z</time>
      </trkpt>
      <trkpt lat="46.62749" lon="3.74364">
        <ele>249.12</ele>
        <time>2021-08-13T10:22:58Z</time>
      </trkpt>
      <trkpt lat="46.62761" lon="3.74308">
        <ele>248.64</ele>
        <time>2021-08-13T10:23:06Z</time>
      </trkpt>
      <trkpt lat="46.62772" lon="3.74259">
        <ele>248.64</ele>
        <time>2021-08-13T10:23:13Z</time>
      </trkpt>
      <trkpt lat="46.62772" lon="3.74252">
        <ele>248.64</ele>
        <time>2021-08-13T10:23:14Z</time>
      </trkpt>
      <trkpt lat="46.62771" lon="3.74245">
        <ele>248.64</ele>
        <time>2021-08-13T10:23:15Z</time>
      </trkpt>
      <trkpt lat="46.62769" lon="3.74231">
        <ele>248.64</ele>
        <time>2021-08-13T10:23:17Z</time>
      </trkpt>
      <trkpt lat="46.62769" lon="3.74223">
        <ele>247.2</ele>
        <time>2021-08-13T10:23:18Z</time>
      </trkpt>
      <trkpt lat="46.6277" lon="3.74215">
        <ele>247.2</ele>
        <time>2021-08-13T10:23:19Z</time>
      </trkpt>
      <trkpt lat="46.62769" lon="3.74199">
        <ele>247.2</ele>
        <time>2021-08-13T10:23:21Z</time>
      </trkpt>
      <trkpt lat="46.62768" lon="3.74191">
        <ele>246.72</ele>
        <time>2021-08-13T10:23:22Z</time>
      </trkpt>
      <trkpt lat="46.62763" lon="3.74138">
        <ele>246.72</ele>
        <time>2021-08-13T10:23:29Z</time>
      </trkpt>
      <trkpt lat="46.62757" lon="3.74096">
        <ele>246.23</ele>
        <time>2021-08-13T10:23:35Z</time>
      </trkpt>
      <trkpt lat="46.62757" lon="3.74089">
        <ele>246.23</ele>
        <time>2021-08-13T10:23:36Z</time>
      </trkpt>
      <trkpt lat="46.62757" lon="3.74081">
        <ele>246.23</ele>
        <time>2021-08-13T10:23:37Z</time>
      </trkpt>
      <trkpt lat="46.62756" lon="3.74067">
        <ele>246.23</ele>
        <time>2021-08-13T10:23:39Z</time>
      </trkpt>
      <trkpt lat="46.62746" lon="3.73995">
        <ele>244.79</ele>
        <time>2021-08-13T10:23:48Z</time>
      </trkpt>
      <trkpt lat="46.62727" lon="3.73875">
        <ele>242.87</ele>
        <time>2021-08-13T10:24:02Z</time>
      </trkpt>
      <trkpt lat="46.62712" lon="3.7378">
        <ele>241.43</ele>
        <time>2021-08-13T10:24:13Z</time>
      </trkpt>
      <trkpt lat="46.62701" lon="3.7371">
        <ele>240.47</ele>
        <time>2021-08-13T10:24:22Z</time>
      </trkpt>
      <trkpt lat="46.62699" lon="3.737">
        <ele>240.47</ele>
        <time>2021-08-13T10:24:25Z</time>
      </trkpt>
      <trkpt lat="46.62696" lon="3.73671">
        <ele>239.51</ele>
        <time>2021-08-13T10:24:31Z</time>
      </trkpt>
      <trkpt lat="46.62687" lon="3.73621">
        <ele>238.54</ele>
        <time>2021-08-13T10:24:38Z</time>
      </trkpt>
      <trkpt lat="46.62672" lon="3.73522">
        <ele>237.1</ele>
        <time>2021-08-13T10:24:50Z</time>
      </trkpt>
      <trkpt lat="46.6266" lon="3.73445">
        <ele>235.66</ele>
        <time>2021-08-13T10:24:59Z</time>
      </trkpt>
      <trkpt lat="46.62655" lon="3.73368">
        <ele>234.7</ele>
        <time>2021-08-13T10:25:07Z</time>
      </trkpt>
      <trkpt lat="46.62664" lon="3.73311">
        <ele>234.22</ele>
        <time>2021-08-13T10:25:13Z</time>
      </trkpt>
      <trkpt lat="46.62687" lon="3.73254">
        <ele>232.78</ele>
        <time>2021-08-13T10:25:20Z</time>
      </trkpt>
      <trkpt lat="46.62709" lon="3.73225">
        <ele>232.3</ele>
        <time>2021-08-13T10:25:25Z</time>
      </trkpt>
      <trkpt lat="46.62712" lon="3.7322">
        <ele>232.3</ele>
        <time>2021-08-13T10:25:26Z</time>
      </trkpt>
      <trkpt lat="46.62711" lon="3.73214">
        <ele>232.3</ele>
        <time>2021-08-13T10:25:27Z</time>
      </trkpt>
      <trkpt lat="46.6271" lon="3.7321">
        <ele>232.3</ele>
        <time>2021-08-13T10:25:28Z</time>
      </trkpt>
      <trkpt lat="46.62709" lon="3.73205">
        <ele>232.3</ele>
        <time>2021-08-13T10:25:29Z</time>
      </trkpt>
      <trkpt lat="46.62709" lon="3.732">
        <ele>232.3</ele>
        <time>2021-08-13T10:25:30Z</time>
      </trkpt>
      <trkpt lat="46.62709" lon="3.73195">
        <ele>232.3</ele>
        <time>2021-08-13T10:25:31Z</time>
      </trkpt>
      <trkpt lat="46.62711" lon="3.73191">
        <ele>232.3</ele>
        <time>2021-08-13T10:25:32Z</time>
      </trkpt>
      <trkpt lat="46.62713" lon="3.73188">
        <ele>232.3</ele>
        <time>2021-08-13T10:25:33Z</time>
      </trkpt>
      <trkpt lat="46.62716" lon="3.73184">
        <ele>232.3</ele>
        <time>2021-08-13T10:25:34Z</time>
      </trkpt>
      <trkpt lat="46.62719" lon="3.73181">
        <ele>232.3</ele>
        <time>2021-08-13T10:25:35Z</time>
      </trkpt>
      <trkpt lat="46.62747" lon="3.73152">
        <ele>231.81</ele>
        <time>2021-08-13T10:25:42Z</time>
      </trkpt>
      <trkpt lat="46.6276" lon="3.7314">
        <ele>231.81</ele>
        <time>2021-08-13T10:25:45Z</time>
      </trkpt>
      <trkpt lat="46.62777" lon="3.73126">
        <ele>231.81</ele>
        <time>2021-08-13T10:25:49Z</time>
      </trkpt>
      <trkpt lat="46.62783" lon="3.73118">
        <ele>231.81</ele>
        <time>2021-08-13T10:25:51Z</time>
      </trkpt>
      <trkpt lat="46.62787" lon="3.73114">
        <ele>231.81</ele>
        <time>2021-08-13T10:25:52Z</time>
      </trkpt>
      <trkpt lat="46.62791" lon="3.7311">
        <ele>231.81</ele>
        <time>2021-08-13T10:25:53Z</time>
      </trkpt>
      <trkpt lat="46.62807" lon="3.73097">
        <ele>231.81</ele>
        <time>2021-08-13T10:25:57Z</time>
      </trkpt>
      <trkpt lat="46.62811" lon="3.73094">
        <ele>231.81</ele>
        <time>2021-08-13T10:25:58Z</time>
      </trkpt>
      <trkpt lat="46.62815" lon="3.73091">
        <ele>231.81</ele>
        <time>2021-08-13T10:25:59Z</time>
      </trkpt>
      <trkpt lat="46.62819" lon="3.73088">
        <ele>231.81</ele>
        <time>2021-08-13T10:26:00Z</time>
      </trkpt>
      <trkpt lat="46.62823" lon="3.73085">
        <ele>231.81</ele>
        <time>2021-08-13T10:26:01Z</time>
      </trkpt>
      <trkpt lat="46.62827" lon="3.73082">
        <ele>231.81</ele>
        <time>2021-08-13T10:26:02Z</time>
      </trkpt>
      <trkpt lat="46.62832" lon="3.7308">
        <ele>231.81</ele>
        <time>2021-08-13T10:26:03Z</time>
      </trkpt>
      <trkpt lat="46.62882" lon="3.73047">
        <ele>231.81</ele>
        <time>2021-08-13T10:26:15Z</time>
      </trkpt>
      <trkpt lat="46.62926" lon="3.73021">
        <ele>231.81</ele>
        <time>2021-08-13T10:26:25Z</time>
      </trkpt>
      <trkpt lat="46.62958" lon="3.73002">
        <ele>231.81</ele>
        <time>2021-08-13T10:26:33Z</time>
      </trkpt>
      <trkpt lat="46.62988" lon="3.72988">
        <ele>231.81</ele>
        <time>2021-08-13T10:26:41Z</time>
      </trkpt>
      <trkpt lat="46.62996" lon="3.72984">
        <ele>231.81</ele>
        <time>2021-08-13T10:26:44Z</time>
      </trkpt>
      <trkpt lat="46.62997" lon="3.72981">
        <ele>232.78</ele>
        <time>2021-08-13T10:26:45Z</time>
      </trkpt>
      <trkpt lat="46.62997" lon="3.72977">
        <ele>232.78</ele>
        <time>2021-08-13T10:26:46Z</time>
      </trkpt>
      <trkpt lat="46.63001" lon="3.72958">
        <ele>232.78</ele>
        <time>2021-08-13T10:26:50Z</time>
      </trkpt>
      <trkpt lat="46.63003" lon="3.72952">
        <ele>232.78</ele>
        <time>2021-08-13T10:26:51Z</time>
      </trkpt>
      <trkpt lat="46.63009" lon="3.7293">
        <ele>232.78</ele>
        <time>2021-08-13T10:26:54Z</time>
      </trkpt>
      <trkpt lat="46.63014" lon="3.72887">
        <ele>231.81</ele>
        <time>2021-08-13T10:26:59Z</time>
      </trkpt>
      <trkpt lat="46.63027" lon="3.72798">
        <ele>230.37</ele>
        <time>2021-08-13T10:27:08Z</time>
      </trkpt>
      <trkpt lat="46.63038" lon="3.72708">
        <ele>229.41</ele>
        <time>2021-08-13T10:27:17Z</time>
      </trkpt>
      <trkpt lat="46.63051" lon="3.72608">
        <ele>228.93</ele>
        <time>2021-08-13T10:27:27Z</time>
      </trkpt>
      <trkpt lat="46.63067" lon="3.72492">
        <ele>226.53</ele>
        <time>2021-08-13T10:27:38Z</time>
      </trkpt>
      <trkpt lat="46.63083" lon="3.72368">
        <ele>224.12</ele>
        <time>2021-08-13T10:27:49Z</time>
      </trkpt>
      <trkpt lat="46.63099" lon="3.72248">
        <ele>224.12</ele>
        <time>2021-08-13T10:28:00Z</time>
      </trkpt>
      <trkpt lat="46.63113" lon="3.72146">
        <ele>224.12</ele>
        <time>2021-08-13T10:28:10Z</time>
      </trkpt>
      <trkpt lat="46.63124" lon="3.72054">
        <ele>223.64</ele>
        <time>2021-08-13T10:28:19Z</time>
      </trkpt>
      <trkpt lat="46.63128" lon="3.71967">
        <ele>222.68</ele>
        <time>2021-08-13T10:28:28Z</time>
      </trkpt>
      <trkpt lat="46.63129" lon="3.7189">
        <ele>222.68</ele>
        <time>2021-08-13T10:28:36Z</time>
      </trkpt>
      <trkpt lat="46.63128" lon="3.71882">
        <ele>222.68</ele>
        <time>2021-08-13T10:28:37Z</time>
      </trkpt>
      <trkpt lat="46.63126" lon="3.71875">
        <ele>222.68</ele>
        <time>2021-08-13T10:28:38Z</time>
      </trkpt>
      <trkpt lat="46.63123" lon="3.71869">
        <ele>222.68</ele>
        <time>2021-08-13T10:28:39Z</time>
      </trkpt>
      <trkpt lat="46.63118" lon="3.71864">
        <ele>222.68</ele>
        <time>2021-08-13T10:28:40Z</time>
      </trkpt>
      <trkpt lat="46.63114" lon="3.7186">
        <ele>222.68</ele>
        <time>2021-08-13T10:28:41Z</time>
      </trkpt>
      <trkpt lat="46.6311" lon="3.71856">
        <ele>223.64</ele>
        <time>2021-08-13T10:28:42Z</time>
      </trkpt>
      <trkpt lat="46.63105" lon="3.71853">
        <ele>223.64</ele>
        <time>2021-08-13T10:28:43Z</time>
      </trkpt>
      <trkpt lat="46.63079" lon="3.71832">
        <ele>224.12</ele>
        <time>2021-08-13T10:28:50Z</time>
      </trkpt>
      <trkpt lat="46.63063" lon="3.7182">
        <ele>224.61</ele>
        <time>2021-08-13T10:28:56Z</time>
      </trkpt>
      <trkpt lat="46.63061" lon="3.71816">
        <ele>224.61</ele>
        <time>2021-08-13T10:28:57Z</time>
      </trkpt>
      <trkpt lat="46.63058" lon="3.71813">
        <ele>224.61</ele>
        <time>2021-08-13T10:28:58Z</time>
      </trkpt>
      <trkpt lat="46.63055" lon="3.71811">
        <ele>224.61</ele>
        <time>2021-08-13T10:28:59Z</time>
      </trkpt>
      <trkpt lat="46.63051" lon="3.71808">
        <ele>224.61</ele>
        <time>2021-08-13T10:29:00Z</time>
      </trkpt>
      <trkpt lat="46.63022" lon="3.71786">
        <ele>225.57</ele>
        <time>2021-08-13T10:29:08Z</time>
      </trkpt>
      <trkpt lat="46.63018" lon="3.71783">
        <ele>225.57</ele>
        <time>2021-08-13T10:29:09Z</time>
      </trkpt>
      <trkpt lat="46.62998" lon="3.71765">
        <ele>225.57</ele>
        <time>2021-08-13T10:29:16Z</time>
      </trkpt>
      <trkpt lat="46.6297" lon="3.71743">
        <ele>225.57</ele>
        <time>2021-08-13T10:29:25Z</time>
      </trkpt>
      <trkpt lat="46.62935" lon="3.71714">
        <ele>224.12</ele>
        <time>2021-08-13T10:29:34Z</time>
      </trkpt>
      <trkpt lat="46.62901" lon="3.71686">
        <ele>223.64</ele>
        <time>2021-08-13T10:29:42Z</time>
      </trkpt>
      <trkpt lat="46.62894" lon="3.71677">
        <ele>223.16</ele>
        <time>2021-08-13T10:29:44Z</time>
      </trkpt>
      <trkpt lat="46.62891" lon="3.71672">
        <ele>223.16</ele>
        <time>2021-08-13T10:29:45Z</time>
      </trkpt>
      <trkpt lat="46.62889" lon="3.71664">
        <ele>223.16</ele>
        <time>2021-08-13T10:29:46Z</time>
      </trkpt>
      <trkpt lat="46.62885" lon="3.71649">
        <ele>222.2</ele>
        <time>2021-08-13T10:29:48Z</time>
      </trkpt>
      <trkpt lat="46.62884" lon="3.71641">
        <ele>222.2</ele>
        <time>2021-08-13T10:29:49Z</time>
      </trkpt>
      <trkpt lat="46.62884" lon="3.71632">
        <ele>222.2</ele>
        <time>2021-08-13T10:29:50Z</time>
      </trkpt>
      <trkpt lat="46.62885" lon="3.71623">
        <ele>222.2</ele>
        <time>2021-08-13T10:29:51Z</time>
      </trkpt>
      <trkpt lat="46.62887" lon="3.71615">
        <ele>222.2</ele>
        <time>2021-08-13T10:29:52Z</time>
      </trkpt>
      <trkpt lat="46.62889" lon="3.71608">
        <ele>222.2</ele>
        <time>2021-08-13T10:29:53Z</time>
      </trkpt>
      <trkpt lat="46.62892" lon="3.71601">
        <ele>222.2</ele>
        <time>2021-08-13T10:29:54Z</time>
      </trkpt>
      <trkpt lat="46.62895" lon="3.71595">
        <ele>221.72</ele>
        <time>2021-08-13T10:29:55Z</time>
      </trkpt>
      <trkpt lat="46.62897" lon="3.7159">
        <ele>222.2</ele>
        <time>2021-08-13T10:29:56Z</time>
      </trkpt>
      <trkpt lat="46.62902" lon="3.71581">
        <ele>221.24</ele>
        <time>2021-08-13T10:29:58Z</time>
      </trkpt>
      <trkpt lat="46.62914" lon="3.71553">
        <ele>220.76</ele>
        <time>2021-08-13T10:30:03Z</time>
      </trkpt>
      <trkpt lat="46.62917" lon="3.71549">
        <ele>220.76</ele>
        <time>2021-08-13T10:30:04Z</time>
      </trkpt>
      <trkpt lat="46.6292" lon="3.71547">
        <ele>220.76</ele>
        <time>2021-08-13T10:30:05Z</time>
      </trkpt>
      <trkpt lat="46.62924" lon="3.71554">
        <ele>219.8</ele>
        <time>2021-08-13T10:30:07Z</time>
      </trkpt>
      <trkpt lat="46.62925" lon="3.7156">
        <ele>219.32</ele>
        <time>2021-08-13T10:30:08Z</time>
      </trkpt>
      <trkpt lat="46.62925" lon="3.71567">
        <ele>219.32</ele>
        <time>2021-08-13T10:30:09Z</time>
      </trkpt>
      <trkpt lat="46.62921" lon="3.7163">
        <ele>217.88</ele>
        <time>2021-08-13T10:30:17Z</time>
      </trkpt>
      <trkpt lat="46.6292" lon="3.71638">
        <ele>217.88</ele>
        <time>2021-08-13T10:30:18Z</time>
      </trkpt>
      <trkpt lat="46.62921" lon="3.71679">
        <ele>216.43</ele>
        <time>2021-08-13T10:30:24Z</time>
      </trkpt>
      <trkpt lat="46.62922" lon="3.71684">
        <ele>216.43</ele>
        <time>2021-08-13T10:30:25Z</time>
      </trkpt>
      <trkpt lat="46.62925" lon="3.71688">
        <ele>216.43</ele>
        <time>2021-08-13T10:30:26Z</time>
      </trkpt>
      <trkpt lat="46.62928" lon="3.71691">
        <ele>216.43</ele>
        <time>2021-08-13T10:30:27Z</time>
      </trkpt>
      <trkpt lat="46.62932" lon="3.71692">
        <ele>215.95</ele>
        <time>2021-08-13T10:30:28Z</time>
      </trkpt>
      <trkpt lat="46.62936" lon="3.71693">
        <ele>215.95</ele>
        <time>2021-08-13T10:30:29Z</time>
      </trkpt>
      <trkpt lat="46.62946" lon="3.71696">
        <ele>215.47</ele>
        <time>2021-08-13T10:30:31Z</time>
      </trkpt>
      <trkpt lat="46.62951" lon="3.71699">
        <ele>214.99</ele>
        <time>2021-08-13T10:30:32Z</time>
      </trkpt>
      <trkpt lat="46.62955" lon="3.71704">
        <ele>214.99</ele>
        <time>2021-08-13T10:30:33Z</time>
      </trkpt>
      <trkpt lat="46.62959" lon="3.71709">
        <ele>214.99</ele>
        <time>2021-08-13T10:30:34Z</time>
      </trkpt>
      <trkpt lat="46.62963" lon="3.71714">
        <ele>214.99</ele>
        <time>2021-08-13T10:30:35Z</time>
      </trkpt>
      <trkpt lat="46.62976" lon="3.71728">
        <ele>214.99</ele>
        <time>2021-08-13T10:30:38Z</time>
      </trkpt>
      <trkpt lat="46.62981" lon="3.7173">
        <ele>214.99</ele>
        <time>2021-08-13T10:30:39Z</time>
      </trkpt>
      <trkpt lat="46.6299" lon="3.71736">
        <ele>214.99</ele>
        <time>2021-08-13T10:30:41Z</time>
      </trkpt>
      <trkpt lat="46.62994" lon="3.7174">
        <ele>214.99</ele>
        <time>2021-08-13T10:30:42Z</time>
      </trkpt>
      <trkpt lat="46.62997" lon="3.71744">
        <ele>214.99</ele>
        <time>2021-08-13T10:30:43Z</time>
      </trkpt>
      <trkpt lat="46.62999" lon="3.71751">
        <ele>214.51</ele>
        <time>2021-08-13T10:30:44Z</time>
      </trkpt>
      <trkpt lat="46.63" lon="3.71757">
        <ele>214.51</ele>
        <time>2021-08-13T10:30:45Z</time>
      </trkpt>
      <trkpt lat="46.63003" lon="3.71768">
        <ele>214.51</ele>
        <time>2021-08-13T10:30:47Z</time>
      </trkpt>
      <trkpt lat="46.63005" lon="3.71771">
        <ele>214.51</ele>
        <time>2021-08-13T10:30:48Z</time>
      </trkpt>
      <trkpt lat="46.63008" lon="3.71773">
        <ele>214.51</ele>
        <time>2021-08-13T10:30:49Z</time>
      </trkpt>
      <trkpt lat="46.63016" lon="3.71778">
        <ele>214.51</ele>
        <time>2021-08-13T10:30:54Z</time>
      </trkpt>
      <trkpt lat="46.63024" lon="3.71782">
        <ele>214.51</ele>
        <time>2021-08-13T10:31:03Z</time>
      </trkpt>
      <trkpt lat="46.6303" lon="3.71783">
        <ele>214.51</ele>
        <time>2021-08-13T10:31:11Z</time>
      </trkpt>
      <trkpt lat="46.63036" lon="3.71783">
        <ele>213.07</ele>
        <time>2021-08-13T10:31:19Z</time>
      </trkpt>
      <trkpt lat="46.63037" lon="3.71782">
        <ele>212.59</ele>
        <time>2021-08-13T10:31:28Z</time>
      </trkpt>
      <trkpt lat="46.63037" lon="3.7178">
        <ele>212.59</ele>
        <time>2021-08-13T10:31:47Z</time>
      </trkpt>
      <trkpt lat="46.63035" lon="3.71781">
        <ele>212.59</ele>
        <time>2021-08-13T10:31:53Z</time>
      </trkpt>
      <trkpt lat="46.63033" lon="3.71781">
        <ele>214.03</ele>
        <time>2021-08-13T10:31:56Z</time>
      </trkpt>
      <trkpt lat="46.63026" lon="3.7178">
        <ele>214.99</ele>
        <time>2021-08-13T10:32:08Z</time>
      </trkpt>
      <trkpt lat="46.63026" lon="3.7178">
        <ele>214.99</ele>
        <time>2021-08-13T10:32:25Z</time>
      </trkpt>
      <trkpt lat="46.63026" lon="3.7178">
        <ele>214.99</ele>
        <time>2021-08-13T10:32:41Z</time>
      </trkpt>
      <trkpt lat="46.63021" lon="3.71779">
        <ele>214.51</ele>
        <time>2021-08-13T10:32:47Z</time>
      </trkpt>
      <trkpt lat="46.6302" lon="3.71779">
        <ele>214.51</ele>
        <time>2021-08-13T10:32:48Z</time>
      </trkpt>
      <trkpt lat="46.63012" lon="3.71776">
        <ele>214.51</ele>
        <time>2021-08-13T10:32:56Z</time>
      </trkpt>
      <trkpt lat="46.63003" lon="3.7177">
        <ele>214.51</ele>
        <time>2021-08-13T10:33:05Z</time>
      </trkpt>
      <trkpt lat="46.63" lon="3.71767">
        <ele>214.51</ele>
        <time>2021-08-13T10:33:10Z</time>
      </trkpt>
      <trkpt lat="46.62999" lon="3.71764">
        <ele>214.51</ele>
        <time>2021-08-13T10:33:11Z</time>
      </trkpt>
      <trkpt lat="46.62999" lon="3.71762">
        <ele>214.51</ele>
        <time>2021-08-13T10:33:12Z</time>
      </trkpt>
      <trkpt lat="46.62998" lon="3.71759">
        <ele>214.51</ele>
        <time>2021-08-13T10:33:13Z</time>
      </trkpt>
      <trkpt lat="46.62998" lon="3.71755">
        <ele>214.51</ele>
        <time>2021-08-13T10:33:14Z</time>
      </trkpt>
      <trkpt lat="46.62998" lon="3.71752">
        <ele>214.51</ele>
        <time>2021-08-13T10:33:15Z</time>
      </trkpt>
      <trkpt lat="46.62997" lon="3.71749">
        <ele>214.51</ele>
        <time>2021-08-13T10:33:16Z</time>
      </trkpt>
      <trkpt lat="46.62994" lon="3.71742">
        <ele>214.51</ele>
        <time>2021-08-13T10:33:18Z</time>
      </trkpt>
      <trkpt lat="46.62992" lon="3.7174">
        <ele>214.51</ele>
        <time>2021-08-13T10:33:19Z</time>
      </trkpt>
      <trkpt lat="46.6299" lon="3.71739">
        <ele>214.51</ele>
        <time>2021-08-13T10:33:20Z</time>
      </trkpt>
      <trkpt lat="46.62988" lon="3.71737">
        <ele>214.51</ele>
        <time>2021-08-13T10:33:21Z</time>
      </trkpt>
      <trkpt lat="46.62986" lon="3.71735">
        <ele>214.51</ele>
        <time>2021-08-13T10:33:22Z</time>
      </trkpt>
      <trkpt lat="46.62965" lon="3.71716">
        <ele>214.51</ele>
        <time>2021-08-13T10:33:29Z</time>
      </trkpt>
      <trkpt lat="46.62942" lon="3.71693">
        <ele>214.99</ele>
        <time>2021-08-13T10:33:37Z</time>
      </trkpt>
      <trkpt lat="46.62924" lon="3.71691">
        <ele>215.47</ele>
        <time>2021-08-13T10:33:43Z</time>
      </trkpt>
      <trkpt lat="46.62921" lon="3.71688">
        <ele>215.47</ele>
        <time>2021-08-13T10:33:44Z</time>
      </trkpt>
      <trkpt lat="46.62919" lon="3.71668">
        <ele>215.47</ele>
        <time>2021-08-13T10:33:49Z</time>
      </trkpt>
      <trkpt lat="46.62919" lon="3.71644">
        <ele>216.43</ele>
        <time>2021-08-13T10:33:55Z</time>
      </trkpt>
      <trkpt lat="46.62924" lon="3.7161">
        <ele>216.91</ele>
        <time>2021-08-13T10:34:03Z</time>
      </trkpt>
      <trkpt lat="46.62925" lon="3.71575">
        <ele>217.4</ele>
        <time>2021-08-13T10:34:11Z</time>
      </trkpt>
      <trkpt lat="46.62922" lon="3.71542">
        <ele>218.84</ele>
        <time>2021-08-13T10:34:19Z</time>
      </trkpt>
      <trkpt lat="46.62921" lon="3.71509">
        <ele>219.8</ele>
        <time>2021-08-13T10:34:27Z</time>
      </trkpt>
      <trkpt lat="46.62925" lon="3.71475">
        <ele>219.8</ele>
        <time>2021-08-13T10:34:33Z</time>
      </trkpt>
      <trkpt lat="46.62931" lon="3.71425">
        <ele>218.36</ele>
        <time>2021-08-13T10:34:40Z</time>
      </trkpt>
      <trkpt lat="46.62936" lon="3.71362">
        <ele>218.36</ele>
        <time>2021-08-13T10:34:48Z</time>
      </trkpt>
      <trkpt lat="46.62938" lon="3.71278">
        <ele>217.88</ele>
        <time>2021-08-13T10:34:58Z</time>
      </trkpt>
      <trkpt lat="46.62939" lon="3.71203">
        <ele>217.88</ele>
        <time>2021-08-13T10:35:07Z</time>
      </trkpt>
      <trkpt lat="46.62941" lon="3.7112">
        <ele>217.88</ele>
        <time>2021-08-13T10:35:17Z</time>
      </trkpt>
      <trkpt lat="46.62945" lon="3.71045">
        <ele>217.88</ele>
        <time>2021-08-13T10:35:26Z</time>
      </trkpt>
      <trkpt lat="46.62947" lon="3.70976">
        <ele>219.32</ele>
        <time>2021-08-13T10:35:35Z</time>
      </trkpt>
      <trkpt lat="46.6295" lon="3.70918">
        <ele>219.32</ele>
        <time>2021-08-13T10:35:43Z</time>
      </trkpt>
      <trkpt lat="46.62953" lon="3.70841">
        <ele>219.32</ele>
        <time>2021-08-13T10:35:52Z</time>
      </trkpt>
      <trkpt lat="46.62953" lon="3.70813">
        <ele>217.88</ele>
        <time>2021-08-13T10:35:55Z</time>
      </trkpt>
      <trkpt lat="46.62957" lon="3.70713">
        <ele>217.88</ele>
        <time>2021-08-13T10:36:06Z</time>
      </trkpt>
      <trkpt lat="46.62964" lon="3.70629">
        <ele>217.4</ele>
        <time>2021-08-13T10:36:16Z</time>
      </trkpt>
      <trkpt lat="46.6297" lon="3.70541">
        <ele>217.4</ele>
        <time>2021-08-13T10:36:26Z</time>
      </trkpt>
      <trkpt lat="46.6297" lon="3.70458">
        <ele>217.4</ele>
        <time>2021-08-13T10:36:35Z</time>
      </trkpt>
      <trkpt lat="46.62969" lon="3.70423">
        <ele>217.4</ele>
        <time>2021-08-13T10:36:39Z</time>
      </trkpt>
      <trkpt lat="46.62969" lon="3.70407">
        <ele>218.84</ele>
        <time>2021-08-13T10:36:41Z</time>
      </trkpt>
      <trkpt lat="46.6297" lon="3.70349">
        <ele>219.8</ele>
        <time>2021-08-13T10:36:50Z</time>
      </trkpt>
      <trkpt lat="46.62972" lon="3.70287">
        <ele>219.8</ele>
        <time>2021-08-13T10:37:00Z</time>
      </trkpt>
      <trkpt lat="46.62973" lon="3.7022">
        <ele>219.8</ele>
        <time>2021-08-13T10:37:10Z</time>
      </trkpt>
      <trkpt lat="46.62974" lon="3.702">
        <ele>219.8</ele>
        <time>2021-08-13T10:37:13Z</time>
      </trkpt>
      <trkpt lat="46.62977" lon="3.7013">
        <ele>218.84</ele>
        <time>2021-08-13T10:37:23Z</time>
      </trkpt>
      <trkpt lat="46.6298" lon="3.70063">
        <ele>218.36</ele>
        <time>2021-08-13T10:37:32Z</time>
      </trkpt>
      <trkpt lat="46.62982" lon="3.7001">
        <ele>218.36</ele>
        <time>2021-08-13T10:37:40Z</time>
      </trkpt>
      <trkpt lat="46.62982" lon="3.69992">
        <ele>218.36</ele>
        <time>2021-08-13T10:37:43Z</time>
      </trkpt>
      <trkpt lat="46.62983" lon="3.69985">
        <ele>218.36</ele>
        <time>2021-08-13T10:37:44Z</time>
      </trkpt>
      <trkpt lat="46.62983" lon="3.69979">
        <ele>218.36</ele>
        <time>2021-08-13T10:37:45Z</time>
      </trkpt>
      <trkpt lat="46.62983" lon="3.69972">
        <ele>218.36</ele>
        <time>2021-08-13T10:37:46Z</time>
      </trkpt>
      <trkpt lat="46.62984" lon="3.69965">
        <ele>218.36</ele>
        <time>2021-08-13T10:37:47Z</time>
      </trkpt>
      <trkpt lat="46.62986" lon="3.69908">
        <ele>218.36</ele>
        <time>2021-08-13T10:37:55Z</time>
      </trkpt>
      <trkpt lat="46.62986" lon="3.6988">
        <ele>218.36</ele>
        <time>2021-08-13T10:37:59Z</time>
      </trkpt>
      <trkpt lat="46.62987" lon="3.69873">
        <ele>218.36</ele>
        <time>2021-08-13T10:38:00Z</time>
      </trkpt>
      <trkpt lat="46.62987" lon="3.69867">
        <ele>218.36</ele>
        <time>2021-08-13T10:38:01Z</time>
      </trkpt>
      <trkpt lat="46.62987" lon="3.6986">
        <ele>218.36</ele>
        <time>2021-08-13T10:38:02Z</time>
      </trkpt>
      <trkpt lat="46.62988" lon="3.69854">
        <ele>218.36</ele>
        <time>2021-08-13T10:38:03Z</time>
      </trkpt>
      <trkpt lat="46.62991" lon="3.69788">
        <ele>218.36</ele>
        <time>2021-08-13T10:38:12Z</time>
      </trkpt>
      <trkpt lat="46.62991" lon="3.69781">
        <ele>218.36</ele>
        <time>2021-08-13T10:38:13Z</time>
      </trkpt>
      <trkpt lat="46.62992" lon="3.69758">
        <ele>217.88</ele>
        <time>2021-08-13T10:38:16Z</time>
      </trkpt>
      <trkpt lat="46.62993" lon="3.69743">
        <ele>217.88</ele>
        <time>2021-08-13T10:38:18Z</time>
      </trkpt>
      <trkpt lat="46.62995" lon="3.69679">
        <ele>217.88</ele>
        <time>2021-08-13T10:38:26Z</time>
      </trkpt>
      <trkpt lat="46.62999" lon="3.6961">
        <ele>217.88</ele>
        <time>2021-08-13T10:38:35Z</time>
      </trkpt>
      <trkpt lat="46.63002" lon="3.69519">
        <ele>217.88</ele>
        <time>2021-08-13T10:38:46Z</time>
      </trkpt>
      <trkpt lat="46.63004" lon="3.69443">
        <ele>217.88</ele>
        <time>2021-08-13T10:38:55Z</time>
      </trkpt>
      <trkpt lat="46.63004" lon="3.69418">
        <ele>217.88</ele>
        <time>2021-08-13T10:38:58Z</time>
      </trkpt>
      <trkpt lat="46.63008" lon="3.69411">
        <ele>217.88</ele>
        <time>2021-08-13T10:38:59Z</time>
      </trkpt>
      <trkpt lat="46.63012" lon="3.69407">
        <ele>217.88</ele>
        <time>2021-08-13T10:39:00Z</time>
      </trkpt>
      <trkpt lat="46.63018" lon="3.69404">
        <ele>216.91</ele>
        <time>2021-08-13T10:39:01Z</time>
      </trkpt>
      <trkpt lat="46.63024" lon="3.69401">
        <ele>216.43</ele>
        <time>2021-08-13T10:39:02Z</time>
      </trkpt>
      <trkpt lat="46.63056" lon="3.69389">
        <ele>215.47</ele>
        <time>2021-08-13T10:39:07Z</time>
      </trkpt>
      <trkpt lat="46.63062" lon="3.69389">
        <ele>215.47</ele>
        <time>2021-08-13T10:39:08Z</time>
      </trkpt>
      <trkpt lat="46.63111" lon="3.69394">
        <ele>215.47</ele>
        <time>2021-08-13T10:39:16Z</time>
      </trkpt>
      <trkpt lat="46.63168" lon="3.69407">
        <ele>214.51</ele>
        <time>2021-08-13T10:39:25Z</time>
      </trkpt>
      <trkpt lat="46.63225" lon="3.69412">
        <ele>214.03</ele>
        <time>2021-08-13T10:39:34Z</time>
      </trkpt>
      <trkpt lat="46.63237" lon="3.69412">
        <ele>214.03</ele>
        <time>2021-08-13T10:39:36Z</time>
      </trkpt>
      <trkpt lat="46.63285" lon="3.69413">
        <ele>215.47</ele>
        <time>2021-08-13T10:39:44Z</time>
      </trkpt>
      <trkpt lat="46.63337" lon="3.69414">
        <ele>215.47</ele>
        <time>2021-08-13T10:39:53Z</time>
      </trkpt>
      <trkpt lat="46.63394" lon="3.69414">
        <ele>215.47</ele>
        <time>2021-08-13T10:40:03Z</time>
      </trkpt>
      <trkpt lat="46.63452" lon="3.69416">
        <ele>215.47</ele>
        <time>2021-08-13T10:40:13Z</time>
      </trkpt>
      <trkpt lat="46.63514" lon="3.69417">
        <ele>215.47</ele>
        <time>2021-08-13T10:40:24Z</time>
      </trkpt>
      <trkpt lat="46.63582" lon="3.69419">
        <ele>215.47</ele>
        <time>2021-08-13T10:40:36Z</time>
      </trkpt>
      <trkpt lat="46.63642" lon="3.69419">
        <ele>215.47</ele>
        <time>2021-08-13T10:40:47Z</time>
      </trkpt>
      <trkpt lat="46.63697" lon="3.6942">
        <ele>215.47</ele>
        <time>2021-08-13T10:40:57Z</time>
      </trkpt>
      <trkpt lat="46.63744" lon="3.69421">
        <ele>214.99</ele>
        <time>2021-08-13T10:41:06Z</time>
      </trkpt>
      <trkpt lat="46.63785" lon="3.69423">
        <ele>214.99</ele>
        <time>2021-08-13T10:41:14Z</time>
      </trkpt>
      <trkpt lat="46.63833" lon="3.69421">
        <ele>214.99</ele>
        <time>2021-08-13T10:41:23Z</time>
      </trkpt>
      <trkpt lat="46.63866" lon="3.69399">
        <ele>214.99</ele>
        <time>2021-08-13T10:41:30Z</time>
      </trkpt>
      <trkpt lat="46.63902" lon="3.69353">
        <ele>214.99</ele>
        <time>2021-08-13T10:41:39Z</time>
      </trkpt>
      <trkpt lat="46.63934" lon="3.693">
        <ele>214.99</ele>
        <time>2021-08-13T10:41:48Z</time>
      </trkpt>
      <trkpt lat="46.63975" lon="3.69234">
        <ele>214.99</ele>
        <time>2021-08-13T10:41:59Z</time>
      </trkpt>
      <trkpt lat="46.64019" lon="3.69187">
        <ele>214.99</ele>
        <time>2021-08-13T10:42:09Z</time>
      </trkpt>
      <trkpt lat="46.64063" lon="3.69156">
        <ele>214.99</ele>
        <time>2021-08-13T10:42:18Z</time>
      </trkpt>
      <trkpt lat="46.64105" lon="3.69136">
        <ele>214.99</ele>
        <time>2021-08-13T10:42:26Z</time>
      </trkpt>
      <trkpt lat="46.64154" lon="3.69129">
        <ele>214.99</ele>
        <time>2021-08-13T10:42:35Z</time>
      </trkpt>
      <trkpt lat="46.64206" lon="3.69139">
        <ele>214.99</ele>
        <time>2021-08-13T10:42:45Z</time>
      </trkpt>
      <trkpt lat="46.64226" lon="3.69147">
        <ele>214.99</ele>
        <time>2021-08-13T10:42:49Z</time>
      </trkpt>
      <trkpt lat="46.6427" lon="3.69177">
        <ele>214.99</ele>
        <time>2021-08-13T10:42:58Z</time>
      </trkpt>
      <trkpt lat="46.64317" lon="3.69207">
        <ele>214.99</ele>
        <time>2021-08-13T10:43:08Z</time>
      </trkpt>
      <trkpt lat="46.64332" lon="3.69213">
        <ele>214.99</ele>
        <time>2021-08-13T10:43:11Z</time>
      </trkpt>
      <trkpt lat="46.64337" lon="3.69214">
        <ele>214.99</ele>
        <time>2021-08-13T10:43:12Z</time>
      </trkpt>
      <trkpt lat="46.64342" lon="3.69214">
        <ele>214.99</ele>
        <time>2021-08-13T10:43:13Z</time>
      </trkpt>
      <trkpt lat="46.64347" lon="3.69214">
        <ele>214.99</ele>
        <time>2021-08-13T10:43:14Z</time>
      </trkpt>
      <trkpt lat="46.64352" lon="3.69214">
        <ele>214.99</ele>
        <time>2021-08-13T10:43:15Z</time>
      </trkpt>
      <trkpt lat="46.64397" lon="3.69196">
        <ele>214.99</ele>
        <time>2021-08-13T10:43:24Z</time>
      </trkpt>
      <trkpt lat="46.64411" lon="3.69188">
        <ele>214.99</ele>
        <time>2021-08-13T10:43:27Z</time>
      </trkpt>
      <trkpt lat="46.64416" lon="3.69184">
        <ele>214.99</ele>
        <time>2021-08-13T10:43:28Z</time>
      </trkpt>
      <trkpt lat="46.64421" lon="3.69179">
        <ele>214.99</ele>
        <time>2021-08-13T10:43:29Z</time>
      </trkpt>
      <trkpt lat="46.64463" lon="3.69139">
        <ele>214.99</ele>
        <time>2021-08-13T10:43:38Z</time>
      </trkpt>
      <trkpt lat="46.64497" lon="3.69104">
        <ele>214.99</ele>
        <time>2021-08-13T10:43:46Z</time>
      </trkpt>
      <trkpt lat="46.64502" lon="3.691">
        <ele>214.99</ele>
        <time>2021-08-13T10:43:47Z</time>
      </trkpt>
      <trkpt lat="46.64517" lon="3.6909">
        <ele>214.99</ele>
        <time>2021-08-13T10:43:50Z</time>
      </trkpt>
      <trkpt lat="46.64554" lon="3.69074">
        <ele>214.99</ele>
        <time>2021-08-13T10:43:57Z</time>
      </trkpt>
      <trkpt lat="46.64595" lon="3.69057">
        <ele>214.99</ele>
        <time>2021-08-13T10:44:05Z</time>
      </trkpt>
      <trkpt lat="46.64637" lon="3.69037">
        <ele>214.99</ele>
        <time>2021-08-13T10:44:13Z</time>
      </trkpt>
      <trkpt lat="46.64668" lon="3.69028">
        <ele>214.99</ele>
        <time>2021-08-13T10:44:19Z</time>
      </trkpt>
      <trkpt lat="46.6469" lon="3.69027">
        <ele>214.99</ele>
        <time>2021-08-13T10:44:23Z</time>
      </trkpt>
      <trkpt lat="46.64721" lon="3.69027">
        <ele>214.99</ele>
        <time>2021-08-13T10:44:29Z</time>
      </trkpt>
      <trkpt lat="46.64731" lon="3.69025">
        <ele>214.99</ele>
        <time>2021-08-13T10:44:31Z</time>
      </trkpt>
      <trkpt lat="46.64736" lon="3.69022">
        <ele>214.99</ele>
        <time>2021-08-13T10:44:32Z</time>
      </trkpt>
      <trkpt lat="46.6474" lon="3.6902">
        <ele>214.99</ele>
        <time>2021-08-13T10:44:33Z</time>
      </trkpt>
      <trkpt lat="46.64784" lon="3.68986">
        <ele>214.99</ele>
        <time>2021-08-13T10:44:42Z</time>
      </trkpt>
      <trkpt lat="46.64836" lon="3.68942">
        <ele>214.99</ele>
        <time>2021-08-13T10:44:53Z</time>
      </trkpt>
      <trkpt lat="46.64887" lon="3.689">
        <ele>214.99</ele>
        <time>2021-08-13T10:45:03Z</time>
      </trkpt>
      <trkpt lat="46.64927" lon="3.68858">
        <ele>214.99</ele>
        <time>2021-08-13T10:45:11Z</time>
      </trkpt>
      <trkpt lat="46.64944" lon="3.6883">
        <ele>213.55</ele>
        <time>2021-08-13T10:45:15Z</time>
      </trkpt>
      <trkpt lat="46.64979" lon="3.68783">
        <ele>213.55</ele>
        <time>2021-08-13T10:45:23Z</time>
      </trkpt>
      <trkpt lat="46.64989" lon="3.68774">
        <ele>213.55</ele>
        <time>2021-08-13T10:45:25Z</time>
      </trkpt>
      <trkpt lat="46.64994" lon="3.6877">
        <ele>213.55</ele>
        <time>2021-08-13T10:45:26Z</time>
      </trkpt>
      <trkpt lat="46.64999" lon="3.68767">
        <ele>213.55</ele>
        <time>2021-08-13T10:45:27Z</time>
      </trkpt>
      <trkpt lat="46.65004" lon="3.68765">
        <ele>213.55</ele>
        <time>2021-08-13T10:45:28Z</time>
      </trkpt>
      <trkpt lat="46.6501" lon="3.68763">
        <ele>213.55</ele>
        <time>2021-08-13T10:45:29Z</time>
      </trkpt>
      <trkpt lat="46.65015" lon="3.68763">
        <ele>213.55</ele>
        <time>2021-08-13T10:45:30Z</time>
      </trkpt>
      <trkpt lat="46.6502" lon="3.68762">
        <ele>213.55</ele>
        <time>2021-08-13T10:45:31Z</time>
      </trkpt>
      <trkpt lat="46.65026" lon="3.6876">
        <ele>213.55</ele>
        <time>2021-08-13T10:45:32Z</time>
      </trkpt>
      <trkpt lat="46.65031" lon="3.68758">
        <ele>213.55</ele>
        <time>2021-08-13T10:45:33Z</time>
      </trkpt>
      <trkpt lat="46.65035" lon="3.68756">
        <ele>213.55</ele>
        <time>2021-08-13T10:45:34Z</time>
      </trkpt>
      <trkpt lat="46.6504" lon="3.68752">
        <ele>213.55</ele>
        <time>2021-08-13T10:45:35Z</time>
      </trkpt>
      <trkpt lat="46.65044" lon="3.68748">
        <ele>213.55</ele>
        <time>2021-08-13T10:45:36Z</time>
      </trkpt>
      <trkpt lat="46.65048" lon="3.68743">
        <ele>213.55</ele>
        <time>2021-08-13T10:45:37Z</time>
      </trkpt>
      <trkpt lat="46.65051" lon="3.68738">
        <ele>213.55</ele>
        <time>2021-08-13T10:45:38Z</time>
      </trkpt>
      <trkpt lat="46.65052" lon="3.68733">
        <ele>213.55</ele>
        <time>2021-08-13T10:45:39Z</time>
      </trkpt>
      <trkpt lat="46.65053" lon="3.68725">
        <ele>213.55</ele>
        <time>2021-08-13T10:45:40Z</time>
      </trkpt>
      <trkpt lat="46.65053" lon="3.68718">
        <ele>213.55</ele>
        <time>2021-08-13T10:45:41Z</time>
      </trkpt>
      <trkpt lat="46.65052" lon="3.68712">
        <ele>213.55</ele>
        <time>2021-08-13T10:45:42Z</time>
      </trkpt>
      <trkpt lat="46.6505" lon="3.68704">
        <ele>213.55</ele>
        <time>2021-08-13T10:45:43Z</time>
      </trkpt>
      <trkpt lat="46.65049" lon="3.68698">
        <ele>213.55</ele>
        <time>2021-08-13T10:45:44Z</time>
      </trkpt>
      <trkpt lat="46.65036" lon="3.68655">
        <ele>213.55</ele>
        <time>2021-08-13T10:45:50Z</time>
      </trkpt>
      <trkpt lat="46.65032" lon="3.6864">
        <ele>213.55</ele>
        <time>2021-08-13T10:45:52Z</time>
      </trkpt>
      <trkpt lat="46.65031" lon="3.68632">
        <ele>213.55</ele>
        <time>2021-08-13T10:45:53Z</time>
      </trkpt>
      <trkpt lat="46.6503" lon="3.68624">
        <ele>213.55</ele>
        <time>2021-08-13T10:45:54Z</time>
      </trkpt>
      <trkpt lat="46.65027" lon="3.6854">
        <ele>213.55</ele>
        <time>2021-08-13T10:46:04Z</time>
      </trkpt>
      <trkpt lat="46.6503" lon="3.6849">
        <ele>213.55</ele>
        <time>2021-08-13T10:46:10Z</time>
      </trkpt>
      <trkpt lat="46.65037" lon="3.68439">
        <ele>213.55</ele>
        <time>2021-08-13T10:46:16Z</time>
      </trkpt>
      <trkpt lat="46.65037" lon="3.68431">
        <ele>213.55</ele>
        <time>2021-08-13T10:46:17Z</time>
      </trkpt>
      <trkpt lat="46.65036" lon="3.68422">
        <ele>213.55</ele>
        <time>2021-08-13T10:46:18Z</time>
      </trkpt>
      <trkpt lat="46.65035" lon="3.68413">
        <ele>213.55</ele>
        <time>2021-08-13T10:46:19Z</time>
      </trkpt>
      <trkpt lat="46.65033" lon="3.68405">
        <ele>213.55</ele>
        <time>2021-08-13T10:46:20Z</time>
      </trkpt>
      <trkpt lat="46.65031" lon="3.68396">
        <ele>213.55</ele>
        <time>2021-08-13T10:46:21Z</time>
      </trkpt>
      <trkpt lat="46.65024" lon="3.68372">
        <ele>213.55</ele>
        <time>2021-08-13T10:46:24Z</time>
      </trkpt>
      <trkpt lat="46.65021" lon="3.68364">
        <ele>213.55</ele>
        <time>2021-08-13T10:46:25Z</time>
      </trkpt>
      <trkpt lat="46.65018" lon="3.68357">
        <ele>213.55</ele>
        <time>2021-08-13T10:46:26Z</time>
      </trkpt>
      <trkpt lat="46.65004" lon="3.68322">
        <ele>213.07</ele>
        <time>2021-08-13T10:46:31Z</time>
      </trkpt>
      <trkpt lat="46.65001" lon="3.68316">
        <ele>213.07</ele>
        <time>2021-08-13T10:46:32Z</time>
      </trkpt>
      <trkpt lat="46.64997" lon="3.68312">
        <ele>213.07</ele>
        <time>2021-08-13T10:46:33Z</time>
      </trkpt>
      <trkpt lat="46.64993" lon="3.68309">
        <ele>213.07</ele>
        <time>2021-08-13T10:46:34Z</time>
      </trkpt>
      <trkpt lat="46.64988" lon="3.68308">
        <ele>213.07</ele>
        <time>2021-08-13T10:46:35Z</time>
      </trkpt>
      <trkpt lat="46.64983" lon="3.68308">
        <ele>213.07</ele>
        <time>2021-08-13T10:46:36Z</time>
      </trkpt>
      <trkpt lat="46.64977" lon="3.68309">
        <ele>213.07</ele>
        <time>2021-08-13T10:46:37Z</time>
      </trkpt>
      <trkpt lat="46.64927" lon="3.68318">
        <ele>213.07</ele>
        <time>2021-08-13T10:46:46Z</time>
      </trkpt>
      <trkpt lat="46.64922" lon="3.68318">
        <ele>213.07</ele>
        <time>2021-08-13T10:46:47Z</time>
      </trkpt>
      <trkpt lat="46.64916" lon="3.68317">
        <ele>213.07</ele>
        <time>2021-08-13T10:46:48Z</time>
      </trkpt>
      <trkpt lat="46.64885" lon="3.68304">
        <ele>214.51</ele>
        <time>2021-08-13T10:46:54Z</time>
      </trkpt>
      <trkpt lat="46.6488" lon="3.68299">
        <ele>214.51</ele>
        <time>2021-08-13T10:46:55Z</time>
      </trkpt>
      <trkpt lat="46.64876" lon="3.68294">
        <ele>214.03</ele>
        <time>2021-08-13T10:46:56Z</time>
      </trkpt>
      <trkpt lat="46.64872" lon="3.68287">
        <ele>214.03</ele>
        <time>2021-08-13T10:46:57Z</time>
      </trkpt>
      <trkpt lat="46.6487" lon="3.6828">
        <ele>214.03</ele>
        <time>2021-08-13T10:46:58Z</time>
      </trkpt>
      <trkpt lat="46.64869" lon="3.6827">
        <ele>214.03</ele>
        <time>2021-08-13T10:46:59Z</time>
      </trkpt>
      <trkpt lat="46.64868" lon="3.68263">
        <ele>214.03</ele>
        <time>2021-08-13T10:47:00Z</time>
      </trkpt>
      <trkpt lat="46.64868" lon="3.68254">
        <ele>214.03</ele>
        <time>2021-08-13T10:47:01Z</time>
      </trkpt>
      <trkpt lat="46.64864" lon="3.68179">
        <ele>214.03</ele>
        <time>2021-08-13T10:47:10Z</time>
      </trkpt>
      <trkpt lat="46.64863" lon="3.68152">
        <ele>214.03</ele>
        <time>2021-08-13T10:47:13Z</time>
      </trkpt>
      <trkpt lat="46.64864" lon="3.68143">
        <ele>214.03</ele>
        <time>2021-08-13T10:47:14Z</time>
      </trkpt>
      <trkpt lat="46.64867" lon="3.68117">
        <ele>214.03</ele>
        <time>2021-08-13T10:47:17Z</time>
      </trkpt>
      <trkpt lat="46.64869" lon="3.68109">
        <ele>214.03</ele>
        <time>2021-08-13T10:47:18Z</time>
      </trkpt>
      <trkpt lat="46.64871" lon="3.681">
        <ele>214.03</ele>
        <time>2021-08-13T10:47:19Z</time>
      </trkpt>
      <trkpt lat="46.64873" lon="3.6809">
        <ele>214.03</ele>
        <time>2021-08-13T10:47:20Z</time>
      </trkpt>
      <trkpt lat="46.64874" lon="3.68083">
        <ele>214.03</ele>
        <time>2021-08-13T10:47:21Z</time>
      </trkpt>
      <trkpt lat="46.64875" lon="3.68073">
        <ele>214.03</ele>
        <time>2021-08-13T10:47:22Z</time>
      </trkpt>
      <trkpt lat="46.64874" lon="3.68065">
        <ele>214.03</ele>
        <time>2021-08-13T10:47:23Z</time>
      </trkpt>
      <trkpt lat="46.64871" lon="3.68056">
        <ele>213.07</ele>
        <time>2021-08-13T10:47:24Z</time>
      </trkpt>
      <trkpt lat="46.64869" lon="3.68049">
        <ele>213.07</ele>
        <time>2021-08-13T10:47:25Z</time>
      </trkpt>
      <trkpt lat="46.64863" lon="3.68042">
        <ele>213.07</ele>
        <time>2021-08-13T10:47:26Z</time>
      </trkpt>
      <trkpt lat="46.64859" lon="3.68038">
        <ele>213.07</ele>
        <time>2021-08-13T10:47:27Z</time>
      </trkpt>
      <trkpt lat="46.64853" lon="3.68033">
        <ele>213.07</ele>
        <time>2021-08-13T10:47:28Z</time>
      </trkpt>
      <trkpt lat="46.64836" lon="3.68022">
        <ele>213.07</ele>
        <time>2021-08-13T10:47:31Z</time>
      </trkpt>
      <trkpt lat="46.64825" lon="3.68015">
        <ele>213.07</ele>
        <time>2021-08-13T10:47:33Z</time>
      </trkpt>
      <trkpt lat="46.64819" lon="3.6801">
        <ele>213.07</ele>
        <time>2021-08-13T10:47:34Z</time>
      </trkpt>
      <trkpt lat="46.6481" lon="3.68">
        <ele>213.07</ele>
        <time>2021-08-13T10:47:36Z</time>
      </trkpt>
      <trkpt lat="46.64807" lon="3.67994">
        <ele>213.07</ele>
        <time>2021-08-13T10:47:37Z</time>
      </trkpt>
      <trkpt lat="46.64779" lon="3.6794">
        <ele>213.07</ele>
        <time>2021-08-13T10:47:45Z</time>
      </trkpt>
      <trkpt lat="46.64764" lon="3.67907">
        <ele>213.07</ele>
        <time>2021-08-13T10:47:50Z</time>
      </trkpt>
      <trkpt lat="46.64763" lon="3.67898">
        <ele>213.07</ele>
        <time>2021-08-13T10:47:51Z</time>
      </trkpt>
      <trkpt lat="46.64764" lon="3.67892">
        <ele>213.07</ele>
        <time>2021-08-13T10:47:52Z</time>
      </trkpt>
      <trkpt lat="46.64766" lon="3.67885">
        <ele>213.07</ele>
        <time>2021-08-13T10:47:53Z</time>
      </trkpt>
      <trkpt lat="46.64769" lon="3.67879">
        <ele>213.07</ele>
        <time>2021-08-13T10:47:54Z</time>
      </trkpt>
      <trkpt lat="46.64777" lon="3.67862">
        <ele>214.03</ele>
        <time>2021-08-13T10:47:57Z</time>
      </trkpt>
      <trkpt lat="46.64784" lon="3.67844">
        <ele>214.03</ele>
        <time>2021-08-13T10:48:00Z</time>
      </trkpt>
      <trkpt lat="46.64786" lon="3.67837">
        <ele>214.03</ele>
        <time>2021-08-13T10:48:01Z</time>
      </trkpt>
      <trkpt lat="46.64787" lon="3.67832">
        <ele>214.51</ele>
        <time>2021-08-13T10:48:02Z</time>
      </trkpt>
      <trkpt lat="46.64787" lon="3.67825">
        <ele>214.51</ele>
        <time>2021-08-13T10:48:03Z</time>
      </trkpt>
      <trkpt lat="46.64787" lon="3.6782">
        <ele>214.51</ele>
        <time>2021-08-13T10:48:04Z</time>
      </trkpt>
      <trkpt lat="46.64787" lon="3.67813">
        <ele>214.51</ele>
        <time>2021-08-13T10:48:05Z</time>
      </trkpt>
      <trkpt lat="46.64787" lon="3.67807">
        <ele>214.51</ele>
        <time>2021-08-13T10:48:06Z</time>
      </trkpt>
      <trkpt lat="46.64787" lon="3.67795">
        <ele>214.51</ele>
        <time>2021-08-13T10:48:08Z</time>
      </trkpt>
      <trkpt lat="46.64784" lon="3.67731">
        <ele>214.51</ele>
        <time>2021-08-13T10:48:17Z</time>
      </trkpt>
      <trkpt lat="46.64777" lon="3.67653">
        <ele>213.55</ele>
        <time>2021-08-13T10:48:28Z</time>
      </trkpt>
      <trkpt lat="46.6477" lon="3.67618">
        <ele>213.55</ele>
        <time>2021-08-13T10:48:33Z</time>
      </trkpt>
      <trkpt lat="46.64767" lon="3.67598">
        <ele>213.55</ele>
        <time>2021-08-13T10:48:36Z</time>
      </trkpt>
      <trkpt lat="46.64764" lon="3.67583">
        <ele>213.55</ele>
        <time>2021-08-13T10:48:38Z</time>
      </trkpt>
      <trkpt lat="46.64763" lon="3.67575">
        <ele>213.55</ele>
        <time>2021-08-13T10:48:39Z</time>
      </trkpt>
      <trkpt lat="46.64757" lon="3.67515">
        <ele>213.07</ele>
        <time>2021-08-13T10:48:47Z</time>
      </trkpt>
      <trkpt lat="46.64749" lon="3.67435">
        <ele>213.07</ele>
        <time>2021-08-13T10:48:57Z</time>
      </trkpt>
      <trkpt lat="46.64739" lon="3.67364">
        <ele>213.07</ele>
        <time>2021-08-13T10:49:06Z</time>
      </trkpt>
      <trkpt lat="46.64737" lon="3.67341">
        <ele>213.07</ele>
        <time>2021-08-13T10:49:09Z</time>
      </trkpt>
      <trkpt lat="46.64736" lon="3.67318">
        <ele>213.07</ele>
        <time>2021-08-13T10:49:12Z</time>
      </trkpt>
      <trkpt lat="46.64735" lon="3.67238">
        <ele>213.07</ele>
        <time>2021-08-13T10:49:22Z</time>
      </trkpt>
      <trkpt lat="46.64737" lon="3.67182">
        <ele>213.07</ele>
        <time>2021-08-13T10:49:29Z</time>
      </trkpt>
      <trkpt lat="46.64736" lon="3.67175">
        <ele>213.07</ele>
        <time>2021-08-13T10:49:30Z</time>
      </trkpt>
      <trkpt lat="46.64734" lon="3.67167">
        <ele>213.07</ele>
        <time>2021-08-13T10:49:31Z</time>
      </trkpt>
      <trkpt lat="46.64732" lon="3.6716">
        <ele>213.07</ele>
        <time>2021-08-13T10:49:32Z</time>
      </trkpt>
      <trkpt lat="46.64729" lon="3.67154">
        <ele>213.07</ele>
        <time>2021-08-13T10:49:33Z</time>
      </trkpt>
      <trkpt lat="46.64727" lon="3.67147">
        <ele>213.07</ele>
        <time>2021-08-13T10:49:34Z</time>
      </trkpt>
      <trkpt lat="46.64695" lon="3.67085">
        <ele>213.07</ele>
        <time>2021-08-13T10:49:44Z</time>
      </trkpt>
      <trkpt lat="46.64666" lon="3.67023">
        <ele>213.07</ele>
        <time>2021-08-13T10:49:54Z</time>
      </trkpt>
      <trkpt lat="46.6464" lon="3.6697">
        <ele>212.59</ele>
        <time>2021-08-13T10:50:02Z</time>
      </trkpt>
      <trkpt lat="46.64612" lon="3.66911">
        <ele>212.59</ele>
        <time>2021-08-13T10:50:11Z</time>
      </trkpt>
      <trkpt lat="46.64587" lon="3.6686">
        <ele>212.59</ele>
        <time>2021-08-13T10:50:19Z</time>
      </trkpt>
      <trkpt lat="46.64574" lon="3.66829">
        <ele>212.11</ele>
        <time>2021-08-13T10:50:23Z</time>
      </trkpt>
      <trkpt lat="46.64563" lon="3.66806">
        <ele>212.11</ele>
        <time>2021-08-13T10:50:26Z</time>
      </trkpt>
      <trkpt lat="46.64561" lon="3.66798">
        <ele>212.11</ele>
        <time>2021-08-13T10:50:27Z</time>
      </trkpt>
      <trkpt lat="46.64559" lon="3.66791">
        <ele>212.11</ele>
        <time>2021-08-13T10:50:28Z</time>
      </trkpt>
      <trkpt lat="46.64557" lon="3.66785">
        <ele>212.11</ele>
        <time>2021-08-13T10:50:29Z</time>
      </trkpt>
      <trkpt lat="46.64555" lon="3.66778">
        <ele>213.55</ele>
        <time>2021-08-13T10:50:30Z</time>
      </trkpt>
      <trkpt lat="46.64553" lon="3.66772">
        <ele>213.55</ele>
        <time>2021-08-13T10:50:31Z</time>
      </trkpt>
      <trkpt lat="46.64552" lon="3.66765">
        <ele>213.55</ele>
        <time>2021-08-13T10:50:32Z</time>
      </trkpt>
      <trkpt lat="46.64552" lon="3.66759">
        <ele>214.03</ele>
        <time>2021-08-13T10:50:33Z</time>
      </trkpt>
      <trkpt lat="46.64552" lon="3.66752">
        <ele>214.03</ele>
        <time>2021-08-13T10:50:34Z</time>
      </trkpt>
      <trkpt lat="46.6455" lon="3.66706">
        <ele>214.51</ele>
        <time>2021-08-13T10:50:41Z</time>
      </trkpt>
      <trkpt lat="46.64546" lon="3.66652">
        <ele>214.99</ele>
        <time>2021-08-13T10:50:49Z</time>
      </trkpt>
      <trkpt lat="46.64544" lon="3.66583">
        <ele>214.51</ele>
        <time>2021-08-13T10:50:58Z</time>
      </trkpt>
      <trkpt lat="46.64549" lon="3.66505">
        <ele>214.51</ele>
        <time>2021-08-13T10:51:08Z</time>
      </trkpt>
      <trkpt lat="46.64555" lon="3.66463">
        <ele>214.51</ele>
        <time>2021-08-13T10:51:13Z</time>
      </trkpt>
      <trkpt lat="46.64558" lon="3.66405">
        <ele>214.51</ele>
        <time>2021-08-13T10:51:21Z</time>
      </trkpt>
      <trkpt lat="46.64559" lon="3.66397">
        <ele>214.51</ele>
        <time>2021-08-13T10:51:22Z</time>
      </trkpt>
      <trkpt lat="46.64556" lon="3.66339">
        <ele>214.51</ele>
        <time>2021-08-13T10:51:30Z</time>
      </trkpt>
      <trkpt lat="46.64551" lon="3.66278">
        <ele>214.51</ele>
        <time>2021-08-13T10:51:39Z</time>
      </trkpt>
      <trkpt lat="46.64544" lon="3.6622">
        <ele>214.51</ele>
        <time>2021-08-13T10:51:48Z</time>
      </trkpt>
      <trkpt lat="46.64541" lon="3.66195">
        <ele>214.51</ele>
        <time>2021-08-13T10:51:52Z</time>
      </trkpt>
      <trkpt lat="46.64538" lon="3.66178">
        <ele>214.51</ele>
        <time>2021-08-13T10:51:55Z</time>
      </trkpt>
      <trkpt lat="46.64535" lon="3.66153">
        <ele>214.51</ele>
        <time>2021-08-13T10:51:59Z</time>
      </trkpt>
      <trkpt lat="46.64532" lon="3.6609">
        <ele>214.51</ele>
        <time>2021-08-13T10:52:08Z</time>
      </trkpt>
      <trkpt lat="46.64529" lon="3.66019">
        <ele>214.51</ele>
        <time>2021-08-13T10:52:18Z</time>
      </trkpt>
      <trkpt lat="46.64526" lon="3.65956">
        <ele>214.51</ele>
        <time>2021-08-13T10:52:27Z</time>
      </trkpt>
      <trkpt lat="46.6452" lon="3.65873">
        <ele>214.51</ele>
        <time>2021-08-13T10:52:39Z</time>
      </trkpt>
      <trkpt lat="46.64518" lon="3.65802">
        <ele>214.51</ele>
        <time>2021-08-13T10:52:49Z</time>
      </trkpt>
      <trkpt lat="46.64519" lon="3.65795">
        <ele>214.51</ele>
        <time>2021-08-13T10:52:50Z</time>
      </trkpt>
      <trkpt lat="46.64535" lon="3.65739">
        <ele>214.51</ele>
        <time>2021-08-13T10:52:58Z</time>
      </trkpt>
      <trkpt lat="46.64554" lon="3.6568">
        <ele>214.51</ele>
        <time>2021-08-13T10:53:07Z</time>
      </trkpt>
      <trkpt lat="46.64571" lon="3.65621">
        <ele>214.51</ele>
        <time>2021-08-13T10:53:16Z</time>
      </trkpt>
      <trkpt lat="46.64588" lon="3.65549">
        <ele>214.51</ele>
        <time>2021-08-13T10:53:27Z</time>
      </trkpt>
      <trkpt lat="46.64594" lon="3.65515">
        <ele>214.51</ele>
        <time>2021-08-13T10:53:32Z</time>
      </trkpt>
      <trkpt lat="46.64596" lon="3.65508">
        <ele>214.51</ele>
        <time>2021-08-13T10:53:33Z</time>
      </trkpt>
      <trkpt lat="46.64613" lon="3.65431">
        <ele>214.51</ele>
        <time>2021-08-13T10:53:44Z</time>
      </trkpt>
      <trkpt lat="46.64625" lon="3.65372">
        <ele>214.51</ele>
        <time>2021-08-13T10:53:53Z</time>
      </trkpt>
      <trkpt lat="46.64631" lon="3.65346">
        <ele>214.51</ele>
        <time>2021-08-13T10:53:57Z</time>
      </trkpt>
      <trkpt lat="46.64632" lon="3.65339">
        <ele>214.51</ele>
        <time>2021-08-13T10:53:58Z</time>
      </trkpt>
      <trkpt lat="46.6464" lon="3.65285">
        <ele>214.03</ele>
        <time>2021-08-13T10:54:06Z</time>
      </trkpt>
      <trkpt lat="46.64641" lon="3.65279">
        <ele>214.03</ele>
        <time>2021-08-13T10:54:07Z</time>
      </trkpt>
      <trkpt lat="46.64649" lon="3.65205">
        <ele>214.03</ele>
        <time>2021-08-13T10:54:18Z</time>
      </trkpt>
      <trkpt lat="46.6465" lon="3.65191">
        <ele>214.03</ele>
        <time>2021-08-13T10:54:20Z</time>
      </trkpt>
      <trkpt lat="46.6465" lon="3.65185">
        <ele>214.03</ele>
        <time>2021-08-13T10:54:21Z</time>
      </trkpt>
      <trkpt lat="46.6465" lon="3.65178">
        <ele>214.03</ele>
        <time>2021-08-13T10:54:22Z</time>
      </trkpt>
      <trkpt lat="46.64649" lon="3.65173">
        <ele>214.03</ele>
        <time>2021-08-13T10:54:23Z</time>
      </trkpt>
      <trkpt lat="46.64648" lon="3.65167">
        <ele>214.03</ele>
        <time>2021-08-13T10:54:24Z</time>
      </trkpt>
      <trkpt lat="46.64647" lon="3.6516">
        <ele>214.03</ele>
        <time>2021-08-13T10:54:25Z</time>
      </trkpt>
      <trkpt lat="46.64627" lon="3.65105">
        <ele>214.03</ele>
        <time>2021-08-13T10:54:34Z</time>
      </trkpt>
      <trkpt lat="46.64608" lon="3.65068">
        <ele>214.03</ele>
        <time>2021-08-13T10:54:41Z</time>
      </trkpt>
      <trkpt lat="46.6459" lon="3.65045">
        <ele>214.03</ele>
        <time>2021-08-13T10:54:47Z</time>
      </trkpt>
      <trkpt lat="46.64587" lon="3.65041">
        <ele>214.03</ele>
        <time>2021-08-13T10:54:48Z</time>
      </trkpt>
      <trkpt lat="46.64585" lon="3.65036">
        <ele>214.03</ele>
        <time>2021-08-13T10:54:49Z</time>
      </trkpt>
      <trkpt lat="46.64584" lon="3.65031">
        <ele>214.03</ele>
        <time>2021-08-13T10:54:50Z</time>
      </trkpt>
      <trkpt lat="46.64585" lon="3.65027">
        <ele>214.51</ele>
        <time>2021-08-13T10:54:51Z</time>
      </trkpt>
      <trkpt lat="46.64587" lon="3.65023">
        <ele>214.99</ele>
        <time>2021-08-13T10:54:52Z</time>
      </trkpt>
      <trkpt lat="46.6459" lon="3.65021">
        <ele>214.99</ele>
        <time>2021-08-13T10:54:53Z</time>
      </trkpt>
      <trkpt lat="46.64593" lon="3.6502">
        <ele>214.99</ele>
        <time>2021-08-13T10:54:54Z</time>
      </trkpt>
      <trkpt lat="46.64596" lon="3.65018">
        <ele>214.99</ele>
        <time>2021-08-13T10:54:55Z</time>
      </trkpt>
      <trkpt lat="46.646" lon="3.65016">
        <ele>214.99</ele>
        <time>2021-08-13T10:54:56Z</time>
      </trkpt>
      <trkpt lat="46.64637" lon="3.64992">
        <ele>215.47</ele>
        <time>2021-08-13T10:55:06Z</time>
      </trkpt>
      <trkpt lat="46.64641" lon="3.64989">
        <ele>215.47</ele>
        <time>2021-08-13T10:55:07Z</time>
      </trkpt>
      <trkpt lat="46.64647" lon="3.64981">
        <ele>215.95</ele>
        <time>2021-08-13T10:55:09Z</time>
      </trkpt>
      <trkpt lat="46.6465" lon="3.64977">
        <ele>215.95</ele>
        <time>2021-08-13T10:55:10Z</time>
      </trkpt>
      <trkpt lat="46.6467" lon="3.64958">
        <ele>217.4</ele>
        <time>2021-08-13T10:55:17Z</time>
      </trkpt>
      <trkpt lat="46.64699" lon="3.64938">
        <ele>219.32</ele>
        <time>2021-08-13T10:55:27Z</time>
      </trkpt>
      <trkpt lat="46.64712" lon="3.64931">
        <ele>219.8</ele>
        <time>2021-08-13T10:55:33Z</time>
      </trkpt>
      <trkpt lat="46.64714" lon="3.6493">
        <ele>220.28</ele>
        <time>2021-08-13T10:55:34Z</time>
      </trkpt>
      <trkpt lat="46.64717" lon="3.64929">
        <ele>220.28</ele>
        <time>2021-08-13T10:55:35Z</time>
      </trkpt>
      <trkpt lat="46.64719" lon="3.64927">
        <ele>220.28</ele>
        <time>2021-08-13T10:55:36Z</time>
      </trkpt>
      <trkpt lat="46.64728" lon="3.64916">
        <ele>221.24</ele>
        <time>2021-08-13T10:55:41Z</time>
      </trkpt>
      <trkpt lat="46.64729" lon="3.64912">
        <ele>221.24</ele>
        <time>2021-08-13T10:55:42Z</time>
      </trkpt>
      <trkpt lat="46.64728" lon="3.64909">
        <ele>221.24</ele>
        <time>2021-08-13T10:55:43Z</time>
      </trkpt>
      <trkpt lat="46.64728" lon="3.64906">
        <ele>221.24</ele>
        <time>2021-08-13T10:55:44Z</time>
      </trkpt>
      <trkpt lat="46.64727" lon="3.64903">
        <ele>221.72</ele>
        <time>2021-08-13T10:55:45Z</time>
      </trkpt>
      <trkpt lat="46.64726" lon="3.64899">
        <ele>221.72</ele>
        <time>2021-08-13T10:55:46Z</time>
      </trkpt>
      <trkpt lat="46.64715" lon="3.64869">
        <ele>221.72</ele>
        <time>2021-08-13T10:55:54Z</time>
      </trkpt>
      <trkpt lat="46.64704" lon="3.64835">
        <ele>218.36</ele>
        <time>2021-08-13T10:56:00Z</time>
      </trkpt>
      <trkpt lat="46.64692" lon="3.64804">
        <ele>217.88</ele>
        <time>2021-08-13T10:56:04Z</time>
      </trkpt>
      <trkpt lat="46.64688" lon="3.64798">
        <ele>217.4</ele>
        <time>2021-08-13T10:56:05Z</time>
      </trkpt>
      <trkpt lat="46.64683" lon="3.64792">
        <ele>217.4</ele>
        <time>2021-08-13T10:56:06Z</time>
      </trkpt>
      <trkpt lat="46.64678" lon="3.64787">
        <ele>217.4</ele>
        <time>2021-08-13T10:56:07Z</time>
      </trkpt>
      <trkpt lat="46.64673" lon="3.64783">
        <ele>217.4</ele>
        <time>2021-08-13T10:56:08Z</time>
      </trkpt>
      <trkpt lat="46.64668" lon="3.6478">
        <ele>217.4</ele>
        <time>2021-08-13T10:56:09Z</time>
      </trkpt>
      <trkpt lat="46.64627" lon="3.64761">
        <ele>217.4</ele>
        <time>2021-08-13T10:56:17Z</time>
      </trkpt>
      <trkpt lat="46.6461" lon="3.64753">
        <ele>218.84</ele>
        <time>2021-08-13T10:56:21Z</time>
      </trkpt>
      <trkpt lat="46.64604" lon="3.64747">
        <ele>218.84</ele>
        <time>2021-08-13T10:56:23Z</time>
      </trkpt>
      <trkpt lat="46.64602" lon="3.64742">
        <ele>219.32</ele>
        <time>2021-08-13T10:56:24Z</time>
      </trkpt>
      <trkpt lat="46.6459" lon="3.64712">
        <ele>220.28</ele>
        <time>2021-08-13T10:56:32Z</time>
      </trkpt>
      <trkpt lat="46.64583" lon="3.64695">
        <ele>221.24</ele>
        <time>2021-08-13T10:56:39Z</time>
      </trkpt>
      <trkpt lat="46.64579" lon="3.64678">
        <ele>222.68</ele>
        <time>2021-08-13T10:56:46Z</time>
      </trkpt>
      <trkpt lat="46.64572" lon="3.64659">
        <ele>223.64</ele>
        <time>2021-08-13T10:56:55Z</time>
      </trkpt>
      <trkpt lat="46.6457" lon="3.64655">
        <ele>224.61</ele>
        <time>2021-08-13T10:56:57Z</time>
      </trkpt>
      <trkpt lat="46.64569" lon="3.64646">
        <ele>225.09</ele>
        <time>2021-08-13T10:57:01Z</time>
      </trkpt>
      <trkpt lat="46.64568" lon="3.64644">
        <ele>225.09</ele>
        <time>2021-08-13T10:57:02Z</time>
      </trkpt>
      <trkpt lat="46.64568" lon="3.64642">
        <ele>225.09</ele>
        <time>2021-08-13T10:57:03Z</time>
      </trkpt>
      <trkpt lat="46.64567" lon="3.6464">
        <ele>225.57</ele>
        <time>2021-08-13T10:57:04Z</time>
      </trkpt>
      <trkpt lat="46.64566" lon="3.64638">
        <ele>225.57</ele>
        <time>2021-08-13T10:57:05Z</time>
      </trkpt>
      <trkpt lat="46.64562" lon="3.64624">
        <ele>227.01</ele>
        <time>2021-08-13T10:57:12Z</time>
      </trkpt>
      <trkpt lat="46.64556" lon="3.64605">
        <ele>228.45</ele>
        <time>2021-08-13T10:57:21Z</time>
      </trkpt>
      <trkpt lat="46.64554" lon="3.64599">
        <ele>228.93</ele>
        <time>2021-08-13T10:57:24Z</time>
      </trkpt>
      <trkpt lat="46.64553" lon="3.64597">
        <ele>228.93</ele>
        <time>2021-08-13T10:57:25Z</time>
      </trkpt>
      <trkpt lat="46.64552" lon="3.64595">
        <ele>228.93</ele>
        <time>2021-08-13T10:57:26Z</time>
      </trkpt>
      <trkpt lat="46.64552" lon="3.64593">
        <ele>229.41</ele>
        <time>2021-08-13T10:57:27Z</time>
      </trkpt>
      <trkpt lat="46.64552" lon="3.64591">
        <ele>229.41</ele>
        <time>2021-08-13T10:57:28Z</time>
      </trkpt>
      <trkpt lat="46.64551" lon="3.64589">
        <ele>229.41</ele>
        <time>2021-08-13T10:57:29Z</time>
      </trkpt>
      <trkpt lat="46.64551" lon="3.64587">
        <ele>229.89</ele>
        <time>2021-08-13T10:57:30Z</time>
      </trkpt>
      <trkpt lat="46.6455" lon="3.64585">
        <ele>229.89</ele>
        <time>2021-08-13T10:57:31Z</time>
      </trkpt>
      <trkpt lat="46.6455" lon="3.64583">
        <ele>229.89</ele>
        <time>2021-08-13T10:57:32Z</time>
      </trkpt>
      <trkpt lat="46.6455" lon="3.64581">
        <ele>230.37</ele>
        <time>2021-08-13T10:57:33Z</time>
      </trkpt>
      <trkpt lat="46.6455" lon="3.64579">
        <ele>230.37</ele>
        <time>2021-08-13T10:57:34Z</time>
      </trkpt>
      <trkpt lat="46.6455" lon="3.64577">
        <ele>230.85</ele>
        <time>2021-08-13T10:57:35Z</time>
      </trkpt>
      <trkpt lat="46.6455" lon="3.64575">
        <ele>230.85</ele>
        <time>2021-08-13T10:57:36Z</time>
      </trkpt>
      <trkpt lat="46.6455" lon="3.64572">
        <ele>231.33</ele>
        <time>2021-08-13T10:57:37Z</time>
      </trkpt>
      <trkpt lat="46.6455" lon="3.64549">
        <ele>232.78</ele>
        <time>2021-08-13T10:57:48Z</time>
      </trkpt>
      <trkpt lat="46.6455" lon="3.64527">
        <ele>233.74</ele>
        <time>2021-08-13T10:57:58Z</time>
      </trkpt>
      <trkpt lat="46.64553" lon="3.64513">
        <ele>234.7</ele>
        <time>2021-08-13T10:58:05Z</time>
      </trkpt>
      <trkpt lat="46.64558" lon="3.64495">
        <ele>236.14</ele>
        <time>2021-08-13T10:58:13Z</time>
      </trkpt>
      <trkpt lat="46.64566" lon="3.64472">
        <ele>237.1</ele>
        <time>2021-08-13T10:58:22Z</time>
      </trkpt>
      <trkpt lat="46.64574" lon="3.64442">
        <ele>237.58</ele>
        <time>2021-08-13T10:58:30Z</time>
      </trkpt>
      <trkpt lat="46.64585" lon="3.64407">
        <ele>238.54</ele>
        <time>2021-08-13T10:58:38Z</time>
      </trkpt>
      <trkpt lat="46.64599" lon="3.64363">
        <ele>238.54</ele>
        <time>2021-08-13T10:58:48Z</time>
      </trkpt>
      <trkpt lat="46.64607" lon="3.64338">
        <ele>239.02</ele>
        <time>2021-08-13T10:58:55Z</time>
      </trkpt>
      <trkpt lat="46.64618" lon="3.643">
        <ele>239.02</ele>
        <time>2021-08-13T10:59:03Z</time>
      </trkpt>
      <trkpt lat="46.64628" lon="3.64263">
        <ele>239.02</ele>
        <time>2021-08-13T10:59:10Z</time>
      </trkpt>
      <trkpt lat="46.64631" lon="3.64248">
        <ele>242.39</ele>
        <time>2021-08-13T10:59:13Z</time>
      </trkpt>
      <trkpt lat="46.64632" lon="3.64244">
        <ele>239.02</ele>
        <time>2021-08-13T10:59:14Z</time>
      </trkpt>
      <trkpt lat="46.6464" lon="3.6421">
        <ele>238.54</ele>
        <time>2021-08-13T10:59:20Z</time>
      </trkpt>
      <trkpt lat="46.64651" lon="3.6416">
        <ele>238.06</ele>
        <time>2021-08-13T10:59:28Z</time>
      </trkpt>
      <trkpt lat="46.64655" lon="3.64142">
        <ele>238.06</ele>
        <time>2021-08-13T10:59:31Z</time>
      </trkpt>
      <trkpt lat="46.64657" lon="3.64136">
        <ele>238.06</ele>
        <time>2021-08-13T10:59:32Z</time>
      </trkpt>
      <trkpt lat="46.64659" lon="3.6413">
        <ele>237.58</ele>
        <time>2021-08-13T10:59:33Z</time>
      </trkpt>
      <trkpt lat="46.64674" lon="3.6407">
        <ele>237.58</ele>
        <time>2021-08-13T10:59:42Z</time>
      </trkpt>
      <trkpt lat="46.64689" lon="3.64009">
        <ele>237.1</ele>
        <time>2021-08-13T10:59:51Z</time>
      </trkpt>
      <trkpt lat="46.64701" lon="3.63957">
        <ele>237.1</ele>
        <time>2021-08-13T10:59:59Z</time>
      </trkpt>
      <trkpt lat="46.64713" lon="3.63903">
        <ele>237.1</ele>
        <time>2021-08-13T11:00:07Z</time>
      </trkpt>
      <trkpt lat="46.64714" lon="3.63897">
        <ele>237.1</ele>
        <time>2021-08-13T11:00:08Z</time>
      </trkpt>
      <trkpt lat="46.64728" lon="3.63839">
        <ele>237.1</ele>
        <time>2021-08-13T11:00:17Z</time>
      </trkpt>
      <trkpt lat="46.64737" lon="3.63796">
        <ele>238.06</ele>
        <time>2021-08-13T11:00:24Z</time>
      </trkpt>
      <trkpt lat="46.64746" lon="3.63757">
        <ele>238.54</ele>
        <time>2021-08-13T11:00:30Z</time>
      </trkpt>
      <trkpt lat="46.64747" lon="3.63751">
        <ele>238.54</ele>
        <time>2021-08-13T11:00:31Z</time>
      </trkpt>
      <trkpt lat="46.64751" lon="3.63731">
        <ele>239.02</ele>
        <time>2021-08-13T11:00:34Z</time>
      </trkpt>
      <trkpt lat="46.64761" lon="3.63683">
        <ele>239.51</ele>
        <time>2021-08-13T11:00:42Z</time>
      </trkpt>
      <trkpt lat="46.64769" lon="3.63641">
        <ele>239.51</ele>
        <time>2021-08-13T11:00:49Z</time>
      </trkpt>
      <trkpt lat="46.64771" lon="3.63628">
        <ele>239.51</ele>
        <time>2021-08-13T11:00:51Z</time>
      </trkpt>
      <trkpt lat="46.64783" lon="3.63567">
        <ele>239.51</ele>
        <time>2021-08-13T11:01:00Z</time>
      </trkpt>
      <trkpt lat="46.64795" lon="3.63505">
        <ele>239.51</ele>
        <time>2021-08-13T11:01:09Z</time>
      </trkpt>
      <trkpt lat="46.64811" lon="3.63428">
        <ele>239.51</ele>
        <time>2021-08-13T11:01:20Z</time>
      </trkpt>
      <trkpt lat="46.64831" lon="3.63352">
        <ele>239.51</ele>
        <time>2021-08-13T11:01:31Z</time>
      </trkpt>
      <trkpt lat="46.64833" lon="3.63345">
        <ele>239.51</ele>
        <time>2021-08-13T11:01:32Z</time>
      </trkpt>
      <trkpt lat="46.64857" lon="3.63282">
        <ele>238.06</ele>
        <time>2021-08-13T11:01:42Z</time>
      </trkpt>
      <trkpt lat="46.64888" lon="3.63218">
        <ele>237.1</ele>
        <time>2021-08-13T11:01:52Z</time>
      </trkpt>
      <trkpt lat="46.64892" lon="3.63212">
        <ele>237.1</ele>
        <time>2021-08-13T11:01:53Z</time>
      </trkpt>
      <trkpt lat="46.64933" lon="3.63148">
        <ele>236.14</ele>
        <time>2021-08-13T11:02:03Z</time>
      </trkpt>
      <trkpt lat="46.64956" lon="3.63103">
        <ele>235.66</ele>
        <time>2021-08-13T11:02:10Z</time>
      </trkpt>
      <trkpt lat="46.64972" lon="3.63072">
        <ele>235.66</ele>
        <time>2021-08-13T11:02:15Z</time>
      </trkpt>
      <trkpt lat="46.64975" lon="3.63066">
        <ele>235.66</ele>
        <time>2021-08-13T11:02:16Z</time>
      </trkpt>
      <trkpt lat="46.65001" lon="3.63012">
        <ele>236.62</ele>
        <time>2021-08-13T11:02:25Z</time>
      </trkpt>
      <trkpt lat="46.65027" lon="3.62954">
        <ele>237.1</ele>
        <time>2021-08-13T11:02:35Z</time>
      </trkpt>
      <trkpt lat="46.65046" lon="3.62906">
        <ele>237.58</ele>
        <time>2021-08-13T11:02:43Z</time>
      </trkpt>
      <trkpt lat="46.65062" lon="3.62857">
        <ele>239.02</ele>
        <time>2021-08-13T11:02:51Z</time>
      </trkpt>
      <trkpt lat="46.65081" lon="3.62788">
        <ele>238.54</ele>
        <time>2021-08-13T11:03:02Z</time>
      </trkpt>
      <trkpt lat="46.65085" lon="3.62769">
        <ele>240.47</ele>
        <time>2021-08-13T11:03:05Z</time>
      </trkpt>
      <trkpt lat="46.65089" lon="3.6275">
        <ele>238.54</ele>
        <time>2021-08-13T11:03:08Z</time>
      </trkpt>
      <trkpt lat="46.65092" lon="3.62736">
        <ele>238.54</ele>
        <time>2021-08-13T11:03:10Z</time>
      </trkpt>
      <trkpt lat="46.65093" lon="3.62728">
        <ele>238.54</ele>
        <time>2021-08-13T11:03:11Z</time>
      </trkpt>
      <trkpt lat="46.65095" lon="3.62714">
        <ele>240.47</ele>
        <time>2021-08-13T11:03:13Z</time>
      </trkpt>
      <trkpt lat="46.65105" lon="3.62639">
        <ele>238.54</ele>
        <time>2021-08-13T11:03:23Z</time>
      </trkpt>
      <trkpt lat="46.65115" lon="3.62559">
        <ele>238.54</ele>
        <time>2021-08-13T11:03:34Z</time>
      </trkpt>
      <trkpt lat="46.65123" lon="3.6249">
        <ele>237.58</ele>
        <time>2021-08-13T11:03:44Z</time>
      </trkpt>
      <trkpt lat="46.65131" lon="3.62432">
        <ele>236.62</ele>
        <time>2021-08-13T11:03:52Z</time>
      </trkpt>
      <trkpt lat="46.65142" lon="3.62363">
        <ele>234.7</ele>
        <time>2021-08-13T11:04:00Z</time>
      </trkpt>
      <trkpt lat="46.65157" lon="3.6228">
        <ele>233.26</ele>
        <time>2021-08-13T11:04:09Z</time>
      </trkpt>
      <trkpt lat="46.65171" lon="3.62203">
        <ele>234.7</ele>
        <time>2021-08-13T11:04:18Z</time>
      </trkpt>
      <trkpt lat="46.65184" lon="3.62132">
        <ele>233.26</ele>
        <time>2021-08-13T11:04:27Z</time>
      </trkpt>
      <trkpt lat="46.65189" lon="3.62119">
        <ele>233.26</ele>
        <time>2021-08-13T11:04:29Z</time>
      </trkpt>
      <trkpt lat="46.65194" lon="3.62112">
        <ele>233.26</ele>
        <time>2021-08-13T11:04:30Z</time>
      </trkpt>
      <trkpt lat="46.65198" lon="3.62108">
        <ele>233.26</ele>
        <time>2021-08-13T11:04:31Z</time>
      </trkpt>
      <trkpt lat="46.65207" lon="3.621">
        <ele>233.26</ele>
        <time>2021-08-13T11:04:33Z</time>
      </trkpt>
      <trkpt lat="46.65217" lon="3.62093">
        <ele>233.26</ele>
        <time>2021-08-13T11:04:35Z</time>
      </trkpt>
      <trkpt lat="46.65221" lon="3.6209">
        <ele>233.26</ele>
        <time>2021-08-13T11:04:36Z</time>
      </trkpt>
      <trkpt lat="46.65226" lon="3.62086">
        <ele>233.26</ele>
        <time>2021-08-13T11:04:37Z</time>
      </trkpt>
      <trkpt lat="46.65254" lon="3.62054">
        <ele>233.26</ele>
        <time>2021-08-13T11:04:44Z</time>
      </trkpt>
      <trkpt lat="46.65287" lon="3.62015">
        <ele>233.26</ele>
        <time>2021-08-13T11:04:52Z</time>
      </trkpt>
      <trkpt lat="46.65312" lon="3.61986">
        <ele>233.26</ele>
        <time>2021-08-13T11:04:58Z</time>
      </trkpt>
      <trkpt lat="46.65349" lon="3.6195">
        <ele>232.78</ele>
        <time>2021-08-13T11:05:06Z</time>
      </trkpt>
      <trkpt lat="46.65383" lon="3.61922">
        <ele>232.78</ele>
        <time>2021-08-13T11:05:13Z</time>
      </trkpt>
      <trkpt lat="46.65427" lon="3.61887">
        <ele>232.78</ele>
        <time>2021-08-13T11:05:21Z</time>
      </trkpt>
      <trkpt lat="46.65463" lon="3.61857">
        <ele>232.3</ele>
        <time>2021-08-13T11:05:28Z</time>
      </trkpt>
      <trkpt lat="46.65495" lon="3.6183">
        <ele>232.3</ele>
        <time>2021-08-13T11:05:34Z</time>
      </trkpt>
      <trkpt lat="46.65532" lon="3.61797">
        <ele>232.3</ele>
        <time>2021-08-13T11:05:41Z</time>
      </trkpt>
      <trkpt lat="46.65564" lon="3.6177">
        <ele>232.3</ele>
        <time>2021-08-13T11:05:48Z</time>
      </trkpt>
      <trkpt lat="46.65576" lon="3.6176">
        <ele>232.3</ele>
        <time>2021-08-13T11:05:51Z</time>
      </trkpt>
      <trkpt lat="46.65579" lon="3.61758">
        <ele>232.3</ele>
        <time>2021-08-13T11:05:52Z</time>
      </trkpt>
      <trkpt lat="46.65585" lon="3.61752">
        <ele>232.3</ele>
        <time>2021-08-13T11:05:55Z</time>
      </trkpt>
      <trkpt lat="46.65585" lon="3.61749">
        <ele>232.3</ele>
        <time>2021-08-13T11:05:56Z</time>
      </trkpt>
      <trkpt lat="46.65585" lon="3.61746">
        <ele>232.3</ele>
        <time>2021-08-13T11:05:57Z</time>
      </trkpt>
      <trkpt lat="46.65585" lon="3.61743">
        <ele>232.3</ele>
        <time>2021-08-13T11:05:58Z</time>
      </trkpt>
      <trkpt lat="46.65584" lon="3.61739">
        <ele>232.3</ele>
        <time>2021-08-13T11:05:59Z</time>
      </trkpt>
      <trkpt lat="46.65583" lon="3.61735">
        <ele>232.3</ele>
        <time>2021-08-13T11:06:00Z</time>
      </trkpt>
      <trkpt lat="46.65574" lon="3.617">
        <ele>231.81</ele>
        <time>2021-08-13T11:06:07Z</time>
      </trkpt>
      <trkpt lat="46.65564" lon="3.61659">
        <ele>231.81</ele>
        <time>2021-08-13T11:06:14Z</time>
      </trkpt>
      <trkpt lat="46.65563" lon="3.61653">
        <ele>231.81</ele>
        <time>2021-08-13T11:06:15Z</time>
      </trkpt>
      <trkpt lat="46.65561" lon="3.61647">
        <ele>231.81</ele>
        <time>2021-08-13T11:06:16Z</time>
      </trkpt>
      <trkpt lat="46.6555" lon="3.61598">
        <ele>231.81</ele>
        <time>2021-08-13T11:06:24Z</time>
      </trkpt>
      <trkpt lat="46.65548" lon="3.61585">
        <ele>231.81</ele>
        <time>2021-08-13T11:06:26Z</time>
      </trkpt>
      <trkpt lat="46.65546" lon="3.61579">
        <ele>231.81</ele>
        <time>2021-08-13T11:06:27Z</time>
      </trkpt>
      <trkpt lat="46.65544" lon="3.61572">
        <ele>231.81</ele>
        <time>2021-08-13T11:06:28Z</time>
      </trkpt>
      <trkpt lat="46.65531" lon="3.61515">
        <ele>231.33</ele>
        <time>2021-08-13T11:06:36Z</time>
      </trkpt>
      <trkpt lat="46.65515" lon="3.61456">
        <ele>231.33</ele>
        <time>2021-08-13T11:06:45Z</time>
      </trkpt>
      <trkpt lat="46.65497" lon="3.61403">
        <ele>232.3</ele>
        <time>2021-08-13T11:06:54Z</time>
      </trkpt>
      <trkpt lat="46.65496" lon="3.61398">
        <ele>232.3</ele>
        <time>2021-08-13T11:06:55Z</time>
      </trkpt>
      <trkpt lat="46.65494" lon="3.61392">
        <ele>232.3</ele>
        <time>2021-08-13T11:06:56Z</time>
      </trkpt>
      <trkpt lat="46.6548" lon="3.61351">
        <ele>232.78</ele>
        <time>2021-08-13T11:07:03Z</time>
      </trkpt>
      <trkpt lat="46.65463" lon="3.61305">
        <ele>234.22</ele>
        <time>2021-08-13T11:07:12Z</time>
      </trkpt>
      <trkpt lat="46.6546" lon="3.61279">
        <ele>234.7</ele>
        <time>2021-08-13T11:07:17Z</time>
      </trkpt>
      <trkpt lat="46.65448" lon="3.61271">
        <ele>235.18</ele>
        <time>2021-08-13T11:07:21Z</time>
      </trkpt>
      <trkpt lat="46.65432" lon="3.61274">
        <ele>235.66</ele>
        <time>2021-08-13T11:07:26Z</time>
      </trkpt>
      <trkpt lat="46.65423" lon="3.61279">
        <ele>235.66</ele>
        <time>2021-08-13T11:07:30Z</time>
      </trkpt>
      <trkpt lat="46.65422" lon="3.61281">
        <ele>235.66</ele>
        <time>2021-08-13T11:07:31Z</time>
      </trkpt>
      <trkpt lat="46.65421" lon="3.61286">
        <ele>235.66</ele>
        <time>2021-08-13T11:07:37Z</time>
      </trkpt>
      <trkpt lat="46.65419" lon="3.61285">
        <ele>235.66</ele>
        <time>2021-08-13T11:07:55Z</time>
      </trkpt>
      <trkpt lat="46.65419" lon="3.61283">
        <ele>235.66</ele>
        <time>2021-08-13T11:08:16Z</time>
      </trkpt>
      <trkpt lat="46.65424" lon="3.61283">
        <ele>235.66</ele>
        <time>2021-08-13T11:08:42Z</time>
      </trkpt>
      <trkpt lat="46.6542" lon="3.61285">
        <ele>235.66</ele>
        <time>2021-08-13T11:08:59Z</time>
      </trkpt>
      <trkpt lat="46.65423" lon="3.61281">
        <ele>235.66</ele>
        <time>2021-08-13T11:09:22Z</time>
      </trkpt>
      <trkpt lat="46.65423" lon="3.61284">
        <ele>235.66</ele>
        <time>2021-08-13T11:09:40Z</time>
      </trkpt>
      <trkpt lat="46.65424" lon="3.61277">
        <ele>235.66</ele>
        <time>2021-08-13T11:09:58Z</time>
      </trkpt>
      <trkpt lat="46.65419" lon="3.61283">
        <ele>235.66</ele>
        <time>2021-08-13T11:10:21Z</time>
      </trkpt>
      <trkpt lat="46.6542" lon="3.61287">
        <ele>235.66</ele>
        <time>2021-08-13T11:10:32Z</time>
      </trkpt>
      <trkpt lat="46.65422" lon="3.61286">
        <ele>235.66</ele>
        <time>2021-08-13T11:10:50Z</time>
      </trkpt>
      <trkpt lat="46.65423" lon="3.61292">
        <ele>235.66</ele>
        <time>2021-08-13T11:11:09Z</time>
      </trkpt>
      <trkpt lat="46.65421" lon="3.61292">
        <ele>235.18</ele>
        <time>2021-08-13T11:11:22Z</time>
      </trkpt>
      <trkpt lat="46.65419" lon="3.61288">
        <ele>235.18</ele>
        <time>2021-08-13T11:11:40Z</time>
      </trkpt>
      <trkpt lat="46.65421" lon="3.61288">
        <ele>235.18</ele>
        <time>2021-08-13T11:11:58Z</time>
      </trkpt>
      <trkpt lat="46.65422" lon="3.61287">
        <ele>235.18</ele>
        <time>2021-08-13T11:12:20Z</time>
      </trkpt>
      <trkpt lat="46.6542" lon="3.61287">
        <ele>235.18</ele>
        <time>2021-08-13T11:12:43Z</time>
      </trkpt>
      <trkpt lat="46.65421" lon="3.61287">
        <ele>235.18</ele>
        <time>2021-08-13T11:12:59Z</time>
      </trkpt>
      <trkpt lat="46.65421" lon="3.61285">
        <ele>235.18</ele>
        <time>2021-08-13T11:13:12Z</time>
      </trkpt>
      <trkpt lat="46.65419" lon="3.61287">
        <ele>235.18</ele>
        <time>2021-08-13T11:13:27Z</time>
      </trkpt>
      <trkpt lat="46.6542" lon="3.61284">
        <ele>235.18</ele>
        <time>2021-08-13T11:13:45Z</time>
      </trkpt>
      <trkpt lat="46.65416" lon="3.6128">
        <ele>235.18</ele>
        <time>2021-08-13T11:14:10Z</time>
      </trkpt>
      <trkpt lat="46.65414" lon="3.61282">
        <ele>235.18</ele>
        <time>2021-08-13T11:14:30Z</time>
      </trkpt>
      <trkpt lat="46.65417" lon="3.61283">
        <ele>235.18</ele>
        <time>2021-08-13T11:14:43Z</time>
      </trkpt>
      <trkpt lat="46.65417" lon="3.61288">
        <ele>235.18</ele>
        <time>2021-08-13T11:15:01Z</time>
      </trkpt>
      <trkpt lat="46.65417" lon="3.61282">
        <ele>235.18</ele>
        <time>2021-08-13T11:15:19Z</time>
      </trkpt>
      <trkpt lat="46.65417" lon="3.61282">
        <ele>235.18</ele>
        <time>2021-08-13T11:15:22Z</time>
      </trkpt>
      <trkpt lat="46.65418" lon="3.61286">
        <ele>235.18</ele>
        <time>2021-08-13T11:15:28Z</time>
      </trkpt>
      <trkpt lat="46.65418" lon="3.61292">
        <ele>235.18</ele>
        <time>2021-08-13T11:15:49Z</time>
      </trkpt>
      <trkpt lat="46.6542" lon="3.61291">
        <ele>235.18</ele>
        <time>2021-08-13T11:16:09Z</time>
      </trkpt>
      <trkpt lat="46.6542" lon="3.61288">
        <ele>235.18</ele>
        <time>2021-08-13T11:16:27Z</time>
      </trkpt>
      <trkpt lat="46.65422" lon="3.61286">
        <ele>235.18</ele>
        <time>2021-08-13T11:16:45Z</time>
      </trkpt>
      <trkpt lat="46.65424" lon="3.61288">
        <ele>235.18</ele>
        <time>2021-08-13T11:16:58Z</time>
      </trkpt>
      <trkpt lat="46.65421" lon="3.6129">
        <ele>235.18</ele>
        <time>2021-08-13T11:17:13Z</time>
      </trkpt>
      <trkpt lat="46.65421" lon="3.61287">
        <ele>234.7</ele>
        <time>2021-08-13T11:17:30Z</time>
      </trkpt>
      <trkpt lat="46.65419" lon="3.61287">
        <ele>234.7</ele>
        <time>2021-08-13T11:17:52Z</time>
      </trkpt>
      <trkpt lat="46.65421" lon="3.61283">
        <ele>234.7</ele>
        <time>2021-08-13T11:18:06Z</time>
      </trkpt>
      <trkpt lat="46.65421" lon="3.61288">
        <ele>234.7</ele>
        <time>2021-08-13T11:18:20Z</time>
      </trkpt>
      <trkpt lat="46.65421" lon="3.6129">
        <ele>234.7</ele>
        <time>2021-08-13T11:18:44Z</time>
      </trkpt>
      <trkpt lat="46.65424" lon="3.61291">
        <ele>234.7</ele>
        <time>2021-08-13T11:19:00Z</time>
      </trkpt>
      <trkpt lat="46.65421" lon="3.61284">
        <ele>234.7</ele>
        <time>2021-08-13T11:19:18Z</time>
      </trkpt>
      <trkpt lat="46.65418" lon="3.61283">
        <ele>234.7</ele>
        <time>2021-08-13T11:19:40Z</time>
      </trkpt>
      <trkpt lat="46.6542" lon="3.61286">
        <ele>234.7</ele>
        <time>2021-08-13T11:19:53Z</time>
      </trkpt>
      <trkpt lat="46.6542" lon="3.61287">
        <ele>234.7</ele>
        <time>2021-08-13T11:20:07Z</time>
      </trkpt>
      <trkpt lat="46.65419" lon="3.61285">
        <ele>234.7</ele>
        <time>2021-08-13T11:20:14Z</time>
      </trkpt>
      <trkpt lat="46.65418" lon="3.61282">
        <ele>234.7</ele>
        <time>2021-08-13T11:20:15Z</time>
      </trkpt>
      <trkpt lat="46.65417" lon="3.6128">
        <ele>234.7</ele>
        <time>2021-08-13T11:20:19Z</time>
      </trkpt>
      <trkpt lat="46.65418" lon="3.61281">
        <ele>234.7</ele>
        <time>2021-08-13T11:20:26Z</time>
      </trkpt>
      <trkpt lat="46.6542" lon="3.61279">
        <ele>234.7</ele>
        <time>2021-08-13T11:20:40Z</time>
      </trkpt>
      <trkpt lat="46.65416" lon="3.61277">
        <ele>234.7</ele>
        <time>2021-08-13T11:20:58Z</time>
      </trkpt>
      <trkpt lat="46.65417" lon="3.61281">
        <ele>234.7</ele>
        <time>2021-08-13T11:21:19Z</time>
      </trkpt>
      <trkpt lat="46.6542" lon="3.61286">
        <ele>234.7</ele>
        <time>2021-08-13T11:21:42Z</time>
      </trkpt>
      <trkpt lat="46.65421" lon="3.61291">
        <ele>234.7</ele>
        <time>2021-08-13T11:22:02Z</time>
      </trkpt>
      <trkpt lat="46.65418" lon="3.61286">
        <ele>234.7</ele>
        <time>2021-08-13T11:22:22Z</time>
      </trkpt>
      <trkpt lat="46.65416" lon="3.6129">
        <ele>234.7</ele>
        <time>2021-08-13T11:22:43Z</time>
      </trkpt>
      <trkpt lat="46.65417" lon="3.61291">
        <ele>234.7</ele>
        <time>2021-08-13T11:22:58Z</time>
      </trkpt>
      <trkpt lat="46.6542" lon="3.61291">
        <ele>234.7</ele>
        <time>2021-08-13T11:23:17Z</time>
      </trkpt>
      <trkpt lat="46.65414" lon="3.61287">
        <ele>234.7</ele>
        <time>2021-08-13T11:23:37Z</time>
      </trkpt>
      <trkpt lat="46.65416" lon="3.61288">
        <ele>234.7</ele>
        <time>2021-08-13T11:23:59Z</time>
      </trkpt>
      <trkpt lat="46.65418" lon="3.61289">
        <ele>234.7</ele>
        <time>2021-08-13T11:24:17Z</time>
      </trkpt>
      <trkpt lat="46.65421" lon="3.61285">
        <ele>234.7</ele>
        <time>2021-08-13T11:24:40Z</time>
      </trkpt>
      <trkpt lat="46.6542" lon="3.61285">
        <ele>234.7</ele>
        <time>2021-08-13T11:24:58Z</time>
      </trkpt>
      <trkpt lat="46.65418" lon="3.61284">
        <ele>234.7</ele>
        <time>2021-08-13T11:25:21Z</time>
      </trkpt>
      <trkpt lat="46.65414" lon="3.6129">
        <ele>234.7</ele>
        <time>2021-08-13T11:25:44Z</time>
      </trkpt>
      <trkpt lat="46.65416" lon="3.6129">
        <ele>234.7</ele>
        <time>2021-08-13T11:26:09Z</time>
      </trkpt>
      <trkpt lat="46.65421" lon="3.6129">
        <ele>234.7</ele>
        <time>2021-08-13T11:26:28Z</time>
      </trkpt>
      <trkpt lat="46.65419" lon="3.61284">
        <ele>234.7</ele>
        <time>2021-08-13T11:26:50Z</time>
      </trkpt>
      <trkpt lat="46.65421" lon="3.61287">
        <ele>234.7</ele>
        <time>2021-08-13T11:27:06Z</time>
      </trkpt>
      <trkpt lat="46.65421" lon="3.61286">
        <ele>234.7</ele>
        <time>2021-08-13T11:27:30Z</time>
      </trkpt>
      <trkpt lat="46.6542" lon="3.61291">
        <ele>234.7</ele>
        <time>2021-08-13T11:27:46Z</time>
      </trkpt>
      <trkpt lat="46.65419" lon="3.61292">
        <ele>234.7</ele>
        <time>2021-08-13T11:28:04Z</time>
      </trkpt>
      <trkpt lat="46.6542" lon="3.6129">
        <ele>234.7</ele>
        <time>2021-08-13T11:28:25Z</time>
      </trkpt>
      <trkpt lat="46.6542" lon="3.6129">
        <ele>234.7</ele>
        <time>2021-08-13T11:28:45Z</time>
      </trkpt>
      <trkpt lat="46.65423" lon="3.61283">
        <ele>234.7</ele>
        <time>2021-08-13T11:28:59Z</time>
      </trkpt>
      <trkpt lat="46.65423" lon="3.61286">
        <ele>234.7</ele>
        <time>2021-08-13T11:29:16Z</time>
      </trkpt>
      <trkpt lat="46.65423" lon="3.61288">
        <ele>234.7</ele>
        <time>2021-08-13T11:29:35Z</time>
      </trkpt>
      <trkpt lat="46.65423" lon="3.61288">
        <ele>234.7</ele>
        <time>2021-08-13T11:29:56Z</time>
      </trkpt>
      <trkpt lat="46.65427" lon="3.61293">
        <ele>234.7</ele>
        <time>2021-08-13T11:30:17Z</time>
      </trkpt>
      <trkpt lat="46.65426" lon="3.61291">
        <ele>234.7</ele>
        <time>2021-08-13T11:30:36Z</time>
      </trkpt>
      <trkpt lat="46.65423" lon="3.61289">
        <ele>234.7</ele>
        <time>2021-08-13T11:30:57Z</time>
      </trkpt>
      <trkpt lat="46.6542" lon="3.61279">
        <ele>234.7</ele>
        <time>2021-08-13T11:31:19Z</time>
      </trkpt>
      <trkpt lat="46.6542" lon="3.6128">
        <ele>234.7</ele>
        <time>2021-08-13T11:31:44Z</time>
      </trkpt>
      <trkpt lat="46.65421" lon="3.61289">
        <ele>234.22</ele>
        <time>2021-08-13T11:32:04Z</time>
      </trkpt>
      <trkpt lat="46.6542" lon="3.61289">
        <ele>234.22</ele>
        <time>2021-08-13T11:32:27Z</time>
      </trkpt>
      <trkpt lat="46.65417" lon="3.61289">
        <ele>234.22</ele>
        <time>2021-08-13T11:32:47Z</time>
      </trkpt>
      <trkpt lat="46.65416" lon="3.61296">
        <ele>234.22</ele>
        <time>2021-08-13T11:33:09Z</time>
      </trkpt>
      <trkpt lat="46.65416" lon="3.61291">
        <ele>234.22</ele>
        <time>2021-08-13T11:33:28Z</time>
      </trkpt>
      <trkpt lat="46.65416" lon="3.61288">
        <ele>234.22</ele>
        <time>2021-08-13T11:33:47Z</time>
      </trkpt>
      <trkpt lat="46.65413" lon="3.61283">
        <ele>234.22</ele>
        <time>2021-08-13T11:34:13Z</time>
      </trkpt>
      <trkpt lat="46.65413" lon="3.61277">
        <ele>234.22</ele>
        <time>2021-08-13T11:34:33Z</time>
      </trkpt>
      <trkpt lat="46.65414" lon="3.61277">
        <ele>234.22</ele>
        <time>2021-08-13T11:34:51Z</time>
      </trkpt>
      <trkpt lat="46.65414" lon="3.61275">
        <ele>234.22</ele>
        <time>2021-08-13T11:35:08Z</time>
      </trkpt>
      <trkpt lat="46.65417" lon="3.6128">
        <ele>233.74</ele>
        <time>2021-08-13T11:35:27Z</time>
      </trkpt>
      <trkpt lat="46.65416" lon="3.61282">
        <ele>233.74</ele>
        <time>2021-08-13T11:35:47Z</time>
      </trkpt>
      <trkpt lat="46.65418" lon="3.61277">
        <ele>233.74</ele>
        <time>2021-08-13T11:36:07Z</time>
      </trkpt>
      <trkpt lat="46.65415" lon="3.61282">
        <ele>233.74</ele>
        <time>2021-08-13T11:36:26Z</time>
      </trkpt>
      <trkpt lat="46.65415" lon="3.61281">
        <ele>233.74</ele>
        <time>2021-08-13T11:36:45Z</time>
      </trkpt>
      <trkpt lat="46.65416" lon="3.61277">
        <ele>233.74</ele>
        <time>2021-08-13T11:36:57Z</time>
      </trkpt>
      <trkpt lat="46.65422" lon="3.61278">
        <ele>233.74</ele>
        <time>2021-08-13T11:37:18Z</time>
      </trkpt>
      <trkpt lat="46.6542" lon="3.61282">
        <ele>233.74</ele>
        <time>2021-08-13T11:37:37Z</time>
      </trkpt>
      <trkpt lat="46.65417" lon="3.61283">
        <ele>233.74</ele>
        <time>2021-08-13T11:37:57Z</time>
      </trkpt>
      <trkpt lat="46.65418" lon="3.61283">
        <ele>233.74</ele>
        <time>2021-08-13T11:38:11Z</time>
      </trkpt>
      <trkpt lat="46.65415" lon="3.61284">
        <ele>233.74</ele>
        <time>2021-08-13T11:38:28Z</time>
      </trkpt>
      <trkpt lat="46.65421" lon="3.61288">
        <ele>233.74</ele>
        <time>2021-08-13T11:38:52Z</time>
      </trkpt>
      <trkpt lat="46.65422" lon="3.61293">
        <ele>233.74</ele>
        <time>2021-08-13T11:39:10Z</time>
      </trkpt>
      <trkpt lat="46.65426" lon="3.61289">
        <ele>233.74</ele>
        <time>2021-08-13T11:39:27Z</time>
      </trkpt>
      <trkpt lat="46.65424" lon="3.61278">
        <ele>233.26</ele>
        <time>2021-08-13T11:39:51Z</time>
      </trkpt>
      <trkpt lat="46.65421" lon="3.61283">
        <ele>233.26</ele>
        <time>2021-08-13T11:40:15Z</time>
      </trkpt>
      <trkpt lat="46.65416" lon="3.61285">
        <ele>233.74</ele>
        <time>2021-08-13T11:40:37Z</time>
      </trkpt>
      <trkpt lat="46.6542" lon="3.61286">
        <ele>233.74</ele>
        <time>2021-08-13T11:40:53Z</time>
      </trkpt>
      <trkpt lat="46.65419" lon="3.61279">
        <ele>233.74</ele>
        <time>2021-08-13T11:41:08Z</time>
      </trkpt>
      <trkpt lat="46.65415" lon="3.61281">
        <ele>233.74</ele>
        <time>2021-08-13T11:41:34Z</time>
      </trkpt>
      <trkpt lat="46.65417" lon="3.6128">
        <ele>233.74</ele>
        <time>2021-08-13T11:41:52Z</time>
      </trkpt>
      <trkpt lat="46.65416" lon="3.6128">
        <ele>233.74</ele>
        <time>2021-08-13T11:42:09Z</time>
      </trkpt>
      <trkpt lat="46.65419" lon="3.61284">
        <ele>233.74</ele>
        <time>2021-08-13T11:42:28Z</time>
      </trkpt>
      <trkpt lat="46.65419" lon="3.61287">
        <ele>233.74</ele>
        <time>2021-08-13T11:42:52Z</time>
      </trkpt>
      <trkpt lat="46.65418" lon="3.61284">
        <ele>233.74</ele>
        <time>2021-08-13T11:43:14Z</time>
      </trkpt>
      <trkpt lat="46.65422" lon="3.61288">
        <ele>233.74</ele>
        <time>2021-08-13T11:43:33Z</time>
      </trkpt>
      <trkpt lat="46.65421" lon="3.61285">
        <ele>233.26</ele>
        <time>2021-08-13T11:43:52Z</time>
      </trkpt>
      <trkpt lat="46.6542" lon="3.61286">
        <ele>233.26</ele>
        <time>2021-08-13T11:44:14Z</time>
      </trkpt>
      <trkpt lat="46.65422" lon="3.61286">
        <ele>233.26</ele>
        <time>2021-08-13T11:44:33Z</time>
      </trkpt>
      <trkpt lat="46.65416" lon="3.61289">
        <ele>233.74</ele>
        <time>2021-08-13T11:44:51Z</time>
      </trkpt>
      <trkpt lat="46.65415" lon="3.61286">
        <ele>233.74</ele>
        <time>2021-08-13T11:45:12Z</time>
      </trkpt>
      <trkpt lat="46.65414" lon="3.61283">
        <ele>233.74</ele>
        <time>2021-08-13T11:45:33Z</time>
      </trkpt>
      <trkpt lat="46.65409" lon="3.61276">
        <ele>233.74</ele>
        <time>2021-08-13T11:45:51Z</time>
      </trkpt>
      <trkpt lat="46.6541" lon="3.61268">
        <ele>233.74</ele>
        <time>2021-08-13T11:46:07Z</time>
      </trkpt>
      <trkpt lat="46.65411" lon="3.6127">
        <ele>233.74</ele>
        <time>2021-08-13T11:46:29Z</time>
      </trkpt>
      <trkpt lat="46.65414" lon="3.61277">
        <ele>233.74</ele>
        <time>2021-08-13T11:46:48Z</time>
      </trkpt>
      <trkpt lat="46.6541" lon="3.61275">
        <ele>233.74</ele>
        <time>2021-08-13T11:47:11Z</time>
      </trkpt>
      <trkpt lat="46.65414" lon="3.61288">
        <ele>233.74</ele>
        <time>2021-08-13T11:47:30Z</time>
      </trkpt>
      <trkpt lat="46.65415" lon="3.61288">
        <ele>233.74</ele>
        <time>2021-08-13T11:47:44Z</time>
      </trkpt>
      <trkpt lat="46.65418" lon="3.61287">
        <ele>233.74</ele>
        <time>2021-08-13T11:48:13Z</time>
      </trkpt>
      <trkpt lat="46.65419" lon="3.61284">
        <ele>233.74</ele>
        <time>2021-08-13T11:48:37Z</time>
      </trkpt>
      <trkpt lat="46.65418" lon="3.61283">
        <ele>233.74</ele>
        <time>2021-08-13T11:48:53Z</time>
      </trkpt>
      <trkpt lat="46.65418" lon="3.61285">
        <ele>233.74</ele>
        <time>2021-08-13T11:49:08Z</time>
      </trkpt>
      <trkpt lat="46.65421" lon="3.61279">
        <ele>233.74</ele>
        <time>2021-08-13T11:49:32Z</time>
      </trkpt>
      <trkpt lat="46.65422" lon="3.61278">
        <ele>233.74</ele>
        <time>2021-08-13T11:49:55Z</time>
      </trkpt>
      <trkpt lat="46.65422" lon="3.6128">
        <ele>233.74</ele>
        <time>2021-08-13T11:50:15Z</time>
      </trkpt>
      <trkpt lat="46.65426" lon="3.61286">
        <ele>233.74</ele>
        <time>2021-08-13T11:50:32Z</time>
      </trkpt>
      <trkpt lat="46.65425" lon="3.61284">
        <ele>233.74</ele>
        <time>2021-08-13T11:50:49Z</time>
      </trkpt>
      <trkpt lat="46.65424" lon="3.61279">
        <ele>233.74</ele>
        <time>2021-08-13T11:51:12Z</time>
      </trkpt>
      <trkpt lat="46.65424" lon="3.61279">
        <ele>233.74</ele>
        <time>2021-08-13T11:51:30Z</time>
      </trkpt>
      <trkpt lat="46.65423" lon="3.61283">
        <ele>233.74</ele>
        <time>2021-08-13T11:51:47Z</time>
      </trkpt>
      <trkpt lat="46.65424" lon="3.61282">
        <ele>233.74</ele>
        <time>2021-08-13T11:52:01Z</time>
      </trkpt>
      <trkpt lat="46.65423" lon="3.61282">
        <ele>233.74</ele>
        <time>2021-08-13T11:52:21Z</time>
      </trkpt>
      <trkpt lat="46.65422" lon="3.61285">
        <ele>233.74</ele>
        <time>2021-08-13T11:52:37Z</time>
      </trkpt>
      <trkpt lat="46.65423" lon="3.61287">
        <ele>233.74</ele>
        <time>2021-08-13T11:52:54Z</time>
      </trkpt>
      <trkpt lat="46.65421" lon="3.61294">
        <ele>233.74</ele>
        <time>2021-08-13T11:53:11Z</time>
      </trkpt>
      <trkpt lat="46.65424" lon="3.61292">
        <ele>233.74</ele>
        <time>2021-08-13T11:53:17Z</time>
      </trkpt>
      <trkpt lat="46.65432" lon="3.61293">
        <ele>233.74</ele>
        <time>2021-08-13T11:53:23Z</time>
      </trkpt>
      <trkpt lat="46.65435" lon="3.61295">
        <ele>233.74</ele>
        <time>2021-08-13T11:53:24Z</time>
      </trkpt>
      <trkpt lat="46.65441" lon="3.613">
        <ele>232.78</ele>
        <time>2021-08-13T11:53:27Z</time>
      </trkpt>
      <trkpt lat="46.65444" lon="3.61301">
        <ele>232.78</ele>
        <time>2021-08-13T11:53:28Z</time>
      </trkpt>
      <trkpt lat="46.65446" lon="3.61302">
        <ele>232.78</ele>
        <time>2021-08-13T11:53:29Z</time>
      </trkpt>
      <trkpt lat="46.65449" lon="3.61302">
        <ele>232.78</ele>
        <time>2021-08-13T11:53:30Z</time>
      </trkpt>
      <trkpt lat="46.65452" lon="3.61301">
        <ele>232.78</ele>
        <time>2021-08-13T11:53:31Z</time>
      </trkpt>
      <trkpt lat="46.65455" lon="3.61299">
        <ele>232.78</ele>
        <time>2021-08-13T11:53:32Z</time>
      </trkpt>
      <trkpt lat="46.65457" lon="3.61298">
        <ele>232.78</ele>
        <time>2021-08-13T11:53:33Z</time>
      </trkpt>
      <trkpt lat="46.65471" lon="3.61289">
        <ele>232.78</ele>
        <time>2021-08-13T11:53:40Z</time>
      </trkpt>
      <trkpt lat="46.65475" lon="3.61283">
        <ele>232.78</ele>
        <time>2021-08-13T11:53:48Z</time>
      </trkpt>
      <trkpt lat="46.65478" lon="3.61285">
        <ele>232.78</ele>
        <time>2021-08-13T11:53:55Z</time>
      </trkpt>
      <trkpt lat="46.65478" lon="3.61285">
        <ele>232.78</ele>
        <time>2021-08-13T11:54:01Z</time>
      </trkpt>
      <trkpt lat="46.65479" lon="3.61282">
        <ele>232.78</ele>
        <time>2021-08-13T11:54:15Z</time>
      </trkpt>
      <trkpt lat="46.65479" lon="3.61284">
        <ele>232.78</ele>
        <time>2021-08-13T11:54:28Z</time>
      </trkpt>
      <trkpt lat="46.65481" lon="3.61285">
        <ele>232.78</ele>
        <time>2021-08-13T11:54:38Z</time>
      </trkpt>
      <trkpt lat="46.65482" lon="3.61288">
        <ele>232.78</ele>
        <time>2021-08-13T11:54:39Z</time>
      </trkpt>
      <trkpt lat="46.65482" lon="3.61288">
        <ele>232.78</ele>
        <time>2021-08-13T11:54:42Z</time>
      </trkpt>
      <trkpt lat="46.65481" lon="3.61288">
        <ele>232.78</ele>
        <time>2021-08-13T11:54:44Z</time>
      </trkpt>
      <trkpt lat="46.65478" lon="3.61288">
        <ele>232.78</ele>
        <time>2021-08-13T11:54:51Z</time>
      </trkpt>
      <trkpt lat="46.65477" lon="3.61287">
        <ele>232.78</ele>
        <time>2021-08-13T11:55:03Z</time>
      </trkpt>
      <trkpt lat="46.65477" lon="3.61284">
        <ele>232.3</ele>
        <time>2021-08-13T11:55:21Z</time>
      </trkpt>
      <trkpt lat="46.65478" lon="3.61286">
        <ele>232.3</ele>
        <time>2021-08-13T11:55:33Z</time>
      </trkpt>
      <trkpt lat="46.65477" lon="3.61287">
        <ele>232.3</ele>
        <time>2021-08-13T11:55:48Z</time>
      </trkpt>
      <trkpt lat="46.65479" lon="3.6129">
        <ele>232.3</ele>
        <time>2021-08-13T11:56:01Z</time>
      </trkpt>
      <trkpt lat="46.65477" lon="3.61291">
        <ele>232.3</ele>
        <time>2021-08-13T11:56:18Z</time>
      </trkpt>
      <trkpt lat="46.65479" lon="3.6129">
        <ele>232.3</ele>
        <time>2021-08-13T11:56:32Z</time>
      </trkpt>
      <trkpt lat="46.6548" lon="3.61291">
        <ele>232.3</ele>
        <time>2021-08-13T11:56:48Z</time>
      </trkpt>
      <trkpt lat="46.6548" lon="3.61291">
        <ele>232.3</ele>
        <time>2021-08-13T11:57:00Z</time>
      </trkpt>
      <trkpt lat="46.6548" lon="3.61292">
        <ele>232.3</ele>
        <time>2021-08-13T11:57:11Z</time>
      </trkpt>
      <trkpt lat="46.6548" lon="3.61291">
        <ele>232.3</ele>
        <time>2021-08-13T11:57:20Z</time>
      </trkpt>
      <trkpt lat="46.65482" lon="3.6129">
        <ele>232.3</ele>
        <time>2021-08-13T11:57:34Z</time>
      </trkpt>
      <trkpt lat="46.65481" lon="3.6129">
        <ele>232.3</ele>
        <time>2021-08-13T11:57:45Z</time>
      </trkpt>
      <trkpt lat="46.65481" lon="3.61288">
        <ele>232.3</ele>
        <time>2021-08-13T11:57:58Z</time>
      </trkpt>
      <trkpt lat="46.65481" lon="3.61288">
        <ele>232.3</ele>
        <time>2021-08-13T11:58:13Z</time>
      </trkpt>
      <trkpt lat="46.6548" lon="3.6129">
        <ele>232.3</ele>
        <time>2021-08-13T11:58:26Z</time>
      </trkpt>
      <trkpt lat="46.65479" lon="3.61289">
        <ele>232.3</ele>
        <time>2021-08-13T11:58:44Z</time>
      </trkpt>
      <trkpt lat="46.6548" lon="3.61289">
        <ele>232.3</ele>
        <time>2021-08-13T11:58:57Z</time>
      </trkpt>
      <trkpt lat="46.6548" lon="3.61289">
        <ele>232.3</ele>
        <time>2021-08-13T11:59:05Z</time>
      </trkpt>
      <trkpt lat="46.65479" lon="3.61289">
        <ele>232.3</ele>
        <time>2021-08-13T11:59:17Z</time>
      </trkpt>
      <trkpt lat="46.65477" lon="3.61288">
        <ele>232.3</ele>
        <time>2021-08-13T11:59:33Z</time>
      </trkpt>
      <trkpt lat="46.65477" lon="3.61284">
        <ele>232.3</ele>
        <time>2021-08-13T11:59:53Z</time>
      </trkpt>
      <trkpt lat="46.6548" lon="3.61286">
        <ele>231.81</ele>
        <time>2021-08-13T12:00:04Z</time>
      </trkpt>
      <trkpt lat="46.6548" lon="3.61287">
        <ele>231.81</ele>
        <time>2021-08-13T12:00:18Z</time>
      </trkpt>
      <trkpt lat="46.65481" lon="3.61289">
        <ele>231.81</ele>
        <time>2021-08-13T12:00:28Z</time>
      </trkpt>
      <trkpt lat="46.65481" lon="3.61289">
        <ele>231.81</ele>
        <time>2021-08-13T12:00:49Z</time>
      </trkpt>
      <trkpt lat="46.65481" lon="3.61288">
        <ele>231.81</ele>
        <time>2021-08-13T12:01:02Z</time>
      </trkpt>
      <trkpt lat="46.6548" lon="3.61286">
        <ele>231.81</ele>
        <time>2021-08-13T12:01:20Z</time>
      </trkpt>
      <trkpt lat="46.65481" lon="3.61288">
        <ele>231.81</ele>
        <time>2021-08-13T12:01:38Z</time>
      </trkpt>
      <trkpt lat="46.65479" lon="3.61285">
        <ele>231.81</ele>
        <time>2021-08-13T12:01:56Z</time>
      </trkpt>
      <trkpt lat="46.65478" lon="3.61286">
        <ele>231.81</ele>
        <time>2021-08-13T12:02:09Z</time>
      </trkpt>
      <trkpt lat="46.65477" lon="3.61285">
        <ele>231.81</ele>
        <time>2021-08-13T12:02:23Z</time>
      </trkpt>
      <trkpt lat="46.65477" lon="3.61282">
        <ele>231.81</ele>
        <time>2021-08-13T12:02:36Z</time>
      </trkpt>
      <trkpt lat="46.65478" lon="3.61282">
        <ele>231.81</ele>
        <time>2021-08-13T12:02:54Z</time>
      </trkpt>
      <trkpt lat="46.65478" lon="3.61284">
        <ele>231.81</ele>
        <time>2021-08-13T12:03:13Z</time>
      </trkpt>
      <trkpt lat="46.65478" lon="3.61285">
        <ele>231.81</ele>
        <time>2021-08-13T12:03:28Z</time>
      </trkpt>
      <trkpt lat="46.65478" lon="3.61285">
        <ele>231.81</ele>
        <time>2021-08-13T12:03:40Z</time>
      </trkpt>
      <trkpt lat="46.65478" lon="3.61288">
        <ele>231.81</ele>
        <time>2021-08-13T12:03:54Z</time>
      </trkpt>
      <trkpt lat="46.65478" lon="3.61288">
        <ele>231.81</ele>
        <time>2021-08-13T12:03:59Z</time>
      </trkpt>
      <trkpt lat="46.65479" lon="3.61288">
        <ele>231.81</ele>
        <time>2021-08-13T12:04:14Z</time>
      </trkpt>
      <trkpt lat="46.65479" lon="3.61289">
        <ele>231.81</ele>
        <time>2021-08-13T12:04:26Z</time>
      </trkpt>
      <trkpt lat="46.65479" lon="3.61286">
        <ele>231.33</ele>
        <time>2021-08-13T12:04:45Z</time>
      </trkpt>
      <trkpt lat="46.6548" lon="3.61287">
        <ele>231.33</ele>
        <time>2021-08-13T12:05:04Z</time>
      </trkpt>
      <trkpt lat="46.65479" lon="3.61289">
        <ele>231.33</ele>
        <time>2021-08-13T12:05:21Z</time>
      </trkpt>
      <trkpt lat="46.65478" lon="3.61284">
        <ele>231.33</ele>
        <time>2021-08-13T12:05:41Z</time>
      </trkpt>
      <trkpt lat="46.65479" lon="3.61288">
        <ele>231.81</ele>
        <time>2021-08-13T12:06:01Z</time>
      </trkpt>
      <trkpt lat="46.65479" lon="3.61286">
        <ele>231.81</ele>
        <time>2021-08-13T12:06:19Z</time>
      </trkpt>
      <trkpt lat="46.6548" lon="3.61286">
        <ele>231.81</ele>
        <time>2021-08-13T12:06:42Z</time>
      </trkpt>
      <trkpt lat="46.65478" lon="3.61285">
        <ele>231.81</ele>
        <time>2021-08-13T12:06:53Z</time>
      </trkpt>
      <trkpt lat="46.65476" lon="3.61284">
        <ele>231.81</ele>
        <time>2021-08-13T12:07:18Z</time>
      </trkpt>
      <trkpt lat="46.65478" lon="3.61282">
        <ele>231.81</ele>
        <time>2021-08-13T12:07:21Z</time>
      </trkpt>
      <trkpt lat="46.65478" lon="3.61282">
        <ele>231.81</ele>
        <time>2021-08-13T12:07:26Z</time>
      </trkpt>
      <trkpt lat="46.65475" lon="3.61282">
        <ele>231.81</ele>
        <time>2021-08-13T12:07:29Z</time>
      </trkpt>
      <trkpt lat="46.65473" lon="3.61285">
        <ele>231.81</ele>
        <time>2021-08-13T12:07:31Z</time>
      </trkpt>
      <trkpt lat="46.65468" lon="3.61289">
        <ele>231.81</ele>
        <time>2021-08-13T12:07:35Z</time>
      </trkpt>
      <trkpt lat="46.65466" lon="3.61287">
        <ele>231.81</ele>
        <time>2021-08-13T12:07:36Z</time>
      </trkpt>
      <trkpt lat="46.65466" lon="3.61283">
        <ele>231.81</ele>
        <time>2021-08-13T12:07:37Z</time>
      </trkpt>
      <trkpt lat="46.65467" lon="3.61279">
        <ele>231.81</ele>
        <time>2021-08-13T12:07:38Z</time>
      </trkpt>
      <trkpt lat="46.65468" lon="3.61276">
        <ele>231.81</ele>
        <time>2021-08-13T12:07:39Z</time>
      </trkpt>
      <trkpt lat="46.6547" lon="3.61273">
        <ele>231.81</ele>
        <time>2021-08-13T12:07:40Z</time>
      </trkpt>
      <trkpt lat="46.65472" lon="3.6127">
        <ele>231.81</ele>
        <time>2021-08-13T12:07:41Z</time>
      </trkpt>
      <trkpt lat="46.65475" lon="3.61267">
        <ele>231.81</ele>
        <time>2021-08-13T12:07:42Z</time>
      </trkpt>
      <trkpt lat="46.65478" lon="3.61264">
        <ele>231.81</ele>
        <time>2021-08-13T12:07:43Z</time>
      </trkpt>
      <trkpt lat="46.65507" lon="3.61243">
        <ele>231.81</ele>
        <time>2021-08-13T12:07:52Z</time>
      </trkpt>
      <trkpt lat="46.65523" lon="3.61234">
        <ele>231.81</ele>
        <time>2021-08-13T12:07:58Z</time>
      </trkpt>
      <trkpt lat="46.65541" lon="3.61222">
        <ele>231.81</ele>
        <time>2021-08-13T12:08:05Z</time>
      </trkpt>
      <trkpt lat="46.65565" lon="3.61215">
        <ele>231.81</ele>
        <time>2021-08-13T12:08:12Z</time>
      </trkpt>
      <trkpt lat="46.65578" lon="3.61205">
        <ele>231.81</ele>
        <time>2021-08-13T12:08:16Z</time>
      </trkpt>
      <trkpt lat="46.65579" lon="3.612">
        <ele>231.81</ele>
        <time>2021-08-13T12:08:17Z</time>
      </trkpt>
      <trkpt lat="46.65578" lon="3.61161">
        <ele>231.81</ele>
        <time>2021-08-13T12:08:24Z</time>
      </trkpt>
      <trkpt lat="46.65579" lon="3.61133">
        <ele>230.37</ele>
        <time>2021-08-13T12:08:30Z</time>
      </trkpt>
      <trkpt lat="46.65582" lon="3.61131">
        <ele>230.37</ele>
        <time>2021-08-13T12:08:31Z</time>
      </trkpt>
      <trkpt lat="46.65602" lon="3.61121">
        <ele>230.37</ele>
        <time>2021-08-13T12:08:40Z</time>
      </trkpt>
      <trkpt lat="46.65624" lon="3.61112">
        <ele>230.37</ele>
        <time>2021-08-13T12:08:48Z</time>
      </trkpt>
      <trkpt lat="46.65647" lon="3.61102">
        <ele>230.37</ele>
        <time>2021-08-13T12:08:55Z</time>
      </trkpt>
      <trkpt lat="46.65663" lon="3.61093">
        <ele>230.37</ele>
        <time>2021-08-13T12:09:00Z</time>
      </trkpt>
      <trkpt lat="46.65674" lon="3.61085">
        <ele>230.37</ele>
        <time>2021-08-13T12:09:03Z</time>
      </trkpt>
      <trkpt lat="46.65709" lon="3.61065">
        <ele>230.37</ele>
        <time>2021-08-13T12:09:11Z</time>
      </trkpt>
      <trkpt lat="46.65759" lon="3.61037">
        <ele>228.93</ele>
        <time>2021-08-13T12:09:21Z</time>
      </trkpt>
      <trkpt lat="46.65788" lon="3.61019">
        <ele>227.01</ele>
        <time>2021-08-13T12:09:26Z</time>
      </trkpt>
      <trkpt lat="46.65831" lon="3.60995">
        <ele>223.64</ele>
        <time>2021-08-13T12:09:32Z</time>
      </trkpt>
      <trkpt lat="46.65889" lon="3.60961">
        <ele>220.76</ele>
        <time>2021-08-13T12:09:39Z</time>
      </trkpt>
      <trkpt lat="46.65929" lon="3.60935">
        <ele>220.76</ele>
        <time>2021-08-13T12:09:44Z</time>
      </trkpt>
      <trkpt lat="46.65959" lon="3.60908">
        <ele>220.76</ele>
        <time>2021-08-13T12:09:49Z</time>
      </trkpt>
      <trkpt lat="46.65964" lon="3.60902">
        <ele>222.2</ele>
        <time>2021-08-13T12:09:50Z</time>
      </trkpt>
      <trkpt lat="46.65967" lon="3.60896">
        <ele>222.68</ele>
        <time>2021-08-13T12:09:51Z</time>
      </trkpt>
      <trkpt lat="46.65971" lon="3.60889">
        <ele>222.68</ele>
        <time>2021-08-13T12:09:52Z</time>
      </trkpt>
      <trkpt lat="46.65986" lon="3.60863">
        <ele>224.61</ele>
        <time>2021-08-13T12:09:58Z</time>
      </trkpt>
      <trkpt lat="46.65993" lon="3.60843">
        <ele>226.05</ele>
        <time>2021-08-13T12:10:05Z</time>
      </trkpt>
      <trkpt lat="46.66002" lon="3.60817">
        <ele>227.97</ele>
        <time>2021-08-13T12:10:14Z</time>
      </trkpt>
      <trkpt lat="46.66011" lon="3.60786">
        <ele>228.93</ele>
        <time>2021-08-13T12:10:24Z</time>
      </trkpt>
      <trkpt lat="46.66021" lon="3.60753">
        <ele>230.37</ele>
        <time>2021-08-13T12:10:34Z</time>
      </trkpt>
      <trkpt lat="46.66032" lon="3.60714">
        <ele>231.33</ele>
        <time>2021-08-13T12:10:44Z</time>
      </trkpt>
      <trkpt lat="46.66044" lon="3.60674">
        <ele>232.3</ele>
        <time>2021-08-13T12:10:53Z</time>
      </trkpt>
      <trkpt lat="46.66059" lon="3.60626">
        <ele>232.78</ele>
        <time>2021-08-13T12:11:02Z</time>
      </trkpt>
      <trkpt lat="46.66077" lon="3.6057">
        <ele>232.78</ele>
        <time>2021-08-13T12:11:11Z</time>
      </trkpt>
      <trkpt lat="46.66095" lon="3.60515">
        <ele>232.78</ele>
        <time>2021-08-13T12:11:19Z</time>
      </trkpt>
      <trkpt lat="46.66115" lon="3.60447">
        <ele>232.78</ele>
        <time>2021-08-13T12:11:28Z</time>
      </trkpt>
      <trkpt lat="46.66139" lon="3.60372">
        <ele>231.33</ele>
        <time>2021-08-13T12:11:38Z</time>
      </trkpt>
      <trkpt lat="46.66148" lon="3.60342">
        <ele>231.33</ele>
        <time>2021-08-13T12:11:42Z</time>
      </trkpt>
      <trkpt lat="46.66151" lon="3.60335">
        <ele>231.33</ele>
        <time>2021-08-13T12:11:43Z</time>
      </trkpt>
      <trkpt lat="46.66179" lon="3.60245">
        <ele>231.33</ele>
        <time>2021-08-13T12:11:55Z</time>
      </trkpt>
      <trkpt lat="46.66201" lon="3.60176">
        <ele>231.33</ele>
        <time>2021-08-13T12:12:04Z</time>
      </trkpt>
      <trkpt lat="46.6622" lon="3.60117">
        <ele>231.33</ele>
        <time>2021-08-13T12:12:12Z</time>
      </trkpt>
      <trkpt lat="46.66237" lon="3.60075">
        <ele>231.33</ele>
        <time>2021-08-13T12:12:18Z</time>
      </trkpt>
      <trkpt lat="46.6624" lon="3.60068">
        <ele>231.33</ele>
        <time>2021-08-13T12:12:19Z</time>
      </trkpt>
      <trkpt lat="46.66273" lon="3.6">
        <ele>232.78</ele>
        <time>2021-08-13T12:12:29Z</time>
      </trkpt>
      <trkpt lat="46.66306" lon="3.59933">
        <ele>232.78</ele>
        <time>2021-08-13T12:12:39Z</time>
      </trkpt>
      <trkpt lat="46.66341" lon="3.59867">
        <ele>233.26</ele>
        <time>2021-08-13T12:12:49Z</time>
      </trkpt>
      <trkpt lat="46.66363" lon="3.59822">
        <ele>233.26</ele>
        <time>2021-08-13T12:12:56Z</time>
      </trkpt>
      <trkpt lat="46.6639" lon="3.59767">
        <ele>233.26</ele>
        <time>2021-08-13T12:13:04Z</time>
      </trkpt>
      <trkpt lat="46.66409" lon="3.59728">
        <ele>231.81</ele>
        <time>2021-08-13T12:13:09Z</time>
      </trkpt>
      <trkpt lat="46.66444" lon="3.59661">
        <ele>229.41</ele>
        <time>2021-08-13T12:13:17Z</time>
      </trkpt>
      <trkpt lat="46.66491" lon="3.59565">
        <ele>228.93</ele>
        <time>2021-08-13T12:13:28Z</time>
      </trkpt>
      <trkpt lat="46.66509" lon="3.59529">
        <ele>230.37</ele>
        <time>2021-08-13T12:13:33Z</time>
      </trkpt>
      <trkpt lat="46.66543" lon="3.59461">
        <ele>231.33</ele>
        <time>2021-08-13T12:13:43Z</time>
      </trkpt>
      <trkpt lat="46.66557" lon="3.5943">
        <ele>231.81</ele>
        <time>2021-08-13T12:13:48Z</time>
      </trkpt>
      <trkpt lat="46.66559" lon="3.59425">
        <ele>231.81</ele>
        <time>2021-08-13T12:13:49Z</time>
      </trkpt>
      <trkpt lat="46.66578" lon="3.59386">
        <ele>232.3</ele>
        <time>2021-08-13T12:13:55Z</time>
      </trkpt>
      <trkpt lat="46.66582" lon="3.59379">
        <ele>232.3</ele>
        <time>2021-08-13T12:13:56Z</time>
      </trkpt>
      <trkpt lat="46.66608" lon="3.59327">
        <ele>233.26</ele>
        <time>2021-08-13T12:14:04Z</time>
      </trkpt>
      <trkpt lat="46.66634" lon="3.59272">
        <ele>234.22</ele>
        <time>2021-08-13T12:14:13Z</time>
      </trkpt>
      <trkpt lat="46.66656" lon="3.59213">
        <ele>234.7</ele>
        <time>2021-08-13T12:14:22Z</time>
      </trkpt>
      <trkpt lat="46.66675" lon="3.59149">
        <ele>234.7</ele>
        <time>2021-08-13T12:14:31Z</time>
      </trkpt>
      <trkpt lat="46.66688" lon="3.59089">
        <ele>235.18</ele>
        <time>2021-08-13T12:14:39Z</time>
      </trkpt>
      <trkpt lat="46.66703" lon="3.59018">
        <ele>235.18</ele>
        <time>2021-08-13T12:14:48Z</time>
      </trkpt>
      <trkpt lat="46.66715" lon="3.58947">
        <ele>235.66</ele>
        <time>2021-08-13T12:14:57Z</time>
      </trkpt>
      <trkpt lat="46.66728" lon="3.58882">
        <ele>235.66</ele>
        <time>2021-08-13T12:15:05Z</time>
      </trkpt>
      <trkpt lat="46.66747" lon="3.58785">
        <ele>235.66</ele>
        <time>2021-08-13T12:15:16Z</time>
      </trkpt>
      <trkpt lat="46.66759" lon="3.58716">
        <ele>235.66</ele>
        <time>2021-08-13T12:15:24Z</time>
      </trkpt>
      <trkpt lat="46.6677" lon="3.58652">
        <ele>234.7</ele>
        <time>2021-08-13T12:15:31Z</time>
      </trkpt>
      <trkpt lat="46.66785" lon="3.58574">
        <ele>233.74</ele>
        <time>2021-08-13T12:15:39Z</time>
      </trkpt>
      <trkpt lat="46.6679" lon="3.58546">
        <ele>233.74</ele>
        <time>2021-08-13T12:15:42Z</time>
      </trkpt>
      <trkpt lat="46.66805" lon="3.58463">
        <ele>233.26</ele>
        <time>2021-08-13T12:15:51Z</time>
      </trkpt>
      <trkpt lat="46.66814" lon="3.58399">
        <ele>233.26</ele>
        <time>2021-08-13T12:15:58Z</time>
      </trkpt>
      <trkpt lat="46.66816" lon="3.58381">
        <ele>234.7</ele>
        <time>2021-08-13T12:16:00Z</time>
      </trkpt>
      <trkpt lat="46.66827" lon="3.58314">
        <ele>235.18</ele>
        <time>2021-08-13T12:16:08Z</time>
      </trkpt>
      <trkpt lat="46.66837" lon="3.58241">
        <ele>236.14</ele>
        <time>2021-08-13T12:16:17Z</time>
      </trkpt>
      <trkpt lat="46.66839" lon="3.58226">
        <ele>236.14</ele>
        <time>2021-08-13T12:16:19Z</time>
      </trkpt>
      <trkpt lat="46.66848" lon="3.58165">
        <ele>236.62</ele>
        <time>2021-08-13T12:16:27Z</time>
      </trkpt>
      <trkpt lat="46.66855" lon="3.58113">
        <ele>237.1</ele>
        <time>2021-08-13T12:16:34Z</time>
      </trkpt>
      <trkpt lat="46.66862" lon="3.58053">
        <ele>238.06</ele>
        <time>2021-08-13T12:16:43Z</time>
      </trkpt>
      <trkpt lat="46.66866" lon="3.58018">
        <ele>238.06</ele>
        <time>2021-08-13T12:16:49Z</time>
      </trkpt>
      <trkpt lat="46.66867" lon="3.58012">
        <ele>238.06</ele>
        <time>2021-08-13T12:16:50Z</time>
      </trkpt>
      <trkpt lat="46.66872" lon="3.57974">
        <ele>238.54</ele>
        <time>2021-08-13T12:16:56Z</time>
      </trkpt>
      <trkpt lat="46.66873" lon="3.57968">
        <ele>238.54</ele>
        <time>2021-08-13T12:16:57Z</time>
      </trkpt>
      <trkpt lat="46.66882" lon="3.57903">
        <ele>239.02</ele>
        <time>2021-08-13T12:17:07Z</time>
      </trkpt>
      <trkpt lat="46.66892" lon="3.57838">
        <ele>239.02</ele>
        <time>2021-08-13T12:17:16Z</time>
      </trkpt>
      <trkpt lat="46.66902" lon="3.57754">
        <ele>239.02</ele>
        <time>2021-08-13T12:17:27Z</time>
      </trkpt>
      <trkpt lat="46.66912" lon="3.57682">
        <ele>239.99</ele>
        <time>2021-08-13T12:17:37Z</time>
      </trkpt>
      <trkpt lat="46.66915" lon="3.57662">
        <ele>239.99</ele>
        <time>2021-08-13T12:17:40Z</time>
      </trkpt>
      <trkpt lat="46.66917" lon="3.57648">
        <ele>240.47</ele>
        <time>2021-08-13T12:17:42Z</time>
      </trkpt>
      <trkpt lat="46.66921" lon="3.57614">
        <ele>240.95</ele>
        <time>2021-08-13T12:17:47Z</time>
      </trkpt>
      <trkpt lat="46.66926" lon="3.57589">
        <ele>241.43</ele>
        <time>2021-08-13T12:17:51Z</time>
      </trkpt>
      <trkpt lat="46.66928" lon="3.5757">
        <ele>241.91</ele>
        <time>2021-08-13T12:17:54Z</time>
      </trkpt>
      <trkpt lat="46.66935" lon="3.57511">
        <ele>241.91</ele>
        <time>2021-08-13T12:18:03Z</time>
      </trkpt>
      <trkpt lat="46.66939" lon="3.57492">
        <ele>242.39</ele>
        <time>2021-08-13T12:18:06Z</time>
      </trkpt>
      <trkpt lat="46.66948" lon="3.57426">
        <ele>243.35</ele>
        <time>2021-08-13T12:18:16Z</time>
      </trkpt>
      <trkpt lat="46.66952" lon="3.57381">
        <ele>244.31</ele>
        <time>2021-08-13T12:18:24Z</time>
      </trkpt>
      <trkpt lat="46.66954" lon="3.57367">
        <ele>244.79</ele>
        <time>2021-08-13T12:18:30Z</time>
      </trkpt>
      <trkpt lat="46.66954" lon="3.57365">
        <ele>244.79</ele>
        <time>2021-08-13T12:18:39Z</time>
      </trkpt>
      <trkpt lat="46.66955" lon="3.57364">
        <ele>244.79</ele>
        <time>2021-08-13T12:18:44Z</time>
      </trkpt>
      <trkpt lat="46.66956" lon="3.57363">
        <ele>244.79</ele>
        <time>2021-08-13T12:18:45Z</time>
      </trkpt>
      <trkpt lat="46.66957" lon="3.57362">
        <ele>244.79</ele>
        <time>2021-08-13T12:18:50Z</time>
      </trkpt>
      <trkpt lat="46.66959" lon="3.57362">
        <ele>244.79</ele>
        <time>2021-08-13T12:19:04Z</time>
      </trkpt>
      <trkpt lat="46.66958" lon="3.57363">
        <ele>244.79</ele>
        <time>2021-08-13T12:19:26Z</time>
      </trkpt>
      <trkpt lat="46.66957" lon="3.57363">
        <ele>244.79</ele>
        <time>2021-08-13T12:19:42Z</time>
      </trkpt>
      <trkpt lat="46.66958" lon="3.57363">
        <ele>244.79</ele>
        <time>2021-08-13T12:19:59Z</time>
      </trkpt>
      <trkpt lat="46.66955" lon="3.57362">
        <ele>244.79</ele>
        <time>2021-08-13T12:20:24Z</time>
      </trkpt>
      <trkpt lat="46.66956" lon="3.57358">
        <ele>244.79</ele>
        <time>2021-08-13T12:20:28Z</time>
      </trkpt>
      <trkpt lat="46.66957" lon="3.57355">
        <ele>244.79</ele>
        <time>2021-08-13T12:20:29Z</time>
      </trkpt>
      <trkpt lat="46.66958" lon="3.57352">
        <ele>244.79</ele>
        <time>2021-08-13T12:20:30Z</time>
      </trkpt>
      <trkpt lat="46.66958" lon="3.57349">
        <ele>244.79</ele>
        <time>2021-08-13T12:20:31Z</time>
      </trkpt>
      <trkpt lat="46.66959" lon="3.57345">
        <ele>244.79</ele>
        <time>2021-08-13T12:20:32Z</time>
      </trkpt>
      <trkpt lat="46.6696" lon="3.57341">
        <ele>244.79</ele>
        <time>2021-08-13T12:20:33Z</time>
      </trkpt>
      <trkpt lat="46.66965" lon="3.57303">
        <ele>245.27</ele>
        <time>2021-08-13T12:20:40Z</time>
      </trkpt>
      <trkpt lat="46.66973" lon="3.57241">
        <ele>246.23</ele>
        <time>2021-08-13T12:20:50Z</time>
      </trkpt>
      <trkpt lat="46.66974" lon="3.57234">
        <ele>246.23</ele>
        <time>2021-08-13T12:20:51Z</time>
      </trkpt>
      <trkpt lat="46.66982" lon="3.5718">
        <ele>246.23</ele>
        <time>2021-08-13T12:20:59Z</time>
      </trkpt>
      <trkpt lat="46.6699" lon="3.57121">
        <ele>246.72</ele>
        <time>2021-08-13T12:21:07Z</time>
      </trkpt>
      <trkpt lat="46.66999" lon="3.57057">
        <ele>247.2</ele>
        <time>2021-08-13T12:21:16Z</time>
      </trkpt>
      <trkpt lat="46.67005" lon="3.56985">
        <ele>247.2</ele>
        <time>2021-08-13T12:21:26Z</time>
      </trkpt>
      <trkpt lat="46.67008" lon="3.56896">
        <ele>247.68</ele>
        <time>2021-08-13T12:21:38Z</time>
      </trkpt>
      <trkpt lat="46.67005" lon="3.56831">
        <ele>248.16</ele>
        <time>2021-08-13T12:21:47Z</time>
      </trkpt>
      <trkpt lat="46.67001" lon="3.56772">
        <ele>248.16</ele>
        <time>2021-08-13T12:21:55Z</time>
      </trkpt>
      <trkpt lat="46.66993" lon="3.56705">
        <ele>248.16</ele>
        <time>2021-08-13T12:22:03Z</time>
      </trkpt>
      <trkpt lat="46.66985" lon="3.56653">
        <ele>246.72</ele>
        <time>2021-08-13T12:22:09Z</time>
      </trkpt>
      <trkpt lat="46.66971" lon="3.56576">
        <ele>245.75</ele>
        <time>2021-08-13T12:22:17Z</time>
      </trkpt>
      <trkpt lat="46.66954" lon="3.56464">
        <ele>244.31</ele>
        <time>2021-08-13T12:22:28Z</time>
      </trkpt>
      <trkpt lat="46.66935" lon="3.56348">
        <ele>243.35</ele>
        <time>2021-08-13T12:22:39Z</time>
      </trkpt>
      <trkpt lat="46.66915" lon="3.56225">
        <ele>241.91</ele>
        <time>2021-08-13T12:22:50Z</time>
      </trkpt>
      <trkpt lat="46.66894" lon="3.56102">
        <ele>240.47</ele>
        <time>2021-08-13T12:23:01Z</time>
      </trkpt>
      <trkpt lat="46.66889" lon="3.56069">
        <ele>239.99</ele>
        <time>2021-08-13T12:23:04Z</time>
      </trkpt>
      <trkpt lat="46.66886" lon="3.56059">
        <ele>239.99</ele>
        <time>2021-08-13T12:23:05Z</time>
      </trkpt>
      <trkpt lat="46.66881" lon="3.56051">
        <ele>239.99</ele>
        <time>2021-08-13T12:23:06Z</time>
      </trkpt>
      <trkpt lat="46.66876" lon="3.56042">
        <ele>239.51</ele>
        <time>2021-08-13T12:23:07Z</time>
      </trkpt>
      <trkpt lat="46.66872" lon="3.56037">
        <ele>239.51</ele>
        <time>2021-08-13T12:23:08Z</time>
      </trkpt>
      <trkpt lat="46.66836" lon="3.55984">
        <ele>239.51</ele>
        <time>2021-08-13T12:23:16Z</time>
      </trkpt>
      <trkpt lat="46.66832" lon="3.55978">
        <ele>239.02</ele>
        <time>2021-08-13T12:23:17Z</time>
      </trkpt>
      <trkpt lat="46.66789" lon="3.55918">
        <ele>239.02</ele>
        <time>2021-08-13T12:23:27Z</time>
      </trkpt>
      <trkpt lat="46.66744" lon="3.55855">
        <ele>238.06</ele>
        <time>2021-08-13T12:23:37Z</time>
      </trkpt>
      <trkpt lat="46.66714" lon="3.55815">
        <ele>237.1</ele>
        <time>2021-08-13T12:23:43Z</time>
      </trkpt>
      <trkpt lat="46.66705" lon="3.558">
        <ele>236.62</ele>
        <time>2021-08-13T12:23:45Z</time>
      </trkpt>
      <trkpt lat="46.66701" lon="3.55793">
        <ele>236.62</ele>
        <time>2021-08-13T12:23:46Z</time>
      </trkpt>
      <trkpt lat="46.66697" lon="3.55785">
        <ele>236.62</ele>
        <time>2021-08-13T12:23:47Z</time>
      </trkpt>
      <trkpt lat="46.6669" lon="3.55768">
        <ele>236.14</ele>
        <time>2021-08-13T12:23:49Z</time>
      </trkpt>
      <trkpt lat="46.66689" lon="3.55759">
        <ele>236.14</ele>
        <time>2021-08-13T12:23:50Z</time>
      </trkpt>
      <trkpt lat="46.66687" lon="3.55751">
        <ele>236.14</ele>
        <time>2021-08-13T12:23:51Z</time>
      </trkpt>
      <trkpt lat="46.66686" lon="3.55737">
        <ele>236.14</ele>
        <time>2021-08-13T12:23:54Z</time>
      </trkpt>
      <trkpt lat="46.66686" lon="3.55746">
        <ele>236.14</ele>
        <time>2021-08-13T12:23:59Z</time>
      </trkpt>
      <trkpt lat="46.66688" lon="3.5575">
        <ele>236.14</ele>
        <time>2021-08-13T12:24:01Z</time>
      </trkpt>
      <trkpt lat="46.66688" lon="3.55753">
        <ele>236.14</ele>
        <time>2021-08-13T12:24:02Z</time>
      </trkpt>
      <trkpt lat="46.66689" lon="3.55756">
        <ele>236.14</ele>
        <time>2021-08-13T12:24:03Z</time>
      </trkpt>
      <trkpt lat="46.66697" lon="3.55785">
        <ele>236.14</ele>
        <time>2021-08-13T12:24:10Z</time>
      </trkpt>
      <trkpt lat="46.66702" lon="3.55792">
        <ele>236.14</ele>
        <time>2021-08-13T12:24:12Z</time>
      </trkpt>
      <trkpt lat="46.66702" lon="3.55796">
        <ele>236.14</ele>
        <time>2021-08-13T12:24:13Z</time>
      </trkpt>
      <trkpt lat="46.66703" lon="3.55801">
        <ele>236.14</ele>
        <time>2021-08-13T12:24:14Z</time>
      </trkpt>
      <trkpt lat="46.66704" lon="3.55805">
        <ele>236.14</ele>
        <time>2021-08-13T12:24:15Z</time>
      </trkpt>
      <trkpt lat="46.66706" lon="3.55807">
        <ele>236.14</ele>
        <time>2021-08-13T12:24:16Z</time>
      </trkpt>
      <trkpt lat="46.66709" lon="3.55808">
        <ele>236.14</ele>
        <time>2021-08-13T12:24:17Z</time>
      </trkpt>
      <trkpt lat="46.66711" lon="3.55809">
        <ele>236.14</ele>
        <time>2021-08-13T12:24:18Z</time>
      </trkpt>
      <trkpt lat="46.66712" lon="3.55811">
        <ele>236.14</ele>
        <time>2021-08-13T12:24:19Z</time>
      </trkpt>
      <trkpt lat="46.66714" lon="3.55814">
        <ele>236.14</ele>
        <time>2021-08-13T12:24:20Z</time>
      </trkpt>
      <trkpt lat="46.66714" lon="3.55819">
        <ele>236.14</ele>
        <time>2021-08-13T12:24:21Z</time>
      </trkpt>
      <trkpt lat="46.66714" lon="3.55823">
        <ele>236.14</ele>
        <time>2021-08-13T12:24:22Z</time>
      </trkpt>
      <trkpt lat="46.66713" lon="3.55827">
        <ele>236.14</ele>
        <time>2021-08-13T12:24:23Z</time>
      </trkpt>
      <trkpt lat="46.66711" lon="3.5583">
        <ele>236.14</ele>
        <time>2021-08-13T12:24:24Z</time>
      </trkpt>
      <trkpt lat="46.66708" lon="3.55832">
        <ele>236.14</ele>
        <time>2021-08-13T12:24:25Z</time>
      </trkpt>
      <trkpt lat="46.66704" lon="3.55834">
        <ele>236.14</ele>
        <time>2021-08-13T12:24:26Z</time>
      </trkpt>
      <trkpt lat="46.66701" lon="3.55836">
        <ele>236.14</ele>
        <time>2021-08-13T12:24:27Z</time>
      </trkpt>
      <trkpt lat="46.66697" lon="3.55838">
        <ele>236.14</ele>
        <time>2021-08-13T12:24:28Z</time>
      </trkpt>
      <trkpt lat="46.66688" lon="3.55843">
        <ele>235.66</ele>
        <time>2021-08-13T12:24:30Z</time>
      </trkpt>
      <trkpt lat="46.66683" lon="3.55846">
        <ele>235.66</ele>
        <time>2021-08-13T12:24:31Z</time>
      </trkpt>
      <trkpt lat="46.66641" lon="3.55872">
        <ele>233.26</ele>
        <time>2021-08-13T12:24:39Z</time>
      </trkpt>
      <trkpt lat="46.66587" lon="3.55902">
        <ele>232.78</ele>
        <time>2021-08-13T12:24:48Z</time>
      </trkpt>
      <trkpt lat="46.66569" lon="3.55908">
        <ele>232.78</ele>
        <time>2021-08-13T12:24:51Z</time>
      </trkpt>
      <trkpt lat="46.66563" lon="3.55908">
        <ele>232.78</ele>
        <time>2021-08-13T12:24:52Z</time>
      </trkpt>
      <trkpt lat="46.66557" lon="3.55907">
        <ele>232.78</ele>
        <time>2021-08-13T12:24:53Z</time>
      </trkpt>
      <trkpt lat="46.66552" lon="3.55904">
        <ele>232.78</ele>
        <time>2021-08-13T12:24:54Z</time>
      </trkpt>
      <trkpt lat="46.66546" lon="3.559">
        <ele>232.78</ele>
        <time>2021-08-13T12:24:55Z</time>
      </trkpt>
      <trkpt lat="46.66542" lon="3.55895">
        <ele>232.78</ele>
        <time>2021-08-13T12:24:56Z</time>
      </trkpt>
      <trkpt lat="46.66538" lon="3.5589">
        <ele>232.78</ele>
        <time>2021-08-13T12:24:57Z</time>
      </trkpt>
      <trkpt lat="46.66512" lon="3.55849">
        <ele>234.22</ele>
        <time>2021-08-13T12:25:04Z</time>
      </trkpt>
      <trkpt lat="46.66476" lon="3.55789">
        <ele>234.22</ele>
        <time>2021-08-13T12:25:13Z</time>
      </trkpt>
      <trkpt lat="46.66431" lon="3.55723">
        <ele>232.3</ele>
        <time>2021-08-13T12:25:23Z</time>
      </trkpt>
      <trkpt lat="46.66387" lon="3.55669">
        <ele>231.81</ele>
        <time>2021-08-13T12:25:32Z</time>
      </trkpt>
      <trkpt lat="46.66326" lon="3.55601">
        <ele>230.85</ele>
        <time>2021-08-13T12:25:44Z</time>
      </trkpt>
      <trkpt lat="46.66292" lon="3.55559">
        <ele>230.37</ele>
        <time>2021-08-13T12:25:51Z</time>
      </trkpt>
      <trkpt lat="46.66267" lon="3.55519">
        <ele>229.89</ele>
        <time>2021-08-13T12:25:57Z</time>
      </trkpt>
      <trkpt lat="46.66264" lon="3.55512">
        <ele>229.89</ele>
        <time>2021-08-13T12:25:58Z</time>
      </trkpt>
      <trkpt lat="46.66261" lon="3.55504">
        <ele>229.89</ele>
        <time>2021-08-13T12:25:59Z</time>
      </trkpt>
      <trkpt lat="46.66235" lon="3.55433">
        <ele>228.93</ele>
        <time>2021-08-13T12:26:08Z</time>
      </trkpt>
      <trkpt lat="46.66209" lon="3.5536">
        <ele>227.01</ele>
        <time>2021-08-13T12:26:17Z</time>
      </trkpt>
      <trkpt lat="46.66203" lon="3.55333">
        <ele>226.05</ele>
        <time>2021-08-13T12:26:20Z</time>
      </trkpt>
      <trkpt lat="46.662" lon="3.55303">
        <ele>225.57</ele>
        <time>2021-08-13T12:26:23Z</time>
      </trkpt>
      <trkpt lat="46.662" lon="3.55294">
        <ele>225.57</ele>
        <time>2021-08-13T12:26:24Z</time>
      </trkpt>
      <trkpt lat="46.66209" lon="3.55227">
        <ele>224.12</ele>
        <time>2021-08-13T12:26:31Z</time>
      </trkpt>
      <trkpt lat="46.66228" lon="3.55156">
        <ele>222.68</ele>
        <time>2021-08-13T12:26:39Z</time>
      </trkpt>
      <trkpt lat="46.66232" lon="3.55144">
        <ele>222.68</ele>
        <time>2021-08-13T12:26:43Z</time>
      </trkpt>
      <trkpt lat="46.66232" lon="3.55145">
        <ele>222.68</ele>
        <time>2021-08-13T12:26:50Z</time>
      </trkpt>
      <trkpt lat="46.66233" lon="3.55145">
        <ele>222.68</ele>
        <time>2021-08-13T12:27:07Z</time>
      </trkpt>
      <trkpt lat="46.66235" lon="3.55145">
        <ele>222.68</ele>
        <time>2021-08-13T12:27:23Z</time>
      </trkpt>
      <trkpt lat="46.66235" lon="3.55149">
        <ele>222.68</ele>
        <time>2021-08-13T12:27:43Z</time>
      </trkpt>
      <trkpt lat="46.66232" lon="3.55147">
        <ele>222.68</ele>
        <time>2021-08-13T12:28:07Z</time>
      </trkpt>
      <trkpt lat="46.6623" lon="3.55147">
        <ele>222.68</ele>
        <time>2021-08-13T12:28:33Z</time>
      </trkpt>
      <trkpt lat="46.66231" lon="3.55147">
        <ele>222.68</ele>
        <time>2021-08-13T12:28:44Z</time>
      </trkpt>
      <trkpt lat="46.66232" lon="3.55146">
        <ele>222.68</ele>
        <time>2021-08-13T12:28:52Z</time>
      </trkpt>
      <trkpt lat="46.66238" lon="3.55132">
        <ele>222.68</ele>
        <time>2021-08-13T12:28:58Z</time>
      </trkpt>
      <trkpt lat="46.66254" lon="3.55111">
        <ele>222.68</ele>
        <time>2021-08-13T12:29:05Z</time>
      </trkpt>
      <trkpt lat="46.66277" lon="3.55093">
        <ele>222.68</ele>
        <time>2021-08-13T12:29:12Z</time>
      </trkpt>
      <trkpt lat="46.66296" lon="3.5508">
        <ele>223.64</ele>
        <time>2021-08-13T12:29:18Z</time>
      </trkpt>
      <trkpt lat="46.66331" lon="3.55057">
        <ele>224.61</ele>
        <time>2021-08-13T12:29:29Z</time>
      </trkpt>
      <trkpt lat="46.66355" lon="3.5504">
        <ele>225.57</ele>
        <time>2021-08-13T12:29:37Z</time>
      </trkpt>
      <trkpt lat="46.66372" lon="3.55029">
        <ele>225.57</ele>
        <time>2021-08-13T12:29:42Z</time>
      </trkpt>
      <trkpt lat="46.66376" lon="3.55026">
        <ele>225.57</ele>
        <time>2021-08-13T12:29:43Z</time>
      </trkpt>
      <trkpt lat="46.66404" lon="3.55008">
        <ele>224.61</ele>
        <time>2021-08-13T12:29:49Z</time>
      </trkpt>
      <trkpt lat="46.66451" lon="3.5498">
        <ele>223.64</ele>
        <time>2021-08-13T12:29:58Z</time>
      </trkpt>
      <trkpt lat="46.66496" lon="3.54963">
        <ele>223.64</ele>
        <time>2021-08-13T12:30:07Z</time>
      </trkpt>
      <trkpt lat="46.66516" lon="3.54955">
        <ele>223.64</ele>
        <time>2021-08-13T12:30:11Z</time>
      </trkpt>
      <trkpt lat="46.66549" lon="3.54926">
        <ele>223.64</ele>
        <time>2021-08-13T12:30:19Z</time>
      </trkpt>
      <trkpt lat="46.66572" lon="3.54901">
        <ele>223.64</ele>
        <time>2021-08-13T12:30:25Z</time>
      </trkpt>
      <trkpt lat="46.66576" lon="3.54897">
        <ele>223.64</ele>
        <time>2021-08-13T12:30:26Z</time>
      </trkpt>
      <trkpt lat="46.66583" lon="3.54888">
        <ele>225.09</ele>
        <time>2021-08-13T12:30:28Z</time>
      </trkpt>
      <trkpt lat="46.66587" lon="3.54884">
        <ele>225.09</ele>
        <time>2021-08-13T12:30:29Z</time>
      </trkpt>
      <trkpt lat="46.66591" lon="3.5488">
        <ele>225.09</ele>
        <time>2021-08-13T12:30:30Z</time>
      </trkpt>
      <trkpt lat="46.66625" lon="3.54854">
        <ele>226.05</ele>
        <time>2021-08-13T12:30:39Z</time>
      </trkpt>
      <trkpt lat="46.66629" lon="3.54851">
        <ele>226.05</ele>
        <time>2021-08-13T12:30:40Z</time>
      </trkpt>
      <trkpt lat="46.66632" lon="3.54847">
        <ele>226.05</ele>
        <time>2021-08-13T12:30:41Z</time>
      </trkpt>
      <trkpt lat="46.66636" lon="3.54843">
        <ele>226.53</ele>
        <time>2021-08-13T12:30:42Z</time>
      </trkpt>
      <trkpt lat="46.66659" lon="3.54811">
        <ele>227.01</ele>
        <time>2021-08-13T12:30:50Z</time>
      </trkpt>
      <trkpt lat="46.66662" lon="3.54807">
        <ele>227.01</ele>
        <time>2021-08-13T12:30:51Z</time>
      </trkpt>
      <trkpt lat="46.66666" lon="3.54802">
        <ele>227.01</ele>
        <time>2021-08-13T12:30:52Z</time>
      </trkpt>
      <trkpt lat="46.66698" lon="3.54758">
        <ele>227.01</ele>
        <time>2021-08-13T12:31:02Z</time>
      </trkpt>
      <trkpt lat="46.66701" lon="3.54754">
        <ele>227.01</ele>
        <time>2021-08-13T12:31:03Z</time>
      </trkpt>
      <trkpt lat="46.66703" lon="3.54749">
        <ele>227.01</ele>
        <time>2021-08-13T12:31:04Z</time>
      </trkpt>
      <trkpt lat="46.66704" lon="3.54744">
        <ele>227.01</ele>
        <time>2021-08-13T12:31:05Z</time>
      </trkpt>
      <trkpt lat="46.66703" lon="3.54739">
        <ele>227.01</ele>
        <time>2021-08-13T12:31:06Z</time>
      </trkpt>
      <trkpt lat="46.66701" lon="3.54737">
        <ele>227.01</ele>
        <time>2021-08-13T12:31:07Z</time>
      </trkpt>
      <trkpt lat="46.66698" lon="3.54737">
        <ele>227.01</ele>
        <time>2021-08-13T12:31:08Z</time>
      </trkpt>
      <trkpt lat="46.66694" lon="3.54737">
        <ele>227.01</ele>
        <time>2021-08-13T12:31:09Z</time>
      </trkpt>
      <trkpt lat="46.6666" lon="3.54743">
        <ele>227.01</ele>
        <time>2021-08-13T12:31:17Z</time>
      </trkpt>
      <trkpt lat="46.66615" lon="3.54746">
        <ele>227.01</ele>
        <time>2021-08-13T12:31:27Z</time>
      </trkpt>
      <trkpt lat="46.66575" lon="3.5475">
        <ele>225.09</ele>
        <time>2021-08-13T12:31:35Z</time>
      </trkpt>
      <trkpt lat="46.66569" lon="3.54748">
        <ele>224.61</ele>
        <time>2021-08-13T12:31:36Z</time>
      </trkpt>
      <trkpt lat="46.66564" lon="3.54745">
        <ele>224.61</ele>
        <time>2021-08-13T12:31:37Z</time>
      </trkpt>
      <trkpt lat="46.66558" lon="3.5474">
        <ele>223.64</ele>
        <time>2021-08-13T12:31:38Z</time>
      </trkpt>
      <trkpt lat="46.66552" lon="3.54735">
        <ele>223.64</ele>
        <time>2021-08-13T12:31:39Z</time>
      </trkpt>
      <trkpt lat="46.66547" lon="3.54729">
        <ele>223.64</ele>
        <time>2021-08-13T12:31:40Z</time>
      </trkpt>
      <trkpt lat="46.66478" lon="3.54663">
        <ele>220.76</ele>
        <time>2021-08-13T12:31:52Z</time>
      </trkpt>
      <trkpt lat="46.66428" lon="3.54614">
        <ele>218.36</ele>
        <time>2021-08-13T12:32:00Z</time>
      </trkpt>
      <trkpt lat="46.66372" lon="3.54561">
        <ele>217.88</ele>
        <time>2021-08-13T12:32:09Z</time>
      </trkpt>
      <trkpt lat="46.66329" lon="3.54519">
        <ele>217.4</ele>
        <time>2021-08-13T12:32:17Z</time>
      </trkpt>
      <trkpt lat="46.66314" lon="3.54505">
        <ele>217.4</ele>
        <time>2021-08-13T12:32:20Z</time>
      </trkpt>
      <trkpt lat="46.66311" lon="3.545">
        <ele>217.4</ele>
        <time>2021-08-13T12:32:21Z</time>
      </trkpt>
      <trkpt lat="46.66304" lon="3.54488">
        <ele>219.32</ele>
        <time>2021-08-13T12:32:23Z</time>
      </trkpt>
      <trkpt lat="46.66298" lon="3.54477">
        <ele>219.32</ele>
        <time>2021-08-13T12:32:25Z</time>
      </trkpt>
      <trkpt lat="46.66294" lon="3.54471">
        <ele>219.32</ele>
        <time>2021-08-13T12:32:26Z</time>
      </trkpt>
      <trkpt lat="46.6629" lon="3.54466">
        <ele>219.32</ele>
        <time>2021-08-13T12:32:27Z</time>
      </trkpt>
      <trkpt lat="46.66282" lon="3.54458">
        <ele>218.84</ele>
        <time>2021-08-13T12:32:29Z</time>
      </trkpt>
      <trkpt lat="46.66274" lon="3.54449">
        <ele>218.84</ele>
        <time>2021-08-13T12:32:31Z</time>
      </trkpt>
      <trkpt lat="46.66267" lon="3.54439">
        <ele>219.32</ele>
        <time>2021-08-13T12:32:33Z</time>
      </trkpt>
      <trkpt lat="46.66264" lon="3.54435">
        <ele>219.32</ele>
        <time>2021-08-13T12:32:34Z</time>
      </trkpt>
      <trkpt lat="46.66244" lon="3.54406">
        <ele>219.8</ele>
        <time>2021-08-13T12:32:41Z</time>
      </trkpt>
      <trkpt lat="46.6622" lon="3.54376">
        <ele>220.28</ele>
        <time>2021-08-13T12:32:49Z</time>
      </trkpt>
      <trkpt lat="46.6621" lon="3.54363">
        <ele>220.28</ele>
        <time>2021-08-13T12:32:52Z</time>
      </trkpt>
      <trkpt lat="46.66206" lon="3.54359">
        <ele>220.28</ele>
        <time>2021-08-13T12:32:53Z</time>
      </trkpt>
      <trkpt lat="46.66203" lon="3.54354">
        <ele>220.28</ele>
        <time>2021-08-13T12:32:54Z</time>
      </trkpt>
      <trkpt lat="46.66182" lon="3.54329">
        <ele>220.28</ele>
        <time>2021-08-13T12:33:00Z</time>
      </trkpt>
      <trkpt lat="46.66154" lon="3.54295">
        <ele>220.76</ele>
        <time>2021-08-13T12:33:08Z</time>
      </trkpt>
      <trkpt lat="46.66125" lon="3.54258">
        <ele>221.72</ele>
        <time>2021-08-13T12:33:17Z</time>
      </trkpt>
      <trkpt lat="46.66108" lon="3.54237">
        <ele>223.16</ele>
        <time>2021-08-13T12:33:24Z</time>
      </trkpt>
      <trkpt lat="46.66107" lon="3.54232">
        <ele>223.16</ele>
        <time>2021-08-13T12:33:25Z</time>
      </trkpt>
      <trkpt lat="46.66107" lon="3.5423">
        <ele>223.64</ele>
        <time>2021-08-13T12:33:26Z</time>
      </trkpt>
      <trkpt lat="46.66109" lon="3.54228">
        <ele>223.64</ele>
        <time>2021-08-13T12:33:27Z</time>
      </trkpt>
      <trkpt lat="46.6611" lon="3.54226">
        <ele>224.12</ele>
        <time>2021-08-13T12:33:28Z</time>
      </trkpt>
      <trkpt lat="46.66112" lon="3.54224">
        <ele>223.64</ele>
        <time>2021-08-13T12:33:29Z</time>
      </trkpt>
      <trkpt lat="46.66127" lon="3.54208">
        <ele>223.64</ele>
        <time>2021-08-13T12:33:35Z</time>
      </trkpt>
      <trkpt lat="46.66146" lon="3.54188">
        <ele>224.12</ele>
        <time>2021-08-13T12:33:42Z</time>
      </trkpt>
      <trkpt lat="46.66171" lon="3.54155">
        <ele>224.12</ele>
        <time>2021-08-13T12:33:50Z</time>
      </trkpt>
      <trkpt lat="46.66186" lon="3.54133">
        <ele>224.12</ele>
        <time>2021-08-13T12:33:54Z</time>
      </trkpt>
      <trkpt lat="46.66198" lon="3.54111">
        <ele>224.12</ele>
        <time>2021-08-13T12:33:58Z</time>
      </trkpt>
      <trkpt lat="46.66201" lon="3.54105">
        <ele>224.12</ele>
        <time>2021-08-13T12:33:59Z</time>
      </trkpt>
      <trkpt lat="46.66229" lon="3.54063">
        <ele>221.72</ele>
        <time>2021-08-13T12:34:06Z</time>
      </trkpt>
      <trkpt lat="46.6625" lon="3.54043">
        <ele>220.76</ele>
        <time>2021-08-13T12:34:10Z</time>
      </trkpt>
      <trkpt lat="46.66256" lon="3.54039">
        <ele>220.76</ele>
        <time>2021-08-13T12:34:11Z</time>
      </trkpt>
      <trkpt lat="46.66266" lon="3.54032">
        <ele>220.76</ele>
        <time>2021-08-13T12:34:13Z</time>
      </trkpt>
      <trkpt lat="46.66272" lon="3.54031">
        <ele>220.76</ele>
        <time>2021-08-13T12:34:14Z</time>
      </trkpt>
      <trkpt lat="46.66277" lon="3.54028">
        <ele>220.76</ele>
        <time>2021-08-13T12:34:15Z</time>
      </trkpt>
      <trkpt lat="46.66283" lon="3.54025">
        <ele>220.76</ele>
        <time>2021-08-13T12:34:16Z</time>
      </trkpt>
      <trkpt lat="46.66288" lon="3.54022">
        <ele>220.76</ele>
        <time>2021-08-13T12:34:17Z</time>
      </trkpt>
      <trkpt lat="46.66325" lon="3.53994">
        <ele>220.76</ele>
        <time>2021-08-13T12:34:25Z</time>
      </trkpt>
      <trkpt lat="46.66332" lon="3.53988">
        <ele>222.2</ele>
        <time>2021-08-13T12:34:27Z</time>
      </trkpt>
      <trkpt lat="46.66335" lon="3.53984">
        <ele>222.2</ele>
        <time>2021-08-13T12:34:28Z</time>
      </trkpt>
      <trkpt lat="46.66364" lon="3.53947">
        <ele>223.16</ele>
        <time>2021-08-13T12:34:38Z</time>
      </trkpt>
      <trkpt lat="46.66387" lon="3.5392">
        <ele>224.12</ele>
        <time>2021-08-13T12:34:47Z</time>
      </trkpt>
      <trkpt lat="46.66417" lon="3.53897">
        <ele>225.09</ele>
        <time>2021-08-13T12:34:57Z</time>
      </trkpt>
      <trkpt lat="46.66445" lon="3.53877">
        <ele>225.57</ele>
        <time>2021-08-13T12:35:05Z</time>
      </trkpt>
      <trkpt lat="46.66449" lon="3.53874">
        <ele>225.57</ele>
        <time>2021-08-13T12:35:06Z</time>
      </trkpt>
      <trkpt lat="46.66464" lon="3.53863">
        <ele>225.57</ele>
        <time>2021-08-13T12:35:10Z</time>
      </trkpt>
      <trkpt lat="46.66511" lon="3.53838">
        <ele>225.57</ele>
        <time>2021-08-13T12:35:21Z</time>
      </trkpt>
      <trkpt lat="46.66529" lon="3.53831">
        <ele>225.57</ele>
        <time>2021-08-13T12:35:25Z</time>
      </trkpt>
      <trkpt lat="46.66533" lon="3.53829">
        <ele>225.57</ele>
        <time>2021-08-13T12:35:26Z</time>
      </trkpt>
      <trkpt lat="46.66583" lon="3.53805">
        <ele>225.57</ele>
        <time>2021-08-13T12:35:37Z</time>
      </trkpt>
      <trkpt lat="46.66591" lon="3.538">
        <ele>225.57</ele>
        <time>2021-08-13T12:35:39Z</time>
      </trkpt>
      <trkpt lat="46.66595" lon="3.53797">
        <ele>225.57</ele>
        <time>2021-08-13T12:35:40Z</time>
      </trkpt>
      <trkpt lat="46.66603" lon="3.53793">
        <ele>225.57</ele>
        <time>2021-08-13T12:35:42Z</time>
      </trkpt>
      <trkpt lat="46.66619" lon="3.53782">
        <ele>225.57</ele>
        <time>2021-08-13T12:35:46Z</time>
      </trkpt>
      <trkpt lat="46.6663" lon="3.53774">
        <ele>225.57</ele>
        <time>2021-08-13T12:35:49Z</time>
      </trkpt>
      <trkpt lat="46.66654" lon="3.53761">
        <ele>225.57</ele>
        <time>2021-08-13T12:35:55Z</time>
      </trkpt>
      <trkpt lat="46.66658" lon="3.53759">
        <ele>225.57</ele>
        <time>2021-08-13T12:35:56Z</time>
      </trkpt>
      <trkpt lat="46.66663" lon="3.53757">
        <ele>225.57</ele>
        <time>2021-08-13T12:35:57Z</time>
      </trkpt>
      <trkpt lat="46.66667" lon="3.53755">
        <ele>225.57</ele>
        <time>2021-08-13T12:35:58Z</time>
      </trkpt>
      <trkpt lat="46.66671" lon="3.53754">
        <ele>225.57</ele>
        <time>2021-08-13T12:35:59Z</time>
      </trkpt>
      <trkpt lat="46.66675" lon="3.53752">
        <ele>225.57</ele>
        <time>2021-08-13T12:36:00Z</time>
      </trkpt>
      <trkpt lat="46.66679" lon="3.5375">
        <ele>225.57</ele>
        <time>2021-08-13T12:36:01Z</time>
      </trkpt>
      <trkpt lat="46.66707" lon="3.53738">
        <ele>226.05</ele>
        <time>2021-08-13T12:36:08Z</time>
      </trkpt>
      <trkpt lat="46.66711" lon="3.53737">
        <ele>226.05</ele>
        <time>2021-08-13T12:36:09Z</time>
      </trkpt>
      <trkpt lat="46.66715" lon="3.53735">
        <ele>226.05</ele>
        <time>2021-08-13T12:36:10Z</time>
      </trkpt>
      <trkpt lat="46.66749" lon="3.53711">
        <ele>226.05</ele>
        <time>2021-08-13T12:36:18Z</time>
      </trkpt>
      <trkpt lat="46.66779" lon="3.53676">
        <ele>226.05</ele>
        <time>2021-08-13T12:36:26Z</time>
      </trkpt>
      <trkpt lat="46.66792" lon="3.53652">
        <ele>226.53</ele>
        <time>2021-08-13T12:36:31Z</time>
      </trkpt>
      <trkpt lat="46.66795" lon="3.53647">
        <ele>226.53</ele>
        <time>2021-08-13T12:36:32Z</time>
      </trkpt>
      <trkpt lat="46.668" lon="3.53637">
        <ele>226.53</ele>
        <time>2021-08-13T12:36:34Z</time>
      </trkpt>
      <trkpt lat="46.66803" lon="3.53631">
        <ele>226.53</ele>
        <time>2021-08-13T12:36:35Z</time>
      </trkpt>
      <trkpt lat="46.6682" lon="3.53598">
        <ele>225.09</ele>
        <time>2021-08-13T12:36:41Z</time>
      </trkpt>
      <trkpt lat="46.66823" lon="3.53593">
        <ele>225.09</ele>
        <time>2021-08-13T12:36:42Z</time>
      </trkpt>
      <trkpt lat="46.66854" lon="3.53535">
        <ele>223.16</ele>
        <time>2021-08-13T12:36:51Z</time>
      </trkpt>
      <trkpt lat="46.66881" lon="3.53492">
        <ele>222.68</ele>
        <time>2021-08-13T12:36:58Z</time>
      </trkpt>
      <trkpt lat="46.66897" lon="3.53471">
        <ele>222.2</ele>
        <time>2021-08-13T12:37:02Z</time>
      </trkpt>
      <trkpt lat="46.66901" lon="3.53467">
        <ele>222.2</ele>
        <time>2021-08-13T12:37:03Z</time>
      </trkpt>
      <trkpt lat="46.66905" lon="3.53463">
        <ele>222.2</ele>
        <time>2021-08-13T12:37:04Z</time>
      </trkpt>
      <trkpt lat="46.66934" lon="3.5343">
        <ele>222.2</ele>
        <time>2021-08-13T12:37:12Z</time>
      </trkpt>
      <trkpt lat="46.66961" lon="3.53403">
        <ele>222.2</ele>
        <time>2021-08-13T12:37:20Z</time>
      </trkpt>
      <trkpt lat="46.6699" lon="3.53374">
        <ele>224.12</ele>
        <time>2021-08-13T12:37:29Z</time>
      </trkpt>
      <trkpt lat="46.67012" lon="3.53355">
        <ele>224.61</ele>
        <time>2021-08-13T12:37:36Z</time>
      </trkpt>
      <trkpt lat="46.67038" lon="3.53335">
        <ele>225.57</ele>
        <time>2021-08-13T12:37:45Z</time>
      </trkpt>
      <trkpt lat="46.67041" lon="3.5333">
        <ele>226.05</ele>
        <time>2021-08-13T12:37:47Z</time>
      </trkpt>
      <trkpt lat="46.67042" lon="3.53327">
        <ele>226.05</ele>
        <time>2021-08-13T12:37:48Z</time>
      </trkpt>
      <trkpt lat="46.67042" lon="3.53323">
        <ele>226.53</ele>
        <time>2021-08-13T12:37:49Z</time>
      </trkpt>
      <trkpt lat="46.67041" lon="3.53318">
        <ele>226.53</ele>
        <time>2021-08-13T12:37:50Z</time>
      </trkpt>
      <trkpt lat="46.67041" lon="3.53314">
        <ele>226.53</ele>
        <time>2021-08-13T12:37:51Z</time>
      </trkpt>
      <trkpt lat="46.67036" lon="3.53281">
        <ele>227.01</ele>
        <time>2021-08-13T12:37:58Z</time>
      </trkpt>
      <trkpt lat="46.67041" lon="3.53243">
        <ele>227.97</ele>
        <time>2021-08-13T12:38:06Z</time>
      </trkpt>
      <trkpt lat="46.67053" lon="3.53205">
        <ele>228.45</ele>
        <time>2021-08-13T12:38:15Z</time>
      </trkpt>
      <trkpt lat="46.67057" lon="3.5317">
        <ele>228.93</ele>
        <time>2021-08-13T12:38:22Z</time>
      </trkpt>
      <trkpt lat="46.67056" lon="3.53129">
        <ele>229.89</ele>
        <time>2021-08-13T12:38:30Z</time>
      </trkpt>
      <trkpt lat="46.67055" lon="3.53081">
        <ele>230.37</ele>
        <time>2021-08-13T12:38:39Z</time>
      </trkpt>
      <trkpt lat="46.67052" lon="3.5304">
        <ele>230.85</ele>
        <time>2021-08-13T12:38:47Z</time>
      </trkpt>
      <trkpt lat="46.6705" lon="3.52995">
        <ele>231.33</ele>
        <time>2021-08-13T12:38:55Z</time>
      </trkpt>
      <trkpt lat="46.67052" lon="3.52969">
        <ele>230.85</ele>
        <time>2021-08-13T12:39:01Z</time>
      </trkpt>
      <trkpt lat="46.67052" lon="3.52952">
        <ele>230.85</ele>
        <time>2021-08-13T12:39:06Z</time>
      </trkpt>
      <trkpt lat="46.6705" lon="3.52948">
        <ele>230.85</ele>
        <time>2021-08-13T12:39:07Z</time>
      </trkpt>
      <trkpt lat="46.67038" lon="3.52924">
        <ele>231.81</ele>
        <time>2021-08-13T12:39:14Z</time>
      </trkpt>
      <trkpt lat="46.67017" lon="3.52882">
        <ele>231.81</ele>
        <time>2021-08-13T12:39:23Z</time>
      </trkpt>
      <trkpt lat="46.66989" lon="3.52827">
        <ele>232.3</ele>
        <time>2021-08-13T12:39:33Z</time>
      </trkpt>
      <trkpt lat="46.66984" lon="3.52816">
        <ele>232.3</ele>
        <time>2021-08-13T12:39:35Z</time>
      </trkpt>
      <trkpt lat="46.66981" lon="3.5281">
        <ele>232.3</ele>
        <time>2021-08-13T12:39:36Z</time>
      </trkpt>
      <trkpt lat="46.66968" lon="3.52782">
        <ele>232.78</ele>
        <time>2021-08-13T12:39:41Z</time>
      </trkpt>
      <trkpt lat="46.66966" lon="3.52777">
        <ele>232.78</ele>
        <time>2021-08-13T12:39:42Z</time>
      </trkpt>
      <trkpt lat="46.66941" lon="3.52727">
        <ele>233.26</ele>
        <time>2021-08-13T12:39:51Z</time>
      </trkpt>
      <trkpt lat="46.66921" lon="3.52684">
        <ele>233.74</ele>
        <time>2021-08-13T12:39:59Z</time>
      </trkpt>
      <trkpt lat="46.66891" lon="3.52625">
        <ele>234.7</ele>
        <time>2021-08-13T12:40:10Z</time>
      </trkpt>
      <trkpt lat="46.66864" lon="3.52571">
        <ele>235.18</ele>
        <time>2021-08-13T12:40:20Z</time>
      </trkpt>
      <trkpt lat="46.66839" lon="3.52522">
        <ele>235.66</ele>
        <time>2021-08-13T12:40:29Z</time>
      </trkpt>
      <trkpt lat="46.66813" lon="3.52464">
        <ele>236.14</ele>
        <time>2021-08-13T12:40:39Z</time>
      </trkpt>
      <trkpt lat="46.6679" lon="3.52416">
        <ele>236.14</ele>
        <time>2021-08-13T12:40:47Z</time>
      </trkpt>
      <trkpt lat="46.66764" lon="3.52362">
        <ele>236.14</ele>
        <time>2021-08-13T12:40:56Z</time>
      </trkpt>
      <trkpt lat="46.6674" lon="3.52313">
        <ele>236.14</ele>
        <time>2021-08-13T12:41:04Z</time>
      </trkpt>
      <trkpt lat="46.6671" lon="3.52251">
        <ele>236.14</ele>
        <time>2021-08-13T12:41:14Z</time>
      </trkpt>
      <trkpt lat="46.66683" lon="3.52196">
        <ele>236.14</ele>
        <time>2021-08-13T12:41:23Z</time>
      </trkpt>
      <trkpt lat="46.66653" lon="3.52135">
        <ele>236.14</ele>
        <time>2021-08-13T12:41:33Z</time>
      </trkpt>
      <trkpt lat="46.66632" lon="3.52091">
        <ele>236.62</ele>
        <time>2021-08-13T12:41:41Z</time>
      </trkpt>
      <trkpt lat="46.66612" lon="3.52049">
        <ele>237.1</ele>
        <time>2021-08-13T12:41:49Z</time>
      </trkpt>
      <trkpt lat="46.66603" lon="3.52032">
        <ele>237.58</ele>
        <time>2021-08-13T12:41:52Z</time>
      </trkpt>
      <trkpt lat="46.66581" lon="3.51986">
        <ele>238.54</ele>
        <time>2021-08-13T12:42:00Z</time>
      </trkpt>
      <trkpt lat="46.66578" lon="3.5198">
        <ele>238.54</ele>
        <time>2021-08-13T12:42:01Z</time>
      </trkpt>
      <trkpt lat="46.66554" lon="3.51932">
        <ele>239.02</ele>
        <time>2021-08-13T12:42:10Z</time>
      </trkpt>
      <trkpt lat="46.66526" lon="3.51877">
        <ele>239.51</ele>
        <time>2021-08-13T12:42:20Z</time>
      </trkpt>
      <trkpt lat="46.665" lon="3.51833">
        <ele>239.99</ele>
        <time>2021-08-13T12:42:28Z</time>
      </trkpt>
      <trkpt lat="46.6646" lon="3.51767">
        <ele>240.47</ele>
        <time>2021-08-13T12:42:40Z</time>
      </trkpt>
      <trkpt lat="46.66431" lon="3.51721">
        <ele>240.47</ele>
        <time>2021-08-13T12:42:48Z</time>
      </trkpt>
      <trkpt lat="46.66395" lon="3.51667">
        <ele>240.47</ele>
        <time>2021-08-13T12:42:57Z</time>
      </trkpt>
      <trkpt lat="46.66362" lon="3.51617">
        <ele>240.47</ele>
        <time>2021-08-13T12:43:06Z</time>
      </trkpt>
      <trkpt lat="46.66355" lon="3.51606">
        <ele>241.43</ele>
        <time>2021-08-13T12:43:08Z</time>
      </trkpt>
      <trkpt lat="46.6632" lon="3.51554">
        <ele>241.91</ele>
        <time>2021-08-13T12:43:18Z</time>
      </trkpt>
      <trkpt lat="46.66288" lon="3.51512">
        <ele>242.87</ele>
        <time>2021-08-13T12:43:27Z</time>
      </trkpt>
      <trkpt lat="46.66276" lon="3.51499">
        <ele>242.87</ele>
        <time>2021-08-13T12:43:30Z</time>
      </trkpt>
      <trkpt lat="46.66259" lon="3.51484">
        <ele>242.87</ele>
        <time>2021-08-13T12:43:34Z</time>
      </trkpt>
      <trkpt lat="46.66239" lon="3.51467">
        <ele>243.35</ele>
        <time>2021-08-13T12:43:39Z</time>
      </trkpt>
      <trkpt lat="46.66235" lon="3.51465">
        <ele>243.35</ele>
        <time>2021-08-13T12:43:40Z</time>
      </trkpt>
      <trkpt lat="46.66195" lon="3.51439">
        <ele>243.83</ele>
        <time>2021-08-13T12:43:49Z</time>
      </trkpt>
      <trkpt lat="46.66178" lon="3.51429">
        <ele>243.83</ele>
        <time>2021-08-13T12:43:53Z</time>
      </trkpt>
      <trkpt lat="46.66175" lon="3.51424">
        <ele>243.83</ele>
        <time>2021-08-13T12:43:54Z</time>
      </trkpt>
      <trkpt lat="46.66174" lon="3.51417">
        <ele>243.83</ele>
        <time>2021-08-13T12:43:55Z</time>
      </trkpt>
      <trkpt lat="46.66175" lon="3.51411">
        <ele>243.83</ele>
        <time>2021-08-13T12:43:56Z</time>
      </trkpt>
      <trkpt lat="46.66177" lon="3.51407">
        <ele>243.83</ele>
        <time>2021-08-13T12:43:57Z</time>
      </trkpt>
      <trkpt lat="46.66179" lon="3.51404">
        <ele>243.83</ele>
        <time>2021-08-13T12:43:58Z</time>
      </trkpt>
      <trkpt lat="46.66193" lon="3.51385">
        <ele>243.83</ele>
        <time>2021-08-13T12:44:06Z</time>
      </trkpt>
      <trkpt lat="46.66204" lon="3.51367">
        <ele>243.83</ele>
        <time>2021-08-13T12:44:14Z</time>
      </trkpt>
      <trkpt lat="46.66214" lon="3.51351">
        <ele>243.83</ele>
        <time>2021-08-13T12:44:21Z</time>
      </trkpt>
      <trkpt lat="46.66229" lon="3.51331">
        <ele>243.83</ele>
        <time>2021-08-13T12:44:29Z</time>
      </trkpt>
      <trkpt lat="46.66241" lon="3.5131">
        <ele>242.87</ele>
        <time>2021-08-13T12:44:35Z</time>
      </trkpt>
      <trkpt lat="46.66266" lon="3.51271">
        <ele>241.43</ele>
        <time>2021-08-13T12:44:43Z</time>
      </trkpt>
      <trkpt lat="46.66273" lon="3.5126">
        <ele>241.43</ele>
        <time>2021-08-13T12:44:45Z</time>
      </trkpt>
      <trkpt lat="46.6629" lon="3.51238">
        <ele>240.47</ele>
        <time>2021-08-13T12:44:49Z</time>
      </trkpt>
      <trkpt lat="46.66299" lon="3.51229">
        <ele>240.47</ele>
        <time>2021-08-13T12:44:51Z</time>
      </trkpt>
      <trkpt lat="46.66305" lon="3.51226">
        <ele>239.99</ele>
        <time>2021-08-13T12:44:52Z</time>
      </trkpt>
      <trkpt lat="46.66349" lon="3.51209">
        <ele>239.51</ele>
        <time>2021-08-13T12:45:00Z</time>
      </trkpt>
      <trkpt lat="46.66382" lon="3.51197">
        <ele>239.51</ele>
        <time>2021-08-13T12:45:07Z</time>
      </trkpt>
      <trkpt lat="46.66386" lon="3.51195">
        <ele>239.51</ele>
        <time>2021-08-13T12:45:08Z</time>
      </trkpt>
      <trkpt lat="46.6639" lon="3.51193">
        <ele>239.51</ele>
        <time>2021-08-13T12:45:09Z</time>
      </trkpt>
      <trkpt lat="46.66395" lon="3.51192">
        <ele>239.51</ele>
        <time>2021-08-13T12:45:10Z</time>
      </trkpt>
      <trkpt lat="46.66398" lon="3.5119">
        <ele>239.51</ele>
        <time>2021-08-13T12:45:11Z</time>
      </trkpt>
      <trkpt lat="46.66419" lon="3.51183">
        <ele>239.51</ele>
        <time>2021-08-13T12:45:16Z</time>
      </trkpt>
      <trkpt lat="46.66423" lon="3.5118">
        <ele>239.51</ele>
        <time>2021-08-13T12:45:17Z</time>
      </trkpt>
      <trkpt lat="46.66427" lon="3.51175">
        <ele>239.02</ele>
        <time>2021-08-13T12:45:18Z</time>
      </trkpt>
      <trkpt lat="46.66429" lon="3.51169">
        <ele>239.02</ele>
        <time>2021-08-13T12:45:19Z</time>
      </trkpt>
      <trkpt lat="46.66432" lon="3.51162">
        <ele>238.06</ele>
        <time>2021-08-13T12:45:20Z</time>
      </trkpt>
      <trkpt lat="46.66434" lon="3.51154">
        <ele>238.06</ele>
        <time>2021-08-13T12:45:21Z</time>
      </trkpt>
      <trkpt lat="46.66435" lon="3.51146">
        <ele>237.58</ele>
        <time>2021-08-13T12:45:22Z</time>
      </trkpt>
      <trkpt lat="46.66437" lon="3.51137">
        <ele>237.58</ele>
        <time>2021-08-13T12:45:23Z</time>
      </trkpt>
      <trkpt lat="46.66448" lon="3.51074">
        <ele>234.22</ele>
        <time>2021-08-13T12:45:29Z</time>
      </trkpt>
      <trkpt lat="46.66463" lon="3.5099">
        <ele>231.81</ele>
        <time>2021-08-13T12:45:36Z</time>
      </trkpt>
      <trkpt lat="46.66469" lon="3.50954">
        <ele>230.37</ele>
        <time>2021-08-13T12:45:39Z</time>
      </trkpt>
      <trkpt lat="46.66485" lon="3.50852">
        <ele>229.41</ele>
        <time>2021-08-13T12:45:48Z</time>
      </trkpt>
      <trkpt lat="46.66491" lon="3.50797">
        <ele>229.41</ele>
        <time>2021-08-13T12:45:54Z</time>
      </trkpt>
      <trkpt lat="46.6649" lon="3.50789">
        <ele>229.41</ele>
        <time>2021-08-13T12:45:55Z</time>
      </trkpt>
      <trkpt lat="46.66489" lon="3.50781">
        <ele>229.41</ele>
        <time>2021-08-13T12:45:56Z</time>
      </trkpt>
      <trkpt lat="46.66487" lon="3.50774">
        <ele>229.41</ele>
        <time>2021-08-13T12:45:57Z</time>
      </trkpt>
      <trkpt lat="46.66485" lon="3.50767">
        <ele>229.41</ele>
        <time>2021-08-13T12:45:58Z</time>
      </trkpt>
      <trkpt lat="46.66467" lon="3.50724">
        <ele>230.37</ele>
        <time>2021-08-13T12:46:05Z</time>
      </trkpt>
      <trkpt lat="46.66464" lon="3.50719">
        <ele>230.85</ele>
        <time>2021-08-13T12:46:06Z</time>
      </trkpt>
      <trkpt lat="46.66455" lon="3.50698">
        <ele>231.33</ele>
        <time>2021-08-13T12:46:10Z</time>
      </trkpt>
      <trkpt lat="46.66452" lon="3.50694">
        <ele>231.33</ele>
        <time>2021-08-13T12:46:11Z</time>
      </trkpt>
      <trkpt lat="46.6645" lon="3.50689">
        <ele>231.33</ele>
        <time>2021-08-13T12:46:12Z</time>
      </trkpt>
      <trkpt lat="46.66429" lon="3.50654">
        <ele>231.81</ele>
        <time>2021-08-13T12:46:20Z</time>
      </trkpt>
      <trkpt lat="46.66399" lon="3.50618">
        <ele>231.81</ele>
        <time>2021-08-13T12:46:30Z</time>
      </trkpt>
      <trkpt lat="46.66378" lon="3.50588">
        <ele>232.3</ele>
        <time>2021-08-13T12:46:38Z</time>
      </trkpt>
      <trkpt lat="46.66363" lon="3.50553">
        <ele>232.3</ele>
        <time>2021-08-13T12:46:46Z</time>
      </trkpt>
      <trkpt lat="46.66346" lon="3.50516">
        <ele>232.78</ele>
        <time>2021-08-13T12:46:54Z</time>
      </trkpt>
      <trkpt lat="46.66329" lon="3.50484">
        <ele>233.26</ele>
        <time>2021-08-13T12:47:02Z</time>
      </trkpt>
      <trkpt lat="46.66313" lon="3.50456">
        <ele>233.74</ele>
        <time>2021-08-13T12:47:09Z</time>
      </trkpt>
      <trkpt lat="46.66302" lon="3.5042">
        <ele>234.7</ele>
        <time>2021-08-13T12:47:17Z</time>
      </trkpt>
      <trkpt lat="46.66301" lon="3.50392">
        <ele>235.18</ele>
        <time>2021-08-13T12:47:23Z</time>
      </trkpt>
      <trkpt lat="46.66301" lon="3.50354">
        <ele>235.66</ele>
        <time>2021-08-13T12:47:31Z</time>
      </trkpt>
      <trkpt lat="46.663" lon="3.50308">
        <ele>236.62</ele>
        <time>2021-08-13T12:47:41Z</time>
      </trkpt>
      <trkpt lat="46.66298" lon="3.50282">
        <ele>237.1</ele>
        <time>2021-08-13T12:47:47Z</time>
      </trkpt>
      <trkpt lat="46.66298" lon="3.50278">
        <ele>237.1</ele>
        <time>2021-08-13T12:47:48Z</time>
      </trkpt>
      <trkpt lat="46.66299" lon="3.50274">
        <ele>237.1</ele>
        <time>2021-08-13T12:47:49Z</time>
      </trkpt>
      <trkpt lat="46.66299" lon="3.50238">
        <ele>238.06</ele>
        <time>2021-08-13T12:47:57Z</time>
      </trkpt>
      <trkpt lat="46.66298" lon="3.50182">
        <ele>238.06</ele>
        <time>2021-08-13T12:48:09Z</time>
      </trkpt>
      <trkpt lat="46.66293" lon="3.50141">
        <ele>239.02</ele>
        <time>2021-08-13T12:48:18Z</time>
      </trkpt>
      <trkpt lat="46.66287" lon="3.50097">
        <ele>239.99</ele>
        <time>2021-08-13T12:48:28Z</time>
      </trkpt>
      <trkpt lat="46.66285" lon="3.50063">
        <ele>240.47</ele>
        <time>2021-08-13T12:48:35Z</time>
      </trkpt>
      <trkpt lat="46.66285" lon="3.50033">
        <ele>240.47</ele>
        <time>2021-08-13T12:48:41Z</time>
      </trkpt>
      <trkpt lat="46.66282" lon="3.49989">
        <ele>240.95</ele>
        <time>2021-08-13T12:48:50Z</time>
      </trkpt>
      <trkpt lat="46.6628" lon="3.49943">
        <ele>241.43</ele>
        <time>2021-08-13T12:48:59Z</time>
      </trkpt>
      <trkpt lat="46.66277" lon="3.4991">
        <ele>241.43</ele>
        <time>2021-08-13T12:49:05Z</time>
      </trkpt>
      <trkpt lat="46.66276" lon="3.49861">
        <ele>242.39</ele>
        <time>2021-08-13T12:49:14Z</time>
      </trkpt>
      <trkpt lat="46.66274" lon="3.49827">
        <ele>242.39</ele>
        <time>2021-08-13T12:49:21Z</time>
      </trkpt>
      <trkpt lat="46.66272" lon="3.4979">
        <ele>242.87</ele>
        <time>2021-08-13T12:49:28Z</time>
      </trkpt>
      <trkpt lat="46.66272" lon="3.49748">
        <ele>242.87</ele>
        <time>2021-08-13T12:49:36Z</time>
      </trkpt>
      <trkpt lat="46.66271" lon="3.49711">
        <ele>243.35</ele>
        <time>2021-08-13T12:49:43Z</time>
      </trkpt>
      <trkpt lat="46.66268" lon="3.49665">
        <ele>243.83</ele>
        <time>2021-08-13T12:49:51Z</time>
      </trkpt>
      <trkpt lat="46.66266" lon="3.49625">
        <ele>243.83</ele>
        <time>2021-08-13T12:49:58Z</time>
      </trkpt>
      <trkpt lat="46.66263" lon="3.49593">
        <ele>243.83</ele>
        <time>2021-08-13T12:50:04Z</time>
      </trkpt>
      <trkpt lat="46.66261" lon="3.49561">
        <ele>244.31</ele>
        <time>2021-08-13T12:50:10Z</time>
      </trkpt>
      <trkpt lat="46.6626" lon="3.49509">
        <ele>244.31</ele>
        <time>2021-08-13T12:50:19Z</time>
      </trkpt>
      <trkpt lat="46.66257" lon="3.49463">
        <ele>244.31</ele>
        <time>2021-08-13T12:50:26Z</time>
      </trkpt>
      <trkpt lat="46.66257" lon="3.49458">
        <ele>244.31</ele>
        <time>2021-08-13T12:50:27Z</time>
      </trkpt>
      <trkpt lat="46.66256" lon="3.49452">
        <ele>244.31</ele>
        <time>2021-08-13T12:50:28Z</time>
      </trkpt>
      <trkpt lat="46.66255" lon="3.49445">
        <ele>244.31</ele>
        <time>2021-08-13T12:50:29Z</time>
      </trkpt>
      <trkpt lat="46.66255" lon="3.49439">
        <ele>244.31</ele>
        <time>2021-08-13T12:50:30Z</time>
      </trkpt>
      <trkpt lat="46.66253" lon="3.49427">
        <ele>244.79</ele>
        <time>2021-08-13T12:50:32Z</time>
      </trkpt>
      <trkpt lat="46.66243" lon="3.49383">
        <ele>245.27</ele>
        <time>2021-08-13T12:50:39Z</time>
      </trkpt>
      <trkpt lat="46.6624" lon="3.49372">
        <ele>245.27</ele>
        <time>2021-08-13T12:50:41Z</time>
      </trkpt>
      <trkpt lat="46.66239" lon="3.49366">
        <ele>245.27</ele>
        <time>2021-08-13T12:50:42Z</time>
      </trkpt>
      <trkpt lat="46.66225" lon="3.4932">
        <ele>245.75</ele>
        <time>2021-08-13T12:50:50Z</time>
      </trkpt>
      <trkpt lat="46.6621" lon="3.49268">
        <ele>246.23</ele>
        <time>2021-08-13T12:50:59Z</time>
      </trkpt>
      <trkpt lat="46.66186" lon="3.49182">
        <ele>246.72</ele>
        <time>2021-08-13T12:51:12Z</time>
      </trkpt>
      <trkpt lat="46.6618" lon="3.49158">
        <ele>247.2</ele>
        <time>2021-08-13T12:51:16Z</time>
      </trkpt>
      <trkpt lat="46.66169" lon="3.49108">
        <ele>248.16</ele>
        <time>2021-08-13T12:51:24Z</time>
      </trkpt>
      <trkpt lat="46.6616" lon="3.49064">
        <ele>248.64</ele>
        <time>2021-08-13T12:51:31Z</time>
      </trkpt>
      <trkpt lat="46.66148" lon="3.49008">
        <ele>247.2</ele>
        <time>2021-08-13T12:51:39Z</time>
      </trkpt>
      <trkpt lat="46.66137" lon="3.48951">
        <ele>244.79</ele>
        <time>2021-08-13T12:51:46Z</time>
      </trkpt>
      <trkpt lat="46.6613" lon="3.48886">
        <ele>242.39</ele>
        <time>2021-08-13T12:51:52Z</time>
      </trkpt>
      <trkpt lat="46.66118" lon="3.48799">
        <ele>238.54</ele>
        <time>2021-08-13T12:51:59Z</time>
      </trkpt>
      <trkpt lat="46.66116" lon="3.48787">
        <ele>238.54</ele>
        <time>2021-08-13T12:52:00Z</time>
      </trkpt>
      <trkpt lat="46.66097" lon="3.48688">
        <ele>236.14</ele>
        <time>2021-08-13T12:52:08Z</time>
      </trkpt>
      <trkpt lat="46.66074" lon="3.48556">
        <ele>234.7</ele>
        <time>2021-08-13T12:52:19Z</time>
      </trkpt>
      <trkpt lat="46.66062" lon="3.48471">
        <ele>234.22</ele>
        <time>2021-08-13T12:52:27Z</time>
      </trkpt>
      <trkpt lat="46.66052" lon="3.48414">
        <ele>234.22</ele>
        <time>2021-08-13T12:52:34Z</time>
      </trkpt>
      <trkpt lat="46.66039" lon="3.48352">
        <ele>235.18</ele>
        <time>2021-08-13T12:52:43Z</time>
      </trkpt>
      <trkpt lat="46.66026" lon="3.48286">
        <ele>235.18</ele>
        <time>2021-08-13T12:52:52Z</time>
      </trkpt>
      <trkpt lat="46.66026" lon="3.48214">
        <ele>233.74</ele>
        <time>2021-08-13T12:53:00Z</time>
      </trkpt>
      <trkpt lat="46.6603" lon="3.48135">
        <ele>231.33</ele>
        <time>2021-08-13T12:53:08Z</time>
      </trkpt>
      <trkpt lat="46.66032" lon="3.48054">
        <ele>229.89</ele>
        <time>2021-08-13T12:53:16Z</time>
      </trkpt>
      <trkpt lat="46.66031" lon="3.48044">
        <ele>229.41</ele>
        <time>2021-08-13T12:53:17Z</time>
      </trkpt>
      <trkpt lat="46.66032" lon="3.48034">
        <ele>229.41</ele>
        <time>2021-08-13T12:53:18Z</time>
      </trkpt>
      <trkpt lat="46.66035" lon="3.48025">
        <ele>229.41</ele>
        <time>2021-08-13T12:53:19Z</time>
      </trkpt>
      <trkpt lat="46.6604" lon="3.48015">
        <ele>228.45</ele>
        <time>2021-08-13T12:53:20Z</time>
      </trkpt>
      <trkpt lat="46.66045" lon="3.4801">
        <ele>228.45</ele>
        <time>2021-08-13T12:53:21Z</time>
      </trkpt>
      <trkpt lat="46.66052" lon="3.48005">
        <ele>228.45</ele>
        <time>2021-08-13T12:53:22Z</time>
      </trkpt>
      <trkpt lat="46.66059" lon="3.48003">
        <ele>227.97</ele>
        <time>2021-08-13T12:53:23Z</time>
      </trkpt>
      <trkpt lat="46.66066" lon="3.48001">
        <ele>227.97</ele>
        <time>2021-08-13T12:53:24Z</time>
      </trkpt>
      <trkpt lat="46.66119" lon="3.47981">
        <ele>227.01</ele>
        <time>2021-08-13T12:53:32Z</time>
      </trkpt>
      <trkpt lat="46.66124" lon="3.47976">
        <ele>227.01</ele>
        <time>2021-08-13T12:53:33Z</time>
      </trkpt>
      <trkpt lat="46.66128" lon="3.47968">
        <ele>227.01</ele>
        <time>2021-08-13T12:53:34Z</time>
      </trkpt>
      <trkpt lat="46.66132" lon="3.47959">
        <ele>226.53</ele>
        <time>2021-08-13T12:53:35Z</time>
      </trkpt>
      <trkpt lat="46.66134" lon="3.47949">
        <ele>226.53</ele>
        <time>2021-08-13T12:53:36Z</time>
      </trkpt>
      <trkpt lat="46.66134" lon="3.47938">
        <ele>226.53</ele>
        <time>2021-08-13T12:53:37Z</time>
      </trkpt>
      <trkpt lat="46.66134" lon="3.47928">
        <ele>226.53</ele>
        <time>2021-08-13T12:53:38Z</time>
      </trkpt>
      <trkpt lat="46.66134" lon="3.47917">
        <ele>226.53</ele>
        <time>2021-08-13T12:53:39Z</time>
      </trkpt>
      <trkpt lat="46.66133" lon="3.47907">
        <ele>225.57</ele>
        <time>2021-08-13T12:53:40Z</time>
      </trkpt>
      <trkpt lat="46.66123" lon="3.47856">
        <ele>224.12</ele>
        <time>2021-08-13T12:53:45Z</time>
      </trkpt>
      <trkpt lat="46.66112" lon="3.47827">
        <ele>223.16</ele>
        <time>2021-08-13T12:53:48Z</time>
      </trkpt>
      <trkpt lat="46.66107" lon="3.47819">
        <ele>222.68</ele>
        <time>2021-08-13T12:53:49Z</time>
      </trkpt>
      <trkpt lat="46.66102" lon="3.4781">
        <ele>222.68</ele>
        <time>2021-08-13T12:53:50Z</time>
      </trkpt>
      <trkpt lat="46.66067" lon="3.47739">
        <ele>222.2</ele>
        <time>2021-08-13T12:53:58Z</time>
      </trkpt>
      <trkpt lat="46.66065" lon="3.4773">
        <ele>222.2</ele>
        <time>2021-08-13T12:53:59Z</time>
      </trkpt>
      <trkpt lat="46.66063" lon="3.4772">
        <ele>222.2</ele>
        <time>2021-08-13T12:54:00Z</time>
      </trkpt>
      <trkpt lat="46.66063" lon="3.4771">
        <ele>222.2</ele>
        <time>2021-08-13T12:54:01Z</time>
      </trkpt>
      <trkpt lat="46.66062" lon="3.477">
        <ele>222.2</ele>
        <time>2021-08-13T12:54:02Z</time>
      </trkpt>
      <trkpt lat="46.66062" lon="3.4769">
        <ele>222.2</ele>
        <time>2021-08-13T12:54:03Z</time>
      </trkpt>
      <trkpt lat="46.66063" lon="3.4768">
        <ele>222.2</ele>
        <time>2021-08-13T12:54:04Z</time>
      </trkpt>
      <trkpt lat="46.66062" lon="3.4767">
        <ele>222.2</ele>
        <time>2021-08-13T12:54:05Z</time>
      </trkpt>
      <trkpt lat="46.66062" lon="3.47662">
        <ele>222.2</ele>
        <time>2021-08-13T12:54:06Z</time>
      </trkpt>
      <trkpt lat="46.66059" lon="3.47618">
        <ele>222.2</ele>
        <time>2021-08-13T12:54:11Z</time>
      </trkpt>
      <trkpt lat="46.66048" lon="3.47567">
        <ele>222.2</ele>
        <time>2021-08-13T12:54:17Z</time>
      </trkpt>
      <trkpt lat="46.66032" lon="3.475">
        <ele>222.2</ele>
        <time>2021-08-13T12:54:26Z</time>
      </trkpt>
      <trkpt lat="46.6602" lon="3.47448">
        <ele>223.16</ele>
        <time>2021-08-13T12:54:34Z</time>
      </trkpt>
      <trkpt lat="46.66009" lon="3.47402">
        <ele>224.12</ele>
        <time>2021-08-13T12:54:43Z</time>
      </trkpt>
      <trkpt lat="46.66007" lon="3.47399">
        <ele>224.12</ele>
        <time>2021-08-13T12:54:44Z</time>
      </trkpt>
      <trkpt lat="46.66005" lon="3.47396">
        <ele>224.12</ele>
        <time>2021-08-13T12:54:45Z</time>
      </trkpt>
      <trkpt lat="46.66001" lon="3.47396">
        <ele>224.12</ele>
        <time>2021-08-13T12:54:46Z</time>
      </trkpt>
      <trkpt lat="46.65998" lon="3.47397">
        <ele>224.12</ele>
        <time>2021-08-13T12:54:47Z</time>
      </trkpt>
      <trkpt lat="46.65994" lon="3.47399">
        <ele>224.12</ele>
        <time>2021-08-13T12:54:48Z</time>
      </trkpt>
      <trkpt lat="46.6599" lon="3.47401">
        <ele>224.12</ele>
        <time>2021-08-13T12:54:49Z</time>
      </trkpt>
      <trkpt lat="46.65987" lon="3.47403">
        <ele>224.12</ele>
        <time>2021-08-13T12:54:50Z</time>
      </trkpt>
      <trkpt lat="46.65951" lon="3.47423">
        <ele>225.57</ele>
        <time>2021-08-13T12:55:00Z</time>
      </trkpt>
      <trkpt lat="46.65923" lon="3.47435">
        <ele>227.01</ele>
        <time>2021-08-13T12:55:09Z</time>
      </trkpt>
      <trkpt lat="46.6589" lon="3.47441">
        <ele>227.49</ele>
        <time>2021-08-13T12:55:19Z</time>
      </trkpt>
      <trkpt lat="46.6586" lon="3.47435">
        <ele>228.45</ele>
        <time>2021-08-13T12:55:28Z</time>
      </trkpt>
      <trkpt lat="46.65838" lon="3.47424">
        <ele>228.45</ele>
        <time>2021-08-13T12:55:34Z</time>
      </trkpt>
      <trkpt lat="46.65831" lon="3.47419">
        <ele>228.93</ele>
        <time>2021-08-13T12:55:36Z</time>
      </trkpt>
      <trkpt lat="46.65792" lon="3.47401">
        <ele>228.93</ele>
        <time>2021-08-13T12:55:45Z</time>
      </trkpt>
      <trkpt lat="46.65772" lon="3.47392">
        <ele>228.93</ele>
        <time>2021-08-13T12:55:49Z</time>
      </trkpt>
      <trkpt lat="46.65768" lon="3.4739">
        <ele>228.93</ele>
        <time>2021-08-13T12:55:50Z</time>
      </trkpt>
      <trkpt lat="46.65718" lon="3.47369">
        <ele>228.93</ele>
        <time>2021-08-13T12:56:00Z</time>
      </trkpt>
      <trkpt lat="46.65703" lon="3.47363">
        <ele>228.93</ele>
        <time>2021-08-13T12:56:03Z</time>
      </trkpt>
      <trkpt lat="46.65698" lon="3.4736">
        <ele>228.93</ele>
        <time>2021-08-13T12:56:04Z</time>
      </trkpt>
      <trkpt lat="46.65653" lon="3.47341">
        <ele>228.93</ele>
        <time>2021-08-13T12:56:13Z</time>
      </trkpt>
      <trkpt lat="46.65621" lon="3.47328">
        <ele>228.93</ele>
        <time>2021-08-13T12:56:20Z</time>
      </trkpt>
      <trkpt lat="46.65617" lon="3.47326">
        <ele>228.93</ele>
        <time>2021-08-13T12:56:21Z</time>
      </trkpt>
      <trkpt lat="46.65576" lon="3.47309">
        <ele>228.93</ele>
        <time>2021-08-13T12:56:29Z</time>
      </trkpt>
      <trkpt lat="46.65539" lon="3.47293">
        <ele>228.93</ele>
        <time>2021-08-13T12:56:36Z</time>
      </trkpt>
      <trkpt lat="46.65486" lon="3.4727">
        <ele>228.93</ele>
        <time>2021-08-13T12:56:46Z</time>
      </trkpt>
      <trkpt lat="46.65472" lon="3.47263">
        <ele>228.93</ele>
        <time>2021-08-13T12:56:49Z</time>
      </trkpt>
      <trkpt lat="46.65458" lon="3.47258">
        <ele>228.93</ele>
        <time>2021-08-13T12:56:52Z</time>
      </trkpt>
      <trkpt lat="46.6542" lon="3.47242">
        <ele>228.93</ele>
        <time>2021-08-13T12:57:00Z</time>
      </trkpt>
      <trkpt lat="46.6541" lon="3.47238">
        <ele>228.93</ele>
        <time>2021-08-13T12:57:02Z</time>
      </trkpt>
      <trkpt lat="46.654" lon="3.47235">
        <ele>228.93</ele>
        <time>2021-08-13T12:57:04Z</time>
      </trkpt>
      <trkpt lat="46.65396" lon="3.47232">
        <ele>228.93</ele>
        <time>2021-08-13T12:57:05Z</time>
      </trkpt>
      <trkpt lat="46.65391" lon="3.4723">
        <ele>228.93</ele>
        <time>2021-08-13T12:57:06Z</time>
      </trkpt>
      <trkpt lat="46.65382" lon="3.47226">
        <ele>229.41</ele>
        <time>2021-08-13T12:57:08Z</time>
      </trkpt>
      <trkpt lat="46.65345" lon="3.47211">
        <ele>229.89</ele>
        <time>2021-08-13T12:57:16Z</time>
      </trkpt>
      <trkpt lat="46.65303" lon="3.47192">
        <ele>230.37</ele>
        <time>2021-08-13T12:57:25Z</time>
      </trkpt>
      <trkpt lat="46.65268" lon="3.47177">
        <ele>230.37</ele>
        <time>2021-08-13T12:57:33Z</time>
      </trkpt>
      <trkpt lat="46.65233" lon="3.47163">
        <ele>230.37</ele>
        <time>2021-08-13T12:57:41Z</time>
      </trkpt>
      <trkpt lat="46.65214" lon="3.47154">
        <ele>230.37</ele>
        <time>2021-08-13T12:57:45Z</time>
      </trkpt>
      <trkpt lat="46.6519" lon="3.47144">
        <ele>230.37</ele>
        <time>2021-08-13T12:57:50Z</time>
      </trkpt>
      <trkpt lat="46.65185" lon="3.47142">
        <ele>230.37</ele>
        <time>2021-08-13T12:57:51Z</time>
      </trkpt>
      <trkpt lat="46.65141" lon="3.47123">
        <ele>230.37</ele>
        <time>2021-08-13T12:58:00Z</time>
      </trkpt>
      <trkpt lat="46.65104" lon="3.47107">
        <ele>230.37</ele>
        <time>2021-08-13T12:58:08Z</time>
      </trkpt>
      <trkpt lat="46.651" lon="3.47105">
        <ele>230.37</ele>
        <time>2021-08-13T12:58:09Z</time>
      </trkpt>
      <trkpt lat="46.65096" lon="3.47102">
        <ele>230.37</ele>
        <time>2021-08-13T12:58:10Z</time>
      </trkpt>
      <trkpt lat="46.65091" lon="3.47101">
        <ele>230.37</ele>
        <time>2021-08-13T12:58:11Z</time>
      </trkpt>
      <trkpt lat="46.65053" lon="3.47085">
        <ele>230.37</ele>
        <time>2021-08-13T12:58:19Z</time>
      </trkpt>
      <trkpt lat="46.65017" lon="3.47069">
        <ele>230.37</ele>
        <time>2021-08-13T12:58:26Z</time>
      </trkpt>
      <trkpt lat="46.65003" lon="3.47062">
        <ele>228.93</ele>
        <time>2021-08-13T12:58:29Z</time>
      </trkpt>
      <trkpt lat="46.64997" lon="3.47059">
        <ele>228.93</ele>
        <time>2021-08-13T12:58:30Z</time>
      </trkpt>
      <trkpt lat="46.64968" lon="3.47049">
        <ele>228.93</ele>
        <time>2021-08-13T12:58:36Z</time>
      </trkpt>
      <trkpt lat="46.64963" lon="3.47046">
        <ele>228.93</ele>
        <time>2021-08-13T12:58:37Z</time>
      </trkpt>
      <trkpt lat="46.64925" lon="3.4703">
        <ele>228.93</ele>
        <time>2021-08-13T12:58:45Z</time>
      </trkpt>
      <trkpt lat="46.64917" lon="3.47027">
        <ele>230.37</ele>
        <time>2021-08-13T12:58:47Z</time>
      </trkpt>
      <trkpt lat="46.64912" lon="3.47026">
        <ele>230.37</ele>
        <time>2021-08-13T12:58:48Z</time>
      </trkpt>
      <trkpt lat="46.64892" lon="3.47016">
        <ele>230.37</ele>
        <time>2021-08-13T12:58:53Z</time>
      </trkpt>
      <trkpt lat="46.64887" lon="3.47013">
        <ele>230.37</ele>
        <time>2021-08-13T12:58:54Z</time>
      </trkpt>
      <trkpt lat="46.64883" lon="3.47009">
        <ele>230.37</ele>
        <time>2021-08-13T12:58:55Z</time>
      </trkpt>
      <trkpt lat="46.64875" lon="3.47">
        <ele>230.37</ele>
        <time>2021-08-13T12:58:57Z</time>
      </trkpt>
      <trkpt lat="46.64868" lon="3.4699">
        <ele>230.37</ele>
        <time>2021-08-13T12:58:59Z</time>
      </trkpt>
      <trkpt lat="46.64852" lon="3.46952">
        <ele>230.37</ele>
        <time>2021-08-13T12:59:05Z</time>
      </trkpt>
      <trkpt lat="46.64846" lon="3.46939">
        <ele>230.37</ele>
        <time>2021-08-13T12:59:07Z</time>
      </trkpt>
      <trkpt lat="46.64824" lon="3.46877">
        <ele>230.37</ele>
        <time>2021-08-13T12:59:16Z</time>
      </trkpt>
      <trkpt lat="46.6481" lon="3.46838">
        <ele>230.85</ele>
        <time>2021-08-13T12:59:22Z</time>
      </trkpt>
      <trkpt lat="46.64808" lon="3.46832">
        <ele>230.85</ele>
        <time>2021-08-13T12:59:23Z</time>
      </trkpt>
      <trkpt lat="46.64786" lon="3.46792">
        <ele>231.81</ele>
        <time>2021-08-13T12:59:31Z</time>
      </trkpt>
      <trkpt lat="46.6476" lon="3.46762">
        <ele>232.3</ele>
        <time>2021-08-13T12:59:40Z</time>
      </trkpt>
      <trkpt lat="46.64753" lon="3.46756">
        <ele>232.78</ele>
        <time>2021-08-13T12:59:42Z</time>
      </trkpt>
      <trkpt lat="46.64731" lon="3.46736">
        <ele>232.78</ele>
        <time>2021-08-13T12:59:48Z</time>
      </trkpt>
      <trkpt lat="46.64728" lon="3.46732">
        <ele>232.78</ele>
        <time>2021-08-13T12:59:49Z</time>
      </trkpt>
      <trkpt lat="46.64725" lon="3.46727">
        <ele>232.78</ele>
        <time>2021-08-13T12:59:50Z</time>
      </trkpt>
      <trkpt lat="46.64722" lon="3.46722">
        <ele>232.78</ele>
        <time>2021-08-13T12:59:51Z</time>
      </trkpt>
      <trkpt lat="46.64718" lon="3.46717">
        <ele>232.78</ele>
        <time>2021-08-13T12:59:52Z</time>
      </trkpt>
      <trkpt lat="46.64715" lon="3.46713">
        <ele>232.78</ele>
        <time>2021-08-13T12:59:53Z</time>
      </trkpt>
      <trkpt lat="46.6469" lon="3.46667">
        <ele>233.26</ele>
        <time>2021-08-13T13:00:02Z</time>
      </trkpt>
      <trkpt lat="46.64667" lon="3.46625">
        <ele>234.22</ele>
        <time>2021-08-13T13:00:11Z</time>
      </trkpt>
      <trkpt lat="46.64651" lon="3.46597">
        <ele>234.7</ele>
        <time>2021-08-13T13:00:18Z</time>
      </trkpt>
      <trkpt lat="46.64643" lon="3.46565">
        <ele>235.18</ele>
        <time>2021-08-13T13:00:25Z</time>
      </trkpt>
      <trkpt lat="46.64638" lon="3.46531">
        <ele>236.14</ele>
        <time>2021-08-13T13:00:32Z</time>
      </trkpt>
      <trkpt lat="46.64637" lon="3.46503">
        <ele>236.14</ele>
        <time>2021-08-13T13:00:38Z</time>
      </trkpt>
      <trkpt lat="46.64635" lon="3.46454">
        <ele>237.1</ele>
        <time>2021-08-13T13:00:47Z</time>
      </trkpt>
      <trkpt lat="46.64634" lon="3.46403">
        <ele>238.06</ele>
        <time>2021-08-13T13:00:56Z</time>
      </trkpt>
      <trkpt lat="46.64633" lon="3.46352">
        <ele>238.06</ele>
        <time>2021-08-13T13:01:05Z</time>
      </trkpt>
      <trkpt lat="46.64632" lon="3.46341">
        <ele>238.54</ele>
        <time>2021-08-13T13:01:07Z</time>
      </trkpt>
      <trkpt lat="46.64622" lon="3.46293">
        <ele>238.54</ele>
        <time>2021-08-13T13:01:15Z</time>
      </trkpt>
      <trkpt lat="46.64621" lon="3.46287">
        <ele>238.54</ele>
        <time>2021-08-13T13:01:16Z</time>
      </trkpt>
      <trkpt lat="46.64618" lon="3.46268">
        <ele>239.02</ele>
        <time>2021-08-13T13:01:19Z</time>
      </trkpt>
      <trkpt lat="46.64617" lon="3.46262">
        <ele>239.02</ele>
        <time>2021-08-13T13:01:20Z</time>
      </trkpt>
      <trkpt lat="46.64617" lon="3.46248">
        <ele>239.51</ele>
        <time>2021-08-13T13:01:22Z</time>
      </trkpt>
      <trkpt lat="46.64618" lon="3.46208">
        <ele>239.51</ele>
        <time>2021-08-13T13:01:28Z</time>
      </trkpt>
      <trkpt lat="46.64619" lon="3.46201">
        <ele>239.51</ele>
        <time>2021-08-13T13:01:29Z</time>
      </trkpt>
      <trkpt lat="46.64629" lon="3.46162">
        <ele>239.99</ele>
        <time>2021-08-13T13:01:35Z</time>
      </trkpt>
      <trkpt lat="46.64631" lon="3.46157">
        <ele>239.99</ele>
        <time>2021-08-13T13:01:36Z</time>
      </trkpt>
      <trkpt lat="46.64633" lon="3.46151">
        <ele>239.99</ele>
        <time>2021-08-13T13:01:37Z</time>
      </trkpt>
      <trkpt lat="46.64636" lon="3.46139">
        <ele>239.99</ele>
        <time>2021-08-13T13:01:39Z</time>
      </trkpt>
      <trkpt lat="46.64639" lon="3.46134">
        <ele>240.47</ele>
        <time>2021-08-13T13:01:40Z</time>
      </trkpt>
      <trkpt lat="46.64663" lon="3.46087">
        <ele>241.43</ele>
        <time>2021-08-13T13:01:49Z</time>
      </trkpt>
      <trkpt lat="46.64683" lon="3.46057">
        <ele>241.91</ele>
        <time>2021-08-13T13:01:56Z</time>
      </trkpt>
      <trkpt lat="46.64686" lon="3.46051">
        <ele>241.91</ele>
        <time>2021-08-13T13:01:57Z</time>
      </trkpt>
      <trkpt lat="46.64702" lon="3.46024">
        <ele>242.39</ele>
        <time>2021-08-13T13:02:03Z</time>
      </trkpt>
      <trkpt lat="46.64727" lon="3.45985">
        <ele>242.39</ele>
        <time>2021-08-13T13:02:11Z</time>
      </trkpt>
      <trkpt lat="46.6476" lon="3.45935">
        <ele>242.87</ele>
        <time>2021-08-13T13:02:21Z</time>
      </trkpt>
      <trkpt lat="46.64776" lon="3.45909">
        <ele>243.35</ele>
        <time>2021-08-13T13:02:26Z</time>
      </trkpt>
      <trkpt lat="46.64807" lon="3.45871">
        <ele>243.83</ele>
        <time>2021-08-13T13:02:35Z</time>
      </trkpt>
      <trkpt lat="46.64838" lon="3.4584">
        <ele>243.83</ele>
        <time>2021-08-13T13:02:43Z</time>
      </trkpt>
      <trkpt lat="46.64884" lon="3.45798">
        <ele>243.83</ele>
        <time>2021-08-13T13:02:54Z</time>
      </trkpt>
      <trkpt lat="46.64913" lon="3.45776">
        <ele>243.83</ele>
        <time>2021-08-13T13:03:01Z</time>
      </trkpt>
      <trkpt lat="46.64922" lon="3.45769">
        <ele>243.83</ele>
        <time>2021-08-13T13:03:03Z</time>
      </trkpt>
      <trkpt lat="46.64955" lon="3.45742">
        <ele>241.91</ele>
        <time>2021-08-13T13:03:10Z</time>
      </trkpt>
      <trkpt lat="46.65007" lon="3.45698">
        <ele>241.43</ele>
        <time>2021-08-13T13:03:20Z</time>
      </trkpt>
      <trkpt lat="46.65041" lon="3.45664">
        <ele>241.43</ele>
        <time>2021-08-13T13:03:27Z</time>
      </trkpt>
      <trkpt lat="46.65046" lon="3.4566">
        <ele>241.43</ele>
        <time>2021-08-13T13:03:28Z</time>
      </trkpt>
      <trkpt lat="46.6507" lon="3.45635">
        <ele>240.47</ele>
        <time>2021-08-13T13:03:33Z</time>
      </trkpt>
      <trkpt lat="46.65075" lon="3.45631">
        <ele>240.47</ele>
        <time>2021-08-13T13:03:34Z</time>
      </trkpt>
      <trkpt lat="46.65109" lon="3.45595">
        <ele>240.47</ele>
        <time>2021-08-13T13:03:41Z</time>
      </trkpt>
      <trkpt lat="46.65137" lon="3.45573">
        <ele>239.51</ele>
        <time>2021-08-13T13:03:46Z</time>
      </trkpt>
      <trkpt lat="46.65193" lon="3.4555">
        <ele>238.06</ele>
        <time>2021-08-13T13:03:55Z</time>
      </trkpt>
      <trkpt lat="46.65213" lon="3.45541">
        <ele>237.58</ele>
        <time>2021-08-13T13:04:00Z</time>
      </trkpt>
      <trkpt lat="46.65216" lon="3.45539">
        <ele>237.58</ele>
        <time>2021-08-13T13:04:05Z</time>
      </trkpt>
      <trkpt lat="46.65218" lon="3.4554">
        <ele>237.1</ele>
        <time>2021-08-13T13:04:12Z</time>
      </trkpt>
      <trkpt lat="46.65217" lon="3.45544">
        <ele>237.1</ele>
        <time>2021-08-13T13:04:28Z</time>
      </trkpt>
      <trkpt lat="46.65216" lon="3.45547">
        <ele>237.1</ele>
        <time>2021-08-13T13:04:44Z</time>
      </trkpt>
      <trkpt lat="46.65219" lon="3.4555">
        <ele>237.1</ele>
        <time>2021-08-13T13:05:09Z</time>
      </trkpt>
      <trkpt lat="46.65216" lon="3.45546">
        <ele>237.1</ele>
        <time>2021-08-13T13:05:34Z</time>
      </trkpt>
      <trkpt lat="46.65216" lon="3.45546">
        <ele>237.1</ele>
        <time>2021-08-13T13:06:02Z</time>
      </trkpt>
      <trkpt lat="46.65214" lon="3.45546">
        <ele>237.1</ele>
        <time>2021-08-13T13:06:22Z</time>
      </trkpt>
      <trkpt lat="46.65215" lon="3.45544">
        <ele>237.1</ele>
        <time>2021-08-13T13:06:46Z</time>
      </trkpt>
      <trkpt lat="46.65215" lon="3.45543">
        <ele>237.1</ele>
        <time>2021-08-13T13:07:15Z</time>
      </trkpt>
      <trkpt lat="46.65215" lon="3.45541">
        <ele>237.1</ele>
        <time>2021-08-13T13:07:42Z</time>
      </trkpt>
      <trkpt lat="46.65218" lon="3.4554">
        <ele>237.1</ele>
        <time>2021-08-13T13:08:08Z</time>
      </trkpt>
      <trkpt lat="46.6522" lon="3.45543">
        <ele>237.1</ele>
        <time>2021-08-13T13:08:31Z</time>
      </trkpt>
      <trkpt lat="46.65219" lon="3.45544">
        <ele>237.1</ele>
        <time>2021-08-13T13:08:49Z</time>
      </trkpt>
      <trkpt lat="46.65217" lon="3.45543">
        <ele>237.58</ele>
        <time>2021-08-13T13:09:06Z</time>
      </trkpt>
      <trkpt lat="46.65216" lon="3.45541">
        <ele>237.58</ele>
        <time>2021-08-13T13:09:29Z</time>
      </trkpt>
      <trkpt lat="46.65216" lon="3.4554">
        <ele>237.58</ele>
        <time>2021-08-13T13:09:53Z</time>
      </trkpt>
      <trkpt lat="46.65215" lon="3.45538">
        <ele>237.58</ele>
        <time>2021-08-13T13:10:16Z</time>
      </trkpt>
      <trkpt lat="46.65218" lon="3.45542">
        <ele>237.58</ele>
        <time>2021-08-13T13:10:42Z</time>
      </trkpt>
      <trkpt lat="46.6522" lon="3.45546">
        <ele>237.58</ele>
        <time>2021-08-13T13:11:05Z</time>
      </trkpt>
      <trkpt lat="46.6522" lon="3.45543">
        <ele>237.58</ele>
        <time>2021-08-13T13:11:32Z</time>
      </trkpt>
      <trkpt lat="46.65218" lon="3.45539">
        <ele>237.58</ele>
        <time>2021-08-13T13:12:01Z</time>
      </trkpt>
      <trkpt lat="46.65217" lon="3.45538">
        <ele>237.58</ele>
        <time>2021-08-13T13:12:23Z</time>
      </trkpt>
      <trkpt lat="46.65216" lon="3.45537">
        <ele>239.02</ele>
        <time>2021-08-13T13:12:42Z</time>
      </trkpt>
      <trkpt lat="46.6522" lon="3.45539">
        <ele>239.51</ele>
        <time>2021-08-13T13:12:50Z</time>
      </trkpt>
      <trkpt lat="46.65221" lon="3.4554">
        <ele>239.51</ele>
        <time>2021-08-13T13:12:54Z</time>
      </trkpt>
      <trkpt lat="46.65223" lon="3.45539">
        <ele>239.51</ele>
        <time>2021-08-13T13:12:55Z</time>
      </trkpt>
      <trkpt lat="46.65225" lon="3.45539">
        <ele>239.51</ele>
        <time>2021-08-13T13:12:56Z</time>
      </trkpt>
      <trkpt lat="46.65227" lon="3.45538">
        <ele>239.51</ele>
        <time>2021-08-13T13:12:57Z</time>
      </trkpt>
      <trkpt lat="46.65229" lon="3.45537">
        <ele>239.51</ele>
        <time>2021-08-13T13:12:58Z</time>
      </trkpt>
      <trkpt lat="46.65233" lon="3.45534">
        <ele>239.51</ele>
        <time>2021-08-13T13:13:00Z</time>
      </trkpt>
      <trkpt lat="46.65234" lon="3.45529">
        <ele>239.51</ele>
        <time>2021-08-13T13:13:01Z</time>
      </trkpt>
      <trkpt lat="46.65233" lon="3.45525">
        <ele>239.51</ele>
        <time>2021-08-13T13:13:02Z</time>
      </trkpt>
      <trkpt lat="46.65232" lon="3.45521">
        <ele>239.51</ele>
        <time>2021-08-13T13:13:03Z</time>
      </trkpt>
      <trkpt lat="46.6523" lon="3.45518">
        <ele>239.51</ele>
        <time>2021-08-13T13:13:04Z</time>
      </trkpt>
      <trkpt lat="46.65228" lon="3.45513">
        <ele>239.51</ele>
        <time>2021-08-13T13:13:05Z</time>
      </trkpt>
      <trkpt lat="46.6521" lon="3.4548">
        <ele>239.51</ele>
        <time>2021-08-13T13:13:13Z</time>
      </trkpt>
      <trkpt lat="46.652" lon="3.45462">
        <ele>239.51</ele>
        <time>2021-08-13T13:13:19Z</time>
      </trkpt>
      <trkpt lat="46.65187" lon="3.45438">
        <ele>239.51</ele>
        <time>2021-08-13T13:13:26Z</time>
      </trkpt>
      <trkpt lat="46.65174" lon="3.45415">
        <ele>238.54</ele>
        <time>2021-08-13T13:13:32Z</time>
      </trkpt>
      <trkpt lat="46.6516" lon="3.45388">
        <ele>238.06</ele>
        <time>2021-08-13T13:13:38Z</time>
      </trkpt>
      <trkpt lat="46.65139" lon="3.45351">
        <ele>238.06</ele>
        <time>2021-08-13T13:13:46Z</time>
      </trkpt>
      <trkpt lat="46.65129" lon="3.45332">
        <ele>238.06</ele>
        <time>2021-08-13T13:13:50Z</time>
      </trkpt>
      <trkpt lat="46.65109" lon="3.45295">
        <ele>237.58</ele>
        <time>2021-08-13T13:13:57Z</time>
      </trkpt>
      <trkpt lat="46.65104" lon="3.45284">
        <ele>237.58</ele>
        <time>2021-08-13T13:13:59Z</time>
      </trkpt>
      <trkpt lat="46.65095" lon="3.45267">
        <ele>236.62</ele>
        <time>2021-08-13T13:14:02Z</time>
      </trkpt>
      <trkpt lat="46.65092" lon="3.45262">
        <ele>236.62</ele>
        <time>2021-08-13T13:14:03Z</time>
      </trkpt>
      <trkpt lat="46.65086" lon="3.45251">
        <ele>236.14</ele>
        <time>2021-08-13T13:14:05Z</time>
      </trkpt>
      <trkpt lat="46.65061" lon="3.45207">
        <ele>235.66</ele>
        <time>2021-08-13T13:14:14Z</time>
      </trkpt>
      <trkpt lat="46.6505" lon="3.45185">
        <ele>235.66</ele>
        <time>2021-08-13T13:14:18Z</time>
      </trkpt>
      <trkpt lat="46.65049" lon="3.45179">
        <ele>235.66</ele>
        <time>2021-08-13T13:14:19Z</time>
      </trkpt>
      <trkpt lat="46.6505" lon="3.45173">
        <ele>235.66</ele>
        <time>2021-08-13T13:14:20Z</time>
      </trkpt>
      <trkpt lat="46.65051" lon="3.45166">
        <ele>235.66</ele>
        <time>2021-08-13T13:14:21Z</time>
      </trkpt>
      <trkpt lat="46.65052" lon="3.4516">
        <ele>235.66</ele>
        <time>2021-08-13T13:14:22Z</time>
      </trkpt>
      <trkpt lat="46.65062" lon="3.45118">
        <ele>235.66</ele>
        <time>2021-08-13T13:14:29Z</time>
      </trkpt>
      <trkpt lat="46.65076" lon="3.45068">
        <ele>235.66</ele>
        <time>2021-08-13T13:14:37Z</time>
      </trkpt>
      <trkpt lat="46.65089" lon="3.45025">
        <ele>235.66</ele>
        <time>2021-08-13T13:14:45Z</time>
      </trkpt>
      <trkpt lat="46.651" lon="3.44993">
        <ele>237.1</ele>
        <time>2021-08-13T13:14:52Z</time>
      </trkpt>
      <trkpt lat="46.65102" lon="3.44988">
        <ele>237.1</ele>
        <time>2021-08-13T13:14:53Z</time>
      </trkpt>
      <trkpt lat="46.6511" lon="3.4496">
        <ele>238.06</ele>
        <time>2021-08-13T13:15:00Z</time>
      </trkpt>
      <trkpt lat="46.65119" lon="3.44926">
        <ele>239.02</ele>
        <time>2021-08-13T13:15:08Z</time>
      </trkpt>
      <trkpt lat="46.6513" lon="3.44879">
        <ele>239.02</ele>
        <time>2021-08-13T13:15:18Z</time>
      </trkpt>
      <trkpt lat="46.65139" lon="3.44837">
        <ele>239.99</ele>
        <time>2021-08-13T13:15:26Z</time>
      </trkpt>
      <trkpt lat="46.65149" lon="3.44778">
        <ele>241.43</ele>
        <time>2021-08-13T13:15:37Z</time>
      </trkpt>
      <trkpt lat="46.65153" lon="3.44721">
        <ele>241.91</ele>
        <time>2021-08-13T13:15:47Z</time>
      </trkpt>
      <trkpt lat="46.6515" lon="3.44698">
        <ele>241.91</ele>
        <time>2021-08-13T13:15:51Z</time>
      </trkpt>
      <trkpt lat="46.65147" lon="3.44687">
        <ele>241.91</ele>
        <time>2021-08-13T13:15:53Z</time>
      </trkpt>
      <trkpt lat="46.65132" lon="3.4465">
        <ele>242.87</ele>
        <time>2021-08-13T13:16:00Z</time>
      </trkpt>
      <trkpt lat="46.65108" lon="3.44604">
        <ele>242.39</ele>
        <time>2021-08-13T13:16:08Z</time>
      </trkpt>
      <trkpt lat="46.65083" lon="3.44552">
        <ele>242.87</ele>
        <time>2021-08-13T13:16:17Z</time>
      </trkpt>
      <trkpt lat="46.65075" lon="3.44534">
        <ele>242.87</ele>
        <time>2021-08-13T13:16:20Z</time>
      </trkpt>
      <trkpt lat="46.65073" lon="3.44529">
        <ele>242.87</ele>
        <time>2021-08-13T13:16:21Z</time>
      </trkpt>
      <trkpt lat="46.6507" lon="3.44524">
        <ele>242.87</ele>
        <time>2021-08-13T13:16:22Z</time>
      </trkpt>
      <trkpt lat="46.65035" lon="3.44452">
        <ele>243.35</ele>
        <time>2021-08-13T13:16:35Z</time>
      </trkpt>
      <trkpt lat="46.65005" lon="3.44386">
        <ele>243.35</ele>
        <time>2021-08-13T13:16:46Z</time>
      </trkpt>
      <trkpt lat="46.6498" lon="3.44334">
        <ele>243.83</ele>
        <time>2021-08-13T13:16:55Z</time>
      </trkpt>
      <trkpt lat="46.64956" lon="3.44283">
        <ele>245.27</ele>
        <time>2021-08-13T13:17:05Z</time>
      </trkpt>
      <trkpt lat="46.64951" lon="3.44273">
        <ele>245.75</ele>
        <time>2021-08-13T13:17:07Z</time>
      </trkpt>
      <trkpt lat="46.64946" lon="3.44261">
        <ele>245.75</ele>
        <time>2021-08-13T13:17:09Z</time>
      </trkpt>
      <trkpt lat="46.64925" lon="3.44219">
        <ele>246.23</ele>
        <time>2021-08-13T13:17:17Z</time>
      </trkpt>
      <trkpt lat="46.64903" lon="3.44172">
        <ele>246.23</ele>
        <time>2021-08-13T13:17:25Z</time>
      </trkpt>
      <trkpt lat="46.64873" lon="3.4411">
        <ele>246.23</ele>
        <time>2021-08-13T13:17:35Z</time>
      </trkpt>
      <trkpt lat="46.64844" lon="3.4405">
        <ele>246.72</ele>
        <time>2021-08-13T13:17:46Z</time>
      </trkpt>
      <trkpt lat="46.64819" lon="3.43997">
        <ele>246.72</ele>
        <time>2021-08-13T13:17:55Z</time>
      </trkpt>
      <trkpt lat="46.64796" lon="3.43946">
        <ele>247.2</ele>
        <time>2021-08-13T13:18:04Z</time>
      </trkpt>
      <trkpt lat="46.64783" lon="3.43921">
        <ele>247.68</ele>
        <time>2021-08-13T13:18:09Z</time>
      </trkpt>
      <trkpt lat="46.64756" lon="3.4386">
        <ele>248.64</ele>
        <time>2021-08-13T13:18:21Z</time>
      </trkpt>
      <trkpt lat="46.64754" lon="3.43856">
        <ele>248.64</ele>
        <time>2021-08-13T13:18:22Z</time>
      </trkpt>
      <trkpt lat="46.64752" lon="3.43851">
        <ele>249.12</ele>
        <time>2021-08-13T13:18:23Z</time>
      </trkpt>
      <trkpt lat="46.64749" lon="3.43846">
        <ele>249.12</ele>
        <time>2021-08-13T13:18:24Z</time>
      </trkpt>
      <trkpt lat="46.64747" lon="3.43842">
        <ele>249.12</ele>
        <time>2021-08-13T13:18:25Z</time>
      </trkpt>
      <trkpt lat="46.64744" lon="3.43836">
        <ele>249.12</ele>
        <time>2021-08-13T13:18:26Z</time>
      </trkpt>
      <trkpt lat="46.64732" lon="3.4381">
        <ele>250.08</ele>
        <time>2021-08-13T13:18:32Z</time>
      </trkpt>
      <trkpt lat="46.64711" lon="3.43767">
        <ele>251.04</ele>
        <time>2021-08-13T13:18:43Z</time>
      </trkpt>
      <trkpt lat="46.64686" lon="3.43715">
        <ele>252</ele>
        <time>2021-08-13T13:18:55Z</time>
      </trkpt>
      <trkpt lat="46.6466" lon="3.43662">
        <ele>253.44</ele>
        <time>2021-08-13T13:19:08Z</time>
      </trkpt>
      <trkpt lat="46.64641" lon="3.4362">
        <ele>254.41</ele>
        <time>2021-08-13T13:19:18Z</time>
      </trkpt>
      <trkpt lat="46.64624" lon="3.43584">
        <ele>255.37</ele>
        <time>2021-08-13T13:19:27Z</time>
      </trkpt>
      <trkpt lat="46.64607" lon="3.43547">
        <ele>256.33</ele>
        <time>2021-08-13T13:19:36Z</time>
      </trkpt>
      <trkpt lat="46.64589" lon="3.4351">
        <ele>257.29</ele>
        <time>2021-08-13T13:19:45Z</time>
      </trkpt>
      <trkpt lat="46.64572" lon="3.43476">
        <ele>258.25</ele>
        <time>2021-08-13T13:19:53Z</time>
      </trkpt>
      <trkpt lat="46.64558" lon="3.43447">
        <ele>258.73</ele>
        <time>2021-08-13T13:20:00Z</time>
      </trkpt>
      <trkpt lat="46.64546" lon="3.43421">
        <ele>259.69</ele>
        <time>2021-08-13T13:20:07Z</time>
      </trkpt>
      <trkpt lat="46.64533" lon="3.43393">
        <ele>260.17</ele>
        <time>2021-08-13T13:20:15Z</time>
      </trkpt>
      <trkpt lat="46.64514" lon="3.43353">
        <ele>260.17</ele>
        <time>2021-08-13T13:20:24Z</time>
      </trkpt>
      <trkpt lat="46.6449" lon="3.43303">
        <ele>260.65</ele>
        <time>2021-08-13T13:20:34Z</time>
      </trkpt>
      <trkpt lat="46.64466" lon="3.43253">
        <ele>260.65</ele>
        <time>2021-08-13T13:20:43Z</time>
      </trkpt>
      <trkpt lat="46.64441" lon="3.43202">
        <ele>261.14</ele>
        <time>2021-08-13T13:20:52Z</time>
      </trkpt>
      <trkpt lat="46.64439" lon="3.43197">
        <ele>261.14</ele>
        <time>2021-08-13T13:20:53Z</time>
      </trkpt>
      <trkpt lat="46.64436" lon="3.43191">
        <ele>261.14</ele>
        <time>2021-08-13T13:20:54Z</time>
      </trkpt>
      <trkpt lat="46.64422" lon="3.43164">
        <ele>261.14</ele>
        <time>2021-08-13T13:20:59Z</time>
      </trkpt>
      <trkpt lat="46.64404" lon="3.43124">
        <ele>261.62</ele>
        <time>2021-08-13T13:21:06Z</time>
      </trkpt>
      <trkpt lat="46.64386" lon="3.43089">
        <ele>261.62</ele>
        <time>2021-08-13T13:21:13Z</time>
      </trkpt>
      <trkpt lat="46.64371" lon="3.43074">
        <ele>261.62</ele>
        <time>2021-08-13T13:21:17Z</time>
      </trkpt>
      <trkpt lat="46.64335" lon="3.43052">
        <ele>261.62</ele>
        <time>2021-08-13T13:21:25Z</time>
      </trkpt>
      <trkpt lat="46.64306" lon="3.43034">
        <ele>261.62</ele>
        <time>2021-08-13T13:21:32Z</time>
      </trkpt>
      <trkpt lat="46.6428" lon="3.43018">
        <ele>261.62</ele>
        <time>2021-08-13T13:21:39Z</time>
      </trkpt>
      <trkpt lat="46.64251" lon="3.43001">
        <ele>261.62</ele>
        <time>2021-08-13T13:21:46Z</time>
      </trkpt>
      <trkpt lat="46.64228" lon="3.42982">
        <ele>261.62</ele>
        <time>2021-08-13T13:21:52Z</time>
      </trkpt>
      <trkpt lat="46.64217" lon="3.42971">
        <ele>261.62</ele>
        <time>2021-08-13T13:21:55Z</time>
      </trkpt>
      <trkpt lat="46.64214" lon="3.42966">
        <ele>261.62</ele>
        <time>2021-08-13T13:21:56Z</time>
      </trkpt>
      <trkpt lat="46.64211" lon="3.42961">
        <ele>261.62</ele>
        <time>2021-08-13T13:21:57Z</time>
      </trkpt>
      <trkpt lat="46.64208" lon="3.42956">
        <ele>261.62</ele>
        <time>2021-08-13T13:21:58Z</time>
      </trkpt>
      <trkpt lat="46.64205" lon="3.42952">
        <ele>261.62</ele>
        <time>2021-08-13T13:21:59Z</time>
      </trkpt>
      <trkpt lat="46.64185" lon="3.42919">
        <ele>261.62</ele>
        <time>2021-08-13T13:22:06Z</time>
      </trkpt>
      <trkpt lat="46.64162" lon="3.42882">
        <ele>260.65</ele>
        <time>2021-08-13T13:22:13Z</time>
      </trkpt>
      <trkpt lat="46.64147" lon="3.42856">
        <ele>260.17</ele>
        <time>2021-08-13T13:22:18Z</time>
      </trkpt>
      <trkpt lat="46.64145" lon="3.42849">
        <ele>260.17</ele>
        <time>2021-08-13T13:22:19Z</time>
      </trkpt>
      <trkpt lat="46.64137" lon="3.42829">
        <ele>260.17</ele>
        <time>2021-08-13T13:22:22Z</time>
      </trkpt>
      <trkpt lat="46.64125" lon="3.42776">
        <ele>259.21</ele>
        <time>2021-08-13T13:22:29Z</time>
      </trkpt>
      <trkpt lat="46.64111" lon="3.42726">
        <ele>258.73</ele>
        <time>2021-08-13T13:22:35Z</time>
      </trkpt>
      <trkpt lat="46.64097" lon="3.42684">
        <ele>258.73</ele>
        <time>2021-08-13T13:22:40Z</time>
      </trkpt>
      <trkpt lat="46.64093" lon="3.42676">
        <ele>258.73</ele>
        <time>2021-08-13T13:22:41Z</time>
      </trkpt>
      <trkpt lat="46.64089" lon="3.4267">
        <ele>258.25</ele>
        <time>2021-08-13T13:22:42Z</time>
      </trkpt>
      <trkpt lat="46.64085" lon="3.42663">
        <ele>258.25</ele>
        <time>2021-08-13T13:22:43Z</time>
      </trkpt>
      <trkpt lat="46.6408" lon="3.42657">
        <ele>258.25</ele>
        <time>2021-08-13T13:22:44Z</time>
      </trkpt>
      <trkpt lat="46.6404" lon="3.42613">
        <ele>258.73</ele>
        <time>2021-08-13T13:22:52Z</time>
      </trkpt>
      <trkpt lat="46.64035" lon="3.42607">
        <ele>258.25</ele>
        <time>2021-08-13T13:22:53Z</time>
      </trkpt>
      <trkpt lat="46.63984" lon="3.42557">
        <ele>258.25</ele>
        <time>2021-08-13T13:23:03Z</time>
      </trkpt>
      <trkpt lat="46.63951" lon="3.42524">
        <ele>258.25</ele>
        <time>2021-08-13T13:23:10Z</time>
      </trkpt>
      <trkpt lat="46.63919" lon="3.42493">
        <ele>258.25</ele>
        <time>2021-08-13T13:23:17Z</time>
      </trkpt>
      <trkpt lat="46.63915" lon="3.42489">
        <ele>258.25</ele>
        <time>2021-08-13T13:23:18Z</time>
      </trkpt>
      <trkpt lat="46.6391" lon="3.42484">
        <ele>258.25</ele>
        <time>2021-08-13T13:23:19Z</time>
      </trkpt>
      <trkpt lat="46.63906" lon="3.4248">
        <ele>258.25</ele>
        <time>2021-08-13T13:23:20Z</time>
      </trkpt>
      <trkpt lat="46.63902" lon="3.42477">
        <ele>258.25</ele>
        <time>2021-08-13T13:23:21Z</time>
      </trkpt>
      <trkpt lat="46.63898" lon="3.42473">
        <ele>258.25</ele>
        <time>2021-08-13T13:23:22Z</time>
      </trkpt>
      <trkpt lat="46.6387" lon="3.42447">
        <ele>258.25</ele>
        <time>2021-08-13T13:23:29Z</time>
      </trkpt>
      <trkpt lat="46.63857" lon="3.42434">
        <ele>259.69</ele>
        <time>2021-08-13T13:23:32Z</time>
      </trkpt>
      <trkpt lat="46.63826" lon="3.4239">
        <ele>259.69</ele>
        <time>2021-08-13T13:23:40Z</time>
      </trkpt>
      <trkpt lat="46.63808" lon="3.42357">
        <ele>259.69</ele>
        <time>2021-08-13T13:23:46Z</time>
      </trkpt>
      <trkpt lat="46.63804" lon="3.42352">
        <ele>259.69</ele>
        <time>2021-08-13T13:23:47Z</time>
      </trkpt>
      <trkpt lat="46.63787" lon="3.42327">
        <ele>260.17</ele>
        <time>2021-08-13T13:23:52Z</time>
      </trkpt>
      <trkpt lat="46.63784" lon="3.42321">
        <ele>260.17</ele>
        <time>2021-08-13T13:23:53Z</time>
      </trkpt>
      <trkpt lat="46.6378" lon="3.42308">
        <ele>260.17</ele>
        <time>2021-08-13T13:23:55Z</time>
      </trkpt>
      <trkpt lat="46.63766" lon="3.4225">
        <ele>260.17</ele>
        <time>2021-08-13T13:24:03Z</time>
      </trkpt>
      <trkpt lat="46.63748" lon="3.42167">
        <ele>260.65</ele>
        <time>2021-08-13T13:24:14Z</time>
      </trkpt>
      <trkpt lat="46.63736" lon="3.42112">
        <ele>260.65</ele>
        <time>2021-08-13T13:24:22Z</time>
      </trkpt>
      <trkpt lat="46.6373" lon="3.42084">
        <ele>260.65</ele>
        <time>2021-08-13T13:24:26Z</time>
      </trkpt>
      <trkpt lat="46.63721" lon="3.42049">
        <ele>260.65</ele>
        <time>2021-08-13T13:24:31Z</time>
      </trkpt>
      <trkpt lat="46.6372" lon="3.42042">
        <ele>260.65</ele>
        <time>2021-08-13T13:24:32Z</time>
      </trkpt>
      <trkpt lat="46.63718" lon="3.42035">
        <ele>260.65</ele>
        <time>2021-08-13T13:24:33Z</time>
      </trkpt>
      <trkpt lat="46.63699" lon="3.41976">
        <ele>261.14</ele>
        <time>2021-08-13T13:24:42Z</time>
      </trkpt>
      <trkpt lat="46.63671" lon="3.41916">
        <ele>261.62</ele>
        <time>2021-08-13T13:24:52Z</time>
      </trkpt>
      <trkpt lat="46.63646" lon="3.4186">
        <ele>260.65</ele>
        <time>2021-08-13T13:25:01Z</time>
      </trkpt>
      <trkpt lat="46.63642" lon="3.41853">
        <ele>260.17</ele>
        <time>2021-08-13T13:25:02Z</time>
      </trkpt>
      <trkpt lat="46.63639" lon="3.41845">
        <ele>260.17</ele>
        <time>2021-08-13T13:25:03Z</time>
      </trkpt>
      <trkpt lat="46.63634" lon="3.41827">
        <ele>259.21</ele>
        <time>2021-08-13T13:25:05Z</time>
      </trkpt>
      <trkpt lat="46.6363" lon="3.41817">
        <ele>258.25</ele>
        <time>2021-08-13T13:25:06Z</time>
      </trkpt>
      <trkpt lat="46.63618" lon="3.41792">
        <ele>256.33</ele>
        <time>2021-08-13T13:25:09Z</time>
      </trkpt>
      <trkpt lat="46.63612" lon="3.41783">
        <ele>256.33</ele>
        <time>2021-08-13T13:25:10Z</time>
      </trkpt>
      <trkpt lat="46.63596" lon="3.41758">
        <ele>254.89</ele>
        <time>2021-08-13T13:25:13Z</time>
      </trkpt>
      <trkpt lat="46.63579" lon="3.41727">
        <ele>253.93</ele>
        <time>2021-08-13T13:25:17Z</time>
      </trkpt>
      <trkpt lat="46.63578" lon="3.41717">
        <ele>252.96</ele>
        <time>2021-08-13T13:25:18Z</time>
      </trkpt>
      <trkpt lat="46.63579" lon="3.41708">
        <ele>252.96</ele>
        <time>2021-08-13T13:25:19Z</time>
      </trkpt>
      <trkpt lat="46.63581" lon="3.41699">
        <ele>252.96</ele>
        <time>2021-08-13T13:25:20Z</time>
      </trkpt>
      <trkpt lat="46.63584" lon="3.4169">
        <ele>252.48</ele>
        <time>2021-08-13T13:25:21Z</time>
      </trkpt>
      <trkpt lat="46.63609" lon="3.41622">
        <ele>250.08</ele>
        <time>2021-08-13T13:25:28Z</time>
      </trkpt>
      <trkpt lat="46.63631" lon="3.41536">
        <ele>248.16</ele>
        <time>2021-08-13T13:25:36Z</time>
      </trkpt>
      <trkpt lat="46.63635" lon="3.41526">
        <ele>248.16</ele>
        <time>2021-08-13T13:25:37Z</time>
      </trkpt>
      <trkpt lat="46.6364" lon="3.41517">
        <ele>247.68</ele>
        <time>2021-08-13T13:25:38Z</time>
      </trkpt>
      <trkpt lat="46.63657" lon="3.41493">
        <ele>247.68</ele>
        <time>2021-08-13T13:25:41Z</time>
      </trkpt>
      <trkpt lat="46.63661" lon="3.41484">
        <ele>247.68</ele>
        <time>2021-08-13T13:25:42Z</time>
      </trkpt>
      <trkpt lat="46.63664" lon="3.41475">
        <ele>247.68</ele>
        <time>2021-08-13T13:25:43Z</time>
      </trkpt>
      <trkpt lat="46.63666" lon="3.41464">
        <ele>247.68</ele>
        <time>2021-08-13T13:25:44Z</time>
      </trkpt>
      <trkpt lat="46.63667" lon="3.41454">
        <ele>247.68</ele>
        <time>2021-08-13T13:25:45Z</time>
      </trkpt>
      <trkpt lat="46.63666" lon="3.41444">
        <ele>247.68</ele>
        <time>2021-08-13T13:25:46Z</time>
      </trkpt>
      <trkpt lat="46.63665" lon="3.41433">
        <ele>247.68</ele>
        <time>2021-08-13T13:25:47Z</time>
      </trkpt>
      <trkpt lat="46.63664" lon="3.41424">
        <ele>247.68</ele>
        <time>2021-08-13T13:25:48Z</time>
      </trkpt>
      <trkpt lat="46.63657" lon="3.41368">
        <ele>250.08</ele>
        <time>2021-08-13T13:25:55Z</time>
      </trkpt>
      <trkpt lat="46.63656" lon="3.41354">
        <ele>251.04</ele>
        <time>2021-08-13T13:25:57Z</time>
      </trkpt>
      <trkpt lat="46.63656" lon="3.41348">
        <ele>251.04</ele>
        <time>2021-08-13T13:25:58Z</time>
      </trkpt>
      <trkpt lat="46.63656" lon="3.41336">
        <ele>251.52</ele>
        <time>2021-08-13T13:26:00Z</time>
      </trkpt>
      <trkpt lat="46.63656" lon="3.4133">
        <ele>252</ele>
        <time>2021-08-13T13:26:01Z</time>
      </trkpt>
      <trkpt lat="46.63661" lon="3.41289">
        <ele>252.96</ele>
        <time>2021-08-13T13:26:08Z</time>
      </trkpt>
      <trkpt lat="46.63661" lon="3.41283">
        <ele>252.96</ele>
        <time>2021-08-13T13:26:09Z</time>
      </trkpt>
      <trkpt lat="46.63662" lon="3.41277">
        <ele>252.96</ele>
        <time>2021-08-13T13:26:10Z</time>
      </trkpt>
      <trkpt lat="46.6367" lon="3.41219">
        <ele>254.41</ele>
        <time>2021-08-13T13:26:20Z</time>
      </trkpt>
      <trkpt lat="46.63671" lon="3.41213">
        <ele>254.41</ele>
        <time>2021-08-13T13:26:21Z</time>
      </trkpt>
      <trkpt lat="46.63672" lon="3.41207">
        <ele>254.41</ele>
        <time>2021-08-13T13:26:22Z</time>
      </trkpt>
      <trkpt lat="46.63672" lon="3.41201">
        <ele>254.41</ele>
        <time>2021-08-13T13:26:23Z</time>
      </trkpt>
      <trkpt lat="46.63673" lon="3.41195">
        <ele>254.41</ele>
        <time>2021-08-13T13:26:24Z</time>
      </trkpt>
      <trkpt lat="46.63673" lon="3.41189">
        <ele>254.41</ele>
        <time>2021-08-13T13:26:25Z</time>
      </trkpt>
      <trkpt lat="46.63681" lon="3.41129">
        <ele>254.41</ele>
        <time>2021-08-13T13:26:34Z</time>
      </trkpt>
      <trkpt lat="46.63682" lon="3.41122">
        <ele>254.41</ele>
        <time>2021-08-13T13:26:35Z</time>
      </trkpt>
      <trkpt lat="46.63683" lon="3.41114">
        <ele>254.41</ele>
        <time>2021-08-13T13:26:36Z</time>
      </trkpt>
      <trkpt lat="46.63685" lon="3.41098">
        <ele>252.96</ele>
        <time>2021-08-13T13:26:38Z</time>
      </trkpt>
      <trkpt lat="46.63692" lon="3.41059">
        <ele>252</ele>
        <time>2021-08-13T13:26:43Z</time>
      </trkpt>
      <trkpt lat="46.63693" lon="3.41052">
        <ele>251.52</ele>
        <time>2021-08-13T13:26:44Z</time>
      </trkpt>
      <trkpt lat="46.637" lon="3.41021">
        <ele>251.04</ele>
        <time>2021-08-13T13:26:50Z</time>
      </trkpt>
      <trkpt lat="46.63704" lon="3.41016">
        <ele>250.56</ele>
        <time>2021-08-13T13:26:52Z</time>
      </trkpt>
      <trkpt lat="46.63707" lon="3.41015">
        <ele>250.08</ele>
        <time>2021-08-13T13:26:53Z</time>
      </trkpt>
      <trkpt lat="46.63713" lon="3.41013">
        <ele>250.08</ele>
        <time>2021-08-13T13:26:55Z</time>
      </trkpt>
      <trkpt lat="46.63717" lon="3.41012">
        <ele>250.08</ele>
        <time>2021-08-13T13:26:56Z</time>
      </trkpt>
      <trkpt lat="46.63722" lon="3.41011">
        <ele>250.08</ele>
        <time>2021-08-13T13:26:57Z</time>
      </trkpt>
      <trkpt lat="46.63758" lon="3.41003">
        <ele>249.12</ele>
        <time>2021-08-13T13:27:04Z</time>
      </trkpt>
      <trkpt lat="46.63799" lon="3.40994">
        <ele>248.64</ele>
        <time>2021-08-13T13:27:11Z</time>
      </trkpt>
      <trkpt lat="46.6385" lon="3.40987">
        <ele>246.72</ele>
        <time>2021-08-13T13:27:19Z</time>
      </trkpt>
      <trkpt lat="46.63856" lon="3.40985">
        <ele>246.72</ele>
        <time>2021-08-13T13:27:20Z</time>
      </trkpt>
      <trkpt lat="46.63862" lon="3.40982">
        <ele>246.72</ele>
        <time>2021-08-13T13:27:21Z</time>
      </trkpt>
      <trkpt lat="46.63867" lon="3.40977">
        <ele>246.72</ele>
        <time>2021-08-13T13:27:22Z</time>
      </trkpt>
      <trkpt lat="46.63872" lon="3.40971">
        <ele>246.72</ele>
        <time>2021-08-13T13:27:23Z</time>
      </trkpt>
      <trkpt lat="46.63877" lon="3.40965">
        <ele>246.23</ele>
        <time>2021-08-13T13:27:24Z</time>
      </trkpt>
      <trkpt lat="46.6388" lon="3.40958">
        <ele>246.23</ele>
        <time>2021-08-13T13:27:25Z</time>
      </trkpt>
      <trkpt lat="46.63884" lon="3.40949">
        <ele>245.75</ele>
        <time>2021-08-13T13:27:26Z</time>
      </trkpt>
      <trkpt lat="46.63888" lon="3.4094">
        <ele>245.27</ele>
        <time>2021-08-13T13:27:27Z</time>
      </trkpt>
      <trkpt lat="46.63891" lon="3.40932">
        <ele>245.27</ele>
        <time>2021-08-13T13:27:28Z</time>
      </trkpt>
      <trkpt lat="46.63912" lon="3.40858">
        <ele>242.39</ele>
        <time>2021-08-13T13:27:35Z</time>
      </trkpt>
      <trkpt lat="46.63938" lon="3.40772">
        <ele>240.47</ele>
        <time>2021-08-13T13:27:43Z</time>
      </trkpt>
      <trkpt lat="46.63973" lon="3.40714">
        <ele>238.54</ele>
        <time>2021-08-13T13:27:49Z</time>
      </trkpt>
      <trkpt lat="46.64032" lon="3.40643">
        <ele>237.58</ele>
        <time>2021-08-13T13:27:58Z</time>
      </trkpt>
      <trkpt lat="46.64048" lon="3.40629">
        <ele>237.58</ele>
        <time>2021-08-13T13:28:01Z</time>
      </trkpt>
      <trkpt lat="46.64057" lon="3.40624">
        <ele>237.58</ele>
        <time>2021-08-13T13:28:02Z</time>
      </trkpt>
      <trkpt lat="46.64067" lon="3.4062">
        <ele>239.02</ele>
        <time>2021-08-13T13:28:04Z</time>
      </trkpt>
      <trkpt lat="46.64112" lon="3.40601">
        <ele>239.02</ele>
        <time>2021-08-13T13:28:12Z</time>
      </trkpt>
      <trkpt lat="46.6413" lon="3.40591">
        <ele>239.51</ele>
        <time>2021-08-13T13:28:15Z</time>
      </trkpt>
      <trkpt lat="46.64136" lon="3.40585">
        <ele>239.99</ele>
        <time>2021-08-13T13:28:16Z</time>
      </trkpt>
      <trkpt lat="46.64171" lon="3.40555">
        <ele>241.43</ele>
        <time>2021-08-13T13:28:23Z</time>
      </trkpt>
      <trkpt lat="46.64175" lon="3.40551">
        <ele>241.43</ele>
        <time>2021-08-13T13:28:24Z</time>
      </trkpt>
      <trkpt lat="46.64215" lon="3.4051">
        <ele>243.35</ele>
        <time>2021-08-13T13:28:35Z</time>
      </trkpt>
      <trkpt lat="46.64221" lon="3.40504">
        <ele>243.83</ele>
        <time>2021-08-13T13:28:37Z</time>
      </trkpt>
      <trkpt lat="46.64257" lon="3.40471">
        <ele>244.31</ele>
        <time>2021-08-13T13:28:47Z</time>
      </trkpt>
      <trkpt lat="46.64295" lon="3.40436">
        <ele>244.79</ele>
        <time>2021-08-13T13:28:57Z</time>
      </trkpt>
      <trkpt lat="46.64337" lon="3.404">
        <ele>245.27</ele>
        <time>2021-08-13T13:29:07Z</time>
      </trkpt>
      <trkpt lat="46.64372" lon="3.40369">
        <ele>245.27</ele>
        <time>2021-08-13T13:29:15Z</time>
      </trkpt>
      <trkpt lat="46.64414" lon="3.40333">
        <ele>245.27</ele>
        <time>2021-08-13T13:29:24Z</time>
      </trkpt>
      <trkpt lat="46.64456" lon="3.40298">
        <ele>245.27</ele>
        <time>2021-08-13T13:29:32Z</time>
      </trkpt>
      <trkpt lat="46.64486" lon="3.40267">
        <ele>245.27</ele>
        <time>2021-08-13T13:29:38Z</time>
      </trkpt>
      <trkpt lat="46.64523" lon="3.40205">
        <ele>245.27</ele>
        <time>2021-08-13T13:29:47Z</time>
      </trkpt>
      <trkpt lat="46.64553" lon="3.40151">
        <ele>245.27</ele>
        <time>2021-08-13T13:29:55Z</time>
      </trkpt>
      <trkpt lat="46.64587" lon="3.40092">
        <ele>246.23</ele>
        <time>2021-08-13T13:30:04Z</time>
      </trkpt>
      <trkpt lat="46.64621" lon="3.40035">
        <ele>247.68</ele>
        <time>2021-08-13T13:30:13Z</time>
      </trkpt>
      <trkpt lat="46.64656" lon="3.39975">
        <ele>248.64</ele>
        <time>2021-08-13T13:30:23Z</time>
      </trkpt>
      <trkpt lat="46.64685" lon="3.3993">
        <ele>249.12</ele>
        <time>2021-08-13T13:30:31Z</time>
      </trkpt>
      <trkpt lat="46.64717" lon="3.39882">
        <ele>249.6</ele>
        <time>2021-08-13T13:30:40Z</time>
      </trkpt>
      <trkpt lat="46.64755" lon="3.39823">
        <ele>251.04</ele>
        <time>2021-08-13T13:30:51Z</time>
      </trkpt>
      <trkpt lat="46.64762" lon="3.39812">
        <ele>251.52</ele>
        <time>2021-08-13T13:30:53Z</time>
      </trkpt>
      <trkpt lat="46.64766" lon="3.39807">
        <ele>251.52</ele>
        <time>2021-08-13T13:30:54Z</time>
      </trkpt>
      <trkpt lat="46.64803" lon="3.39754">
        <ele>252</ele>
        <time>2021-08-13T13:31:04Z</time>
      </trkpt>
      <trkpt lat="46.64818" lon="3.39732">
        <ele>252</ele>
        <time>2021-08-13T13:31:08Z</time>
      </trkpt>
      <trkpt lat="46.64825" lon="3.39722">
        <ele>252.48</ele>
        <time>2021-08-13T13:31:10Z</time>
      </trkpt>
      <trkpt lat="46.64828" lon="3.39718">
        <ele>252.48</ele>
        <time>2021-08-13T13:31:11Z</time>
      </trkpt>
      <trkpt lat="46.64847" lon="3.39678">
        <ele>253.44</ele>
        <time>2021-08-13T13:31:18Z</time>
      </trkpt>
      <trkpt lat="46.64867" lon="3.39634">
        <ele>252.96</ele>
        <time>2021-08-13T13:31:25Z</time>
      </trkpt>
      <trkpt lat="46.64891" lon="3.39583">
        <ele>251.52</ele>
        <time>2021-08-13T13:31:32Z</time>
      </trkpt>
      <trkpt lat="46.64929" lon="3.39505">
        <ele>250.56</ele>
        <time>2021-08-13T13:31:42Z</time>
      </trkpt>
      <trkpt lat="46.64966" lon="3.39426">
        <ele>249.6</ele>
        <time>2021-08-13T13:31:51Z</time>
      </trkpt>
      <trkpt lat="46.65008" lon="3.39339">
        <ele>246.72</ele>
        <time>2021-08-13T13:32:00Z</time>
      </trkpt>
      <trkpt lat="46.65063" lon="3.39222">
        <ele>244.31</ele>
        <time>2021-08-13T13:32:11Z</time>
      </trkpt>
      <trkpt lat="46.65116" lon="3.3911">
        <ele>241.43</ele>
        <time>2021-08-13T13:32:22Z</time>
      </trkpt>
      <trkpt lat="46.65159" lon="3.39023">
        <ele>241.43</ele>
        <time>2021-08-13T13:32:31Z</time>
      </trkpt>
      <trkpt lat="46.65171" lon="3.38997">
        <ele>243.35</ele>
        <time>2021-08-13T13:32:34Z</time>
      </trkpt>
      <trkpt lat="46.65185" lon="3.38966">
        <ele>243.83</ele>
        <time>2021-08-13T13:32:38Z</time>
      </trkpt>
      <trkpt lat="46.65187" lon="3.38959">
        <ele>244.31</ele>
        <time>2021-08-13T13:32:39Z</time>
      </trkpt>
      <trkpt lat="46.65191" lon="3.38952">
        <ele>244.31</ele>
        <time>2021-08-13T13:32:40Z</time>
      </trkpt>
      <trkpt lat="46.65197" lon="3.3894">
        <ele>244.31</ele>
        <time>2021-08-13T13:32:42Z</time>
      </trkpt>
      <trkpt lat="46.65215" lon="3.38899">
        <ele>246.72</ele>
        <time>2021-08-13T13:32:50Z</time>
      </trkpt>
      <trkpt lat="46.65227" lon="3.38873">
        <ele>247.2</ele>
        <time>2021-08-13T13:32:57Z</time>
      </trkpt>
      <trkpt lat="46.65241" lon="3.38847">
        <ele>248.16</ele>
        <time>2021-08-13T13:33:04Z</time>
      </trkpt>
      <trkpt lat="46.6525" lon="3.38824">
        <ele>248.64</ele>
        <time>2021-08-13T13:33:11Z</time>
      </trkpt>
      <trkpt lat="46.65263" lon="3.38802">
        <ele>249.12</ele>
        <time>2021-08-13T13:33:17Z</time>
      </trkpt>
      <trkpt lat="46.6528" lon="3.38762">
        <ele>249.6</ele>
        <time>2021-08-13T13:33:26Z</time>
      </trkpt>
      <trkpt lat="46.65292" lon="3.38739">
        <ele>250.08</ele>
        <time>2021-08-13T13:33:31Z</time>
      </trkpt>
      <trkpt lat="46.65295" lon="3.38734">
        <ele>250.08</ele>
        <time>2021-08-13T13:33:32Z</time>
      </trkpt>
      <trkpt lat="46.65308" lon="3.38709">
        <ele>250.08</ele>
        <time>2021-08-13T13:33:37Z</time>
      </trkpt>
      <trkpt lat="46.6534" lon="3.38663">
        <ele>250.56</ele>
        <time>2021-08-13T13:33:47Z</time>
      </trkpt>
      <trkpt lat="46.65346" lon="3.38654">
        <ele>251.04</ele>
        <time>2021-08-13T13:33:49Z</time>
      </trkpt>
      <trkpt lat="46.65374" lon="3.38622">
        <ele>251.04</ele>
        <time>2021-08-13T13:33:57Z</time>
      </trkpt>
      <trkpt lat="46.65402" lon="3.38586">
        <ele>252</ele>
        <time>2021-08-13T13:34:06Z</time>
      </trkpt>
      <trkpt lat="46.65409" lon="3.38579">
        <ele>252.48</ele>
        <time>2021-08-13T13:34:08Z</time>
      </trkpt>
      <trkpt lat="46.65444" lon="3.38535">
        <ele>253.44</ele>
        <time>2021-08-13T13:34:19Z</time>
      </trkpt>
      <trkpt lat="46.65457" lon="3.38518">
        <ele>253.44</ele>
        <time>2021-08-13T13:34:23Z</time>
      </trkpt>
      <trkpt lat="46.65498" lon="3.3847">
        <ele>253.44</ele>
        <time>2021-08-13T13:34:34Z</time>
      </trkpt>
      <trkpt lat="46.65519" lon="3.38442">
        <ele>253.44</ele>
        <time>2021-08-13T13:34:40Z</time>
      </trkpt>
      <trkpt lat="46.65553" lon="3.38403">
        <ele>253.93</ele>
        <time>2021-08-13T13:34:49Z</time>
      </trkpt>
      <trkpt lat="46.65574" lon="3.38376">
        <ele>253.44</ele>
        <time>2021-08-13T13:34:55Z</time>
      </trkpt>
      <trkpt lat="46.65577" lon="3.38372">
        <ele>253.44</ele>
        <time>2021-08-13T13:34:56Z</time>
      </trkpt>
      <trkpt lat="46.65604" lon="3.38341">
        <ele>253.44</ele>
        <time>2021-08-13T13:35:04Z</time>
      </trkpt>
      <trkpt lat="46.65627" lon="3.38309">
        <ele>253.44</ele>
        <time>2021-08-13T13:35:11Z</time>
      </trkpt>
      <trkpt lat="46.65661" lon="3.38271">
        <ele>253.44</ele>
        <time>2021-08-13T13:35:20Z</time>
      </trkpt>
      <trkpt lat="46.65688" lon="3.38237">
        <ele>253.93</ele>
        <time>2021-08-13T13:35:28Z</time>
      </trkpt>
      <trkpt lat="46.65714" lon="3.38208">
        <ele>253.93</ele>
        <time>2021-08-13T13:35:36Z</time>
      </trkpt>
      <trkpt lat="46.65749" lon="3.38165">
        <ele>254.41</ele>
        <time>2021-08-13T13:35:46Z</time>
      </trkpt>
      <trkpt lat="46.65784" lon="3.38122">
        <ele>254.41</ele>
        <time>2021-08-13T13:35:56Z</time>
      </trkpt>
      <trkpt lat="46.65818" lon="3.38082">
        <ele>254.89</ele>
        <time>2021-08-13T13:36:06Z</time>
      </trkpt>
      <trkpt lat="46.65861" lon="3.3803">
        <ele>255.85</ele>
        <time>2021-08-13T13:36:18Z</time>
      </trkpt>
      <trkpt lat="46.65868" lon="3.38021">
        <ele>255.85</ele>
        <time>2021-08-13T13:36:20Z</time>
      </trkpt>
      <trkpt lat="46.65887" lon="3.37994">
        <ele>256.33</ele>
        <time>2021-08-13T13:36:27Z</time>
      </trkpt>
      <trkpt lat="46.65887" lon="3.37976">
        <ele>256.33</ele>
        <time>2021-08-13T13:36:32Z</time>
      </trkpt>
      <trkpt lat="46.6588" lon="3.3795">
        <ele>256.33</ele>
        <time>2021-08-13T13:36:38Z</time>
      </trkpt>
      <trkpt lat="46.65872" lon="3.37913">
        <ele>256.33</ele>
        <time>2021-08-13T13:36:46Z</time>
      </trkpt>
      <trkpt lat="46.6586" lon="3.37871">
        <ele>256.33</ele>
        <time>2021-08-13T13:36:54Z</time>
      </trkpt>
      <trkpt lat="46.65847" lon="3.37823">
        <ele>256.33</ele>
        <time>2021-08-13T13:37:02Z</time>
      </trkpt>
      <trkpt lat="46.65834" lon="3.37774">
        <ele>256.33</ele>
        <time>2021-08-13T13:37:09Z</time>
      </trkpt>
      <trkpt lat="46.65826" lon="3.37746">
        <ele>256.33</ele>
        <time>2021-08-13T13:37:13Z</time>
      </trkpt>
      <trkpt lat="46.65823" lon="3.37739">
        <ele>256.33</ele>
        <time>2021-08-13T13:37:14Z</time>
      </trkpt>
      <trkpt lat="46.6582" lon="3.37733">
        <ele>256.33</ele>
        <time>2021-08-13T13:37:15Z</time>
      </trkpt>
      <trkpt lat="46.65816" lon="3.37728">
        <ele>256.33</ele>
        <time>2021-08-13T13:37:16Z</time>
      </trkpt>
      <trkpt lat="46.65811" lon="3.37723">
        <ele>256.33</ele>
        <time>2021-08-13T13:37:17Z</time>
      </trkpt>
      <trkpt lat="46.65807" lon="3.37719">
        <ele>256.33</ele>
        <time>2021-08-13T13:37:18Z</time>
      </trkpt>
      <trkpt lat="46.65802" lon="3.37717">
        <ele>256.33</ele>
        <time>2021-08-13T13:37:19Z</time>
      </trkpt>
      <trkpt lat="46.65798" lon="3.37714">
        <ele>256.33</ele>
        <time>2021-08-13T13:37:20Z</time>
      </trkpt>
      <trkpt lat="46.65775" lon="3.37705">
        <ele>254.89</ele>
        <time>2021-08-13T13:37:24Z</time>
      </trkpt>
      <trkpt lat="46.65736" lon="3.3769">
        <ele>253.93</ele>
        <time>2021-08-13T13:37:31Z</time>
      </trkpt>
      <trkpt lat="46.65699" lon="3.37674">
        <ele>253.44</ele>
        <time>2021-08-13T13:37:37Z</time>
      </trkpt>
      <trkpt lat="46.65658" lon="3.3766">
        <ele>253.44</ele>
        <time>2021-08-13T13:37:44Z</time>
      </trkpt>
      <trkpt lat="46.65618" lon="3.37646">
        <ele>253.93</ele>
        <time>2021-08-13T13:37:51Z</time>
      </trkpt>
      <trkpt lat="46.65584" lon="3.37633">
        <ele>253.93</ele>
        <time>2021-08-13T13:37:58Z</time>
      </trkpt>
      <trkpt lat="46.65553" lon="3.37626">
        <ele>253.93</ele>
        <time>2021-08-13T13:38:04Z</time>
      </trkpt>
      <trkpt lat="46.65521" lon="3.37629">
        <ele>253.44</ele>
        <time>2021-08-13T13:38:10Z</time>
      </trkpt>
      <trkpt lat="46.65475" lon="3.37638">
        <ele>252.96</ele>
        <time>2021-08-13T13:38:17Z</time>
      </trkpt>
      <trkpt lat="46.65467" lon="3.37639">
        <ele>252.48</ele>
        <time>2021-08-13T13:38:18Z</time>
      </trkpt>
      <trkpt lat="46.65459" lon="3.37638">
        <ele>252.48</ele>
        <time>2021-08-13T13:38:19Z</time>
      </trkpt>
      <trkpt lat="46.65452" lon="3.37637">
        <ele>252.48</ele>
        <time>2021-08-13T13:38:20Z</time>
      </trkpt>
      <trkpt lat="46.65445" lon="3.37635">
        <ele>252.48</ele>
        <time>2021-08-13T13:38:21Z</time>
      </trkpt>
      <trkpt lat="46.65439" lon="3.37632">
        <ele>252.48</ele>
        <time>2021-08-13T13:38:22Z</time>
      </trkpt>
      <trkpt lat="46.65386" lon="3.37613">
        <ele>252.48</ele>
        <time>2021-08-13T13:38:31Z</time>
      </trkpt>
      <trkpt lat="46.65344" lon="3.37596">
        <ele>252.48</ele>
        <time>2021-08-13T13:38:39Z</time>
      </trkpt>
      <trkpt lat="46.65333" lon="3.37592">
        <ele>252.48</ele>
        <time>2021-08-13T13:38:41Z</time>
      </trkpt>
      <trkpt lat="46.65284" lon="3.37572">
        <ele>252.48</ele>
        <time>2021-08-13T13:38:50Z</time>
      </trkpt>
      <trkpt lat="46.65218" lon="3.37541">
        <ele>252.48</ele>
        <time>2021-08-13T13:39:02Z</time>
      </trkpt>
      <trkpt lat="46.65172" lon="3.37519">
        <ele>253.93</ele>
        <time>2021-08-13T13:39:12Z</time>
      </trkpt>
      <trkpt lat="46.65123" lon="3.37496">
        <ele>254.41</ele>
        <time>2021-08-13T13:39:23Z</time>
      </trkpt>
      <trkpt lat="46.65083" lon="3.37477">
        <ele>254.89</ele>
        <time>2021-08-13T13:39:32Z</time>
      </trkpt>
      <trkpt lat="46.65065" lon="3.37469">
        <ele>254.89</ele>
        <time>2021-08-13T13:39:36Z</time>
      </trkpt>
      <trkpt lat="46.65038" lon="3.37456">
        <ele>255.37</ele>
        <time>2021-08-13T13:39:44Z</time>
      </trkpt>
      <trkpt lat="46.65025" lon="3.37448">
        <ele>255.37</ele>
        <time>2021-08-13T13:39:48Z</time>
      </trkpt>
      <trkpt lat="46.64986" lon="3.37429">
        <ele>255.37</ele>
        <time>2021-08-13T13:39:57Z</time>
      </trkpt>
      <trkpt lat="46.64954" lon="3.37413">
        <ele>255.37</ele>
        <time>2021-08-13T13:40:05Z</time>
      </trkpt>
      <trkpt lat="46.64918" lon="3.374">
        <ele>255.37</ele>
        <time>2021-08-13T13:40:13Z</time>
      </trkpt>
      <trkpt lat="46.64867" lon="3.3739">
        <ele>253.93</ele>
        <time>2021-08-13T13:40:23Z</time>
      </trkpt>
      <trkpt lat="46.64861" lon="3.37389">
        <ele>253.93</ele>
        <time>2021-08-13T13:40:24Z</time>
      </trkpt>
      <trkpt lat="46.64857" lon="3.37388">
        <ele>253.93</ele>
        <time>2021-08-13T13:40:25Z</time>
      </trkpt>
      <trkpt lat="46.64852" lon="3.37387">
        <ele>253.93</ele>
        <time>2021-08-13T13:40:26Z</time>
      </trkpt>
      <trkpt lat="46.64847" lon="3.37386">
        <ele>253.93</ele>
        <time>2021-08-13T13:40:27Z</time>
      </trkpt>
      <trkpt lat="46.64843" lon="3.37385">
        <ele>253.93</ele>
        <time>2021-08-13T13:40:28Z</time>
      </trkpt>
      <trkpt lat="46.64806" lon="3.37378">
        <ele>252.96</ele>
        <time>2021-08-13T13:40:35Z</time>
      </trkpt>
      <trkpt lat="46.64802" lon="3.37377">
        <ele>252.96</ele>
        <time>2021-08-13T13:40:36Z</time>
      </trkpt>
      <trkpt lat="46.64754" lon="3.37367">
        <ele>252.96</ele>
        <time>2021-08-13T13:40:45Z</time>
      </trkpt>
      <trkpt lat="46.64705" lon="3.37356">
        <ele>252.96</ele>
        <time>2021-08-13T13:40:55Z</time>
      </trkpt>
      <trkpt lat="46.64676" lon="3.37346">
        <ele>254.41</ele>
        <time>2021-08-13T13:41:03Z</time>
      </trkpt>
      <trkpt lat="46.64648" lon="3.37336">
        <ele>254.41</ele>
        <time>2021-08-13T13:41:10Z</time>
      </trkpt>
      <trkpt lat="46.64611" lon="3.37323">
        <ele>254.41</ele>
        <time>2021-08-13T13:41:18Z</time>
      </trkpt>
      <trkpt lat="46.64572" lon="3.37312">
        <ele>254.41</ele>
        <time>2021-08-13T13:41:27Z</time>
      </trkpt>
      <trkpt lat="46.64534" lon="3.37301">
        <ele>254.89</ele>
        <time>2021-08-13T13:41:35Z</time>
      </trkpt>
      <trkpt lat="46.64493" lon="3.37289">
        <ele>254.89</ele>
        <time>2021-08-13T13:41:44Z</time>
      </trkpt>
      <trkpt lat="46.6447" lon="3.37279">
        <ele>255.37</ele>
        <time>2021-08-13T13:41:50Z</time>
      </trkpt>
      <trkpt lat="46.64437" lon="3.37262">
        <ele>255.85</ele>
        <time>2021-08-13T13:41:58Z</time>
      </trkpt>
      <trkpt lat="46.64411" lon="3.37241">
        <ele>256.33</ele>
        <time>2021-08-13T13:42:06Z</time>
      </trkpt>
      <trkpt lat="46.64385" lon="3.37217">
        <ele>256.81</ele>
        <time>2021-08-13T13:42:14Z</time>
      </trkpt>
      <trkpt lat="46.64358" lon="3.37193">
        <ele>257.29</ele>
        <time>2021-08-13T13:42:22Z</time>
      </trkpt>
      <trkpt lat="46.64329" lon="3.37166">
        <ele>257.29</ele>
        <time>2021-08-13T13:42:30Z</time>
      </trkpt>
      <trkpt lat="46.64325" lon="3.37162">
        <ele>257.29</ele>
        <time>2021-08-13T13:42:31Z</time>
      </trkpt>
      <trkpt lat="46.64286" lon="3.37128">
        <ele>257.29</ele>
        <time>2021-08-13T13:42:40Z</time>
      </trkpt>
      <trkpt lat="46.6425" lon="3.37095">
        <ele>257.29</ele>
        <time>2021-08-13T13:42:49Z</time>
      </trkpt>
      <trkpt lat="46.64219" lon="3.37067">
        <ele>257.77</ele>
        <time>2021-08-13T13:42:57Z</time>
      </trkpt>
      <trkpt lat="46.6419" lon="3.37043">
        <ele>258.25</ele>
        <time>2021-08-13T13:43:05Z</time>
      </trkpt>
      <trkpt lat="46.64187" lon="3.3704">
        <ele>258.25</ele>
        <time>2021-08-13T13:43:06Z</time>
      </trkpt>
      <trkpt lat="46.64168" lon="3.37025">
        <ele>258.73</ele>
        <time>2021-08-13T13:43:11Z</time>
      </trkpt>
      <trkpt lat="46.6416" lon="3.3702">
        <ele>258.73</ele>
        <time>2021-08-13T13:43:13Z</time>
      </trkpt>
      <trkpt lat="46.64155" lon="3.37017">
        <ele>258.73</ele>
        <time>2021-08-13T13:43:14Z</time>
      </trkpt>
      <trkpt lat="46.64125" lon="3.36992">
        <ele>259.21</ele>
        <time>2021-08-13T13:43:22Z</time>
      </trkpt>
      <trkpt lat="46.64106" lon="3.3697">
        <ele>260.17</ele>
        <time>2021-08-13T13:43:29Z</time>
      </trkpt>
      <trkpt lat="46.64085" lon="3.36946">
        <ele>260.65</ele>
        <time>2021-08-13T13:43:37Z</time>
      </trkpt>
      <trkpt lat="46.64071" lon="3.36934">
        <ele>261.62</ele>
        <time>2021-08-13T13:43:42Z</time>
      </trkpt>
      <trkpt lat="46.64048" lon="3.36909">
        <ele>261.62</ele>
        <time>2021-08-13T13:43:50Z</time>
      </trkpt>
      <trkpt lat="46.64029" lon="3.36886">
        <ele>262.58</ele>
        <time>2021-08-13T13:43:58Z</time>
      </trkpt>
      <trkpt lat="46.64009" lon="3.36867">
        <ele>263.54</ele>
        <time>2021-08-13T13:44:06Z</time>
      </trkpt>
      <trkpt lat="46.63985" lon="3.36843">
        <ele>264.02</ele>
        <time>2021-08-13T13:44:15Z</time>
      </trkpt>
      <trkpt lat="46.63972" lon="3.36828">
        <ele>264.5</ele>
        <time>2021-08-13T13:44:22Z</time>
      </trkpt>
      <trkpt lat="46.63952" lon="3.36807">
        <ele>264.98</ele>
        <time>2021-08-13T13:44:30Z</time>
      </trkpt>
      <trkpt lat="46.63941" lon="3.3679">
        <ele>265.46</ele>
        <time>2021-08-13T13:44:36Z</time>
      </trkpt>
      <trkpt lat="46.63937" lon="3.36784">
        <ele>265.46</ele>
        <time>2021-08-13T13:44:38Z</time>
      </trkpt>
      <trkpt lat="46.63936" lon="3.36781">
        <ele>265.46</ele>
        <time>2021-08-13T13:44:39Z</time>
      </trkpt>
      <trkpt lat="46.63934" lon="3.36777">
        <ele>265.46</ele>
        <time>2021-08-13T13:44:40Z</time>
      </trkpt>
      <trkpt lat="46.63916" lon="3.36744">
        <ele>266.42</ele>
        <time>2021-08-13T13:44:50Z</time>
      </trkpt>
      <trkpt lat="46.63897" lon="3.36712">
        <ele>267.38</ele>
        <time>2021-08-13T13:44:59Z</time>
      </trkpt>
      <trkpt lat="46.6388" lon="3.36691">
        <ele>267.86</ele>
        <time>2021-08-13T13:45:06Z</time>
      </trkpt>
      <trkpt lat="46.6387" lon="3.36666">
        <ele>268.35</ele>
        <time>2021-08-13T13:45:12Z</time>
      </trkpt>
      <trkpt lat="46.63859" lon="3.36632">
        <ele>268.35</ele>
        <time>2021-08-13T13:45:20Z</time>
      </trkpt>
      <trkpt lat="46.63845" lon="3.36596">
        <ele>268.83</ele>
        <time>2021-08-13T13:45:28Z</time>
      </trkpt>
      <trkpt lat="46.63831" lon="3.36561">
        <ele>268.83</ele>
        <time>2021-08-13T13:45:35Z</time>
      </trkpt>
      <trkpt lat="46.63821" lon="3.36537">
        <ele>268.83</ele>
        <time>2021-08-13T13:45:41Z</time>
      </trkpt>
      <trkpt lat="46.6382" lon="3.36534">
        <ele>268.83</ele>
        <time>2021-08-13T13:45:48Z</time>
      </trkpt>
      <trkpt lat="46.63818" lon="3.36535">
        <ele>269.31</ele>
        <time>2021-08-13T13:46:05Z</time>
      </trkpt>
      <trkpt lat="46.63815" lon="3.36537">
        <ele>269.31</ele>
        <time>2021-08-13T13:46:26Z</time>
      </trkpt>
      <trkpt lat="46.63815" lon="3.36532">
        <ele>269.31</ele>
        <time>2021-08-13T13:46:44Z</time>
      </trkpt>
      <trkpt lat="46.63815" lon="3.36531">
        <ele>269.31</ele>
        <time>2021-08-13T13:46:48Z</time>
      </trkpt>
      <trkpt lat="46.63814" lon="3.3652">
        <ele>269.31</ele>
        <time>2021-08-13T13:46:53Z</time>
      </trkpt>
      <trkpt lat="46.63805" lon="3.36496">
        <ele>269.31</ele>
        <time>2021-08-13T13:46:59Z</time>
      </trkpt>
      <trkpt lat="46.63791" lon="3.36458">
        <ele>269.31</ele>
        <time>2021-08-13T13:47:07Z</time>
      </trkpt>
      <trkpt lat="46.63778" lon="3.3642">
        <ele>269.31</ele>
        <time>2021-08-13T13:47:14Z</time>
      </trkpt>
      <trkpt lat="46.63773" lon="3.36409">
        <ele>269.31</ele>
        <time>2021-08-13T13:47:16Z</time>
      </trkpt>
      <trkpt lat="46.63771" lon="3.36404">
        <ele>269.31</ele>
        <time>2021-08-13T13:47:17Z</time>
      </trkpt>
      <trkpt lat="46.63759" lon="3.36372">
        <ele>269.31</ele>
        <time>2021-08-13T13:47:23Z</time>
      </trkpt>
      <trkpt lat="46.63751" lon="3.3635">
        <ele>269.31</ele>
        <time>2021-08-13T13:47:27Z</time>
      </trkpt>
      <trkpt lat="46.63735" lon="3.36309">
        <ele>269.79</ele>
        <time>2021-08-13T13:47:35Z</time>
      </trkpt>
      <trkpt lat="46.6372" lon="3.36265">
        <ele>269.79</ele>
        <time>2021-08-13T13:47:43Z</time>
      </trkpt>
      <trkpt lat="46.63703" lon="3.36222">
        <ele>269.79</ele>
        <time>2021-08-13T13:47:51Z</time>
      </trkpt>
      <trkpt lat="46.63692" lon="3.36196">
        <ele>269.79</ele>
        <time>2021-08-13T13:47:56Z</time>
      </trkpt>
      <trkpt lat="46.63688" lon="3.36185">
        <ele>269.79</ele>
        <time>2021-08-13T13:47:58Z</time>
      </trkpt>
      <trkpt lat="46.63674" lon="3.36147">
        <ele>269.79</ele>
        <time>2021-08-13T13:48:05Z</time>
      </trkpt>
      <trkpt lat="46.63665" lon="3.3612">
        <ele>269.79</ele>
        <time>2021-08-13T13:48:09Z</time>
      </trkpt>
      <trkpt lat="46.63662" lon="3.36108">
        <ele>269.79</ele>
        <time>2021-08-13T13:48:11Z</time>
      </trkpt>
      <trkpt lat="46.6366" lon="3.36102">
        <ele>269.79</ele>
        <time>2021-08-13T13:48:12Z</time>
      </trkpt>
      <trkpt lat="46.63641" lon="3.36053">
        <ele>269.79</ele>
        <time>2021-08-13T13:48:20Z</time>
      </trkpt>
      <trkpt lat="46.63625" lon="3.36017">
        <ele>268.35</ele>
        <time>2021-08-13T13:48:26Z</time>
      </trkpt>
      <trkpt lat="46.63605" lon="3.35964">
        <ele>268.35</ele>
        <time>2021-08-13T13:48:34Z</time>
      </trkpt>
      <trkpt lat="46.63574" lon="3.35896">
        <ele>267.38</ele>
        <time>2021-08-13T13:48:43Z</time>
      </trkpt>
      <trkpt lat="46.63545" lon="3.35833">
        <ele>266.42</ele>
        <time>2021-08-13T13:48:51Z</time>
      </trkpt>
      <trkpt lat="46.63511" lon="3.35762">
        <ele>265.94</ele>
        <time>2021-08-13T13:49:00Z</time>
      </trkpt>
      <trkpt lat="46.63473" lon="3.3568">
        <ele>264.98</ele>
        <time>2021-08-13T13:49:10Z</time>
      </trkpt>
      <trkpt lat="46.63434" lon="3.35596">
        <ele>264.02</ele>
        <time>2021-08-13T13:49:20Z</time>
      </trkpt>
      <trkpt lat="46.63401" lon="3.35524">
        <ele>263.54</ele>
        <time>2021-08-13T13:49:29Z</time>
      </trkpt>
      <trkpt lat="46.63386" lon="3.35464">
        <ele>263.06</ele>
        <time>2021-08-13T13:49:36Z</time>
      </trkpt>
      <trkpt lat="46.63377" lon="3.35364">
        <ele>262.1</ele>
        <time>2021-08-13T13:49:47Z</time>
      </trkpt>
      <trkpt lat="46.6337" lon="3.35287">
        <ele>262.1</ele>
        <time>2021-08-13T13:49:56Z</time>
      </trkpt>
      <trkpt lat="46.63363" lon="3.35204">
        <ele>262.1</ele>
        <time>2021-08-13T13:50:06Z</time>
      </trkpt>
      <trkpt lat="46.63353" lon="3.35119">
        <ele>261.62</ele>
        <time>2021-08-13T13:50:16Z</time>
      </trkpt>
      <trkpt lat="46.63336" lon="3.3502">
        <ele>261.14</ele>
        <time>2021-08-13T13:50:28Z</time>
      </trkpt>
      <trkpt lat="46.63323" lon="3.34946">
        <ele>261.14</ele>
        <time>2021-08-13T13:50:37Z</time>
      </trkpt>
      <trkpt lat="46.63321" lon="3.34928">
        <ele>261.14</ele>
        <time>2021-08-13T13:50:39Z</time>
      </trkpt>
      <trkpt lat="46.63308" lon="3.34855">
        <ele>260.65</ele>
        <time>2021-08-13T13:50:48Z</time>
      </trkpt>
      <trkpt lat="46.63299" lon="3.34804">
        <ele>260.65</ele>
        <time>2021-08-13T13:50:56Z</time>
      </trkpt>
      <trkpt lat="46.63289" lon="3.34768">
        <ele>260.65</ele>
        <time>2021-08-13T13:51:03Z</time>
      </trkpt>
      <trkpt lat="46.63279" lon="3.34733">
        <ele>260.65</ele>
        <time>2021-08-13T13:51:10Z</time>
      </trkpt>
      <trkpt lat="46.63265" lon="3.34686">
        <ele>259.69</ele>
        <time>2021-08-13T13:51:18Z</time>
      </trkpt>
      <trkpt lat="46.63263" lon="3.34679">
        <ele>259.69</ele>
        <time>2021-08-13T13:51:19Z</time>
      </trkpt>
      <trkpt lat="46.63248" lon="3.34633">
        <ele>259.69</ele>
        <time>2021-08-13T13:51:26Z</time>
      </trkpt>
      <trkpt lat="46.63237" lon="3.34573">
        <ele>259.21</ele>
        <time>2021-08-13T13:51:34Z</time>
      </trkpt>
      <trkpt lat="46.63237" lon="3.345">
        <ele>259.21</ele>
        <time>2021-08-13T13:51:43Z</time>
      </trkpt>
      <trkpt lat="46.63238" lon="3.34438">
        <ele>258.73</ele>
        <time>2021-08-13T13:51:51Z</time>
      </trkpt>
      <trkpt lat="46.6324" lon="3.34365">
        <ele>257.77</ele>
        <time>2021-08-13T13:52:00Z</time>
      </trkpt>
      <trkpt lat="46.63242" lon="3.34277">
        <ele>256.81</ele>
        <time>2021-08-13T13:52:10Z</time>
      </trkpt>
      <trkpt lat="46.63244" lon="3.34201">
        <ele>256.33</ele>
        <time>2021-08-13T13:52:19Z</time>
      </trkpt>
      <trkpt lat="46.63244" lon="3.34167">
        <ele>255.85</ele>
        <time>2021-08-13T13:52:23Z</time>
      </trkpt>
      <trkpt lat="46.63245" lon="3.34098">
        <ele>254.89</ele>
        <time>2021-08-13T13:52:31Z</time>
      </trkpt>
      <trkpt lat="46.63245" lon="3.3404">
        <ele>253.93</ele>
        <time>2021-08-13T13:52:38Z</time>
      </trkpt>
      <trkpt lat="46.63245" lon="3.33974">
        <ele>253.93</ele>
        <time>2021-08-13T13:52:46Z</time>
      </trkpt>
      <trkpt lat="46.63245" lon="3.33959">
        <ele>253.44</ele>
        <time>2021-08-13T13:52:48Z</time>
      </trkpt>
      <trkpt lat="46.63245" lon="3.33899">
        <ele>253.44</ele>
        <time>2021-08-13T13:52:55Z</time>
      </trkpt>
      <trkpt lat="46.63243" lon="3.33827">
        <ele>252.48</ele>
        <time>2021-08-13T13:53:04Z</time>
      </trkpt>
      <trkpt lat="46.63242" lon="3.33781">
        <ele>252</ele>
        <time>2021-08-13T13:53:11Z</time>
      </trkpt>
      <trkpt lat="46.63241" lon="3.3377">
        <ele>252</ele>
        <time>2021-08-13T13:53:13Z</time>
      </trkpt>
      <trkpt lat="46.6324" lon="3.33765">
        <ele>252</ele>
        <time>2021-08-13T13:53:14Z</time>
      </trkpt>
      <trkpt lat="46.63235" lon="3.33754">
        <ele>251.52</ele>
        <time>2021-08-13T13:53:16Z</time>
      </trkpt>
      <trkpt lat="46.63208" lon="3.3369">
        <ele>251.52</ele>
        <time>2021-08-13T13:53:27Z</time>
      </trkpt>
      <trkpt lat="46.63179" lon="3.3363">
        <ele>250.56</ele>
        <time>2021-08-13T13:53:38Z</time>
      </trkpt>
      <trkpt lat="46.6315" lon="3.33571">
        <ele>249.6</ele>
        <time>2021-08-13T13:53:47Z</time>
      </trkpt>
      <trkpt lat="46.63123" lon="3.33513">
        <ele>249.6</ele>
        <time>2021-08-13T13:53:56Z</time>
      </trkpt>
      <trkpt lat="46.63113" lon="3.33494">
        <ele>249.6</ele>
        <time>2021-08-13T13:53:59Z</time>
      </trkpt>
      <trkpt lat="46.63085" lon="3.33435">
        <ele>249.12</ele>
        <time>2021-08-13T13:54:08Z</time>
      </trkpt>
      <trkpt lat="46.63056" lon="3.33379">
        <ele>249.12</ele>
        <time>2021-08-13T13:54:16Z</time>
      </trkpt>
      <trkpt lat="46.6303" lon="3.33324">
        <ele>248.64</ele>
        <time>2021-08-13T13:54:25Z</time>
      </trkpt>
      <trkpt lat="46.63002" lon="3.33269">
        <ele>247.68</ele>
        <time>2021-08-13T13:54:33Z</time>
      </trkpt>
      <trkpt lat="46.62962" lon="3.33185">
        <ele>246.23</ele>
        <time>2021-08-13T13:54:44Z</time>
      </trkpt>
      <trkpt lat="46.62932" lon="3.33124">
        <ele>245.75</ele>
        <time>2021-08-13T13:54:52Z</time>
      </trkpt>
      <trkpt lat="46.62903" lon="3.33062">
        <ele>245.27</ele>
        <time>2021-08-13T13:55:01Z</time>
      </trkpt>
      <trkpt lat="46.62876" lon="3.33008">
        <ele>244.79</ele>
        <time>2021-08-13T13:55:09Z</time>
      </trkpt>
      <trkpt lat="46.62857" lon="3.32955">
        <ele>244.79</ele>
        <time>2021-08-13T13:55:16Z</time>
      </trkpt>
      <trkpt lat="46.62841" lon="3.32908">
        <ele>244.31</ele>
        <time>2021-08-13T13:55:23Z</time>
      </trkpt>
      <trkpt lat="46.62826" lon="3.3286">
        <ele>243.83</ele>
        <time>2021-08-13T13:55:30Z</time>
      </trkpt>
      <trkpt lat="46.62824" lon="3.32853">
        <ele>243.83</ele>
        <time>2021-08-13T13:55:31Z</time>
      </trkpt>
      <trkpt lat="46.62822" lon="3.32845">
        <ele>243.83</ele>
        <time>2021-08-13T13:55:32Z</time>
      </trkpt>
      <trkpt lat="46.62818" lon="3.32832">
        <ele>243.83</ele>
        <time>2021-08-13T13:55:34Z</time>
      </trkpt>
      <trkpt lat="46.62804" lon="3.32789">
        <ele>243.35</ele>
        <time>2021-08-13T13:55:41Z</time>
      </trkpt>
      <trkpt lat="46.62785" lon="3.32732">
        <ele>242.87</ele>
        <time>2021-08-13T13:55:49Z</time>
      </trkpt>
      <trkpt lat="46.62777" lon="3.32707">
        <ele>242.87</ele>
        <time>2021-08-13T13:55:53Z</time>
      </trkpt>
      <trkpt lat="46.62775" lon="3.32701">
        <ele>242.87</ele>
        <time>2021-08-13T13:55:54Z</time>
      </trkpt>
      <trkpt lat="46.62761" lon="3.32647">
        <ele>242.39</ele>
        <time>2021-08-13T13:56:02Z</time>
      </trkpt>
      <trkpt lat="46.62752" lon="3.3257">
        <ele>242.39</ele>
        <time>2021-08-13T13:56:12Z</time>
      </trkpt>
      <trkpt lat="46.62749" lon="3.32533">
        <ele>242.39</ele>
        <time>2021-08-13T13:56:17Z</time>
      </trkpt>
      <trkpt lat="46.62748" lon="3.32526">
        <ele>242.39</ele>
        <time>2021-08-13T13:56:18Z</time>
      </trkpt>
      <trkpt lat="46.62739" lon="3.32458">
        <ele>241.91</ele>
        <time>2021-08-13T13:56:27Z</time>
      </trkpt>
      <trkpt lat="46.62732" lon="3.32401">
        <ele>241.91</ele>
        <time>2021-08-13T13:56:35Z</time>
      </trkpt>
      <trkpt lat="46.62729" lon="3.32395">
        <ele>241.91</ele>
        <time>2021-08-13T13:56:36Z</time>
      </trkpt>
      <trkpt lat="46.62725" lon="3.32392">
        <ele>241.91</ele>
        <time>2021-08-13T13:56:37Z</time>
      </trkpt>
      <trkpt lat="46.62721" lon="3.3239">
        <ele>241.91</ele>
        <time>2021-08-13T13:56:38Z</time>
      </trkpt>
      <trkpt lat="46.62716" lon="3.3239">
        <ele>241.91</ele>
        <time>2021-08-13T13:56:39Z</time>
      </trkpt>
      <trkpt lat="46.62711" lon="3.32391">
        <ele>241.91</ele>
        <time>2021-08-13T13:56:40Z</time>
      </trkpt>
      <trkpt lat="46.62706" lon="3.32392">
        <ele>241.91</ele>
        <time>2021-08-13T13:56:41Z</time>
      </trkpt>
      <trkpt lat="46.62665" lon="3.32399">
        <ele>241.91</ele>
        <time>2021-08-13T13:56:50Z</time>
      </trkpt>
      <trkpt lat="46.62648" lon="3.32388">
        <ele>241.91</ele>
        <time>2021-08-13T13:56:55Z</time>
      </trkpt>
      <trkpt lat="46.62647" lon="3.32383">
        <ele>241.91</ele>
        <time>2021-08-13T13:56:56Z</time>
      </trkpt>
      <trkpt lat="46.62646" lon="3.32379">
        <ele>241.91</ele>
        <time>2021-08-13T13:56:57Z</time>
      </trkpt>
      <trkpt lat="46.62646" lon="3.32374">
        <ele>241.91</ele>
        <time>2021-08-13T13:56:58Z</time>
      </trkpt>
      <trkpt lat="46.62646" lon="3.32368">
        <ele>241.91</ele>
        <time>2021-08-13T13:56:59Z</time>
      </trkpt>
      <trkpt lat="46.62647" lon="3.32362">
        <ele>241.91</ele>
        <time>2021-08-13T13:57:00Z</time>
      </trkpt>
      <trkpt lat="46.62647" lon="3.32357">
        <ele>241.91</ele>
        <time>2021-08-13T13:57:01Z</time>
      </trkpt>
      <trkpt lat="46.62649" lon="3.32313">
        <ele>241.91</ele>
        <time>2021-08-13T13:57:09Z</time>
      </trkpt>
      <trkpt lat="46.6265" lon="3.32258">
        <ele>241.91</ele>
        <time>2021-08-13T13:57:18Z</time>
      </trkpt>
      <trkpt lat="46.6265" lon="3.32252">
        <ele>241.91</ele>
        <time>2021-08-13T13:57:19Z</time>
      </trkpt>
      <trkpt lat="46.62651" lon="3.32246">
        <ele>241.91</ele>
        <time>2021-08-13T13:57:20Z</time>
      </trkpt>
      <trkpt lat="46.62653" lon="3.32196">
        <ele>241.91</ele>
        <time>2021-08-13T13:57:28Z</time>
      </trkpt>
      <trkpt lat="46.62655" lon="3.32146">
        <ele>241.91</ele>
        <time>2021-08-13T13:57:36Z</time>
      </trkpt>
      <trkpt lat="46.62657" lon="3.32091">
        <ele>241.91</ele>
        <time>2021-08-13T13:57:44Z</time>
      </trkpt>
      <trkpt lat="46.62657" lon="3.32068">
        <ele>241.43</ele>
        <time>2021-08-13T13:57:47Z</time>
      </trkpt>
      <trkpt lat="46.62657" lon="3.3206">
        <ele>241.43</ele>
        <time>2021-08-13T13:57:48Z</time>
      </trkpt>
      <trkpt lat="46.62661" lon="3.32006">
        <ele>241.43</ele>
        <time>2021-08-13T13:57:55Z</time>
      </trkpt>
      <trkpt lat="46.62671" lon="3.31948">
        <ele>241.43</ele>
        <time>2021-08-13T13:58:03Z</time>
      </trkpt>
      <trkpt lat="46.62682" lon="3.31874">
        <ele>240.95</ele>
        <time>2021-08-13T13:58:12Z</time>
      </trkpt>
      <trkpt lat="46.62684" lon="3.3185">
        <ele>240.95</ele>
        <time>2021-08-13T13:58:15Z</time>
      </trkpt>
      <trkpt lat="46.62683" lon="3.31842">
        <ele>240.95</ele>
        <time>2021-08-13T13:58:16Z</time>
      </trkpt>
      <trkpt lat="46.62682" lon="3.31835">
        <ele>240.95</ele>
        <time>2021-08-13T13:58:17Z</time>
      </trkpt>
      <trkpt lat="46.6268" lon="3.31829">
        <ele>240.95</ele>
        <time>2021-08-13T13:58:18Z</time>
      </trkpt>
      <trkpt lat="46.62676" lon="3.31824">
        <ele>240.95</ele>
        <time>2021-08-13T13:58:19Z</time>
      </trkpt>
      <trkpt lat="46.62672" lon="3.31822">
        <ele>240.95</ele>
        <time>2021-08-13T13:58:20Z</time>
      </trkpt>
      <trkpt lat="46.62666" lon="3.31821">
        <ele>240.95</ele>
        <time>2021-08-13T13:58:21Z</time>
      </trkpt>
      <trkpt lat="46.62662" lon="3.31823">
        <ele>240.95</ele>
        <time>2021-08-13T13:58:22Z</time>
      </trkpt>
      <trkpt lat="46.62658" lon="3.31826">
        <ele>240.95</ele>
        <time>2021-08-13T13:58:23Z</time>
      </trkpt>
      <trkpt lat="46.62654" lon="3.31829">
        <ele>240.95</ele>
        <time>2021-08-13T13:58:24Z</time>
      </trkpt>
      <trkpt lat="46.62634" lon="3.31843">
        <ele>240.95</ele>
        <time>2021-08-13T13:58:29Z</time>
      </trkpt>
      <trkpt lat="46.62626" lon="3.31848">
        <ele>240.95</ele>
        <time>2021-08-13T13:58:31Z</time>
      </trkpt>
      <trkpt lat="46.6259" lon="3.31865">
        <ele>242.39</ele>
        <time>2021-08-13T13:58:40Z</time>
      </trkpt>
      <trkpt lat="46.62561" lon="3.31879">
        <ele>242.39</ele>
        <time>2021-08-13T13:58:47Z</time>
      </trkpt>
      <trkpt lat="46.62558" lon="3.31881">
        <ele>242.39</ele>
        <time>2021-08-13T13:58:48Z</time>
      </trkpt>
      <trkpt lat="46.62553" lon="3.31884">
        <ele>242.39</ele>
        <time>2021-08-13T13:58:49Z</time>
      </trkpt>
      <trkpt lat="46.62508" lon="3.31906">
        <ele>242.39</ele>
        <time>2021-08-13T13:58:59Z</time>
      </trkpt>
      <trkpt lat="46.62485" lon="3.31919">
        <ele>242.39</ele>
        <time>2021-08-13T13:59:04Z</time>
      </trkpt>
      <trkpt lat="46.62439" lon="3.31944">
        <ele>241.91</ele>
        <time>2021-08-13T13:59:13Z</time>
      </trkpt>
      <trkpt lat="46.624" lon="3.31965">
        <ele>241.91</ele>
        <time>2021-08-13T13:59:21Z</time>
      </trkpt>
      <trkpt lat="46.62395" lon="3.31968">
        <ele>241.91</ele>
        <time>2021-08-13T13:59:22Z</time>
      </trkpt>
      <trkpt lat="46.6235" lon="3.3199">
        <ele>241.91</ele>
        <time>2021-08-13T13:59:31Z</time>
      </trkpt>
      <trkpt lat="46.62346" lon="3.31993">
        <ele>241.91</ele>
        <time>2021-08-13T13:59:32Z</time>
      </trkpt>
      <trkpt lat="46.62328" lon="3.32009">
        <ele>241.91</ele>
        <time>2021-08-13T13:59:36Z</time>
      </trkpt>
      <trkpt lat="46.62321" lon="3.32019">
        <ele>241.91</ele>
        <time>2021-08-13T13:59:38Z</time>
      </trkpt>
      <trkpt lat="46.62307" lon="3.3204">
        <ele>240.95</ele>
        <time>2021-08-13T13:59:42Z</time>
      </trkpt>
      <trkpt lat="46.62279" lon="3.3209">
        <ele>239.99</ele>
        <time>2021-08-13T13:59:50Z</time>
      </trkpt>
      <trkpt lat="46.62276" lon="3.32097">
        <ele>239.99</ele>
        <time>2021-08-13T13:59:51Z</time>
      </trkpt>
      <trkpt lat="46.62273" lon="3.32104">
        <ele>239.99</ele>
        <time>2021-08-13T13:59:52Z</time>
      </trkpt>
      <trkpt lat="46.62251" lon="3.32166">
        <ele>239.51</ele>
        <time>2021-08-13T14:00:01Z</time>
      </trkpt>
      <trkpt lat="46.62245" lon="3.32176">
        <ele>239.51</ele>
        <time>2021-08-13T14:00:03Z</time>
      </trkpt>
      <trkpt lat="46.62231" lon="3.32194">
        <ele>240.95</ele>
        <time>2021-08-13T14:00:07Z</time>
      </trkpt>
      <trkpt lat="46.62227" lon="3.32197">
        <ele>240.95</ele>
        <time>2021-08-13T14:00:08Z</time>
      </trkpt>
      <trkpt lat="46.62223" lon="3.322">
        <ele>240.95</ele>
        <time>2021-08-13T14:00:09Z</time>
      </trkpt>
      <trkpt lat="46.62216" lon="3.32206">
        <ele>237.58</ele>
        <time>2021-08-13T14:00:11Z</time>
      </trkpt>
      <trkpt lat="46.62183" lon="3.32227">
        <ele>238.54</ele>
        <time>2021-08-13T14:00:17Z</time>
      </trkpt>
      <trkpt lat="46.6217" lon="3.32233">
        <ele>237.58</ele>
        <time>2021-08-13T14:00:19Z</time>
      </trkpt>
      <trkpt lat="46.62138" lon="3.3224">
        <ele>237.58</ele>
        <time>2021-08-13T14:00:24Z</time>
      </trkpt>
      <trkpt lat="46.62131" lon="3.32239">
        <ele>237.1</ele>
        <time>2021-08-13T14:00:25Z</time>
      </trkpt>
      <trkpt lat="46.62114" lon="3.32233">
        <ele>237.1</ele>
        <time>2021-08-13T14:00:28Z</time>
      </trkpt>
      <trkpt lat="46.6211" lon="3.3223">
        <ele>237.1</ele>
        <time>2021-08-13T14:00:29Z</time>
      </trkpt>
      <trkpt lat="46.62105" lon="3.32226">
        <ele>237.1</ele>
        <time>2021-08-13T14:00:30Z</time>
      </trkpt>
      <trkpt lat="46.62101" lon="3.32222">
        <ele>237.1</ele>
        <time>2021-08-13T14:00:31Z</time>
      </trkpt>
      <trkpt lat="46.62097" lon="3.32219">
        <ele>237.1</ele>
        <time>2021-08-13T14:00:32Z</time>
      </trkpt>
      <trkpt lat="46.62065" lon="3.32186">
        <ele>237.1</ele>
        <time>2021-08-13T14:00:40Z</time>
      </trkpt>
      <trkpt lat="46.62031" lon="3.32147">
        <ele>236.14</ele>
        <time>2021-08-13T14:00:48Z</time>
      </trkpt>
      <trkpt lat="46.62026" lon="3.32143">
        <ele>235.66</ele>
        <time>2021-08-13T14:00:49Z</time>
      </trkpt>
      <trkpt lat="46.61994" lon="3.32126">
        <ele>234.7</ele>
        <time>2021-08-13T14:00:54Z</time>
      </trkpt>
      <trkpt lat="46.61987" lon="3.32125">
        <ele>234.22</ele>
        <time>2021-08-13T14:00:55Z</time>
      </trkpt>
      <trkpt lat="46.6198" lon="3.32127">
        <ele>234.22</ele>
        <time>2021-08-13T14:00:56Z</time>
      </trkpt>
      <trkpt lat="46.61966" lon="3.32133">
        <ele>232.78</ele>
        <time>2021-08-13T14:00:58Z</time>
      </trkpt>
      <trkpt lat="46.61951" lon="3.32145">
        <ele>232.3</ele>
        <time>2021-08-13T14:01:00Z</time>
      </trkpt>
      <trkpt lat="46.61944" lon="3.32152">
        <ele>231.81</ele>
        <time>2021-08-13T14:01:01Z</time>
      </trkpt>
      <trkpt lat="46.61937" lon="3.32161">
        <ele>231.33</ele>
        <time>2021-08-13T14:01:02Z</time>
      </trkpt>
      <trkpt lat="46.61932" lon="3.32169">
        <ele>231.33</ele>
        <time>2021-08-13T14:01:03Z</time>
      </trkpt>
      <trkpt lat="46.61926" lon="3.32178">
        <ele>230.85</ele>
        <time>2021-08-13T14:01:04Z</time>
      </trkpt>
      <trkpt lat="46.61909" lon="3.32205">
        <ele>230.37</ele>
        <time>2021-08-13T14:01:07Z</time>
      </trkpt>
      <trkpt lat="46.61903" lon="3.32213">
        <ele>229.89</ele>
        <time>2021-08-13T14:01:08Z</time>
      </trkpt>
      <trkpt lat="46.61896" lon="3.32218">
        <ele>229.41</ele>
        <time>2021-08-13T14:01:09Z</time>
      </trkpt>
      <trkpt lat="46.61889" lon="3.32222">
        <ele>229.41</ele>
        <time>2021-08-13T14:01:10Z</time>
      </trkpt>
      <trkpt lat="46.61881" lon="3.32225">
        <ele>229.41</ele>
        <time>2021-08-13T14:01:11Z</time>
      </trkpt>
      <trkpt lat="46.61874" lon="3.32226">
        <ele>229.41</ele>
        <time>2021-08-13T14:01:12Z</time>
      </trkpt>
      <trkpt lat="46.61868" lon="3.32227">
        <ele>229.89</ele>
        <time>2021-08-13T14:01:13Z</time>
      </trkpt>
      <trkpt lat="46.61861" lon="3.32228">
        <ele>229.89</ele>
        <time>2021-08-13T14:01:14Z</time>
      </trkpt>
      <trkpt lat="46.61854" lon="3.32228">
        <ele>229.89</ele>
        <time>2021-08-13T14:01:15Z</time>
      </trkpt>
      <trkpt lat="46.6181" lon="3.32229">
        <ele>231.33</ele>
        <time>2021-08-13T14:01:23Z</time>
      </trkpt>
      <trkpt lat="46.61782" lon="3.3223">
        <ele>232.78</ele>
        <time>2021-08-13T14:01:30Z</time>
      </trkpt>
      <trkpt lat="46.6176" lon="3.3223">
        <ele>234.22</ele>
        <time>2021-08-13T14:01:38Z</time>
      </trkpt>
      <trkpt lat="46.61746" lon="3.3223">
        <ele>234.7</ele>
        <time>2021-08-13T14:01:44Z</time>
      </trkpt>
      <trkpt lat="46.61738" lon="3.32228">
        <ele>235.18</ele>
        <time>2021-08-13T14:01:48Z</time>
      </trkpt>
      <trkpt lat="46.61735" lon="3.32229">
        <ele>235.66</ele>
        <time>2021-08-13T14:01:49Z</time>
      </trkpt>
      <trkpt lat="46.61733" lon="3.32229">
        <ele>235.66</ele>
        <time>2021-08-13T14:01:50Z</time>
      </trkpt>
      <trkpt lat="46.61731" lon="3.3223">
        <ele>235.66</ele>
        <time>2021-08-13T14:01:51Z</time>
      </trkpt>
      <trkpt lat="46.61729" lon="3.3223">
        <ele>236.14</ele>
        <time>2021-08-13T14:01:52Z</time>
      </trkpt>
      <trkpt lat="46.61727" lon="3.3223">
        <ele>236.14</ele>
        <time>2021-08-13T14:01:53Z</time>
      </trkpt>
      <trkpt lat="46.61724" lon="3.3223">
        <ele>236.14</ele>
        <time>2021-08-13T14:01:54Z</time>
      </trkpt>
      <trkpt lat="46.61722" lon="3.3223">
        <ele>236.14</ele>
        <time>2021-08-13T14:01:55Z</time>
      </trkpt>
      <trkpt lat="46.61707" lon="3.3223">
        <ele>237.58</ele>
        <time>2021-08-13T14:02:03Z</time>
      </trkpt>
      <trkpt lat="46.61685" lon="3.32229">
        <ele>239.02</ele>
        <time>2021-08-13T14:02:13Z</time>
      </trkpt>
      <trkpt lat="46.61664" lon="3.32228">
        <ele>239.99</ele>
        <time>2021-08-13T14:02:21Z</time>
      </trkpt>
      <trkpt lat="46.61644" lon="3.32228">
        <ele>240.95</ele>
        <time>2021-08-13T14:02:28Z</time>
      </trkpt>
      <trkpt lat="46.61615" lon="3.32228">
        <ele>241.91</ele>
        <time>2021-08-13T14:02:38Z</time>
      </trkpt>
      <trkpt lat="46.61586" lon="3.32229">
        <ele>242.87</ele>
        <time>2021-08-13T14:02:47Z</time>
      </trkpt>
      <trkpt lat="46.61559" lon="3.3223">
        <ele>243.35</ele>
        <time>2021-08-13T14:02:55Z</time>
      </trkpt>
      <trkpt lat="46.61529" lon="3.32231">
        <ele>244.31</ele>
        <time>2021-08-13T14:03:04Z</time>
      </trkpt>
      <trkpt lat="46.61517" lon="3.32232">
        <ele>244.31</ele>
        <time>2021-08-13T14:03:08Z</time>
      </trkpt>
      <trkpt lat="46.61506" lon="3.32233">
        <ele>244.79</ele>
        <time>2021-08-13T14:03:11Z</time>
      </trkpt>
      <trkpt lat="46.61502" lon="3.32234">
        <ele>244.79</ele>
        <time>2021-08-13T14:03:12Z</time>
      </trkpt>
      <trkpt lat="46.61466" lon="3.32238">
        <ele>245.75</ele>
        <time>2021-08-13T14:03:22Z</time>
      </trkpt>
      <trkpt lat="46.61429" lon="3.32242">
        <ele>246.23</ele>
        <time>2021-08-13T14:03:32Z</time>
      </trkpt>
      <trkpt lat="46.61397" lon="3.32248">
        <ele>246.72</ele>
        <time>2021-08-13T14:03:40Z</time>
      </trkpt>
      <trkpt lat="46.61363" lon="3.32256">
        <ele>247.68</ele>
        <time>2021-08-13T14:03:49Z</time>
      </trkpt>
      <trkpt lat="46.61331" lon="3.32263">
        <ele>248.16</ele>
        <time>2021-08-13T14:03:57Z</time>
      </trkpt>
      <trkpt lat="46.61293" lon="3.32271">
        <ele>248.64</ele>
        <time>2021-08-13T14:04:06Z</time>
      </trkpt>
      <trkpt lat="46.61276" lon="3.32276">
        <ele>249.12</ele>
        <time>2021-08-13T14:04:10Z</time>
      </trkpt>
      <trkpt lat="46.61237" lon="3.32285">
        <ele>249.12</ele>
        <time>2021-08-13T14:04:19Z</time>
      </trkpt>
      <trkpt lat="46.61208" lon="3.32292">
        <ele>249.12</ele>
        <time>2021-08-13T14:04:27Z</time>
      </trkpt>
      <trkpt lat="46.61174" lon="3.32302">
        <ele>249.6</ele>
        <time>2021-08-13T14:04:35Z</time>
      </trkpt>
      <trkpt lat="46.61131" lon="3.32314">
        <ele>249.6</ele>
        <time>2021-08-13T14:04:45Z</time>
      </trkpt>
      <trkpt lat="46.61081" lon="3.32329">
        <ele>249.6</ele>
        <time>2021-08-13T14:04:55Z</time>
      </trkpt>
      <trkpt lat="46.61028" lon="3.32344">
        <ele>249.6</ele>
        <time>2021-08-13T14:05:05Z</time>
      </trkpt>
      <trkpt lat="46.60979" lon="3.32358">
        <ele>248.64</ele>
        <time>2021-08-13T14:05:14Z</time>
      </trkpt>
      <trkpt lat="46.60917" lon="3.32381">
        <ele>248.16</ele>
        <time>2021-08-13T14:05:25Z</time>
      </trkpt>
      <trkpt lat="46.60874" lon="3.324">
        <ele>248.16</ele>
        <time>2021-08-13T14:05:33Z</time>
      </trkpt>
      <trkpt lat="46.60829" lon="3.32418">
        <ele>247.68</ele>
        <time>2021-08-13T14:05:41Z</time>
      </trkpt>
      <trkpt lat="46.608" lon="3.3243">
        <ele>247.2</ele>
        <time>2021-08-13T14:05:46Z</time>
      </trkpt>
      <trkpt lat="46.60795" lon="3.32431">
        <ele>247.2</ele>
        <time>2021-08-13T14:05:47Z</time>
      </trkpt>
      <trkpt lat="46.60783" lon="3.32433">
        <ele>247.2</ele>
        <time>2021-08-13T14:05:49Z</time>
      </trkpt>
      <trkpt lat="46.60748" lon="3.32441">
        <ele>246.23</ele>
        <time>2021-08-13T14:05:55Z</time>
      </trkpt>
      <trkpt lat="46.60701" lon="3.32453">
        <ele>243.35</ele>
        <time>2021-08-13T14:06:02Z</time>
      </trkpt>
      <trkpt lat="46.60645" lon="3.32464">
        <ele>239.99</ele>
        <time>2021-08-13T14:06:09Z</time>
      </trkpt>
      <trkpt lat="46.60585" lon="3.32482">
        <ele>239.02</ele>
        <time>2021-08-13T14:06:16Z</time>
      </trkpt>
      <trkpt lat="46.60544" lon="3.32513">
        <ele>239.02</ele>
        <time>2021-08-13T14:06:22Z</time>
      </trkpt>
      <trkpt lat="46.60512" lon="3.32537">
        <ele>239.02</ele>
        <time>2021-08-13T14:06:28Z</time>
      </trkpt>
      <trkpt lat="46.60507" lon="3.32539">
        <ele>239.02</ele>
        <time>2021-08-13T14:06:29Z</time>
      </trkpt>
      <trkpt lat="46.60502" lon="3.32541">
        <ele>239.02</ele>
        <time>2021-08-13T14:06:30Z</time>
      </trkpt>
      <trkpt lat="46.60497" lon="3.32544">
        <ele>239.02</ele>
        <time>2021-08-13T14:06:31Z</time>
      </trkpt>
      <trkpt lat="46.60492" lon="3.32546">
        <ele>239.02</ele>
        <time>2021-08-13T14:06:32Z</time>
      </trkpt>
      <trkpt lat="46.60487" lon="3.3255">
        <ele>239.02</ele>
        <time>2021-08-13T14:06:33Z</time>
      </trkpt>
      <trkpt lat="46.60436" lon="3.32587">
        <ele>239.02</ele>
        <time>2021-08-13T14:06:43Z</time>
      </trkpt>
      <trkpt lat="46.60391" lon="3.32625">
        <ele>238.06</ele>
        <time>2021-08-13T14:06:52Z</time>
      </trkpt>
      <trkpt lat="46.60357" lon="3.32667">
        <ele>236.62</ele>
        <time>2021-08-13T14:07:00Z</time>
      </trkpt>
      <trkpt lat="46.60323" lon="3.32714">
        <ele>236.62</ele>
        <time>2021-08-13T14:07:09Z</time>
      </trkpt>
      <trkpt lat="46.6029" lon="3.32757">
        <ele>236.62</ele>
        <time>2021-08-13T14:07:17Z</time>
      </trkpt>
      <trkpt lat="46.60261" lon="3.32786">
        <ele>236.62</ele>
        <time>2021-08-13T14:07:24Z</time>
      </trkpt>
      <trkpt lat="46.60216" lon="3.32819">
        <ele>236.62</ele>
        <time>2021-08-13T14:07:34Z</time>
      </trkpt>
      <trkpt lat="46.60188" lon="3.32842">
        <ele>237.58</ele>
        <time>2021-08-13T14:07:41Z</time>
      </trkpt>
      <trkpt lat="46.6017" lon="3.32857">
        <ele>238.54</ele>
        <time>2021-08-13T14:07:46Z</time>
      </trkpt>
      <trkpt lat="46.60166" lon="3.32857">
        <ele>238.54</ele>
        <time>2021-08-13T14:07:47Z</time>
      </trkpt>
      <trkpt lat="46.60163" lon="3.32854">
        <ele>238.54</ele>
        <time>2021-08-13T14:07:48Z</time>
      </trkpt>
      <trkpt lat="46.60157" lon="3.32847">
        <ele>238.54</ele>
        <time>2021-08-13T14:07:50Z</time>
      </trkpt>
      <trkpt lat="46.60127" lon="3.32802">
        <ele>238.06</ele>
        <time>2021-08-13T14:07:59Z</time>
      </trkpt>
      <trkpt lat="46.60124" lon="3.32797">
        <ele>238.06</ele>
        <time>2021-08-13T14:08:00Z</time>
      </trkpt>
      <trkpt lat="46.60121" lon="3.3279">
        <ele>238.06</ele>
        <time>2021-08-13T14:08:01Z</time>
      </trkpt>
      <trkpt lat="46.60119" lon="3.32785">
        <ele>238.06</ele>
        <time>2021-08-13T14:08:02Z</time>
      </trkpt>
      <trkpt lat="46.60097" lon="3.3274">
        <ele>237.1</ele>
        <time>2021-08-13T14:08:09Z</time>
      </trkpt>
      <trkpt lat="46.60067" lon="3.32679">
        <ele>236.14</ele>
        <time>2021-08-13T14:08:18Z</time>
      </trkpt>
      <trkpt lat="46.60035" lon="3.32609">
        <ele>235.66</ele>
        <time>2021-08-13T14:08:27Z</time>
      </trkpt>
      <trkpt lat="46.59999" lon="3.32522">
        <ele>234.7</ele>
        <time>2021-08-13T14:08:37Z</time>
      </trkpt>
      <trkpt lat="46.59968" lon="3.32438">
        <ele>234.22</ele>
        <time>2021-08-13T14:08:47Z</time>
      </trkpt>
      <trkpt lat="46.59934" lon="3.32357">
        <ele>233.74</ele>
        <time>2021-08-13T14:08:57Z</time>
      </trkpt>
      <trkpt lat="46.59898" lon="3.32292">
        <ele>233.26</ele>
        <time>2021-08-13T14:09:07Z</time>
      </trkpt>
      <trkpt lat="46.59885" lon="3.3227">
        <ele>233.26</ele>
        <time>2021-08-13T14:09:10Z</time>
      </trkpt>
      <trkpt lat="46.59877" lon="3.32257">
        <ele>233.26</ele>
        <time>2021-08-13T14:09:13Z</time>
      </trkpt>
      <trkpt lat="46.59875" lon="3.32251">
        <ele>233.26</ele>
        <time>2021-08-13T14:09:14Z</time>
      </trkpt>
      <trkpt lat="46.59851" lon="3.32205">
        <ele>233.26</ele>
        <time>2021-08-13T14:09:22Z</time>
      </trkpt>
      <trkpt lat="46.5984" lon="3.32183">
        <ele>233.26</ele>
        <time>2021-08-13T14:09:26Z</time>
      </trkpt>
      <trkpt lat="46.59836" lon="3.32174">
        <ele>233.26</ele>
        <time>2021-08-13T14:09:27Z</time>
      </trkpt>
      <trkpt lat="46.59814" lon="3.32131">
        <ele>233.26</ele>
        <time>2021-08-13T14:09:35Z</time>
      </trkpt>
      <trkpt lat="46.59792" lon="3.32093">
        <ele>233.26</ele>
        <time>2021-08-13T14:09:42Z</time>
      </trkpt>
      <trkpt lat="46.59788" lon="3.3208">
        <ele>233.26</ele>
        <time>2021-08-13T14:09:44Z</time>
      </trkpt>
      <trkpt lat="46.59757" lon="3.32013">
        <ele>233.26</ele>
        <time>2021-08-13T14:09:55Z</time>
      </trkpt>
      <trkpt lat="46.59749" lon="3.31997">
        <ele>233.26</ele>
        <time>2021-08-13T14:09:58Z</time>
      </trkpt>
      <trkpt lat="46.59747" lon="3.31992">
        <ele>233.26</ele>
        <time>2021-08-13T14:09:59Z</time>
      </trkpt>
      <trkpt lat="46.59744" lon="3.31987">
        <ele>233.26</ele>
        <time>2021-08-13T14:10:00Z</time>
      </trkpt>
      <trkpt lat="46.59722" lon="3.31947">
        <ele>233.26</ele>
        <time>2021-08-13T14:10:09Z</time>
      </trkpt>
      <trkpt lat="46.597" lon="3.31905">
        <ele>234.22</ele>
        <time>2021-08-13T14:10:18Z</time>
      </trkpt>
      <trkpt lat="46.59667" lon="3.31845">
        <ele>232.78</ele>
        <time>2021-08-13T14:10:30Z</time>
      </trkpt>
      <trkpt lat="46.59642" lon="3.318">
        <ele>232.78</ele>
        <time>2021-08-13T14:10:39Z</time>
      </trkpt>
      <trkpt lat="46.59618" lon="3.31756">
        <ele>232.3</ele>
        <time>2021-08-13T14:10:48Z</time>
      </trkpt>
      <trkpt lat="46.59617" lon="3.31754">
        <ele>232.3</ele>
        <time>2021-08-13T14:10:53Z</time>
      </trkpt>
      <trkpt lat="46.59617" lon="3.31754">
        <ele>232.3</ele>
        <time>2021-08-13T14:11:12Z</time>
      </trkpt>
      <trkpt lat="46.59614" lon="3.31755">
        <ele>232.3</ele>
        <time>2021-08-13T14:11:35Z</time>
      </trkpt>
      <trkpt lat="46.59613" lon="3.3175">
        <ele>232.3</ele>
        <time>2021-08-13T14:11:53Z</time>
      </trkpt>
      <trkpt lat="46.59602" lon="3.31725">
        <ele>232.3</ele>
        <time>2021-08-13T14:11:59Z</time>
      </trkpt>
      <trkpt lat="46.5958" lon="3.31683">
        <ele>231.81</ele>
        <time>2021-08-13T14:12:06Z</time>
      </trkpt>
      <trkpt lat="46.59546" lon="3.31615">
        <ele>230.37</ele>
        <time>2021-08-13T14:12:16Z</time>
      </trkpt>
      <trkpt lat="46.59528" lon="3.31583">
        <ele>230.37</ele>
        <time>2021-08-13T14:12:21Z</time>
      </trkpt>
      <trkpt lat="46.5952" lon="3.31566">
        <ele>231.81</ele>
        <time>2021-08-13T14:12:24Z</time>
      </trkpt>
      <trkpt lat="46.59498" lon="3.31531">
        <ele>233.26</ele>
        <time>2021-08-13T14:12:32Z</time>
      </trkpt>
      <trkpt lat="46.59479" lon="3.31509">
        <ele>233.74</ele>
        <time>2021-08-13T14:12:38Z</time>
      </trkpt>
      <trkpt lat="46.59476" lon="3.31505">
        <ele>233.74</ele>
        <time>2021-08-13T14:12:39Z</time>
      </trkpt>
      <trkpt lat="46.59443" lon="3.31471">
        <ele>233.74</ele>
        <time>2021-08-13T14:12:48Z</time>
      </trkpt>
      <trkpt lat="46.59407" lon="3.31435">
        <ele>232.3</ele>
        <time>2021-08-13T14:12:56Z</time>
      </trkpt>
      <trkpt lat="46.59375" lon="3.31398">
        <ele>228.93</ele>
        <time>2021-08-13T14:13:02Z</time>
      </trkpt>
      <trkpt lat="46.5935" lon="3.31365">
        <ele>227.01</ele>
        <time>2021-08-13T14:13:06Z</time>
      </trkpt>
      <trkpt lat="46.59334" lon="3.31339">
        <ele>227.01</ele>
        <time>2021-08-13T14:13:09Z</time>
      </trkpt>
      <trkpt lat="46.5933" lon="3.3133">
        <ele>226.53</ele>
        <time>2021-08-13T14:13:10Z</time>
      </trkpt>
      <trkpt lat="46.59319" lon="3.31304">
        <ele>226.53</ele>
        <time>2021-08-13T14:13:13Z</time>
      </trkpt>
      <trkpt lat="46.59315" lon="3.31299">
        <ele>226.53</ele>
        <time>2021-08-13T14:13:14Z</time>
      </trkpt>
      <trkpt lat="46.59309" lon="3.31297">
        <ele>226.53</ele>
        <time>2021-08-13T14:13:15Z</time>
      </trkpt>
      <trkpt lat="46.59304" lon="3.31299">
        <ele>226.53</ele>
        <time>2021-08-13T14:13:16Z</time>
      </trkpt>
      <trkpt lat="46.593" lon="3.31304">
        <ele>226.53</ele>
        <time>2021-08-13T14:13:17Z</time>
      </trkpt>
      <trkpt lat="46.59296" lon="3.31309">
        <ele>226.53</ele>
        <time>2021-08-13T14:13:18Z</time>
      </trkpt>
      <trkpt lat="46.5929" lon="3.31316">
        <ele>226.53</ele>
        <time>2021-08-13T14:13:19Z</time>
      </trkpt>
      <trkpt lat="46.59241" lon="3.31384">
        <ele>226.53</ele>
        <time>2021-08-13T14:13:30Z</time>
      </trkpt>
      <trkpt lat="46.59232" lon="3.31396">
        <ele>226.53</ele>
        <time>2021-08-13T14:13:32Z</time>
      </trkpt>
      <trkpt lat="46.59227" lon="3.31402">
        <ele>226.53</ele>
        <time>2021-08-13T14:13:33Z</time>
      </trkpt>
      <trkpt lat="46.59223" lon="3.31407">
        <ele>226.53</ele>
        <time>2021-08-13T14:13:34Z</time>
      </trkpt>
      <trkpt lat="46.59184" lon="3.31457">
        <ele>226.53</ele>
        <time>2021-08-13T14:13:43Z</time>
      </trkpt>
      <trkpt lat="46.59157" lon="3.31491">
        <ele>227.97</ele>
        <time>2021-08-13T14:13:50Z</time>
      </trkpt>
      <trkpt lat="46.59137" lon="3.31519">
        <ele>227.97</ele>
        <time>2021-08-13T14:13:56Z</time>
      </trkpt>
      <trkpt lat="46.59134" lon="3.31523">
        <ele>227.97</ele>
        <time>2021-08-13T14:13:57Z</time>
      </trkpt>
      <trkpt lat="46.59111" lon="3.31553">
        <ele>227.97</ele>
        <time>2021-08-13T14:14:04Z</time>
      </trkpt>
      <trkpt lat="46.59105" lon="3.31561">
        <ele>227.97</ele>
        <time>2021-08-13T14:14:06Z</time>
      </trkpt>
      <trkpt lat="46.59093" lon="3.31576">
        <ele>227.97</ele>
        <time>2021-08-13T14:14:10Z</time>
      </trkpt>
      <trkpt lat="46.5908" lon="3.31594">
        <ele>227.97</ele>
        <time>2021-08-13T14:14:14Z</time>
      </trkpt>
      <trkpt lat="46.59077" lon="3.31598">
        <ele>227.97</ele>
        <time>2021-08-13T14:14:15Z</time>
      </trkpt>
      <trkpt lat="46.59061" lon="3.31619">
        <ele>228.45</ele>
        <time>2021-08-13T14:14:20Z</time>
      </trkpt>
      <trkpt lat="46.59058" lon="3.31623">
        <ele>228.45</ele>
        <time>2021-08-13T14:14:21Z</time>
      </trkpt>
      <trkpt lat="46.59029" lon="3.31659">
        <ele>228.45</ele>
        <time>2021-08-13T14:14:30Z</time>
      </trkpt>
      <trkpt lat="46.59" lon="3.31697">
        <ele>227.97</ele>
        <time>2021-08-13T14:14:39Z</time>
      </trkpt>
      <trkpt lat="46.58997" lon="3.31702">
        <ele>227.97</ele>
        <time>2021-08-13T14:14:40Z</time>
      </trkpt>
      <trkpt lat="46.58994" lon="3.31706">
        <ele>227.97</ele>
        <time>2021-08-13T14:14:41Z</time>
      </trkpt>
      <trkpt lat="46.58967" lon="3.31741">
        <ele>227.97</ele>
        <time>2021-08-13T14:14:49Z</time>
      </trkpt>
      <trkpt lat="46.58943" lon="3.31773">
        <ele>227.97</ele>
        <time>2021-08-13T14:14:56Z</time>
      </trkpt>
      <trkpt lat="46.58939" lon="3.31777">
        <ele>227.97</ele>
        <time>2021-08-13T14:14:57Z</time>
      </trkpt>
      <trkpt lat="46.58922" lon="3.318">
        <ele>227.97</ele>
        <time>2021-08-13T14:15:02Z</time>
      </trkpt>
      <trkpt lat="46.58919" lon="3.31805">
        <ele>227.97</ele>
        <time>2021-08-13T14:15:03Z</time>
      </trkpt>
      <trkpt lat="46.58915" lon="3.31809">
        <ele>227.97</ele>
        <time>2021-08-13T14:15:04Z</time>
      </trkpt>
      <trkpt lat="46.58912" lon="3.31813">
        <ele>227.97</ele>
        <time>2021-08-13T14:15:05Z</time>
      </trkpt>
      <trkpt lat="46.58908" lon="3.31818">
        <ele>227.97</ele>
        <time>2021-08-13T14:15:06Z</time>
      </trkpt>
      <trkpt lat="46.58874" lon="3.31862">
        <ele>227.97</ele>
        <time>2021-08-13T14:15:16Z</time>
      </trkpt>
      <trkpt lat="46.5884" lon="3.31906">
        <ele>227.97</ele>
        <time>2021-08-13T14:15:26Z</time>
      </trkpt>
      <trkpt lat="46.58838" lon="3.31912">
        <ele>227.97</ele>
        <time>2021-08-13T14:15:27Z</time>
      </trkpt>
      <trkpt lat="46.58836" lon="3.31918">
        <ele>227.97</ele>
        <time>2021-08-13T14:15:28Z</time>
      </trkpt>
      <trkpt lat="46.58835" lon="3.31924">
        <ele>227.97</ele>
        <time>2021-08-13T14:15:29Z</time>
      </trkpt>
      <trkpt lat="46.58836" lon="3.3193">
        <ele>227.97</ele>
        <time>2021-08-13T14:15:30Z</time>
      </trkpt>
      <trkpt lat="46.58837" lon="3.31936">
        <ele>227.97</ele>
        <time>2021-08-13T14:15:31Z</time>
      </trkpt>
      <trkpt lat="46.58838" lon="3.31942">
        <ele>227.97</ele>
        <time>2021-08-13T14:15:32Z</time>
      </trkpt>
      <trkpt lat="46.5884" lon="3.31948">
        <ele>227.97</ele>
        <time>2021-08-13T14:15:33Z</time>
      </trkpt>
      <trkpt lat="46.58843" lon="3.3196">
        <ele>227.97</ele>
        <time>2021-08-13T14:15:35Z</time>
      </trkpt>
      <trkpt lat="46.58846" lon="3.31965">
        <ele>227.97</ele>
        <time>2021-08-13T14:15:36Z</time>
      </trkpt>
      <trkpt lat="46.58858" lon="3.31986">
        <ele>228.45</ele>
        <time>2021-08-13T14:15:41Z</time>
      </trkpt>
      <trkpt lat="46.58857" lon="3.3199">
        <ele>228.93</ele>
        <time>2021-08-13T14:15:42Z</time>
      </trkpt>
      <trkpt lat="46.58853" lon="3.31993">
        <ele>228.93</ele>
        <time>2021-08-13T14:15:43Z</time>
      </trkpt>
      <trkpt lat="46.5885" lon="3.31993">
        <ele>228.93</ele>
        <time>2021-08-13T14:15:44Z</time>
      </trkpt>
      <trkpt lat="46.58847" lon="3.31991">
        <ele>228.93</ele>
        <time>2021-08-13T14:15:45Z</time>
      </trkpt>
      <trkpt lat="46.58843" lon="3.31988">
        <ele>228.93</ele>
        <time>2021-08-13T14:15:46Z</time>
      </trkpt>
      <trkpt lat="46.58841" lon="3.31985">
        <ele>229.41</ele>
        <time>2021-08-13T14:15:47Z</time>
      </trkpt>
      <trkpt lat="46.58839" lon="3.31981">
        <ele>229.41</ele>
        <time>2021-08-13T14:15:48Z</time>
      </trkpt>
      <trkpt lat="46.58837" lon="3.31977">
        <ele>229.89</ele>
        <time>2021-08-13T14:15:49Z</time>
      </trkpt>
      <trkpt lat="46.58816" lon="3.31935">
        <ele>231.81</ele>
        <time>2021-08-13T14:15:59Z</time>
      </trkpt>
      <trkpt lat="46.58799" lon="3.31907">
        <ele>232.3</ele>
        <time>2021-08-13T14:16:06Z</time>
      </trkpt>
      <trkpt lat="46.58793" lon="3.31896">
        <ele>232.3</ele>
        <time>2021-08-13T14:16:08Z</time>
      </trkpt>
      <trkpt lat="46.58785" lon="3.31875">
        <ele>229.89</ele>
        <time>2021-08-13T14:16:11Z</time>
      </trkpt>
      <trkpt lat="46.5878" lon="3.31859">
        <ele>229.41</ele>
        <time>2021-08-13T14:16:13Z</time>
      </trkpt>
      <trkpt lat="46.58778" lon="3.3185">
        <ele>228.93</ele>
        <time>2021-08-13T14:16:14Z</time>
      </trkpt>
      <trkpt lat="46.58766" lon="3.31764">
        <ele>227.49</ele>
        <time>2021-08-13T14:16:23Z</time>
      </trkpt>
      <trkpt lat="46.58749" lon="3.31699">
        <ele>227.49</ele>
        <time>2021-08-13T14:16:31Z</time>
      </trkpt>
      <trkpt lat="46.58729" lon="3.31628">
        <ele>227.01</ele>
        <time>2021-08-13T14:16:41Z</time>
      </trkpt>
      <trkpt lat="46.58727" lon="3.31611">
        <ele>227.01</ele>
        <time>2021-08-13T14:16:46Z</time>
      </trkpt>
      <trkpt lat="46.58728" lon="3.31613">
        <ele>227.01</ele>
        <time>2021-08-13T14:16:58Z</time>
      </trkpt>
      <trkpt lat="46.58728" lon="3.31611">
        <ele>227.01</ele>
        <time>2021-08-13T14:17:00Z</time>
      </trkpt>
      <trkpt lat="46.58729" lon="3.31609">
        <ele>227.01</ele>
        <time>2021-08-13T14:17:01Z</time>
      </trkpt>
      <trkpt lat="46.5873" lon="3.31605">
        <ele>227.01</ele>
        <time>2021-08-13T14:17:02Z</time>
      </trkpt>
      <trkpt lat="46.5873" lon="3.316">
        <ele>227.01</ele>
        <time>2021-08-13T14:17:03Z</time>
      </trkpt>
      <trkpt lat="46.5873" lon="3.31596">
        <ele>227.01</ele>
        <time>2021-08-13T14:17:04Z</time>
      </trkpt>
      <trkpt lat="46.5873" lon="3.31589">
        <ele>227.01</ele>
        <time>2021-08-13T14:17:05Z</time>
      </trkpt>
      <trkpt lat="46.58728" lon="3.31585">
        <ele>227.01</ele>
        <time>2021-08-13T14:17:06Z</time>
      </trkpt>
      <trkpt lat="46.58726" lon="3.3158">
        <ele>227.01</ele>
        <time>2021-08-13T14:17:07Z</time>
      </trkpt>
      <trkpt lat="46.58722" lon="3.31577">
        <ele>227.01</ele>
        <time>2021-08-13T14:17:08Z</time>
      </trkpt>
      <trkpt lat="46.58717" lon="3.31577">
        <ele>227.01</ele>
        <time>2021-08-13T14:17:09Z</time>
      </trkpt>
      <trkpt lat="46.58713" lon="3.3158">
        <ele>227.01</ele>
        <time>2021-08-13T14:17:10Z</time>
      </trkpt>
      <trkpt lat="46.58709" lon="3.31585">
        <ele>227.01</ele>
        <time>2021-08-13T14:17:11Z</time>
      </trkpt>
      <trkpt lat="46.58705" lon="3.3159">
        <ele>227.01</ele>
        <time>2021-08-13T14:17:12Z</time>
      </trkpt>
      <trkpt lat="46.58702" lon="3.31596">
        <ele>227.01</ele>
        <time>2021-08-13T14:17:13Z</time>
      </trkpt>
      <trkpt lat="46.58699" lon="3.31601">
        <ele>226.53</ele>
        <time>2021-08-13T14:17:14Z</time>
      </trkpt>
      <trkpt lat="46.58695" lon="3.31606">
        <ele>226.53</ele>
        <time>2021-08-13T14:17:15Z</time>
      </trkpt>
      <trkpt lat="46.58685" lon="3.31614">
        <ele>226.53</ele>
        <time>2021-08-13T14:17:17Z</time>
      </trkpt>
      <trkpt lat="46.5868" lon="3.31617">
        <ele>226.53</ele>
        <time>2021-08-13T14:17:18Z</time>
      </trkpt>
      <trkpt lat="46.5863" lon="3.31655">
        <ele>226.05</ele>
        <time>2021-08-13T14:17:28Z</time>
      </trkpt>
      <trkpt lat="46.58581" lon="3.31693">
        <ele>226.05</ele>
        <time>2021-08-13T14:17:38Z</time>
      </trkpt>
      <trkpt lat="46.58534" lon="3.31729">
        <ele>225.57</ele>
        <time>2021-08-13T14:17:47Z</time>
      </trkpt>
      <trkpt lat="46.58489" lon="3.31763">
        <ele>225.09</ele>
        <time>2021-08-13T14:17:56Z</time>
      </trkpt>
      <trkpt lat="46.58446" lon="3.31795">
        <ele>224.61</ele>
        <time>2021-08-13T14:18:04Z</time>
      </trkpt>
      <trkpt lat="46.58414" lon="3.31819">
        <ele>224.12</ele>
        <time>2021-08-13T14:18:10Z</time>
      </trkpt>
      <trkpt lat="46.5839" lon="3.31834">
        <ele>224.12</ele>
        <time>2021-08-13T14:18:14Z</time>
      </trkpt>
      <trkpt lat="46.58378" lon="3.31837">
        <ele>223.16</ele>
        <time>2021-08-13T14:18:16Z</time>
      </trkpt>
      <trkpt lat="46.58372" lon="3.31842">
        <ele>223.16</ele>
        <time>2021-08-13T14:18:17Z</time>
      </trkpt>
      <trkpt lat="46.58334" lon="3.31883">
        <ele>222.68</ele>
        <time>2021-08-13T14:18:25Z</time>
      </trkpt>
      <trkpt lat="46.58274" lon="3.31929">
        <ele>222.68</ele>
        <time>2021-08-13T14:18:37Z</time>
      </trkpt>
      <trkpt lat="46.58237" lon="3.31959">
        <ele>224.12</ele>
        <time>2021-08-13T14:18:45Z</time>
      </trkpt>
      <trkpt lat="46.58232" lon="3.31962">
        <ele>224.12</ele>
        <time>2021-08-13T14:18:46Z</time>
      </trkpt>
      <trkpt lat="46.58185" lon="3.31999">
        <ele>225.09</ele>
        <time>2021-08-13T14:18:57Z</time>
      </trkpt>
      <trkpt lat="46.5815" lon="3.32026">
        <ele>226.05</ele>
        <time>2021-08-13T14:19:06Z</time>
      </trkpt>
      <trkpt lat="46.58135" lon="3.32039">
        <ele>226.05</ele>
        <time>2021-08-13T14:19:10Z</time>
      </trkpt>
      <trkpt lat="46.5813" lon="3.32041">
        <ele>226.05</ele>
        <time>2021-08-13T14:19:11Z</time>
      </trkpt>
      <trkpt lat="46.58126" lon="3.32044">
        <ele>226.05</ele>
        <time>2021-08-13T14:19:12Z</time>
      </trkpt>
      <trkpt lat="46.58123" lon="3.32047">
        <ele>226.53</ele>
        <time>2021-08-13T14:19:13Z</time>
      </trkpt>
      <trkpt lat="46.5812" lon="3.3205">
        <ele>226.53</ele>
        <time>2021-08-13T14:19:14Z</time>
      </trkpt>
      <trkpt lat="46.58116" lon="3.32055">
        <ele>226.53</ele>
        <time>2021-08-13T14:19:15Z</time>
      </trkpt>
      <trkpt lat="46.58113" lon="3.3206">
        <ele>226.53</ele>
        <time>2021-08-13T14:19:16Z</time>
      </trkpt>
      <trkpt lat="46.5811" lon="3.32065">
        <ele>226.53</ele>
        <time>2021-08-13T14:19:17Z</time>
      </trkpt>
      <trkpt lat="46.58102" lon="3.32082">
        <ele>226.05</ele>
        <time>2021-08-13T14:19:20Z</time>
      </trkpt>
      <trkpt lat="46.58068" lon="3.32131">
        <ele>226.05</ele>
        <time>2021-08-13T14:19:30Z</time>
      </trkpt>
      <trkpt lat="46.58026" lon="3.3219">
        <ele>226.05</ele>
        <time>2021-08-13T14:19:41Z</time>
      </trkpt>
      <trkpt lat="46.58013" lon="3.32209">
        <ele>224.61</ele>
        <time>2021-08-13T14:19:44Z</time>
      </trkpt>
      <trkpt lat="46.57975" lon="3.32265">
        <ele>223.64</ele>
        <time>2021-08-13T14:19:53Z</time>
      </trkpt>
      <trkpt lat="46.57934" lon="3.32319">
        <ele>223.64</ele>
        <time>2021-08-13T14:20:03Z</time>
      </trkpt>
      <trkpt lat="46.57929" lon="3.32323">
        <ele>223.16</ele>
        <time>2021-08-13T14:20:04Z</time>
      </trkpt>
      <trkpt lat="46.57892" lon="3.32343">
        <ele>223.16</ele>
        <time>2021-08-13T14:20:11Z</time>
      </trkpt>
      <trkpt lat="46.57877" lon="3.32351">
        <ele>223.16</ele>
        <time>2021-08-13T14:20:14Z</time>
      </trkpt>
      <trkpt lat="46.5782" lon="3.32378">
        <ele>222.68</ele>
        <time>2021-08-13T14:20:25Z</time>
      </trkpt>
      <trkpt lat="46.57814" lon="3.32379">
        <ele>222.68</ele>
        <time>2021-08-13T14:20:26Z</time>
      </trkpt>
      <trkpt lat="46.57809" lon="3.32378">
        <ele>222.68</ele>
        <time>2021-08-13T14:20:27Z</time>
      </trkpt>
      <trkpt lat="46.57804" lon="3.32374">
        <ele>222.68</ele>
        <time>2021-08-13T14:20:28Z</time>
      </trkpt>
      <trkpt lat="46.578" lon="3.32367">
        <ele>222.68</ele>
        <time>2021-08-13T14:20:29Z</time>
      </trkpt>
      <trkpt lat="46.57797" lon="3.32362">
        <ele>222.68</ele>
        <time>2021-08-13T14:20:30Z</time>
      </trkpt>
      <trkpt lat="46.57777" lon="3.32322">
        <ele>219.32</ele>
        <time>2021-08-13T14:20:35Z</time>
      </trkpt>
      <trkpt lat="46.57741" lon="3.32252">
        <ele>216.91</ele>
        <time>2021-08-13T14:20:42Z</time>
      </trkpt>
      <trkpt lat="46.57702" lon="3.32183">
        <ele>215.47</ele>
        <time>2021-08-13T14:20:50Z</time>
      </trkpt>
      <trkpt lat="46.57667" lon="3.32125">
        <ele>215.47</ele>
        <time>2021-08-13T14:20:58Z</time>
      </trkpt>
      <trkpt lat="46.57622" lon="3.32062">
        <ele>215.47</ele>
        <time>2021-08-13T14:21:08Z</time>
      </trkpt>
      <trkpt lat="46.57606" lon="3.32038">
        <ele>215.47</ele>
        <time>2021-08-13T14:21:12Z</time>
      </trkpt>
      <trkpt lat="46.57603" lon="3.32032">
        <ele>215.47</ele>
        <time>2021-08-13T14:21:13Z</time>
      </trkpt>
      <trkpt lat="46.57592" lon="3.32006">
        <ele>215.47</ele>
        <time>2021-08-13T14:21:17Z</time>
      </trkpt>
      <trkpt lat="46.5759" lon="3.32001">
        <ele>215.47</ele>
        <time>2021-08-13T14:21:18Z</time>
      </trkpt>
      <trkpt lat="46.57578" lon="3.3197">
        <ele>215.47</ele>
        <time>2021-08-13T14:21:25Z</time>
      </trkpt>
      <trkpt lat="46.57579" lon="3.3197">
        <ele>215.47</ele>
        <time>2021-08-13T14:21:30Z</time>
      </trkpt>
      <trkpt lat="46.57577" lon="3.3197">
        <ele>214.99</ele>
        <time>2021-08-13T14:21:44Z</time>
      </trkpt>
      <trkpt lat="46.57577" lon="3.31968">
        <ele>214.99</ele>
        <time>2021-08-13T14:21:45Z</time>
      </trkpt>
      <trkpt lat="46.57569" lon="3.31947">
        <ele>215.47</ele>
        <time>2021-08-13T14:21:50Z</time>
      </trkpt>
      <trkpt lat="46.5756" lon="3.31924">
        <ele>214.99</ele>
        <time>2021-08-13T14:21:54Z</time>
      </trkpt>
      <trkpt lat="46.57544" lon="3.31877">
        <ele>214.99</ele>
        <time>2021-08-13T14:22:01Z</time>
      </trkpt>
      <trkpt lat="46.57541" lon="3.31869">
        <ele>214.99</ele>
        <time>2021-08-13T14:22:02Z</time>
      </trkpt>
      <trkpt lat="46.57527" lon="3.31826">
        <ele>214.99</ele>
        <time>2021-08-13T14:22:09Z</time>
      </trkpt>
      <trkpt lat="46.57523" lon="3.31816">
        <ele>215.47</ele>
        <time>2021-08-13T14:22:11Z</time>
      </trkpt>
      <trkpt lat="46.57519" lon="3.31814">
        <ele>215.47</ele>
        <time>2021-08-13T14:22:12Z</time>
      </trkpt>
      <trkpt lat="46.57515" lon="3.31813">
        <ele>215.47</ele>
        <time>2021-08-13T14:22:13Z</time>
      </trkpt>
      <trkpt lat="46.57511" lon="3.31813">
        <ele>216.43</ele>
        <time>2021-08-13T14:22:14Z</time>
      </trkpt>
      <trkpt lat="46.57506" lon="3.31816">
        <ele>216.43</ele>
        <time>2021-08-13T14:22:15Z</time>
      </trkpt>
      <trkpt lat="46.57501" lon="3.31818">
        <ele>216.43</ele>
        <time>2021-08-13T14:22:16Z</time>
      </trkpt>
      <trkpt lat="46.57471" lon="3.31839">
        <ele>216.91</ele>
        <time>2021-08-13T14:22:22Z</time>
      </trkpt>
      <trkpt lat="46.5744" lon="3.31859">
        <ele>216.91</ele>
        <time>2021-08-13T14:22:28Z</time>
      </trkpt>
      <trkpt lat="46.57398" lon="3.31888">
        <ele>215.47</ele>
        <time>2021-08-13T14:22:37Z</time>
      </trkpt>
      <trkpt lat="46.57355" lon="3.31916">
        <ele>215.47</ele>
        <time>2021-08-13T14:22:46Z</time>
      </trkpt>
      <trkpt lat="46.57311" lon="3.31943">
        <ele>215.47</ele>
        <time>2021-08-13T14:22:55Z</time>
      </trkpt>
      <trkpt lat="46.57269" lon="3.31973">
        <ele>215.47</ele>
        <time>2021-08-13T14:23:03Z</time>
      </trkpt>
      <trkpt lat="46.57237" lon="3.31995">
        <ele>215.47</ele>
        <time>2021-08-13T14:23:09Z</time>
      </trkpt>
      <trkpt lat="46.57214" lon="3.3201">
        <ele>215.47</ele>
        <time>2021-08-13T14:23:13Z</time>
      </trkpt>
      <trkpt lat="46.57164" lon="3.32043">
        <ele>215.47</ele>
        <time>2021-08-13T14:23:22Z</time>
      </trkpt>
      <trkpt lat="46.5711" lon="3.3208">
        <ele>215.47</ele>
        <time>2021-08-13T14:23:32Z</time>
      </trkpt>
      <trkpt lat="46.57064" lon="3.32111">
        <ele>215.47</ele>
        <time>2021-08-13T14:23:41Z</time>
      </trkpt>
      <trkpt lat="46.57018" lon="3.32141">
        <ele>215.47</ele>
        <time>2021-08-13T14:23:50Z</time>
      </trkpt>
      <trkpt lat="46.56955" lon="3.32184">
        <ele>215.47</ele>
        <time>2021-08-13T14:24:02Z</time>
      </trkpt>
      <trkpt lat="46.56901" lon="3.32221">
        <ele>216.91</ele>
        <time>2021-08-13T14:24:13Z</time>
      </trkpt>
      <trkpt lat="46.56891" lon="3.32227">
        <ele>216.91</ele>
        <time>2021-08-13T14:24:15Z</time>
      </trkpt>
      <trkpt lat="46.56887" lon="3.3223">
        <ele>216.91</ele>
        <time>2021-08-13T14:24:16Z</time>
      </trkpt>
      <trkpt lat="46.56839" lon="3.32258">
        <ele>216.91</ele>
        <time>2021-08-13T14:24:26Z</time>
      </trkpt>
      <trkpt lat="46.56829" lon="3.32262">
        <ele>216.91</ele>
        <time>2021-08-13T14:24:28Z</time>
      </trkpt>
      <trkpt lat="46.56806" lon="3.32272">
        <ele>217.4</ele>
        <time>2021-08-13T14:24:33Z</time>
      </trkpt>
      <trkpt lat="46.56791" lon="3.3228">
        <ele>217.4</ele>
        <time>2021-08-13T14:24:36Z</time>
      </trkpt>
      <trkpt lat="46.56787" lon="3.32283">
        <ele>217.4</ele>
        <time>2021-08-13T14:24:37Z</time>
      </trkpt>
      <trkpt lat="46.56783" lon="3.32289">
        <ele>217.4</ele>
        <time>2021-08-13T14:24:38Z</time>
      </trkpt>
      <trkpt lat="46.56781" lon="3.32294">
        <ele>217.88</ele>
        <time>2021-08-13T14:24:39Z</time>
      </trkpt>
      <trkpt lat="46.56781" lon="3.32301">
        <ele>217.88</ele>
        <time>2021-08-13T14:24:40Z</time>
      </trkpt>
      <trkpt lat="46.56782" lon="3.32308">
        <ele>217.88</ele>
        <time>2021-08-13T14:24:41Z</time>
      </trkpt>
      <trkpt lat="46.56786" lon="3.32315">
        <ele>217.88</ele>
        <time>2021-08-13T14:24:42Z</time>
      </trkpt>
      <trkpt lat="46.56789" lon="3.3232">
        <ele>217.88</ele>
        <time>2021-08-13T14:24:43Z</time>
      </trkpt>
      <trkpt lat="46.56795" lon="3.32331">
        <ele>217.88</ele>
        <time>2021-08-13T14:24:45Z</time>
      </trkpt>
      <trkpt lat="46.56802" lon="3.32347">
        <ele>217.88</ele>
        <time>2021-08-13T14:24:49Z</time>
      </trkpt>
      <trkpt lat="46.568" lon="3.32348">
        <ele>217.88</ele>
        <time>2021-08-13T14:24:50Z</time>
      </trkpt>
      <trkpt lat="46.56789" lon="3.3235">
        <ele>216.91</ele>
        <time>2021-08-13T14:24:58Z</time>
      </trkpt>
      <trkpt lat="46.56789" lon="3.32348">
        <ele>216.91</ele>
        <time>2021-08-13T14:25:10Z</time>
      </trkpt>
      <trkpt lat="46.56788" lon="3.3235">
        <ele>216.91</ele>
        <time>2021-08-13T14:25:26Z</time>
      </trkpt>
      <trkpt lat="46.56789" lon="3.32347">
        <ele>216.91</ele>
        <time>2021-08-13T14:25:45Z</time>
      </trkpt>
      <trkpt lat="46.56788" lon="3.32348">
        <ele>216.91</ele>
        <time>2021-08-13T14:26:09Z</time>
      </trkpt>
      <trkpt lat="46.56788" lon="3.32349">
        <ele>216.91</ele>
        <time>2021-08-13T14:26:31Z</time>
      </trkpt>
      <trkpt lat="46.56788" lon="3.3235">
        <ele>216.91</ele>
        <time>2021-08-13T14:26:57Z</time>
      </trkpt>
      <trkpt lat="46.56787" lon="3.32351">
        <ele>216.91</ele>
        <time>2021-08-13T14:27:17Z</time>
      </trkpt>
      <trkpt lat="46.56788" lon="3.32351">
        <ele>216.91</ele>
        <time>2021-08-13T14:27:39Z</time>
      </trkpt>
      <trkpt lat="46.56787" lon="3.32352">
        <ele>216.91</ele>
        <time>2021-08-13T14:27:49Z</time>
      </trkpt>
      <trkpt lat="46.56786" lon="3.32353">
        <ele>216.91</ele>
        <time>2021-08-13T14:27:50Z</time>
      </trkpt>
      <trkpt lat="46.56785" lon="3.32355">
        <ele>216.91</ele>
        <time>2021-08-13T14:27:51Z</time>
      </trkpt>
      <trkpt lat="46.56783" lon="3.3236">
        <ele>216.91</ele>
        <time>2021-08-13T14:27:53Z</time>
      </trkpt>
      <trkpt lat="46.56782" lon="3.32363">
        <ele>216.91</ele>
        <time>2021-08-13T14:27:54Z</time>
      </trkpt>
      <trkpt lat="46.56783" lon="3.32367">
        <ele>216.91</ele>
        <time>2021-08-13T14:27:55Z</time>
      </trkpt>
      <trkpt lat="46.56783" lon="3.32371">
        <ele>216.91</ele>
        <time>2021-08-13T14:27:56Z</time>
      </trkpt>
      <trkpt lat="46.56783" lon="3.32374">
        <ele>216.91</ele>
        <time>2021-08-13T14:27:57Z</time>
      </trkpt>
      <trkpt lat="46.56784" lon="3.32377">
        <ele>216.91</ele>
        <time>2021-08-13T14:27:58Z</time>
      </trkpt>
      <trkpt lat="46.56786" lon="3.3238">
        <ele>216.91</ele>
        <time>2021-08-13T14:27:59Z</time>
      </trkpt>
      <trkpt lat="46.56789" lon="3.32382">
        <ele>216.91</ele>
        <time>2021-08-13T14:28:00Z</time>
      </trkpt>
      <trkpt lat="46.56791" lon="3.32383">
        <ele>216.91</ele>
        <time>2021-08-13T14:28:01Z</time>
      </trkpt>
      <trkpt lat="46.56794" lon="3.32382">
        <ele>216.91</ele>
        <time>2021-08-13T14:28:02Z</time>
      </trkpt>
      <trkpt lat="46.56795" lon="3.32382">
        <ele>216.91</ele>
        <time>2021-08-13T14:28:03Z</time>
      </trkpt>
      <trkpt lat="46.56796" lon="3.32383">
        <ele>216.91</ele>
        <time>2021-08-13T14:28:04Z</time>
      </trkpt>
      <trkpt lat="46.56798" lon="3.32385">
        <ele>216.91</ele>
        <time>2021-08-13T14:28:05Z</time>
      </trkpt>
      <trkpt lat="46.56799" lon="3.32386">
        <ele>216.91</ele>
        <time>2021-08-13T14:28:06Z</time>
      </trkpt>
      <trkpt lat="46.568" lon="3.32387">
        <ele>216.91</ele>
        <time>2021-08-13T14:28:07Z</time>
      </trkpt>
      <trkpt lat="46.56802" lon="3.32388">
        <ele>216.91</ele>
        <time>2021-08-13T14:28:08Z</time>
      </trkpt>
      <trkpt lat="46.56814" lon="3.32402">
        <ele>216.43</ele>
        <time>2021-08-13T14:28:13Z</time>
      </trkpt>
      <trkpt lat="46.56826" lon="3.3243">
        <ele>216.43</ele>
        <time>2021-08-13T14:28:19Z</time>
      </trkpt>
      <trkpt lat="46.56842" lon="3.32466">
        <ele>216.43</ele>
        <time>2021-08-13T14:28:28Z</time>
      </trkpt>
      <trkpt lat="46.5686" lon="3.32502">
        <ele>216.43</ele>
        <time>2021-08-13T14:28:36Z</time>
      </trkpt>
      <trkpt lat="46.56884" lon="3.32551">
        <ele>216.43</ele>
        <time>2021-08-13T14:28:46Z</time>
      </trkpt>
      <trkpt lat="46.56895" lon="3.32577">
        <ele>216.43</ele>
        <time>2021-08-13T14:28:52Z</time>
      </trkpt>
      <trkpt lat="46.56894" lon="3.32582">
        <ele>216.43</ele>
        <time>2021-08-13T14:28:53Z</time>
      </trkpt>
      <trkpt lat="46.56884" lon="3.32617">
        <ele>216.43</ele>
        <time>2021-08-13T14:29:00Z</time>
      </trkpt>
      <trkpt lat="46.56863" lon="3.32636">
        <ele>216.43</ele>
        <time>2021-08-13T14:29:07Z</time>
      </trkpt>
      <trkpt lat="46.56846" lon="3.32654">
        <ele>215.95</ele>
        <time>2021-08-13T14:29:14Z</time>
      </trkpt>
      <trkpt lat="46.56826" lon="3.32673">
        <ele>215.95</ele>
        <time>2021-08-13T14:29:22Z</time>
      </trkpt>
      <trkpt lat="46.56807" lon="3.32673">
        <ele>215.95</ele>
        <time>2021-08-13T14:29:28Z</time>
      </trkpt>
      <trkpt lat="46.56781" lon="3.32672">
        <ele>215.95</ele>
        <time>2021-08-13T14:29:36Z</time>
      </trkpt>
      <trkpt lat="46.56755" lon="3.32677">
        <ele>215.95</ele>
        <time>2021-08-13T14:29:44Z</time>
      </trkpt>
      <trkpt lat="46.5675" lon="3.32678">
        <ele>215.95</ele>
        <time>2021-08-13T14:29:49Z</time>
      </trkpt>
      <trkpt lat="46.56741" lon="3.32677">
        <ele>215.95</ele>
        <time>2021-08-13T14:29:54Z</time>
      </trkpt>
      <trkpt lat="46.56726" lon="3.32679">
        <ele>215.95</ele>
        <time>2021-08-13T14:29:59Z</time>
      </trkpt>
      <trkpt lat="46.56713" lon="3.32682">
        <ele>217.4</ele>
        <time>2021-08-13T14:30:03Z</time>
      </trkpt>
      <trkpt lat="46.56692" lon="3.32689">
        <ele>217.4</ele>
        <time>2021-08-13T14:30:10Z</time>
      </trkpt>
      <trkpt lat="46.56687" lon="3.32689">
        <ele>217.4</ele>
        <time>2021-08-13T14:30:16Z</time>
      </trkpt>
      <trkpt lat="46.56682" lon="3.32684">
        <ele>217.4</ele>
        <time>2021-08-13T14:30:23Z</time>
      </trkpt>
      <trkpt lat="46.5668" lon="3.32681">
        <ele>217.4</ele>
        <time>2021-08-13T14:30:26Z</time>
      </trkpt>
      <trkpt lat="46.56679" lon="3.32679">
        <ele>217.4</ele>
        <time>2021-08-13T14:30:27Z</time>
      </trkpt>
      <trkpt lat="46.56679" lon="3.32677">
        <ele>217.4</ele>
        <time>2021-08-13T14:30:28Z</time>
      </trkpt>
      <trkpt lat="46.56677" lon="3.32672">
        <ele>217.4</ele>
        <time>2021-08-13T14:30:34Z</time>
      </trkpt>
      <trkpt lat="46.56678" lon="3.32673">
        <ele>217.4</ele>
        <time>2021-08-13T14:30:49Z</time>
      </trkpt>
      <trkpt lat="46.56677" lon="3.32675">
        <ele>217.4</ele>
        <time>2021-08-13T14:31:00Z</time>
      </trkpt>
      <trkpt lat="46.56676" lon="3.32675">
        <ele>217.4</ele>
        <time>2021-08-13T14:31:13Z</time>
      </trkpt>
      <trkpt lat="46.56675" lon="3.32677">
        <ele>217.4</ele>
        <time>2021-08-13T14:31:28Z</time>
      </trkpt>
      <trkpt lat="46.56675" lon="3.3268">
        <ele>217.4</ele>
        <time>2021-08-13T14:31:44Z</time>
      </trkpt>
      <trkpt lat="46.56674" lon="3.32679">
        <ele>217.4</ele>
        <time>2021-08-13T14:31:56Z</time>
      </trkpt>
      <trkpt lat="46.56675" lon="3.3268">
        <ele>217.4</ele>
        <time>2021-08-13T14:32:12Z</time>
      </trkpt>
      <trkpt lat="46.56675" lon="3.3268">
        <ele>217.4</ele>
        <time>2021-08-13T14:32:32Z</time>
      </trkpt>
      <trkpt lat="46.56675" lon="3.32678">
        <ele>217.4</ele>
        <time>2021-08-13T14:32:49Z</time>
      </trkpt>
      <trkpt lat="46.56676" lon="3.3268">
        <ele>217.4</ele>
        <time>2021-08-13T14:32:58Z</time>
      </trkpt>
      <trkpt lat="46.56676" lon="3.32683">
        <ele>217.4</ele>
        <time>2021-08-13T14:32:59Z</time>
      </trkpt>
      <trkpt lat="46.56677" lon="3.32684">
        <ele>217.4</ele>
        <time>2021-08-13T14:33:03Z</time>
      </trkpt>
      <trkpt lat="46.56676" lon="3.32686">
        <ele>217.4</ele>
        <time>2021-08-13T14:33:04Z</time>
      </trkpt>
      <trkpt lat="46.56675" lon="3.32693">
        <ele>217.4</ele>
        <time>2021-08-13T14:33:05Z</time>
      </trkpt>
      <trkpt lat="46.56674" lon="3.32697">
        <ele>217.4</ele>
        <time>2021-08-13T14:33:06Z</time>
      </trkpt>
      <trkpt lat="46.56675" lon="3.32697">
        <ele>217.4</ele>
        <time>2021-08-13T14:33:09Z</time>
      </trkpt>
      <trkpt lat="46.56674" lon="3.32688">
        <ele>217.4</ele>
        <time>2021-08-13T14:33:21Z</time>
      </trkpt>
      <trkpt lat="46.56674" lon="3.32684">
        <ele>217.4</ele>
        <time>2021-08-13T14:33:32Z</time>
      </trkpt>
      <trkpt lat="46.56675" lon="3.32681">
        <ele>217.4</ele>
        <time>2021-08-13T14:33:47Z</time>
      </trkpt>
      <trkpt lat="46.56675" lon="3.32681">
        <ele>217.4</ele>
        <time>2021-08-13T14:34:00Z</time>
      </trkpt>
      <trkpt lat="46.56675" lon="3.32676">
        <ele>217.4</ele>
        <time>2021-08-13T14:34:14Z</time>
      </trkpt>
      <trkpt lat="46.56675" lon="3.32678">
        <ele>217.4</ele>
        <time>2021-08-13T14:34:24Z</time>
      </trkpt>
      <trkpt lat="46.56676" lon="3.3268">
        <ele>217.4</ele>
        <time>2021-08-13T14:34:39Z</time>
      </trkpt>
      <trkpt lat="46.56677" lon="3.32675">
        <ele>217.4</ele>
        <time>2021-08-13T14:34:54Z</time>
      </trkpt>
      <trkpt lat="46.56675" lon="3.32677">
        <ele>217.4</ele>
        <time>2021-08-13T14:35:10Z</time>
      </trkpt>
      <trkpt lat="46.56674" lon="3.32676">
        <ele>217.4</ele>
        <time>2021-08-13T14:35:28Z</time>
      </trkpt>
      <trkpt lat="46.56676" lon="3.32678">
        <ele>217.4</ele>
        <time>2021-08-13T14:35:44Z</time>
      </trkpt>
      <trkpt lat="46.56674" lon="3.32676">
        <ele>217.4</ele>
        <time>2021-08-13T14:35:59Z</time>
      </trkpt>
      <trkpt lat="46.56674" lon="3.32676">
        <ele>217.4</ele>
        <time>2021-08-13T14:36:15Z</time>
      </trkpt>
      <trkpt lat="46.56674" lon="3.32681">
        <ele>217.4</ele>
        <time>2021-08-13T14:36:28Z</time>
      </trkpt>
      <trkpt lat="46.56673" lon="3.32689">
        <ele>217.4</ele>
        <time>2021-08-13T14:36:48Z</time>
      </trkpt>
      <trkpt lat="46.56673" lon="3.32687">
        <ele>216.91</ele>
        <time>2021-08-13T14:37:08Z</time>
      </trkpt>
      <trkpt lat="46.56674" lon="3.32686">
        <ele>216.91</ele>
        <time>2021-08-13T14:37:18Z</time>
      </trkpt>
      <trkpt lat="46.56674" lon="3.32685">
        <ele>216.91</ele>
        <time>2021-08-13T14:37:33Z</time>
      </trkpt>
      <trkpt lat="46.56674" lon="3.32685">
        <ele>216.91</ele>
        <time>2021-08-13T14:37:46Z</time>
      </trkpt>
      <trkpt lat="46.56673" lon="3.32684">
        <ele>216.91</ele>
        <time>2021-08-13T14:37:53Z</time>
      </trkpt>
      <trkpt lat="46.56672" lon="3.32684">
        <ele>216.91</ele>
        <time>2021-08-13T14:38:00Z</time>
      </trkpt>
      <trkpt lat="46.56672" lon="3.32681">
        <ele>216.91</ele>
        <time>2021-08-13T14:38:10Z</time>
      </trkpt>
      <trkpt lat="46.56674" lon="3.32683">
        <ele>216.91</ele>
        <time>2021-08-13T14:38:29Z</time>
      </trkpt>
      <trkpt lat="46.56675" lon="3.32685">
        <ele>216.91</ele>
        <time>2021-08-13T14:38:46Z</time>
      </trkpt>
      <trkpt lat="46.56674" lon="3.32682">
        <ele>216.91</ele>
        <time>2021-08-13T14:39:02Z</time>
      </trkpt>
      <trkpt lat="46.56675" lon="3.32682">
        <ele>216.91</ele>
        <time>2021-08-13T14:39:16Z</time>
      </trkpt>
      <trkpt lat="46.56675" lon="3.32686">
        <ele>216.91</ele>
        <time>2021-08-13T14:39:30Z</time>
      </trkpt>
      <trkpt lat="46.56675" lon="3.32686">
        <ele>216.91</ele>
        <time>2021-08-13T14:39:42Z</time>
      </trkpt>
      <trkpt lat="46.56672" lon="3.32683">
        <ele>216.91</ele>
        <time>2021-08-13T14:40:05Z</time>
      </trkpt>
      <trkpt lat="46.56674" lon="3.32688">
        <ele>216.91</ele>
        <time>2021-08-13T14:40:24Z</time>
      </trkpt>
      <trkpt lat="46.56674" lon="3.32689">
        <ele>216.91</ele>
        <time>2021-08-13T14:40:41Z</time>
      </trkpt>
      <trkpt lat="46.56674" lon="3.32684">
        <ele>216.91</ele>
        <time>2021-08-13T14:40:57Z</time>
      </trkpt>
      <trkpt lat="46.56676" lon="3.32682">
        <ele>216.91</ele>
        <time>2021-08-13T14:41:13Z</time>
      </trkpt>
      <trkpt lat="46.56679" lon="3.32684">
        <ele>216.91</ele>
        <time>2021-08-13T14:41:35Z</time>
      </trkpt>
      <trkpt lat="46.56678" lon="3.3268">
        <ele>216.91</ele>
        <time>2021-08-13T14:41:47Z</time>
      </trkpt>
      <trkpt lat="46.56679" lon="3.32682">
        <ele>216.91</ele>
        <time>2021-08-13T14:41:58Z</time>
      </trkpt>
      <trkpt lat="46.56677" lon="3.32683">
        <ele>216.91</ele>
        <time>2021-08-13T14:42:10Z</time>
      </trkpt>
      <trkpt lat="46.56676" lon="3.32683">
        <ele>216.91</ele>
        <time>2021-08-13T14:42:28Z</time>
      </trkpt>
      <trkpt lat="46.56676" lon="3.32682">
        <ele>216.91</ele>
        <time>2021-08-13T14:42:41Z</time>
      </trkpt>
      <trkpt lat="46.56675" lon="3.32686">
        <ele>216.91</ele>
        <time>2021-08-13T14:42:55Z</time>
      </trkpt>
      <trkpt lat="46.56676" lon="3.32685">
        <ele>216.91</ele>
        <time>2021-08-13T14:43:01Z</time>
      </trkpt>
      <trkpt lat="46.56675" lon="3.32683">
        <ele>216.91</ele>
        <time>2021-08-13T14:43:09Z</time>
      </trkpt>
      <trkpt lat="46.56675" lon="3.32687">
        <ele>216.91</ele>
        <time>2021-08-13T14:43:28Z</time>
      </trkpt>
      <trkpt lat="46.56675" lon="3.32683">
        <ele>216.43</ele>
        <time>2021-08-13T14:43:40Z</time>
      </trkpt>
      <trkpt lat="46.56674" lon="3.32681">
        <ele>216.43</ele>
        <time>2021-08-13T14:43:53Z</time>
      </trkpt>
      <trkpt lat="46.56673" lon="3.32687">
        <ele>216.43</ele>
        <time>2021-08-13T14:44:08Z</time>
      </trkpt>
      <trkpt lat="46.56673" lon="3.32685">
        <ele>216.43</ele>
        <time>2021-08-13T14:44:25Z</time>
      </trkpt>
      <trkpt lat="46.56673" lon="3.32685">
        <ele>216.43</ele>
        <time>2021-08-13T14:44:40Z</time>
      </trkpt>
      <trkpt lat="46.56673" lon="3.32689">
        <ele>216.43</ele>
        <time>2021-08-13T14:44:56Z</time>
      </trkpt>
      <trkpt lat="46.56675" lon="3.32691">
        <ele>216.43</ele>
        <time>2021-08-13T14:45:15Z</time>
      </trkpt>
      <trkpt lat="46.56675" lon="3.32692">
        <ele>216.43</ele>
        <time>2021-08-13T14:45:32Z</time>
      </trkpt>
      <trkpt lat="46.56674" lon="3.32692">
        <ele>216.43</ele>
        <time>2021-08-13T14:45:53Z</time>
      </trkpt>
      <trkpt lat="46.56675" lon="3.32689">
        <ele>216.43</ele>
        <time>2021-08-13T14:46:05Z</time>
      </trkpt>
      <trkpt lat="46.56676" lon="3.32683">
        <ele>216.43</ele>
        <time>2021-08-13T14:46:27Z</time>
      </trkpt>
      <trkpt lat="46.56676" lon="3.32681">
        <ele>216.43</ele>
        <time>2021-08-13T14:46:46Z</time>
      </trkpt>
      <trkpt lat="46.56676" lon="3.32678">
        <ele>216.43</ele>
        <time>2021-08-13T14:47:04Z</time>
      </trkpt>
      <trkpt lat="46.56676" lon="3.32682">
        <ele>216.43</ele>
        <time>2021-08-13T14:47:21Z</time>
      </trkpt>
      <trkpt lat="46.56676" lon="3.32684">
        <ele>216.91</ele>
        <time>2021-08-13T14:47:45Z</time>
      </trkpt>
      <trkpt lat="46.56676" lon="3.32683">
        <ele>216.91</ele>
        <time>2021-08-13T14:48:01Z</time>
      </trkpt>
      <trkpt lat="46.56674" lon="3.32681">
        <ele>216.91</ele>
        <time>2021-08-13T14:48:23Z</time>
      </trkpt>
      <trkpt lat="46.56674" lon="3.3268">
        <ele>216.91</ele>
        <time>2021-08-13T14:48:40Z</time>
      </trkpt>
      <trkpt lat="46.56673" lon="3.32676">
        <ele>216.91</ele>
        <time>2021-08-13T14:48:58Z</time>
      </trkpt>
      <trkpt lat="46.56674" lon="3.32679">
        <ele>216.91</ele>
        <time>2021-08-13T14:49:15Z</time>
      </trkpt>
      <trkpt lat="46.56674" lon="3.32678">
        <ele>216.91</ele>
        <time>2021-08-13T14:49:37Z</time>
      </trkpt>
      <trkpt lat="46.56674" lon="3.32681">
        <ele>216.91</ele>
        <time>2021-08-13T14:49:53Z</time>
      </trkpt>
      <trkpt lat="46.56675" lon="3.32686">
        <ele>216.91</ele>
        <time>2021-08-13T14:50:12Z</time>
      </trkpt>
      <trkpt lat="46.56674" lon="3.32682">
        <ele>216.91</ele>
        <time>2021-08-13T14:50:20Z</time>
      </trkpt>
      <trkpt lat="46.56674" lon="3.32679">
        <ele>216.91</ele>
        <time>2021-08-13T14:50:30Z</time>
      </trkpt>
      <trkpt lat="46.56675" lon="3.32678">
        <ele>216.91</ele>
        <time>2021-08-13T14:50:44Z</time>
      </trkpt>
      <trkpt lat="46.56675" lon="3.32678">
        <ele>216.91</ele>
        <time>2021-08-13T14:51:00Z</time>
      </trkpt>
      <trkpt lat="46.56676" lon="3.32681">
        <ele>216.91</ele>
        <time>2021-08-13T14:51:15Z</time>
      </trkpt>
      <trkpt lat="46.56672" lon="3.32683">
        <ele>217.4</ele>
        <time>2021-08-13T14:51:39Z</time>
      </trkpt>
      <trkpt lat="46.56672" lon="3.32686">
        <ele>217.4</ele>
        <time>2021-08-13T14:51:53Z</time>
      </trkpt>
      <trkpt lat="46.56673" lon="3.32685">
        <ele>217.4</ele>
        <time>2021-08-13T14:52:17Z</time>
      </trkpt>
      <trkpt lat="46.56673" lon="3.32687">
        <ele>217.4</ele>
        <time>2021-08-13T14:52:30Z</time>
      </trkpt>
      <trkpt lat="46.56673" lon="3.32682">
        <ele>217.4</ele>
        <time>2021-08-13T14:52:46Z</time>
      </trkpt>
      <trkpt lat="46.56674" lon="3.32683">
        <ele>217.4</ele>
        <time>2021-08-13T14:53:08Z</time>
      </trkpt>
      <trkpt lat="46.56674" lon="3.32677">
        <ele>217.4</ele>
        <time>2021-08-13T14:53:28Z</time>
      </trkpt>
      <trkpt lat="46.56672" lon="3.32679">
        <ele>217.4</ele>
        <time>2021-08-13T14:53:43Z</time>
      </trkpt>
      <trkpt lat="46.56672" lon="3.32679">
        <ele>217.4</ele>
        <time>2021-08-13T14:54:03Z</time>
      </trkpt>
      <trkpt lat="46.56674" lon="3.32677">
        <ele>217.4</ele>
        <time>2021-08-13T14:54:23Z</time>
      </trkpt>
      <trkpt lat="46.56675" lon="3.32673">
        <ele>217.4</ele>
        <time>2021-08-13T14:54:40Z</time>
      </trkpt>
      <trkpt lat="46.56675" lon="3.32672">
        <ele>217.4</ele>
        <time>2021-08-13T14:54:53Z</time>
      </trkpt>
      <trkpt lat="46.56676" lon="3.32675">
        <ele>217.4</ele>
        <time>2021-08-13T14:55:00Z</time>
      </trkpt>
      <trkpt lat="46.56676" lon="3.32677">
        <ele>217.4</ele>
        <time>2021-08-13T14:55:12Z</time>
      </trkpt>
      <trkpt lat="46.56675" lon="3.32683">
        <ele>217.4</ele>
        <time>2021-08-13T14:55:19Z</time>
      </trkpt>
      <trkpt lat="46.56675" lon="3.32684">
        <ele>217.4</ele>
        <time>2021-08-13T14:55:20Z</time>
      </trkpt>
      <trkpt lat="46.56674" lon="3.32685">
        <ele>217.4</ele>
        <time>2021-08-13T14:55:21Z</time>
      </trkpt>
      <trkpt lat="46.56673" lon="3.32687">
        <ele>217.4</ele>
        <time>2021-08-13T14:55:22Z</time>
      </trkpt>
      <trkpt lat="46.56672" lon="3.32688">
        <ele>217.4</ele>
        <time>2021-08-13T14:55:23Z</time>
      </trkpt>
      <trkpt lat="46.56671" lon="3.3269">
        <ele>217.4</ele>
        <time>2021-08-13T14:55:24Z</time>
      </trkpt>
      <trkpt lat="46.5667" lon="3.32693">
        <ele>217.4</ele>
        <time>2021-08-13T14:55:25Z</time>
      </trkpt>
      <trkpt lat="46.5667" lon="3.32696">
        <ele>217.4</ele>
        <time>2021-08-13T14:55:26Z</time>
      </trkpt>
      <trkpt lat="46.56671" lon="3.32698">
        <ele>217.4</ele>
        <time>2021-08-13T14:55:27Z</time>
      </trkpt>
      <trkpt lat="46.56672" lon="3.327">
        <ele>217.4</ele>
        <time>2021-08-13T14:55:28Z</time>
      </trkpt>
      <trkpt lat="46.56672" lon="3.32701">
        <ele>217.4</ele>
        <time>2021-08-13T14:55:29Z</time>
      </trkpt>
      <trkpt lat="46.56674" lon="3.32703">
        <ele>217.4</ele>
        <time>2021-08-13T14:55:30Z</time>
      </trkpt>
      <trkpt lat="46.56675" lon="3.32704">
        <ele>217.4</ele>
        <time>2021-08-13T14:55:31Z</time>
      </trkpt>
      <trkpt lat="46.56677" lon="3.32706">
        <ele>217.4</ele>
        <time>2021-08-13T14:55:32Z</time>
      </trkpt>
      <trkpt lat="46.5668" lon="3.32707">
        <ele>217.4</ele>
        <time>2021-08-13T14:55:33Z</time>
      </trkpt>
      <trkpt lat="46.56683" lon="3.32706">
        <ele>217.4</ele>
        <time>2021-08-13T14:55:34Z</time>
      </trkpt>
      <trkpt lat="46.56686" lon="3.32703">
        <ele>217.4</ele>
        <time>2021-08-13T14:55:35Z</time>
      </trkpt>
      <trkpt lat="46.56688" lon="3.32701">
        <ele>217.4</ele>
        <time>2021-08-13T14:55:36Z</time>
      </trkpt>
      <trkpt lat="46.56703" lon="3.32691">
        <ele>217.4</ele>
        <time>2021-08-13T14:55:42Z</time>
      </trkpt>
      <trkpt lat="46.5672" lon="3.32695">
        <ele>217.4</ele>
        <time>2021-08-13T14:55:48Z</time>
      </trkpt>
      <trkpt lat="46.56743" lon="3.32705">
        <ele>217.88</ele>
        <time>2021-08-13T14:55:56Z</time>
      </trkpt>
      <trkpt lat="46.5677" lon="3.32721">
        <ele>218.36</ele>
        <time>2021-08-13T14:56:05Z</time>
      </trkpt>
      <trkpt lat="46.56787" lon="3.3273">
        <ele>218.84</ele>
        <time>2021-08-13T14:56:12Z</time>
      </trkpt>
      <trkpt lat="46.56805" lon="3.32728">
        <ele>218.84</ele>
        <time>2021-08-13T14:56:18Z</time>
      </trkpt>
      <trkpt lat="46.56821" lon="3.32711">
        <ele>217.88</ele>
        <time>2021-08-13T14:56:23Z</time>
      </trkpt>
      <trkpt lat="46.56824" lon="3.32708">
        <ele>217.88</ele>
        <time>2021-08-13T14:56:24Z</time>
      </trkpt>
      <trkpt lat="46.56826" lon="3.32703">
        <ele>216.91</ele>
        <time>2021-08-13T14:56:25Z</time>
      </trkpt>
      <trkpt lat="46.56828" lon="3.32697">
        <ele>216.91</ele>
        <time>2021-08-13T14:56:26Z</time>
      </trkpt>
      <trkpt lat="46.56828" lon="3.32692">
        <ele>216.91</ele>
        <time>2021-08-13T14:56:27Z</time>
      </trkpt>
      <trkpt lat="46.56828" lon="3.32686">
        <ele>216.91</ele>
        <time>2021-08-13T14:56:28Z</time>
      </trkpt>
      <trkpt lat="46.56829" lon="3.32682">
        <ele>216.91</ele>
        <time>2021-08-13T14:56:29Z</time>
      </trkpt>
      <trkpt lat="46.56829" lon="3.32678">
        <ele>216.91</ele>
        <time>2021-08-13T14:56:30Z</time>
      </trkpt>
      <trkpt lat="46.5683" lon="3.32675">
        <ele>216.91</ele>
        <time>2021-08-13T14:56:31Z</time>
      </trkpt>
      <trkpt lat="46.56831" lon="3.32673">
        <ele>216.91</ele>
        <time>2021-08-13T14:56:32Z</time>
      </trkpt>
      <trkpt lat="46.56841" lon="3.32659">
        <ele>216.43</ele>
        <time>2021-08-13T14:56:39Z</time>
      </trkpt>
      <trkpt lat="46.56842" lon="3.32657">
        <ele>216.43</ele>
        <time>2021-08-13T14:56:40Z</time>
      </trkpt>
      <trkpt lat="46.5684" lon="3.32657">
        <ele>216.43</ele>
        <time>2021-08-13T14:56:45Z</time>
      </trkpt>
      <trkpt lat="46.56839" lon="3.32659">
        <ele>216.91</ele>
        <time>2021-08-13T14:56:56Z</time>
      </trkpt>
      <trkpt lat="46.56838" lon="3.32666">
        <ele>216.91</ele>
        <time>2021-08-13T14:57:12Z</time>
      </trkpt>
      <trkpt lat="46.56838" lon="3.32676">
        <ele>216.43</ele>
        <time>2021-08-13T14:57:33Z</time>
      </trkpt>
      <trkpt lat="46.56837" lon="3.3268">
        <ele>216.43</ele>
        <time>2021-08-13T14:57:54Z</time>
      </trkpt>
      <trkpt lat="46.56838" lon="3.3268">
        <ele>216.43</ele>
        <time>2021-08-13T14:58:07Z</time>
      </trkpt>
      <trkpt lat="46.56836" lon="3.32677">
        <ele>216.43</ele>
        <time>2021-08-13T14:58:23Z</time>
      </trkpt>
      <trkpt lat="46.56835" lon="3.32675">
        <ele>216.43</ele>
        <time>2021-08-13T14:58:36Z</time>
      </trkpt>
      <trkpt lat="46.56836" lon="3.32674">
        <ele>216.91</ele>
        <time>2021-08-13T14:58:52Z</time>
      </trkpt>
      <trkpt lat="46.56838" lon="3.32672">
        <ele>216.91</ele>
        <time>2021-08-13T14:59:11Z</time>
      </trkpt>
      <trkpt lat="46.5684" lon="3.32669">
        <ele>216.91</ele>
        <time>2021-08-13T14:59:33Z</time>
      </trkpt>
      <trkpt lat="46.56839" lon="3.32666">
        <ele>216.91</ele>
        <time>2021-08-13T14:59:45Z</time>
      </trkpt>
      <trkpt lat="46.5684" lon="3.32665">
        <ele>216.91</ele>
        <time>2021-08-13T15:00:03Z</time>
      </trkpt>
      <trkpt lat="46.56842" lon="3.32664">
        <ele>216.43</ele>
        <time>2021-08-13T15:00:24Z</time>
      </trkpt>
      <trkpt lat="46.56842" lon="3.32656">
        <ele>216.43</ele>
        <time>2021-08-13T15:00:44Z</time>
      </trkpt>
      <trkpt lat="46.56839" lon="3.32657">
        <ele>216.43</ele>
        <time>2021-08-13T15:01:01Z</time>
      </trkpt>
      <trkpt lat="46.5684" lon="3.32659">
        <ele>216.43</ele>
        <time>2021-08-13T15:01:07Z</time>
      </trkpt>
      <trkpt lat="46.56842" lon="3.3266">
        <ele>216.43</ele>
        <time>2021-08-13T15:01:08Z</time>
      </trkpt>
      <trkpt lat="46.56842" lon="3.32659">
        <ele>216.43</ele>
        <time>2021-08-13T15:01:13Z</time>
      </trkpt>
      <trkpt lat="46.56841" lon="3.3266">
        <ele>216.43</ele>
        <time>2021-08-13T15:01:33Z</time>
      </trkpt>
      <trkpt lat="46.5684" lon="3.3266">
        <ele>216.43</ele>
        <time>2021-08-13T15:01:54Z</time>
      </trkpt>
      <trkpt lat="46.56839" lon="3.32657">
        <ele>216.91</ele>
        <time>2021-08-13T15:02:16Z</time>
      </trkpt>
      <trkpt lat="46.5684" lon="3.32659">
        <ele>216.91</ele>
        <time>2021-08-13T15:02:36Z</time>
      </trkpt>
      <trkpt lat="46.56841" lon="3.3266">
        <ele>216.91</ele>
        <time>2021-08-13T15:02:56Z</time>
      </trkpt>
      <trkpt lat="46.56842" lon="3.32659">
        <ele>216.91</ele>
        <time>2021-08-13T15:03:18Z</time>
      </trkpt>
      <trkpt lat="46.56842" lon="3.3266">
        <ele>216.91</ele>
        <time>2021-08-13T15:03:32Z</time>
      </trkpt>
      <trkpt lat="46.56842" lon="3.32657">
        <ele>216.91</ele>
        <time>2021-08-13T15:03:49Z</time>
      </trkpt>
      <trkpt lat="46.56842" lon="3.32655">
        <ele>216.91</ele>
        <time>2021-08-13T15:04:10Z</time>
      </trkpt>
      <trkpt lat="46.56845" lon="3.32656">
        <ele>216.91</ele>
        <time>2021-08-13T15:04:33Z</time>
      </trkpt>
      <trkpt lat="46.56848" lon="3.32662">
        <ele>216.91</ele>
        <time>2021-08-13T15:04:53Z</time>
      </trkpt>
      <trkpt lat="46.56845" lon="3.32662">
        <ele>216.91</ele>
        <time>2021-08-13T15:05:15Z</time>
      </trkpt>
      <trkpt lat="46.56845" lon="3.32662">
        <ele>216.91</ele>
        <time>2021-08-13T15:05:40Z</time>
      </trkpt>
      <trkpt lat="46.56845" lon="3.32659">
        <ele>216.91</ele>
        <time>2021-08-13T15:06:02Z</time>
      </trkpt>
      <trkpt lat="46.56844" lon="3.32659">
        <ele>216.91</ele>
        <time>2021-08-13T15:06:05Z</time>
      </trkpt>
      <trkpt lat="46.56844" lon="3.32659">
        <ele>216.91</ele>
        <time>2021-08-13T15:06:11Z</time>
      </trkpt>
      <trkpt lat="46.56845" lon="3.32664">
        <ele>216.91</ele>
        <time>2021-08-13T15:06:37Z</time>
      </trkpt>
      <trkpt lat="46.56843" lon="3.32664">
        <ele>216.91</ele>
        <time>2021-08-13T15:06:52Z</time>
      </trkpt>
      <trkpt lat="46.56843" lon="3.32666">
        <ele>216.91</ele>
        <time>2021-08-13T15:07:09Z</time>
      </trkpt>
      <trkpt lat="46.56842" lon="3.32666">
        <ele>217.4</ele>
        <time>2021-08-13T15:07:27Z</time>
      </trkpt>
      <trkpt lat="46.56843" lon="3.32666">
        <ele>217.4</ele>
        <time>2021-08-13T15:07:45Z</time>
      </trkpt>
      <trkpt lat="46.56843" lon="3.32668">
        <ele>217.4</ele>
        <time>2021-08-13T15:08:01Z</time>
      </trkpt>
      <trkpt lat="46.56843" lon="3.32667">
        <ele>217.4</ele>
        <time>2021-08-13T15:08:17Z</time>
      </trkpt>
      <trkpt lat="46.56843" lon="3.32668">
        <ele>217.4</ele>
        <time>2021-08-13T15:08:42Z</time>
      </trkpt>
      <trkpt lat="46.56845" lon="3.32667">
        <ele>217.4</ele>
        <time>2021-08-13T15:09:05Z</time>
      </trkpt>
      <trkpt lat="46.56847" lon="3.32672">
        <ele>217.4</ele>
        <time>2021-08-13T15:09:25Z</time>
      </trkpt>
      <trkpt lat="46.56846" lon="3.3267">
        <ele>217.4</ele>
        <time>2021-08-13T15:09:44Z</time>
      </trkpt>
      <trkpt lat="46.56844" lon="3.32671">
        <ele>217.4</ele>
        <time>2021-08-13T15:10:03Z</time>
      </trkpt>
      <trkpt lat="46.56843" lon="3.32671">
        <ele>217.4</ele>
        <time>2021-08-13T15:10:16Z</time>
      </trkpt>
      <trkpt lat="46.56842" lon="3.32669">
        <ele>217.4</ele>
        <time>2021-08-13T15:10:28Z</time>
      </trkpt>
      <trkpt lat="46.56843" lon="3.32668">
        <ele>217.4</ele>
        <time>2021-08-13T15:10:48Z</time>
      </trkpt>
      <trkpt lat="46.5684" lon="3.3267">
        <ele>217.4</ele>
        <time>2021-08-13T15:11:04Z</time>
      </trkpt>
      <trkpt lat="46.56841" lon="3.3267">
        <ele>217.4</ele>
        <time>2021-08-13T15:11:20Z</time>
      </trkpt>
      <trkpt lat="46.56842" lon="3.32668">
        <ele>217.4</ele>
        <time>2021-08-13T15:11:40Z</time>
      </trkpt>
      <trkpt lat="46.56841" lon="3.32669">
        <ele>217.88</ele>
        <time>2021-08-13T15:12:03Z</time>
      </trkpt>
      <trkpt lat="46.56842" lon="3.32669">
        <ele>217.88</ele>
        <time>2021-08-13T15:12:21Z</time>
      </trkpt>
      <trkpt lat="46.56843" lon="3.3267">
        <ele>217.88</ele>
        <time>2021-08-13T15:12:41Z</time>
      </trkpt>
      <trkpt lat="46.56843" lon="3.32668">
        <ele>217.88</ele>
        <time>2021-08-13T15:12:58Z</time>
      </trkpt>
      <trkpt lat="46.56843" lon="3.3267">
        <ele>217.88</ele>
        <time>2021-08-13T15:13:14Z</time>
      </trkpt>
      <trkpt lat="46.56842" lon="3.3267">
        <ele>218.84</ele>
        <time>2021-08-13T15:13:32Z</time>
      </trkpt>
      <trkpt lat="46.56845" lon="3.32672">
        <ele>218.84</ele>
        <time>2021-08-13T15:13:47Z</time>
      </trkpt>
      <trkpt lat="46.56846" lon="3.32668">
        <ele>218.84</ele>
        <time>2021-08-13T15:14:07Z</time>
      </trkpt>
      <trkpt lat="46.56844" lon="3.32667">
        <ele>218.84</ele>
        <time>2021-08-13T15:14:24Z</time>
      </trkpt>
      <trkpt lat="46.56845" lon="3.32667">
        <ele>218.84</ele>
        <time>2021-08-13T15:14:44Z</time>
      </trkpt>
      <trkpt lat="46.56846" lon="3.32669">
        <ele>218.84</ele>
        <time>2021-08-13T15:15:04Z</time>
      </trkpt>
      <trkpt lat="46.56847" lon="3.32667">
        <ele>218.84</ele>
        <time>2021-08-13T15:15:25Z</time>
      </trkpt>
      <trkpt lat="46.56847" lon="3.32666">
        <ele>219.32</ele>
        <time>2021-08-13T15:15:47Z</time>
      </trkpt>
      <trkpt lat="46.56846" lon="3.32664">
        <ele>219.32</ele>
        <time>2021-08-13T15:16:09Z</time>
      </trkpt>
      <trkpt lat="46.56849" lon="3.32663">
        <ele>219.32</ele>
        <time>2021-08-13T15:16:30Z</time>
      </trkpt>
      <trkpt lat="46.56851" lon="3.3266">
        <ele>219.32</ele>
        <time>2021-08-13T15:16:50Z</time>
      </trkpt>
      <trkpt lat="46.56849" lon="3.32661">
        <ele>219.32</ele>
        <time>2021-08-13T15:17:10Z</time>
      </trkpt>
      <trkpt lat="46.56846" lon="3.32663">
        <ele>219.8</ele>
        <time>2021-08-13T15:17:27Z</time>
      </trkpt>
      <trkpt lat="46.56846" lon="3.32663">
        <ele>219.8</ele>
        <time>2021-08-13T15:17:44Z</time>
      </trkpt>
      <trkpt lat="46.56844" lon="3.32662">
        <ele>219.8</ele>
        <time>2021-08-13T15:18:04Z</time>
      </trkpt>
      <trkpt lat="46.56844" lon="3.32659">
        <ele>219.8</ele>
        <time>2021-08-13T15:18:25Z</time>
      </trkpt>
      <trkpt lat="46.56843" lon="3.32661">
        <ele>219.8</ele>
        <time>2021-08-13T15:18:46Z</time>
      </trkpt>
      <trkpt lat="46.56844" lon="3.32661">
        <ele>219.8</ele>
        <time>2021-08-13T15:19:02Z</time>
      </trkpt>
      <trkpt lat="46.56843" lon="3.32664">
        <ele>220.28</ele>
        <time>2021-08-13T15:19:24Z</time>
      </trkpt>
      <trkpt lat="46.56842" lon="3.32664">
        <ele>220.28</ele>
        <time>2021-08-13T15:19:41Z</time>
      </trkpt>
      <trkpt lat="46.56842" lon="3.32662">
        <ele>220.28</ele>
        <time>2021-08-13T15:19:54Z</time>
      </trkpt>
      <trkpt lat="46.5684" lon="3.32659">
        <ele>220.28</ele>
        <time>2021-08-13T15:20:17Z</time>
      </trkpt>
      <trkpt lat="46.5684" lon="3.32659">
        <ele>220.28</ele>
        <time>2021-08-13T15:20:38Z</time>
      </trkpt>
      <trkpt lat="46.5684" lon="3.32658">
        <ele>219.8</ele>
        <time>2021-08-13T15:21:04Z</time>
      </trkpt>
      <trkpt lat="46.56839" lon="3.32659">
        <ele>219.8</ele>
        <time>2021-08-13T15:21:19Z</time>
      </trkpt>
      <trkpt lat="46.56835" lon="3.3266">
        <ele>219.8</ele>
        <time>2021-08-13T15:21:35Z</time>
      </trkpt>
      <trkpt lat="46.56834" lon="3.32661">
        <ele>219.8</ele>
        <time>2021-08-13T15:21:59Z</time>
      </trkpt>
      <trkpt lat="46.56837" lon="3.32661">
        <ele>219.8</ele>
        <time>2021-08-13T15:22:23Z</time>
      </trkpt>
      <trkpt lat="46.56837" lon="3.32664">
        <ele>219.8</ele>
        <time>2021-08-13T15:22:44Z</time>
      </trkpt>
      <trkpt lat="46.56837" lon="3.32661">
        <ele>219.8</ele>
        <time>2021-08-13T15:23:04Z</time>
      </trkpt>
      <trkpt lat="46.56838" lon="3.32663">
        <ele>219.8</ele>
        <time>2021-08-13T15:23:30Z</time>
      </trkpt>
      <trkpt lat="46.56837" lon="3.32663">
        <ele>219.8</ele>
        <time>2021-08-13T15:23:48Z</time>
      </trkpt>
      <trkpt lat="46.56837" lon="3.3266">
        <ele>219.8</ele>
        <time>2021-08-13T15:24:05Z</time>
      </trkpt>
      <trkpt lat="46.56837" lon="3.32657">
        <ele>219.8</ele>
        <time>2021-08-13T15:24:25Z</time>
      </trkpt>
      <trkpt lat="46.56837" lon="3.3266">
        <ele>219.8</ele>
        <time>2021-08-13T15:24:43Z</time>
      </trkpt>
      <trkpt lat="46.56839" lon="3.32659">
        <ele>219.8</ele>
        <time>2021-08-13T15:25:07Z</time>
      </trkpt>
      <trkpt lat="46.56839" lon="3.32661">
        <ele>219.8</ele>
        <time>2021-08-13T15:25:26Z</time>
      </trkpt>
      <trkpt lat="46.56835" lon="3.32665">
        <ele>219.8</ele>
        <time>2021-08-13T15:25:48Z</time>
      </trkpt>
      <trkpt lat="46.56834" lon="3.32668">
        <ele>219.8</ele>
        <time>2021-08-13T15:26:05Z</time>
      </trkpt>
      <trkpt lat="46.56835" lon="3.32667">
        <ele>219.8</ele>
        <time>2021-08-13T15:26:19Z</time>
      </trkpt>
      <trkpt lat="46.56835" lon="3.32664">
        <ele>219.8</ele>
        <time>2021-08-13T15:26:40Z</time>
      </trkpt>
      <trkpt lat="46.56832" lon="3.32663">
        <ele>219.8</ele>
        <time>2021-08-13T15:27:02Z</time>
      </trkpt>
      <trkpt lat="46.56829" lon="3.32663">
        <ele>219.8</ele>
        <time>2021-08-13T15:27:20Z</time>
      </trkpt>
      <trkpt lat="46.56827" lon="3.32666">
        <ele>219.8</ele>
        <time>2021-08-13T15:27:39Z</time>
      </trkpt>
      <trkpt lat="46.56827" lon="3.32665">
        <ele>220.28</ele>
        <time>2021-08-13T15:27:54Z</time>
      </trkpt>
      <trkpt lat="46.56829" lon="3.32665">
        <ele>220.28</ele>
        <time>2021-08-13T15:28:10Z</time>
      </trkpt>
      <trkpt lat="46.56832" lon="3.32663">
        <ele>220.28</ele>
        <time>2021-08-13T15:28:27Z</time>
      </trkpt>
      <trkpt lat="46.56834" lon="3.32662">
        <ele>220.28</ele>
        <time>2021-08-13T15:28:45Z</time>
      </trkpt>
      <trkpt lat="46.56834" lon="3.32663">
        <ele>220.28</ele>
        <time>2021-08-13T15:29:04Z</time>
      </trkpt>
      <trkpt lat="46.56834" lon="3.32663">
        <ele>220.28</ele>
        <time>2021-08-13T15:29:17Z</time>
      </trkpt>
      <trkpt lat="46.56834" lon="3.32662">
        <ele>220.28</ele>
        <time>2021-08-13T15:29:26Z</time>
      </trkpt>
      <trkpt lat="46.56837" lon="3.32659">
        <ele>220.28</ele>
        <time>2021-08-13T15:29:45Z</time>
      </trkpt>
      <trkpt lat="46.56837" lon="3.32657">
        <ele>220.28</ele>
        <time>2021-08-13T15:29:57Z</time>
      </trkpt>
      <trkpt lat="46.56837" lon="3.32658">
        <ele>220.28</ele>
        <time>2021-08-13T15:30:17Z</time>
      </trkpt>
      <trkpt lat="46.56837" lon="3.32657">
        <ele>220.28</ele>
        <time>2021-08-13T15:30:37Z</time>
      </trkpt>
      <trkpt lat="46.56836" lon="3.32661">
        <ele>220.28</ele>
        <time>2021-08-13T15:30:51Z</time>
      </trkpt>
      <trkpt lat="46.56834" lon="3.3266">
        <ele>220.28</ele>
        <time>2021-08-13T15:31:05Z</time>
      </trkpt>
      <trkpt lat="46.56834" lon="3.32659">
        <ele>220.28</ele>
        <time>2021-08-13T15:31:27Z</time>
      </trkpt>
      <trkpt lat="46.56836" lon="3.32661">
        <ele>219.8</ele>
        <time>2021-08-13T15:31:41Z</time>
      </trkpt>
      <trkpt lat="46.56834" lon="3.3266">
        <ele>219.8</ele>
        <time>2021-08-13T15:32:01Z</time>
      </trkpt>
      <trkpt lat="46.56833" lon="3.3266">
        <ele>219.8</ele>
        <time>2021-08-13T15:32:17Z</time>
      </trkpt>
      <trkpt lat="46.56833" lon="3.32661">
        <ele>219.8</ele>
        <time>2021-08-13T15:32:32Z</time>
      </trkpt>
      <trkpt lat="46.56833" lon="3.32662">
        <ele>219.8</ele>
        <time>2021-08-13T15:32:40Z</time>
      </trkpt>
      <trkpt lat="46.56833" lon="3.32662">
        <ele>219.8</ele>
        <time>2021-08-13T15:32:57Z</time>
      </trkpt>
      <trkpt lat="46.56831" lon="3.32663">
        <ele>220.76</ele>
        <time>2021-08-13T15:33:06Z</time>
      </trkpt>
      <trkpt lat="46.56832" lon="3.32662">
        <ele>220.76</ele>
        <time>2021-08-13T15:33:21Z</time>
      </trkpt>
      <trkpt lat="46.56832" lon="3.32665">
        <ele>220.76</ele>
        <time>2021-08-13T15:33:35Z</time>
      </trkpt>
      <trkpt lat="46.56831" lon="3.32664">
        <ele>220.76</ele>
        <time>2021-08-13T15:33:48Z</time>
      </trkpt>
      <trkpt lat="46.56835" lon="3.32662">
        <ele>220.76</ele>
        <time>2021-08-13T15:33:59Z</time>
      </trkpt>
      <trkpt lat="46.56834" lon="3.32663">
        <ele>220.76</ele>
        <time>2021-08-13T15:34:09Z</time>
      </trkpt>
      <trkpt lat="46.56834" lon="3.32661">
        <ele>220.76</ele>
        <time>2021-08-13T15:34:17Z</time>
      </trkpt>
      <trkpt lat="46.56838" lon="3.32658">
        <ele>220.76</ele>
        <time>2021-08-13T15:34:32Z</time>
      </trkpt>
      <trkpt lat="46.56837" lon="3.32659">
        <ele>220.76</ele>
        <time>2021-08-13T15:34:43Z</time>
      </trkpt>
      <trkpt lat="46.5684" lon="3.32662">
        <ele>220.28</ele>
        <time>2021-08-13T15:35:00Z</time>
      </trkpt>
      <trkpt lat="46.56835" lon="3.32661">
        <ele>220.76</ele>
        <time>2021-08-13T15:35:17Z</time>
      </trkpt>
      <trkpt lat="46.56835" lon="3.32662">
        <ele>220.76</ele>
        <time>2021-08-13T15:35:29Z</time>
      </trkpt>
      <trkpt lat="46.56833" lon="3.32664">
        <ele>220.76</ele>
        <time>2021-08-13T15:35:41Z</time>
      </trkpt>
      <trkpt lat="46.56833" lon="3.32667">
        <ele>220.76</ele>
        <time>2021-08-13T15:35:56Z</time>
      </trkpt>
      <trkpt lat="46.56834" lon="3.32668">
        <ele>220.76</ele>
        <time>2021-08-13T15:36:09Z</time>
      </trkpt>
      <trkpt lat="46.56833" lon="3.32668">
        <ele>220.76</ele>
        <time>2021-08-13T15:36:19Z</time>
      </trkpt>
      <trkpt lat="46.56834" lon="3.32667">
        <ele>220.76</ele>
        <time>2021-08-13T15:36:24Z</time>
      </trkpt>
      <trkpt lat="46.56835" lon="3.32667">
        <ele>220.76</ele>
        <time>2021-08-13T15:36:25Z</time>
      </trkpt>
      <trkpt lat="46.56835" lon="3.32666">
        <ele>220.76</ele>
        <time>2021-08-13T15:36:30Z</time>
      </trkpt>
      <trkpt lat="46.56835" lon="3.32666">
        <ele>220.76</ele>
        <time>2021-08-13T15:36:39Z</time>
      </trkpt>
      <trkpt lat="46.56834" lon="3.32666">
        <ele>220.76</ele>
        <time>2021-08-13T15:37:03Z</time>
      </trkpt>
      <trkpt lat="46.56835" lon="3.32664">
        <ele>220.76</ele>
        <time>2021-08-13T15:37:19Z</time>
      </trkpt>
      <trkpt lat="46.56835" lon="3.32663">
        <ele>220.76</ele>
        <time>2021-08-13T15:37:31Z</time>
      </trkpt>
      <trkpt lat="46.56837" lon="3.32664">
        <ele>220.76</ele>
        <time>2021-08-13T15:37:46Z</time>
      </trkpt>
      <trkpt lat="46.56838" lon="3.32661">
        <ele>220.76</ele>
        <time>2021-08-13T15:37:55Z</time>
      </trkpt>
      <trkpt lat="46.56841" lon="3.32658">
        <ele>220.76</ele>
        <time>2021-08-13T15:38:04Z</time>
      </trkpt>
      <trkpt lat="46.56838" lon="3.32657">
        <ele>220.76</ele>
        <time>2021-08-13T15:38:20Z</time>
      </trkpt>
      <trkpt lat="46.56838" lon="3.32655">
        <ele>220.76</ele>
        <time>2021-08-13T15:38:34Z</time>
      </trkpt>
      <trkpt lat="46.56838" lon="3.32654">
        <ele>220.28</ele>
        <time>2021-08-13T15:38:47Z</time>
      </trkpt>
      <trkpt lat="46.56837" lon="3.32653">
        <ele>220.28</ele>
        <time>2021-08-13T15:39:04Z</time>
      </trkpt>
      <trkpt lat="46.56838" lon="3.32655">
        <ele>220.28</ele>
        <time>2021-08-13T15:39:14Z</time>
      </trkpt>
      <trkpt lat="46.56839" lon="3.32656">
        <ele>220.28</ele>
        <time>2021-08-13T15:39:28Z</time>
      </trkpt>
      <trkpt lat="46.56839" lon="3.32657">
        <ele>220.28</ele>
        <time>2021-08-13T15:39:47Z</time>
      </trkpt>
      <trkpt lat="46.56839" lon="3.32655">
        <ele>220.28</ele>
        <time>2021-08-13T15:40:01Z</time>
      </trkpt>
      <trkpt lat="46.5684" lon="3.32655">
        <ele>220.28</ele>
        <time>2021-08-13T15:40:14Z</time>
      </trkpt>
      <trkpt lat="46.56839" lon="3.32656">
        <ele>219.8</ele>
        <time>2021-08-13T15:40:26Z</time>
      </trkpt>
      <trkpt lat="46.56839" lon="3.32657">
        <ele>219.8</ele>
        <time>2021-08-13T15:40:44Z</time>
      </trkpt>
      <trkpt lat="46.56839" lon="3.32657">
        <ele>219.8</ele>
        <time>2021-08-13T15:41:00Z</time>
      </trkpt>
      <trkpt lat="46.56839" lon="3.32656">
        <ele>219.8</ele>
        <time>2021-08-13T15:41:12Z</time>
      </trkpt>
      <trkpt lat="46.5684" lon="3.32658">
        <ele>219.8</ele>
        <time>2021-08-13T15:41:18Z</time>
      </trkpt>
      <trkpt lat="46.56838" lon="3.32662">
        <ele>219.8</ele>
        <time>2021-08-13T15:41:25Z</time>
      </trkpt>
      <trkpt lat="46.56839" lon="3.32663">
        <ele>219.8</ele>
        <time>2021-08-13T15:41:38Z</time>
      </trkpt>
      <trkpt lat="46.56841" lon="3.32666">
        <ele>219.8</ele>
        <time>2021-08-13T15:41:42Z</time>
      </trkpt>
      <trkpt lat="46.56851" lon="3.32649">
        <ele>219.8</ele>
        <time>2021-08-13T15:41:50Z</time>
      </trkpt>
      <trkpt lat="46.56866" lon="3.32633">
        <ele>219.8</ele>
        <time>2021-08-13T15:41:57Z</time>
      </trkpt>
      <trkpt lat="46.56882" lon="3.32617">
        <ele>219.8</ele>
        <time>2021-08-13T15:42:04Z</time>
      </trkpt>
      <trkpt lat="46.56896" lon="3.32609">
        <ele>219.32</ele>
        <time>2021-08-13T15:42:10Z</time>
      </trkpt>
      <trkpt lat="46.56905" lon="3.32609">
        <ele>219.32</ele>
        <time>2021-08-13T15:42:16Z</time>
      </trkpt>
      <trkpt lat="46.56908" lon="3.3261">
        <ele>219.32</ele>
        <time>2021-08-13T15:42:17Z</time>
      </trkpt>
      <trkpt lat="46.56911" lon="3.32612">
        <ele>219.32</ele>
        <time>2021-08-13T15:42:18Z</time>
      </trkpt>
      <trkpt lat="46.56913" lon="3.32613">
        <ele>219.32</ele>
        <time>2021-08-13T15:42:19Z</time>
      </trkpt>
      <trkpt lat="46.56917" lon="3.32615">
        <ele>219.32</ele>
        <time>2021-08-13T15:42:20Z</time>
      </trkpt>
      <trkpt lat="46.5692" lon="3.32616">
        <ele>219.32</ele>
        <time>2021-08-13T15:42:21Z</time>
      </trkpt>
      <trkpt lat="46.56924" lon="3.32616">
        <ele>219.32</ele>
        <time>2021-08-13T15:42:22Z</time>
      </trkpt>
      <trkpt lat="46.56928" lon="3.32616">
        <ele>219.32</ele>
        <time>2021-08-13T15:42:23Z</time>
      </trkpt>
      <trkpt lat="46.56931" lon="3.32614">
        <ele>219.32</ele>
        <time>2021-08-13T15:42:24Z</time>
      </trkpt>
      <trkpt lat="46.56933" lon="3.32612">
        <ele>219.32</ele>
        <time>2021-08-13T15:42:25Z</time>
      </trkpt>
      <trkpt lat="46.56936" lon="3.32608">
        <ele>219.32</ele>
        <time>2021-08-13T15:42:26Z</time>
      </trkpt>
      <trkpt lat="46.56939" lon="3.32604">
        <ele>219.32</ele>
        <time>2021-08-13T15:42:27Z</time>
      </trkpt>
      <trkpt lat="46.56941" lon="3.32598">
        <ele>219.32</ele>
        <time>2021-08-13T15:42:28Z</time>
      </trkpt>
      <trkpt lat="46.56942" lon="3.32593">
        <ele>219.32</ele>
        <time>2021-08-13T15:42:29Z</time>
      </trkpt>
      <trkpt lat="46.56943" lon="3.32587">
        <ele>219.32</ele>
        <time>2021-08-13T15:42:30Z</time>
      </trkpt>
      <trkpt lat="46.56943" lon="3.32581">
        <ele>219.32</ele>
        <time>2021-08-13T15:42:31Z</time>
      </trkpt>
      <trkpt lat="46.56942" lon="3.32576">
        <ele>219.32</ele>
        <time>2021-08-13T15:42:32Z</time>
      </trkpt>
      <trkpt lat="46.56943" lon="3.32569">
        <ele>219.32</ele>
        <time>2021-08-13T15:42:33Z</time>
      </trkpt>
      <trkpt lat="46.56945" lon="3.32565">
        <ele>219.32</ele>
        <time>2021-08-13T15:42:34Z</time>
      </trkpt>
      <trkpt lat="46.56948" lon="3.32561">
        <ele>219.32</ele>
        <time>2021-08-13T15:42:35Z</time>
      </trkpt>
      <trkpt lat="46.5695" lon="3.32558">
        <ele>219.32</ele>
        <time>2021-08-13T15:42:36Z</time>
      </trkpt>
      <trkpt lat="46.56953" lon="3.32554">
        <ele>219.32</ele>
        <time>2021-08-13T15:42:37Z</time>
      </trkpt>
      <trkpt lat="46.56956" lon="3.3255">
        <ele>219.32</ele>
        <time>2021-08-13T15:42:38Z</time>
      </trkpt>
      <trkpt lat="46.56959" lon="3.32547">
        <ele>219.32</ele>
        <time>2021-08-13T15:42:39Z</time>
      </trkpt>
      <trkpt lat="46.5696" lon="3.32545">
        <ele>219.32</ele>
        <time>2021-08-13T15:42:40Z</time>
      </trkpt>
      <trkpt lat="46.56967" lon="3.32538">
        <ele>219.32</ele>
        <time>2021-08-13T15:42:43Z</time>
      </trkpt>
      <trkpt lat="46.56967" lon="3.32535">
        <ele>219.32</ele>
        <time>2021-08-13T15:42:44Z</time>
      </trkpt>
      <trkpt lat="46.56966" lon="3.32534">
        <ele>219.32</ele>
        <time>2021-08-13T15:42:45Z</time>
      </trkpt>
      <trkpt lat="46.56964" lon="3.32534">
        <ele>219.32</ele>
        <time>2021-08-13T15:42:46Z</time>
      </trkpt>
      <trkpt lat="46.56963" lon="3.32536">
        <ele>219.32</ele>
        <time>2021-08-13T15:42:47Z</time>
      </trkpt>
      <trkpt lat="46.5696" lon="3.32538">
        <ele>219.32</ele>
        <time>2021-08-13T15:42:48Z</time>
      </trkpt>
      <trkpt lat="46.56939" lon="3.32558">
        <ele>219.32</ele>
        <time>2021-08-13T15:42:55Z</time>
      </trkpt>
      <trkpt lat="46.5692" lon="3.32558">
        <ele>219.32</ele>
        <time>2021-08-13T15:43:00Z</time>
      </trkpt>
      <trkpt lat="46.56908" lon="3.32546">
        <ele>219.32</ele>
        <time>2021-08-13T15:43:04Z</time>
      </trkpt>
      <trkpt lat="46.56906" lon="3.32542">
        <ele>219.32</ele>
        <time>2021-08-13T15:43:05Z</time>
      </trkpt>
      <trkpt lat="46.56883" lon="3.32498">
        <ele>219.32</ele>
        <time>2021-08-13T15:43:14Z</time>
      </trkpt>
      <trkpt lat="46.56867" lon="3.32463">
        <ele>219.32</ele>
        <time>2021-08-13T15:43:21Z</time>
      </trkpt>
      <trkpt lat="46.56846" lon="3.32415">
        <ele>219.32</ele>
        <time>2021-08-13T15:43:30Z</time>
      </trkpt>
      <trkpt lat="46.56825" lon="3.32373">
        <ele>219.32</ele>
        <time>2021-08-13T15:43:38Z</time>
      </trkpt>
      <trkpt lat="46.56818" lon="3.32356">
        <ele>219.32</ele>
        <time>2021-08-13T15:43:41Z</time>
      </trkpt>
      <trkpt lat="46.56812" lon="3.32332">
        <ele>219.32</ele>
        <time>2021-08-13T15:43:45Z</time>
      </trkpt>
      <trkpt lat="46.56811" lon="3.32326">
        <ele>219.32</ele>
        <time>2021-08-13T15:43:46Z</time>
      </trkpt>
      <trkpt lat="46.56805" lon="3.3229">
        <ele>219.32</ele>
        <time>2021-08-13T15:43:52Z</time>
      </trkpt>
      <trkpt lat="46.56792" lon="3.32277">
        <ele>219.8</ele>
        <time>2021-08-13T15:43:56Z</time>
      </trkpt>
      <trkpt lat="46.56784" lon="3.32272">
        <ele>219.8</ele>
        <time>2021-08-13T15:43:58Z</time>
      </trkpt>
      <trkpt lat="46.5678" lon="3.32271">
        <ele>219.8</ele>
        <time>2021-08-13T15:43:59Z</time>
      </trkpt>
      <trkpt lat="46.56775" lon="3.32271">
        <ele>220.28</ele>
        <time>2021-08-13T15:44:00Z</time>
      </trkpt>
      <trkpt lat="46.56771" lon="3.32272">
        <ele>220.28</ele>
        <time>2021-08-13T15:44:01Z</time>
      </trkpt>
      <trkpt lat="46.56767" lon="3.32273">
        <ele>220.28</ele>
        <time>2021-08-13T15:44:02Z</time>
      </trkpt>
      <trkpt lat="46.56764" lon="3.32275">
        <ele>220.28</ele>
        <time>2021-08-13T15:44:03Z</time>
      </trkpt>
      <trkpt lat="46.56726" lon="3.32289">
        <ele>221.24</ele>
        <time>2021-08-13T15:44:12Z</time>
      </trkpt>
      <trkpt lat="46.5669" lon="3.32301">
        <ele>221.24</ele>
        <time>2021-08-13T15:44:20Z</time>
      </trkpt>
      <trkpt lat="46.56652" lon="3.32313">
        <ele>221.24</ele>
        <time>2021-08-13T15:44:28Z</time>
      </trkpt>
      <trkpt lat="46.5663" lon="3.32319">
        <ele>221.24</ele>
        <time>2021-08-13T15:44:33Z</time>
      </trkpt>
      <trkpt lat="46.56592" lon="3.32336">
        <ele>221.72</ele>
        <time>2021-08-13T15:44:43Z</time>
      </trkpt>
      <trkpt lat="46.56549" lon="3.32352">
        <ele>221.72</ele>
        <time>2021-08-13T15:44:53Z</time>
      </trkpt>
      <trkpt lat="46.56529" lon="3.3236">
        <ele>221.24</ele>
        <time>2021-08-13T15:44:58Z</time>
      </trkpt>
      <trkpt lat="46.5652" lon="3.32363">
        <ele>221.24</ele>
        <time>2021-08-13T15:45:00Z</time>
      </trkpt>
      <trkpt lat="46.56506" lon="3.32368">
        <ele>221.24</ele>
        <time>2021-08-13T15:45:03Z</time>
      </trkpt>
      <trkpt lat="46.56496" lon="3.32369">
        <ele>221.24</ele>
        <time>2021-08-13T15:45:05Z</time>
      </trkpt>
      <trkpt lat="46.56491" lon="3.32371">
        <ele>221.24</ele>
        <time>2021-08-13T15:45:06Z</time>
      </trkpt>
      <trkpt lat="46.56487" lon="3.32373">
        <ele>221.24</ele>
        <time>2021-08-13T15:45:07Z</time>
      </trkpt>
      <trkpt lat="46.56482" lon="3.32374">
        <ele>221.24</ele>
        <time>2021-08-13T15:45:08Z</time>
      </trkpt>
      <trkpt lat="46.56478" lon="3.32374">
        <ele>221.24</ele>
        <time>2021-08-13T15:45:09Z</time>
      </trkpt>
      <trkpt lat="46.56474" lon="3.32374">
        <ele>221.24</ele>
        <time>2021-08-13T15:45:10Z</time>
      </trkpt>
      <trkpt lat="46.5647" lon="3.32375">
        <ele>221.24</ele>
        <time>2021-08-13T15:45:11Z</time>
      </trkpt>
      <trkpt lat="46.56457" lon="3.32379">
        <ele>221.24</ele>
        <time>2021-08-13T15:45:14Z</time>
      </trkpt>
      <trkpt lat="46.56413" lon="3.32392">
        <ele>221.72</ele>
        <time>2021-08-13T15:45:24Z</time>
      </trkpt>
      <trkpt lat="46.56374" lon="3.32412">
        <ele>221.72</ele>
        <time>2021-08-13T15:45:33Z</time>
      </trkpt>
      <trkpt lat="46.56327" lon="3.32446">
        <ele>221.72</ele>
        <time>2021-08-13T15:45:43Z</time>
      </trkpt>
      <trkpt lat="46.56292" lon="3.32476">
        <ele>222.2</ele>
        <time>2021-08-13T15:45:52Z</time>
      </trkpt>
      <trkpt lat="46.56265" lon="3.32499">
        <ele>223.64</ele>
        <time>2021-08-13T15:46:02Z</time>
      </trkpt>
      <trkpt lat="46.56251" lon="3.32497">
        <ele>223.64</ele>
        <time>2021-08-13T15:46:08Z</time>
      </trkpt>
      <trkpt lat="46.56249" lon="3.32495">
        <ele>223.64</ele>
        <time>2021-08-13T15:46:09Z</time>
      </trkpt>
      <trkpt lat="46.56241" lon="3.32477">
        <ele>223.64</ele>
        <time>2021-08-13T15:46:14Z</time>
      </trkpt>
      <trkpt lat="46.56239" lon="3.32471">
        <ele>223.64</ele>
        <time>2021-08-13T15:46:15Z</time>
      </trkpt>
      <trkpt lat="46.56237" lon="3.32467">
        <ele>223.64</ele>
        <time>2021-08-13T15:46:16Z</time>
      </trkpt>
      <trkpt lat="46.56236" lon="3.32463">
        <ele>223.64</ele>
        <time>2021-08-13T15:46:17Z</time>
      </trkpt>
      <trkpt lat="46.56234" lon="3.32458">
        <ele>223.64</ele>
        <time>2021-08-13T15:46:18Z</time>
      </trkpt>
      <trkpt lat="46.56222" lon="3.32423">
        <ele>223.64</ele>
        <time>2021-08-13T15:46:27Z</time>
      </trkpt>
      <trkpt lat="46.56213" lon="3.324">
        <ele>223.64</ele>
        <time>2021-08-13T15:46:36Z</time>
      </trkpt>
      <trkpt lat="46.56213" lon="3.32399">
        <ele>223.64</ele>
        <time>2021-08-13T15:46:37Z</time>
      </trkpt>
      <trkpt lat="46.56208" lon="3.32386">
        <ele>223.64</ele>
        <time>2021-08-13T15:46:43Z</time>
      </trkpt>
      <trkpt lat="46.56197" lon="3.32354">
        <ele>223.64</ele>
        <time>2021-08-13T15:46:50Z</time>
      </trkpt>
      <trkpt lat="46.56181" lon="3.32307">
        <ele>223.64</ele>
        <time>2021-08-13T15:46:59Z</time>
      </trkpt>
      <trkpt lat="46.56163" lon="3.32255">
        <ele>223.64</ele>
        <time>2021-08-13T15:47:09Z</time>
      </trkpt>
      <trkpt lat="46.56145" lon="3.32205">
        <ele>224.12</ele>
        <time>2021-08-13T15:47:18Z</time>
      </trkpt>
      <trkpt lat="46.5613" lon="3.32161">
        <ele>224.12</ele>
        <time>2021-08-13T15:47:26Z</time>
      </trkpt>
      <trkpt lat="46.56126" lon="3.3215">
        <ele>222.2</ele>
        <time>2021-08-13T15:47:28Z</time>
      </trkpt>
      <trkpt lat="46.56124" lon="3.32145">
        <ele>226.05</ele>
        <time>2021-08-13T15:47:29Z</time>
      </trkpt>
      <trkpt lat="46.56122" lon="3.3214">
        <ele>223.64</ele>
        <time>2021-08-13T15:47:30Z</time>
      </trkpt>
      <trkpt lat="46.56112" lon="3.32101">
        <ele>223.16</ele>
        <time>2021-08-13T15:47:38Z</time>
      </trkpt>
      <trkpt lat="46.56112" lon="3.32094">
        <ele>223.16</ele>
        <time>2021-08-13T15:47:39Z</time>
      </trkpt>
      <trkpt lat="46.56112" lon="3.3208">
        <ele>222.68</ele>
        <time>2021-08-13T15:47:41Z</time>
      </trkpt>
      <trkpt lat="46.5611" lon="3.32074">
        <ele>222.68</ele>
        <time>2021-08-13T15:47:42Z</time>
      </trkpt>
      <trkpt lat="46.56108" lon="3.3207">
        <ele>222.68</ele>
        <time>2021-08-13T15:47:43Z</time>
      </trkpt>
      <trkpt lat="46.56104" lon="3.32066">
        <ele>222.2</ele>
        <time>2021-08-13T15:47:44Z</time>
      </trkpt>
      <trkpt lat="46.56099" lon="3.32064">
        <ele>222.2</ele>
        <time>2021-08-13T15:47:45Z</time>
      </trkpt>
      <trkpt lat="46.56095" lon="3.32065">
        <ele>222.2</ele>
        <time>2021-08-13T15:47:46Z</time>
      </trkpt>
      <trkpt lat="46.56091" lon="3.32068">
        <ele>222.2</ele>
        <time>2021-08-13T15:47:47Z</time>
      </trkpt>
      <trkpt lat="46.56087" lon="3.32072">
        <ele>222.2</ele>
        <time>2021-08-13T15:47:48Z</time>
      </trkpt>
      <trkpt lat="46.56084" lon="3.32075">
        <ele>222.2</ele>
        <time>2021-08-13T15:47:49Z</time>
      </trkpt>
      <trkpt lat="46.56075" lon="3.32082">
        <ele>222.2</ele>
        <time>2021-08-13T15:47:51Z</time>
      </trkpt>
      <trkpt lat="46.56066" lon="3.32089">
        <ele>222.2</ele>
        <time>2021-08-13T15:47:53Z</time>
      </trkpt>
      <trkpt lat="46.56062" lon="3.32093">
        <ele>222.2</ele>
        <time>2021-08-13T15:47:54Z</time>
      </trkpt>
      <trkpt lat="46.56057" lon="3.32098">
        <ele>221.72</ele>
        <time>2021-08-13T15:47:55Z</time>
      </trkpt>
      <trkpt lat="46.56053" lon="3.321">
        <ele>221.72</ele>
        <time>2021-08-13T15:47:56Z</time>
      </trkpt>
      <trkpt lat="46.56048" lon="3.32102">
        <ele>221.72</ele>
        <time>2021-08-13T15:47:57Z</time>
      </trkpt>
      <trkpt lat="46.56006" lon="3.32126">
        <ele>221.24</ele>
        <time>2021-08-13T15:48:06Z</time>
      </trkpt>
      <trkpt lat="46.56002" lon="3.3213">
        <ele>221.24</ele>
        <time>2021-08-13T15:48:07Z</time>
      </trkpt>
      <trkpt lat="46.55999" lon="3.32136">
        <ele>221.24</ele>
        <time>2021-08-13T15:48:08Z</time>
      </trkpt>
      <trkpt lat="46.55997" lon="3.32144">
        <ele>221.24</ele>
        <time>2021-08-13T15:48:09Z</time>
      </trkpt>
      <trkpt lat="46.55998" lon="3.3215">
        <ele>221.24</ele>
        <time>2021-08-13T15:48:10Z</time>
      </trkpt>
      <trkpt lat="46.55999" lon="3.32156">
        <ele>221.24</ele>
        <time>2021-08-13T15:48:11Z</time>
      </trkpt>
      <trkpt lat="46.55999" lon="3.32164">
        <ele>221.24</ele>
        <time>2021-08-13T15:48:12Z</time>
      </trkpt>
      <trkpt lat="46.56" lon="3.32171">
        <ele>220.76</ele>
        <time>2021-08-13T15:48:13Z</time>
      </trkpt>
      <trkpt lat="46.56002" lon="3.32187">
        <ele>220.76</ele>
        <time>2021-08-13T15:48:15Z</time>
      </trkpt>
      <trkpt lat="46.56002" lon="3.32193">
        <ele>220.76</ele>
        <time>2021-08-13T15:48:16Z</time>
      </trkpt>
      <trkpt lat="46.56001" lon="3.322">
        <ele>220.76</ele>
        <time>2021-08-13T15:48:17Z</time>
      </trkpt>
      <trkpt lat="46.55998" lon="3.32208">
        <ele>220.76</ele>
        <time>2021-08-13T15:48:18Z</time>
      </trkpt>
      <trkpt lat="46.55996" lon="3.32214">
        <ele>220.76</ele>
        <time>2021-08-13T15:48:19Z</time>
      </trkpt>
      <trkpt lat="46.55993" lon="3.32218">
        <ele>220.76</ele>
        <time>2021-08-13T15:48:20Z</time>
      </trkpt>
      <trkpt lat="46.5599" lon="3.32223">
        <ele>219.8</ele>
        <time>2021-08-13T15:48:21Z</time>
      </trkpt>
      <trkpt lat="46.55985" lon="3.32228">
        <ele>219.32</ele>
        <time>2021-08-13T15:48:22Z</time>
      </trkpt>
      <trkpt lat="46.55981" lon="3.32232">
        <ele>219.32</ele>
        <time>2021-08-13T15:48:23Z</time>
      </trkpt>
      <trkpt lat="46.55938" lon="3.32267">
        <ele>217.88</ele>
        <time>2021-08-13T15:48:31Z</time>
      </trkpt>
      <trkpt lat="46.55895" lon="3.32307">
        <ele>215.95</ele>
        <time>2021-08-13T15:48:39Z</time>
      </trkpt>
      <trkpt lat="46.55878" lon="3.32321">
        <ele>215.95</ele>
        <time>2021-08-13T15:48:43Z</time>
      </trkpt>
      <trkpt lat="46.55875" lon="3.32325">
        <ele>215.47</ele>
        <time>2021-08-13T15:48:44Z</time>
      </trkpt>
      <trkpt lat="46.55871" lon="3.32329">
        <ele>215.47</ele>
        <time>2021-08-13T15:48:45Z</time>
      </trkpt>
      <trkpt lat="46.55868" lon="3.32332">
        <ele>215.47</ele>
        <time>2021-08-13T15:48:46Z</time>
      </trkpt>
      <trkpt lat="46.55866" lon="3.32333">
        <ele>215.47</ele>
        <time>2021-08-13T15:48:47Z</time>
      </trkpt>
      <trkpt lat="46.55863" lon="3.32334">
        <ele>215.47</ele>
        <time>2021-08-13T15:48:48Z</time>
      </trkpt>
      <trkpt lat="46.55861" lon="3.32335">
        <ele>215.47</ele>
        <time>2021-08-13T15:48:49Z</time>
      </trkpt>
      <trkpt lat="46.5586" lon="3.32336">
        <ele>215.47</ele>
        <time>2021-08-13T15:48:50Z</time>
      </trkpt>
      <trkpt lat="46.55858" lon="3.32338">
        <ele>215.47</ele>
        <time>2021-08-13T15:48:51Z</time>
      </trkpt>
      <trkpt lat="46.55858" lon="3.32341">
        <ele>215.47</ele>
        <time>2021-08-13T15:48:52Z</time>
      </trkpt>
      <trkpt lat="46.5586" lon="3.32341">
        <ele>215.47</ele>
        <time>2021-08-13T15:48:53Z</time>
      </trkpt>
      <trkpt lat="46.55861" lon="3.3234">
        <ele>215.47</ele>
        <time>2021-08-13T15:48:54Z</time>
      </trkpt>
      <trkpt lat="46.55863" lon="3.32339">
        <ele>215.47</ele>
        <time>2021-08-13T15:48:55Z</time>
      </trkpt>
      <trkpt lat="46.55864" lon="3.32337">
        <ele>215.47</ele>
        <time>2021-08-13T15:48:56Z</time>
      </trkpt>
      <trkpt lat="46.55877" lon="3.32325">
        <ele>215.47</ele>
        <time>2021-08-13T15:49:02Z</time>
      </trkpt>
      <trkpt lat="46.55896" lon="3.32307">
        <ele>215.47</ele>
        <time>2021-08-13T15:49:10Z</time>
      </trkpt>
      <trkpt lat="46.55918" lon="3.32288">
        <ele>216.91</ele>
        <time>2021-08-13T15:49:18Z</time>
      </trkpt>
      <trkpt lat="46.55942" lon="3.32265">
        <ele>217.4</ele>
        <time>2021-08-13T15:49:27Z</time>
      </trkpt>
      <trkpt lat="46.55968" lon="3.32242">
        <ele>218.84</ele>
        <time>2021-08-13T15:49:36Z</time>
      </trkpt>
      <trkpt lat="46.55992" lon="3.32216">
        <ele>219.8</ele>
        <time>2021-08-13T15:49:46Z</time>
      </trkpt>
      <trkpt lat="46.55992" lon="3.32213">
        <ele>219.8</ele>
        <time>2021-08-13T15:49:47Z</time>
      </trkpt>
      <trkpt lat="46.55991" lon="3.3221">
        <ele>220.28</ele>
        <time>2021-08-13T15:49:48Z</time>
      </trkpt>
      <trkpt lat="46.55989" lon="3.3221">
        <ele>220.28</ele>
        <time>2021-08-13T15:49:49Z</time>
      </trkpt>
      <trkpt lat="46.55987" lon="3.3221">
        <ele>220.28</ele>
        <time>2021-08-13T15:49:50Z</time>
      </trkpt>
      <trkpt lat="46.55984" lon="3.32211">
        <ele>220.28</ele>
        <time>2021-08-13T15:49:51Z</time>
      </trkpt>
      <trkpt lat="46.55981" lon="3.32213">
        <ele>220.28</ele>
        <time>2021-08-13T15:49:52Z</time>
      </trkpt>
      <trkpt lat="46.55978" lon="3.32216">
        <ele>220.28</ele>
        <time>2021-08-13T15:49:53Z</time>
      </trkpt>
      <trkpt lat="46.55975" lon="3.32218">
        <ele>220.28</ele>
        <time>2021-08-13T15:49:54Z</time>
      </trkpt>
      <trkpt lat="46.55972" lon="3.3222">
        <ele>220.28</ele>
        <time>2021-08-13T15:49:55Z</time>
      </trkpt>
      <trkpt lat="46.5595" lon="3.32237">
        <ele>220.28</ele>
        <time>2021-08-13T15:50:02Z</time>
      </trkpt>
      <trkpt lat="46.55947" lon="3.3224">
        <ele>220.28</ele>
        <time>2021-08-13T15:50:03Z</time>
      </trkpt>
      <trkpt lat="46.55906" lon="3.32273">
        <ele>220.28</ele>
        <time>2021-08-13T15:50:13Z</time>
      </trkpt>
      <trkpt lat="46.55872" lon="3.32297">
        <ele>220.28</ele>
        <time>2021-08-13T15:50:21Z</time>
      </trkpt>
      <trkpt lat="46.55835" lon="3.32328">
        <ele>218.84</ele>
        <time>2021-08-13T15:50:31Z</time>
      </trkpt>
      <trkpt lat="46.55796" lon="3.32358">
        <ele>218.84</ele>
        <time>2021-08-13T15:50:41Z</time>
      </trkpt>
      <trkpt lat="46.55761" lon="3.32385">
        <ele>218.84</ele>
        <time>2021-08-13T15:50:50Z</time>
      </trkpt>
      <trkpt lat="46.55724" lon="3.32412">
        <ele>218.84</ele>
        <time>2021-08-13T15:50:59Z</time>
      </trkpt>
      <trkpt lat="46.55694" lon="3.32433">
        <ele>218.36</ele>
        <time>2021-08-13T15:51:06Z</time>
      </trkpt>
      <trkpt lat="46.5569" lon="3.32436">
        <ele>218.36</ele>
        <time>2021-08-13T15:51:07Z</time>
      </trkpt>
      <trkpt lat="46.55651" lon="3.32465">
        <ele>218.36</ele>
        <time>2021-08-13T15:51:16Z</time>
      </trkpt>
      <trkpt lat="46.55608" lon="3.32499">
        <ele>218.36</ele>
        <time>2021-08-13T15:51:27Z</time>
      </trkpt>
      <trkpt lat="46.55587" lon="3.32517">
        <ele>219.8</ele>
        <time>2021-08-13T15:51:33Z</time>
      </trkpt>
      <trkpt lat="46.55558" lon="3.32541">
        <ele>220.76</ele>
        <time>2021-08-13T15:51:42Z</time>
      </trkpt>
      <trkpt lat="46.5553" lon="3.32568">
        <ele>220.76</ele>
        <time>2021-08-13T15:51:50Z</time>
      </trkpt>
      <trkpt lat="46.55493" lon="3.32606">
        <ele>220.28</ele>
        <time>2021-08-13T15:52:01Z</time>
      </trkpt>
      <trkpt lat="46.5546" lon="3.32635">
        <ele>220.28</ele>
        <time>2021-08-13T15:52:11Z</time>
      </trkpt>
      <trkpt lat="46.5544" lon="3.32637">
        <ele>220.28</ele>
        <time>2021-08-13T15:52:17Z</time>
      </trkpt>
      <trkpt lat="46.55412" lon="3.32642">
        <ele>220.28</ele>
        <time>2021-08-13T15:52:24Z</time>
      </trkpt>
      <trkpt lat="46.55367" lon="3.32644">
        <ele>220.28</ele>
        <time>2021-08-13T15:52:34Z</time>
      </trkpt>
      <trkpt lat="46.55316" lon="3.32635">
        <ele>220.28</ele>
        <time>2021-08-13T15:52:45Z</time>
      </trkpt>
      <trkpt lat="46.55271" lon="3.32618">
        <ele>220.28</ele>
        <time>2021-08-13T15:52:55Z</time>
      </trkpt>
      <trkpt lat="46.5523" lon="3.32594">
        <ele>220.28</ele>
        <time>2021-08-13T15:53:05Z</time>
      </trkpt>
      <trkpt lat="46.55206" lon="3.32577">
        <ele>217.4</ele>
        <time>2021-08-13T15:53:11Z</time>
      </trkpt>
      <trkpt lat="46.55187" lon="3.32564">
        <ele>215.47</ele>
        <time>2021-08-13T15:53:15Z</time>
      </trkpt>
      <trkpt lat="46.55184" lon="3.32558">
        <ele>215.47</ele>
        <time>2021-08-13T15:53:16Z</time>
      </trkpt>
      <trkpt lat="46.55178" lon="3.32546">
        <ele>214.51</ele>
        <time>2021-08-13T15:53:18Z</time>
      </trkpt>
      <trkpt lat="46.55167" lon="3.32529">
        <ele>214.03</ele>
        <time>2021-08-13T15:53:21Z</time>
      </trkpt>
      <trkpt lat="46.55158" lon="3.32516">
        <ele>214.03</ele>
        <time>2021-08-13T15:53:24Z</time>
      </trkpt>
      <trkpt lat="46.55154" lon="3.32512">
        <ele>214.03</ele>
        <time>2021-08-13T15:53:25Z</time>
      </trkpt>
      <trkpt lat="46.55132" lon="3.32488">
        <ele>214.51</ele>
        <time>2021-08-13T15:53:32Z</time>
      </trkpt>
      <trkpt lat="46.55117" lon="3.32473">
        <ele>215.47</ele>
        <time>2021-08-13T15:53:39Z</time>
      </trkpt>
      <trkpt lat="46.55095" lon="3.32454">
        <ele>215.47</ele>
        <time>2021-08-13T15:53:47Z</time>
      </trkpt>
      <trkpt lat="46.55065" lon="3.32429">
        <ele>215.47</ele>
        <time>2021-08-13T15:53:57Z</time>
      </trkpt>
      <trkpt lat="46.55032" lon="3.32409">
        <ele>215.47</ele>
        <time>2021-08-13T15:54:06Z</time>
      </trkpt>
      <trkpt lat="46.54994" lon="3.32389">
        <ele>215.47</ele>
        <time>2021-08-13T15:54:16Z</time>
      </trkpt>
      <trkpt lat="46.54972" lon="3.32377">
        <ele>215.47</ele>
        <time>2021-08-13T15:54:21Z</time>
      </trkpt>
      <trkpt lat="46.54968" lon="3.32374">
        <ele>215.47</ele>
        <time>2021-08-13T15:54:22Z</time>
      </trkpt>
      <trkpt lat="46.5493" lon="3.3234">
        <ele>215.47</ele>
        <time>2021-08-13T15:54:31Z</time>
      </trkpt>
      <trkpt lat="46.5489" lon="3.32313">
        <ele>215.47</ele>
        <time>2021-08-13T15:54:40Z</time>
      </trkpt>
      <trkpt lat="46.54882" lon="3.32308">
        <ele>215.47</ele>
        <time>2021-08-13T15:54:42Z</time>
      </trkpt>
      <trkpt lat="46.54846" lon="3.323">
        <ele>215.47</ele>
        <time>2021-08-13T15:54:50Z</time>
      </trkpt>
      <trkpt lat="46.54842" lon="3.32298">
        <ele>215.47</ele>
        <time>2021-08-13T15:54:51Z</time>
      </trkpt>
      <trkpt lat="46.54838" lon="3.32296">
        <ele>215.47</ele>
        <time>2021-08-13T15:54:52Z</time>
      </trkpt>
      <trkpt lat="46.54825" lon="3.32292">
        <ele>215.47</ele>
        <time>2021-08-13T15:54:55Z</time>
      </trkpt>
      <trkpt lat="46.54783" lon="3.32286">
        <ele>215.47</ele>
        <time>2021-08-13T15:55:04Z</time>
      </trkpt>
      <trkpt lat="46.54746" lon="3.32285">
        <ele>215.47</ele>
        <time>2021-08-13T15:55:12Z</time>
      </trkpt>
      <trkpt lat="46.54704" lon="3.3229">
        <ele>215.47</ele>
        <time>2021-08-13T15:55:21Z</time>
      </trkpt>
      <trkpt lat="46.54656" lon="3.32298">
        <ele>215.47</ele>
        <time>2021-08-13T15:55:31Z</time>
      </trkpt>
      <trkpt lat="46.54609" lon="3.3232">
        <ele>215.47</ele>
        <time>2021-08-13T15:55:41Z</time>
      </trkpt>
      <trkpt lat="46.54559" lon="3.32344">
        <ele>215.47</ele>
        <time>2021-08-13T15:55:52Z</time>
      </trkpt>
      <trkpt lat="46.54513" lon="3.32366">
        <ele>215.47</ele>
        <time>2021-08-13T15:56:02Z</time>
      </trkpt>
      <trkpt lat="46.54508" lon="3.32368">
        <ele>215.95</ele>
        <time>2021-08-13T15:56:03Z</time>
      </trkpt>
      <trkpt lat="46.54504" lon="3.32368">
        <ele>215.95</ele>
        <time>2021-08-13T15:56:04Z</time>
      </trkpt>
      <trkpt lat="46.545" lon="3.32369">
        <ele>215.95</ele>
        <time>2021-08-13T15:56:05Z</time>
      </trkpt>
      <trkpt lat="46.54465" lon="3.32362">
        <ele>216.43</ele>
        <time>2021-08-13T15:56:13Z</time>
      </trkpt>
      <trkpt lat="46.5446" lon="3.32363">
        <ele>216.43</ele>
        <time>2021-08-13T15:56:14Z</time>
      </trkpt>
      <trkpt lat="46.54456" lon="3.32364">
        <ele>216.43</ele>
        <time>2021-08-13T15:56:15Z</time>
      </trkpt>
      <trkpt lat="46.54451" lon="3.32367">
        <ele>216.43</ele>
        <time>2021-08-13T15:56:16Z</time>
      </trkpt>
      <trkpt lat="46.54447" lon="3.32369">
        <ele>216.43</ele>
        <time>2021-08-13T15:56:17Z</time>
      </trkpt>
      <trkpt lat="46.54409" lon="3.32384">
        <ele>216.43</ele>
        <time>2021-08-13T15:56:25Z</time>
      </trkpt>
      <trkpt lat="46.54405" lon="3.32385">
        <ele>216.43</ele>
        <time>2021-08-13T15:56:26Z</time>
      </trkpt>
      <trkpt lat="46.5437" lon="3.32391">
        <ele>216.43</ele>
        <time>2021-08-13T15:56:34Z</time>
      </trkpt>
      <trkpt lat="46.54366" lon="3.32394">
        <ele>216.43</ele>
        <time>2021-08-13T15:56:35Z</time>
      </trkpt>
      <trkpt lat="46.54364" lon="3.32397">
        <ele>216.91</ele>
        <time>2021-08-13T15:56:36Z</time>
      </trkpt>
      <trkpt lat="46.54363" lon="3.32401">
        <ele>216.91</ele>
        <time>2021-08-13T15:56:37Z</time>
      </trkpt>
      <trkpt lat="46.54363" lon="3.32406">
        <ele>215.47</ele>
        <time>2021-08-13T15:56:38Z</time>
      </trkpt>
      <trkpt lat="46.54362" lon="3.32412">
        <ele>215.47</ele>
        <time>2021-08-13T15:56:39Z</time>
      </trkpt>
      <trkpt lat="46.5436" lon="3.32424">
        <ele>214.99</ele>
        <time>2021-08-13T15:56:41Z</time>
      </trkpt>
      <trkpt lat="46.54354" lon="3.3244">
        <ele>214.99</ele>
        <time>2021-08-13T15:56:45Z</time>
      </trkpt>
      <trkpt lat="46.54353" lon="3.32441">
        <ele>214.99</ele>
        <time>2021-08-13T15:56:46Z</time>
      </trkpt>
      <trkpt lat="46.54351" lon="3.32444">
        <ele>214.99</ele>
        <time>2021-08-13T15:56:47Z</time>
      </trkpt>
      <trkpt lat="46.54349" lon="3.32447">
        <ele>214.99</ele>
        <time>2021-08-13T15:56:48Z</time>
      </trkpt>
      <trkpt lat="46.54348" lon="3.3245">
        <ele>214.99</ele>
        <time>2021-08-13T15:56:49Z</time>
      </trkpt>
      <trkpt lat="46.54346" lon="3.32453">
        <ele>214.99</ele>
        <time>2021-08-13T15:56:50Z</time>
      </trkpt>
      <trkpt lat="46.54345" lon="3.32457">
        <ele>214.99</ele>
        <time>2021-08-13T15:56:51Z</time>
      </trkpt>
      <trkpt lat="46.54343" lon="3.3246">
        <ele>215.95</ele>
        <time>2021-08-13T15:56:52Z</time>
      </trkpt>
      <trkpt lat="46.54331" lon="3.32475">
        <ele>215.95</ele>
        <time>2021-08-13T15:56:58Z</time>
      </trkpt>
      <trkpt lat="46.54307" lon="3.32494">
        <ele>216.43</ele>
        <time>2021-08-13T15:57:05Z</time>
      </trkpt>
      <trkpt lat="46.54286" lon="3.32514">
        <ele>216.43</ele>
        <time>2021-08-13T15:57:11Z</time>
      </trkpt>
      <trkpt lat="46.54282" lon="3.32517">
        <ele>216.43</ele>
        <time>2021-08-13T15:57:12Z</time>
      </trkpt>
      <trkpt lat="46.54275" lon="3.32522">
        <ele>216.43</ele>
        <time>2021-08-13T15:57:14Z</time>
      </trkpt>
      <trkpt lat="46.5427" lon="3.32522">
        <ele>216.43</ele>
        <time>2021-08-13T15:57:15Z</time>
      </trkpt>
      <trkpt lat="46.54262" lon="3.32521">
        <ele>216.43</ele>
        <time>2021-08-13T15:57:17Z</time>
      </trkpt>
      <trkpt lat="46.54257" lon="3.32523">
        <ele>216.43</ele>
        <time>2021-08-13T15:57:18Z</time>
      </trkpt>
      <trkpt lat="46.54253" lon="3.32525">
        <ele>216.43</ele>
        <time>2021-08-13T15:57:19Z</time>
      </trkpt>
      <trkpt lat="46.54249" lon="3.32527">
        <ele>216.43</ele>
        <time>2021-08-13T15:57:20Z</time>
      </trkpt>
      <trkpt lat="46.54241" lon="3.32531">
        <ele>216.43</ele>
        <time>2021-08-13T15:57:22Z</time>
      </trkpt>
      <trkpt lat="46.54233" lon="3.32529">
        <ele>216.43</ele>
        <time>2021-08-13T15:57:24Z</time>
      </trkpt>
      <trkpt lat="46.54224" lon="3.32525">
        <ele>216.43</ele>
        <time>2021-08-13T15:57:26Z</time>
      </trkpt>
      <trkpt lat="46.54208" lon="3.32535">
        <ele>216.43</ele>
        <time>2021-08-13T15:57:31Z</time>
      </trkpt>
      <trkpt lat="46.54198" lon="3.32555">
        <ele>216.43</ele>
        <time>2021-08-13T15:57:36Z</time>
      </trkpt>
      <trkpt lat="46.54195" lon="3.32554">
        <ele>216.43</ele>
        <time>2021-08-13T15:57:37Z</time>
      </trkpt>
      <trkpt lat="46.54192" lon="3.32553">
        <ele>216.43</ele>
        <time>2021-08-13T15:57:38Z</time>
      </trkpt>
      <trkpt lat="46.54188" lon="3.32554">
        <ele>216.43</ele>
        <time>2021-08-13T15:57:39Z</time>
      </trkpt>
      <trkpt lat="46.54185" lon="3.32555">
        <ele>216.43</ele>
        <time>2021-08-13T15:57:40Z</time>
      </trkpt>
      <trkpt lat="46.54182" lon="3.32555">
        <ele>216.43</ele>
        <time>2021-08-13T15:57:41Z</time>
      </trkpt>
      <trkpt lat="46.54169" lon="3.32552">
        <ele>216.43</ele>
        <time>2021-08-13T15:57:46Z</time>
      </trkpt>
      <trkpt lat="46.54167" lon="3.32564">
        <ele>215.95</ele>
        <time>2021-08-13T15:57:51Z</time>
      </trkpt>
      <trkpt lat="46.5416" lon="3.32576">
        <ele>215.95</ele>
        <time>2021-08-13T15:57:56Z</time>
      </trkpt>
      <trkpt lat="46.54155" lon="3.32589">
        <ele>215.95</ele>
        <time>2021-08-13T15:57:59Z</time>
      </trkpt>
      <trkpt lat="46.54152" lon="3.32593">
        <ele>214.99</ele>
        <time>2021-08-13T15:58:00Z</time>
      </trkpt>
      <trkpt lat="46.54149" lon="3.32597">
        <ele>214.99</ele>
        <time>2021-08-13T15:58:01Z</time>
      </trkpt>
      <trkpt lat="46.54148" lon="3.32602">
        <ele>214.99</ele>
        <time>2021-08-13T15:58:02Z</time>
      </trkpt>
      <trkpt lat="46.54146" lon="3.32608">
        <ele>214.99</ele>
        <time>2021-08-13T15:58:03Z</time>
      </trkpt>
      <trkpt lat="46.54144" lon="3.32612">
        <ele>214.99</ele>
        <time>2021-08-13T15:58:04Z</time>
      </trkpt>
      <trkpt lat="46.54143" lon="3.32617">
        <ele>214.99</ele>
        <time>2021-08-13T15:58:05Z</time>
      </trkpt>
      <trkpt lat="46.5414" lon="3.32622">
        <ele>214.99</ele>
        <time>2021-08-13T15:58:06Z</time>
      </trkpt>
      <trkpt lat="46.54137" lon="3.32626">
        <ele>214.99</ele>
        <time>2021-08-13T15:58:07Z</time>
      </trkpt>
      <trkpt lat="46.54133" lon="3.32631">
        <ele>214.99</ele>
        <time>2021-08-13T15:58:08Z</time>
      </trkpt>
      <trkpt lat="46.54103" lon="3.32665">
        <ele>215.95</ele>
        <time>2021-08-13T15:58:17Z</time>
      </trkpt>
      <trkpt lat="46.54071" lon="3.32709">
        <ele>215.95</ele>
        <time>2021-08-13T15:58:27Z</time>
      </trkpt>
      <trkpt lat="46.54064" lon="3.32723">
        <ele>215.95</ele>
        <time>2021-08-13T15:58:30Z</time>
      </trkpt>
      <trkpt lat="46.54054" lon="3.32738">
        <ele>215.95</ele>
        <time>2021-08-13T15:58:33Z</time>
      </trkpt>
      <trkpt lat="46.5405" lon="3.32741">
        <ele>215.95</ele>
        <time>2021-08-13T15:58:34Z</time>
      </trkpt>
      <trkpt lat="46.54046" lon="3.32745">
        <ele>215.95</ele>
        <time>2021-08-13T15:58:35Z</time>
      </trkpt>
      <trkpt lat="46.54043" lon="3.32749">
        <ele>215.95</ele>
        <time>2021-08-13T15:58:36Z</time>
      </trkpt>
      <trkpt lat="46.5404" lon="3.32754">
        <ele>215.95</ele>
        <time>2021-08-13T15:58:37Z</time>
      </trkpt>
      <trkpt lat="46.54018" lon="3.32788">
        <ele>215.95</ele>
        <time>2021-08-13T15:58:44Z</time>
      </trkpt>
      <trkpt lat="46.54014" lon="3.32793">
        <ele>215.95</ele>
        <time>2021-08-13T15:58:45Z</time>
      </trkpt>
      <trkpt lat="46.54009" lon="3.32797">
        <ele>215.95</ele>
        <time>2021-08-13T15:58:46Z</time>
      </trkpt>
      <trkpt lat="46.54005" lon="3.32801">
        <ele>215.95</ele>
        <time>2021-08-13T15:58:47Z</time>
      </trkpt>
      <trkpt lat="46.54" lon="3.32804">
        <ele>215.95</ele>
        <time>2021-08-13T15:58:48Z</time>
      </trkpt>
      <trkpt lat="46.53997" lon="3.32808">
        <ele>215.95</ele>
        <time>2021-08-13T15:58:49Z</time>
      </trkpt>
      <trkpt lat="46.53993" lon="3.32812">
        <ele>215.95</ele>
        <time>2021-08-13T15:58:50Z</time>
      </trkpt>
      <trkpt lat="46.53989" lon="3.32813">
        <ele>215.95</ele>
        <time>2021-08-13T15:58:51Z</time>
      </trkpt>
      <trkpt lat="46.53981" lon="3.32814">
        <ele>215.95</ele>
        <time>2021-08-13T15:58:53Z</time>
      </trkpt>
      <trkpt lat="46.53978" lon="3.32817">
        <ele>215.95</ele>
        <time>2021-08-13T15:58:54Z</time>
      </trkpt>
      <trkpt lat="46.53976" lon="3.32821">
        <ele>215.95</ele>
        <time>2021-08-13T15:58:55Z</time>
      </trkpt>
      <trkpt lat="46.53973" lon="3.32825">
        <ele>215.95</ele>
        <time>2021-08-13T15:58:56Z</time>
      </trkpt>
      <trkpt lat="46.53969" lon="3.32828">
        <ele>215.95</ele>
        <time>2021-08-13T15:58:57Z</time>
      </trkpt>
      <trkpt lat="46.53966" lon="3.3283">
        <ele>215.95</ele>
        <time>2021-08-13T15:58:58Z</time>
      </trkpt>
      <trkpt lat="46.53962" lon="3.32831">
        <ele>215.95</ele>
        <time>2021-08-13T15:58:59Z</time>
      </trkpt>
      <trkpt lat="46.53958" lon="3.3283">
        <ele>215.95</ele>
        <time>2021-08-13T15:59:00Z</time>
      </trkpt>
      <trkpt lat="46.53955" lon="3.32828">
        <ele>215.95</ele>
        <time>2021-08-13T15:59:01Z</time>
      </trkpt>
      <trkpt lat="46.53951" lon="3.32826">
        <ele>215.95</ele>
        <time>2021-08-13T15:59:02Z</time>
      </trkpt>
      <trkpt lat="46.53948" lon="3.32825">
        <ele>215.95</ele>
        <time>2021-08-13T15:59:03Z</time>
      </trkpt>
      <trkpt lat="46.53945" lon="3.32827">
        <ele>215.95</ele>
        <time>2021-08-13T15:59:04Z</time>
      </trkpt>
      <trkpt lat="46.53941" lon="3.32826">
        <ele>215.95</ele>
        <time>2021-08-13T15:59:05Z</time>
      </trkpt>
      <trkpt lat="46.53938" lon="3.32823">
        <ele>215.95</ele>
        <time>2021-08-13T15:59:06Z</time>
      </trkpt>
      <trkpt lat="46.53936" lon="3.32819">
        <ele>215.95</ele>
        <time>2021-08-13T15:59:07Z</time>
      </trkpt>
      <trkpt lat="46.53933" lon="3.32815">
        <ele>215.95</ele>
        <time>2021-08-13T15:59:08Z</time>
      </trkpt>
      <trkpt lat="46.53931" lon="3.3281">
        <ele>215.95</ele>
        <time>2021-08-13T15:59:09Z</time>
      </trkpt>
      <trkpt lat="46.53928" lon="3.32807">
        <ele>215.95</ele>
        <time>2021-08-13T15:59:10Z</time>
      </trkpt>
      <trkpt lat="46.53924" lon="3.32806">
        <ele>215.95</ele>
        <time>2021-08-13T15:59:11Z</time>
      </trkpt>
      <trkpt lat="46.5392" lon="3.32805">
        <ele>215.95</ele>
        <time>2021-08-13T15:59:12Z</time>
      </trkpt>
      <trkpt lat="46.53916" lon="3.32805">
        <ele>215.95</ele>
        <time>2021-08-13T15:59:13Z</time>
      </trkpt>
      <trkpt lat="46.53912" lon="3.32805">
        <ele>215.95</ele>
        <time>2021-08-13T15:59:14Z</time>
      </trkpt>
      <trkpt lat="46.53908" lon="3.32806">
        <ele>215.95</ele>
        <time>2021-08-13T15:59:15Z</time>
      </trkpt>
      <trkpt lat="46.53903" lon="3.32808">
        <ele>215.95</ele>
        <time>2021-08-13T15:59:16Z</time>
      </trkpt>
      <trkpt lat="46.539" lon="3.3281">
        <ele>215.95</ele>
        <time>2021-08-13T15:59:17Z</time>
      </trkpt>
      <trkpt lat="46.53883" lon="3.32827">
        <ele>215.95</ele>
        <time>2021-08-13T15:59:22Z</time>
      </trkpt>
      <trkpt lat="46.53861" lon="3.32853">
        <ele>215.95</ele>
        <time>2021-08-13T15:59:29Z</time>
      </trkpt>
      <trkpt lat="46.5384" lon="3.32883">
        <ele>215.95</ele>
        <time>2021-08-13T15:59:36Z</time>
      </trkpt>
      <trkpt lat="46.53828" lon="3.32898">
        <ele>215.95</ele>
        <time>2021-08-13T15:59:40Z</time>
      </trkpt>
      <trkpt lat="46.53825" lon="3.32903">
        <ele>215.95</ele>
        <time>2021-08-13T15:59:41Z</time>
      </trkpt>
      <trkpt lat="46.53817" lon="3.32918">
        <ele>215.95</ele>
        <time>2021-08-13T15:59:44Z</time>
      </trkpt>
      <trkpt lat="46.53815" lon="3.32923">
        <ele>215.95</ele>
        <time>2021-08-13T15:59:45Z</time>
      </trkpt>
      <trkpt lat="46.53796" lon="3.32954">
        <ele>216.43</ele>
        <time>2021-08-13T15:59:52Z</time>
      </trkpt>
      <trkpt lat="46.53781" lon="3.32974">
        <ele>216.43</ele>
        <time>2021-08-13T15:59:58Z</time>
      </trkpt>
      <trkpt lat="46.53765" lon="3.3299">
        <ele>216.43</ele>
        <time>2021-08-13T16:00:04Z</time>
      </trkpt>
      <trkpt lat="46.53758" lon="3.32991">
        <ele>216.43</ele>
        <time>2021-08-13T16:00:06Z</time>
      </trkpt>
      <trkpt lat="46.53755" lon="3.32989">
        <ele>216.43</ele>
        <time>2021-08-13T16:00:07Z</time>
      </trkpt>
      <trkpt lat="46.53752" lon="3.32985">
        <ele>216.43</ele>
        <time>2021-08-13T16:00:08Z</time>
      </trkpt>
      <trkpt lat="46.53749" lon="3.32981">
        <ele>216.43</ele>
        <time>2021-08-13T16:00:09Z</time>
      </trkpt>
      <trkpt lat="46.53747" lon="3.32977">
        <ele>216.43</ele>
        <time>2021-08-13T16:00:10Z</time>
      </trkpt>
      <trkpt lat="46.53743" lon="3.32963">
        <ele>216.91</ele>
        <time>2021-08-13T16:00:13Z</time>
      </trkpt>
      <trkpt lat="46.53742" lon="3.32957">
        <ele>216.91</ele>
        <time>2021-08-13T16:00:14Z</time>
      </trkpt>
      <trkpt lat="46.53742" lon="3.32952">
        <ele>216.91</ele>
        <time>2021-08-13T16:00:15Z</time>
      </trkpt>
      <trkpt lat="46.5374" lon="3.32946">
        <ele>216.91</ele>
        <time>2021-08-13T16:00:16Z</time>
      </trkpt>
      <trkpt lat="46.53739" lon="3.3294">
        <ele>216.91</ele>
        <time>2021-08-13T16:00:17Z</time>
      </trkpt>
      <trkpt lat="46.53737" lon="3.32935">
        <ele>216.91</ele>
        <time>2021-08-13T16:00:18Z</time>
      </trkpt>
      <trkpt lat="46.53731" lon="3.32915">
        <ele>216.91</ele>
        <time>2021-08-13T16:00:22Z</time>
      </trkpt>
      <trkpt lat="46.53729" lon="3.32882">
        <ele>216.91</ele>
        <time>2021-08-13T16:00:28Z</time>
      </trkpt>
      <trkpt lat="46.53734" lon="3.32851">
        <ele>216.91</ele>
        <time>2021-08-13T16:00:34Z</time>
      </trkpt>
      <trkpt lat="46.53736" lon="3.32841">
        <ele>216.91</ele>
        <time>2021-08-13T16:00:36Z</time>
      </trkpt>
      <trkpt lat="46.53735" lon="3.32835">
        <ele>216.91</ele>
        <time>2021-08-13T16:00:37Z</time>
      </trkpt>
      <trkpt lat="46.53733" lon="3.3283">
        <ele>216.91</ele>
        <time>2021-08-13T16:00:38Z</time>
      </trkpt>
      <trkpt lat="46.53731" lon="3.32825">
        <ele>216.91</ele>
        <time>2021-08-13T16:00:39Z</time>
      </trkpt>
      <trkpt lat="46.53728" lon="3.32823">
        <ele>216.91</ele>
        <time>2021-08-13T16:00:40Z</time>
      </trkpt>
      <trkpt lat="46.53724" lon="3.32823">
        <ele>216.91</ele>
        <time>2021-08-13T16:00:41Z</time>
      </trkpt>
      <trkpt lat="46.53721" lon="3.32824">
        <ele>216.91</ele>
        <time>2021-08-13T16:00:42Z</time>
      </trkpt>
      <trkpt lat="46.53717" lon="3.32823">
        <ele>216.91</ele>
        <time>2021-08-13T16:00:43Z</time>
      </trkpt>
      <trkpt lat="46.53714" lon="3.3282">
        <ele>216.91</ele>
        <time>2021-08-13T16:00:44Z</time>
      </trkpt>
      <trkpt lat="46.5371" lon="3.32817">
        <ele>216.91</ele>
        <time>2021-08-13T16:00:45Z</time>
      </trkpt>
      <trkpt lat="46.53707" lon="3.32813">
        <ele>216.91</ele>
        <time>2021-08-13T16:00:46Z</time>
      </trkpt>
      <trkpt lat="46.53704" lon="3.32808">
        <ele>216.91</ele>
        <time>2021-08-13T16:00:47Z</time>
      </trkpt>
      <trkpt lat="46.53702" lon="3.32804">
        <ele>216.91</ele>
        <time>2021-08-13T16:00:48Z</time>
      </trkpt>
      <trkpt lat="46.53692" lon="3.32786">
        <ele>216.91</ele>
        <time>2021-08-13T16:00:52Z</time>
      </trkpt>
      <trkpt lat="46.53689" lon="3.32782">
        <ele>216.91</ele>
        <time>2021-08-13T16:00:53Z</time>
      </trkpt>
      <trkpt lat="46.53686" lon="3.32778">
        <ele>216.91</ele>
        <time>2021-08-13T16:00:54Z</time>
      </trkpt>
      <trkpt lat="46.53683" lon="3.32774">
        <ele>216.91</ele>
        <time>2021-08-13T16:00:55Z</time>
      </trkpt>
      <trkpt lat="46.53681" lon="3.32769">
        <ele>216.91</ele>
        <time>2021-08-13T16:00:56Z</time>
      </trkpt>
      <trkpt lat="46.5368" lon="3.32763">
        <ele>216.91</ele>
        <time>2021-08-13T16:00:57Z</time>
      </trkpt>
      <trkpt lat="46.53678" lon="3.32758">
        <ele>216.91</ele>
        <time>2021-08-13T16:00:58Z</time>
      </trkpt>
      <trkpt lat="46.53676" lon="3.32753">
        <ele>216.91</ele>
        <time>2021-08-13T16:00:59Z</time>
      </trkpt>
      <trkpt lat="46.53673" lon="3.32748">
        <ele>216.91</ele>
        <time>2021-08-13T16:01:00Z</time>
      </trkpt>
      <trkpt lat="46.5367" lon="3.32744">
        <ele>216.91</ele>
        <time>2021-08-13T16:01:01Z</time>
      </trkpt>
      <trkpt lat="46.53667" lon="3.3274">
        <ele>216.91</ele>
        <time>2021-08-13T16:01:02Z</time>
      </trkpt>
      <trkpt lat="46.53657" lon="3.32723">
        <ele>216.91</ele>
        <time>2021-08-13T16:01:06Z</time>
      </trkpt>
      <trkpt lat="46.53655" lon="3.32717">
        <ele>216.91</ele>
        <time>2021-08-13T16:01:07Z</time>
      </trkpt>
      <trkpt lat="46.53655" lon="3.32711">
        <ele>216.91</ele>
        <time>2021-08-13T16:01:08Z</time>
      </trkpt>
      <trkpt lat="46.53654" lon="3.32671">
        <ele>216.91</ele>
        <time>2021-08-13T16:01:15Z</time>
      </trkpt>
      <trkpt lat="46.5365" lon="3.32637">
        <ele>216.91</ele>
        <time>2021-08-13T16:01:21Z</time>
      </trkpt>
      <trkpt lat="46.5364" lon="3.32612">
        <ele>215.47</ele>
        <time>2021-08-13T16:01:26Z</time>
      </trkpt>
      <trkpt lat="46.53636" lon="3.32591">
        <ele>215.47</ele>
        <time>2021-08-13T16:01:30Z</time>
      </trkpt>
      <trkpt lat="46.53633" lon="3.32587">
        <ele>214.99</ele>
        <time>2021-08-13T16:01:31Z</time>
      </trkpt>
      <trkpt lat="46.5363" lon="3.32583">
        <ele>214.99</ele>
        <time>2021-08-13T16:01:32Z</time>
      </trkpt>
      <trkpt lat="46.53628" lon="3.32579">
        <ele>216.43</ele>
        <time>2021-08-13T16:01:33Z</time>
      </trkpt>
      <trkpt lat="46.53626" lon="3.32575">
        <ele>216.43</ele>
        <time>2021-08-13T16:01:34Z</time>
      </trkpt>
      <trkpt lat="46.53619" lon="3.32564">
        <ele>216.43</ele>
        <time>2021-08-13T16:01:37Z</time>
      </trkpt>
      <trkpt lat="46.53619" lon="3.32559">
        <ele>216.43</ele>
        <time>2021-08-13T16:01:38Z</time>
      </trkpt>
      <trkpt lat="46.53618" lon="3.32554">
        <ele>216.91</ele>
        <time>2021-08-13T16:01:39Z</time>
      </trkpt>
      <trkpt lat="46.53617" lon="3.32548">
        <ele>216.91</ele>
        <time>2021-08-13T16:01:40Z</time>
      </trkpt>
      <trkpt lat="46.53615" lon="3.32544">
        <ele>216.91</ele>
        <time>2021-08-13T16:01:41Z</time>
      </trkpt>
      <trkpt lat="46.53613" lon="3.32541">
        <ele>216.91</ele>
        <time>2021-08-13T16:01:42Z</time>
      </trkpt>
      <trkpt lat="46.5361" lon="3.32538">
        <ele>216.91</ele>
        <time>2021-08-13T16:01:43Z</time>
      </trkpt>
      <trkpt lat="46.53603" lon="3.32527">
        <ele>216.91</ele>
        <time>2021-08-13T16:01:47Z</time>
      </trkpt>
      <trkpt lat="46.53601" lon="3.32527">
        <ele>216.91</ele>
        <time>2021-08-13T16:01:48Z</time>
      </trkpt>
      <trkpt lat="46.53592" lon="3.32532">
        <ele>215.47</ele>
        <time>2021-08-13T16:01:52Z</time>
      </trkpt>
      <trkpt lat="46.53576" lon="3.32551">
        <ele>214.99</ele>
        <time>2021-08-13T16:01:58Z</time>
      </trkpt>
      <trkpt lat="46.53557" lon="3.32557">
        <ele>214.99</ele>
        <time>2021-08-13T16:02:03Z</time>
      </trkpt>
      <trkpt lat="46.53536" lon="3.3257">
        <ele>214.99</ele>
        <time>2021-08-13T16:02:09Z</time>
      </trkpt>
      <trkpt lat="46.53531" lon="3.3258">
        <ele>214.99</ele>
        <time>2021-08-13T16:02:12Z</time>
      </trkpt>
      <trkpt lat="46.53519" lon="3.3258">
        <ele>214.99</ele>
        <time>2021-08-13T16:02:15Z</time>
      </trkpt>
      <trkpt lat="46.53507" lon="3.32574">
        <ele>215.47</ele>
        <time>2021-08-13T16:02:18Z</time>
      </trkpt>
      <trkpt lat="46.53503" lon="3.32576">
        <ele>215.47</ele>
        <time>2021-08-13T16:02:19Z</time>
      </trkpt>
      <trkpt lat="46.53499" lon="3.32578">
        <ele>215.47</ele>
        <time>2021-08-13T16:02:20Z</time>
      </trkpt>
      <trkpt lat="46.53496" lon="3.3258">
        <ele>215.47</ele>
        <time>2021-08-13T16:02:21Z</time>
      </trkpt>
      <trkpt lat="46.53492" lon="3.32582">
        <ele>214.99</ele>
        <time>2021-08-13T16:02:22Z</time>
      </trkpt>
      <trkpt lat="46.53471" lon="3.32588">
        <ele>214.99</ele>
        <time>2021-08-13T16:02:27Z</time>
      </trkpt>
      <trkpt lat="46.53457" lon="3.326">
        <ele>214.99</ele>
        <time>2021-08-13T16:02:32Z</time>
      </trkpt>
      <trkpt lat="46.53453" lon="3.326">
        <ele>214.99</ele>
        <time>2021-08-13T16:02:33Z</time>
      </trkpt>
      <trkpt lat="46.5345" lon="3.326">
        <ele>214.99</ele>
        <time>2021-08-13T16:02:34Z</time>
      </trkpt>
      <trkpt lat="46.53446" lon="3.32599">
        <ele>214.99</ele>
        <time>2021-08-13T16:02:35Z</time>
      </trkpt>
      <trkpt lat="46.53443" lon="3.32598">
        <ele>214.99</ele>
        <time>2021-08-13T16:02:36Z</time>
      </trkpt>
      <trkpt lat="46.53439" lon="3.32596">
        <ele>214.99</ele>
        <time>2021-08-13T16:02:37Z</time>
      </trkpt>
      <trkpt lat="46.53435" lon="3.32594">
        <ele>214.99</ele>
        <time>2021-08-13T16:02:38Z</time>
      </trkpt>
      <trkpt lat="46.53432" lon="3.32592">
        <ele>214.99</ele>
        <time>2021-08-13T16:02:39Z</time>
      </trkpt>
      <trkpt lat="46.53429" lon="3.32591">
        <ele>214.99</ele>
        <time>2021-08-13T16:02:40Z</time>
      </trkpt>
      <trkpt lat="46.53426" lon="3.32592">
        <ele>214.99</ele>
        <time>2021-08-13T16:02:41Z</time>
      </trkpt>
      <trkpt lat="46.53423" lon="3.32592">
        <ele>214.99</ele>
        <time>2021-08-13T16:02:42Z</time>
      </trkpt>
      <trkpt lat="46.53419" lon="3.32592">
        <ele>214.99</ele>
        <time>2021-08-13T16:02:43Z</time>
      </trkpt>
      <trkpt lat="46.53395" lon="3.32588">
        <ele>214.99</ele>
        <time>2021-08-13T16:02:50Z</time>
      </trkpt>
      <trkpt lat="46.53369" lon="3.32589">
        <ele>214.99</ele>
        <time>2021-08-13T16:02:57Z</time>
      </trkpt>
      <trkpt lat="46.53354" lon="3.3259">
        <ele>214.99</ele>
        <time>2021-08-13T16:03:02Z</time>
      </trkpt>
      <trkpt lat="46.53352" lon="3.32588">
        <ele>214.99</ele>
        <time>2021-08-13T16:03:03Z</time>
      </trkpt>
      <trkpt lat="46.53349" lon="3.32586">
        <ele>214.99</ele>
        <time>2021-08-13T16:03:04Z</time>
      </trkpt>
      <trkpt lat="46.53346" lon="3.32583">
        <ele>214.99</ele>
        <time>2021-08-13T16:03:05Z</time>
      </trkpt>
      <trkpt lat="46.53343" lon="3.32579">
        <ele>214.99</ele>
        <time>2021-08-13T16:03:06Z</time>
      </trkpt>
      <trkpt lat="46.53322" lon="3.32554">
        <ele>214.99</ele>
        <time>2021-08-13T16:03:13Z</time>
      </trkpt>
      <trkpt lat="46.53308" lon="3.32531">
        <ele>214.99</ele>
        <time>2021-08-13T16:03:20Z</time>
      </trkpt>
      <trkpt lat="46.53291" lon="3.32516">
        <ele>214.99</ele>
        <time>2021-08-13T16:03:28Z</time>
      </trkpt>
      <trkpt lat="46.53284" lon="3.32512">
        <ele>214.99</ele>
        <time>2021-08-13T16:03:31Z</time>
      </trkpt>
      <trkpt lat="46.53281" lon="3.32513">
        <ele>214.99</ele>
        <time>2021-08-13T16:03:32Z</time>
      </trkpt>
      <trkpt lat="46.53278" lon="3.32513">
        <ele>214.99</ele>
        <time>2021-08-13T16:03:33Z</time>
      </trkpt>
      <trkpt lat="46.53275" lon="3.32514">
        <ele>214.99</ele>
        <time>2021-08-13T16:03:34Z</time>
      </trkpt>
      <trkpt lat="46.53271" lon="3.32515">
        <ele>214.99</ele>
        <time>2021-08-13T16:03:35Z</time>
      </trkpt>
      <trkpt lat="46.53246" lon="3.32529">
        <ele>214.99</ele>
        <time>2021-08-13T16:03:42Z</time>
      </trkpt>
      <trkpt lat="46.53231" lon="3.3253">
        <ele>214.99</ele>
        <time>2021-08-13T16:03:46Z</time>
      </trkpt>
      <trkpt lat="46.53228" lon="3.32527">
        <ele>214.99</ele>
        <time>2021-08-13T16:03:47Z</time>
      </trkpt>
      <trkpt lat="46.53226" lon="3.32523">
        <ele>214.99</ele>
        <time>2021-08-13T16:03:48Z</time>
      </trkpt>
      <trkpt lat="46.53224" lon="3.32519">
        <ele>214.99</ele>
        <time>2021-08-13T16:03:49Z</time>
      </trkpt>
      <trkpt lat="46.53221" lon="3.32515">
        <ele>214.99</ele>
        <time>2021-08-13T16:03:50Z</time>
      </trkpt>
      <trkpt lat="46.53219" lon="3.32512">
        <ele>214.99</ele>
        <time>2021-08-13T16:03:51Z</time>
      </trkpt>
      <trkpt lat="46.53216" lon="3.32508">
        <ele>214.99</ele>
        <time>2021-08-13T16:03:52Z</time>
      </trkpt>
      <trkpt lat="46.53214" lon="3.32505">
        <ele>214.99</ele>
        <time>2021-08-13T16:03:53Z</time>
      </trkpt>
      <trkpt lat="46.5319" lon="3.32471">
        <ele>215.95</ele>
        <time>2021-08-13T16:04:02Z</time>
      </trkpt>
      <trkpt lat="46.53168" lon="3.32457">
        <ele>215.95</ele>
        <time>2021-08-13T16:04:08Z</time>
      </trkpt>
      <trkpt lat="46.53144" lon="3.32455">
        <ele>215.95</ele>
        <time>2021-08-13T16:04:13Z</time>
      </trkpt>
      <trkpt lat="46.53115" lon="3.32455">
        <ele>215.95</ele>
        <time>2021-08-13T16:04:19Z</time>
      </trkpt>
      <trkpt lat="46.53108" lon="3.32458">
        <ele>215.95</ele>
        <time>2021-08-13T16:04:21Z</time>
      </trkpt>
      <trkpt lat="46.53106" lon="3.32462">
        <ele>215.95</ele>
        <time>2021-08-13T16:04:22Z</time>
      </trkpt>
      <trkpt lat="46.53104" lon="3.32465">
        <ele>215.95</ele>
        <time>2021-08-13T16:04:23Z</time>
      </trkpt>
      <trkpt lat="46.53101" lon="3.32467">
        <ele>215.95</ele>
        <time>2021-08-13T16:04:24Z</time>
      </trkpt>
      <trkpt lat="46.53098" lon="3.32468">
        <ele>215.95</ele>
        <time>2021-08-13T16:04:25Z</time>
      </trkpt>
      <trkpt lat="46.53095" lon="3.3247">
        <ele>215.95</ele>
        <time>2021-08-13T16:04:26Z</time>
      </trkpt>
      <trkpt lat="46.53091" lon="3.32472">
        <ele>215.95</ele>
        <time>2021-08-13T16:04:27Z</time>
      </trkpt>
      <trkpt lat="46.53088" lon="3.32474">
        <ele>215.95</ele>
        <time>2021-08-13T16:04:28Z</time>
      </trkpt>
      <trkpt lat="46.53085" lon="3.32476">
        <ele>215.95</ele>
        <time>2021-08-13T16:04:29Z</time>
      </trkpt>
      <trkpt lat="46.53081" lon="3.32478">
        <ele>215.95</ele>
        <time>2021-08-13T16:04:30Z</time>
      </trkpt>
      <trkpt lat="46.53077" lon="3.32479">
        <ele>215.95</ele>
        <time>2021-08-13T16:04:31Z</time>
      </trkpt>
      <trkpt lat="46.53058" lon="3.32496">
        <ele>215.95</ele>
        <time>2021-08-13T16:04:37Z</time>
      </trkpt>
      <trkpt lat="46.53045" lon="3.32517">
        <ele>215.95</ele>
        <time>2021-08-13T16:04:42Z</time>
      </trkpt>
      <trkpt lat="46.53042" lon="3.32521">
        <ele>215.95</ele>
        <time>2021-08-13T16:04:43Z</time>
      </trkpt>
      <trkpt lat="46.53027" lon="3.32543">
        <ele>215.95</ele>
        <time>2021-08-13T16:04:49Z</time>
      </trkpt>
      <trkpt lat="46.53025" lon="3.32547">
        <ele>215.95</ele>
        <time>2021-08-13T16:04:50Z</time>
      </trkpt>
      <trkpt lat="46.53024" lon="3.32551">
        <ele>215.95</ele>
        <time>2021-08-13T16:04:51Z</time>
      </trkpt>
      <trkpt lat="46.53022" lon="3.32555">
        <ele>215.95</ele>
        <time>2021-08-13T16:04:52Z</time>
      </trkpt>
      <trkpt lat="46.5302" lon="3.32558">
        <ele>215.95</ele>
        <time>2021-08-13T16:04:53Z</time>
      </trkpt>
      <trkpt lat="46.53018" lon="3.32562">
        <ele>215.95</ele>
        <time>2021-08-13T16:04:54Z</time>
      </trkpt>
      <trkpt lat="46.53016" lon="3.32565">
        <ele>215.95</ele>
        <time>2021-08-13T16:04:55Z</time>
      </trkpt>
      <trkpt lat="46.53015" lon="3.32569">
        <ele>215.95</ele>
        <time>2021-08-13T16:04:56Z</time>
      </trkpt>
      <trkpt lat="46.53014" lon="3.32574">
        <ele>215.95</ele>
        <time>2021-08-13T16:04:57Z</time>
      </trkpt>
      <trkpt lat="46.53013" lon="3.32579">
        <ele>215.95</ele>
        <time>2021-08-13T16:04:58Z</time>
      </trkpt>
      <trkpt lat="46.53012" lon="3.32583">
        <ele>215.95</ele>
        <time>2021-08-13T16:04:59Z</time>
      </trkpt>
      <trkpt lat="46.5301" lon="3.32587">
        <ele>215.95</ele>
        <time>2021-08-13T16:05:00Z</time>
      </trkpt>
      <trkpt lat="46.53008" lon="3.32589">
        <ele>215.95</ele>
        <time>2021-08-13T16:05:01Z</time>
      </trkpt>
      <trkpt lat="46.53005" lon="3.32591">
        <ele>215.95</ele>
        <time>2021-08-13T16:05:02Z</time>
      </trkpt>
      <trkpt lat="46.53003" lon="3.32594">
        <ele>215.95</ele>
        <time>2021-08-13T16:05:03Z</time>
      </trkpt>
      <trkpt lat="46.53" lon="3.32598">
        <ele>215.95</ele>
        <time>2021-08-13T16:05:04Z</time>
      </trkpt>
      <trkpt lat="46.52998" lon="3.32602">
        <ele>215.95</ele>
        <time>2021-08-13T16:05:05Z</time>
      </trkpt>
      <trkpt lat="46.52996" lon="3.32606">
        <ele>215.95</ele>
        <time>2021-08-13T16:05:06Z</time>
      </trkpt>
      <trkpt lat="46.52989" lon="3.32637">
        <ele>215.95</ele>
        <time>2021-08-13T16:05:12Z</time>
      </trkpt>
      <trkpt lat="46.52984" lon="3.32647">
        <ele>215.95</ele>
        <time>2021-08-13T16:05:15Z</time>
      </trkpt>
      <trkpt lat="46.52978" lon="3.32648">
        <ele>215.95</ele>
        <time>2021-08-13T16:05:17Z</time>
      </trkpt>
      <trkpt lat="46.52974" lon="3.3265">
        <ele>215.95</ele>
        <time>2021-08-13T16:05:18Z</time>
      </trkpt>
      <trkpt lat="46.52971" lon="3.32651">
        <ele>215.95</ele>
        <time>2021-08-13T16:05:19Z</time>
      </trkpt>
      <trkpt lat="46.52962" lon="3.32656">
        <ele>216.43</ele>
        <time>2021-08-13T16:05:22Z</time>
      </trkpt>
      <trkpt lat="46.5296" lon="3.32669">
        <ele>216.43</ele>
        <time>2021-08-13T16:05:25Z</time>
      </trkpt>
      <trkpt lat="46.52959" lon="3.32675">
        <ele>216.43</ele>
        <time>2021-08-13T16:05:26Z</time>
      </trkpt>
      <trkpt lat="46.52959" lon="3.3268">
        <ele>216.43</ele>
        <time>2021-08-13T16:05:27Z</time>
      </trkpt>
      <trkpt lat="46.52958" lon="3.32686">
        <ele>216.43</ele>
        <time>2021-08-13T16:05:28Z</time>
      </trkpt>
      <trkpt lat="46.52958" lon="3.32691">
        <ele>216.43</ele>
        <time>2021-08-13T16:05:29Z</time>
      </trkpt>
      <trkpt lat="46.52958" lon="3.32696">
        <ele>216.43</ele>
        <time>2021-08-13T16:05:30Z</time>
      </trkpt>
      <trkpt lat="46.52959" lon="3.327">
        <ele>216.43</ele>
        <time>2021-08-13T16:05:31Z</time>
      </trkpt>
      <trkpt lat="46.52959" lon="3.32722">
        <ele>216.43</ele>
        <time>2021-08-13T16:05:37Z</time>
      </trkpt>
      <trkpt lat="46.52958" lon="3.32724">
        <ele>216.43</ele>
        <time>2021-08-13T16:05:38Z</time>
      </trkpt>
      <trkpt lat="46.52955" lon="3.32727">
        <ele>216.43</ele>
        <time>2021-08-13T16:05:39Z</time>
      </trkpt>
      <trkpt lat="46.52952" lon="3.32728">
        <ele>216.43</ele>
        <time>2021-08-13T16:05:40Z</time>
      </trkpt>
      <trkpt lat="46.52949" lon="3.32728">
        <ele>216.43</ele>
        <time>2021-08-13T16:05:41Z</time>
      </trkpt>
      <trkpt lat="46.52924" lon="3.32727">
        <ele>216.91</ele>
        <time>2021-08-13T16:05:48Z</time>
      </trkpt>
      <trkpt lat="46.52919" lon="3.32727">
        <ele>217.88</ele>
        <time>2021-08-13T16:05:50Z</time>
      </trkpt>
      <trkpt lat="46.52904" lon="3.32726">
        <ele>217.88</ele>
        <time>2021-08-13T16:05:55Z</time>
      </trkpt>
      <trkpt lat="46.52887" lon="3.32725">
        <ele>217.88</ele>
        <time>2021-08-13T16:06:01Z</time>
      </trkpt>
      <trkpt lat="46.5288" lon="3.3272">
        <ele>217.88</ele>
        <time>2021-08-13T16:06:04Z</time>
      </trkpt>
      <trkpt lat="46.52878" lon="3.32718">
        <ele>217.88</ele>
        <time>2021-08-13T16:06:05Z</time>
      </trkpt>
      <trkpt lat="46.52876" lon="3.32715">
        <ele>217.88</ele>
        <time>2021-08-13T16:06:09Z</time>
      </trkpt>
      <trkpt lat="46.52874" lon="3.32714">
        <ele>218.36</ele>
        <time>2021-08-13T16:06:17Z</time>
      </trkpt>
      <trkpt lat="46.52872" lon="3.32712">
        <ele>218.36</ele>
        <time>2021-08-13T16:06:27Z</time>
      </trkpt>
      <trkpt lat="46.52869" lon="3.32704">
        <ele>217.88</ele>
        <time>2021-08-13T16:06:34Z</time>
      </trkpt>
      <trkpt lat="46.52861" lon="3.32688">
        <ele>218.36</ele>
        <time>2021-08-13T16:06:40Z</time>
      </trkpt>
      <trkpt lat="46.52852" lon="3.32672">
        <ele>218.36</ele>
        <time>2021-08-13T16:06:46Z</time>
      </trkpt>
      <trkpt lat="46.52839" lon="3.32651">
        <ele>218.36</ele>
        <time>2021-08-13T16:06:52Z</time>
      </trkpt>
      <trkpt lat="46.52816" lon="3.32624">
        <ele>218.36</ele>
        <time>2021-08-13T16:07:01Z</time>
      </trkpt>
      <trkpt lat="46.52793" lon="3.32602">
        <ele>217.88</ele>
        <time>2021-08-13T16:07:08Z</time>
      </trkpt>
      <trkpt lat="46.52773" lon="3.32586">
        <ele>217.88</ele>
        <time>2021-08-13T16:07:15Z</time>
      </trkpt>
      <trkpt lat="46.52758" lon="3.32576">
        <ele>217.88</ele>
        <time>2021-08-13T16:07:21Z</time>
      </trkpt>
      <trkpt lat="46.5274" lon="3.32565">
        <ele>217.88</ele>
        <time>2021-08-13T16:07:27Z</time>
      </trkpt>
      <trkpt lat="46.5272" lon="3.32545">
        <ele>217.88</ele>
        <time>2021-08-13T16:07:35Z</time>
      </trkpt>
      <trkpt lat="46.52702" lon="3.32522">
        <ele>217.88</ele>
        <time>2021-08-13T16:07:42Z</time>
      </trkpt>
      <trkpt lat="46.52683" lon="3.32497">
        <ele>218.36</ele>
        <time>2021-08-13T16:07:50Z</time>
      </trkpt>
      <trkpt lat="46.52666" lon="3.32482">
        <ele>218.36</ele>
        <time>2021-08-13T16:07:56Z</time>
      </trkpt>
      <trkpt lat="46.52646" lon="3.32467">
        <ele>218.36</ele>
        <time>2021-08-13T16:08:03Z</time>
      </trkpt>
      <trkpt lat="46.52619" lon="3.32448">
        <ele>218.36</ele>
        <time>2021-08-13T16:08:12Z</time>
      </trkpt>
      <trkpt lat="46.52596" lon="3.32439">
        <ele>218.36</ele>
        <time>2021-08-13T16:08:18Z</time>
      </trkpt>
      <trkpt lat="46.52575" lon="3.32432">
        <ele>218.36</ele>
        <time>2021-08-13T16:08:24Z</time>
      </trkpt>
      <trkpt lat="46.52546" lon="3.32431">
        <ele>218.36</ele>
        <time>2021-08-13T16:08:32Z</time>
      </trkpt>
      <trkpt lat="46.52521" lon="3.32439">
        <ele>218.36</ele>
        <time>2021-08-13T16:08:39Z</time>
      </trkpt>
      <trkpt lat="46.52503" lon="3.32445">
        <ele>218.36</ele>
        <time>2021-08-13T16:08:45Z</time>
      </trkpt>
      <trkpt lat="46.52483" lon="3.32446">
        <ele>218.36</ele>
        <time>2021-08-13T16:08:52Z</time>
      </trkpt>
      <trkpt lat="46.52456" lon="3.32453">
        <ele>218.36</ele>
        <time>2021-08-13T16:09:00Z</time>
      </trkpt>
      <trkpt lat="46.52432" lon="3.32466">
        <ele>218.36</ele>
        <time>2021-08-13T16:09:07Z</time>
      </trkpt>
      <trkpt lat="46.5241" lon="3.32478">
        <ele>216.91</ele>
        <time>2021-08-13T16:09:13Z</time>
      </trkpt>
      <trkpt lat="46.524" lon="3.32481">
        <ele>218.36</ele>
        <time>2021-08-13T16:09:16Z</time>
      </trkpt>
      <trkpt lat="46.52384" lon="3.32492">
        <ele>218.36</ele>
        <time>2021-08-13T16:09:21Z</time>
      </trkpt>
      <trkpt lat="46.52378" lon="3.32496">
        <ele>218.36</ele>
        <time>2021-08-13T16:09:23Z</time>
      </trkpt>
      <trkpt lat="46.52368" lon="3.32499">
        <ele>218.36</ele>
        <time>2021-08-13T16:09:26Z</time>
      </trkpt>
      <trkpt lat="46.52365" lon="3.32502">
        <ele>218.36</ele>
        <time>2021-08-13T16:09:27Z</time>
      </trkpt>
      <trkpt lat="46.52362" lon="3.32505">
        <ele>218.36</ele>
        <time>2021-08-13T16:09:28Z</time>
      </trkpt>
      <trkpt lat="46.52358" lon="3.32507">
        <ele>218.36</ele>
        <time>2021-08-13T16:09:29Z</time>
      </trkpt>
      <trkpt lat="46.52355" lon="3.32507">
        <ele>218.36</ele>
        <time>2021-08-13T16:09:30Z</time>
      </trkpt>
      <trkpt lat="46.52351" lon="3.32507">
        <ele>218.36</ele>
        <time>2021-08-13T16:09:31Z</time>
      </trkpt>
      <trkpt lat="46.52348" lon="3.32507">
        <ele>218.36</ele>
        <time>2021-08-13T16:09:32Z</time>
      </trkpt>
      <trkpt lat="46.52332" lon="3.32514">
        <ele>218.36</ele>
        <time>2021-08-13T16:09:37Z</time>
      </trkpt>
      <trkpt lat="46.52328" lon="3.32515">
        <ele>218.36</ele>
        <time>2021-08-13T16:09:38Z</time>
      </trkpt>
      <trkpt lat="46.52325" lon="3.32515">
        <ele>218.36</ele>
        <time>2021-08-13T16:09:39Z</time>
      </trkpt>
      <trkpt lat="46.52322" lon="3.32516">
        <ele>218.36</ele>
        <time>2021-08-13T16:09:40Z</time>
      </trkpt>
      <trkpt lat="46.52318" lon="3.32516">
        <ele>218.36</ele>
        <time>2021-08-13T16:09:41Z</time>
      </trkpt>
      <trkpt lat="46.52315" lon="3.32516">
        <ele>218.36</ele>
        <time>2021-08-13T16:09:42Z</time>
      </trkpt>
      <trkpt lat="46.52287" lon="3.32518">
        <ele>218.36</ele>
        <time>2021-08-13T16:09:50Z</time>
      </trkpt>
      <trkpt lat="46.52268" lon="3.32518">
        <ele>218.36</ele>
        <time>2021-08-13T16:09:56Z</time>
      </trkpt>
      <trkpt lat="46.52248" lon="3.32517">
        <ele>218.36</ele>
        <time>2021-08-13T16:10:03Z</time>
      </trkpt>
      <trkpt lat="46.52234" lon="3.32517">
        <ele>218.36</ele>
        <time>2021-08-13T16:10:07Z</time>
      </trkpt>
      <trkpt lat="46.5223" lon="3.32519">
        <ele>218.36</ele>
        <time>2021-08-13T16:10:08Z</time>
      </trkpt>
      <trkpt lat="46.52227" lon="3.32521">
        <ele>218.36</ele>
        <time>2021-08-13T16:10:09Z</time>
      </trkpt>
      <trkpt lat="46.52224" lon="3.32522">
        <ele>218.36</ele>
        <time>2021-08-13T16:10:10Z</time>
      </trkpt>
      <trkpt lat="46.52221" lon="3.32522">
        <ele>218.36</ele>
        <time>2021-08-13T16:10:11Z</time>
      </trkpt>
      <trkpt lat="46.52204" lon="3.32527">
        <ele>218.36</ele>
        <time>2021-08-13T16:10:17Z</time>
      </trkpt>
      <trkpt lat="46.52203" lon="3.3253">
        <ele>218.36</ele>
        <time>2021-08-13T16:10:18Z</time>
      </trkpt>
      <trkpt lat="46.52202" lon="3.32532">
        <ele>218.36</ele>
        <time>2021-08-13T16:10:19Z</time>
      </trkpt>
      <trkpt lat="46.52202" lon="3.32535">
        <ele>218.36</ele>
        <time>2021-08-13T16:10:20Z</time>
      </trkpt>
      <trkpt lat="46.52201" lon="3.32538">
        <ele>216.91</ele>
        <time>2021-08-13T16:10:21Z</time>
      </trkpt>
      <trkpt lat="46.52201" lon="3.32542">
        <ele>216.91</ele>
        <time>2021-08-13T16:10:22Z</time>
      </trkpt>
      <trkpt lat="46.52202" lon="3.32546">
        <ele>216.91</ele>
        <time>2021-08-13T16:10:23Z</time>
      </trkpt>
      <trkpt lat="46.52203" lon="3.32549">
        <ele>216.43</ele>
        <time>2021-08-13T16:10:24Z</time>
      </trkpt>
      <trkpt lat="46.52203" lon="3.32553">
        <ele>216.43</ele>
        <time>2021-08-13T16:10:25Z</time>
      </trkpt>
      <trkpt lat="46.52204" lon="3.32557">
        <ele>216.43</ele>
        <time>2021-08-13T16:10:26Z</time>
      </trkpt>
      <trkpt lat="46.52203" lon="3.32561">
        <ele>216.43</ele>
        <time>2021-08-13T16:10:27Z</time>
      </trkpt>
      <trkpt lat="46.52203" lon="3.32565">
        <ele>215.95</ele>
        <time>2021-08-13T16:10:28Z</time>
      </trkpt>
      <trkpt lat="46.522" lon="3.32591">
        <ele>215.95</ele>
        <time>2021-08-13T16:10:34Z</time>
      </trkpt>
      <trkpt lat="46.52201" lon="3.32595">
        <ele>215.95</ele>
        <time>2021-08-13T16:10:35Z</time>
      </trkpt>
      <trkpt lat="46.52202" lon="3.326">
        <ele>215.95</ele>
        <time>2021-08-13T16:10:36Z</time>
      </trkpt>
      <trkpt lat="46.52203" lon="3.32603">
        <ele>215.95</ele>
        <time>2021-08-13T16:10:37Z</time>
      </trkpt>
      <trkpt lat="46.52204" lon="3.32607">
        <ele>215.95</ele>
        <time>2021-08-13T16:10:38Z</time>
      </trkpt>
      <trkpt lat="46.52204" lon="3.32611">
        <ele>215.95</ele>
        <time>2021-08-13T16:10:39Z</time>
      </trkpt>
      <trkpt lat="46.52204" lon="3.32615">
        <ele>215.95</ele>
        <time>2021-08-13T16:10:40Z</time>
      </trkpt>
      <trkpt lat="46.52203" lon="3.32619">
        <ele>215.95</ele>
        <time>2021-08-13T16:10:41Z</time>
      </trkpt>
      <trkpt lat="46.52201" lon="3.32624">
        <ele>215.95</ele>
        <time>2021-08-13T16:10:42Z</time>
      </trkpt>
      <trkpt lat="46.52199" lon="3.32627">
        <ele>215.95</ele>
        <time>2021-08-13T16:10:43Z</time>
      </trkpt>
      <trkpt lat="46.52197" lon="3.32631">
        <ele>215.95</ele>
        <time>2021-08-13T16:10:44Z</time>
      </trkpt>
      <trkpt lat="46.52195" lon="3.32635">
        <ele>215.95</ele>
        <time>2021-08-13T16:10:45Z</time>
      </trkpt>
      <trkpt lat="46.52192" lon="3.32639">
        <ele>215.95</ele>
        <time>2021-08-13T16:10:46Z</time>
      </trkpt>
      <trkpt lat="46.52182" lon="3.32669">
        <ele>215.95</ele>
        <time>2021-08-13T16:10:53Z</time>
      </trkpt>
      <trkpt lat="46.52184" lon="3.32674">
        <ele>215.95</ele>
        <time>2021-08-13T16:10:54Z</time>
      </trkpt>
      <trkpt lat="46.52189" lon="3.32703">
        <ele>215.95</ele>
        <time>2021-08-13T16:11:00Z</time>
      </trkpt>
      <trkpt lat="46.52178" lon="3.32724">
        <ele>215.95</ele>
        <time>2021-08-13T16:11:05Z</time>
      </trkpt>
      <trkpt lat="46.52168" lon="3.32743">
        <ele>215.95</ele>
        <time>2021-08-13T16:11:10Z</time>
      </trkpt>
      <trkpt lat="46.52149" lon="3.32763">
        <ele>215.95</ele>
        <time>2021-08-13T16:11:16Z</time>
      </trkpt>
      <trkpt lat="46.52142" lon="3.32768">
        <ele>216.91</ele>
        <time>2021-08-13T16:11:18Z</time>
      </trkpt>
      <trkpt lat="46.52118" lon="3.3278">
        <ele>216.91</ele>
        <time>2021-08-13T16:11:25Z</time>
      </trkpt>
      <trkpt lat="46.52085" lon="3.32795">
        <ele>216.91</ele>
        <time>2021-08-13T16:11:34Z</time>
      </trkpt>
      <trkpt lat="46.5207" lon="3.32793">
        <ele>217.4</ele>
        <time>2021-08-13T16:11:38Z</time>
      </trkpt>
      <trkpt lat="46.52046" lon="3.32788">
        <ele>216.91</ele>
        <time>2021-08-13T16:11:44Z</time>
      </trkpt>
      <trkpt lat="46.52043" lon="3.32786">
        <ele>216.91</ele>
        <time>2021-08-13T16:11:45Z</time>
      </trkpt>
      <trkpt lat="46.52039" lon="3.32783">
        <ele>216.91</ele>
        <time>2021-08-13T16:11:46Z</time>
      </trkpt>
      <trkpt lat="46.52036" lon="3.32779">
        <ele>216.91</ele>
        <time>2021-08-13T16:11:47Z</time>
      </trkpt>
      <trkpt lat="46.52033" lon="3.32775">
        <ele>216.91</ele>
        <time>2021-08-13T16:11:48Z</time>
      </trkpt>
      <trkpt lat="46.52018" lon="3.32765">
        <ele>217.4</ele>
        <time>2021-08-13T16:11:52Z</time>
      </trkpt>
      <trkpt lat="46.52014" lon="3.32764">
        <ele>216.91</ele>
        <time>2021-08-13T16:11:53Z</time>
      </trkpt>
      <trkpt lat="46.5201" lon="3.32765">
        <ele>217.4</ele>
        <time>2021-08-13T16:11:54Z</time>
      </trkpt>
      <trkpt lat="46.52002" lon="3.32766">
        <ele>217.4</ele>
        <time>2021-08-13T16:11:56Z</time>
      </trkpt>
      <trkpt lat="46.51998" lon="3.32764">
        <ele>217.4</ele>
        <time>2021-08-13T16:11:57Z</time>
      </trkpt>
      <trkpt lat="46.51995" lon="3.32761">
        <ele>217.4</ele>
        <time>2021-08-13T16:11:58Z</time>
      </trkpt>
      <trkpt lat="46.51991" lon="3.32757">
        <ele>217.4</ele>
        <time>2021-08-13T16:11:59Z</time>
      </trkpt>
      <trkpt lat="46.51988" lon="3.32754">
        <ele>217.4</ele>
        <time>2021-08-13T16:12:00Z</time>
      </trkpt>
      <trkpt lat="46.51969" lon="3.32751">
        <ele>217.4</ele>
        <time>2021-08-13T16:12:05Z</time>
      </trkpt>
      <trkpt lat="46.51965" lon="3.32753">
        <ele>217.4</ele>
        <time>2021-08-13T16:12:06Z</time>
      </trkpt>
      <trkpt lat="46.51945" lon="3.32765">
        <ele>217.4</ele>
        <time>2021-08-13T16:12:11Z</time>
      </trkpt>
      <trkpt lat="46.51932" lon="3.3277">
        <ele>217.4</ele>
        <time>2021-08-13T16:12:14Z</time>
      </trkpt>
      <trkpt lat="46.51895" lon="3.32778">
        <ele>217.88</ele>
        <time>2021-08-13T16:12:22Z</time>
      </trkpt>
      <trkpt lat="46.5186" lon="3.32804">
        <ele>217.88</ele>
        <time>2021-08-13T16:12:31Z</time>
      </trkpt>
      <trkpt lat="46.51853" lon="3.32811">
        <ele>217.88</ele>
        <time>2021-08-13T16:12:33Z</time>
      </trkpt>
      <trkpt lat="46.51849" lon="3.32813">
        <ele>217.88</ele>
        <time>2021-08-13T16:12:34Z</time>
      </trkpt>
      <trkpt lat="46.51845" lon="3.32815">
        <ele>217.88</ele>
        <time>2021-08-13T16:12:35Z</time>
      </trkpt>
      <trkpt lat="46.5184" lon="3.32815">
        <ele>217.88</ele>
        <time>2021-08-13T16:12:36Z</time>
      </trkpt>
      <trkpt lat="46.51836" lon="3.32815">
        <ele>217.88</ele>
        <time>2021-08-13T16:12:37Z</time>
      </trkpt>
      <trkpt lat="46.51831" lon="3.32817">
        <ele>217.88</ele>
        <time>2021-08-13T16:12:38Z</time>
      </trkpt>
      <trkpt lat="46.51823" lon="3.3282">
        <ele>217.88</ele>
        <time>2021-08-13T16:12:40Z</time>
      </trkpt>
      <trkpt lat="46.51819" lon="3.32821">
        <ele>217.88</ele>
        <time>2021-08-13T16:12:41Z</time>
      </trkpt>
      <trkpt lat="46.51815" lon="3.3282">
        <ele>217.88</ele>
        <time>2021-08-13T16:12:42Z</time>
      </trkpt>
      <trkpt lat="46.51811" lon="3.32818">
        <ele>217.88</ele>
        <time>2021-08-13T16:12:43Z</time>
      </trkpt>
      <trkpt lat="46.51808" lon="3.32815">
        <ele>217.88</ele>
        <time>2021-08-13T16:12:44Z</time>
      </trkpt>
      <trkpt lat="46.51805" lon="3.3281">
        <ele>217.88</ele>
        <time>2021-08-13T16:12:45Z</time>
      </trkpt>
      <trkpt lat="46.51803" lon="3.32806">
        <ele>217.88</ele>
        <time>2021-08-13T16:12:46Z</time>
      </trkpt>
      <trkpt lat="46.51801" lon="3.32801">
        <ele>217.88</ele>
        <time>2021-08-13T16:12:47Z</time>
      </trkpt>
      <trkpt lat="46.51799" lon="3.32797">
        <ele>217.88</ele>
        <time>2021-08-13T16:12:48Z</time>
      </trkpt>
      <trkpt lat="46.51796" lon="3.32793">
        <ele>217.88</ele>
        <time>2021-08-13T16:12:49Z</time>
      </trkpt>
      <trkpt lat="46.51793" lon="3.32791">
        <ele>217.88</ele>
        <time>2021-08-13T16:12:50Z</time>
      </trkpt>
      <trkpt lat="46.51789" lon="3.32789">
        <ele>217.88</ele>
        <time>2021-08-13T16:12:51Z</time>
      </trkpt>
      <trkpt lat="46.51786" lon="3.32786">
        <ele>217.88</ele>
        <time>2021-08-13T16:12:52Z</time>
      </trkpt>
      <trkpt lat="46.51784" lon="3.32784">
        <ele>218.36</ele>
        <time>2021-08-13T16:12:53Z</time>
      </trkpt>
      <trkpt lat="46.51781" lon="3.32782">
        <ele>218.36</ele>
        <time>2021-08-13T16:12:54Z</time>
      </trkpt>
      <trkpt lat="46.51778" lon="3.32779">
        <ele>218.36</ele>
        <time>2021-08-13T16:12:55Z</time>
      </trkpt>
      <trkpt lat="46.51777" lon="3.32775">
        <ele>218.36</ele>
        <time>2021-08-13T16:12:56Z</time>
      </trkpt>
      <trkpt lat="46.51771" lon="3.32768">
        <ele>218.36</ele>
        <time>2021-08-13T16:12:58Z</time>
      </trkpt>
      <trkpt lat="46.51767" lon="3.32765">
        <ele>218.36</ele>
        <time>2021-08-13T16:12:59Z</time>
      </trkpt>
      <trkpt lat="46.51764" lon="3.32764">
        <ele>218.36</ele>
        <time>2021-08-13T16:13:00Z</time>
      </trkpt>
      <trkpt lat="46.5176" lon="3.32762">
        <ele>218.36</ele>
        <time>2021-08-13T16:13:01Z</time>
      </trkpt>
      <trkpt lat="46.51757" lon="3.32759">
        <ele>218.36</ele>
        <time>2021-08-13T16:13:02Z</time>
      </trkpt>
      <trkpt lat="46.51755" lon="3.32755">
        <ele>218.36</ele>
        <time>2021-08-13T16:13:03Z</time>
      </trkpt>
      <trkpt lat="46.51752" lon="3.32751">
        <ele>218.36</ele>
        <time>2021-08-13T16:13:04Z</time>
      </trkpt>
      <trkpt lat="46.5175" lon="3.32747">
        <ele>218.36</ele>
        <time>2021-08-13T16:13:05Z</time>
      </trkpt>
      <trkpt lat="46.51747" lon="3.32743">
        <ele>218.36</ele>
        <time>2021-08-13T16:13:06Z</time>
      </trkpt>
      <trkpt lat="46.51734" lon="3.32723">
        <ele>218.36</ele>
        <time>2021-08-13T16:13:11Z</time>
      </trkpt>
      <trkpt lat="46.51719" lon="3.32718">
        <ele>218.36</ele>
        <time>2021-08-13T16:13:15Z</time>
      </trkpt>
      <trkpt lat="46.51713" lon="3.32711">
        <ele>218.36</ele>
        <time>2021-08-13T16:13:17Z</time>
      </trkpt>
      <trkpt lat="46.5171" lon="3.3271">
        <ele>218.36</ele>
        <time>2021-08-13T16:13:18Z</time>
      </trkpt>
      <trkpt lat="46.51706" lon="3.3271">
        <ele>218.36</ele>
        <time>2021-08-13T16:13:19Z</time>
      </trkpt>
      <trkpt lat="46.51702" lon="3.3271">
        <ele>218.36</ele>
        <time>2021-08-13T16:13:20Z</time>
      </trkpt>
      <trkpt lat="46.51698" lon="3.32711">
        <ele>218.36</ele>
        <time>2021-08-13T16:13:21Z</time>
      </trkpt>
      <trkpt lat="46.51694" lon="3.32711">
        <ele>218.36</ele>
        <time>2021-08-13T16:13:22Z</time>
      </trkpt>
      <trkpt lat="46.51691" lon="3.32708">
        <ele>218.36</ele>
        <time>2021-08-13T16:13:23Z</time>
      </trkpt>
      <trkpt lat="46.51687" lon="3.32706">
        <ele>218.36</ele>
        <time>2021-08-13T16:13:24Z</time>
      </trkpt>
      <trkpt lat="46.51683" lon="3.32705">
        <ele>218.36</ele>
        <time>2021-08-13T16:13:25Z</time>
      </trkpt>
      <trkpt lat="46.51679" lon="3.32705">
        <ele>218.36</ele>
        <time>2021-08-13T16:13:26Z</time>
      </trkpt>
      <trkpt lat="46.51672" lon="3.32705">
        <ele>218.36</ele>
        <time>2021-08-13T16:13:30Z</time>
      </trkpt>
      <trkpt lat="46.51672" lon="3.32704">
        <ele>218.36</ele>
        <time>2021-08-13T16:13:40Z</time>
      </trkpt>
      <trkpt lat="46.51671" lon="3.32705">
        <ele>218.36</ele>
        <time>2021-08-13T16:13:48Z</time>
      </trkpt>
      <trkpt lat="46.5167" lon="3.32705">
        <ele>218.36</ele>
        <time>2021-08-13T16:13:57Z</time>
      </trkpt>
      <trkpt lat="46.51668" lon="3.32703">
        <ele>218.36</ele>
        <time>2021-08-13T16:14:00Z</time>
      </trkpt>
      <trkpt lat="46.51667" lon="3.32702">
        <ele>218.36</ele>
        <time>2021-08-13T16:14:01Z</time>
      </trkpt>
      <trkpt lat="46.51666" lon="3.32701">
        <ele>218.36</ele>
        <time>2021-08-13T16:14:02Z</time>
      </trkpt>
      <trkpt lat="46.51661" lon="3.32699">
        <ele>219.32</ele>
        <time>2021-08-13T16:14:09Z</time>
      </trkpt>
      <trkpt lat="46.51659" lon="3.32698">
        <ele>219.32</ele>
        <time>2021-08-13T16:14:14Z</time>
      </trkpt>
      <trkpt lat="46.51658" lon="3.32697">
        <ele>219.32</ele>
        <time>2021-08-13T16:14:22Z</time>
      </trkpt>
      <trkpt lat="46.51654" lon="3.32696">
        <ele>218.84</ele>
        <time>2021-08-13T16:14:30Z</time>
      </trkpt>
      <trkpt lat="46.51653" lon="3.32694">
        <ele>218.84</ele>
        <time>2021-08-13T16:14:41Z</time>
      </trkpt>
      <trkpt lat="46.51653" lon="3.32694">
        <ele>218.84</ele>
        <time>2021-08-13T16:14:50Z</time>
      </trkpt>
      <trkpt lat="46.51647" lon="3.32692">
        <ele>218.84</ele>
        <time>2021-08-13T16:14:55Z</time>
      </trkpt>
      <trkpt lat="46.5164" lon="3.32689">
        <ele>218.84</ele>
        <time>2021-08-13T16:15:00Z</time>
      </trkpt>
      <trkpt lat="46.51639" lon="3.32688">
        <ele>218.84</ele>
        <time>2021-08-13T16:15:09Z</time>
      </trkpt>
      <trkpt lat="46.51637" lon="3.32688">
        <ele>218.84</ele>
        <time>2021-08-13T16:15:10Z</time>
      </trkpt>
      <trkpt lat="46.51635" lon="3.32687">
        <ele>218.84</ele>
        <time>2021-08-13T16:15:11Z</time>
      </trkpt>
      <trkpt lat="46.51633" lon="3.32686">
        <ele>218.84</ele>
        <time>2021-08-13T16:15:12Z</time>
      </trkpt>
      <trkpt lat="46.51629" lon="3.32685">
        <ele>218.84</ele>
        <time>2021-08-13T16:15:13Z</time>
      </trkpt>
      <trkpt lat="46.51626" lon="3.32684">
        <ele>218.84</ele>
        <time>2021-08-13T16:15:14Z</time>
      </trkpt>
      <trkpt lat="46.51612" lon="3.32669">
        <ele>218.84</ele>
        <time>2021-08-13T16:15:20Z</time>
      </trkpt>
      <trkpt lat="46.51597" lon="3.32648">
        <ele>218.84</ele>
        <time>2021-08-13T16:15:26Z</time>
      </trkpt>
      <trkpt lat="46.51588" lon="3.32636">
        <ele>218.84</ele>
        <time>2021-08-13T16:15:29Z</time>
      </trkpt>
      <trkpt lat="46.51585" lon="3.32631">
        <ele>218.84</ele>
        <time>2021-08-13T16:15:30Z</time>
      </trkpt>
      <trkpt lat="46.51571" lon="3.32608">
        <ele>218.84</ele>
        <time>2021-08-13T16:15:36Z</time>
      </trkpt>
      <trkpt lat="46.51569" lon="3.32607">
        <ele>218.84</ele>
        <time>2021-08-13T16:15:37Z</time>
      </trkpt>
      <trkpt lat="46.51566" lon="3.32605">
        <ele>218.84</ele>
        <time>2021-08-13T16:15:38Z</time>
      </trkpt>
      <trkpt lat="46.5155" lon="3.32586">
        <ele>218.84</ele>
        <time>2021-08-13T16:15:44Z</time>
      </trkpt>
      <trkpt lat="46.51532" lon="3.32577">
        <ele>218.84</ele>
        <time>2021-08-13T16:15:50Z</time>
      </trkpt>
      <trkpt lat="46.51531" lon="3.32575">
        <ele>218.84</ele>
        <time>2021-08-13T16:15:55Z</time>
      </trkpt>
      <trkpt lat="46.51531" lon="3.32573">
        <ele>218.84</ele>
        <time>2021-08-13T16:16:08Z</time>
      </trkpt>
      <trkpt lat="46.51529" lon="3.32573">
        <ele>218.84</ele>
        <time>2021-08-13T16:16:26Z</time>
      </trkpt>
      <trkpt lat="46.51516" lon="3.32567">
        <ele>218.84</ele>
        <time>2021-08-13T16:16:33Z</time>
      </trkpt>
      <trkpt lat="46.5149" lon="3.32562">
        <ele>218.84</ele>
        <time>2021-08-13T16:16:41Z</time>
      </trkpt>
      <trkpt lat="46.51466" lon="3.32558">
        <ele>218.84</ele>
        <time>2021-08-13T16:16:47Z</time>
      </trkpt>
      <trkpt lat="46.51444" lon="3.32555">
        <ele>218.84</ele>
        <time>2021-08-13T16:16:54Z</time>
      </trkpt>
      <trkpt lat="46.5142" lon="3.32556">
        <ele>218.84</ele>
        <time>2021-08-13T16:17:01Z</time>
      </trkpt>
      <trkpt lat="46.51394" lon="3.32564">
        <ele>218.84</ele>
        <time>2021-08-13T16:17:08Z</time>
      </trkpt>
      <trkpt lat="46.51366" lon="3.3257">
        <ele>218.84</ele>
        <time>2021-08-13T16:17:15Z</time>
      </trkpt>
      <trkpt lat="46.51341" lon="3.3258">
        <ele>219.32</ele>
        <time>2021-08-13T16:17:22Z</time>
      </trkpt>
      <trkpt lat="46.51322" lon="3.32582">
        <ele>219.32</ele>
        <time>2021-08-13T16:17:27Z</time>
      </trkpt>
      <trkpt lat="46.5131" lon="3.32585">
        <ele>219.32</ele>
        <time>2021-08-13T16:17:30Z</time>
      </trkpt>
      <trkpt lat="46.51301" lon="3.32584">
        <ele>219.32</ele>
        <time>2021-08-13T16:17:32Z</time>
      </trkpt>
      <trkpt lat="46.51298" lon="3.32581">
        <ele>219.32</ele>
        <time>2021-08-13T16:17:33Z</time>
      </trkpt>
      <trkpt lat="46.51295" lon="3.32577">
        <ele>219.32</ele>
        <time>2021-08-13T16:17:34Z</time>
      </trkpt>
      <trkpt lat="46.51285" lon="3.32551">
        <ele>219.8</ele>
        <time>2021-08-13T16:17:41Z</time>
      </trkpt>
      <trkpt lat="46.51273" lon="3.32524">
        <ele>219.8</ele>
        <time>2021-08-13T16:17:48Z</time>
      </trkpt>
      <trkpt lat="46.51256" lon="3.3248">
        <ele>219.8</ele>
        <time>2021-08-13T16:17:57Z</time>
      </trkpt>
      <trkpt lat="46.51237" lon="3.32437">
        <ele>219.8</ele>
        <time>2021-08-13T16:18:06Z</time>
      </trkpt>
      <trkpt lat="46.51219" lon="3.32388">
        <ele>220.76</ele>
        <time>2021-08-13T16:18:16Z</time>
      </trkpt>
      <trkpt lat="46.51204" lon="3.32344">
        <ele>220.76</ele>
        <time>2021-08-13T16:18:25Z</time>
      </trkpt>
      <trkpt lat="46.51188" lon="3.32293">
        <ele>221.72</ele>
        <time>2021-08-13T16:18:36Z</time>
      </trkpt>
      <trkpt lat="46.5118" lon="3.32252">
        <ele>222.2</ele>
        <time>2021-08-13T16:18:45Z</time>
      </trkpt>
      <trkpt lat="46.5118" lon="3.32207">
        <ele>223.16</ele>
        <time>2021-08-13T16:18:55Z</time>
      </trkpt>
      <trkpt lat="46.51181" lon="3.32169">
        <ele>224.61</ele>
        <time>2021-08-13T16:19:04Z</time>
      </trkpt>
      <trkpt lat="46.51178" lon="3.32167">
        <ele>224.61</ele>
        <time>2021-08-13T16:19:05Z</time>
      </trkpt>
      <trkpt lat="46.51175" lon="3.32166">
        <ele>224.61</ele>
        <time>2021-08-13T16:19:06Z</time>
      </trkpt>
      <trkpt lat="46.51172" lon="3.32165">
        <ele>224.61</ele>
        <time>2021-08-13T16:19:07Z</time>
      </trkpt>
      <trkpt lat="46.51169" lon="3.32165">
        <ele>224.61</ele>
        <time>2021-08-13T16:19:08Z</time>
      </trkpt>
      <trkpt lat="46.51166" lon="3.32166">
        <ele>225.09</ele>
        <time>2021-08-13T16:19:09Z</time>
      </trkpt>
      <trkpt lat="46.51135" lon="3.3217">
        <ele>225.57</ele>
        <time>2021-08-13T16:19:17Z</time>
      </trkpt>
      <trkpt lat="46.51104" lon="3.32166">
        <ele>225.57</ele>
        <time>2021-08-13T16:19:25Z</time>
      </trkpt>
      <trkpt lat="46.511" lon="3.32164">
        <ele>225.57</ele>
        <time>2021-08-13T16:19:26Z</time>
      </trkpt>
      <trkpt lat="46.51071" lon="3.32145">
        <ele>226.05</ele>
        <time>2021-08-13T16:19:34Z</time>
      </trkpt>
      <trkpt lat="46.51026" lon="3.32123">
        <ele>226.05</ele>
        <time>2021-08-13T16:19:45Z</time>
      </trkpt>
      <trkpt lat="46.50985" lon="3.3212">
        <ele>226.05</ele>
        <time>2021-08-13T16:19:54Z</time>
      </trkpt>
      <trkpt lat="46.5095" lon="3.32112">
        <ele>226.05</ele>
        <time>2021-08-13T16:20:02Z</time>
      </trkpt>
      <trkpt lat="46.50941" lon="3.3211">
        <ele>226.05</ele>
        <time>2021-08-13T16:20:04Z</time>
      </trkpt>
      <trkpt lat="46.50892" lon="3.3208">
        <ele>226.05</ele>
        <time>2021-08-13T16:20:16Z</time>
      </trkpt>
      <trkpt lat="46.50851" lon="3.32053">
        <ele>226.05</ele>
        <time>2021-08-13T16:20:26Z</time>
      </trkpt>
      <trkpt lat="46.50847" lon="3.32051">
        <ele>226.05</ele>
        <time>2021-08-13T16:20:27Z</time>
      </trkpt>
      <trkpt lat="46.50838" lon="3.32049">
        <ele>226.05</ele>
        <time>2021-08-13T16:20:29Z</time>
      </trkpt>
      <trkpt lat="46.50829" lon="3.32049">
        <ele>226.05</ele>
        <time>2021-08-13T16:20:31Z</time>
      </trkpt>
      <trkpt lat="46.50812" lon="3.32052">
        <ele>226.05</ele>
        <time>2021-08-13T16:20:35Z</time>
      </trkpt>
      <trkpt lat="46.50808" lon="3.32054">
        <ele>226.05</ele>
        <time>2021-08-13T16:20:36Z</time>
      </trkpt>
      <trkpt lat="46.50804" lon="3.32054">
        <ele>226.05</ele>
        <time>2021-08-13T16:20:37Z</time>
      </trkpt>
      <trkpt lat="46.50784" lon="3.3206">
        <ele>226.05</ele>
        <time>2021-08-13T16:20:43Z</time>
      </trkpt>
      <trkpt lat="46.50761" lon="3.32067">
        <ele>226.05</ele>
        <time>2021-08-13T16:20:50Z</time>
      </trkpt>
      <trkpt lat="46.50746" lon="3.32063">
        <ele>226.05</ele>
        <time>2021-08-13T16:20:55Z</time>
      </trkpt>
      <trkpt lat="46.50725" lon="3.32057">
        <ele>226.05</ele>
        <time>2021-08-13T16:21:01Z</time>
      </trkpt>
      <trkpt lat="46.50701" lon="3.32056">
        <ele>226.05</ele>
        <time>2021-08-13T16:21:07Z</time>
      </trkpt>
      <trkpt lat="46.50674" lon="3.32062">
        <ele>226.05</ele>
        <time>2021-08-13T16:21:14Z</time>
      </trkpt>
      <trkpt lat="46.50622" lon="3.32066">
        <ele>226.05</ele>
        <time>2021-08-13T16:21:27Z</time>
      </trkpt>
      <trkpt lat="46.5059" lon="3.32068">
        <ele>226.05</ele>
        <time>2021-08-13T16:21:36Z</time>
      </trkpt>
      <trkpt lat="46.5054" lon="3.3207">
        <ele>226.05</ele>
        <time>2021-08-13T16:21:49Z</time>
      </trkpt>
      <trkpt lat="46.505" lon="3.32072">
        <ele>225.57</ele>
        <time>2021-08-13T16:21:59Z</time>
      </trkpt>
      <trkpt lat="46.50457" lon="3.32079">
        <ele>226.05</ele>
        <time>2021-08-13T16:22:10Z</time>
      </trkpt>
      <trkpt lat="46.50414" lon="3.32087">
        <ele>225.57</ele>
        <time>2021-08-13T16:22:21Z</time>
      </trkpt>
      <trkpt lat="46.50398" lon="3.3209">
        <ele>225.57</ele>
        <time>2021-08-13T16:22:27Z</time>
      </trkpt>
      <trkpt lat="46.50389" lon="3.32084">
        <ele>225.57</ele>
        <time>2021-08-13T16:22:32Z</time>
      </trkpt>
      <trkpt lat="46.50388" lon="3.32081">
        <ele>225.57</ele>
        <time>2021-08-13T16:22:33Z</time>
      </trkpt>
      <trkpt lat="46.50375" lon="3.32052">
        <ele>225.57</ele>
        <time>2021-08-13T16:22:41Z</time>
      </trkpt>
      <trkpt lat="46.50354" lon="3.32008">
        <ele>225.57</ele>
        <time>2021-08-13T16:22:52Z</time>
      </trkpt>
      <trkpt lat="46.50339" lon="3.31972">
        <ele>225.57</ele>
        <time>2021-08-13T16:23:00Z</time>
      </trkpt>
      <trkpt lat="46.50326" lon="3.31931">
        <ele>227.01</ele>
        <time>2021-08-13T16:23:09Z</time>
      </trkpt>
      <trkpt lat="46.50319" lon="3.31871">
        <ele>227.49</ele>
        <time>2021-08-13T16:23:21Z</time>
      </trkpt>
      <trkpt lat="46.5032" lon="3.31839">
        <ele>227.97</ele>
        <time>2021-08-13T16:23:28Z</time>
      </trkpt>
      <trkpt lat="46.50326" lon="3.31803">
        <ele>228.93</ele>
        <time>2021-08-13T16:23:37Z</time>
      </trkpt>
      <trkpt lat="46.5033" lon="3.31784">
        <ele>229.41</ele>
        <time>2021-08-13T16:23:43Z</time>
      </trkpt>
      <trkpt lat="46.50335" lon="3.31766">
        <ele>230.37</ele>
        <time>2021-08-13T16:23:49Z</time>
      </trkpt>
      <trkpt lat="46.50345" lon="3.31728">
        <ele>231.81</ele>
        <time>2021-08-13T16:23:59Z</time>
      </trkpt>
      <trkpt lat="46.5035" lon="3.31709">
        <ele>233.74</ele>
        <time>2021-08-13T16:24:06Z</time>
      </trkpt>
      <trkpt lat="46.50355" lon="3.31686">
        <ele>235.66</ele>
        <time>2021-08-13T16:24:14Z</time>
      </trkpt>
      <trkpt lat="46.50355" lon="3.31682">
        <ele>236.14</ele>
        <time>2021-08-13T16:24:16Z</time>
      </trkpt>
      <trkpt lat="46.50356" lon="3.31679">
        <ele>236.14</ele>
        <time>2021-08-13T16:24:17Z</time>
      </trkpt>
      <trkpt lat="46.50361" lon="3.31656">
        <ele>238.06</ele>
        <time>2021-08-13T16:24:27Z</time>
      </trkpt>
      <trkpt lat="46.50363" lon="3.31653">
        <ele>238.06</ele>
        <time>2021-08-13T16:24:29Z</time>
      </trkpt>
      <trkpt lat="46.50364" lon="3.31651">
        <ele>238.06</ele>
        <time>2021-08-13T16:24:30Z</time>
      </trkpt>
      <trkpt lat="46.50365" lon="3.31646">
        <ele>238.06</ele>
        <time>2021-08-13T16:24:31Z</time>
      </trkpt>
      <trkpt lat="46.5037" lon="3.31622">
        <ele>238.06</ele>
        <time>2021-08-13T16:24:37Z</time>
      </trkpt>
      <trkpt lat="46.50374" lon="3.31597">
        <ele>238.06</ele>
        <time>2021-08-13T16:24:44Z</time>
      </trkpt>
      <trkpt lat="46.50377" lon="3.31559">
        <ele>239.02</ele>
        <time>2021-08-13T16:24:54Z</time>
      </trkpt>
      <trkpt lat="46.50379" lon="3.31529">
        <ele>239.51</ele>
        <time>2021-08-13T16:25:02Z</time>
      </trkpt>
      <trkpt lat="46.50375" lon="3.31486">
        <ele>239.99</ele>
        <time>2021-08-13T16:25:13Z</time>
      </trkpt>
      <trkpt lat="46.50368" lon="3.31448">
        <ele>240.47</ele>
        <time>2021-08-13T16:25:22Z</time>
      </trkpt>
      <trkpt lat="46.50359" lon="3.31403">
        <ele>240.95</ele>
        <time>2021-08-13T16:25:33Z</time>
      </trkpt>
      <trkpt lat="46.50357" lon="3.31363">
        <ele>241.43</ele>
        <time>2021-08-13T16:25:42Z</time>
      </trkpt>
      <trkpt lat="46.50359" lon="3.31316">
        <ele>241.91</ele>
        <time>2021-08-13T16:25:52Z</time>
      </trkpt>
      <trkpt lat="46.50361" lon="3.31283">
        <ele>242.39</ele>
        <time>2021-08-13T16:25:59Z</time>
      </trkpt>
      <trkpt lat="46.50364" lon="3.31247">
        <ele>243.35</ele>
        <time>2021-08-13T16:26:07Z</time>
      </trkpt>
      <trkpt lat="46.50363" lon="3.312">
        <ele>244.31</ele>
        <time>2021-08-13T16:26:18Z</time>
      </trkpt>
      <trkpt lat="46.50356" lon="3.31161">
        <ele>245.75</ele>
        <time>2021-08-13T16:26:28Z</time>
      </trkpt>
      <trkpt lat="46.50354" lon="3.31128">
        <ele>245.75</ele>
        <time>2021-08-13T16:26:36Z</time>
      </trkpt>
      <trkpt lat="46.50352" lon="3.3109">
        <ele>247.2</ele>
        <time>2021-08-13T16:26:45Z</time>
      </trkpt>
      <trkpt lat="46.5035" lon="3.31056">
        <ele>247.2</ele>
        <time>2021-08-13T16:26:53Z</time>
      </trkpt>
      <trkpt lat="46.5035" lon="3.31012">
        <ele>248.16</ele>
        <time>2021-08-13T16:27:03Z</time>
      </trkpt>
      <trkpt lat="46.5035" lon="3.30976">
        <ele>249.12</ele>
        <time>2021-08-13T16:27:11Z</time>
      </trkpt>
      <trkpt lat="46.5035" lon="3.30927">
        <ele>249.6</ele>
        <time>2021-08-13T16:27:22Z</time>
      </trkpt>
      <trkpt lat="46.50352" lon="3.30892">
        <ele>250.56</ele>
        <time>2021-08-13T16:27:30Z</time>
      </trkpt>
      <trkpt lat="46.50356" lon="3.30852">
        <ele>252</ele>
        <time>2021-08-13T16:27:39Z</time>
      </trkpt>
      <trkpt lat="46.5036" lon="3.30816">
        <ele>252.48</ele>
        <time>2021-08-13T16:27:47Z</time>
      </trkpt>
      <trkpt lat="46.50364" lon="3.30778">
        <ele>253.93</ele>
        <time>2021-08-13T16:27:56Z</time>
      </trkpt>
      <trkpt lat="46.50367" lon="3.3074">
        <ele>254.89</ele>
        <time>2021-08-13T16:28:05Z</time>
      </trkpt>
      <trkpt lat="46.50366" lon="3.307">
        <ele>255.37</ele>
        <time>2021-08-13T16:28:14Z</time>
      </trkpt>
      <trkpt lat="46.50354" lon="3.30686">
        <ele>255.85</ele>
        <time>2021-08-13T16:28:19Z</time>
      </trkpt>
      <trkpt lat="46.50329" lon="3.30687">
        <ele>256.33</ele>
        <time>2021-08-13T16:28:27Z</time>
      </trkpt>
      <trkpt lat="46.50302" lon="3.30685">
        <ele>257.77</ele>
        <time>2021-08-13T16:28:36Z</time>
      </trkpt>
      <trkpt lat="46.50279" lon="3.30684">
        <ele>257.77</ele>
        <time>2021-08-13T16:28:43Z</time>
      </trkpt>
      <trkpt lat="46.50245" lon="3.3068">
        <ele>258.25</ele>
        <time>2021-08-13T16:28:53Z</time>
      </trkpt>
      <trkpt lat="46.50221" lon="3.30676">
        <ele>259.21</ele>
        <time>2021-08-13T16:29:00Z</time>
      </trkpt>
      <trkpt lat="46.50183" lon="3.30668">
        <ele>259.21</ele>
        <time>2021-08-13T16:29:10Z</time>
      </trkpt>
      <trkpt lat="46.50175" lon="3.30667">
        <ele>259.21</ele>
        <time>2021-08-13T16:29:12Z</time>
      </trkpt>
      <trkpt lat="46.50171" lon="3.30666">
        <ele>259.21</ele>
        <time>2021-08-13T16:29:13Z</time>
      </trkpt>
      <trkpt lat="46.50167" lon="3.30665">
        <ele>259.21</ele>
        <time>2021-08-13T16:29:14Z</time>
      </trkpt>
      <trkpt lat="46.50163" lon="3.30664">
        <ele>259.21</ele>
        <time>2021-08-13T16:29:15Z</time>
      </trkpt>
      <trkpt lat="46.50159" lon="3.30663">
        <ele>259.21</ele>
        <time>2021-08-13T16:29:16Z</time>
      </trkpt>
      <trkpt lat="46.5013" lon="3.3066">
        <ele>259.21</ele>
        <time>2021-08-13T16:29:23Z</time>
      </trkpt>
      <trkpt lat="46.49942" lon="3.30672">
        <ele>261.14</ele>
        <time>2021-08-13T16:30:10Z</time>
      </trkpt>
      <trkpt lat="46.49934" lon="3.30672">
        <ele>261.14</ele>
        <time>2021-08-13T16:30:11Z</time>
      </trkpt>
      <trkpt lat="46.4989" lon="3.3068">
        <ele>260.17</ele>
        <time>2021-08-13T16:30:21Z</time>
      </trkpt>
      <trkpt lat="46.49855" lon="3.30688">
        <ele>260.17</ele>
        <time>2021-08-13T16:30:30Z</time>
      </trkpt>
      <trkpt lat="46.4982" lon="3.30691">
        <ele>260.65</ele>
        <time>2021-08-13T16:30:39Z</time>
      </trkpt>
      <trkpt lat="46.49785" lon="3.30687">
        <ele>261.62</ele>
        <time>2021-08-13T16:30:48Z</time>
      </trkpt>
      <trkpt lat="46.49774" lon="3.30683">
        <ele>261.62</ele>
        <time>2021-08-13T16:30:51Z</time>
      </trkpt>
      <trkpt lat="46.49771" lon="3.30681">
        <ele>262.1</ele>
        <time>2021-08-13T16:30:52Z</time>
      </trkpt>
      <trkpt lat="46.49768" lon="3.30679">
        <ele>262.1</ele>
        <time>2021-08-13T16:30:53Z</time>
      </trkpt>
      <trkpt lat="46.49741" lon="3.30658">
        <ele>262.1</ele>
        <time>2021-08-13T16:31:01Z</time>
      </trkpt>
      <trkpt lat="46.49711" lon="3.30635">
        <ele>262.58</ele>
        <time>2021-08-13T16:31:10Z</time>
      </trkpt>
      <trkpt lat="46.49683" lon="3.30615">
        <ele>263.06</ele>
        <time>2021-08-13T16:31:18Z</time>
      </trkpt>
      <trkpt lat="46.49659" lon="3.30599">
        <ele>263.06</ele>
        <time>2021-08-13T16:31:25Z</time>
      </trkpt>
      <trkpt lat="46.49636" lon="3.30581">
        <ele>263.06</ele>
        <time>2021-08-13T16:31:32Z</time>
      </trkpt>
      <trkpt lat="46.49616" lon="3.30556">
        <ele>263.06</ele>
        <time>2021-08-13T16:31:39Z</time>
      </trkpt>
      <trkpt lat="46.49602" lon="3.30542">
        <ele>263.06</ele>
        <time>2021-08-13T16:31:44Z</time>
      </trkpt>
      <trkpt lat="46.49577" lon="3.30523">
        <ele>263.06</ele>
        <time>2021-08-13T16:31:51Z</time>
      </trkpt>
      <trkpt lat="46.49543" lon="3.30494">
        <ele>262.1</ele>
        <time>2021-08-13T16:31:59Z</time>
      </trkpt>
      <trkpt lat="46.49501" lon="3.30451">
        <ele>262.1</ele>
        <time>2021-08-13T16:32:09Z</time>
      </trkpt>
      <trkpt lat="46.49486" lon="3.30435">
        <ele>262.1</ele>
        <time>2021-08-13T16:32:13Z</time>
      </trkpt>
      <trkpt lat="46.49482" lon="3.30431">
        <ele>262.1</ele>
        <time>2021-08-13T16:32:14Z</time>
      </trkpt>
      <trkpt lat="46.49443" lon="3.30394">
        <ele>262.1</ele>
        <time>2021-08-13T16:32:24Z</time>
      </trkpt>
      <trkpt lat="46.49415" lon="3.30365">
        <ele>264.02</ele>
        <time>2021-08-13T16:32:33Z</time>
      </trkpt>
      <trkpt lat="46.49387" lon="3.30339">
        <ele>265.94</ele>
        <time>2021-08-13T16:32:43Z</time>
      </trkpt>
      <trkpt lat="46.49363" lon="3.30318">
        <ele>267.38</ele>
        <time>2021-08-13T16:32:53Z</time>
      </trkpt>
      <trkpt lat="46.49335" lon="3.30299">
        <ele>267.86</ele>
        <time>2021-08-13T16:33:03Z</time>
      </trkpt>
      <trkpt lat="46.49311" lon="3.3028">
        <ele>267.86</ele>
        <time>2021-08-13T16:33:10Z</time>
      </trkpt>
      <trkpt lat="46.4928" lon="3.30257">
        <ele>266.9</ele>
        <time>2021-08-13T16:33:17Z</time>
      </trkpt>
      <trkpt lat="46.49245" lon="3.30224">
        <ele>265.94</ele>
        <time>2021-08-13T16:33:25Z</time>
      </trkpt>
      <trkpt lat="46.49199" lon="3.30172">
        <ele>264.98</ele>
        <time>2021-08-13T16:33:36Z</time>
      </trkpt>
      <trkpt lat="46.49154" lon="3.30126">
        <ele>263.54</ele>
        <time>2021-08-13T16:33:46Z</time>
      </trkpt>
      <trkpt lat="46.49115" lon="3.30085">
        <ele>263.06</ele>
        <time>2021-08-13T16:33:54Z</time>
      </trkpt>
      <trkpt lat="46.49077" lon="3.30045">
        <ele>262.1</ele>
        <time>2021-08-13T16:34:02Z</time>
      </trkpt>
      <trkpt lat="46.49035" lon="3.30007">
        <ele>260.65</ele>
        <time>2021-08-13T16:34:10Z</time>
      </trkpt>
      <trkpt lat="46.48998" lon="3.29989">
        <ele>260.65</ele>
        <time>2021-08-13T16:34:16Z</time>
      </trkpt>
      <trkpt lat="46.48955" lon="3.29984">
        <ele>260.65</ele>
        <time>2021-08-13T16:34:23Z</time>
      </trkpt>
      <trkpt lat="46.48911" lon="3.29989">
        <ele>262.1</ele>
        <time>2021-08-13T16:34:31Z</time>
      </trkpt>
      <trkpt lat="46.48906" lon="3.2999">
        <ele>262.1</ele>
        <time>2021-08-13T16:34:32Z</time>
      </trkpt>
      <trkpt lat="46.48887" lon="3.29995">
        <ele>262.58</ele>
        <time>2021-08-13T16:34:36Z</time>
      </trkpt>
      <trkpt lat="46.48882" lon="3.29996">
        <ele>262.58</ele>
        <time>2021-08-13T16:34:37Z</time>
      </trkpt>
      <trkpt lat="46.48878" lon="3.29998">
        <ele>262.58</ele>
        <time>2021-08-13T16:34:38Z</time>
      </trkpt>
      <trkpt lat="46.48873" lon="3.29999">
        <ele>262.58</ele>
        <time>2021-08-13T16:34:39Z</time>
      </trkpt>
      <trkpt lat="46.48869" lon="3.30001">
        <ele>262.58</ele>
        <time>2021-08-13T16:34:40Z</time>
      </trkpt>
      <trkpt lat="46.48865" lon="3.30002">
        <ele>262.58</ele>
        <time>2021-08-13T16:34:41Z</time>
      </trkpt>
      <trkpt lat="46.48822" lon="3.30014">
        <ele>263.54</ele>
        <time>2021-08-13T16:34:51Z</time>
      </trkpt>
      <trkpt lat="46.48778" lon="3.3002">
        <ele>264.5</ele>
        <time>2021-08-13T16:35:01Z</time>
      </trkpt>
      <trkpt lat="46.48722" lon="3.30022">
        <ele>265.46</ele>
        <time>2021-08-13T16:35:14Z</time>
      </trkpt>
      <trkpt lat="46.48676" lon="3.30031">
        <ele>265.94</ele>
        <time>2021-08-13T16:35:25Z</time>
      </trkpt>
      <trkpt lat="46.48643" lon="3.30046">
        <ele>266.9</ele>
        <time>2021-08-13T16:35:33Z</time>
      </trkpt>
      <trkpt lat="46.48624" lon="3.30051">
        <ele>266.9</ele>
        <time>2021-08-13T16:35:38Z</time>
      </trkpt>
      <trkpt lat="46.48593" lon="3.30051">
        <ele>264.98</ele>
        <time>2021-08-13T16:35:45Z</time>
      </trkpt>
      <trkpt lat="46.48544" lon="3.30048">
        <ele>263.06</ele>
        <time>2021-08-13T16:35:54Z</time>
      </trkpt>
      <trkpt lat="46.48517" lon="3.30054">
        <ele>261.14</ele>
        <time>2021-08-13T16:35:58Z</time>
      </trkpt>
      <trkpt lat="46.48489" lon="3.30064">
        <ele>259.21</ele>
        <time>2021-08-13T16:36:02Z</time>
      </trkpt>
      <trkpt lat="46.48417" lon="3.30085">
        <ele>257.29</ele>
        <time>2021-08-13T16:36:11Z</time>
      </trkpt>
      <trkpt lat="46.48384" lon="3.30096">
        <ele>257.29</ele>
        <time>2021-08-13T16:36:16Z</time>
      </trkpt>
      <trkpt lat="46.48343" lon="3.30116">
        <ele>257.29</ele>
        <time>2021-08-13T16:36:23Z</time>
      </trkpt>
      <trkpt lat="46.48283" lon="3.30152">
        <ele>257.29</ele>
        <time>2021-08-13T16:36:34Z</time>
      </trkpt>
      <trkpt lat="46.48238" lon="3.30188">
        <ele>256.81</ele>
        <time>2021-08-13T16:36:43Z</time>
      </trkpt>
      <trkpt lat="46.482" lon="3.30237">
        <ele>256.81</ele>
        <time>2021-08-13T16:36:52Z</time>
      </trkpt>
      <trkpt lat="46.48197" lon="3.30244">
        <ele>256.81</ele>
        <time>2021-08-13T16:36:53Z</time>
      </trkpt>
      <trkpt lat="46.48195" lon="3.3025">
        <ele>256.81</ele>
        <time>2021-08-13T16:36:54Z</time>
      </trkpt>
      <trkpt lat="46.48193" lon="3.30257">
        <ele>256.81</ele>
        <time>2021-08-13T16:36:55Z</time>
      </trkpt>
      <trkpt lat="46.48192" lon="3.30264">
        <ele>256.81</ele>
        <time>2021-08-13T16:36:56Z</time>
      </trkpt>
      <trkpt lat="46.48189" lon="3.30276">
        <ele>258.25</ele>
        <time>2021-08-13T16:36:58Z</time>
      </trkpt>
      <trkpt lat="46.4818" lon="3.30309">
        <ele>260.65</ele>
        <time>2021-08-13T16:37:05Z</time>
      </trkpt>
      <trkpt lat="46.48172" lon="3.30344">
        <ele>261.14</ele>
        <time>2021-08-13T16:37:12Z</time>
      </trkpt>
      <trkpt lat="46.48158" lon="3.30385">
        <ele>262.1</ele>
        <time>2021-08-13T16:37:21Z</time>
      </trkpt>
      <trkpt lat="46.48143" lon="3.30391">
        <ele>263.06</ele>
        <time>2021-08-13T16:37:26Z</time>
      </trkpt>
      <trkpt lat="46.4814" lon="3.30389">
        <ele>263.06</ele>
        <time>2021-08-13T16:37:27Z</time>
      </trkpt>
      <trkpt lat="46.48115" lon="3.30368">
        <ele>259.69</ele>
        <time>2021-08-13T16:37:33Z</time>
      </trkpt>
      <trkpt lat="46.48084" lon="3.30356">
        <ele>256.33</ele>
        <time>2021-08-13T16:37:38Z</time>
      </trkpt>
      <trkpt lat="46.48054" lon="3.30355">
        <ele>253.93</ele>
        <time>2021-08-13T16:37:42Z</time>
      </trkpt>
      <trkpt lat="46.47994" lon="3.30361">
        <ele>251.04</ele>
        <time>2021-08-13T16:37:49Z</time>
      </trkpt>
      <trkpt lat="46.47922" lon="3.3036">
        <ele>249.6</ele>
        <time>2021-08-13T16:37:58Z</time>
      </trkpt>
      <trkpt lat="46.47899" lon="3.30356">
        <ele>248.16</ele>
        <time>2021-08-13T16:38:01Z</time>
      </trkpt>
      <trkpt lat="46.47891" lon="3.30357">
        <ele>247.2</ele>
        <time>2021-08-13T16:38:02Z</time>
      </trkpt>
      <trkpt lat="46.47883" lon="3.30359">
        <ele>246.72</ele>
        <time>2021-08-13T16:38:03Z</time>
      </trkpt>
      <trkpt lat="46.47859" lon="3.30368">
        <ele>245.75</ele>
        <time>2021-08-13T16:38:06Z</time>
      </trkpt>
      <trkpt lat="46.47851" lon="3.30373">
        <ele>245.75</ele>
        <time>2021-08-13T16:38:07Z</time>
      </trkpt>
      <trkpt lat="46.47844" lon="3.30379">
        <ele>245.27</ele>
        <time>2021-08-13T16:38:08Z</time>
      </trkpt>
      <trkpt lat="46.47838" lon="3.30386">
        <ele>245.27</ele>
        <time>2021-08-13T16:38:09Z</time>
      </trkpt>
      <trkpt lat="46.47832" lon="3.30393">
        <ele>245.27</ele>
        <time>2021-08-13T16:38:10Z</time>
      </trkpt>
      <trkpt lat="46.47803" lon="3.30425">
        <ele>243.35</ele>
        <time>2021-08-13T16:38:15Z</time>
      </trkpt>
      <trkpt lat="46.47795" lon="3.30429">
        <ele>242.87</ele>
        <time>2021-08-13T16:38:16Z</time>
      </trkpt>
      <trkpt lat="46.47787" lon="3.30433">
        <ele>241.43</ele>
        <time>2021-08-13T16:38:17Z</time>
      </trkpt>
      <trkpt lat="46.47769" lon="3.3044">
        <ele>238.54</ele>
        <time>2021-08-13T16:38:19Z</time>
      </trkpt>
      <trkpt lat="46.47732" lon="3.30447">
        <ele>235.18</ele>
        <time>2021-08-13T16:38:23Z</time>
      </trkpt>
      <trkpt lat="46.47696" lon="3.30452">
        <ele>233.26</ele>
        <time>2021-08-13T16:38:28Z</time>
      </trkpt>
      <trkpt lat="46.47617" lon="3.30464">
        <ele>229.89</ele>
        <time>2021-08-13T16:38:38Z</time>
      </trkpt>
      <trkpt lat="46.47583" lon="3.30469">
        <ele>227.97</ele>
        <time>2021-08-13T16:38:42Z</time>
      </trkpt>
      <trkpt lat="46.47543" lon="3.30477">
        <ele>229.41</ele>
        <time>2021-08-13T16:38:47Z</time>
      </trkpt>
      <trkpt lat="46.47537" lon="3.3048">
        <ele>229.89</ele>
        <time>2021-08-13T16:38:48Z</time>
      </trkpt>
      <trkpt lat="46.47524" lon="3.30487">
        <ele>231.33</ele>
        <time>2021-08-13T16:38:51Z</time>
      </trkpt>
      <trkpt lat="46.47503" lon="3.30502">
        <ele>233.26</ele>
        <time>2021-08-13T16:38:58Z</time>
      </trkpt>
      <trkpt lat="46.47486" lon="3.30516">
        <ele>234.7</ele>
        <time>2021-08-13T16:39:06Z</time>
      </trkpt>
      <trkpt lat="46.47465" lon="3.30532">
        <ele>236.62</ele>
        <time>2021-08-13T16:39:16Z</time>
      </trkpt>
      <trkpt lat="46.47443" lon="3.30555">
        <ele>239.02</ele>
        <time>2021-08-13T16:39:28Z</time>
      </trkpt>
      <trkpt lat="46.47426" lon="3.30574">
        <ele>239.99</ele>
        <time>2021-08-13T16:39:38Z</time>
      </trkpt>
      <trkpt lat="46.47413" lon="3.30586">
        <ele>241.43</ele>
        <time>2021-08-13T16:39:45Z</time>
      </trkpt>
      <trkpt lat="46.47397" lon="3.30603">
        <ele>241.91</ele>
        <time>2021-08-13T16:39:54Z</time>
      </trkpt>
      <trkpt lat="46.47377" lon="3.30621">
        <ele>242.87</ele>
        <time>2021-08-13T16:40:04Z</time>
      </trkpt>
      <trkpt lat="46.47359" lon="3.30636">
        <ele>243.83</ele>
        <time>2021-08-13T16:40:13Z</time>
      </trkpt>
      <trkpt lat="46.47347" lon="3.30646">
        <ele>244.79</ele>
        <time>2021-08-13T16:40:19Z</time>
      </trkpt>
      <trkpt lat="46.47334" lon="3.30656">
        <ele>245.27</ele>
        <time>2021-08-13T16:40:26Z</time>
      </trkpt>
      <trkpt lat="46.47319" lon="3.30666">
        <ele>246.72</ele>
        <time>2021-08-13T16:40:33Z</time>
      </trkpt>
      <trkpt lat="46.47302" lon="3.30676">
        <ele>247.68</ele>
        <time>2021-08-13T16:40:41Z</time>
      </trkpt>
      <trkpt lat="46.47284" lon="3.30683">
        <ele>249.12</ele>
        <time>2021-08-13T16:40:49Z</time>
      </trkpt>
      <trkpt lat="46.4727" lon="3.30687">
        <ele>249.6</ele>
        <time>2021-08-13T16:40:55Z</time>
      </trkpt>
      <trkpt lat="46.47249" lon="3.30691">
        <ele>250.56</ele>
        <time>2021-08-13T16:41:03Z</time>
      </trkpt>
      <trkpt lat="46.47218" lon="3.30695">
        <ele>250.56</ele>
        <time>2021-08-13T16:41:12Z</time>
      </trkpt>
      <trkpt lat="46.47195" lon="3.307">
        <ele>250.56</ele>
        <time>2021-08-13T16:41:19Z</time>
      </trkpt>
      <trkpt lat="46.47169" lon="3.3071">
        <ele>251.04</ele>
        <time>2021-08-13T16:41:27Z</time>
      </trkpt>
      <trkpt lat="46.47139" lon="3.30726">
        <ele>251.04</ele>
        <time>2021-08-13T16:41:36Z</time>
      </trkpt>
      <trkpt lat="46.47112" lon="3.30742">
        <ele>251.04</ele>
        <time>2021-08-13T16:41:45Z</time>
      </trkpt>
      <trkpt lat="46.4709" lon="3.30757">
        <ele>251.04</ele>
        <time>2021-08-13T16:41:52Z</time>
      </trkpt>
      <trkpt lat="46.47067" lon="3.30776">
        <ele>251.04</ele>
        <time>2021-08-13T16:41:59Z</time>
      </trkpt>
      <trkpt lat="46.4704" lon="3.30802">
        <ele>251.04</ele>
        <time>2021-08-13T16:42:07Z</time>
      </trkpt>
      <trkpt lat="46.47023" lon="3.3082">
        <ele>251.04</ele>
        <time>2021-08-13T16:42:12Z</time>
      </trkpt>
      <trkpt lat="46.46991" lon="3.30843">
        <ele>251.04</ele>
        <time>2021-08-13T16:42:21Z</time>
      </trkpt>
      <trkpt lat="46.46959" lon="3.30851">
        <ele>251.04</ele>
        <time>2021-08-13T16:42:30Z</time>
      </trkpt>
      <trkpt lat="46.46933" lon="3.30856">
        <ele>251.52</ele>
        <time>2021-08-13T16:42:38Z</time>
      </trkpt>
      <trkpt lat="46.46904" lon="3.30862">
        <ele>252</ele>
        <time>2021-08-13T16:42:47Z</time>
      </trkpt>
      <trkpt lat="46.46866" lon="3.3087">
        <ele>253.44</ele>
        <time>2021-08-13T16:42:59Z</time>
      </trkpt>
      <trkpt lat="46.46833" lon="3.3088">
        <ele>254.41</ele>
        <time>2021-08-13T16:43:10Z</time>
      </trkpt>
      <trkpt lat="46.46806" lon="3.30887">
        <ele>255.85</ele>
        <time>2021-08-13T16:43:19Z</time>
      </trkpt>
      <trkpt lat="46.46785" lon="3.30892">
        <ele>257.29</ele>
        <time>2021-08-13T16:43:28Z</time>
      </trkpt>
      <trkpt lat="46.4677" lon="3.30896">
        <ele>258.73</ele>
        <time>2021-08-13T16:43:35Z</time>
      </trkpt>
      <trkpt lat="46.46752" lon="3.30902">
        <ele>260.17</ele>
        <time>2021-08-13T16:43:44Z</time>
      </trkpt>
      <trkpt lat="46.46738" lon="3.30907">
        <ele>261.62</ele>
        <time>2021-08-13T16:43:53Z</time>
      </trkpt>
      <trkpt lat="46.46718" lon="3.30911">
        <ele>263.54</ele>
        <time>2021-08-13T16:44:04Z</time>
      </trkpt>
      <trkpt lat="46.46705" lon="3.30916">
        <ele>264.5</ele>
        <time>2021-08-13T16:44:12Z</time>
      </trkpt>
      <trkpt lat="46.46703" lon="3.30917">
        <ele>265.46</ele>
        <time>2021-08-13T16:44:14Z</time>
      </trkpt>
      <trkpt lat="46.46701" lon="3.30917">
        <ele>265.46</ele>
        <time>2021-08-13T16:44:15Z</time>
      </trkpt>
      <trkpt lat="46.4668" lon="3.3092">
        <ele>267.38</ele>
        <time>2021-08-13T16:44:24Z</time>
      </trkpt>
      <trkpt lat="46.46659" lon="3.30923">
        <ele>268.35</ele>
        <time>2021-08-13T16:44:32Z</time>
      </trkpt>
      <trkpt lat="46.46638" lon="3.30926">
        <ele>269.79</ele>
        <time>2021-08-13T16:44:42Z</time>
      </trkpt>
      <trkpt lat="46.46611" lon="3.30923">
        <ele>271.71</ele>
        <time>2021-08-13T16:44:53Z</time>
      </trkpt>
      <trkpt lat="46.46585" lon="3.30915">
        <ele>272.19</ele>
        <time>2021-08-13T16:45:04Z</time>
      </trkpt>
      <trkpt lat="46.46567" lon="3.30909">
        <ele>273.15</ele>
        <time>2021-08-13T16:45:12Z</time>
      </trkpt>
      <trkpt lat="46.46547" lon="3.30901">
        <ele>273.63</ele>
        <time>2021-08-13T16:45:20Z</time>
      </trkpt>
      <trkpt lat="46.46522" lon="3.309">
        <ele>274.11</ele>
        <time>2021-08-13T16:45:29Z</time>
      </trkpt>
      <trkpt lat="46.46497" lon="3.30906">
        <ele>274.59</ele>
        <time>2021-08-13T16:45:38Z</time>
      </trkpt>
      <trkpt lat="46.46469" lon="3.30913">
        <ele>275.56</ele>
        <time>2021-08-13T16:45:47Z</time>
      </trkpt>
      <trkpt lat="46.46444" lon="3.3092">
        <ele>275.56</ele>
        <time>2021-08-13T16:45:55Z</time>
      </trkpt>
      <trkpt lat="46.46418" lon="3.30928">
        <ele>276.04</ele>
        <time>2021-08-13T16:46:02Z</time>
      </trkpt>
      <trkpt lat="46.46375" lon="3.30943">
        <ele>277</ele>
        <time>2021-08-13T16:46:13Z</time>
      </trkpt>
      <trkpt lat="46.46339" lon="3.30959">
        <ele>277</ele>
        <time>2021-08-13T16:46:22Z</time>
      </trkpt>
      <trkpt lat="46.46305" lon="3.30975">
        <ele>277</ele>
        <time>2021-08-13T16:46:30Z</time>
      </trkpt>
      <trkpt lat="46.46269" lon="3.30992">
        <ele>277</ele>
        <time>2021-08-13T16:46:39Z</time>
      </trkpt>
      <trkpt lat="46.46238" lon="3.31005">
        <ele>277</ele>
        <time>2021-08-13T16:46:47Z</time>
      </trkpt>
      <trkpt lat="46.46234" lon="3.31006">
        <ele>277</ele>
        <time>2021-08-13T16:46:48Z</time>
      </trkpt>
      <trkpt lat="46.46224" lon="3.31008">
        <ele>277</ele>
        <time>2021-08-13T16:46:50Z</time>
      </trkpt>
      <trkpt lat="46.46178" lon="3.3101">
        <ele>277</ele>
        <time>2021-08-13T16:47:00Z</time>
      </trkpt>
      <trkpt lat="46.46133" lon="3.31011">
        <ele>277</ele>
        <time>2021-08-13T16:47:09Z</time>
      </trkpt>
      <trkpt lat="46.46113" lon="3.31012">
        <ele>277</ele>
        <time>2021-08-13T16:47:13Z</time>
      </trkpt>
      <trkpt lat="46.46108" lon="3.31012">
        <ele>277</ele>
        <time>2021-08-13T16:47:14Z</time>
      </trkpt>
      <trkpt lat="46.46079" lon="3.31013">
        <ele>277</ele>
        <time>2021-08-13T16:47:20Z</time>
      </trkpt>
      <trkpt lat="46.46074" lon="3.31013">
        <ele>277</ele>
        <time>2021-08-13T16:47:21Z</time>
      </trkpt>
      <trkpt lat="46.46032" lon="3.31015">
        <ele>277</ele>
        <time>2021-08-13T16:47:30Z</time>
      </trkpt>
      <trkpt lat="46.45994" lon="3.31017">
        <ele>277</ele>
        <time>2021-08-13T16:47:38Z</time>
      </trkpt>
      <trkpt lat="46.45935" lon="3.3102">
        <ele>277</ele>
        <time>2021-08-13T16:47:50Z</time>
      </trkpt>
      <trkpt lat="46.45915" lon="3.31022">
        <ele>277.48</ele>
        <time>2021-08-13T16:47:54Z</time>
      </trkpt>
      <trkpt lat="46.45911" lon="3.31023">
        <ele>277.48</ele>
        <time>2021-08-13T16:47:55Z</time>
      </trkpt>
      <trkpt lat="46.45867" lon="3.3103">
        <ele>277.48</ele>
        <time>2021-08-13T16:48:04Z</time>
      </trkpt>
      <trkpt lat="46.45813" lon="3.31046">
        <ele>277.48</ele>
        <time>2021-08-13T16:48:15Z</time>
      </trkpt>
      <trkpt lat="46.4579" lon="3.31053">
        <ele>277.48</ele>
        <time>2021-08-13T16:48:20Z</time>
      </trkpt>
      <trkpt lat="46.45748" lon="3.31065">
        <ele>277.96</ele>
        <time>2021-08-13T16:48:29Z</time>
      </trkpt>
      <trkpt lat="46.45711" lon="3.31076">
        <ele>276.52</ele>
        <time>2021-08-13T16:48:37Z</time>
      </trkpt>
      <trkpt lat="46.45656" lon="3.31093">
        <ele>276.52</ele>
        <time>2021-08-13T16:48:48Z</time>
      </trkpt>
      <trkpt lat="46.45614" lon="3.31107">
        <ele>276.52</ele>
        <time>2021-08-13T16:48:57Z</time>
      </trkpt>
      <trkpt lat="46.45572" lon="3.31116">
        <ele>277</ele>
        <time>2021-08-13T16:49:06Z</time>
      </trkpt>
      <trkpt lat="46.45568" lon="3.31116">
        <ele>277</ele>
        <time>2021-08-13T16:49:07Z</time>
      </trkpt>
      <trkpt lat="46.45563" lon="3.31116">
        <ele>277</ele>
        <time>2021-08-13T16:49:08Z</time>
      </trkpt>
      <trkpt lat="46.45553" lon="3.31114">
        <ele>277</ele>
        <time>2021-08-13T16:49:10Z</time>
      </trkpt>
      <trkpt lat="46.45547" lon="3.31113">
        <ele>277</ele>
        <time>2021-08-13T16:49:11Z</time>
      </trkpt>
      <trkpt lat="46.455" lon="3.31111">
        <ele>276.52</ele>
        <time>2021-08-13T16:49:20Z</time>
      </trkpt>
      <trkpt lat="46.4548" lon="3.31113">
        <ele>276.04</ele>
        <time>2021-08-13T16:49:24Z</time>
      </trkpt>
      <trkpt lat="46.45475" lon="3.31114">
        <ele>276.04</ele>
        <time>2021-08-13T16:49:25Z</time>
      </trkpt>
      <trkpt lat="46.45436" lon="3.31113">
        <ele>276.04</ele>
        <time>2021-08-13T16:49:33Z</time>
      </trkpt>
      <trkpt lat="46.45373" lon="3.31097">
        <ele>276.04</ele>
        <time>2021-08-13T16:49:47Z</time>
      </trkpt>
      <trkpt lat="46.4532" lon="3.31085">
        <ele>277.48</ele>
        <time>2021-08-13T16:49:59Z</time>
      </trkpt>
      <trkpt lat="46.45304" lon="3.31081">
        <ele>277.96</ele>
        <time>2021-08-13T16:50:03Z</time>
      </trkpt>
      <trkpt lat="46.4527" lon="3.31071">
        <ele>278.92</ele>
        <time>2021-08-13T16:50:12Z</time>
      </trkpt>
      <trkpt lat="46.45244" lon="3.3105">
        <ele>278.92</ele>
        <time>2021-08-13T16:50:19Z</time>
      </trkpt>
      <trkpt lat="46.45224" lon="3.31033">
        <ele>278.92</ele>
        <time>2021-08-13T16:50:24Z</time>
      </trkpt>
      <trkpt lat="46.45219" lon="3.31029">
        <ele>278.92</ele>
        <time>2021-08-13T16:50:25Z</time>
      </trkpt>
      <trkpt lat="46.45215" lon="3.31025">
        <ele>278.92</ele>
        <time>2021-08-13T16:50:26Z</time>
      </trkpt>
      <trkpt lat="46.45176" lon="3.3099">
        <ele>278.92</ele>
        <time>2021-08-13T16:50:35Z</time>
      </trkpt>
      <trkpt lat="46.45171" lon="3.30986">
        <ele>278.92</ele>
        <time>2021-08-13T16:50:36Z</time>
      </trkpt>
      <trkpt lat="46.45138" lon="3.30964">
        <ele>278.92</ele>
        <time>2021-08-13T16:50:44Z</time>
      </trkpt>
      <trkpt lat="46.45133" lon="3.30962">
        <ele>278.92</ele>
        <time>2021-08-13T16:50:45Z</time>
      </trkpt>
      <trkpt lat="46.45129" lon="3.3096">
        <ele>278.92</ele>
        <time>2021-08-13T16:50:46Z</time>
      </trkpt>
      <trkpt lat="46.45104" lon="3.30947">
        <ele>278.92</ele>
        <time>2021-08-13T16:50:52Z</time>
      </trkpt>
      <trkpt lat="46.45099" lon="3.30945">
        <ele>278.92</ele>
        <time>2021-08-13T16:50:53Z</time>
      </trkpt>
      <trkpt lat="46.45081" lon="3.30936">
        <ele>278.92</ele>
        <time>2021-08-13T16:50:57Z</time>
      </trkpt>
      <trkpt lat="46.45049" lon="3.30935">
        <ele>278.92</ele>
        <time>2021-08-13T16:51:04Z</time>
      </trkpt>
      <trkpt lat="46.45023" lon="3.30942">
        <ele>278.92</ele>
        <time>2021-08-13T16:51:10Z</time>
      </trkpt>
      <trkpt lat="46.44985" lon="3.30937">
        <ele>278.92</ele>
        <time>2021-08-13T16:51:19Z</time>
      </trkpt>
      <trkpt lat="46.44956" lon="3.30927">
        <ele>278.92</ele>
        <time>2021-08-13T16:51:26Z</time>
      </trkpt>
      <trkpt lat="46.4492" lon="3.30909">
        <ele>278.92</ele>
        <time>2021-08-13T16:51:35Z</time>
      </trkpt>
      <trkpt lat="46.44909" lon="3.30905">
        <ele>278.92</ele>
        <time>2021-08-13T16:51:38Z</time>
      </trkpt>
      <trkpt lat="46.44905" lon="3.30906">
        <ele>278.92</ele>
        <time>2021-08-13T16:51:39Z</time>
      </trkpt>
      <trkpt lat="46.44901" lon="3.30909">
        <ele>278.92</ele>
        <time>2021-08-13T16:51:40Z</time>
      </trkpt>
      <trkpt lat="46.44898" lon="3.30913">
        <ele>278.92</ele>
        <time>2021-08-13T16:51:41Z</time>
      </trkpt>
      <trkpt lat="46.44895" lon="3.30918">
        <ele>278.92</ele>
        <time>2021-08-13T16:51:42Z</time>
      </trkpt>
      <trkpt lat="46.44893" lon="3.30924">
        <ele>278.92</ele>
        <time>2021-08-13T16:51:43Z</time>
      </trkpt>
      <trkpt lat="46.44891" lon="3.3093">
        <ele>278.92</ele>
        <time>2021-08-13T16:51:44Z</time>
      </trkpt>
      <trkpt lat="46.44883" lon="3.30961">
        <ele>278.92</ele>
        <time>2021-08-13T16:51:49Z</time>
      </trkpt>
      <trkpt lat="46.4488" lon="3.30965">
        <ele>278.92</ele>
        <time>2021-08-13T16:51:50Z</time>
      </trkpt>
      <trkpt lat="46.44877" lon="3.30967">
        <ele>278.92</ele>
        <time>2021-08-13T16:51:51Z</time>
      </trkpt>
      <trkpt lat="46.44873" lon="3.30965">
        <ele>278.92</ele>
        <time>2021-08-13T16:51:52Z</time>
      </trkpt>
      <trkpt lat="46.44869" lon="3.30961">
        <ele>278.92</ele>
        <time>2021-08-13T16:51:53Z</time>
      </trkpt>
      <trkpt lat="46.44866" lon="3.30957">
        <ele>278.92</ele>
        <time>2021-08-13T16:51:54Z</time>
      </trkpt>
      <trkpt lat="46.44863" lon="3.30953">
        <ele>278.92</ele>
        <time>2021-08-13T16:51:55Z</time>
      </trkpt>
      <trkpt lat="46.44859" lon="3.3095">
        <ele>278.92</ele>
        <time>2021-08-13T16:51:56Z</time>
      </trkpt>
      <trkpt lat="46.44856" lon="3.30947">
        <ele>278.92</ele>
        <time>2021-08-13T16:51:57Z</time>
      </trkpt>
      <trkpt lat="46.44852" lon="3.30944">
        <ele>278.92</ele>
        <time>2021-08-13T16:51:58Z</time>
      </trkpt>
      <trkpt lat="46.44848" lon="3.30943">
        <ele>278.92</ele>
        <time>2021-08-13T16:51:59Z</time>
      </trkpt>
      <trkpt lat="46.44843" lon="3.30941">
        <ele>278.92</ele>
        <time>2021-08-13T16:52:00Z</time>
      </trkpt>
      <trkpt lat="46.44839" lon="3.30941">
        <ele>278.92</ele>
        <time>2021-08-13T16:52:01Z</time>
      </trkpt>
      <trkpt lat="46.44835" lon="3.3094">
        <ele>278.92</ele>
        <time>2021-08-13T16:52:02Z</time>
      </trkpt>
      <trkpt lat="46.44797" lon="3.30934">
        <ele>278.92</ele>
        <time>2021-08-13T16:52:10Z</time>
      </trkpt>
      <trkpt lat="46.44757" lon="3.30907">
        <ele>278.92</ele>
        <time>2021-08-13T16:52:19Z</time>
      </trkpt>
      <trkpt lat="46.44717" lon="3.30865">
        <ele>278.92</ele>
        <time>2021-08-13T16:52:29Z</time>
      </trkpt>
      <trkpt lat="46.44681" lon="3.30819">
        <ele>278.92</ele>
        <time>2021-08-13T16:52:38Z</time>
      </trkpt>
      <trkpt lat="46.44678" lon="3.30812">
        <ele>278.92</ele>
        <time>2021-08-13T16:52:39Z</time>
      </trkpt>
      <trkpt lat="46.44674" lon="3.30806">
        <ele>277.48</ele>
        <time>2021-08-13T16:52:40Z</time>
      </trkpt>
      <trkpt lat="46.44672" lon="3.30798">
        <ele>277.48</ele>
        <time>2021-08-13T16:52:41Z</time>
      </trkpt>
      <trkpt lat="46.44663" lon="3.30779">
        <ele>277.48</ele>
        <time>2021-08-13T16:52:44Z</time>
      </trkpt>
      <trkpt lat="46.44659" lon="3.30772">
        <ele>277.48</ele>
        <time>2021-08-13T16:52:45Z</time>
      </trkpt>
      <trkpt lat="46.44656" lon="3.30766">
        <ele>277.48</ele>
        <time>2021-08-13T16:52:46Z</time>
      </trkpt>
      <trkpt lat="46.44651" lon="3.30761">
        <ele>277.48</ele>
        <time>2021-08-13T16:52:47Z</time>
      </trkpt>
      <trkpt lat="46.44646" lon="3.30756">
        <ele>277.48</ele>
        <time>2021-08-13T16:52:48Z</time>
      </trkpt>
      <trkpt lat="46.44642" lon="3.30751">
        <ele>277.48</ele>
        <time>2021-08-13T16:52:49Z</time>
      </trkpt>
      <trkpt lat="46.44593" lon="3.30706">
        <ele>277.48</ele>
        <time>2021-08-13T16:53:00Z</time>
      </trkpt>
      <trkpt lat="46.44556" lon="3.30675">
        <ele>277.48</ele>
        <time>2021-08-13T16:53:09Z</time>
      </trkpt>
      <trkpt lat="46.44529" lon="3.30656">
        <ele>277.48</ele>
        <time>2021-08-13T16:53:15Z</time>
      </trkpt>
      <trkpt lat="46.44524" lon="3.30654">
        <ele>277.48</ele>
        <time>2021-08-13T16:53:16Z</time>
      </trkpt>
      <trkpt lat="46.44491" lon="3.30634">
        <ele>277.48</ele>
        <time>2021-08-13T16:53:24Z</time>
      </trkpt>
      <trkpt lat="46.44458" lon="3.30614">
        <ele>277.48</ele>
        <time>2021-08-13T16:53:33Z</time>
      </trkpt>
      <trkpt lat="46.4443" lon="3.306">
        <ele>277.48</ele>
        <time>2021-08-13T16:53:41Z</time>
      </trkpt>
      <trkpt lat="46.44404" lon="3.30596">
        <ele>278.92</ele>
        <time>2021-08-13T16:53:48Z</time>
      </trkpt>
      <trkpt lat="46.44365" lon="3.30591">
        <ele>278.92</ele>
        <time>2021-08-13T16:53:57Z</time>
      </trkpt>
      <trkpt lat="46.44317" lon="3.30585">
        <ele>278.92</ele>
        <time>2021-08-13T16:54:07Z</time>
      </trkpt>
      <trkpt lat="46.44272" lon="3.3057">
        <ele>278.92</ele>
        <time>2021-08-13T16:54:17Z</time>
      </trkpt>
      <trkpt lat="46.44235" lon="3.30545">
        <ele>278.92</ele>
        <time>2021-08-13T16:54:26Z</time>
      </trkpt>
      <trkpt lat="46.44217" lon="3.30529">
        <ele>278.92</ele>
        <time>2021-08-13T16:54:31Z</time>
      </trkpt>
      <trkpt lat="46.44213" lon="3.30526">
        <ele>278.92</ele>
        <time>2021-08-13T16:54:32Z</time>
      </trkpt>
      <trkpt lat="46.44205" lon="3.30519">
        <ele>278.92</ele>
        <time>2021-08-13T16:54:34Z</time>
      </trkpt>
      <trkpt lat="46.44189" lon="3.30503">
        <ele>278.92</ele>
        <time>2021-08-13T16:54:38Z</time>
      </trkpt>
      <trkpt lat="46.44155" lon="3.3047">
        <ele>278.92</ele>
        <time>2021-08-13T16:54:46Z</time>
      </trkpt>
      <trkpt lat="46.44151" lon="3.30467">
        <ele>278.92</ele>
        <time>2021-08-13T16:54:47Z</time>
      </trkpt>
      <trkpt lat="46.44126" lon="3.30437">
        <ele>278.92</ele>
        <time>2021-08-13T16:54:54Z</time>
      </trkpt>
      <trkpt lat="46.44101" lon="3.30399">
        <ele>278.92</ele>
        <time>2021-08-13T16:55:02Z</time>
      </trkpt>
      <trkpt lat="46.4408" lon="3.30361">
        <ele>277.48</ele>
        <time>2021-08-13T16:55:09Z</time>
      </trkpt>
      <trkpt lat="46.44076" lon="3.30356">
        <ele>277.48</ele>
        <time>2021-08-13T16:55:10Z</time>
      </trkpt>
      <trkpt lat="46.44064" lon="3.30338">
        <ele>276.52</ele>
        <time>2021-08-13T16:55:13Z</time>
      </trkpt>
      <trkpt lat="46.44055" lon="3.30327">
        <ele>275.56</ele>
        <time>2021-08-13T16:55:15Z</time>
      </trkpt>
      <trkpt lat="46.44049" lon="3.30322">
        <ele>275.56</ele>
        <time>2021-08-13T16:55:16Z</time>
      </trkpt>
      <trkpt lat="46.44044" lon="3.30318">
        <ele>275.56</ele>
        <time>2021-08-13T16:55:17Z</time>
      </trkpt>
      <trkpt lat="46.44007" lon="3.30298">
        <ele>275.56</ele>
        <time>2021-08-13T16:55:24Z</time>
      </trkpt>
      <trkpt lat="46.44002" lon="3.30296">
        <ele>275.56</ele>
        <time>2021-08-13T16:55:25Z</time>
      </trkpt>
      <trkpt lat="46.4397" lon="3.30278">
        <ele>277.48</ele>
        <time>2021-08-13T16:55:33Z</time>
      </trkpt>
      <trkpt lat="46.43944" lon="3.30263">
        <ele>278.44</ele>
        <time>2021-08-13T16:55:40Z</time>
      </trkpt>
      <trkpt lat="46.43918" lon="3.30252">
        <ele>279.88</ele>
        <time>2021-08-13T16:55:48Z</time>
      </trkpt>
      <trkpt lat="46.43892" lon="3.30245">
        <ele>280.36</ele>
        <time>2021-08-13T16:55:56Z</time>
      </trkpt>
      <trkpt lat="46.43862" lon="3.30241">
        <ele>280.36</ele>
        <time>2021-08-13T16:56:03Z</time>
      </trkpt>
      <trkpt lat="46.43822" lon="3.30236">
        <ele>278.44</ele>
        <time>2021-08-13T16:56:11Z</time>
      </trkpt>
      <trkpt lat="46.43817" lon="3.30236">
        <ele>278.44</ele>
        <time>2021-08-13T16:56:12Z</time>
      </trkpt>
      <trkpt lat="46.43812" lon="3.30236">
        <ele>278.44</ele>
        <time>2021-08-13T16:56:13Z</time>
      </trkpt>
      <trkpt lat="46.43801" lon="3.30236">
        <ele>278.44</ele>
        <time>2021-08-13T16:56:15Z</time>
      </trkpt>
      <trkpt lat="46.43759" lon="3.30226">
        <ele>278.44</ele>
        <time>2021-08-13T16:56:24Z</time>
      </trkpt>
      <trkpt lat="46.43729" lon="3.30216">
        <ele>280.36</ele>
        <time>2021-08-13T16:56:31Z</time>
      </trkpt>
      <trkpt lat="46.43689" lon="3.30211">
        <ele>281.32</ele>
        <time>2021-08-13T16:56:41Z</time>
      </trkpt>
      <trkpt lat="46.43655" lon="3.3021">
        <ele>281.8</ele>
        <time>2021-08-13T16:56:49Z</time>
      </trkpt>
      <trkpt lat="46.43642" lon="3.3021">
        <ele>282.28</ele>
        <time>2021-08-13T16:56:52Z</time>
      </trkpt>
      <trkpt lat="46.43636" lon="3.30209">
        <ele>282.28</ele>
        <time>2021-08-13T16:56:53Z</time>
      </trkpt>
      <trkpt lat="46.43596" lon="3.30211">
        <ele>282.28</ele>
        <time>2021-08-13T16:57:02Z</time>
      </trkpt>
      <trkpt lat="46.43574" lon="3.30214">
        <ele>282.28</ele>
        <time>2021-08-13T16:57:07Z</time>
      </trkpt>
      <trkpt lat="46.4357" lon="3.30215">
        <ele>282.28</ele>
        <time>2021-08-13T16:57:08Z</time>
      </trkpt>
      <trkpt lat="46.4356" lon="3.30216">
        <ele>282.28</ele>
        <time>2021-08-13T16:57:10Z</time>
      </trkpt>
      <trkpt lat="46.43555" lon="3.30216">
        <ele>282.28</ele>
        <time>2021-08-13T16:57:11Z</time>
      </trkpt>
      <trkpt lat="46.43551" lon="3.30217">
        <ele>282.28</ele>
        <time>2021-08-13T16:57:12Z</time>
      </trkpt>
      <trkpt lat="46.43546" lon="3.30218">
        <ele>282.28</ele>
        <time>2021-08-13T16:57:13Z</time>
      </trkpt>
      <trkpt lat="46.43542" lon="3.3022">
        <ele>282.28</ele>
        <time>2021-08-13T16:57:14Z</time>
      </trkpt>
      <trkpt lat="46.43538" lon="3.30222">
        <ele>282.28</ele>
        <time>2021-08-13T16:57:15Z</time>
      </trkpt>
      <trkpt lat="46.43533" lon="3.30225">
        <ele>282.28</ele>
        <time>2021-08-13T16:57:16Z</time>
      </trkpt>
      <trkpt lat="46.43529" lon="3.30229">
        <ele>282.28</ele>
        <time>2021-08-13T16:57:17Z</time>
      </trkpt>
      <trkpt lat="46.43525" lon="3.30233">
        <ele>282.28</ele>
        <time>2021-08-13T16:57:18Z</time>
      </trkpt>
      <trkpt lat="46.43513" lon="3.30244">
        <ele>282.28</ele>
        <time>2021-08-13T16:57:21Z</time>
      </trkpt>
      <trkpt lat="46.43509" lon="3.30248">
        <ele>281.32</ele>
        <time>2021-08-13T16:57:22Z</time>
      </trkpt>
      <trkpt lat="46.4347" lon="3.30282">
        <ele>279.88</ele>
        <time>2021-08-13T16:57:31Z</time>
      </trkpt>
      <trkpt lat="46.43423" lon="3.30329">
        <ele>277.96</ele>
        <time>2021-08-13T16:57:41Z</time>
      </trkpt>
      <trkpt lat="46.43405" lon="3.30342">
        <ele>276.52</ele>
        <time>2021-08-13T16:57:44Z</time>
      </trkpt>
      <trkpt lat="46.43399" lon="3.30345">
        <ele>276.04</ele>
        <time>2021-08-13T16:57:45Z</time>
      </trkpt>
      <trkpt lat="46.43357" lon="3.30367">
        <ele>275.56</ele>
        <time>2021-08-13T16:57:52Z</time>
      </trkpt>
      <trkpt lat="46.43313" lon="3.30399">
        <ele>275.56</ele>
        <time>2021-08-13T16:58:01Z</time>
      </trkpt>
      <trkpt lat="46.43292" lon="3.30413">
        <ele>277</ele>
        <time>2021-08-13T16:58:06Z</time>
      </trkpt>
      <trkpt lat="46.43255" lon="3.30432">
        <ele>277.48</ele>
        <time>2021-08-13T16:58:15Z</time>
      </trkpt>
      <trkpt lat="46.43223" lon="3.30446">
        <ele>277.48</ele>
        <time>2021-08-13T16:58:23Z</time>
      </trkpt>
      <trkpt lat="46.43199" lon="3.30455">
        <ele>276.04</ele>
        <time>2021-08-13T16:58:28Z</time>
      </trkpt>
      <trkpt lat="46.43159" lon="3.30471">
        <ele>275.07</ele>
        <time>2021-08-13T16:58:36Z</time>
      </trkpt>
      <trkpt lat="46.43094" lon="3.30499">
        <ele>271.71</ele>
        <time>2021-08-13T16:58:47Z</time>
      </trkpt>
      <trkpt lat="46.43027" lon="3.30528">
        <ele>270.27</ele>
        <time>2021-08-13T16:58:57Z</time>
      </trkpt>
      <trkpt lat="46.42984" lon="3.30547">
        <ele>270.27</ele>
        <time>2021-08-13T16:59:05Z</time>
      </trkpt>
      <trkpt lat="46.42979" lon="3.30555">
        <ele>270.27</ele>
        <time>2021-08-13T16:59:07Z</time>
      </trkpt>
      <trkpt lat="46.42977" lon="3.30561">
        <ele>270.27</ele>
        <time>2021-08-13T16:59:08Z</time>
      </trkpt>
      <trkpt lat="46.42975" lon="3.30567">
        <ele>270.27</ele>
        <time>2021-08-13T16:59:09Z</time>
      </trkpt>
      <trkpt lat="46.42952" lon="3.30619">
        <ele>267.86</ele>
        <time>2021-08-13T16:59:16Z</time>
      </trkpt>
      <trkpt lat="46.42946" lon="3.30627">
        <ele>266.9</ele>
        <time>2021-08-13T16:59:17Z</time>
      </trkpt>
      <trkpt lat="46.42941" lon="3.30633">
        <ele>266.42</ele>
        <time>2021-08-13T16:59:18Z</time>
      </trkpt>
      <trkpt lat="46.42935" lon="3.3064">
        <ele>266.42</ele>
        <time>2021-08-13T16:59:19Z</time>
      </trkpt>
      <trkpt lat="46.42928" lon="3.30645">
        <ele>265.94</ele>
        <time>2021-08-13T16:59:20Z</time>
      </trkpt>
      <trkpt lat="46.42921" lon="3.30651">
        <ele>264.98</ele>
        <time>2021-08-13T16:59:21Z</time>
      </trkpt>
      <trkpt lat="46.42882" lon="3.30675">
        <ele>262.58</ele>
        <time>2021-08-13T16:59:26Z</time>
      </trkpt>
      <trkpt lat="46.42841" lon="3.30699">
        <ele>259.21</ele>
        <time>2021-08-13T16:59:31Z</time>
      </trkpt>
      <trkpt lat="46.42789" lon="3.30729">
        <ele>255.85</ele>
        <time>2021-08-13T16:59:37Z</time>
      </trkpt>
      <trkpt lat="46.42744" lon="3.30756">
        <ele>253.44</ele>
        <time>2021-08-13T16:59:42Z</time>
      </trkpt>
      <trkpt lat="46.42736" lon="3.30763">
        <ele>252.48</ele>
        <time>2021-08-13T16:59:43Z</time>
      </trkpt>
      <trkpt lat="46.42727" lon="3.30773">
        <ele>252</ele>
        <time>2021-08-13T16:59:44Z</time>
      </trkpt>
      <trkpt lat="46.4272" lon="3.30782">
        <ele>252</ele>
        <time>2021-08-13T16:59:45Z</time>
      </trkpt>
      <trkpt lat="46.42713" lon="3.30795">
        <ele>251.04</ele>
        <time>2021-08-13T16:59:46Z</time>
      </trkpt>
      <trkpt lat="46.42684" lon="3.30842">
        <ele>247.68</ele>
        <time>2021-08-13T16:59:50Z</time>
      </trkpt>
      <trkpt lat="46.42654" lon="3.30892">
        <ele>244.31</ele>
        <time>2021-08-13T16:59:54Z</time>
      </trkpt>
      <trkpt lat="46.42617" lon="3.30953">
        <ele>240.95</ele>
        <time>2021-08-13T16:59:59Z</time>
      </trkpt>
      <trkpt lat="46.42613" lon="3.30961">
        <ele>240.95</ele>
        <time>2021-08-13T17:00:00Z</time>
      </trkpt>
      <trkpt lat="46.42608" lon="3.30969">
        <ele>240.95</ele>
        <time>2021-08-13T17:00:01Z</time>
      </trkpt>
      <trkpt lat="46.42604" lon="3.30972">
        <ele>240.95</ele>
        <time>2021-08-13T17:00:02Z</time>
      </trkpt>
      <trkpt lat="46.42601" lon="3.30972">
        <ele>240.95</ele>
        <time>2021-08-13T17:00:03Z</time>
      </trkpt>
      <trkpt lat="46.42599" lon="3.30968">
        <ele>240.95</ele>
        <time>2021-08-13T17:00:04Z</time>
      </trkpt>
      <trkpt lat="46.42598" lon="3.30963">
        <ele>240.47</ele>
        <time>2021-08-13T17:00:05Z</time>
      </trkpt>
      <trkpt lat="46.42598" lon="3.30957">
        <ele>240.47</ele>
        <time>2021-08-13T17:00:06Z</time>
      </trkpt>
      <trkpt lat="46.42598" lon="3.3091">
        <ele>240.47</ele>
        <time>2021-08-13T17:00:14Z</time>
      </trkpt>
      <trkpt lat="46.42598" lon="3.30892">
        <ele>241.91</ele>
        <time>2021-08-13T17:00:18Z</time>
      </trkpt>
      <trkpt lat="46.42594" lon="3.30864">
        <ele>243.35</ele>
        <time>2021-08-13T17:00:26Z</time>
      </trkpt>
      <trkpt lat="46.42592" lon="3.30863">
        <ele>243.35</ele>
        <time>2021-08-13T17:00:27Z</time>
      </trkpt>
      <trkpt lat="46.4259" lon="3.30862">
        <ele>243.35</ele>
        <time>2021-08-13T17:00:28Z</time>
      </trkpt>
      <trkpt lat="46.42587" lon="3.30862">
        <ele>243.83</ele>
        <time>2021-08-13T17:00:29Z</time>
      </trkpt>
      <trkpt lat="46.42584" lon="3.30863">
        <ele>243.83</ele>
        <time>2021-08-13T17:00:30Z</time>
      </trkpt>
      <trkpt lat="46.42582" lon="3.30865">
        <ele>243.83</ele>
        <time>2021-08-13T17:00:31Z</time>
      </trkpt>
      <trkpt lat="46.42579" lon="3.30867">
        <ele>244.31</ele>
        <time>2021-08-13T17:00:32Z</time>
      </trkpt>
      <trkpt lat="46.4256" lon="3.30881">
        <ele>244.31</ele>
        <time>2021-08-13T17:00:38Z</time>
      </trkpt>
      <trkpt lat="46.4252" lon="3.30906">
        <ele>244.31</ele>
        <time>2021-08-13T17:00:48Z</time>
      </trkpt>
      <trkpt lat="46.42516" lon="3.30907">
        <ele>244.31</ele>
        <time>2021-08-13T17:00:49Z</time>
      </trkpt>
      <trkpt lat="46.42512" lon="3.30909">
        <ele>244.31</ele>
        <time>2021-08-13T17:00:50Z</time>
      </trkpt>
      <trkpt lat="46.42504" lon="3.30913">
        <ele>242.87</ele>
        <time>2021-08-13T17:00:52Z</time>
      </trkpt>
      <trkpt lat="46.425" lon="3.30916">
        <ele>242.87</ele>
        <time>2021-08-13T17:00:53Z</time>
      </trkpt>
      <trkpt lat="46.42496" lon="3.30918">
        <ele>242.87</ele>
        <time>2021-08-13T17:00:54Z</time>
      </trkpt>
      <trkpt lat="46.42491" lon="3.30921">
        <ele>242.39</ele>
        <time>2021-08-13T17:00:55Z</time>
      </trkpt>
      <trkpt lat="46.42462" lon="3.30939">
        <ele>240.47</ele>
        <time>2021-08-13T17:01:01Z</time>
      </trkpt>
      <trkpt lat="46.42438" lon="3.30949">
        <ele>238.54</ele>
        <time>2021-08-13T17:01:05Z</time>
      </trkpt>
      <trkpt lat="46.42425" lon="3.3095">
        <ele>238.54</ele>
        <time>2021-08-13T17:01:07Z</time>
      </trkpt>
      <trkpt lat="46.42419" lon="3.3095">
        <ele>238.06</ele>
        <time>2021-08-13T17:01:08Z</time>
      </trkpt>
      <trkpt lat="46.42402" lon="3.30946">
        <ele>238.54</ele>
        <time>2021-08-13T17:01:11Z</time>
      </trkpt>
      <trkpt lat="46.42396" lon="3.30942">
        <ele>238.54</ele>
        <time>2021-08-13T17:01:12Z</time>
      </trkpt>
      <trkpt lat="46.42391" lon="3.30937">
        <ele>238.54</ele>
        <time>2021-08-13T17:01:13Z</time>
      </trkpt>
      <trkpt lat="46.42365" lon="3.30902">
        <ele>239.51</ele>
        <time>2021-08-13T17:01:20Z</time>
      </trkpt>
      <trkpt lat="46.42362" lon="3.30898">
        <ele>239.51</ele>
        <time>2021-08-13T17:01:21Z</time>
      </trkpt>
      <trkpt lat="46.42343" lon="3.30867">
        <ele>241.43</ele>
        <time>2021-08-13T17:01:29Z</time>
      </trkpt>
      <trkpt lat="46.42329" lon="3.3084">
        <ele>242.87</ele>
        <time>2021-08-13T17:01:37Z</time>
      </trkpt>
      <trkpt lat="46.42321" lon="3.30822">
        <ele>243.83</ele>
        <time>2021-08-13T17:01:44Z</time>
      </trkpt>
      <trkpt lat="46.42313" lon="3.30806">
        <ele>244.31</ele>
        <time>2021-08-13T17:01:49Z</time>
      </trkpt>
      <trkpt lat="46.423" lon="3.30782">
        <ele>244.79</ele>
        <time>2021-08-13T17:01:56Z</time>
      </trkpt>
      <trkpt lat="46.42286" lon="3.30755">
        <ele>245.27</ele>
        <time>2021-08-13T17:02:04Z</time>
      </trkpt>
      <trkpt lat="46.42272" lon="3.30732">
        <ele>245.27</ele>
        <time>2021-08-13T17:02:11Z</time>
      </trkpt>
      <trkpt lat="46.4226" lon="3.30703">
        <ele>245.75</ele>
        <time>2021-08-13T17:02:18Z</time>
      </trkpt>
      <trkpt lat="46.42251" lon="3.30664">
        <ele>246.23</ele>
        <time>2021-08-13T17:02:26Z</time>
      </trkpt>
      <trkpt lat="46.42251" lon="3.30627">
        <ele>246.72</ele>
        <time>2021-08-13T17:02:33Z</time>
      </trkpt>
      <trkpt lat="46.42255" lon="3.30588">
        <ele>246.72</ele>
        <time>2021-08-13T17:02:40Z</time>
      </trkpt>
      <trkpt lat="46.42269" lon="3.30537">
        <ele>246.72</ele>
        <time>2021-08-13T17:02:49Z</time>
      </trkpt>
      <trkpt lat="46.42282" lon="3.30491">
        <ele>247.2</ele>
        <time>2021-08-13T17:02:58Z</time>
      </trkpt>
      <trkpt lat="46.42291" lon="3.30456">
        <ele>247.68</ele>
        <time>2021-08-13T17:03:05Z</time>
      </trkpt>
      <trkpt lat="46.42302" lon="3.30416">
        <ele>248.16</ele>
        <time>2021-08-13T17:03:13Z</time>
      </trkpt>
      <trkpt lat="46.42314" lon="3.30376">
        <ele>248.64</ele>
        <time>2021-08-13T17:03:21Z</time>
      </trkpt>
      <trkpt lat="46.42326" lon="3.30337">
        <ele>248.64</ele>
        <time>2021-08-13T17:03:28Z</time>
      </trkpt>
      <trkpt lat="46.42341" lon="3.30292">
        <ele>248.64</ele>
        <time>2021-08-13T17:03:37Z</time>
      </trkpt>
      <trkpt lat="46.42357" lon="3.3024">
        <ele>248.64</ele>
        <time>2021-08-13T17:03:46Z</time>
      </trkpt>
      <trkpt lat="46.4237" lon="3.30189">
        <ele>248.64</ele>
        <time>2021-08-13T17:03:54Z</time>
      </trkpt>
      <trkpt lat="46.42379" lon="3.30156">
        <ele>247.68</ele>
        <time>2021-08-13T17:03:59Z</time>
      </trkpt>
      <trkpt lat="46.42398" lon="3.30089">
        <ele>246.72</ele>
        <time>2021-08-13T17:04:09Z</time>
      </trkpt>
      <trkpt lat="46.42416" lon="3.30041">
        <ele>244.79</ele>
        <time>2021-08-13T17:04:16Z</time>
      </trkpt>
      <trkpt lat="46.42434" lon="3.29987">
        <ele>243.35</ele>
        <time>2021-08-13T17:04:23Z</time>
      </trkpt>
      <trkpt lat="46.42454" lon="3.29907">
        <ele>242.39</ele>
        <time>2021-08-13T17:04:33Z</time>
      </trkpt>
      <trkpt lat="46.4247" lon="3.29793">
        <ele>240.47</ele>
        <time>2021-08-13T17:04:47Z</time>
      </trkpt>
      <trkpt lat="46.42487" lon="3.29716">
        <ele>239.99</ele>
        <time>2021-08-13T17:04:57Z</time>
      </trkpt>
      <trkpt lat="46.425" lon="3.29657">
        <ele>239.99</ele>
        <time>2021-08-13T17:05:05Z</time>
      </trkpt>
      <trkpt lat="46.42512" lon="3.29596">
        <ele>239.99</ele>
        <time>2021-08-13T17:05:14Z</time>
      </trkpt>
      <trkpt lat="46.42513" lon="3.29559">
        <ele>239.99</ele>
        <time>2021-08-13T17:05:19Z</time>
      </trkpt>
      <trkpt lat="46.42507" lon="3.29484">
        <ele>239.99</ele>
        <time>2021-08-13T17:05:29Z</time>
      </trkpt>
      <trkpt lat="46.42503" lon="3.29422">
        <ele>241.43</ele>
        <time>2021-08-13T17:05:38Z</time>
      </trkpt>
      <trkpt lat="46.42501" lon="3.29387">
        <ele>241.43</ele>
        <time>2021-08-13T17:05:43Z</time>
      </trkpt>
      <trkpt lat="46.42498" lon="3.29369">
        <ele>241.43</ele>
        <time>2021-08-13T17:05:45Z</time>
      </trkpt>
      <trkpt lat="46.42498" lon="3.29363">
        <ele>241.43</ele>
        <time>2021-08-13T17:05:46Z</time>
      </trkpt>
      <trkpt lat="46.42497" lon="3.29358">
        <ele>241.43</ele>
        <time>2021-08-13T17:05:47Z</time>
      </trkpt>
      <trkpt lat="46.42495" lon="3.29356">
        <ele>241.43</ele>
        <time>2021-08-13T17:05:48Z</time>
      </trkpt>
      <trkpt lat="46.4249" lon="3.29356">
        <ele>240.95</ele>
        <time>2021-08-13T17:05:49Z</time>
      </trkpt>
      <trkpt lat="46.42485" lon="3.29356">
        <ele>240.95</ele>
        <time>2021-08-13T17:05:50Z</time>
      </trkpt>
      <trkpt lat="46.42482" lon="3.29361">
        <ele>240.95</ele>
        <time>2021-08-13T17:05:51Z</time>
      </trkpt>
      <trkpt lat="46.42481" lon="3.29365">
        <ele>240.95</ele>
        <time>2021-08-13T17:05:52Z</time>
      </trkpt>
      <trkpt lat="46.42479" lon="3.29371">
        <ele>240.95</ele>
        <time>2021-08-13T17:05:53Z</time>
      </trkpt>
      <trkpt lat="46.42477" lon="3.29377">
        <ele>240.95</ele>
        <time>2021-08-13T17:05:54Z</time>
      </trkpt>
      <trkpt lat="46.42465" lon="3.294">
        <ele>239.51</ele>
        <time>2021-08-13T17:05:58Z</time>
      </trkpt>
      <trkpt lat="46.42461" lon="3.29405">
        <ele>239.51</ele>
        <time>2021-08-13T17:05:59Z</time>
      </trkpt>
      <trkpt lat="46.42457" lon="3.29409">
        <ele>239.51</ele>
        <time>2021-08-13T17:06:00Z</time>
      </trkpt>
      <trkpt lat="46.42452" lon="3.29413">
        <ele>239.51</ele>
        <time>2021-08-13T17:06:01Z</time>
      </trkpt>
      <trkpt lat="46.42447" lon="3.29416">
        <ele>239.51</ele>
        <time>2021-08-13T17:06:02Z</time>
      </trkpt>
      <trkpt lat="46.42442" lon="3.29419">
        <ele>239.02</ele>
        <time>2021-08-13T17:06:03Z</time>
      </trkpt>
      <trkpt lat="46.42382" lon="3.29447">
        <ele>238.54</ele>
        <time>2021-08-13T17:06:14Z</time>
      </trkpt>
      <trkpt lat="46.42346" lon="3.29463">
        <ele>238.54</ele>
        <time>2021-08-13T17:06:21Z</time>
      </trkpt>
      <trkpt lat="46.42328" lon="3.29472">
        <ele>238.54</ele>
        <time>2021-08-13T17:06:25Z</time>
      </trkpt>
      <trkpt lat="46.4232" lon="3.29477">
        <ele>239.99</ele>
        <time>2021-08-13T17:06:27Z</time>
      </trkpt>
      <trkpt lat="46.42294" lon="3.29496">
        <ele>241.43</ele>
        <time>2021-08-13T17:06:35Z</time>
      </trkpt>
      <trkpt lat="46.42269" lon="3.29522">
        <ele>242.87</ele>
        <time>2021-08-13T17:06:45Z</time>
      </trkpt>
      <trkpt lat="46.42252" lon="3.29545">
        <ele>244.31</ele>
        <time>2021-08-13T17:06:53Z</time>
      </trkpt>
      <trkpt lat="46.42235" lon="3.29568">
        <ele>244.79</ele>
        <time>2021-08-13T17:07:01Z</time>
      </trkpt>
      <trkpt lat="46.42217" lon="3.29594">
        <ele>245.75</ele>
        <time>2021-08-13T17:07:10Z</time>
      </trkpt>
      <trkpt lat="46.422" lon="3.29616">
        <ele>246.72</ele>
        <time>2021-08-13T17:07:18Z</time>
      </trkpt>
      <trkpt lat="46.4218" lon="3.29644">
        <ele>248.16</ele>
        <time>2021-08-13T17:07:28Z</time>
      </trkpt>
      <trkpt lat="46.42165" lon="3.29665">
        <ele>248.64</ele>
        <time>2021-08-13T17:07:36Z</time>
      </trkpt>
      <trkpt lat="46.42149" lon="3.29688">
        <ele>250.08</ele>
        <time>2021-08-13T17:07:45Z</time>
      </trkpt>
      <trkpt lat="46.42132" lon="3.29711">
        <ele>250.56</ele>
        <time>2021-08-13T17:07:54Z</time>
      </trkpt>
      <trkpt lat="46.42112" lon="3.29739">
        <ele>251.52</ele>
        <time>2021-08-13T17:08:04Z</time>
      </trkpt>
      <trkpt lat="46.42093" lon="3.29765">
        <ele>252.48</ele>
        <time>2021-08-13T17:08:13Z</time>
      </trkpt>
      <trkpt lat="46.42081" lon="3.29781">
        <ele>252.96</ele>
        <time>2021-08-13T17:08:19Z</time>
      </trkpt>
      <trkpt lat="46.42063" lon="3.29806">
        <ele>253.93</ele>
        <time>2021-08-13T17:08:28Z</time>
      </trkpt>
      <trkpt lat="46.42045" lon="3.29827">
        <ele>254.89</ele>
        <time>2021-08-13T17:08:37Z</time>
      </trkpt>
      <trkpt lat="46.42021" lon="3.29851">
        <ele>256.33</ele>
        <time>2021-08-13T17:08:48Z</time>
      </trkpt>
      <trkpt lat="46.42001" lon="3.29869">
        <ele>257.77</ele>
        <time>2021-08-13T17:08:58Z</time>
      </trkpt>
      <trkpt lat="46.41982" lon="3.29887">
        <ele>259.21</ele>
        <time>2021-08-13T17:09:07Z</time>
      </trkpt>
      <trkpt lat="46.41964" lon="3.29904">
        <ele>260.65</ele>
        <time>2021-08-13T17:09:16Z</time>
      </trkpt>
      <trkpt lat="46.41946" lon="3.29921">
        <ele>261.14</ele>
        <time>2021-08-13T17:09:24Z</time>
      </trkpt>
      <trkpt lat="46.41927" lon="3.29939">
        <ele>261.62</ele>
        <time>2021-08-13T17:09:31Z</time>
      </trkpt>
      <trkpt lat="46.41908" lon="3.29957">
        <ele>261.62</ele>
        <time>2021-08-13T17:09:37Z</time>
      </trkpt>
      <trkpt lat="46.41904" lon="3.29961">
        <ele>260.17</ele>
        <time>2021-08-13T17:09:38Z</time>
      </trkpt>
      <trkpt lat="46.41874" lon="3.29989">
        <ele>257.77</ele>
        <time>2021-08-13T17:09:44Z</time>
      </trkpt>
      <trkpt lat="46.41842" lon="3.30015">
        <ele>254.89</ele>
        <time>2021-08-13T17:09:49Z</time>
      </trkpt>
      <trkpt lat="46.41817" lon="3.30024">
        <ele>253.44</ele>
        <time>2021-08-13T17:09:52Z</time>
      </trkpt>
      <trkpt lat="46.41811" lon="3.30025">
        <ele>252.96</ele>
        <time>2021-08-13T17:09:53Z</time>
      </trkpt>
      <trkpt lat="46.41785" lon="3.30026">
        <ele>254.41</ele>
        <time>2021-08-13T17:09:57Z</time>
      </trkpt>
      <trkpt lat="46.41765" lon="3.30024">
        <ele>256.33</ele>
        <time>2021-08-13T17:10:01Z</time>
      </trkpt>
      <trkpt lat="46.41745" lon="3.30024">
        <ele>257.77</ele>
        <time>2021-08-13T17:10:08Z</time>
      </trkpt>
      <trkpt lat="46.41721" lon="3.30024">
        <ele>259.69</ele>
        <time>2021-08-13T17:10:17Z</time>
      </trkpt>
      <trkpt lat="46.41701" lon="3.30026">
        <ele>261.14</ele>
        <time>2021-08-13T17:10:26Z</time>
      </trkpt>
      <trkpt lat="46.41683" lon="3.30025">
        <ele>262.1</ele>
        <time>2021-08-13T17:10:34Z</time>
      </trkpt>
      <trkpt lat="46.41662" lon="3.30025">
        <ele>263.54</ele>
        <time>2021-08-13T17:10:43Z</time>
      </trkpt>
      <trkpt lat="46.41659" lon="3.30025">
        <ele>263.54</ele>
        <time>2021-08-13T17:10:44Z</time>
      </trkpt>
      <trkpt lat="46.41657" lon="3.30026">
        <ele>263.54</ele>
        <time>2021-08-13T17:10:45Z</time>
      </trkpt>
      <trkpt lat="46.41655" lon="3.30027">
        <ele>264.02</ele>
        <time>2021-08-13T17:10:46Z</time>
      </trkpt>
      <trkpt lat="46.41653" lon="3.30027">
        <ele>264.02</ele>
        <time>2021-08-13T17:10:47Z</time>
      </trkpt>
      <trkpt lat="46.4165" lon="3.30027">
        <ele>264.02</ele>
        <time>2021-08-13T17:10:48Z</time>
      </trkpt>
      <trkpt lat="46.41648" lon="3.30028">
        <ele>264.5</ele>
        <time>2021-08-13T17:10:49Z</time>
      </trkpt>
      <trkpt lat="46.41627" lon="3.30032">
        <ele>265.46</ele>
        <time>2021-08-13T17:10:59Z</time>
      </trkpt>
      <trkpt lat="46.416" lon="3.30039">
        <ele>267.38</ele>
        <time>2021-08-13T17:11:12Z</time>
      </trkpt>
      <trkpt lat="46.41575" lon="3.30048">
        <ele>268.83</ele>
        <time>2021-08-13T17:11:24Z</time>
      </trkpt>
      <trkpt lat="46.41551" lon="3.30065">
        <ele>270.75</ele>
        <time>2021-08-13T17:11:36Z</time>
      </trkpt>
      <trkpt lat="46.41547" lon="3.30084">
        <ele>270.75</ele>
        <time>2021-08-13T17:11:42Z</time>
      </trkpt>
      <trkpt lat="46.4155" lon="3.30121">
        <ele>271.23</ele>
        <time>2021-08-13T17:11:50Z</time>
      </trkpt>
      <trkpt lat="46.4155" lon="3.30155">
        <ele>271.71</ele>
        <time>2021-08-13T17:11:57Z</time>
      </trkpt>
      <trkpt lat="46.41549" lon="3.30198">
        <ele>272.19</ele>
        <time>2021-08-13T17:12:05Z</time>
      </trkpt>
      <trkpt lat="46.41545" lon="3.30233">
        <ele>272.67</ele>
        <time>2021-08-13T17:12:12Z</time>
      </trkpt>
      <trkpt lat="46.41542" lon="3.30281">
        <ele>274.11</ele>
        <time>2021-08-13T17:12:21Z</time>
      </trkpt>
      <trkpt lat="46.41543" lon="3.30332">
        <ele>275.07</ele>
        <time>2021-08-13T17:12:30Z</time>
      </trkpt>
      <trkpt lat="46.41544" lon="3.30388">
        <ele>275.56</ele>
        <time>2021-08-13T17:12:40Z</time>
      </trkpt>
      <trkpt lat="46.41544" lon="3.30441">
        <ele>275.56</ele>
        <time>2021-08-13T17:12:49Z</time>
      </trkpt>
      <trkpt lat="46.41543" lon="3.3051">
        <ele>276.04</ele>
        <time>2021-08-13T17:13:01Z</time>
      </trkpt>
      <trkpt lat="46.41535" lon="3.30561">
        <ele>277</ele>
        <time>2021-08-13T17:13:11Z</time>
      </trkpt>
      <trkpt lat="46.41523" lon="3.3061">
        <ele>277</ele>
        <time>2021-08-13T17:13:20Z</time>
      </trkpt>
      <trkpt lat="46.41521" lon="3.30623">
        <ele>277</ele>
        <time>2021-08-13T17:13:22Z</time>
      </trkpt>
      <trkpt lat="46.4152" lon="3.30629">
        <ele>277</ele>
        <time>2021-08-13T17:13:23Z</time>
      </trkpt>
      <trkpt lat="46.41518" lon="3.30636">
        <ele>277</ele>
        <time>2021-08-13T17:13:24Z</time>
      </trkpt>
      <trkpt lat="46.41517" lon="3.30643">
        <ele>277</ele>
        <time>2021-08-13T17:13:25Z</time>
      </trkpt>
      <trkpt lat="46.41516" lon="3.30649">
        <ele>277</ele>
        <time>2021-08-13T17:13:26Z</time>
      </trkpt>
      <trkpt lat="46.41508" lon="3.30692">
        <ele>277</ele>
        <time>2021-08-13T17:13:33Z</time>
      </trkpt>
      <trkpt lat="46.415" lon="3.30761">
        <ele>277</ele>
        <time>2021-08-13T17:13:44Z</time>
      </trkpt>
      <trkpt lat="46.415" lon="3.30815">
        <ele>277</ele>
        <time>2021-08-13T17:13:52Z</time>
      </trkpt>
      <trkpt lat="46.415" lon="3.30839">
        <ele>275.56</ele>
        <time>2021-08-13T17:13:57Z</time>
      </trkpt>
      <trkpt lat="46.41499" lon="3.30856">
        <ele>275.07</ele>
        <time>2021-08-13T17:14:00Z</time>
      </trkpt>
      <trkpt lat="46.41498" lon="3.30868">
        <ele>275.07</ele>
        <time>2021-08-13T17:14:04Z</time>
      </trkpt>
      <trkpt lat="46.41499" lon="3.30857">
        <ele>275.07</ele>
        <time>2021-08-13T17:14:08Z</time>
      </trkpt>
      <trkpt lat="46.41501" lon="3.30839">
        <ele>275.07</ele>
        <time>2021-08-13T17:14:12Z</time>
      </trkpt>
      <trkpt lat="46.41499" lon="3.30809">
        <ele>275.07</ele>
        <time>2021-08-13T17:14:20Z</time>
      </trkpt>
      <trkpt lat="46.41498" lon="3.30808">
        <ele>275.07</ele>
        <time>2021-08-13T17:14:21Z</time>
      </trkpt>
      <trkpt lat="46.41496" lon="3.30808">
        <ele>275.56</ele>
        <time>2021-08-13T17:14:22Z</time>
      </trkpt>
      <trkpt lat="46.41495" lon="3.3081">
        <ele>275.07</ele>
        <time>2021-08-13T17:14:23Z</time>
      </trkpt>
      <trkpt lat="46.41494" lon="3.30813">
        <ele>275.07</ele>
        <time>2021-08-13T17:14:24Z</time>
      </trkpt>
      <trkpt lat="46.41493" lon="3.30816">
        <ele>275.07</ele>
        <time>2021-08-13T17:14:25Z</time>
      </trkpt>
      <trkpt lat="46.41492" lon="3.30819">
        <ele>274.59</ele>
        <time>2021-08-13T17:14:26Z</time>
      </trkpt>
      <trkpt lat="46.4149" lon="3.30822">
        <ele>273.63</ele>
        <time>2021-08-13T17:14:27Z</time>
      </trkpt>
      <trkpt lat="46.41488" lon="3.30826">
        <ele>272.67</ele>
        <time>2021-08-13T17:14:28Z</time>
      </trkpt>
      <trkpt lat="46.41485" lon="3.30831">
        <ele>271.71</ele>
        <time>2021-08-13T17:14:29Z</time>
      </trkpt>
      <trkpt lat="46.41479" lon="3.30839">
        <ele>270.27</ele>
        <time>2021-08-13T17:14:31Z</time>
      </trkpt>
      <trkpt lat="46.41475" lon="3.30844">
        <ele>269.79</ele>
        <time>2021-08-13T17:14:32Z</time>
      </trkpt>
      <trkpt lat="46.4147" lon="3.30847">
        <ele>268.83</ele>
        <time>2021-08-13T17:14:33Z</time>
      </trkpt>
      <trkpt lat="46.41465" lon="3.30851">
        <ele>268.35</ele>
        <time>2021-08-13T17:14:34Z</time>
      </trkpt>
      <trkpt lat="46.41461" lon="3.30853">
        <ele>267.38</ele>
        <time>2021-08-13T17:14:35Z</time>
      </trkpt>
      <trkpt lat="46.41434" lon="3.30863">
        <ele>264.02</ele>
        <time>2021-08-13T17:14:39Z</time>
      </trkpt>
      <trkpt lat="46.41399" lon="3.30875">
        <ele>261.14</ele>
        <time>2021-08-13T17:14:45Z</time>
      </trkpt>
      <trkpt lat="46.41382" lon="3.3088">
        <ele>258.73</ele>
        <time>2021-08-13T17:14:48Z</time>
      </trkpt>
      <trkpt lat="46.41377" lon="3.30879">
        <ele>258.73</ele>
        <time>2021-08-13T17:14:49Z</time>
      </trkpt>
      <trkpt lat="46.41373" lon="3.30877">
        <ele>257.29</ele>
        <time>2021-08-13T17:14:50Z</time>
      </trkpt>
      <trkpt lat="46.41369" lon="3.30875">
        <ele>256.81</ele>
        <time>2021-08-13T17:14:51Z</time>
      </trkpt>
      <trkpt lat="46.41364" lon="3.30873">
        <ele>255.85</ele>
        <time>2021-08-13T17:14:52Z</time>
      </trkpt>
      <trkpt lat="46.4136" lon="3.30872">
        <ele>254.89</ele>
        <time>2021-08-13T17:14:53Z</time>
      </trkpt>
      <trkpt lat="46.41355" lon="3.30871">
        <ele>253.93</ele>
        <time>2021-08-13T17:14:54Z</time>
      </trkpt>
      <trkpt lat="46.4135" lon="3.3087">
        <ele>253.44</ele>
        <time>2021-08-13T17:14:55Z</time>
      </trkpt>
      <trkpt lat="46.41329" lon="3.30863">
        <ele>250.08</ele>
        <time>2021-08-13T17:14:59Z</time>
      </trkpt>
      <trkpt lat="46.41307" lon="3.30854">
        <ele>247.2</ele>
        <time>2021-08-13T17:15:03Z</time>
      </trkpt>
      <trkpt lat="46.41296" lon="3.30849">
        <ele>245.75</ele>
        <time>2021-08-13T17:15:05Z</time>
      </trkpt>
      <trkpt lat="46.41291" lon="3.30844">
        <ele>245.27</ele>
        <time>2021-08-13T17:15:06Z</time>
      </trkpt>
      <trkpt lat="46.41287" lon="3.30838">
        <ele>244.79</ele>
        <time>2021-08-13T17:15:07Z</time>
      </trkpt>
      <trkpt lat="46.41284" lon="3.3083">
        <ele>244.79</ele>
        <time>2021-08-13T17:15:08Z</time>
      </trkpt>
      <trkpt lat="46.41281" lon="3.30822">
        <ele>244.79</ele>
        <time>2021-08-13T17:15:09Z</time>
      </trkpt>
      <trkpt lat="46.41278" lon="3.30815">
        <ele>244.31</ele>
        <time>2021-08-13T17:15:10Z</time>
      </trkpt>
      <trkpt lat="46.41275" lon="3.30809">
        <ele>244.31</ele>
        <time>2021-08-13T17:15:11Z</time>
      </trkpt>
      <trkpt lat="46.41272" lon="3.30805">
        <ele>244.31</ele>
        <time>2021-08-13T17:15:12Z</time>
      </trkpt>
      <trkpt lat="46.41268" lon="3.30803">
        <ele>243.83</ele>
        <time>2021-08-13T17:15:13Z</time>
      </trkpt>
      <trkpt lat="46.41266" lon="3.30803">
        <ele>243.83</ele>
        <time>2021-08-13T17:15:14Z</time>
      </trkpt>
      <trkpt lat="46.41262" lon="3.30806">
        <ele>242.87</ele>
        <time>2021-08-13T17:15:15Z</time>
      </trkpt>
      <trkpt lat="46.4126" lon="3.3081">
        <ele>242.87</ele>
        <time>2021-08-13T17:15:16Z</time>
      </trkpt>
      <trkpt lat="46.41259" lon="3.30815">
        <ele>242.39</ele>
        <time>2021-08-13T17:15:17Z</time>
      </trkpt>
      <trkpt lat="46.41255" lon="3.30834">
        <ele>241.91</ele>
        <time>2021-08-13T17:15:20Z</time>
      </trkpt>
      <trkpt lat="46.41253" lon="3.30847">
        <ele>241.91</ele>
        <time>2021-08-13T17:15:22Z</time>
      </trkpt>
      <trkpt lat="46.41238" lon="3.3091">
        <ele>239.99</ele>
        <time>2021-08-13T17:15:30Z</time>
      </trkpt>
      <trkpt lat="46.41221" lon="3.30986">
        <ele>239.02</ele>
        <time>2021-08-13T17:15:39Z</time>
      </trkpt>
      <trkpt lat="46.41204" lon="3.31065">
        <ele>237.58</ele>
        <time>2021-08-13T17:15:48Z</time>
      </trkpt>
      <trkpt lat="46.41191" lon="3.31111">
        <ele>236.62</ele>
        <time>2021-08-13T17:15:54Z</time>
      </trkpt>
      <trkpt lat="46.41187" lon="3.31115">
        <ele>236.62</ele>
        <time>2021-08-13T17:15:55Z</time>
      </trkpt>
      <trkpt lat="46.41181" lon="3.31117">
        <ele>236.14</ele>
        <time>2021-08-13T17:15:56Z</time>
      </trkpt>
      <trkpt lat="46.41133" lon="3.31129">
        <ele>233.74</ele>
        <time>2021-08-13T17:16:04Z</time>
      </trkpt>
      <trkpt lat="46.41067" lon="3.31138">
        <ele>231.33</ele>
        <time>2021-08-13T17:16:13Z</time>
      </trkpt>
      <trkpt lat="46.41027" lon="3.31144">
        <ele>231.33</ele>
        <time>2021-08-13T17:16:19Z</time>
      </trkpt>
      <trkpt lat="46.41016" lon="3.31148">
        <ele>231.33</ele>
        <time>2021-08-13T17:16:21Z</time>
      </trkpt>
      <trkpt lat="46.41012" lon="3.31151">
        <ele>231.33</ele>
        <time>2021-08-13T17:16:22Z</time>
      </trkpt>
      <trkpt lat="46.41008" lon="3.31157">
        <ele>231.33</ele>
        <time>2021-08-13T17:16:23Z</time>
      </trkpt>
      <trkpt lat="46.41006" lon="3.31162">
        <ele>231.33</ele>
        <time>2021-08-13T17:16:24Z</time>
      </trkpt>
      <trkpt lat="46.41004" lon="3.31169">
        <ele>231.33</ele>
        <time>2021-08-13T17:16:25Z</time>
      </trkpt>
      <trkpt lat="46.40998" lon="3.31181">
        <ele>231.33</ele>
        <time>2021-08-13T17:16:27Z</time>
      </trkpt>
      <trkpt lat="46.40995" lon="3.31185">
        <ele>231.33</ele>
        <time>2021-08-13T17:16:28Z</time>
      </trkpt>
      <trkpt lat="46.4099" lon="3.31188">
        <ele>230.85</ele>
        <time>2021-08-13T17:16:29Z</time>
      </trkpt>
      <trkpt lat="46.40987" lon="3.31189">
        <ele>231.33</ele>
        <time>2021-08-13T17:16:30Z</time>
      </trkpt>
      <trkpt lat="46.40983" lon="3.3119">
        <ele>231.33</ele>
        <time>2021-08-13T17:16:31Z</time>
      </trkpt>
      <trkpt lat="46.40979" lon="3.31188">
        <ele>231.33</ele>
        <time>2021-08-13T17:16:32Z</time>
      </trkpt>
      <trkpt lat="46.40976" lon="3.31185">
        <ele>232.3</ele>
        <time>2021-08-13T17:16:33Z</time>
      </trkpt>
      <trkpt lat="46.40973" lon="3.31181">
        <ele>232.3</ele>
        <time>2021-08-13T17:16:34Z</time>
      </trkpt>
      <trkpt lat="46.40958" lon="3.31177">
        <ele>232.3</ele>
        <time>2021-08-13T17:16:38Z</time>
      </trkpt>
      <trkpt lat="46.40954" lon="3.31175">
        <ele>232.3</ele>
        <time>2021-08-13T17:16:39Z</time>
      </trkpt>
      <trkpt lat="46.4095" lon="3.31172">
        <ele>232.3</ele>
        <time>2021-08-13T17:16:40Z</time>
      </trkpt>
      <trkpt lat="46.40942" lon="3.31165">
        <ele>232.3</ele>
        <time>2021-08-13T17:16:42Z</time>
      </trkpt>
      <trkpt lat="46.40939" lon="3.31162">
        <ele>232.3</ele>
        <time>2021-08-13T17:16:43Z</time>
      </trkpt>
      <trkpt lat="46.40934" lon="3.3116">
        <ele>232.3</ele>
        <time>2021-08-13T17:16:44Z</time>
      </trkpt>
      <trkpt lat="46.4093" lon="3.31158">
        <ele>232.3</ele>
        <time>2021-08-13T17:16:45Z</time>
      </trkpt>
      <trkpt lat="46.40925" lon="3.31157">
        <ele>232.3</ele>
        <time>2021-08-13T17:16:46Z</time>
      </trkpt>
      <trkpt lat="46.40921" lon="3.31156">
        <ele>232.3</ele>
        <time>2021-08-13T17:16:47Z</time>
      </trkpt>
      <trkpt lat="46.40912" lon="3.31155">
        <ele>232.78</ele>
        <time>2021-08-13T17:16:49Z</time>
      </trkpt>
      <trkpt lat="46.40884" lon="3.31149">
        <ele>234.22</ele>
        <time>2021-08-13T17:16:57Z</time>
      </trkpt>
      <trkpt lat="46.40857" lon="3.31137">
        <ele>235.66</ele>
        <time>2021-08-13T17:17:07Z</time>
      </trkpt>
      <trkpt lat="46.40831" lon="3.31118">
        <ele>237.58</ele>
        <time>2021-08-13T17:17:17Z</time>
      </trkpt>
      <trkpt lat="46.40808" lon="3.31097">
        <ele>239.02</ele>
        <time>2021-08-13T17:17:27Z</time>
      </trkpt>
      <trkpt lat="46.40788" lon="3.31078">
        <ele>240.47</ele>
        <time>2021-08-13T17:17:36Z</time>
      </trkpt>
      <trkpt lat="46.40767" lon="3.31062">
        <ele>241.91</ele>
        <time>2021-08-13T17:17:45Z</time>
      </trkpt>
      <trkpt lat="46.40745" lon="3.31049">
        <ele>242.87</ele>
        <time>2021-08-13T17:17:54Z</time>
      </trkpt>
      <trkpt lat="46.40731" lon="3.3104">
        <ele>243.35</ele>
        <time>2021-08-13T17:18:00Z</time>
      </trkpt>
      <trkpt lat="46.40699" lon="3.31022">
        <ele>244.31</ele>
        <time>2021-08-13T17:18:11Z</time>
      </trkpt>
      <trkpt lat="46.40668" lon="3.31">
        <ele>244.31</ele>
        <time>2021-08-13T17:18:20Z</time>
      </trkpt>
      <trkpt lat="46.40649" lon="3.30981">
        <ele>244.31</ele>
        <time>2021-08-13T17:18:25Z</time>
      </trkpt>
      <trkpt lat="46.40645" lon="3.30979">
        <ele>244.31</ele>
        <time>2021-08-13T17:18:26Z</time>
      </trkpt>
      <trkpt lat="46.40641" lon="3.30979">
        <ele>244.31</ele>
        <time>2021-08-13T17:18:27Z</time>
      </trkpt>
      <trkpt lat="46.40637" lon="3.30981">
        <ele>244.79</ele>
        <time>2021-08-13T17:18:28Z</time>
      </trkpt>
      <trkpt lat="46.40634" lon="3.30983">
        <ele>244.79</ele>
        <time>2021-08-13T17:18:29Z</time>
      </trkpt>
      <trkpt lat="46.40632" lon="3.30985">
        <ele>245.27</ele>
        <time>2021-08-13T17:18:30Z</time>
      </trkpt>
      <trkpt lat="46.4063" lon="3.30988">
        <ele>245.75</ele>
        <time>2021-08-13T17:18:31Z</time>
      </trkpt>
      <trkpt lat="46.40628" lon="3.30991">
        <ele>245.75</ele>
        <time>2021-08-13T17:18:32Z</time>
      </trkpt>
      <trkpt lat="46.40627" lon="3.30994">
        <ele>246.23</ele>
        <time>2021-08-13T17:18:33Z</time>
      </trkpt>
      <trkpt lat="46.40619" lon="3.31016">
        <ele>248.64</ele>
        <time>2021-08-13T17:18:41Z</time>
      </trkpt>
      <trkpt lat="46.4061" lon="3.31035">
        <ele>249.6</ele>
        <time>2021-08-13T17:18:49Z</time>
      </trkpt>
      <trkpt lat="46.40608" lon="3.31041">
        <ele>249.6</ele>
        <time>2021-08-13T17:18:55Z</time>
      </trkpt>
      <trkpt lat="46.40608" lon="3.31039">
        <ele>249.6</ele>
        <time>2021-08-13T17:19:07Z</time>
      </trkpt>
      <trkpt lat="46.40608" lon="3.3104">
        <ele>249.6</ele>
        <time>2021-08-13T17:19:20Z</time>
      </trkpt>
      <trkpt lat="46.4061" lon="3.3104">
        <ele>249.6</ele>
        <time>2021-08-13T17:19:26Z</time>
      </trkpt>
      <trkpt lat="46.40611" lon="3.3104">
        <ele>249.6</ele>
        <time>2021-08-13T17:19:29Z</time>
      </trkpt>
      <trkpt lat="46.40611" lon="3.3104">
        <ele>249.6</ele>
        <time>2021-08-13T17:19:30Z</time>
      </trkpt>
      <trkpt lat="46.40613" lon="3.3104">
        <ele>249.6</ele>
        <time>2021-08-13T17:19:31Z</time>
      </trkpt>
      <trkpt lat="46.40615" lon="3.31042">
        <ele>249.6</ele>
        <time>2021-08-13T17:19:32Z</time>
      </trkpt>
      <trkpt lat="46.40616" lon="3.31044">
        <ele>249.6</ele>
        <time>2021-08-13T17:19:33Z</time>
      </trkpt>
      <trkpt lat="46.40616" lon="3.31047">
        <ele>249.6</ele>
        <time>2021-08-13T17:19:34Z</time>
      </trkpt>
      <trkpt lat="46.40617" lon="3.31051">
        <ele>249.6</ele>
        <time>2021-08-13T17:19:35Z</time>
      </trkpt>
      <trkpt lat="46.40618" lon="3.31054">
        <ele>250.08</ele>
        <time>2021-08-13T17:19:36Z</time>
      </trkpt>
      <trkpt lat="46.40618" lon="3.31058">
        <ele>250.08</ele>
        <time>2021-08-13T17:19:37Z</time>
      </trkpt>
      <trkpt lat="46.40619" lon="3.31062">
        <ele>250.08</ele>
        <time>2021-08-13T17:19:38Z</time>
      </trkpt>
      <trkpt lat="46.4062" lon="3.31066">
        <ele>250.56</ele>
        <time>2021-08-13T17:19:39Z</time>
      </trkpt>
      <trkpt lat="46.4062" lon="3.3107">
        <ele>250.56</ele>
        <time>2021-08-13T17:19:40Z</time>
      </trkpt>
      <trkpt lat="46.40621" lon="3.31073">
        <ele>250.56</ele>
        <time>2021-08-13T17:19:41Z</time>
      </trkpt>
      <trkpt lat="46.40622" lon="3.31105">
        <ele>251.52</ele>
        <time>2021-08-13T17:19:50Z</time>
      </trkpt>
      <trkpt lat="46.40621" lon="3.31108">
        <ele>251.52</ele>
        <time>2021-08-13T17:19:51Z</time>
      </trkpt>
      <trkpt lat="46.4062" lon="3.3111">
        <ele>251.52</ele>
        <time>2021-08-13T17:19:52Z</time>
      </trkpt>
      <trkpt lat="46.40619" lon="3.31112">
        <ele>251.52</ele>
        <time>2021-08-13T17:19:53Z</time>
      </trkpt>
      <trkpt lat="46.40617" lon="3.31112">
        <ele>252</ele>
        <time>2021-08-13T17:19:54Z</time>
      </trkpt>
      <trkpt lat="46.40615" lon="3.31113">
        <ele>252</ele>
        <time>2021-08-13T17:19:55Z</time>
      </trkpt>
      <trkpt lat="46.40614" lon="3.31113">
        <ele>252</ele>
        <time>2021-08-13T17:20:00Z</time>
      </trkpt>
      <trkpt lat="46.40617" lon="3.31114">
        <ele>252</ele>
        <time>2021-08-13T17:20:07Z</time>
      </trkpt>
      <trkpt lat="46.40617" lon="3.31116">
        <ele>252</ele>
        <time>2021-08-13T17:20:09Z</time>
      </trkpt>
      <trkpt lat="46.40622" lon="3.3112">
        <ele>252</ele>
        <time>2021-08-13T17:20:13Z</time>
      </trkpt>
      <trkpt lat="46.40623" lon="3.31121">
        <ele>252</ele>
        <time>2021-08-13T17:20:14Z</time>
      </trkpt>
      <trkpt lat="46.40624" lon="3.31122">
        <ele>252</ele>
        <time>2021-08-13T17:20:15Z</time>
      </trkpt>
      <trkpt lat="46.40625" lon="3.31125">
        <ele>252</ele>
        <time>2021-08-13T17:20:16Z</time>
      </trkpt>
      <trkpt lat="46.40625" lon="3.31128">
        <ele>252.48</ele>
        <time>2021-08-13T17:20:17Z</time>
      </trkpt>
      <trkpt lat="46.40625" lon="3.3113">
        <ele>252.48</ele>
        <time>2021-08-13T17:20:18Z</time>
      </trkpt>
      <trkpt lat="46.40625" lon="3.31132">
        <ele>252.48</ele>
        <time>2021-08-13T17:20:19Z</time>
      </trkpt>
      <trkpt lat="46.40625" lon="3.31134">
        <ele>252.48</ele>
        <time>2021-08-13T17:20:20Z</time>
      </trkpt>
      <trkpt lat="46.40626" lon="3.31136">
        <ele>252.48</ele>
        <time>2021-08-13T17:20:21Z</time>
      </trkpt>
      <trkpt lat="46.40626" lon="3.31139">
        <ele>252.48</ele>
        <time>2021-08-13T17:20:22Z</time>
      </trkpt>
      <trkpt lat="46.40624" lon="3.31162">
        <ele>253.44</ele>
        <time>2021-08-13T17:20:30Z</time>
      </trkpt>
      <trkpt lat="46.40623" lon="3.31167">
        <ele>253.44</ele>
        <time>2021-08-13T17:20:32Z</time>
      </trkpt>
      <trkpt lat="46.40621" lon="3.3117">
        <ele>253.44</ele>
        <time>2021-08-13T17:20:33Z</time>
      </trkpt>
      <trkpt lat="46.40611" lon="3.31172">
        <ele>254.41</ele>
        <time>2021-08-13T17:20:37Z</time>
      </trkpt>
      <trkpt lat="46.40607" lon="3.31173">
        <ele>255.37</ele>
        <time>2021-08-13T17:20:39Z</time>
      </trkpt>
      <trkpt lat="46.40605" lon="3.31182">
        <ele>255.85</ele>
        <time>2021-08-13T17:20:43Z</time>
      </trkpt>
      <trkpt lat="46.406" lon="3.31189">
        <ele>255.85</ele>
        <time>2021-08-13T17:20:48Z</time>
      </trkpt>
      <trkpt lat="46.40597" lon="3.31182">
        <ele>255.85</ele>
        <time>2021-08-13T17:20:54Z</time>
      </trkpt>
      <trkpt lat="46.40603" lon="3.3118">
        <ele>255.85</ele>
        <time>2021-08-13T17:20:58Z</time>
      </trkpt>
      <trkpt lat="46.40615" lon="3.31176">
        <ele>253.93</ele>
        <time>2021-08-13T17:21:04Z</time>
      </trkpt>
      <trkpt lat="46.40618" lon="3.31178">
        <ele>253.93</ele>
        <time>2021-08-13T17:21:05Z</time>
      </trkpt>
      <trkpt lat="46.4062" lon="3.31182">
        <ele>253.93</ele>
        <time>2021-08-13T17:21:06Z</time>
      </trkpt>
      <trkpt lat="46.40621" lon="3.31185">
        <ele>253.93</ele>
        <time>2021-08-13T17:21:07Z</time>
      </trkpt>
      <trkpt lat="46.40621" lon="3.31189">
        <ele>253.93</ele>
        <time>2021-08-13T17:21:08Z</time>
      </trkpt>
      <trkpt lat="46.40621" lon="3.31193">
        <ele>253.93</ele>
        <time>2021-08-13T17:21:09Z</time>
      </trkpt>
      <trkpt lat="46.4062" lon="3.31206">
        <ele>253.93</ele>
        <time>2021-08-13T17:21:12Z</time>
      </trkpt>
      <trkpt lat="46.40618" lon="3.31208">
        <ele>253.93</ele>
        <time>2021-08-13T17:21:13Z</time>
      </trkpt>
      <trkpt lat="46.40615" lon="3.31208">
        <ele>255.37</ele>
        <time>2021-08-13T17:21:14Z</time>
      </trkpt>
      <trkpt lat="46.40612" lon="3.31208">
        <ele>255.37</ele>
        <time>2021-08-13T17:21:15Z</time>
      </trkpt>
      <trkpt lat="46.40609" lon="3.31206">
        <ele>255.37</ele>
        <time>2021-08-13T17:21:16Z</time>
      </trkpt>
      <trkpt lat="46.40606" lon="3.31204">
        <ele>255.37</ele>
        <time>2021-08-13T17:21:17Z</time>
      </trkpt>
      <trkpt lat="46.40603" lon="3.31202">
        <ele>255.85</ele>
        <time>2021-08-13T17:21:18Z</time>
      </trkpt>
      <trkpt lat="46.40596" lon="3.31197">
        <ele>256.33</ele>
        <time>2021-08-13T17:21:23Z</time>
      </trkpt>
      <trkpt lat="46.40596" lon="3.31198">
        <ele>256.33</ele>
        <time>2021-08-13T17:21:31Z</time>
      </trkpt>
      <trkpt lat="46.40594" lon="3.31202">
        <ele>256.33</ele>
        <time>2021-08-13T17:21:52Z</time>
      </trkpt>
      <trkpt lat="46.40591" lon="3.31207">
        <ele>256.33</ele>
        <time>2021-08-13T17:22:17Z</time>
      </trkpt>
      <trkpt lat="46.40589" lon="3.31207">
        <ele>256.33</ele>
        <time>2021-08-13T17:22:20Z</time>
      </trkpt>
      <trkpt lat="46.40587" lon="3.31212">
        <ele>256.81</ele>
        <time>2021-08-13T17:22:28Z</time>
      </trkpt>
      <trkpt lat="46.40589" lon="3.31211">
        <ele>256.81</ele>
        <time>2021-08-13T17:22:51Z</time>
      </trkpt>
      <trkpt lat="46.40588" lon="3.31211">
        <ele>256.81</ele>
        <time>2021-08-13T17:23:08Z</time>
      </trkpt>
      <trkpt lat="46.4059" lon="3.3121">
        <ele>256.81</ele>
        <time>2021-08-13T17:23:27Z</time>
      </trkpt>
      <trkpt lat="46.40591" lon="3.31209">
        <ele>256.81</ele>
        <time>2021-08-13T17:23:51Z</time>
      </trkpt>
      <trkpt lat="46.40591" lon="3.31208">
        <ele>256.81</ele>
        <time>2021-08-13T17:24:16Z</time>
      </trkpt>
      <trkpt lat="46.40588" lon="3.31207">
        <ele>256.81</ele>
        <time>2021-08-13T17:24:35Z</time>
      </trkpt>
      <trkpt lat="46.40588" lon="3.3121">
        <ele>256.81</ele>
        <time>2021-08-13T17:24:52Z</time>
      </trkpt>
      <trkpt lat="46.4059" lon="3.31213">
        <ele>256.81</ele>
        <time>2021-08-13T17:25:14Z</time>
      </trkpt>
      <trkpt lat="46.40588" lon="3.31214">
        <ele>256.81</ele>
        <time>2021-08-13T17:25:27Z</time>
      </trkpt>
      <trkpt lat="46.40586" lon="3.31215">
        <ele>257.29</ele>
        <time>2021-08-13T17:25:40Z</time>
      </trkpt>
      <trkpt lat="46.40586" lon="3.31215">
        <ele>257.29</ele>
        <time>2021-08-13T17:25:47Z</time>
      </trkpt>
      <trkpt lat="46.40586" lon="3.3121">
        <ele>257.29</ele>
        <time>2021-08-13T17:26:12Z</time>
      </trkpt>
      <trkpt lat="46.40586" lon="3.31209">
        <ele>257.29</ele>
        <time>2021-08-13T17:26:32Z</time>
      </trkpt>
      <trkpt lat="46.40585" lon="3.3121">
        <ele>257.29</ele>
        <time>2021-08-13T17:26:52Z</time>
      </trkpt>
      <trkpt lat="46.40585" lon="3.3121">
        <ele>255.85</ele>
        <time>2021-08-13T17:26:54Z</time>
      </trkpt>
      <trkpt lat="46.40585" lon="3.3121">
        <ele>259.21</ele>
        <time>2021-08-13T17:26:56Z</time>
      </trkpt>
      <trkpt lat="46.40584" lon="3.3121">
        <ele>257.29</ele>
        <time>2021-08-13T17:27:11Z</time>
      </trkpt>
      <trkpt lat="46.40583" lon="3.31209">
        <ele>257.29</ele>
        <time>2021-08-13T17:27:40Z</time>
      </trkpt>
      <trkpt lat="46.40585" lon="3.31212">
        <ele>257.29</ele>
        <time>2021-08-13T17:27:54Z</time>
      </trkpt>
      <trkpt lat="46.40586" lon="3.31216">
        <ele>257.29</ele>
        <time>2021-08-13T17:28:12Z</time>
      </trkpt>
      <trkpt lat="46.40587" lon="3.31213">
        <ele>257.77</ele>
        <time>2021-08-13T17:28:28Z</time>
      </trkpt>
      <trkpt lat="46.40587" lon="3.31214">
        <ele>257.77</ele>
        <time>2021-08-13T17:28:42Z</time>
      </trkpt>
      <trkpt lat="46.40586" lon="3.31214">
        <ele>257.77</ele>
        <time>2021-08-13T17:28:59Z</time>
      </trkpt>
      <trkpt lat="46.40586" lon="3.31211">
        <ele>257.77</ele>
        <time>2021-08-13T17:29:20Z</time>
      </trkpt>
      <trkpt lat="46.40584" lon="3.31208">
        <ele>257.77</ele>
        <time>2021-08-13T17:29:38Z</time>
      </trkpt>
      <trkpt lat="46.40583" lon="3.3121">
        <ele>257.77</ele>
        <time>2021-08-13T17:30:00Z</time>
      </trkpt>
      <trkpt lat="46.40586" lon="3.31214">
        <ele>257.77</ele>
        <time>2021-08-13T17:30:13Z</time>
      </trkpt>
      <trkpt lat="46.40589" lon="3.31214">
        <ele>257.77</ele>
        <time>2021-08-13T17:30:25Z</time>
      </trkpt>
      <trkpt lat="46.40589" lon="3.31212">
        <ele>258.25</ele>
        <time>2021-08-13T17:30:38Z</time>
      </trkpt>
      <trkpt lat="46.40588" lon="3.31214">
        <ele>258.25</ele>
        <time>2021-08-13T17:31:00Z</time>
      </trkpt>
      <trkpt lat="46.40588" lon="3.31213">
        <ele>258.25</ele>
        <time>2021-08-13T17:31:09Z</time>
      </trkpt>
      <trkpt lat="46.40586" lon="3.31215">
        <ele>258.25</ele>
        <time>2021-08-13T17:31:25Z</time>
      </trkpt>
      <trkpt lat="46.40585" lon="3.3122">
        <ele>258.25</ele>
        <time>2021-08-13T17:31:32Z</time>
      </trkpt>
      <trkpt lat="46.40585" lon="3.31224">
        <ele>258.25</ele>
        <time>2021-08-13T17:31:41Z</time>
      </trkpt>
      <trkpt lat="46.40585" lon="3.31223">
        <ele>258.25</ele>
        <time>2021-08-13T17:31:58Z</time>
      </trkpt>
      <trkpt lat="46.40586" lon="3.31223">
        <ele>258.25</ele>
        <time>2021-08-13T17:32:00Z</time>
      </trkpt>
      <trkpt lat="46.40602" lon="3.31225">
        <ele>258.25</ele>
        <time>2021-08-13T17:32:07Z</time>
      </trkpt>
      <trkpt lat="46.40609" lon="3.31231">
        <ele>258.25</ele>
        <time>2021-08-13T17:32:11Z</time>
      </trkpt>
      <trkpt lat="46.40609" lon="3.31234">
        <ele>258.25</ele>
        <time>2021-08-13T17:32:12Z</time>
      </trkpt>
      <trkpt lat="46.40611" lon="3.31236">
        <ele>257.77</ele>
        <time>2021-08-13T17:32:13Z</time>
      </trkpt>
      <trkpt lat="46.40613" lon="3.31238">
        <ele>257.77</ele>
        <time>2021-08-13T17:32:14Z</time>
      </trkpt>
      <trkpt lat="46.40615" lon="3.31239">
        <ele>257.77</ele>
        <time>2021-08-13T17:32:15Z</time>
      </trkpt>
      <trkpt lat="46.40618" lon="3.31241">
        <ele>257.77</ele>
        <time>2021-08-13T17:32:16Z</time>
      </trkpt>
      <trkpt lat="46.4062" lon="3.31242">
        <ele>257.29</ele>
        <time>2021-08-13T17:32:17Z</time>
      </trkpt>
      <trkpt lat="46.40622" lon="3.31245">
        <ele>257.29</ele>
        <time>2021-08-13T17:32:18Z</time>
      </trkpt>
      <trkpt lat="46.40622" lon="3.31249">
        <ele>257.29</ele>
        <time>2021-08-13T17:32:19Z</time>
      </trkpt>
      <trkpt lat="46.40622" lon="3.31252">
        <ele>257.29</ele>
        <time>2021-08-13T17:32:20Z</time>
      </trkpt>
      <trkpt lat="46.40622" lon="3.31257">
        <ele>257.29</ele>
        <time>2021-08-13T17:32:21Z</time>
      </trkpt>
      <trkpt lat="46.40622" lon="3.31261">
        <ele>256.81</ele>
        <time>2021-08-13T17:32:22Z</time>
      </trkpt>
      <trkpt lat="46.40613" lon="3.31289">
        <ele>255.85</ele>
        <time>2021-08-13T17:32:28Z</time>
      </trkpt>
      <trkpt lat="46.40606" lon="3.313">
        <ele>255.37</ele>
        <time>2021-08-13T17:32:30Z</time>
      </trkpt>
      <trkpt lat="46.40602" lon="3.31305">
        <ele>254.89</ele>
        <time>2021-08-13T17:32:31Z</time>
      </trkpt>
      <trkpt lat="46.40597" lon="3.31308">
        <ele>254.41</ele>
        <time>2021-08-13T17:32:32Z</time>
      </trkpt>
      <trkpt lat="46.40592" lon="3.31311">
        <ele>254.41</ele>
        <time>2021-08-13T17:32:33Z</time>
      </trkpt>
      <trkpt lat="46.40586" lon="3.31313">
        <ele>254.41</ele>
        <time>2021-08-13T17:32:34Z</time>
      </trkpt>
      <trkpt lat="46.40579" lon="3.31314">
        <ele>253.44</ele>
        <time>2021-08-13T17:32:35Z</time>
      </trkpt>
      <trkpt lat="46.40529" lon="3.31321">
        <ele>251.04</ele>
        <time>2021-08-13T17:32:42Z</time>
      </trkpt>
      <trkpt lat="46.40512" lon="3.31323">
        <ele>250.08</ele>
        <time>2021-08-13T17:32:44Z</time>
      </trkpt>
      <trkpt lat="46.40461" lon="3.31328">
        <ele>247.68</ele>
        <time>2021-08-13T17:32:50Z</time>
      </trkpt>
      <trkpt lat="46.40404" lon="3.31333">
        <ele>244.31</ele>
        <time>2021-08-13T17:32:56Z</time>
      </trkpt>
      <trkpt lat="46.40344" lon="3.31345">
        <ele>240.95</ele>
        <time>2021-08-13T17:33:02Z</time>
      </trkpt>
      <trkpt lat="46.40296" lon="3.31373">
        <ele>238.54</ele>
        <time>2021-08-13T17:33:07Z</time>
      </trkpt>
      <trkpt lat="46.40287" lon="3.31382">
        <ele>238.06</ele>
        <time>2021-08-13T17:33:08Z</time>
      </trkpt>
      <trkpt lat="46.4028" lon="3.31391">
        <ele>238.06</ele>
        <time>2021-08-13T17:33:09Z</time>
      </trkpt>
      <trkpt lat="46.40275" lon="3.31398">
        <ele>238.06</ele>
        <time>2021-08-13T17:33:10Z</time>
      </trkpt>
      <trkpt lat="46.40272" lon="3.31404">
        <ele>238.06</ele>
        <time>2021-08-13T17:33:11Z</time>
      </trkpt>
      <trkpt lat="46.40267" lon="3.31411">
        <ele>238.06</ele>
        <time>2021-08-13T17:33:13Z</time>
      </trkpt>
      <trkpt lat="46.40266" lon="3.31415">
        <ele>238.06</ele>
        <time>2021-08-13T17:33:17Z</time>
      </trkpt>
      <trkpt lat="46.40266" lon="3.31414">
        <ele>238.06</ele>
        <time>2021-08-13T17:33:33Z</time>
      </trkpt>
      <trkpt lat="46.40264" lon="3.31414">
        <ele>238.06</ele>
        <time>2021-08-13T17:33:45Z</time>
      </trkpt>
      <trkpt lat="46.40263" lon="3.31417">
        <ele>238.06</ele>
        <time>2021-08-13T17:34:02Z</time>
      </trkpt>
      <trkpt lat="46.40262" lon="3.3142">
        <ele>238.06</ele>
        <time>2021-08-13T17:34:03Z</time>
      </trkpt>
      <trkpt lat="46.40257" lon="3.31442">
        <ele>237.58</ele>
        <time>2021-08-13T17:34:09Z</time>
      </trkpt>
      <trkpt lat="46.40254" lon="3.31458">
        <ele>236.62</ele>
        <time>2021-08-13T17:34:12Z</time>
      </trkpt>
      <trkpt lat="46.40251" lon="3.31469">
        <ele>236.14</ele>
        <time>2021-08-13T17:34:14Z</time>
      </trkpt>
      <trkpt lat="46.40249" lon="3.31474">
        <ele>236.14</ele>
        <time>2021-08-13T17:34:15Z</time>
      </trkpt>
      <trkpt lat="46.40246" lon="3.31477">
        <ele>236.14</ele>
        <time>2021-08-13T17:34:16Z</time>
      </trkpt>
      <trkpt lat="46.40242" lon="3.31479">
        <ele>236.14</ele>
        <time>2021-08-13T17:34:17Z</time>
      </trkpt>
      <trkpt lat="46.40238" lon="3.31479">
        <ele>235.66</ele>
        <time>2021-08-13T17:34:18Z</time>
      </trkpt>
      <trkpt lat="46.40234" lon="3.31478">
        <ele>235.66</ele>
        <time>2021-08-13T17:34:19Z</time>
      </trkpt>
      <trkpt lat="46.40228" lon="3.31476">
        <ele>234.22</ele>
        <time>2021-08-13T17:34:20Z</time>
      </trkpt>
      <trkpt lat="46.40223" lon="3.31475">
        <ele>233.74</ele>
        <time>2021-08-13T17:34:21Z</time>
      </trkpt>
      <trkpt lat="46.40192" lon="3.31467">
        <ele>230.85</ele>
        <time>2021-08-13T17:34:25Z</time>
      </trkpt>
      <trkpt lat="46.40144" lon="3.31456">
        <ele>230.37</ele>
        <time>2021-08-13T17:34:32Z</time>
      </trkpt>
      <trkpt lat="46.40133" lon="3.31453">
        <ele>231.81</ele>
        <time>2021-08-13T17:34:34Z</time>
      </trkpt>
      <trkpt lat="46.40111" lon="3.31444">
        <ele>232.3</ele>
        <time>2021-08-13T17:34:39Z</time>
      </trkpt>
      <trkpt lat="46.40107" lon="3.31443">
        <ele>232.3</ele>
        <time>2021-08-13T17:34:40Z</time>
      </trkpt>
      <trkpt lat="46.40075" lon="3.31428">
        <ele>233.74</ele>
        <time>2021-08-13T17:34:49Z</time>
      </trkpt>
      <trkpt lat="46.4005" lon="3.31413">
        <ele>233.74</ele>
        <time>2021-08-13T17:34:56Z</time>
      </trkpt>
      <trkpt lat="46.40043" lon="3.31408">
        <ele>234.22</ele>
        <time>2021-08-13T17:35:01Z</time>
      </trkpt>
      <trkpt lat="46.40043" lon="3.31407">
        <ele>234.22</ele>
        <time>2021-08-13T17:35:19Z</time>
      </trkpt>
      <trkpt lat="46.40045" lon="3.31407">
        <ele>234.22</ele>
        <time>2021-08-13T17:35:34Z</time>
      </trkpt>
      <trkpt lat="46.40044" lon="3.31407">
        <ele>234.22</ele>
        <time>2021-08-13T17:35:39Z</time>
      </trkpt>
      <trkpt lat="46.40043" lon="3.31408">
        <ele>234.22</ele>
        <time>2021-08-13T17:35:52Z</time>
      </trkpt>
      <trkpt lat="46.4004" lon="3.31409">
        <ele>234.22</ele>
        <time>2021-08-13T17:36:03Z</time>
      </trkpt>
      <trkpt lat="46.40036" lon="3.31408">
        <ele>234.22</ele>
        <time>2021-08-13T17:36:06Z</time>
      </trkpt>
      <trkpt lat="46.40034" lon="3.31407">
        <ele>234.22</ele>
        <time>2021-08-13T17:36:07Z</time>
      </trkpt>
      <trkpt lat="46.40013" lon="3.31394">
        <ele>234.22</ele>
        <time>2021-08-13T17:36:14Z</time>
      </trkpt>
      <trkpt lat="46.39991" lon="3.3138">
        <ele>234.22</ele>
        <time>2021-08-13T17:36:21Z</time>
      </trkpt>
      <trkpt lat="46.39983" lon="3.31375">
        <ele>234.22</ele>
        <time>2021-08-13T17:36:23Z</time>
      </trkpt>
      <trkpt lat="46.39962" lon="3.31362">
        <ele>234.22</ele>
        <time>2021-08-13T17:36:28Z</time>
      </trkpt>
      <trkpt lat="46.39935" lon="3.31345">
        <ele>234.22</ele>
        <time>2021-08-13T17:36:35Z</time>
      </trkpt>
      <trkpt lat="46.39897" lon="3.31326">
        <ele>232.78</ele>
        <time>2021-08-13T17:36:44Z</time>
      </trkpt>
      <trkpt lat="46.39893" lon="3.31324">
        <ele>232.78</ele>
        <time>2021-08-13T17:36:45Z</time>
      </trkpt>
      <trkpt lat="46.39889" lon="3.31321">
        <ele>232.78</ele>
        <time>2021-08-13T17:36:46Z</time>
      </trkpt>
      <trkpt lat="46.39864" lon="3.31305">
        <ele>232.78</ele>
        <time>2021-08-13T17:36:52Z</time>
      </trkpt>
      <trkpt lat="46.3986" lon="3.31302">
        <ele>232.78</ele>
        <time>2021-08-13T17:36:53Z</time>
      </trkpt>
      <trkpt lat="46.39835" lon="3.31285">
        <ele>232.78</ele>
        <time>2021-08-13T17:37:00Z</time>
      </trkpt>
      <trkpt lat="46.39805" lon="3.31266">
        <ele>232.78</ele>
        <time>2021-08-13T17:37:09Z</time>
      </trkpt>
      <trkpt lat="46.39774" lon="3.31245">
        <ele>232.78</ele>
        <time>2021-08-13T17:37:19Z</time>
      </trkpt>
      <trkpt lat="46.39743" lon="3.31223">
        <ele>232.78</ele>
        <time>2021-08-13T17:37:29Z</time>
      </trkpt>
      <trkpt lat="46.39739" lon="3.31221">
        <ele>232.78</ele>
        <time>2021-08-13T17:37:31Z</time>
      </trkpt>
      <trkpt lat="46.39738" lon="3.31223">
        <ele>232.78</ele>
        <time>2021-08-13T17:37:32Z</time>
      </trkpt>
      <trkpt lat="46.39738" lon="3.31223">
        <ele>232.78</ele>
        <time>2021-08-13T17:37:37Z</time>
      </trkpt>
      <trkpt lat="46.39736" lon="3.31226">
        <ele>232.78</ele>
        <time>2021-08-13T17:37:45Z</time>
      </trkpt>
      <trkpt lat="46.39734" lon="3.31232">
        <ele>230.85</ele>
        <time>2021-08-13T17:37:53Z</time>
      </trkpt>
      <trkpt lat="46.39729" lon="3.31238">
        <ele>230.37</ele>
        <time>2021-08-13T17:38:01Z</time>
      </trkpt>
      <trkpt lat="46.39728" lon="3.31235">
        <ele>230.37</ele>
        <time>2021-08-13T17:38:09Z</time>
      </trkpt>
      <trkpt lat="46.39728" lon="3.31234">
        <ele>230.37</ele>
        <time>2021-08-13T17:38:15Z</time>
      </trkpt>
      <trkpt lat="46.39726" lon="3.31234">
        <ele>230.37</ele>
        <time>2021-08-13T17:38:17Z</time>
      </trkpt>
      <trkpt lat="46.39725" lon="3.31232">
        <ele>230.37</ele>
        <time>2021-08-13T17:38:18Z</time>
      </trkpt>
      <trkpt lat="46.39724" lon="3.31231">
        <ele>230.37</ele>
        <time>2021-08-13T17:38:19Z</time>
      </trkpt>
      <trkpt lat="46.39723" lon="3.3123">
        <ele>230.37</ele>
        <time>2021-08-13T17:38:20Z</time>
      </trkpt>
      <trkpt lat="46.39721" lon="3.31228">
        <ele>230.37</ele>
        <time>2021-08-13T17:38:21Z</time>
      </trkpt>
      <trkpt lat="46.39709" lon="3.31221">
        <ele>230.37</ele>
        <time>2021-08-13T17:38:27Z</time>
      </trkpt>
      <trkpt lat="46.39693" lon="3.31211">
        <ele>230.37</ele>
        <time>2021-08-13T17:38:34Z</time>
      </trkpt>
      <trkpt lat="46.39671" lon="3.31202">
        <ele>230.37</ele>
        <time>2021-08-13T17:38:41Z</time>
      </trkpt>
      <trkpt lat="46.39649" lon="3.31191">
        <ele>230.37</ele>
        <time>2021-08-13T17:38:49Z</time>
      </trkpt>
      <trkpt lat="46.39627" lon="3.31182">
        <ele>230.37</ele>
        <time>2021-08-13T17:38:56Z</time>
      </trkpt>
      <trkpt lat="46.39604" lon="3.31172">
        <ele>229.89</ele>
        <time>2021-08-13T17:39:04Z</time>
      </trkpt>
      <trkpt lat="46.3958" lon="3.31163">
        <ele>229.89</ele>
        <time>2021-08-13T17:39:11Z</time>
      </trkpt>
      <trkpt lat="46.39555" lon="3.31153">
        <ele>229.89</ele>
        <time>2021-08-13T17:39:18Z</time>
      </trkpt>
      <trkpt lat="46.3953" lon="3.31145">
        <ele>229.89</ele>
        <time>2021-08-13T17:39:25Z</time>
      </trkpt>
      <trkpt lat="46.39505" lon="3.31133">
        <ele>229.89</ele>
        <time>2021-08-13T17:39:32Z</time>
      </trkpt>
      <trkpt lat="46.39495" lon="3.31126">
        <ele>231.33</ele>
        <time>2021-08-13T17:39:36Z</time>
      </trkpt>
      <trkpt lat="46.39477" lon="3.3112">
        <ele>231.33</ele>
        <time>2021-08-13T17:39:42Z</time>
      </trkpt>
      <trkpt lat="46.39447" lon="3.31111">
        <ele>231.33</ele>
        <time>2021-08-13T17:39:50Z</time>
      </trkpt>
      <trkpt lat="46.39425" lon="3.31102">
        <ele>231.33</ele>
        <time>2021-08-13T17:39:58Z</time>
      </trkpt>
      <trkpt lat="46.39423" lon="3.31102">
        <ele>231.33</ele>
        <time>2021-08-13T17:40:05Z</time>
      </trkpt>
      <trkpt lat="46.39422" lon="3.31102">
        <ele>231.33</ele>
        <time>2021-08-13T17:40:17Z</time>
      </trkpt>
      <trkpt lat="46.39424" lon="3.31102">
        <ele>231.33</ele>
        <time>2021-08-13T17:40:26Z</time>
      </trkpt>
      <trkpt lat="46.39423" lon="3.31102">
        <ele>231.33</ele>
        <time>2021-08-13T17:40:32Z</time>
      </trkpt>
      <trkpt lat="46.39422" lon="3.31102">
        <ele>229.89</ele>
        <time>2021-08-13T17:40:39Z</time>
      </trkpt>
      <trkpt lat="46.39418" lon="3.31098">
        <ele>229.89</ele>
        <time>2021-08-13T17:40:45Z</time>
      </trkpt>
      <trkpt lat="46.39415" lon="3.31096">
        <ele>229.89</ele>
        <time>2021-08-13T17:40:51Z</time>
      </trkpt>
      <trkpt lat="46.39414" lon="3.31095">
        <ele>229.89</ele>
        <time>2021-08-13T17:40:53Z</time>
      </trkpt>
      <trkpt lat="46.39412" lon="3.31094">
        <ele>229.89</ele>
        <time>2021-08-13T17:40:54Z</time>
      </trkpt>
      <trkpt lat="46.3941" lon="3.31093">
        <ele>229.89</ele>
        <time>2021-08-13T17:40:55Z</time>
      </trkpt>
      <trkpt lat="46.39408" lon="3.31092">
        <ele>229.89</ele>
        <time>2021-08-13T17:40:56Z</time>
      </trkpt>
      <trkpt lat="46.39406" lon="3.31091">
        <ele>229.89</ele>
        <time>2021-08-13T17:40:57Z</time>
      </trkpt>
      <trkpt lat="46.39403" lon="3.3109">
        <ele>229.89</ele>
        <time>2021-08-13T17:40:58Z</time>
      </trkpt>
      <trkpt lat="46.394" lon="3.31089">
        <ele>229.89</ele>
        <time>2021-08-13T17:40:59Z</time>
      </trkpt>
      <trkpt lat="46.39385" lon="3.31082">
        <ele>229.89</ele>
        <time>2021-08-13T17:41:05Z</time>
      </trkpt>
      <trkpt lat="46.39371" lon="3.31077">
        <ele>229.89</ele>
        <time>2021-08-13T17:41:10Z</time>
      </trkpt>
      <trkpt lat="46.39352" lon="3.31068">
        <ele>229.89</ele>
        <time>2021-08-13T17:41:16Z</time>
      </trkpt>
      <trkpt lat="46.3933" lon="3.3106">
        <ele>229.89</ele>
        <time>2021-08-13T17:41:23Z</time>
      </trkpt>
      <trkpt lat="46.39306" lon="3.31049">
        <ele>229.89</ele>
        <time>2021-08-13T17:41:30Z</time>
      </trkpt>
      <trkpt lat="46.39296" lon="3.31044">
        <ele>230.85</ele>
        <time>2021-08-13T17:41:33Z</time>
      </trkpt>
      <trkpt lat="46.39276" lon="3.31038">
        <ele>231.33</ele>
        <time>2021-08-13T17:41:39Z</time>
      </trkpt>
      <trkpt lat="46.39249" lon="3.31032">
        <ele>230.37</ele>
        <time>2021-08-13T17:41:46Z</time>
      </trkpt>
      <trkpt lat="46.39218" lon="3.31022">
        <ele>229.41</ele>
        <time>2021-08-13T17:41:53Z</time>
      </trkpt>
      <trkpt lat="46.39192" lon="3.31012">
        <ele>229.41</ele>
        <time>2021-08-13T17:42:01Z</time>
      </trkpt>
      <trkpt lat="46.39165" lon="3.30998">
        <ele>229.41</ele>
        <time>2021-08-13T17:42:09Z</time>
      </trkpt>
      <trkpt lat="46.39144" lon="3.30985">
        <ele>229.41</ele>
        <time>2021-08-13T17:42:15Z</time>
      </trkpt>
      <trkpt lat="46.39122" lon="3.30967">
        <ele>230.37</ele>
        <time>2021-08-13T17:42:22Z</time>
      </trkpt>
      <trkpt lat="46.39097" lon="3.30955">
        <ele>230.37</ele>
        <time>2021-08-13T17:42:29Z</time>
      </trkpt>
      <trkpt lat="46.39074" lon="3.30938">
        <ele>230.85</ele>
        <time>2021-08-13T17:42:36Z</time>
      </trkpt>
      <trkpt lat="46.3906" lon="3.30925">
        <ele>231.33</ele>
        <time>2021-08-13T17:42:42Z</time>
      </trkpt>
      <trkpt lat="46.39043" lon="3.30914">
        <ele>232.3</ele>
        <time>2021-08-13T17:42:49Z</time>
      </trkpt>
      <trkpt lat="46.39024" lon="3.30901">
        <ele>232.3</ele>
        <time>2021-08-13T17:42:55Z</time>
      </trkpt>
      <trkpt lat="46.39014" lon="3.30889">
        <ele>233.26</ele>
        <time>2021-08-13T17:43:00Z</time>
      </trkpt>
      <trkpt lat="46.39006" lon="3.30883">
        <ele>230.85</ele>
        <time>2021-08-13T17:43:03Z</time>
      </trkpt>
      <trkpt lat="46.38995" lon="3.3088">
        <ele>229.89</ele>
        <time>2021-08-13T17:43:05Z</time>
      </trkpt>
      <trkpt lat="46.38989" lon="3.30877">
        <ele>229.89</ele>
        <time>2021-08-13T17:43:06Z</time>
      </trkpt>
      <trkpt lat="46.38979" lon="3.30872">
        <ele>229.89</ele>
        <time>2021-08-13T17:43:08Z</time>
      </trkpt>
      <trkpt lat="46.38975" lon="3.30873">
        <ele>229.89</ele>
        <time>2021-08-13T17:43:09Z</time>
      </trkpt>
      <trkpt lat="46.38967" lon="3.30882">
        <ele>228.45</ele>
        <time>2021-08-13T17:43:11Z</time>
      </trkpt>
      <trkpt lat="46.38961" lon="3.30885">
        <ele>227.97</ele>
        <time>2021-08-13T17:43:12Z</time>
      </trkpt>
      <trkpt lat="46.38955" lon="3.30886">
        <ele>227.97</ele>
        <time>2021-08-13T17:43:13Z</time>
      </trkpt>
      <trkpt lat="46.38944" lon="3.30887">
        <ele>227.97</ele>
        <time>2021-08-13T17:43:15Z</time>
      </trkpt>
      <trkpt lat="46.38931" lon="3.30889">
        <ele>229.41</ele>
        <time>2021-08-13T17:43:19Z</time>
      </trkpt>
      <trkpt lat="46.38929" lon="3.30889">
        <ele>229.41</ele>
        <time>2021-08-13T17:43:20Z</time>
      </trkpt>
      <trkpt lat="46.38914" lon="3.30879">
        <ele>229.41</ele>
        <time>2021-08-13T17:43:26Z</time>
      </trkpt>
      <trkpt lat="46.38896" lon="3.30865">
        <ele>229.41</ele>
        <time>2021-08-13T17:43:32Z</time>
      </trkpt>
      <trkpt lat="46.3888" lon="3.30856">
        <ele>229.89</ele>
        <time>2021-08-13T17:43:38Z</time>
      </trkpt>
      <trkpt lat="46.3887" lon="3.30851">
        <ele>229.89</ele>
        <time>2021-08-13T17:43:42Z</time>
      </trkpt>
      <trkpt lat="46.38864" lon="3.3084">
        <ele>229.89</ele>
        <time>2021-08-13T17:43:45Z</time>
      </trkpt>
      <trkpt lat="46.38861" lon="3.30838">
        <ele>229.89</ele>
        <time>2021-08-13T17:43:46Z</time>
      </trkpt>
      <trkpt lat="46.38857" lon="3.30837">
        <ele>229.89</ele>
        <time>2021-08-13T17:43:47Z</time>
      </trkpt>
      <trkpt lat="46.38838" lon="3.30835">
        <ele>229.89</ele>
        <time>2021-08-13T17:43:53Z</time>
      </trkpt>
      <trkpt lat="46.38812" lon="3.30831">
        <ele>229.89</ele>
        <time>2021-08-13T17:44:00Z</time>
      </trkpt>
      <trkpt lat="46.38782" lon="3.30828">
        <ele>229.89</ele>
        <time>2021-08-13T17:44:08Z</time>
      </trkpt>
      <trkpt lat="46.38778" lon="3.30827">
        <ele>229.89</ele>
        <time>2021-08-13T17:44:09Z</time>
      </trkpt>
      <trkpt lat="46.38774" lon="3.30824">
        <ele>229.89</ele>
        <time>2021-08-13T17:44:10Z</time>
      </trkpt>
      <trkpt lat="46.3877" lon="3.30822">
        <ele>229.89</ele>
        <time>2021-08-13T17:44:11Z</time>
      </trkpt>
      <trkpt lat="46.38767" lon="3.30819">
        <ele>229.89</ele>
        <time>2021-08-13T17:44:12Z</time>
      </trkpt>
      <trkpt lat="46.38762" lon="3.30818">
        <ele>229.89</ele>
        <time>2021-08-13T17:44:13Z</time>
      </trkpt>
      <trkpt lat="46.38759" lon="3.30818">
        <ele>229.89</ele>
        <time>2021-08-13T17:44:14Z</time>
      </trkpt>
      <trkpt lat="46.38755" lon="3.30819">
        <ele>229.89</ele>
        <time>2021-08-13T17:44:15Z</time>
      </trkpt>
      <trkpt lat="46.38747" lon="3.30817">
        <ele>229.89</ele>
        <time>2021-08-13T17:44:17Z</time>
      </trkpt>
      <trkpt lat="46.38743" lon="3.30814">
        <ele>229.89</ele>
        <time>2021-08-13T17:44:18Z</time>
      </trkpt>
      <trkpt lat="46.3874" lon="3.30811">
        <ele>229.89</ele>
        <time>2021-08-13T17:44:19Z</time>
      </trkpt>
      <trkpt lat="46.38737" lon="3.30809">
        <ele>229.89</ele>
        <time>2021-08-13T17:44:20Z</time>
      </trkpt>
      <trkpt lat="46.38735" lon="3.30807">
        <ele>229.89</ele>
        <time>2021-08-13T17:44:21Z</time>
      </trkpt>
      <trkpt lat="46.38731" lon="3.30804">
        <ele>229.89</ele>
        <time>2021-08-13T17:44:22Z</time>
      </trkpt>
      <trkpt lat="46.38721" lon="3.30794">
        <ele>229.89</ele>
        <time>2021-08-13T17:44:25Z</time>
      </trkpt>
      <trkpt lat="46.38717" lon="3.30793">
        <ele>229.89</ele>
        <time>2021-08-13T17:44:26Z</time>
      </trkpt>
      <trkpt lat="46.38713" lon="3.30792">
        <ele>229.89</ele>
        <time>2021-08-13T17:44:27Z</time>
      </trkpt>
      <trkpt lat="46.38709" lon="3.30792">
        <ele>229.89</ele>
        <time>2021-08-13T17:44:28Z</time>
      </trkpt>
      <trkpt lat="46.38706" lon="3.30793">
        <ele>229.89</ele>
        <time>2021-08-13T17:44:29Z</time>
      </trkpt>
      <trkpt lat="46.38702" lon="3.30795">
        <ele>229.89</ele>
        <time>2021-08-13T17:44:30Z</time>
      </trkpt>
      <trkpt lat="46.38699" lon="3.30796">
        <ele>229.89</ele>
        <time>2021-08-13T17:44:31Z</time>
      </trkpt>
      <trkpt lat="46.38695" lon="3.30796">
        <ele>229.89</ele>
        <time>2021-08-13T17:44:32Z</time>
      </trkpt>
      <trkpt lat="46.38691" lon="3.30796">
        <ele>229.89</ele>
        <time>2021-08-13T17:44:33Z</time>
      </trkpt>
      <trkpt lat="46.38688" lon="3.30796">
        <ele>229.89</ele>
        <time>2021-08-13T17:44:34Z</time>
      </trkpt>
      <trkpt lat="46.3866" lon="3.30801">
        <ele>229.89</ele>
        <time>2021-08-13T17:44:42Z</time>
      </trkpt>
      <trkpt lat="46.38635" lon="3.30811">
        <ele>229.89</ele>
        <time>2021-08-13T17:44:49Z</time>
      </trkpt>
      <trkpt lat="46.38608" lon="3.30825">
        <ele>230.37</ele>
        <time>2021-08-13T17:44:57Z</time>
      </trkpt>
      <trkpt lat="46.38591" lon="3.30835">
        <ele>230.37</ele>
        <time>2021-08-13T17:45:02Z</time>
      </trkpt>
      <trkpt lat="46.38588" lon="3.30834">
        <ele>230.37</ele>
        <time>2021-08-13T17:45:03Z</time>
      </trkpt>
      <trkpt lat="46.38585" lon="3.30831">
        <ele>230.37</ele>
        <time>2021-08-13T17:45:04Z</time>
      </trkpt>
      <trkpt lat="46.38568" lon="3.30816">
        <ele>230.37</ele>
        <time>2021-08-13T17:45:11Z</time>
      </trkpt>
      <trkpt lat="46.38549" lon="3.30805">
        <ele>230.37</ele>
        <time>2021-08-13T17:45:18Z</time>
      </trkpt>
      <trkpt lat="46.38525" lon="3.30793">
        <ele>230.37</ele>
        <time>2021-08-13T17:45:25Z</time>
      </trkpt>
      <trkpt lat="46.3851" lon="3.30774">
        <ele>229.89</ele>
        <time>2021-08-13T17:45:30Z</time>
      </trkpt>
      <trkpt lat="46.38491" lon="3.30752">
        <ele>229.89</ele>
        <time>2021-08-13T17:45:38Z</time>
      </trkpt>
      <trkpt lat="46.38472" lon="3.3075">
        <ele>229.89</ele>
        <time>2021-08-13T17:45:43Z</time>
      </trkpt>
      <trkpt lat="46.38447" lon="3.30744">
        <ele>229.89</ele>
        <time>2021-08-13T17:45:50Z</time>
      </trkpt>
      <trkpt lat="46.38427" lon="3.30736">
        <ele>229.89</ele>
        <time>2021-08-13T17:45:56Z</time>
      </trkpt>
      <trkpt lat="46.38394" lon="3.30726">
        <ele>229.89</ele>
        <time>2021-08-13T17:46:05Z</time>
      </trkpt>
      <trkpt lat="46.38381" lon="3.30723">
        <ele>229.89</ele>
        <time>2021-08-13T17:46:11Z</time>
      </trkpt>
      <trkpt lat="46.38378" lon="3.30724">
        <ele>229.89</ele>
        <time>2021-08-13T17:46:19Z</time>
      </trkpt>
      <trkpt lat="46.38372" lon="3.30722">
        <ele>229.89</ele>
        <time>2021-08-13T17:46:24Z</time>
      </trkpt>
      <trkpt lat="46.38356" lon="3.3072">
        <ele>229.89</ele>
        <time>2021-08-13T17:46:30Z</time>
      </trkpt>
      <trkpt lat="46.38334" lon="3.30716">
        <ele>229.89</ele>
        <time>2021-08-13T17:46:37Z</time>
      </trkpt>
      <trkpt lat="46.38319" lon="3.30717">
        <ele>229.89</ele>
        <time>2021-08-13T17:46:43Z</time>
      </trkpt>
      <trkpt lat="46.38296" lon="3.30719">
        <ele>229.89</ele>
        <time>2021-08-13T17:46:51Z</time>
      </trkpt>
      <trkpt lat="46.38282" lon="3.30718">
        <ele>229.89</ele>
        <time>2021-08-13T17:46:57Z</time>
      </trkpt>
      <trkpt lat="46.38254" lon="3.3072">
        <ele>229.89</ele>
        <time>2021-08-13T17:47:05Z</time>
      </trkpt>
      <trkpt lat="46.38226" lon="3.30722">
        <ele>229.89</ele>
        <time>2021-08-13T17:47:13Z</time>
      </trkpt>
      <trkpt lat="46.38222" lon="3.30723">
        <ele>229.89</ele>
        <time>2021-08-13T17:47:17Z</time>
      </trkpt>
      <trkpt lat="46.38215" lon="3.30722">
        <ele>229.89</ele>
        <time>2021-08-13T17:47:23Z</time>
      </trkpt>
      <trkpt lat="46.38212" lon="3.30721">
        <ele>230.37</ele>
        <time>2021-08-13T17:47:30Z</time>
      </trkpt>
      <trkpt lat="46.38202" lon="3.30719">
        <ele>230.37</ele>
        <time>2021-08-13T17:47:35Z</time>
      </trkpt>
      <trkpt lat="46.38182" lon="3.30714">
        <ele>230.37</ele>
        <time>2021-08-13T17:47:43Z</time>
      </trkpt>
      <trkpt lat="46.38164" lon="3.30711">
        <ele>230.37</ele>
        <time>2021-08-13T17:47:50Z</time>
      </trkpt>
      <trkpt lat="46.38152" lon="3.30708">
        <ele>231.33</ele>
        <time>2021-08-13T17:47:58Z</time>
      </trkpt>
      <trkpt lat="46.38146" lon="3.30706">
        <ele>232.78</ele>
        <time>2021-08-13T17:48:05Z</time>
      </trkpt>
      <trkpt lat="46.38139" lon="3.30702">
        <ele>234.22</ele>
        <time>2021-08-13T17:48:14Z</time>
      </trkpt>
      <trkpt lat="46.38131" lon="3.30698">
        <ele>235.66</ele>
        <time>2021-08-13T17:48:24Z</time>
      </trkpt>
      <trkpt lat="46.38123" lon="3.30695">
        <ele>236.14</ele>
        <time>2021-08-13T17:48:33Z</time>
      </trkpt>
      <trkpt lat="46.38113" lon="3.30694">
        <ele>237.58</ele>
        <time>2021-08-13T17:48:43Z</time>
      </trkpt>
      <trkpt lat="46.38109" lon="3.30693">
        <ele>238.06</ele>
        <time>2021-08-13T17:48:50Z</time>
      </trkpt>
      <trkpt lat="46.38099" lon="3.30693">
        <ele>239.02</ele>
        <time>2021-08-13T17:48:57Z</time>
      </trkpt>
      <trkpt lat="46.38084" lon="3.30692">
        <ele>239.99</ele>
        <time>2021-08-13T17:49:05Z</time>
      </trkpt>
      <trkpt lat="46.38071" lon="3.30691">
        <ele>240.47</ele>
        <time>2021-08-13T17:49:12Z</time>
      </trkpt>
      <trkpt lat="46.38048" lon="3.30693">
        <ele>240.47</ele>
        <time>2021-08-13T17:49:21Z</time>
      </trkpt>
      <trkpt lat="46.38023" lon="3.30695">
        <ele>240.47</ele>
        <time>2021-08-13T17:49:28Z</time>
      </trkpt>
      <trkpt lat="46.37982" lon="3.30701">
        <ele>238.06</ele>
        <time>2021-08-13T17:49:36Z</time>
      </trkpt>
      <trkpt lat="46.37954" lon="3.30703">
        <ele>238.06</ele>
        <time>2021-08-13T17:49:43Z</time>
      </trkpt>
      <trkpt lat="46.37925" lon="3.3071">
        <ele>238.06</ele>
        <time>2021-08-13T17:49:51Z</time>
      </trkpt>
      <trkpt lat="46.37897" lon="3.30714">
        <ele>237.58</ele>
        <time>2021-08-13T17:49:58Z</time>
      </trkpt>
      <trkpt lat="46.37861" lon="3.30714">
        <ele>237.58</ele>
        <time>2021-08-13T17:50:06Z</time>
      </trkpt>
      <trkpt lat="46.37828" lon="3.30711">
        <ele>237.58</ele>
        <time>2021-08-13T17:50:14Z</time>
      </trkpt>
      <trkpt lat="46.37799" lon="3.30706">
        <ele>237.58</ele>
        <time>2021-08-13T17:50:22Z</time>
      </trkpt>
      <trkpt lat="46.37776" lon="3.30701">
        <ele>237.58</ele>
        <time>2021-08-13T17:50:29Z</time>
      </trkpt>
      <trkpt lat="46.37754" lon="3.30698">
        <ele>239.02</ele>
        <time>2021-08-13T17:50:35Z</time>
      </trkpt>
      <trkpt lat="46.37725" lon="3.30693">
        <ele>239.02</ele>
        <time>2021-08-13T17:50:43Z</time>
      </trkpt>
      <trkpt lat="46.37695" lon="3.30686">
        <ele>239.02</ele>
        <time>2021-08-13T17:50:51Z</time>
      </trkpt>
      <trkpt lat="46.37685" lon="3.30678">
        <ele>239.02</ele>
        <time>2021-08-13T17:50:54Z</time>
      </trkpt>
      <trkpt lat="46.37684" lon="3.30674">
        <ele>239.02</ele>
        <time>2021-08-13T17:50:55Z</time>
      </trkpt>
      <trkpt lat="46.37683" lon="3.3067">
        <ele>239.02</ele>
        <time>2021-08-13T17:50:56Z</time>
      </trkpt>
      <trkpt lat="46.3768" lon="3.30647">
        <ele>239.99</ele>
        <time>2021-08-13T17:51:03Z</time>
      </trkpt>
      <trkpt lat="46.37675" lon="3.30623">
        <ele>240.95</ele>
        <time>2021-08-13T17:51:12Z</time>
      </trkpt>
      <trkpt lat="46.3767" lon="3.306">
        <ele>242.39</ele>
        <time>2021-08-13T17:51:21Z</time>
      </trkpt>
      <trkpt lat="46.37666" lon="3.30583">
        <ele>243.35</ele>
        <time>2021-08-13T17:51:28Z</time>
      </trkpt>
      <trkpt lat="46.3766" lon="3.30567">
        <ele>245.27</ele>
        <time>2021-08-13T17:51:35Z</time>
      </trkpt>
      <trkpt lat="46.3765" lon="3.30549">
        <ele>246.72</ele>
        <time>2021-08-13T17:51:44Z</time>
      </trkpt>
      <trkpt lat="46.37636" lon="3.30528">
        <ele>246.23</ele>
        <time>2021-08-13T17:51:52Z</time>
      </trkpt>
      <trkpt lat="46.37621" lon="3.30502">
        <ele>245.27</ele>
        <time>2021-08-13T17:51:58Z</time>
      </trkpt>
      <trkpt lat="46.37609" lon="3.30487">
        <ele>245.27</ele>
        <time>2021-08-13T17:52:02Z</time>
      </trkpt>
      <trkpt lat="46.37604" lon="3.30487">
        <ele>245.27</ele>
        <time>2021-08-13T17:52:03Z</time>
      </trkpt>
      <trkpt lat="46.376" lon="3.30488">
        <ele>245.27</ele>
        <time>2021-08-13T17:52:04Z</time>
      </trkpt>
      <trkpt lat="46.37597" lon="3.3049">
        <ele>244.31</ele>
        <time>2021-08-13T17:52:05Z</time>
      </trkpt>
      <trkpt lat="46.37593" lon="3.30493">
        <ele>244.31</ele>
        <time>2021-08-13T17:52:06Z</time>
      </trkpt>
      <trkpt lat="46.37589" lon="3.30497">
        <ele>243.83</ele>
        <time>2021-08-13T17:52:07Z</time>
      </trkpt>
      <trkpt lat="46.37585" lon="3.305">
        <ele>243.83</ele>
        <time>2021-08-13T17:52:08Z</time>
      </trkpt>
      <trkpt lat="46.37574" lon="3.3051">
        <ele>243.83</ele>
        <time>2021-08-13T17:52:11Z</time>
      </trkpt>
      <trkpt lat="46.37564" lon="3.30517">
        <ele>243.83</ele>
        <time>2021-08-13T17:52:14Z</time>
      </trkpt>
      <trkpt lat="46.37562" lon="3.30516">
        <ele>243.83</ele>
        <time>2021-08-13T17:52:15Z</time>
      </trkpt>
      <trkpt lat="46.37559" lon="3.30514">
        <ele>245.27</ele>
        <time>2021-08-13T17:52:16Z</time>
      </trkpt>
      <trkpt lat="46.37557" lon="3.30512">
        <ele>245.27</ele>
        <time>2021-08-13T17:52:17Z</time>
      </trkpt>
      <trkpt lat="46.37556" lon="3.30511">
        <ele>245.75</ele>
        <time>2021-08-13T17:52:18Z</time>
      </trkpt>
      <trkpt lat="46.37554" lon="3.30509">
        <ele>246.23</ele>
        <time>2021-08-13T17:52:19Z</time>
      </trkpt>
      <trkpt lat="46.37548" lon="3.30491">
        <ele>246.72</ele>
        <time>2021-08-13T17:52:27Z</time>
      </trkpt>
      <trkpt lat="46.37541" lon="3.30471">
        <ele>248.16</ele>
        <time>2021-08-13T17:52:36Z</time>
      </trkpt>
      <trkpt lat="46.37533" lon="3.30447">
        <ele>250.08</ele>
        <time>2021-08-13T17:52:46Z</time>
      </trkpt>
      <trkpt lat="46.37528" lon="3.30432">
        <ele>251.04</ele>
        <time>2021-08-13T17:52:53Z</time>
      </trkpt>
      <trkpt lat="46.37523" lon="3.30413">
        <ele>252.48</ele>
        <time>2021-08-13T17:53:02Z</time>
      </trkpt>
      <trkpt lat="46.37519" lon="3.30394">
        <ele>253.93</ele>
        <time>2021-08-13T17:53:11Z</time>
      </trkpt>
      <trkpt lat="46.37518" lon="3.30379">
        <ele>254.41</ele>
        <time>2021-08-13T17:53:18Z</time>
      </trkpt>
      <trkpt lat="46.37516" lon="3.30362">
        <ele>255.85</ele>
        <time>2021-08-13T17:53:26Z</time>
      </trkpt>
      <trkpt lat="46.37515" lon="3.3036">
        <ele>256.33</ele>
        <time>2021-08-13T17:53:27Z</time>
      </trkpt>
      <trkpt lat="46.37514" lon="3.30358">
        <ele>256.33</ele>
        <time>2021-08-13T17:53:28Z</time>
      </trkpt>
      <trkpt lat="46.37514" lon="3.30357">
        <ele>256.81</ele>
        <time>2021-08-13T17:53:29Z</time>
      </trkpt>
      <trkpt lat="46.37513" lon="3.30354">
        <ele>256.33</ele>
        <time>2021-08-13T17:53:30Z</time>
      </trkpt>
      <trkpt lat="46.37507" lon="3.30342">
        <ele>258.25</ele>
        <time>2021-08-13T17:53:37Z</time>
      </trkpt>
      <trkpt lat="46.37496" lon="3.30328">
        <ele>259.21</ele>
        <time>2021-08-13T17:53:47Z</time>
      </trkpt>
      <trkpt lat="46.37485" lon="3.30309">
        <ele>260.65</ele>
        <time>2021-08-13T17:53:58Z</time>
      </trkpt>
      <trkpt lat="46.37478" lon="3.30293">
        <ele>262.1</ele>
        <time>2021-08-13T17:54:07Z</time>
      </trkpt>
      <trkpt lat="46.37473" lon="3.30276">
        <ele>263.06</ele>
        <time>2021-08-13T17:54:15Z</time>
      </trkpt>
      <trkpt lat="46.37469" lon="3.30256">
        <ele>263.54</ele>
        <time>2021-08-13T17:54:25Z</time>
      </trkpt>
      <trkpt lat="46.37464" lon="3.30235">
        <ele>264.98</ele>
        <time>2021-08-13T17:54:35Z</time>
      </trkpt>
      <trkpt lat="46.37457" lon="3.30213">
        <ele>265.94</ele>
        <time>2021-08-13T17:54:45Z</time>
      </trkpt>
      <trkpt lat="46.37449" lon="3.30192">
        <ele>267.38</ele>
        <time>2021-08-13T17:54:55Z</time>
      </trkpt>
      <trkpt lat="46.3744" lon="3.30173">
        <ele>268.35</ele>
        <time>2021-08-13T17:55:04Z</time>
      </trkpt>
      <trkpt lat="46.37439" lon="3.30171">
        <ele>268.35</ele>
        <time>2021-08-13T17:55:05Z</time>
      </trkpt>
      <trkpt lat="46.37439" lon="3.30168">
        <ele>268.83</ele>
        <time>2021-08-13T17:55:06Z</time>
      </trkpt>
      <trkpt lat="46.37438" lon="3.30166">
        <ele>268.83</ele>
        <time>2021-08-13T17:55:07Z</time>
      </trkpt>
      <trkpt lat="46.37437" lon="3.30164">
        <ele>268.83</ele>
        <time>2021-08-13T17:55:08Z</time>
      </trkpt>
      <trkpt lat="46.37436" lon="3.30161">
        <ele>268.83</ele>
        <time>2021-08-13T17:55:09Z</time>
      </trkpt>
      <trkpt lat="46.37435" lon="3.30159">
        <ele>269.79</ele>
        <time>2021-08-13T17:55:10Z</time>
      </trkpt>
      <trkpt lat="46.37434" lon="3.30157">
        <ele>269.79</ele>
        <time>2021-08-13T17:55:11Z</time>
      </trkpt>
      <trkpt lat="46.37434" lon="3.30155">
        <ele>269.79</ele>
        <time>2021-08-13T17:55:12Z</time>
      </trkpt>
      <trkpt lat="46.37425" lon="3.30134">
        <ele>271.23</ele>
        <time>2021-08-13T17:55:22Z</time>
      </trkpt>
      <trkpt lat="46.37418" lon="3.30119">
        <ele>272.67</ele>
        <time>2021-08-13T17:55:30Z</time>
      </trkpt>
      <trkpt lat="46.37409" lon="3.301">
        <ele>273.63</ele>
        <time>2021-08-13T17:55:40Z</time>
      </trkpt>
      <trkpt lat="46.37409" lon="3.30099">
        <ele>274.11</ele>
        <time>2021-08-13T17:55:41Z</time>
      </trkpt>
      <trkpt lat="46.37408" lon="3.30098">
        <ele>274.59</ele>
        <time>2021-08-13T17:55:42Z</time>
      </trkpt>
      <trkpt lat="46.37406" lon="3.30098">
        <ele>274.59</ele>
        <time>2021-08-13T17:55:43Z</time>
      </trkpt>
      <trkpt lat="46.37399" lon="3.30102">
        <ele>276.04</ele>
        <time>2021-08-13T17:55:49Z</time>
      </trkpt>
      <trkpt lat="46.37388" lon="3.30109">
        <ele>277.96</ele>
        <time>2021-08-13T17:55:58Z</time>
      </trkpt>
      <trkpt lat="46.37377" lon="3.30115">
        <ele>279.88</ele>
        <time>2021-08-13T17:56:05Z</time>
      </trkpt>
      <trkpt lat="46.37375" lon="3.30116">
        <ele>279.88</ele>
        <time>2021-08-13T17:56:06Z</time>
      </trkpt>
      <trkpt lat="46.37374" lon="3.30117">
        <ele>279.88</ele>
        <time>2021-08-13T17:56:07Z</time>
      </trkpt>
      <trkpt lat="46.37372" lon="3.30118">
        <ele>279.88</ele>
        <time>2021-08-13T17:56:08Z</time>
      </trkpt>
      <trkpt lat="46.37371" lon="3.30119">
        <ele>279.88</ele>
        <time>2021-08-13T17:56:09Z</time>
      </trkpt>
      <trkpt lat="46.37371" lon="3.3012">
        <ele>280.36</ele>
        <time>2021-08-13T17:56:10Z</time>
      </trkpt>
      <trkpt lat="46.37369" lon="3.30123">
        <ele>280.36</ele>
        <time>2021-08-13T17:56:12Z</time>
      </trkpt>
      <trkpt lat="46.37367" lon="3.30124">
        <ele>281.32</ele>
        <time>2021-08-13T17:56:13Z</time>
      </trkpt>
      <trkpt lat="46.37354" lon="3.30131">
        <ele>282.77</ele>
        <time>2021-08-13T17:56:22Z</time>
      </trkpt>
      <trkpt lat="46.37342" lon="3.30141">
        <ele>284.69</ele>
        <time>2021-08-13T17:56:31Z</time>
      </trkpt>
      <trkpt lat="46.37328" lon="3.30149">
        <ele>286.13</ele>
        <time>2021-08-13T17:56:41Z</time>
      </trkpt>
      <trkpt lat="46.37313" lon="3.30156">
        <ele>288.05</ele>
        <time>2021-08-13T17:56:51Z</time>
      </trkpt>
      <trkpt lat="46.37304" lon="3.3016">
        <ele>288.53</ele>
        <time>2021-08-13T17:56:57Z</time>
      </trkpt>
      <trkpt lat="46.37292" lon="3.30163">
        <ele>289.01</ele>
        <time>2021-08-13T17:57:04Z</time>
      </trkpt>
      <trkpt lat="46.37277" lon="3.30165">
        <ele>289.97</ele>
        <time>2021-08-13T17:57:12Z</time>
      </trkpt>
      <trkpt lat="46.37257" lon="3.30164">
        <ele>290.46</ele>
        <time>2021-08-13T17:57:20Z</time>
      </trkpt>
      <trkpt lat="46.37234" lon="3.30163">
        <ele>290.94</ele>
        <time>2021-08-13T17:57:29Z</time>
      </trkpt>
      <trkpt lat="46.37206" lon="3.30164">
        <ele>290.94</ele>
        <time>2021-08-13T17:57:37Z</time>
      </trkpt>
      <trkpt lat="46.37179" lon="3.30164">
        <ele>290.94</ele>
        <time>2021-08-13T17:57:45Z</time>
      </trkpt>
      <trkpt lat="46.37152" lon="3.30163">
        <ele>290.94</ele>
        <time>2021-08-13T17:57:53Z</time>
      </trkpt>
      <trkpt lat="46.37144" lon="3.30162">
        <ele>289.49</ele>
        <time>2021-08-13T17:57:55Z</time>
      </trkpt>
      <trkpt lat="46.37113" lon="3.3016">
        <ele>286.61</ele>
        <time>2021-08-13T17:58:01Z</time>
      </trkpt>
      <trkpt lat="46.37064" lon="3.30153">
        <ele>283.73</ele>
        <time>2021-08-13T17:58:08Z</time>
      </trkpt>
      <trkpt lat="46.3704" lon="3.30154">
        <ele>283.73</ele>
        <time>2021-08-13T17:58:12Z</time>
      </trkpt>
      <trkpt lat="46.37021" lon="3.3016">
        <ele>286.13</ele>
        <time>2021-08-13T17:58:17Z</time>
      </trkpt>
      <trkpt lat="46.36993" lon="3.30164">
        <ele>287.09</ele>
        <time>2021-08-13T17:58:25Z</time>
      </trkpt>
      <trkpt lat="46.36973" lon="3.30147">
        <ele>289.01</ele>
        <time>2021-08-13T17:58:32Z</time>
      </trkpt>
      <trkpt lat="46.36967" lon="3.30131">
        <ele>289.97</ele>
        <time>2021-08-13T17:58:37Z</time>
      </trkpt>
      <trkpt lat="46.36965" lon="3.30129">
        <ele>289.97</ele>
        <time>2021-08-13T17:58:38Z</time>
      </trkpt>
      <trkpt lat="46.36962" lon="3.30127">
        <ele>289.97</ele>
        <time>2021-08-13T17:58:39Z</time>
      </trkpt>
      <trkpt lat="46.3696" lon="3.30126">
        <ele>289.97</ele>
        <time>2021-08-13T17:58:40Z</time>
      </trkpt>
      <trkpt lat="46.36958" lon="3.30126">
        <ele>289.97</ele>
        <time>2021-08-13T17:58:41Z</time>
      </trkpt>
      <trkpt lat="46.36938" lon="3.30116">
        <ele>290.94</ele>
        <time>2021-08-13T17:58:49Z</time>
      </trkpt>
      <trkpt lat="46.36914" lon="3.30102">
        <ele>291.42</ele>
        <time>2021-08-13T17:58:58Z</time>
      </trkpt>
      <trkpt lat="46.36892" lon="3.3009">
        <ele>291.42</ele>
        <time>2021-08-13T17:59:05Z</time>
      </trkpt>
      <trkpt lat="46.36857" lon="3.30071">
        <ele>291.9</ele>
        <time>2021-08-13T17:59:16Z</time>
      </trkpt>
      <trkpt lat="46.36829" lon="3.30055">
        <ele>291.9</ele>
        <time>2021-08-13T17:59:25Z</time>
      </trkpt>
      <trkpt lat="46.36807" lon="3.30043">
        <ele>291.9</ele>
        <time>2021-08-13T17:59:32Z</time>
      </trkpt>
      <trkpt lat="46.36795" lon="3.30035">
        <ele>290.46</ele>
        <time>2021-08-13T17:59:36Z</time>
      </trkpt>
      <trkpt lat="46.3678" lon="3.30029">
        <ele>289.97</ele>
        <time>2021-08-13T17:59:40Z</time>
      </trkpt>
      <trkpt lat="46.36766" lon="3.30024">
        <ele>289.01</ele>
        <time>2021-08-13T17:59:43Z</time>
      </trkpt>
      <trkpt lat="46.36728" lon="3.30001">
        <ele>287.57</ele>
        <time>2021-08-13T17:59:50Z</time>
      </trkpt>
      <trkpt lat="46.36708" lon="3.29988">
        <ele>286.61</ele>
        <time>2021-08-13T17:59:54Z</time>
      </trkpt>
      <trkpt lat="46.36705" lon="3.29983">
        <ele>286.61</ele>
        <time>2021-08-13T17:59:55Z</time>
      </trkpt>
      <trkpt lat="46.36703" lon="3.29977">
        <ele>286.61</ele>
        <time>2021-08-13T17:59:56Z</time>
      </trkpt>
      <trkpt lat="46.36702" lon="3.29972">
        <ele>286.61</ele>
        <time>2021-08-13T17:59:57Z</time>
      </trkpt>
      <trkpt lat="46.36702" lon="3.29967">
        <ele>286.61</ele>
        <time>2021-08-13T17:59:58Z</time>
      </trkpt>
      <trkpt lat="46.36702" lon="3.29959">
        <ele>288.05</ele>
        <time>2021-08-13T18:00:00Z</time>
      </trkpt>
      <trkpt lat="46.36705" lon="3.29937">
        <ele>289.49</ele>
        <time>2021-08-13T18:00:08Z</time>
      </trkpt>
      <trkpt lat="46.36708" lon="3.29914">
        <ele>291.42</ele>
        <time>2021-08-13T18:00:17Z</time>
      </trkpt>
      <trkpt lat="46.36712" lon="3.29898">
        <ele>293.34</ele>
        <time>2021-08-13T18:00:25Z</time>
      </trkpt>
      <trkpt lat="46.3672" lon="3.29879">
        <ele>294.78</ele>
        <time>2021-08-13T18:00:35Z</time>
      </trkpt>
      <trkpt lat="46.36721" lon="3.29877">
        <ele>294.78</ele>
        <time>2021-08-13T18:00:36Z</time>
      </trkpt>
      <trkpt lat="46.36721" lon="3.29874">
        <ele>294.78</ele>
        <time>2021-08-13T18:00:37Z</time>
      </trkpt>
      <trkpt lat="46.36723" lon="3.29872">
        <ele>294.78</ele>
        <time>2021-08-13T18:00:38Z</time>
      </trkpt>
      <trkpt lat="46.36724" lon="3.29871">
        <ele>294.78</ele>
        <time>2021-08-13T18:00:39Z</time>
      </trkpt>
      <trkpt lat="46.36725" lon="3.29869">
        <ele>294.78</ele>
        <time>2021-08-13T18:00:40Z</time>
      </trkpt>
      <trkpt lat="46.36725" lon="3.29867">
        <ele>294.78</ele>
        <time>2021-08-13T18:00:41Z</time>
      </trkpt>
      <trkpt lat="46.36726" lon="3.29865">
        <ele>294.78</ele>
        <time>2021-08-13T18:00:42Z</time>
      </trkpt>
      <trkpt lat="46.36728" lon="3.29863">
        <ele>295.26</ele>
        <time>2021-08-13T18:00:43Z</time>
      </trkpt>
      <trkpt lat="46.36729" lon="3.29861">
        <ele>295.26</ele>
        <time>2021-08-13T18:00:44Z</time>
      </trkpt>
      <trkpt lat="46.3673" lon="3.29859">
        <ele>295.26</ele>
        <time>2021-08-13T18:00:45Z</time>
      </trkpt>
      <trkpt lat="46.36743" lon="3.29837">
        <ele>295.74</ele>
        <time>2021-08-13T18:00:54Z</time>
      </trkpt>
      <trkpt lat="46.36758" lon="3.29816">
        <ele>296.7</ele>
        <time>2021-08-13T18:01:02Z</time>
      </trkpt>
      <trkpt lat="46.3677" lon="3.29795">
        <ele>297.18</ele>
        <time>2021-08-13T18:01:08Z</time>
      </trkpt>
      <trkpt lat="46.36783" lon="3.29756">
        <ele>298.15</ele>
        <time>2021-08-13T18:01:17Z</time>
      </trkpt>
      <trkpt lat="46.36783" lon="3.29735">
        <ele>298.63</ele>
        <time>2021-08-13T18:01:23Z</time>
      </trkpt>
      <trkpt lat="46.36783" lon="3.29732">
        <ele>298.63</ele>
        <time>2021-08-13T18:01:29Z</time>
      </trkpt>
      <trkpt lat="46.36784" lon="3.29733">
        <ele>298.63</ele>
        <time>2021-08-13T18:01:45Z</time>
      </trkpt>
      <trkpt lat="46.36784" lon="3.29735">
        <ele>298.63</ele>
        <time>2021-08-13T18:02:04Z</time>
      </trkpt>
      <trkpt lat="46.36782" lon="3.29736">
        <ele>298.63</ele>
        <time>2021-08-13T18:02:26Z</time>
      </trkpt>
      <trkpt lat="46.36782" lon="3.29736">
        <ele>298.63</ele>
        <time>2021-08-13T18:02:36Z</time>
      </trkpt>
      <trkpt lat="46.36784" lon="3.29734">
        <ele>298.63</ele>
        <time>2021-08-13T18:02:56Z</time>
      </trkpt>
      <trkpt lat="46.36785" lon="3.29732">
        <ele>298.63</ele>
        <time>2021-08-13T18:03:09Z</time>
      </trkpt>
      <trkpt lat="46.36782" lon="3.29732">
        <ele>298.63</ele>
        <time>2021-08-13T18:03:25Z</time>
      </trkpt>
      <trkpt lat="46.36783" lon="3.29735">
        <ele>298.63</ele>
        <time>2021-08-13T18:03:38Z</time>
      </trkpt>
      <trkpt lat="46.36784" lon="3.29734">
        <ele>298.63</ele>
        <time>2021-08-13T18:03:54Z</time>
      </trkpt>
      <trkpt lat="46.36784" lon="3.29735">
        <ele>298.63</ele>
        <time>2021-08-13T18:04:06Z</time>
      </trkpt>
      <trkpt lat="46.36785" lon="3.29736">
        <ele>298.63</ele>
        <time>2021-08-13T18:04:19Z</time>
      </trkpt>
      <trkpt lat="46.36783" lon="3.29734">
        <ele>298.63</ele>
        <time>2021-08-13T18:04:40Z</time>
      </trkpt>
      <trkpt lat="46.36782" lon="3.29731">
        <ele>298.63</ele>
        <time>2021-08-13T18:04:45Z</time>
      </trkpt>
      <trkpt lat="46.36781" lon="3.29729">
        <ele>298.63</ele>
        <time>2021-08-13T18:04:46Z</time>
      </trkpt>
      <trkpt lat="46.36781" lon="3.29727">
        <ele>298.63</ele>
        <time>2021-08-13T18:04:47Z</time>
      </trkpt>
      <trkpt lat="46.3678" lon="3.29725">
        <ele>298.63</ele>
        <time>2021-08-13T18:04:48Z</time>
      </trkpt>
      <trkpt lat="46.3678" lon="3.29722">
        <ele>298.63</ele>
        <time>2021-08-13T18:04:49Z</time>
      </trkpt>
      <trkpt lat="46.36781" lon="3.29694">
        <ele>298.63</ele>
        <time>2021-08-13T18:04:56Z</time>
      </trkpt>
      <trkpt lat="46.36785" lon="3.29672">
        <ele>297.67</ele>
        <time>2021-08-13T18:05:01Z</time>
      </trkpt>
      <trkpt lat="46.36783" lon="3.29669">
        <ele>297.67</ele>
        <time>2021-08-13T18:05:02Z</time>
      </trkpt>
      <trkpt lat="46.36781" lon="3.29668">
        <ele>297.67</ele>
        <time>2021-08-13T18:05:03Z</time>
      </trkpt>
      <trkpt lat="46.36778" lon="3.29666">
        <ele>297.67</ele>
        <time>2021-08-13T18:05:04Z</time>
      </trkpt>
      <trkpt lat="46.36775" lon="3.29664">
        <ele>297.18</ele>
        <time>2021-08-13T18:05:05Z</time>
      </trkpt>
      <trkpt lat="46.3675" lon="3.29653">
        <ele>294.3</ele>
        <time>2021-08-13T18:05:11Z</time>
      </trkpt>
      <trkpt lat="46.36725" lon="3.29641">
        <ele>290.94</ele>
        <time>2021-08-13T18:05:16Z</time>
      </trkpt>
      <trkpt lat="46.36719" lon="3.29639">
        <ele>289.49</ele>
        <time>2021-08-13T18:05:17Z</time>
      </trkpt>
      <trkpt lat="46.36711" lon="3.29634">
        <ele>288.53</ele>
        <time>2021-08-13T18:05:18Z</time>
      </trkpt>
      <trkpt lat="46.36692" lon="3.29618">
        <ele>287.57</ele>
        <time>2021-08-13T18:05:21Z</time>
      </trkpt>
      <trkpt lat="46.36664" lon="3.29596">
        <ele>289.01</ele>
        <time>2021-08-13T18:05:26Z</time>
      </trkpt>
      <trkpt lat="46.36657" lon="3.29589">
        <ele>290.94</ele>
        <time>2021-08-13T18:05:29Z</time>
      </trkpt>
      <trkpt lat="46.36642" lon="3.29577">
        <ele>293.34</ele>
        <time>2021-08-13T18:05:38Z</time>
      </trkpt>
      <trkpt lat="46.36626" lon="3.29559">
        <ele>295.26</ele>
        <time>2021-08-13T18:05:47Z</time>
      </trkpt>
      <trkpt lat="46.36612" lon="3.2955">
        <ele>295.74</ele>
        <time>2021-08-13T18:05:53Z</time>
      </trkpt>
      <trkpt lat="46.36586" lon="3.29548">
        <ele>295.74</ele>
        <time>2021-08-13T18:06:02Z</time>
      </trkpt>
      <trkpt lat="46.36566" lon="3.29544">
        <ele>295.74</ele>
        <time>2021-08-13T18:06:09Z</time>
      </trkpt>
      <trkpt lat="46.36562" lon="3.29523">
        <ele>295.74</ele>
        <time>2021-08-13T18:06:14Z</time>
      </trkpt>
      <trkpt lat="46.3656" lon="3.29489">
        <ele>297.18</ele>
        <time>2021-08-13T18:06:22Z</time>
      </trkpt>
      <trkpt lat="46.36561" lon="3.29458">
        <ele>298.63</ele>
        <time>2021-08-13T18:06:29Z</time>
      </trkpt>
      <trkpt lat="46.36567" lon="3.29424">
        <ele>299.11</ele>
        <time>2021-08-13T18:06:37Z</time>
      </trkpt>
      <trkpt lat="46.36579" lon="3.2938">
        <ele>300.55</ele>
        <time>2021-08-13T18:06:48Z</time>
      </trkpt>
      <trkpt lat="46.3659" lon="3.29341">
        <ele>301.51</ele>
        <time>2021-08-13T18:06:58Z</time>
      </trkpt>
      <trkpt lat="46.36604" lon="3.29291">
        <ele>301.99</ele>
        <time>2021-08-13T18:07:10Z</time>
      </trkpt>
      <trkpt lat="46.36615" lon="3.29252">
        <ele>302.47</ele>
        <time>2021-08-13T18:07:19Z</time>
      </trkpt>
      <trkpt lat="46.36619" lon="3.29231">
        <ele>302.95</ele>
        <time>2021-08-13T18:07:24Z</time>
      </trkpt>
      <trkpt lat="46.36619" lon="3.29227">
        <ele>302.95</ele>
        <time>2021-08-13T18:07:25Z</time>
      </trkpt>
      <trkpt lat="46.36617" lon="3.29224">
        <ele>302.95</ele>
        <time>2021-08-13T18:07:26Z</time>
      </trkpt>
      <trkpt lat="46.36616" lon="3.29222">
        <ele>302.95</ele>
        <time>2021-08-13T18:07:27Z</time>
      </trkpt>
      <trkpt lat="46.36614" lon="3.29219">
        <ele>302.95</ele>
        <time>2021-08-13T18:07:28Z</time>
      </trkpt>
      <trkpt lat="46.36603" lon="3.29205">
        <ele>303.43</ele>
        <time>2021-08-13T18:07:34Z</time>
      </trkpt>
      <trkpt lat="46.36591" lon="3.2919">
        <ele>303.91</ele>
        <time>2021-08-13T18:07:40Z</time>
      </trkpt>
      <trkpt lat="46.36574" lon="3.29166">
        <ele>303.91</ele>
        <time>2021-08-13T18:07:48Z</time>
      </trkpt>
      <trkpt lat="46.36559" lon="3.29146">
        <ele>303.91</ele>
        <time>2021-08-13T18:07:55Z</time>
      </trkpt>
      <trkpt lat="46.36535" lon="3.29113">
        <ele>303.91</ele>
        <time>2021-08-13T18:08:05Z</time>
      </trkpt>
      <trkpt lat="46.36521" lon="3.29094">
        <ele>302.47</ele>
        <time>2021-08-13T18:08:10Z</time>
      </trkpt>
      <trkpt lat="46.36492" lon="3.29057">
        <ele>301.03</ele>
        <time>2021-08-13T18:08:18Z</time>
      </trkpt>
      <trkpt lat="46.36464" lon="3.29017">
        <ele>300.07</ele>
        <time>2021-08-13T18:08:25Z</time>
      </trkpt>
      <trkpt lat="46.3646" lon="3.29012">
        <ele>300.07</ele>
        <time>2021-08-13T18:08:26Z</time>
      </trkpt>
      <trkpt lat="46.36455" lon="3.29007">
        <ele>300.07</ele>
        <time>2021-08-13T18:08:27Z</time>
      </trkpt>
      <trkpt lat="46.3645" lon="3.29003">
        <ele>300.07</ele>
        <time>2021-08-13T18:08:28Z</time>
      </trkpt>
      <trkpt lat="46.36445" lon="3.29">
        <ele>300.07</ele>
        <time>2021-08-13T18:08:29Z</time>
      </trkpt>
      <trkpt lat="46.3644" lon="3.28998">
        <ele>300.07</ele>
        <time>2021-08-13T18:08:30Z</time>
      </trkpt>
      <trkpt lat="46.36435" lon="3.28997">
        <ele>300.07</ele>
        <time>2021-08-13T18:08:31Z</time>
      </trkpt>
      <trkpt lat="46.36405" lon="3.28992">
        <ele>300.07</ele>
        <time>2021-08-13T18:08:38Z</time>
      </trkpt>
      <trkpt lat="46.36389" lon="3.28995">
        <ele>300.07</ele>
        <time>2021-08-13T18:08:43Z</time>
      </trkpt>
      <trkpt lat="46.36381" lon="3.28997">
        <ele>301.51</ele>
        <time>2021-08-13T18:08:46Z</time>
      </trkpt>
      <trkpt lat="46.3636" lon="3.28991">
        <ele>301.51</ele>
        <time>2021-08-13T18:08:53Z</time>
      </trkpt>
      <trkpt lat="46.36337" lon="3.28981">
        <ele>301.99</ele>
        <time>2021-08-13T18:09:00Z</time>
      </trkpt>
      <trkpt lat="46.36303" lon="3.28966">
        <ele>302.95</ele>
        <time>2021-08-13T18:09:10Z</time>
      </trkpt>
      <trkpt lat="46.36283" lon="3.28957">
        <ele>303.91</ele>
        <time>2021-08-13T18:09:16Z</time>
      </trkpt>
      <trkpt lat="46.36253" lon="3.28943">
        <ele>304.39</ele>
        <time>2021-08-13T18:09:25Z</time>
      </trkpt>
      <trkpt lat="46.36223" lon="3.28929">
        <ele>305.36</ele>
        <time>2021-08-13T18:09:34Z</time>
      </trkpt>
      <trkpt lat="46.36187" lon="3.28909">
        <ele>306.32</ele>
        <time>2021-08-13T18:09:45Z</time>
      </trkpt>
      <trkpt lat="46.36156" lon="3.28892">
        <ele>306.32</ele>
        <time>2021-08-13T18:09:54Z</time>
      </trkpt>
      <trkpt lat="46.36123" lon="3.28873">
        <ele>306.8</ele>
        <time>2021-08-13T18:10:04Z</time>
      </trkpt>
      <trkpt lat="46.36084" lon="3.2885">
        <ele>307.28</ele>
        <time>2021-08-13T18:10:15Z</time>
      </trkpt>
      <trkpt lat="46.36076" lon="3.28845">
        <ele>307.28</ele>
        <time>2021-08-13T18:10:17Z</time>
      </trkpt>
      <trkpt lat="46.36072" lon="3.28843">
        <ele>307.28</ele>
        <time>2021-08-13T18:10:18Z</time>
      </trkpt>
      <trkpt lat="46.36045" lon="3.2882">
        <ele>307.28</ele>
        <time>2021-08-13T18:10:26Z</time>
      </trkpt>
      <trkpt lat="46.36016" lon="3.28778">
        <ele>307.76</ele>
        <time>2021-08-13T18:10:37Z</time>
      </trkpt>
      <trkpt lat="46.36008" lon="3.28757">
        <ele>307.76</ele>
        <time>2021-08-13T18:10:42Z</time>
      </trkpt>
      <trkpt lat="46.36011" lon="3.28726">
        <ele>308.24</ele>
        <time>2021-08-13T18:10:48Z</time>
      </trkpt>
      <trkpt lat="46.36019" lon="3.28691">
        <ele>308.24</ele>
        <time>2021-08-13T18:10:55Z</time>
      </trkpt>
      <trkpt lat="46.36021" lon="3.28686">
        <ele>308.24</ele>
        <time>2021-08-13T18:10:56Z</time>
      </trkpt>
      <trkpt lat="46.36022" lon="3.28681">
        <ele>308.24</ele>
        <time>2021-08-13T18:10:57Z</time>
      </trkpt>
      <trkpt lat="46.36033" lon="3.28636">
        <ele>308.72</ele>
        <time>2021-08-13T18:11:06Z</time>
      </trkpt>
      <trkpt lat="46.36044" lon="3.28593">
        <ele>309.2</ele>
        <time>2021-08-13T18:11:15Z</time>
      </trkpt>
      <trkpt lat="46.36048" lon="3.28579">
        <ele>309.68</ele>
        <time>2021-08-13T18:11:20Z</time>
      </trkpt>
      <trkpt lat="46.36049" lon="3.28568">
        <ele>309.2</ele>
        <time>2021-08-13T18:11:25Z</time>
      </trkpt>
      <trkpt lat="46.36056" lon="3.2855">
        <ele>309.2</ele>
        <time>2021-08-13T18:11:29Z</time>
      </trkpt>
      <trkpt lat="46.36058" lon="3.28545">
        <ele>309.2</ele>
        <time>2021-08-13T18:11:30Z</time>
      </trkpt>
      <trkpt lat="46.36069" lon="3.28513">
        <ele>309.68</ele>
        <time>2021-08-13T18:11:37Z</time>
      </trkpt>
      <trkpt lat="46.36081" lon="3.28457">
        <ele>309.68</ele>
        <time>2021-08-13T18:11:47Z</time>
      </trkpt>
      <trkpt lat="46.36092" lon="3.28403">
        <ele>309.2</ele>
        <time>2021-08-13T18:11:57Z</time>
      </trkpt>
      <trkpt lat="46.36098" lon="3.28369">
        <ele>309.2</ele>
        <time>2021-08-13T18:12:04Z</time>
      </trkpt>
      <trkpt lat="46.36098" lon="3.28352">
        <ele>308.24</ele>
        <time>2021-08-13T18:12:07Z</time>
      </trkpt>
      <trkpt lat="46.36092" lon="3.28309">
        <ele>308.24</ele>
        <time>2021-08-13T18:12:14Z</time>
      </trkpt>
      <trkpt lat="46.36084" lon="3.28258">
        <ele>307.76</ele>
        <time>2021-08-13T18:12:22Z</time>
      </trkpt>
      <trkpt lat="46.36083" lon="3.28192">
        <ele>306.32</ele>
        <time>2021-08-13T18:12:32Z</time>
      </trkpt>
      <trkpt lat="46.36084" lon="3.28135">
        <ele>305.84</ele>
        <time>2021-08-13T18:12:40Z</time>
      </trkpt>
      <trkpt lat="46.36083" lon="3.2807">
        <ele>302.95</ele>
        <time>2021-08-13T18:12:48Z</time>
      </trkpt>
      <trkpt lat="46.36079" lon="3.28044">
        <ele>301.99</ele>
        <time>2021-08-13T18:12:51Z</time>
      </trkpt>
      <trkpt lat="46.36062" lon="3.27964">
        <ele>300.07</ele>
        <time>2021-08-13T18:13:00Z</time>
      </trkpt>
      <trkpt lat="46.36041" lon="3.27867">
        <ele>298.15</ele>
        <time>2021-08-13T18:13:10Z</time>
      </trkpt>
      <trkpt lat="46.36025" lon="3.27793">
        <ele>297.67</ele>
        <time>2021-08-13T18:13:18Z</time>
      </trkpt>
      <trkpt lat="46.36015" lon="3.2774">
        <ele>297.67</ele>
        <time>2021-08-13T18:13:25Z</time>
      </trkpt>
      <trkpt lat="46.36014" lon="3.27732">
        <ele>297.67</ele>
        <time>2021-08-13T18:13:26Z</time>
      </trkpt>
      <trkpt lat="46.36013" lon="3.2769">
        <ele>292.86</ele>
        <time>2021-08-13T18:13:30Z</time>
      </trkpt>
      <trkpt lat="46.36011" lon="3.27631">
        <ele>289.01</ele>
        <time>2021-08-13T18:13:35Z</time>
      </trkpt>
      <trkpt lat="46.36009" lon="3.27621">
        <ele>288.53</ele>
        <time>2021-08-13T18:13:36Z</time>
      </trkpt>
      <trkpt lat="46.35995" lon="3.27573">
        <ele>286.13</ele>
        <time>2021-08-13T18:13:40Z</time>
      </trkpt>
      <trkpt lat="46.3599" lon="3.27561">
        <ele>286.13</ele>
        <time>2021-08-13T18:13:41Z</time>
      </trkpt>
      <trkpt lat="46.3595" lon="3.27474">
        <ele>283.25</ele>
        <time>2021-08-13T18:13:49Z</time>
      </trkpt>
      <trkpt lat="46.35932" lon="3.27403">
        <ele>280.84</ele>
        <time>2021-08-13T18:13:55Z</time>
      </trkpt>
      <trkpt lat="46.35924" lon="3.27354">
        <ele>279.4</ele>
        <time>2021-08-13T18:13:59Z</time>
      </trkpt>
      <trkpt lat="46.35921" lon="3.27343">
        <ele>279.4</ele>
        <time>2021-08-13T18:14:00Z</time>
      </trkpt>
      <trkpt lat="46.35917" lon="3.27331">
        <ele>278.44</ele>
        <time>2021-08-13T18:14:01Z</time>
      </trkpt>
      <trkpt lat="46.35879" lon="3.27234">
        <ele>275.56</ele>
        <time>2021-08-13T18:14:10Z</time>
      </trkpt>
      <trkpt lat="46.35862" lon="3.27188">
        <ele>273.63</ele>
        <time>2021-08-13T18:14:14Z</time>
      </trkpt>
      <trkpt lat="46.35859" lon="3.27176">
        <ele>273.63</ele>
        <time>2021-08-13T18:14:15Z</time>
      </trkpt>
      <trkpt lat="46.35858" lon="3.27165">
        <ele>273.15</ele>
        <time>2021-08-13T18:14:16Z</time>
      </trkpt>
      <trkpt lat="46.35857" lon="3.27153">
        <ele>273.15</ele>
        <time>2021-08-13T18:14:17Z</time>
      </trkpt>
      <trkpt lat="46.35857" lon="3.27141">
        <ele>273.15</ele>
        <time>2021-08-13T18:14:18Z</time>
      </trkpt>
      <trkpt lat="46.35856" lon="3.27055">
        <ele>272.67</ele>
        <time>2021-08-13T18:14:26Z</time>
      </trkpt>
      <trkpt lat="46.35856" lon="3.27011">
        <ele>274.11</ele>
        <time>2021-08-13T18:14:31Z</time>
      </trkpt>
      <trkpt lat="46.35857" lon="3.2696">
        <ele>275.56</ele>
        <time>2021-08-13T18:14:38Z</time>
      </trkpt>
      <trkpt lat="46.35852" lon="3.26905">
        <ele>276.04</ele>
        <time>2021-08-13T18:14:47Z</time>
      </trkpt>
      <trkpt lat="46.35839" lon="3.26856">
        <ele>275.07</ele>
        <time>2021-08-13T18:14:54Z</time>
      </trkpt>
      <trkpt lat="46.3583" lon="3.26827">
        <ele>274.59</ele>
        <time>2021-08-13T18:15:00Z</time>
      </trkpt>
      <trkpt lat="46.3583" lon="3.26828">
        <ele>274.59</ele>
        <time>2021-08-13T18:15:04Z</time>
      </trkpt>
      <trkpt lat="46.3583" lon="3.26829">
        <ele>274.59</ele>
        <time>2021-08-13T18:15:17Z</time>
      </trkpt>
      <trkpt lat="46.3583" lon="3.26829">
        <ele>274.59</ele>
        <time>2021-08-13T18:15:26Z</time>
      </trkpt>
      <trkpt lat="46.35829" lon="3.26827">
        <ele>274.59</ele>
        <time>2021-08-13T18:15:44Z</time>
      </trkpt>
      <trkpt lat="46.35828" lon="3.26826">
        <ele>274.59</ele>
        <time>2021-08-13T18:15:45Z</time>
      </trkpt>
      <trkpt lat="46.35828" lon="3.26823">
        <ele>274.59</ele>
        <time>2021-08-13T18:15:46Z</time>
      </trkpt>
      <trkpt lat="46.35827" lon="3.26819">
        <ele>274.59</ele>
        <time>2021-08-13T18:15:47Z</time>
      </trkpt>
      <trkpt lat="46.35825" lon="3.26815">
        <ele>274.59</ele>
        <time>2021-08-13T18:15:48Z</time>
      </trkpt>
      <trkpt lat="46.35823" lon="3.2681">
        <ele>274.11</ele>
        <time>2021-08-13T18:15:49Z</time>
      </trkpt>
      <trkpt lat="46.35821" lon="3.26805">
        <ele>274.11</ele>
        <time>2021-08-13T18:15:50Z</time>
      </trkpt>
      <trkpt lat="46.35817" lon="3.26794">
        <ele>273.63</ele>
        <time>2021-08-13T18:15:52Z</time>
      </trkpt>
      <trkpt lat="46.35802" lon="3.26757">
        <ele>271.71</ele>
        <time>2021-08-13T18:15:57Z</time>
      </trkpt>
      <trkpt lat="46.35784" lon="3.26714">
        <ele>267.86</ele>
        <time>2021-08-13T18:16:02Z</time>
      </trkpt>
      <trkpt lat="46.35771" lon="3.26681">
        <ele>266.42</ele>
        <time>2021-08-13T18:16:06Z</time>
      </trkpt>
      <trkpt lat="46.35763" lon="3.26656">
        <ele>264.98</ele>
        <time>2021-08-13T18:16:11Z</time>
      </trkpt>
      <trkpt lat="46.35756" lon="3.26644">
        <ele>263.54</ele>
        <time>2021-08-13T18:16:14Z</time>
      </trkpt>
      <trkpt lat="46.35739" lon="3.26636">
        <ele>264.02</ele>
        <time>2021-08-13T18:16:18Z</time>
      </trkpt>
      <trkpt lat="46.35726" lon="3.26627">
        <ele>263.54</ele>
        <time>2021-08-13T18:16:21Z</time>
      </trkpt>
      <trkpt lat="46.35701" lon="3.26604">
        <ele>263.06</ele>
        <time>2021-08-13T18:16:27Z</time>
      </trkpt>
      <trkpt lat="46.35662" lon="3.26562">
        <ele>262.58</ele>
        <time>2021-08-13T18:16:36Z</time>
      </trkpt>
      <trkpt lat="46.35615" lon="3.26511">
        <ele>262.58</ele>
        <time>2021-08-13T18:16:47Z</time>
      </trkpt>
      <trkpt lat="46.35606" lon="3.26503">
        <ele>262.58</ele>
        <time>2021-08-13T18:16:49Z</time>
      </trkpt>
      <trkpt lat="46.35591" lon="3.26486">
        <ele>264.02</ele>
        <time>2021-08-13T18:16:53Z</time>
      </trkpt>
      <trkpt lat="46.35563" lon="3.26453">
        <ele>264.98</ele>
        <time>2021-08-13T18:17:01Z</time>
      </trkpt>
      <trkpt lat="46.35552" lon="3.26442">
        <ele>265.46</ele>
        <time>2021-08-13T18:17:04Z</time>
      </trkpt>
      <trkpt lat="46.35541" lon="3.26431">
        <ele>265.94</ele>
        <time>2021-08-13T18:17:07Z</time>
      </trkpt>
      <trkpt lat="46.35538" lon="3.26428">
        <ele>265.94</ele>
        <time>2021-08-13T18:17:08Z</time>
      </trkpt>
      <trkpt lat="46.35503" lon="3.2639">
        <ele>266.9</ele>
        <time>2021-08-13T18:17:18Z</time>
      </trkpt>
      <trkpt lat="46.35465" lon="3.26347">
        <ele>267.38</ele>
        <time>2021-08-13T18:17:29Z</time>
      </trkpt>
      <trkpt lat="46.35447" lon="3.26332">
        <ele>267.86</ele>
        <time>2021-08-13T18:17:35Z</time>
      </trkpt>
      <trkpt lat="46.35422" lon="3.26309">
        <ele>267.86</ele>
        <time>2021-08-13T18:17:42Z</time>
      </trkpt>
      <trkpt lat="46.35417" lon="3.26306">
        <ele>266.42</ele>
        <time>2021-08-13T18:17:43Z</time>
      </trkpt>
      <trkpt lat="46.35413" lon="3.26304">
        <ele>266.42</ele>
        <time>2021-08-13T18:17:44Z</time>
      </trkpt>
      <trkpt lat="46.35375" lon="3.26273">
        <ele>264.98</ele>
        <time>2021-08-13T18:17:52Z</time>
      </trkpt>
      <trkpt lat="46.35337" lon="3.26242">
        <ele>263.06</ele>
        <time>2021-08-13T18:17:59Z</time>
      </trkpt>
      <trkpt lat="46.3528" lon="3.26199">
        <ele>260.65</ele>
        <time>2021-08-13T18:18:08Z</time>
      </trkpt>
      <trkpt lat="46.35209" lon="3.2614">
        <ele>257.29</ele>
        <time>2021-08-13T18:18:18Z</time>
      </trkpt>
      <trkpt lat="46.35161" lon="3.26079">
        <ele>255.37</ele>
        <time>2021-08-13T18:18:26Z</time>
      </trkpt>
      <trkpt lat="46.35099" lon="3.25998">
        <ele>254.89</ele>
        <time>2021-08-13T18:18:37Z</time>
      </trkpt>
      <trkpt lat="46.35054" lon="3.2594">
        <ele>254.41</ele>
        <time>2021-08-13T18:18:46Z</time>
      </trkpt>
      <trkpt lat="46.35014" lon="3.2589">
        <ele>253.93</ele>
        <time>2021-08-13T18:18:54Z</time>
      </trkpt>
      <trkpt lat="46.34965" lon="3.25827">
        <ele>253.44</ele>
        <time>2021-08-13T18:19:05Z</time>
      </trkpt>
      <trkpt lat="46.34929" lon="3.25782">
        <ele>252.48</ele>
        <time>2021-08-13T18:19:13Z</time>
      </trkpt>
      <trkpt lat="46.34889" lon="3.25724">
        <ele>252</ele>
        <time>2021-08-13T18:19:22Z</time>
      </trkpt>
      <trkpt lat="46.34874" lon="3.25686">
        <ele>251.52</ele>
        <time>2021-08-13T18:19:27Z</time>
      </trkpt>
      <trkpt lat="46.34867" lon="3.25653">
        <ele>251.52</ele>
        <time>2021-08-13T18:19:31Z</time>
      </trkpt>
      <trkpt lat="46.34867" lon="3.25645">
        <ele>251.52</ele>
        <time>2021-08-13T18:19:32Z</time>
      </trkpt>
      <trkpt lat="46.34868" lon="3.25637">
        <ele>251.52</ele>
        <time>2021-08-13T18:19:33Z</time>
      </trkpt>
      <trkpt lat="46.34869" lon="3.25631">
        <ele>251.52</ele>
        <time>2021-08-13T18:19:34Z</time>
      </trkpt>
      <trkpt lat="46.34871" lon="3.25623">
        <ele>252.48</ele>
        <time>2021-08-13T18:19:35Z</time>
      </trkpt>
      <trkpt lat="46.34872" lon="3.25617">
        <ele>252.96</ele>
        <time>2021-08-13T18:19:36Z</time>
      </trkpt>
      <trkpt lat="46.34888" lon="3.25563">
        <ele>253.44</ele>
        <time>2021-08-13T18:19:45Z</time>
      </trkpt>
      <trkpt lat="46.349" lon="3.25503">
        <ele>253.44</ele>
        <time>2021-08-13T18:19:54Z</time>
      </trkpt>
      <trkpt lat="46.34899" lon="3.25451">
        <ele>253.44</ele>
        <time>2021-08-13T18:20:02Z</time>
      </trkpt>
      <trkpt lat="46.34887" lon="3.25424">
        <ele>253.93</ele>
        <time>2021-08-13T18:20:08Z</time>
      </trkpt>
      <trkpt lat="46.34871" lon="3.25411">
        <ele>254.41</ele>
        <time>2021-08-13T18:20:13Z</time>
      </trkpt>
      <trkpt lat="46.34858" lon="3.25387">
        <ele>252.96</ele>
        <time>2021-08-13T18:20:17Z</time>
      </trkpt>
      <trkpt lat="46.34856" lon="3.25381">
        <ele>252.96</ele>
        <time>2021-08-13T18:20:18Z</time>
      </trkpt>
      <trkpt lat="46.34852" lon="3.25369">
        <ele>252.96</ele>
        <time>2021-08-13T18:20:20Z</time>
      </trkpt>
      <trkpt lat="46.34846" lon="3.25357">
        <ele>252.96</ele>
        <time>2021-08-13T18:20:22Z</time>
      </trkpt>
      <trkpt lat="46.34835" lon="3.25338">
        <ele>252.96</ele>
        <time>2021-08-13T18:20:26Z</time>
      </trkpt>
      <trkpt lat="46.34812" lon="3.25318">
        <ele>252.96</ele>
        <time>2021-08-13T18:20:33Z</time>
      </trkpt>
      <trkpt lat="46.34781" lon="3.25302">
        <ele>255.37</ele>
        <time>2021-08-13T18:20:43Z</time>
      </trkpt>
      <trkpt lat="46.34765" lon="3.25305">
        <ele>256.33</ele>
        <time>2021-08-13T18:20:49Z</time>
      </trkpt>
      <trkpt lat="46.34747" lon="3.25312">
        <ele>256.81</ele>
        <time>2021-08-13T18:20:57Z</time>
      </trkpt>
      <trkpt lat="46.34736" lon="3.25315">
        <ele>257.77</ele>
        <time>2021-08-13T18:21:02Z</time>
      </trkpt>
      <trkpt lat="46.34734" lon="3.25316">
        <ele>257.77</ele>
        <time>2021-08-13T18:21:03Z</time>
      </trkpt>
      <trkpt lat="46.34716" lon="3.25318">
        <ele>258.73</ele>
        <time>2021-08-13T18:21:11Z</time>
      </trkpt>
      <trkpt lat="46.34703" lon="3.25316">
        <ele>259.69</ele>
        <time>2021-08-13T18:21:18Z</time>
      </trkpt>
      <trkpt lat="46.3469" lon="3.25314">
        <ele>260.65</ele>
        <time>2021-08-13T18:21:25Z</time>
      </trkpt>
      <trkpt lat="46.34674" lon="3.25314">
        <ele>261.62</ele>
        <time>2021-08-13T18:21:33Z</time>
      </trkpt>
      <trkpt lat="46.34671" lon="3.25316">
        <ele>262.1</ele>
        <time>2021-08-13T18:21:35Z</time>
      </trkpt>
      <trkpt lat="46.34669" lon="3.25315">
        <ele>262.1</ele>
        <time>2021-08-13T18:21:36Z</time>
      </trkpt>
      <trkpt lat="46.34668" lon="3.25312">
        <ele>262.1</ele>
        <time>2021-08-13T18:21:38Z</time>
      </trkpt>
      <trkpt lat="46.34668" lon="3.2531">
        <ele>262.1</ele>
        <time>2021-08-13T18:21:39Z</time>
      </trkpt>
      <trkpt lat="46.34667" lon="3.25309">
        <ele>262.1</ele>
        <time>2021-08-13T18:21:40Z</time>
      </trkpt>
      <trkpt lat="46.34666" lon="3.25307">
        <ele>262.1</ele>
        <time>2021-08-13T18:21:41Z</time>
      </trkpt>
      <trkpt lat="46.34665" lon="3.25305">
        <ele>262.1</ele>
        <time>2021-08-13T18:21:42Z</time>
      </trkpt>
      <trkpt lat="46.34665" lon="3.25303">
        <ele>262.1</ele>
        <time>2021-08-13T18:21:43Z</time>
      </trkpt>
      <trkpt lat="46.34664" lon="3.25301">
        <ele>262.1</ele>
        <time>2021-08-13T18:21:44Z</time>
      </trkpt>
      <trkpt lat="46.34663" lon="3.25299">
        <ele>262.1</ele>
        <time>2021-08-13T18:21:45Z</time>
      </trkpt>
      <trkpt lat="46.34653" lon="3.25288">
        <ele>263.54</ele>
        <time>2021-08-13T18:21:54Z</time>
      </trkpt>
      <trkpt lat="46.34651" lon="3.25286">
        <ele>264.02</ele>
        <time>2021-08-13T18:21:56Z</time>
      </trkpt>
      <trkpt lat="46.34649" lon="3.25285">
        <ele>264.02</ele>
        <time>2021-08-13T18:21:57Z</time>
      </trkpt>
      <trkpt lat="46.34648" lon="3.25284">
        <ele>264.02</ele>
        <time>2021-08-13T18:21:58Z</time>
      </trkpt>
      <trkpt lat="46.34642" lon="3.25279">
        <ele>264.98</ele>
        <time>2021-08-13T18:22:03Z</time>
      </trkpt>
      <trkpt lat="46.34638" lon="3.25272">
        <ele>266.42</ele>
        <time>2021-08-13T18:22:10Z</time>
      </trkpt>
      <trkpt lat="46.34632" lon="3.25265">
        <ele>267.38</ele>
        <time>2021-08-13T18:22:18Z</time>
      </trkpt>
      <trkpt lat="46.34627" lon="3.25254">
        <ele>269.31</ele>
        <time>2021-08-13T18:22:29Z</time>
      </trkpt>
      <trkpt lat="46.34621" lon="3.25246">
        <ele>270.75</ele>
        <time>2021-08-13T18:22:39Z</time>
      </trkpt>
      <trkpt lat="46.34618" lon="3.2524">
        <ele>271.23</ele>
        <time>2021-08-13T18:22:46Z</time>
      </trkpt>
      <trkpt lat="46.34614" lon="3.25234">
        <ele>272.19</ele>
        <time>2021-08-13T18:22:55Z</time>
      </trkpt>
      <trkpt lat="46.34608" lon="3.25225">
        <ele>273.15</ele>
        <time>2021-08-13T18:23:04Z</time>
      </trkpt>
      <trkpt lat="46.34604" lon="3.25219">
        <ele>273.15</ele>
        <time>2021-08-13T18:23:10Z</time>
      </trkpt>
      <trkpt lat="46.34596" lon="3.25209">
        <ele>273.63</ele>
        <time>2021-08-13T18:23:19Z</time>
      </trkpt>
      <trkpt lat="46.3459" lon="3.252">
        <ele>275.07</ele>
        <time>2021-08-13T18:23:28Z</time>
      </trkpt>
      <trkpt lat="46.34585" lon="3.25197">
        <ele>275.56</ele>
        <time>2021-08-13T18:23:34Z</time>
      </trkpt>
      <trkpt lat="46.34584" lon="3.252">
        <ele>275.56</ele>
        <time>2021-08-13T18:23:41Z</time>
      </trkpt>
      <trkpt lat="46.34586" lon="3.25201">
        <ele>275.56</ele>
        <time>2021-08-13T18:23:56Z</time>
      </trkpt>
      <trkpt lat="46.34583" lon="3.25205">
        <ele>275.56</ele>
        <time>2021-08-13T18:24:01Z</time>
      </trkpt>
      <trkpt lat="46.34583" lon="3.25206">
        <ele>275.56</ele>
        <time>2021-08-13T18:24:02Z</time>
      </trkpt>
      <trkpt lat="46.34575" lon="3.25227">
        <ele>276.04</ele>
        <time>2021-08-13T18:24:10Z</time>
      </trkpt>
      <trkpt lat="46.34572" lon="3.25248">
        <ele>276.04</ele>
        <time>2021-08-13T18:24:17Z</time>
      </trkpt>
      <trkpt lat="46.34572" lon="3.2527">
        <ele>275.07</ele>
        <time>2021-08-13T18:24:21Z</time>
      </trkpt>
      <trkpt lat="46.34572" lon="3.25277">
        <ele>274.11</ele>
        <time>2021-08-13T18:24:22Z</time>
      </trkpt>
      <trkpt lat="46.34572" lon="3.25286">
        <ele>274.11</ele>
        <time>2021-08-13T18:24:23Z</time>
      </trkpt>
      <trkpt lat="46.34573" lon="3.25324">
        <ele>272.19</ele>
        <time>2021-08-13T18:24:27Z</time>
      </trkpt>
      <trkpt lat="46.34578" lon="3.25372">
        <ele>272.67</ele>
        <time>2021-08-13T18:24:33Z</time>
      </trkpt>
      <trkpt lat="46.3458" lon="3.254">
        <ele>273.63</ele>
        <time>2021-08-13T18:24:39Z</time>
      </trkpt>
      <trkpt lat="46.3458" lon="3.25403">
        <ele>273.63</ele>
        <time>2021-08-13T18:24:40Z</time>
      </trkpt>
      <trkpt lat="46.3458" lon="3.25405">
        <ele>273.63</ele>
        <time>2021-08-13T18:24:41Z</time>
      </trkpt>
      <trkpt lat="46.34581" lon="3.25406">
        <ele>273.63</ele>
        <time>2021-08-13T18:24:42Z</time>
      </trkpt>
      <trkpt lat="46.3458" lon="3.25399">
        <ele>273.63</ele>
        <time>2021-08-13T18:24:46Z</time>
      </trkpt>
      <trkpt lat="46.34582" lon="3.25396">
        <ele>273.63</ele>
        <time>2021-08-13T18:24:50Z</time>
      </trkpt>
      <trkpt lat="46.34582" lon="3.25401">
        <ele>273.63</ele>
        <time>2021-08-13T18:24:52Z</time>
      </trkpt>
      <trkpt lat="46.34581" lon="3.25405">
        <ele>273.63</ele>
        <time>2021-08-13T18:24:53Z</time>
      </trkpt>
      <trkpt lat="46.34581" lon="3.25408">
        <ele>273.63</ele>
        <time>2021-08-13T18:24:54Z</time>
      </trkpt>
      <trkpt lat="46.34581" lon="3.25412">
        <ele>273.15</ele>
        <time>2021-08-13T18:24:55Z</time>
      </trkpt>
      <trkpt lat="46.34582" lon="3.25416">
        <ele>273.63</ele>
        <time>2021-08-13T18:24:56Z</time>
      </trkpt>
      <trkpt lat="46.34583" lon="3.25418">
        <ele>273.63</ele>
        <time>2021-08-13T18:24:57Z</time>
      </trkpt>
      <trkpt lat="46.34585" lon="3.2542">
        <ele>273.63</ele>
        <time>2021-08-13T18:24:58Z</time>
      </trkpt>
      <trkpt lat="46.34586" lon="3.25422">
        <ele>273.63</ele>
        <time>2021-08-13T18:24:59Z</time>
      </trkpt>
      <trkpt lat="46.3459" lon="3.25434">
        <ele>273.63</ele>
        <time>2021-08-13T18:25:04Z</time>
      </trkpt>
      <trkpt lat="46.34589" lon="3.25437">
        <ele>273.63</ele>
        <time>2021-08-13T18:25:05Z</time>
      </trkpt>
      <trkpt lat="46.34588" lon="3.25439">
        <ele>273.63</ele>
        <time>2021-08-13T18:25:06Z</time>
      </trkpt>
      <trkpt lat="46.34587" lon="3.25442">
        <ele>273.63</ele>
        <time>2021-08-13T18:25:07Z</time>
      </trkpt>
      <trkpt lat="46.34587" lon="3.25445">
        <ele>273.63</ele>
        <time>2021-08-13T18:25:08Z</time>
      </trkpt>
      <trkpt lat="46.34588" lon="3.25447">
        <ele>273.63</ele>
        <time>2021-08-13T18:25:09Z</time>
      </trkpt>
      <trkpt lat="46.34589" lon="3.25446">
        <ele>273.15</ele>
        <time>2021-08-13T18:25:10Z</time>
      </trkpt>
      <trkpt lat="46.34587" lon="3.25436">
        <ele>273.63</ele>
        <time>2021-08-13T18:25:13Z</time>
      </trkpt>
      <trkpt lat="46.34586" lon="3.25434">
        <ele>273.15</ele>
        <time>2021-08-13T18:25:14Z</time>
      </trkpt>
      <trkpt lat="46.34577" lon="3.25406">
        <ele>273.15</ele>
        <time>2021-08-13T18:25:22Z</time>
      </trkpt>
      <trkpt lat="46.34576" lon="3.25378">
        <ele>273.15</ele>
        <time>2021-08-13T18:25:28Z</time>
      </trkpt>
      <trkpt lat="46.34572" lon="3.25337">
        <ele>271.71</ele>
        <time>2021-08-13T18:25:35Z</time>
      </trkpt>
      <trkpt lat="46.34579" lon="3.25317">
        <ele>271.23</ele>
        <time>2021-08-13T18:25:40Z</time>
      </trkpt>
      <trkpt lat="46.34582" lon="3.25314">
        <ele>271.23</ele>
        <time>2021-08-13T18:25:45Z</time>
      </trkpt>
      <trkpt lat="46.34582" lon="3.25316">
        <ele>271.23</ele>
        <time>2021-08-13T18:26:01Z</time>
      </trkpt>
      <trkpt lat="46.34583" lon="3.25314">
        <ele>271.23</ele>
        <time>2021-08-13T18:26:21Z</time>
      </trkpt>
      <trkpt lat="46.34582" lon="3.2531">
        <ele>271.23</ele>
        <time>2021-08-13T18:26:37Z</time>
      </trkpt>
      <trkpt lat="46.34582" lon="3.2531">
        <ele>271.23</ele>
        <time>2021-08-13T18:26:51Z</time>
      </trkpt>
      <trkpt lat="46.34582" lon="3.25312">
        <ele>271.23</ele>
        <time>2021-08-13T18:27:04Z</time>
      </trkpt>
      <trkpt lat="46.34582" lon="3.25312">
        <ele>271.23</ele>
        <time>2021-08-13T18:27:19Z</time>
      </trkpt>
      <trkpt lat="46.34583" lon="3.2531">
        <ele>271.23</ele>
        <time>2021-08-13T18:27:34Z</time>
      </trkpt>
      <trkpt lat="46.34582" lon="3.25312">
        <ele>271.23</ele>
        <time>2021-08-13T18:27:55Z</time>
      </trkpt>
      <trkpt lat="46.34583" lon="3.25311">
        <ele>271.23</ele>
        <time>2021-08-13T18:28:12Z</time>
      </trkpt>
      <trkpt lat="46.34583" lon="3.25313">
        <ele>271.23</ele>
        <time>2021-08-13T18:28:31Z</time>
      </trkpt>
      <trkpt lat="46.34583" lon="3.25313">
        <ele>271.23</ele>
        <time>2021-08-13T18:28:42Z</time>
      </trkpt>
      <trkpt lat="46.3458" lon="3.25312">
        <ele>271.23</ele>
        <time>2021-08-13T18:29:03Z</time>
      </trkpt>
      <trkpt lat="46.3458" lon="3.25308">
        <ele>271.71</ele>
        <time>2021-08-13T18:29:19Z</time>
      </trkpt>
      <trkpt lat="46.3458" lon="3.25305">
        <ele>271.71</ele>
        <time>2021-08-13T18:29:35Z</time>
      </trkpt>
      <trkpt lat="46.3458" lon="3.25306">
        <ele>271.71</ele>
        <time>2021-08-13T18:29:55Z</time>
      </trkpt>
      <trkpt lat="46.34582" lon="3.25307">
        <ele>271.71</ele>
        <time>2021-08-13T18:30:11Z</time>
      </trkpt>
      <trkpt lat="46.34581" lon="3.2531">
        <ele>271.71</ele>
        <time>2021-08-13T18:30:16Z</time>
      </trkpt>
      <trkpt lat="46.34581" lon="3.25309">
        <ele>271.71</ele>
        <time>2021-08-13T18:30:23Z</time>
      </trkpt>
      <trkpt lat="46.3458" lon="3.25304">
        <ele>271.71</ele>
        <time>2021-08-13T18:30:35Z</time>
      </trkpt>
      <trkpt lat="46.34578" lon="3.25302">
        <ele>272.19</ele>
        <time>2021-08-13T18:30:46Z</time>
      </trkpt>
      <trkpt lat="46.34578" lon="3.25302">
        <ele>272.19</ele>
        <time>2021-08-13T18:30:58Z</time>
      </trkpt>
      <trkpt lat="46.34578" lon="3.253">
        <ele>272.19</ele>
        <time>2021-08-13T18:31:14Z</time>
      </trkpt>
      <trkpt lat="46.34575" lon="3.25301">
        <ele>272.19</ele>
        <time>2021-08-13T18:31:29Z</time>
      </trkpt>
      <trkpt lat="46.34576" lon="3.25306">
        <ele>272.67</ele>
        <time>2021-08-13T18:31:44Z</time>
      </trkpt>
      <trkpt lat="46.34577" lon="3.25307">
        <ele>272.67</ele>
        <time>2021-08-13T18:32:01Z</time>
      </trkpt>
      <trkpt lat="46.3458" lon="3.25305">
        <ele>272.67</ele>
        <time>2021-08-13T18:32:23Z</time>
      </trkpt>
      <trkpt lat="46.34579" lon="3.25304">
        <ele>272.67</ele>
        <time>2021-08-13T18:32:41Z</time>
      </trkpt>
      <trkpt lat="46.34577" lon="3.25303">
        <ele>273.15</ele>
        <time>2021-08-13T18:33:09Z</time>
      </trkpt>
      <trkpt lat="46.34581" lon="3.25302">
        <ele>273.15</ele>
        <time>2021-08-13T18:33:28Z</time>
      </trkpt>
      <trkpt lat="46.34581" lon="3.25305">
        <ele>273.15</ele>
        <time>2021-08-13T18:33:48Z</time>
      </trkpt>
      <trkpt lat="46.34579" lon="3.25309">
        <ele>273.63</ele>
        <time>2021-08-13T18:34:12Z</time>
      </trkpt>
      <trkpt lat="46.3458" lon="3.25308">
        <ele>273.63</ele>
        <time>2021-08-13T18:34:34Z</time>
      </trkpt>
      <trkpt lat="46.3458" lon="3.25306">
        <ele>273.63</ele>
        <time>2021-08-13T18:34:55Z</time>
      </trkpt>
      <trkpt lat="46.34579" lon="3.25304">
        <ele>273.63</ele>
        <time>2021-08-13T18:35:09Z</time>
      </trkpt>
      <trkpt lat="46.3458" lon="3.25305">
        <ele>273.63</ele>
        <time>2021-08-13T18:35:17Z</time>
      </trkpt>
      <trkpt lat="46.34579" lon="3.25305">
        <ele>274.11</ele>
        <time>2021-08-13T18:35:33Z</time>
      </trkpt>
      <trkpt lat="46.3458" lon="3.25305">
        <ele>274.11</ele>
        <time>2021-08-13T18:35:47Z</time>
      </trkpt>
      <trkpt lat="46.34581" lon="3.25306">
        <ele>274.11</ele>
        <time>2021-08-13T18:36:10Z</time>
      </trkpt>
      <trkpt lat="46.34582" lon="3.25306">
        <ele>274.11</ele>
        <time>2021-08-13T18:36:19Z</time>
      </trkpt>
      <trkpt lat="46.34583" lon="3.25304">
        <ele>274.11</ele>
        <time>2021-08-13T18:36:38Z</time>
      </trkpt>
      <trkpt lat="46.34583" lon="3.25304">
        <ele>274.11</ele>
        <time>2021-08-13T18:36:53Z</time>
      </trkpt>
      <trkpt lat="46.34582" lon="3.25304">
        <ele>274.11</ele>
        <time>2021-08-13T18:37:08Z</time>
      </trkpt>
      <trkpt lat="46.34579" lon="3.25306">
        <ele>274.11</ele>
        <time>2021-08-13T18:37:24Z</time>
      </trkpt>
      <trkpt lat="46.34583" lon="3.25306">
        <ele>274.11</ele>
        <time>2021-08-13T18:37:42Z</time>
      </trkpt>
      <trkpt lat="46.34585" lon="3.25307">
        <ele>274.11</ele>
        <time>2021-08-13T18:37:57Z</time>
      </trkpt>
      <trkpt lat="46.34584" lon="3.25307">
        <ele>274.59</ele>
        <time>2021-08-13T18:38:11Z</time>
      </trkpt>
      <trkpt lat="46.34583" lon="3.25306">
        <ele>274.59</ele>
        <time>2021-08-13T18:38:22Z</time>
      </trkpt>
      <trkpt lat="46.34582" lon="3.25305">
        <ele>274.59</ele>
        <time>2021-08-13T18:38:41Z</time>
      </trkpt>
      <trkpt lat="46.34581" lon="3.25307">
        <ele>274.59</ele>
        <time>2021-08-13T18:38:57Z</time>
      </trkpt>
      <trkpt lat="46.34581" lon="3.25306">
        <ele>274.59</ele>
        <time>2021-08-13T18:39:14Z</time>
      </trkpt>
      <trkpt lat="46.34582" lon="3.25303">
        <ele>274.59</ele>
        <time>2021-08-13T18:39:34Z</time>
      </trkpt>
      <trkpt lat="46.34582" lon="3.25299">
        <ele>274.59</ele>
        <time>2021-08-13T18:39:54Z</time>
      </trkpt>
      <trkpt lat="46.34582" lon="3.25298">
        <ele>275.07</ele>
        <time>2021-08-13T18:40:11Z</time>
      </trkpt>
      <trkpt lat="46.34582" lon="3.253">
        <ele>275.07</ele>
        <time>2021-08-13T18:40:25Z</time>
      </trkpt>
      <trkpt lat="46.34579" lon="3.25302">
        <ele>275.07</ele>
        <time>2021-08-13T18:40:47Z</time>
      </trkpt>
      <trkpt lat="46.34579" lon="3.25301">
        <ele>275.07</ele>
        <time>2021-08-13T18:41:00Z</time>
      </trkpt>
      <trkpt lat="46.34579" lon="3.25301">
        <ele>275.07</ele>
        <time>2021-08-13T18:41:11Z</time>
      </trkpt>
      <trkpt lat="46.3458" lon="3.25303">
        <ele>275.07</ele>
        <time>2021-08-13T18:41:25Z</time>
      </trkpt>
      <trkpt lat="46.34581" lon="3.25304">
        <ele>275.56</ele>
        <time>2021-08-13T18:41:41Z</time>
      </trkpt>
      <trkpt lat="46.34583" lon="3.25303">
        <ele>275.56</ele>
        <time>2021-08-13T18:41:53Z</time>
      </trkpt>
      <trkpt lat="46.34582" lon="3.25302">
        <ele>275.56</ele>
        <time>2021-08-13T18:42:14Z</time>
      </trkpt>
      <trkpt lat="46.34581" lon="3.25304">
        <ele>275.56</ele>
        <time>2021-08-13T18:42:30Z</time>
      </trkpt>
      <trkpt lat="46.34582" lon="3.25301">
        <ele>275.56</ele>
        <time>2021-08-13T18:42:46Z</time>
      </trkpt>
      <trkpt lat="46.34579" lon="3.25302">
        <ele>275.56</ele>
        <time>2021-08-13T18:43:03Z</time>
      </trkpt>
      <trkpt lat="46.34579" lon="3.25302">
        <ele>275.56</ele>
        <time>2021-08-13T18:43:17Z</time>
      </trkpt>
      <trkpt lat="46.34578" lon="3.25305">
        <ele>275.56</ele>
        <time>2021-08-13T18:43:39Z</time>
      </trkpt>
      <trkpt lat="46.34579" lon="3.25303">
        <ele>275.56</ele>
        <time>2021-08-13T18:43:58Z</time>
      </trkpt>
      <trkpt lat="46.3458" lon="3.25303">
        <ele>276.04</ele>
        <time>2021-08-13T18:44:15Z</time>
      </trkpt>
      <trkpt lat="46.34579" lon="3.25304">
        <ele>276.04</ele>
        <time>2021-08-13T18:44:38Z</time>
      </trkpt>
      <trkpt lat="46.34578" lon="3.25304">
        <ele>276.04</ele>
        <time>2021-08-13T18:44:53Z</time>
      </trkpt>
      <trkpt lat="46.34578" lon="3.25301">
        <ele>276.04</ele>
        <time>2021-08-13T18:45:12Z</time>
      </trkpt>
      <trkpt lat="46.34578" lon="3.25306">
        <ele>276.04</ele>
        <time>2021-08-13T18:45:38Z</time>
      </trkpt>
      <trkpt lat="46.34578" lon="3.25304">
        <ele>276.04</ele>
        <time>2021-08-13T18:45:50Z</time>
      </trkpt>
      <trkpt lat="46.3458" lon="3.25302">
        <ele>275.56</ele>
        <time>2021-08-13T18:46:05Z</time>
      </trkpt>
      <trkpt lat="46.34582" lon="3.253">
        <ele>276.04</ele>
        <time>2021-08-13T18:46:20Z</time>
      </trkpt>
      <trkpt lat="46.34582" lon="3.25305">
        <ele>276.04</ele>
        <time>2021-08-13T18:46:31Z</time>
      </trkpt>
      <trkpt lat="46.34583" lon="3.25309">
        <ele>276.04</ele>
        <time>2021-08-13T18:46:45Z</time>
      </trkpt>
      <trkpt lat="46.34583" lon="3.2531">
        <ele>276.04</ele>
        <time>2021-08-13T18:46:58Z</time>
      </trkpt>
      <trkpt lat="46.34581" lon="3.25309">
        <ele>276.04</ele>
        <time>2021-08-13T18:47:10Z</time>
      </trkpt>
      <trkpt lat="46.34579" lon="3.25307">
        <ele>276.04</ele>
        <time>2021-08-13T18:47:28Z</time>
      </trkpt>
      <trkpt lat="46.34578" lon="3.25304">
        <ele>276.04</ele>
        <time>2021-08-13T18:47:44Z</time>
      </trkpt>
      <trkpt lat="46.34579" lon="3.25303">
        <ele>276.04</ele>
        <time>2021-08-13T18:47:57Z</time>
      </trkpt>
      <trkpt lat="46.34579" lon="3.25304">
        <ele>276.04</ele>
        <time>2021-08-13T18:48:16Z</time>
      </trkpt>
      <trkpt lat="46.3458" lon="3.25306">
        <ele>276.04</ele>
        <time>2021-08-13T18:48:32Z</time>
      </trkpt>
      <trkpt lat="46.34581" lon="3.25311">
        <ele>276.04</ele>
        <time>2021-08-13T18:48:38Z</time>
      </trkpt>
      <trkpt lat="46.34582" lon="3.25313">
        <ele>276.04</ele>
        <time>2021-08-13T18:48:46Z</time>
      </trkpt>
      <trkpt lat="46.34585" lon="3.25316">
        <ele>276.04</ele>
        <time>2021-08-13T18:49:13Z</time>
      </trkpt>
      <trkpt lat="46.34584" lon="3.25316">
        <ele>276.04</ele>
        <time>2021-08-13T18:49:29Z</time>
      </trkpt>
      <trkpt lat="46.34581" lon="3.25317">
        <ele>276.04</ele>
        <time>2021-08-13T18:49:47Z</time>
      </trkpt>
      <trkpt lat="46.34581" lon="3.25316">
        <ele>276.04</ele>
        <time>2021-08-13T18:49:57Z</time>
      </trkpt>
      <trkpt lat="46.34581" lon="3.25316">
        <ele>276.04</ele>
        <time>2021-08-13T18:50:11Z</time>
      </trkpt>
      <trkpt lat="46.34581" lon="3.25315">
        <ele>276.04</ele>
        <time>2021-08-13T18:50:30Z</time>
      </trkpt>
      <trkpt lat="46.3458" lon="3.25315">
        <ele>276.04</ele>
        <time>2021-08-13T18:50:55Z</time>
      </trkpt>
      <trkpt lat="46.34579" lon="3.25315">
        <ele>276.04</ele>
        <time>2021-08-13T18:51:07Z</time>
      </trkpt>
      <trkpt lat="46.34578" lon="3.25315">
        <ele>276.04</ele>
        <time>2021-08-13T18:51:08Z</time>
      </trkpt>
      <trkpt lat="46.34572" lon="3.25319">
        <ele>275.56</ele>
        <time>2021-08-13T18:51:13Z</time>
      </trkpt>
      <trkpt lat="46.34571" lon="3.25321">
        <ele>275.56</ele>
        <time>2021-08-13T18:51:14Z</time>
      </trkpt>
      <trkpt lat="46.34569" lon="3.25327">
        <ele>275.56</ele>
        <time>2021-08-13T18:51:17Z</time>
      </trkpt>
      <trkpt lat="46.34574" lon="3.25347">
        <ele>275.56</ele>
        <time>2021-08-13T18:51:25Z</time>
      </trkpt>
      <trkpt lat="46.34576" lon="3.25361">
        <ele>276.52</ele>
        <time>2021-08-13T18:51:29Z</time>
      </trkpt>
      <trkpt lat="46.34578" lon="3.25386">
        <ele>277</ele>
        <time>2021-08-13T18:51:36Z</time>
      </trkpt>
      <trkpt lat="46.34578" lon="3.25418">
        <ele>277</ele>
        <time>2021-08-13T18:51:44Z</time>
      </trkpt>
      <trkpt lat="46.34575" lon="3.25457">
        <ele>277</ele>
        <time>2021-08-13T18:51:51Z</time>
      </trkpt>
      <trkpt lat="46.34568" lon="3.25512">
        <ele>275.56</ele>
        <time>2021-08-13T18:52:00Z</time>
      </trkpt>
      <trkpt lat="46.34567" lon="3.25518">
        <ele>275.56</ele>
        <time>2021-08-13T18:52:01Z</time>
      </trkpt>
      <trkpt lat="46.34556" lon="3.2556">
        <ele>275.56</ele>
        <time>2021-08-13T18:52:08Z</time>
      </trkpt>
      <trkpt lat="46.34554" lon="3.25565">
        <ele>275.56</ele>
        <time>2021-08-13T18:52:09Z</time>
      </trkpt>
      <trkpt lat="46.34552" lon="3.2557">
        <ele>275.56</ele>
        <time>2021-08-13T18:52:10Z</time>
      </trkpt>
      <trkpt lat="46.34549" lon="3.25575">
        <ele>275.56</ele>
        <time>2021-08-13T18:52:11Z</time>
      </trkpt>
      <trkpt lat="46.34546" lon="3.25579">
        <ele>275.56</ele>
        <time>2021-08-13T18:52:12Z</time>
      </trkpt>
      <trkpt lat="46.34543" lon="3.25582">
        <ele>275.56</ele>
        <time>2021-08-13T18:52:13Z</time>
      </trkpt>
      <trkpt lat="46.34528" lon="3.25605">
        <ele>276.52</ele>
        <time>2021-08-13T18:52:20Z</time>
      </trkpt>
      <trkpt lat="46.34526" lon="3.25608">
        <ele>276.52</ele>
        <time>2021-08-13T18:52:21Z</time>
      </trkpt>
      <trkpt lat="46.34504" lon="3.2564">
        <ele>277.48</ele>
        <time>2021-08-13T18:52:31Z</time>
      </trkpt>
      <trkpt lat="46.34482" lon="3.25674">
        <ele>277.48</ele>
        <time>2021-08-13T18:52:40Z</time>
      </trkpt>
      <trkpt lat="46.3445" lon="3.25712">
        <ele>277.96</ele>
        <time>2021-08-13T18:52:50Z</time>
      </trkpt>
      <trkpt lat="46.34422" lon="3.25736">
        <ele>278.92</ele>
        <time>2021-08-13T18:52:59Z</time>
      </trkpt>
      <trkpt lat="46.34402" lon="3.25757">
        <ele>279.88</ele>
        <time>2021-08-13T18:53:08Z</time>
      </trkpt>
      <trkpt lat="46.34395" lon="3.25777">
        <ele>279.88</ele>
        <time>2021-08-13T18:53:14Z</time>
      </trkpt>
      <trkpt lat="46.34397" lon="3.25824">
        <ele>279.88</ele>
        <time>2021-08-13T18:53:24Z</time>
      </trkpt>
      <trkpt lat="46.34402" lon="3.2587">
        <ele>277.96</ele>
        <time>2021-08-13T18:53:32Z</time>
      </trkpt>
      <trkpt lat="46.34407" lon="3.25927">
        <ele>276.52</ele>
        <time>2021-08-13T18:53:40Z</time>
      </trkpt>
      <trkpt lat="46.34412" lon="3.25987">
        <ele>276.04</ele>
        <time>2021-08-13T18:53:48Z</time>
      </trkpt>
      <trkpt lat="46.34416" lon="3.26041">
        <ele>275.56</ele>
        <time>2021-08-13T18:53:56Z</time>
      </trkpt>
      <trkpt lat="46.34416" lon="3.2606">
        <ele>275.56</ele>
        <time>2021-08-13T18:53:59Z</time>
      </trkpt>
      <trkpt lat="46.34414" lon="3.26066">
        <ele>275.07</ele>
        <time>2021-08-13T18:54:00Z</time>
      </trkpt>
      <trkpt lat="46.34413" lon="3.26072">
        <ele>275.07</ele>
        <time>2021-08-13T18:54:01Z</time>
      </trkpt>
      <trkpt lat="46.3441" lon="3.26077">
        <ele>275.07</ele>
        <time>2021-08-13T18:54:02Z</time>
      </trkpt>
      <trkpt lat="46.34408" lon="3.26083">
        <ele>275.07</ele>
        <time>2021-08-13T18:54:03Z</time>
      </trkpt>
      <trkpt lat="46.34405" lon="3.26087">
        <ele>275.07</ele>
        <time>2021-08-13T18:54:04Z</time>
      </trkpt>
      <trkpt lat="46.34402" lon="3.26093">
        <ele>275.07</ele>
        <time>2021-08-13T18:54:05Z</time>
      </trkpt>
      <trkpt lat="46.34372" lon="3.26138">
        <ele>271.23</ele>
        <time>2021-08-13T18:54:13Z</time>
      </trkpt>
      <trkpt lat="46.34354" lon="3.26167">
        <ele>267.86</ele>
        <time>2021-08-13T18:54:17Z</time>
      </trkpt>
      <trkpt lat="46.3434" lon="3.26194">
        <ele>264.5</ele>
        <time>2021-08-13T18:54:20Z</time>
      </trkpt>
      <trkpt lat="46.34326" lon="3.26224">
        <ele>261.14</ele>
        <time>2021-08-13T18:54:23Z</time>
      </trkpt>
      <trkpt lat="46.34313" lon="3.26253">
        <ele>257.77</ele>
        <time>2021-08-13T18:54:26Z</time>
      </trkpt>
      <trkpt lat="46.34306" lon="3.26271">
        <ele>256.33</ele>
        <time>2021-08-13T18:54:28Z</time>
      </trkpt>
      <trkpt lat="46.34304" lon="3.26281">
        <ele>255.37</ele>
        <time>2021-08-13T18:54:29Z</time>
      </trkpt>
      <trkpt lat="46.34303" lon="3.2629">
        <ele>255.85</ele>
        <time>2021-08-13T18:54:30Z</time>
      </trkpt>
      <trkpt lat="46.34303" lon="3.26301">
        <ele>254.89</ele>
        <time>2021-08-13T18:54:31Z</time>
      </trkpt>
      <trkpt lat="46.34304" lon="3.26309">
        <ele>254.89</ele>
        <time>2021-08-13T18:54:32Z</time>
      </trkpt>
      <trkpt lat="46.34306" lon="3.26318">
        <ele>255.37</ele>
        <time>2021-08-13T18:54:33Z</time>
      </trkpt>
      <trkpt lat="46.34309" lon="3.26326">
        <ele>255.37</ele>
        <time>2021-08-13T18:54:34Z</time>
      </trkpt>
      <trkpt lat="46.34319" lon="3.26368">
        <ele>254.89</ele>
        <time>2021-08-13T18:54:39Z</time>
      </trkpt>
      <trkpt lat="46.3432" lon="3.26376">
        <ele>254.89</ele>
        <time>2021-08-13T18:54:40Z</time>
      </trkpt>
      <trkpt lat="46.34319" lon="3.26382">
        <ele>254.89</ele>
        <time>2021-08-13T18:54:41Z</time>
      </trkpt>
      <trkpt lat="46.34317" lon="3.26387">
        <ele>254.89</ele>
        <time>2021-08-13T18:54:42Z</time>
      </trkpt>
      <trkpt lat="46.34315" lon="3.2639">
        <ele>254.41</ele>
        <time>2021-08-13T18:54:43Z</time>
      </trkpt>
      <trkpt lat="46.34313" lon="3.26392">
        <ele>254.41</ele>
        <time>2021-08-13T18:54:44Z</time>
      </trkpt>
      <trkpt lat="46.34311" lon="3.26394">
        <ele>254.41</ele>
        <time>2021-08-13T18:54:45Z</time>
      </trkpt>
      <trkpt lat="46.34295" lon="3.26406">
        <ele>254.41</ele>
        <time>2021-08-13T18:54:52Z</time>
      </trkpt>
      <trkpt lat="46.34291" lon="3.26407">
        <ele>255.85</ele>
        <time>2021-08-13T18:54:54Z</time>
      </trkpt>
      <trkpt lat="46.34289" lon="3.26408">
        <ele>255.85</ele>
        <time>2021-08-13T18:54:55Z</time>
      </trkpt>
      <trkpt lat="46.34288" lon="3.26411">
        <ele>255.85</ele>
        <time>2021-08-13T18:54:56Z</time>
      </trkpt>
      <trkpt lat="46.34288" lon="3.26413">
        <ele>255.85</ele>
        <time>2021-08-13T18:54:57Z</time>
      </trkpt>
      <trkpt lat="46.34287" lon="3.26416">
        <ele>255.85</ele>
        <time>2021-08-13T18:54:58Z</time>
      </trkpt>
      <trkpt lat="46.34285" lon="3.26418">
        <ele>255.85</ele>
        <time>2021-08-13T18:54:59Z</time>
      </trkpt>
      <trkpt lat="46.34283" lon="3.26421">
        <ele>255.85</ele>
        <time>2021-08-13T18:55:00Z</time>
      </trkpt>
      <trkpt lat="46.34272" lon="3.26445">
        <ele>256.81</ele>
        <time>2021-08-13T18:55:07Z</time>
      </trkpt>
      <trkpt lat="46.34256" lon="3.26469">
        <ele>257.77</ele>
        <time>2021-08-13T18:55:16Z</time>
      </trkpt>
      <trkpt lat="46.34244" lon="3.26485">
        <ele>259.21</ele>
        <time>2021-08-13T18:55:24Z</time>
      </trkpt>
      <trkpt lat="46.3423" lon="3.26489">
        <ele>260.17</ele>
        <time>2021-08-13T18:55:33Z</time>
      </trkpt>
      <trkpt lat="46.34219" lon="3.26492">
        <ele>261.14</ele>
        <time>2021-08-13T18:55:40Z</time>
      </trkpt>
      <trkpt lat="46.34209" lon="3.265">
        <ele>262.1</ele>
        <time>2021-08-13T18:55:48Z</time>
      </trkpt>
      <trkpt lat="46.34208" lon="3.26502">
        <ele>262.58</ele>
        <time>2021-08-13T18:55:49Z</time>
      </trkpt>
      <trkpt lat="46.34208" lon="3.26504">
        <ele>262.58</ele>
        <time>2021-08-13T18:55:50Z</time>
      </trkpt>
      <trkpt lat="46.34208" lon="3.26521">
        <ele>263.54</ele>
        <time>2021-08-13T18:55:58Z</time>
      </trkpt>
      <trkpt lat="46.34211" lon="3.2655">
        <ele>264.02</ele>
        <time>2021-08-13T18:56:10Z</time>
      </trkpt>
      <trkpt lat="46.34213" lon="3.26571">
        <ele>264.98</ele>
        <time>2021-08-13T18:56:18Z</time>
      </trkpt>
      <trkpt lat="46.34214" lon="3.26591">
        <ele>265.46</ele>
        <time>2021-08-13T18:56:26Z</time>
      </trkpt>
      <trkpt lat="46.34216" lon="3.26607">
        <ele>266.42</ele>
        <time>2021-08-13T18:56:33Z</time>
      </trkpt>
      <trkpt lat="46.34218" lon="3.26628">
        <ele>266.9</ele>
        <time>2021-08-13T18:56:41Z</time>
      </trkpt>
      <trkpt lat="46.34219" lon="3.26653">
        <ele>267.86</ele>
        <time>2021-08-13T18:56:51Z</time>
      </trkpt>
      <trkpt lat="46.34217" lon="3.26676">
        <ele>268.83</ele>
        <time>2021-08-13T18:57:00Z</time>
      </trkpt>
      <trkpt lat="46.34215" lon="3.267">
        <ele>269.31</ele>
        <time>2021-08-13T18:57:09Z</time>
      </trkpt>
      <trkpt lat="46.34214" lon="3.2672">
        <ele>270.75</ele>
        <time>2021-08-13T18:57:17Z</time>
      </trkpt>
      <trkpt lat="46.34211" lon="3.26735">
        <ele>270.75</ele>
        <time>2021-08-13T18:57:24Z</time>
      </trkpt>
      <trkpt lat="46.34206" lon="3.26756">
        <ele>271.71</ele>
        <time>2021-08-13T18:57:34Z</time>
      </trkpt>
      <trkpt lat="46.34198" lon="3.26785">
        <ele>272.67</ele>
        <time>2021-08-13T18:57:46Z</time>
      </trkpt>
      <trkpt lat="46.34195" lon="3.26803">
        <ele>273.63</ele>
        <time>2021-08-13T18:57:55Z</time>
      </trkpt>
      <trkpt lat="46.34194" lon="3.26816">
        <ele>274.59</ele>
        <time>2021-08-13T18:58:04Z</time>
      </trkpt>
      <trkpt lat="46.34192" lon="3.26826">
        <ele>275.56</ele>
        <time>2021-08-13T18:58:12Z</time>
      </trkpt>
      <trkpt lat="46.3419" lon="3.26836">
        <ele>276.04</ele>
        <time>2021-08-13T18:58:20Z</time>
      </trkpt>
      <trkpt lat="46.34187" lon="3.26847">
        <ele>277.48</ele>
        <time>2021-08-13T18:58:29Z</time>
      </trkpt>
      <trkpt lat="46.34186" lon="3.26858">
        <ele>278.44</ele>
        <time>2021-08-13T18:58:38Z</time>
      </trkpt>
      <trkpt lat="46.34183" lon="3.26868">
        <ele>279.88</ele>
        <time>2021-08-13T18:58:47Z</time>
      </trkpt>
      <trkpt lat="46.34181" lon="3.26877">
        <ele>280.84</ele>
        <time>2021-08-13T18:58:56Z</time>
      </trkpt>
      <trkpt lat="46.3418" lon="3.26888">
        <ele>281.8</ele>
        <time>2021-08-13T18:59:06Z</time>
      </trkpt>
      <trkpt lat="46.34177" lon="3.26901">
        <ele>282.77</ele>
        <time>2021-08-13T18:59:17Z</time>
      </trkpt>
      <trkpt lat="46.34175" lon="3.26912">
        <ele>284.69</ele>
        <time>2021-08-13T18:59:26Z</time>
      </trkpt>
      <trkpt lat="46.34173" lon="3.26922">
        <ele>285.65</ele>
        <time>2021-08-13T18:59:36Z</time>
      </trkpt>
      <trkpt lat="46.34168" lon="3.26933">
        <ele>286.61</ele>
        <time>2021-08-13T18:59:46Z</time>
      </trkpt>
      <trkpt lat="46.34161" lon="3.26943">
        <ele>288.53</ele>
        <time>2021-08-13T18:59:57Z</time>
      </trkpt>
      <trkpt lat="46.34155" lon="3.26952">
        <ele>289.49</ele>
        <time>2021-08-13T19:00:07Z</time>
      </trkpt>
      <trkpt lat="46.34149" lon="3.2696">
        <ele>290.46</ele>
        <time>2021-08-13T19:00:15Z</time>
      </trkpt>
      <trkpt lat="46.34143" lon="3.2697">
        <ele>291.42</ele>
        <time>2021-08-13T19:00:23Z</time>
      </trkpt>
      <trkpt lat="46.34135" lon="3.26982">
        <ele>292.86</ele>
        <time>2021-08-13T19:00:33Z</time>
      </trkpt>
      <trkpt lat="46.34126" lon="3.26991">
        <ele>293.82</ele>
        <time>2021-08-13T19:00:43Z</time>
      </trkpt>
      <trkpt lat="46.34118" lon="3.26997">
        <ele>294.3</ele>
        <time>2021-08-13T19:00:52Z</time>
      </trkpt>
      <trkpt lat="46.34113" lon="3.27">
        <ele>294.78</ele>
        <time>2021-08-13T19:01:00Z</time>
      </trkpt>
      <trkpt lat="46.34105" lon="3.27005">
        <ele>294.78</ele>
        <time>2021-08-13T19:01:06Z</time>
      </trkpt>
      <trkpt lat="46.34098" lon="3.26998">
        <ele>294.78</ele>
        <time>2021-08-13T19:01:10Z</time>
      </trkpt>
      <trkpt lat="46.34096" lon="3.26995">
        <ele>294.78</ele>
        <time>2021-08-13T19:01:11Z</time>
      </trkpt>
      <trkpt lat="46.34084" lon="3.26965">
        <ele>295.26</ele>
        <time>2021-08-13T19:01:20Z</time>
      </trkpt>
      <trkpt lat="46.34072" lon="3.26932">
        <ele>295.74</ele>
        <time>2021-08-13T19:01:29Z</time>
      </trkpt>
      <trkpt lat="46.3406" lon="3.26893">
        <ele>296.7</ele>
        <time>2021-08-13T19:01:39Z</time>
      </trkpt>
      <trkpt lat="46.34051" lon="3.26866">
        <ele>296.7</ele>
        <time>2021-08-13T19:01:46Z</time>
      </trkpt>
      <trkpt lat="46.34039" lon="3.2684">
        <ele>298.15</ele>
        <time>2021-08-13T19:01:54Z</time>
      </trkpt>
      <trkpt lat="46.34021" lon="3.26819">
        <ele>299.59</ele>
        <time>2021-08-13T19:02:03Z</time>
      </trkpt>
      <trkpt lat="46.34001" lon="3.26799">
        <ele>301.51</ele>
        <time>2021-08-13T19:02:13Z</time>
      </trkpt>
      <trkpt lat="46.33986" lon="3.26777">
        <ele>302.47</ele>
        <time>2021-08-13T19:02:24Z</time>
      </trkpt>
      <trkpt lat="46.33979" lon="3.26755">
        <ele>302.95</ele>
        <time>2021-08-13T19:02:31Z</time>
      </trkpt>
      <trkpt lat="46.33967" lon="3.26714">
        <ele>303.43</ele>
        <time>2021-08-13T19:02:40Z</time>
      </trkpt>
      <trkpt lat="46.33956" lon="3.26657">
        <ele>303.43</ele>
        <time>2021-08-13T19:02:49Z</time>
      </trkpt>
      <trkpt lat="46.33955" lon="3.26651">
        <ele>303.43</ele>
        <time>2021-08-13T19:02:50Z</time>
      </trkpt>
      <trkpt lat="46.33949" lon="3.26606">
        <ele>304.88</ele>
        <time>2021-08-13T19:02:59Z</time>
      </trkpt>
      <trkpt lat="46.33943" lon="3.26563">
        <ele>306.32</ele>
        <time>2021-08-13T19:03:10Z</time>
      </trkpt>
      <trkpt lat="46.33939" lon="3.26543">
        <ele>306.8</ele>
        <time>2021-08-13T19:03:18Z</time>
      </trkpt>
      <trkpt lat="46.33938" lon="3.26542">
        <ele>306.8</ele>
        <time>2021-08-13T19:03:19Z</time>
      </trkpt>
      <trkpt lat="46.33937" lon="3.26541">
        <ele>306.8</ele>
        <time>2021-08-13T19:03:20Z</time>
      </trkpt>
      <trkpt lat="46.33936" lon="3.2654">
        <ele>306.8</ele>
        <time>2021-08-13T19:03:21Z</time>
      </trkpt>
      <trkpt lat="46.33935" lon="3.26538">
        <ele>306.8</ele>
        <time>2021-08-13T19:03:22Z</time>
      </trkpt>
      <trkpt lat="46.33934" lon="3.26536">
        <ele>307.28</ele>
        <time>2021-08-13T19:03:24Z</time>
      </trkpt>
      <trkpt lat="46.33933" lon="3.26536">
        <ele>307.28</ele>
        <time>2021-08-13T19:03:25Z</time>
      </trkpt>
      <trkpt lat="46.33932" lon="3.26535">
        <ele>307.28</ele>
        <time>2021-08-13T19:03:26Z</time>
      </trkpt>
      <trkpt lat="46.33918" lon="3.26534">
        <ele>308.24</ele>
        <time>2021-08-13T19:03:37Z</time>
      </trkpt>
    </trkseg>
  </trk>
</gpx>